<?xml version="1.0" encoding="UTF-8"?>
<gpx version="1.1" creator="https://www.youtrack.es" xsi:schemaLocation="http://www.topografix.com/GPX/1/1 http://www.topografix.com/GPX/1/1/gpx.xsd http://www.garmin.com/xmlschemas/GpxExtensions/v3 http://www.garmin.com/xmlschemas/GpxExtensionsv3.xsd http://www.garmin.com/xmlschemas/TrackPointExtension/v1 http://www.garmin.com/xmlschemas/TrackPointExtensionv1.xsd" xmlns:gpxtpx="http://www.garmin.com/xmlschemas/TrackPointExtension/v1" xmlns:gpxx="http://www.garmin.com/xmlschemas/GpxExtensions/v3" xmlns:xsi="http://www.w3.org/2001/XMLSchema-instance">
  <metadata>
    <link href="https://www.youtrack.es">
      <text>YouTrack.es</text>
    </link>
    <time>2026-05-08T16:45:06Z</time>
  </metadata>
  <trk>
    <src>https://www.youtrack.es</src>
    <link href="https://www.youtrack.es/ruta/6649-ruteo-por-la-urba-con-bro">
      <text>YouTrack.es</text>
    </link>
    <trkseg>
      <trkpt lat="40.50446833" lon="-3.50636">
        <ele>667.055</ele>
        <time>2019-07-01T17:49:31.781Z</time>
      </trkpt>
      <trkpt lat="40.50449333" lon="-3.50634667">
        <ele>667.055</ele>
        <time>2019-07-01T17:49:32.781Z</time>
      </trkpt>
      <trkpt lat="40.50449333" lon="-3.50634667">
        <ele>667.055</ele>
        <time>2019-07-01T17:49:33.781Z</time>
      </trkpt>
      <trkpt lat="40.504545" lon="-3.506315">
        <ele>667.055</ele>
        <time>2019-07-01T17:49:34.781Z</time>
      </trkpt>
      <trkpt lat="40.50457" lon="-3.50630167">
        <ele>667.055</ele>
        <time>2019-07-01T17:49:35.781Z</time>
      </trkpt>
      <trkpt lat="40.50457" lon="-3.50630167">
        <ele>667.055</ele>
        <time>2019-07-01T17:49:36.781Z</time>
      </trkpt>
      <trkpt lat="40.50462" lon="-3.50627333">
        <ele>667.055</ele>
        <time>2019-07-01T17:49:37.781Z</time>
      </trkpt>
      <trkpt lat="40.50462" lon="-3.50627333">
        <ele>667.055</ele>
        <time>2019-07-01T17:49:38.781Z</time>
      </trkpt>
      <trkpt lat="40.50466333" lon="-3.50624167">
        <ele>667.055</ele>
        <time>2019-07-01T17:49:39.781Z</time>
      </trkpt>
      <trkpt lat="40.50466333" lon="-3.50624167">
        <ele>667.055</ele>
        <time>2019-07-01T17:49:40.781Z</time>
      </trkpt>
      <trkpt lat="40.50469833" lon="-3.50620667">
        <ele>667.055</ele>
        <time>2019-07-01T17:49:41.781Z</time>
      </trkpt>
      <trkpt lat="40.50469833" lon="-3.50620667">
        <ele>667.055</ele>
        <time>2019-07-01T17:49:42.781Z</time>
      </trkpt>
      <trkpt lat="40.50473333" lon="-3.50616333">
        <ele>667.055</ele>
        <time>2019-07-01T17:49:43.781Z</time>
      </trkpt>
      <trkpt lat="40.50474167" lon="-3.506125">
        <ele>667.055</ele>
        <time>2019-07-01T17:49:44.781Z</time>
      </trkpt>
      <trkpt lat="40.50474167" lon="-3.506125">
        <ele>667.055</ele>
        <time>2019-07-01T17:49:45.781Z</time>
      </trkpt>
      <trkpt lat="40.50473" lon="-3.50604333">
        <ele>667.055</ele>
        <time>2019-07-01T17:49:46.781Z</time>
      </trkpt>
      <trkpt lat="40.50473" lon="-3.50604333">
        <ele>667.055</ele>
        <time>2019-07-01T17:49:47.781Z</time>
      </trkpt>
      <trkpt lat="40.5047" lon="-3.50595167">
        <ele>667.055</ele>
        <time>2019-07-01T17:49:48.781Z</time>
      </trkpt>
      <trkpt lat="40.5047" lon="-3.50595167">
        <ele>667.055</ele>
        <time>2019-07-01T17:49:49.781Z</time>
      </trkpt>
      <trkpt lat="40.504665" lon="-3.50583833">
        <ele>667.055</ele>
        <time>2019-07-01T17:49:50.781Z</time>
      </trkpt>
      <trkpt lat="40.504665" lon="-3.50583833">
        <ele>667.055</ele>
        <time>2019-07-01T17:49:51.781Z</time>
      </trkpt>
      <trkpt lat="40.504635" lon="-3.50571">
        <ele>667.055</ele>
        <time>2019-07-01T17:49:52.781Z</time>
      </trkpt>
      <trkpt lat="40.504635" lon="-3.50571">
        <ele>667.055</ele>
        <time>2019-07-01T17:49:53.781Z</time>
      </trkpt>
      <trkpt lat="40.5046" lon="-3.50558">
        <ele>667.055</ele>
        <time>2019-07-01T17:49:54.781Z</time>
      </trkpt>
      <trkpt lat="40.5046" lon="-3.50558">
        <ele>667.055</ele>
        <time>2019-07-01T17:49:55.781Z</time>
      </trkpt>
      <trkpt lat="40.50455833" lon="-3.50543">
        <ele>667.055</ele>
        <time>2019-07-01T17:49:56.781Z</time>
      </trkpt>
      <trkpt lat="40.50455833" lon="-3.50543">
        <ele>667.055</ele>
        <time>2019-07-01T17:49:57.781Z</time>
      </trkpt>
      <trkpt lat="40.50451167" lon="-3.50526">
        <ele>667.055</ele>
        <time>2019-07-01T17:49:58.781Z</time>
      </trkpt>
      <trkpt lat="40.50451167" lon="-3.50526">
        <ele>667.055</ele>
        <time>2019-07-01T17:49:59.781Z</time>
      </trkpt>
      <trkpt lat="40.50445833" lon="-3.50506833">
        <ele>667.055</ele>
        <time>2019-07-01T17:50:00.781Z</time>
      </trkpt>
      <trkpt lat="40.50445833" lon="-3.50506833">
        <ele>667.055</ele>
        <time>2019-07-01T17:50:01.781Z</time>
      </trkpt>
      <trkpt lat="40.50440167" lon="-3.50486167">
        <ele>667.055</ele>
        <time>2019-07-01T17:50:02.781Z</time>
      </trkpt>
      <trkpt lat="40.50437" lon="-3.50475">
        <ele>667.055</ele>
        <time>2019-07-01T17:50:03.781Z</time>
      </trkpt>
      <trkpt lat="40.50437" lon="-3.50475">
        <ele>667.055</ele>
        <time>2019-07-01T17:50:04.781Z</time>
      </trkpt>
      <trkpt lat="40.504305" lon="-3.50451833">
        <ele>667.055</ele>
        <time>2019-07-01T17:50:05.781Z</time>
      </trkpt>
      <trkpt lat="40.504305" lon="-3.50451833">
        <ele>667.055</ele>
        <time>2019-07-01T17:50:06.781Z</time>
      </trkpt>
      <trkpt lat="40.50424167" lon="-3.50427333">
        <ele>667.055</ele>
        <time>2019-07-01T17:50:07.781Z</time>
      </trkpt>
      <trkpt lat="40.50424167" lon="-3.50427333">
        <ele>667.055</ele>
        <time>2019-07-01T17:50:08.781Z</time>
      </trkpt>
      <trkpt lat="40.50417333" lon="-3.50403">
        <ele>667.055</ele>
        <time>2019-07-01T17:50:09.781Z</time>
      </trkpt>
      <trkpt lat="40.50413833" lon="-3.50390333">
        <ele>667.055</ele>
        <time>2019-07-01T17:50:10.781Z</time>
      </trkpt>
      <trkpt lat="40.50413833" lon="-3.50390333">
        <ele>667.055</ele>
        <time>2019-07-01T17:50:11.781Z</time>
      </trkpt>
      <trkpt lat="40.50407167" lon="-3.50364667">
        <ele>667.055</ele>
        <time>2019-07-01T17:50:12.781Z</time>
      </trkpt>
      <trkpt lat="40.50407167" lon="-3.50364667">
        <ele>667.055</ele>
        <time>2019-07-01T17:50:13.781Z</time>
      </trkpt>
      <trkpt lat="40.50399" lon="-3.50340833">
        <ele>667.055</ele>
        <time>2019-07-01T17:50:14.781Z</time>
      </trkpt>
      <trkpt lat="40.50399" lon="-3.50340833">
        <ele>667.055</ele>
        <time>2019-07-01T17:50:15.781Z</time>
      </trkpt>
      <trkpt lat="40.50383833" lon="-3.50326167">
        <ele>667.055</ele>
        <time>2019-07-01T17:50:16.781Z</time>
      </trkpt>
      <trkpt lat="40.503745" lon="-3.50323833">
        <ele>667.055</ele>
        <time>2019-07-01T17:50:17.781Z</time>
      </trkpt>
      <trkpt lat="40.503745" lon="-3.50323833">
        <ele>667.055</ele>
        <time>2019-07-01T17:50:18.781Z</time>
      </trkpt>
      <trkpt lat="40.50356667" lon="-3.50325667">
        <ele>667.055</ele>
        <time>2019-07-01T17:50:19.781Z</time>
      </trkpt>
      <trkpt lat="40.50348167" lon="-3.50326833">
        <ele>667.055</ele>
        <time>2019-07-01T17:50:20.781Z</time>
      </trkpt>
      <trkpt lat="40.50348167" lon="-3.50326833">
        <ele>667.055</ele>
        <time>2019-07-01T17:50:21.781Z</time>
      </trkpt>
      <trkpt lat="40.50331" lon="-3.50328833">
        <ele>667.055</ele>
        <time>2019-07-01T17:50:22.781Z</time>
      </trkpt>
      <trkpt lat="40.50331" lon="-3.50328833">
        <ele>667.055</ele>
        <time>2019-07-01T17:50:23.781Z</time>
      </trkpt>
      <trkpt lat="40.50314333" lon="-3.50330667">
        <ele>667.055</ele>
        <time>2019-07-01T17:50:24.781Z</time>
      </trkpt>
      <trkpt lat="40.50314333" lon="-3.50330667">
        <ele>667.055</ele>
        <time>2019-07-01T17:50:25.781Z</time>
      </trkpt>
      <trkpt lat="40.50297833" lon="-3.503325">
        <ele>667.055</ele>
        <time>2019-07-01T17:50:26.781Z</time>
      </trkpt>
      <trkpt lat="40.50297833" lon="-3.503325">
        <ele>667.055</ele>
        <time>2019-07-01T17:50:27.781Z</time>
      </trkpt>
      <trkpt lat="40.50282" lon="-3.50334667">
        <ele>667.055</ele>
        <time>2019-07-01T17:50:28.781Z</time>
      </trkpt>
      <trkpt lat="40.50282" lon="-3.50334667">
        <ele>667.055</ele>
        <time>2019-07-01T17:50:29.781Z</time>
      </trkpt>
      <trkpt lat="40.502665" lon="-3.50338333">
        <ele>667.055</ele>
        <time>2019-07-01T17:50:30.781Z</time>
      </trkpt>
      <trkpt lat="40.50258833" lon="-3.503405">
        <ele>667.055</ele>
        <time>2019-07-01T17:50:31.781Z</time>
      </trkpt>
      <trkpt lat="40.50251167" lon="-3.50342333">
        <ele>667.055</ele>
        <time>2019-07-01T17:50:32.781Z</time>
      </trkpt>
      <trkpt lat="40.50251167" lon="-3.50342333">
        <ele>667.055</ele>
        <time>2019-07-01T17:50:33.781Z</time>
      </trkpt>
      <trkpt lat="40.50236167" lon="-3.503445">
        <ele>667.055</ele>
        <time>2019-07-01T17:50:34.781Z</time>
      </trkpt>
      <trkpt lat="40.50228833" lon="-3.50345667">
        <ele>667.055</ele>
        <time>2019-07-01T17:50:35.781Z</time>
      </trkpt>
      <trkpt lat="40.50228833" lon="-3.50345667">
        <ele>667.055</ele>
        <time>2019-07-01T17:50:36.781Z</time>
      </trkpt>
      <trkpt lat="40.50214833" lon="-3.503495">
        <ele>667.055</ele>
        <time>2019-07-01T17:50:37.781Z</time>
      </trkpt>
      <trkpt lat="40.50214833" lon="-3.503495">
        <ele>667.055</ele>
        <time>2019-07-01T17:50:38.781Z</time>
      </trkpt>
      <trkpt lat="40.50201167" lon="-3.50351667">
        <ele>667.055</ele>
        <time>2019-07-01T17:50:39.781Z</time>
      </trkpt>
      <trkpt lat="40.50194167" lon="-3.50352833">
        <ele>667.055</ele>
        <time>2019-07-01T17:50:40.781Z</time>
      </trkpt>
      <trkpt lat="40.50194167" lon="-3.50352833">
        <ele>667.055</ele>
        <time>2019-07-01T17:50:41.781Z</time>
      </trkpt>
      <trkpt lat="40.50181" lon="-3.50355833">
        <ele>667.055</ele>
        <time>2019-07-01T17:50:42.781Z</time>
      </trkpt>
      <trkpt lat="40.50181" lon="-3.50355833">
        <ele>667.055</ele>
        <time>2019-07-01T17:50:43.781Z</time>
      </trkpt>
      <trkpt lat="40.50168" lon="-3.50358333">
        <ele>667.055</ele>
        <time>2019-07-01T17:50:44.781Z</time>
      </trkpt>
      <trkpt lat="40.50168" lon="-3.50358333">
        <ele>667.055</ele>
        <time>2019-07-01T17:50:45.781Z</time>
      </trkpt>
      <trkpt lat="40.501555" lon="-3.503605">
        <ele>667.055</ele>
        <time>2019-07-01T17:50:46.781Z</time>
      </trkpt>
      <trkpt lat="40.501555" lon="-3.503605">
        <ele>667.055</ele>
        <time>2019-07-01T17:50:47.781Z</time>
      </trkpt>
      <trkpt lat="40.50142833" lon="-3.503635">
        <ele>667.055</ele>
        <time>2019-07-01T17:50:48.781Z</time>
      </trkpt>
      <trkpt lat="40.50136667" lon="-3.50365167">
        <ele>666.055</ele>
        <time>2019-07-01T17:50:49.781Z</time>
      </trkpt>
      <trkpt lat="40.50136667" lon="-3.50365167">
        <ele>666.055</ele>
        <time>2019-07-01T17:50:50.781Z</time>
      </trkpt>
      <trkpt lat="40.50124" lon="-3.50368833">
        <ele>666.055</ele>
        <time>2019-07-01T17:50:51.781Z</time>
      </trkpt>
      <trkpt lat="40.50117667" lon="-3.503705">
        <ele>666.055</ele>
        <time>2019-07-01T17:50:52.781Z</time>
      </trkpt>
      <trkpt lat="40.50117667" lon="-3.503705">
        <ele>666.055</ele>
        <time>2019-07-01T17:50:53.781Z</time>
      </trkpt>
      <trkpt lat="40.50106333" lon="-3.50376833">
        <ele>665.055</ele>
        <time>2019-07-01T17:50:54.781Z</time>
      </trkpt>
      <trkpt lat="40.50106333" lon="-3.50376833">
        <ele>665.055</ele>
        <time>2019-07-01T17:50:55.781Z</time>
      </trkpt>
      <trkpt lat="40.50098" lon="-3.50388333">
        <ele>665.055</ele>
        <time>2019-07-01T17:50:56.781Z</time>
      </trkpt>
      <trkpt lat="40.50098" lon="-3.50388333">
        <ele>665.055</ele>
        <time>2019-07-01T17:50:57.781Z</time>
      </trkpt>
      <trkpt lat="40.50087833" lon="-3.50397">
        <ele>665.055</ele>
        <time>2019-07-01T17:50:58.781Z</time>
      </trkpt>
      <trkpt lat="40.50087833" lon="-3.50397">
        <ele>665.055</ele>
        <time>2019-07-01T17:50:59.781Z</time>
      </trkpt>
      <trkpt lat="40.50076" lon="-3.50396333">
        <ele>665.055</ele>
        <time>2019-07-01T17:51:00.781Z</time>
      </trkpt>
      <trkpt lat="40.50076" lon="-3.50396333">
        <ele>665.055</ele>
        <time>2019-07-01T17:51:01.781Z</time>
      </trkpt>
      <trkpt lat="40.50064833" lon="-3.503915">
        <ele>665.055</ele>
        <time>2019-07-01T17:51:02.781Z</time>
      </trkpt>
      <trkpt lat="40.50064833" lon="-3.503915">
        <ele>665.055</ele>
        <time>2019-07-01T17:51:03.781Z</time>
      </trkpt>
      <trkpt lat="40.500535" lon="-3.503925">
        <ele>665.055</ele>
        <time>2019-07-01T17:51:04.781Z</time>
      </trkpt>
      <trkpt lat="40.50047833" lon="-3.50395333">
        <ele>665.055</ele>
        <time>2019-07-01T17:51:05.781Z</time>
      </trkpt>
      <trkpt lat="40.50042167" lon="-3.50398667">
        <ele>665.055</ele>
        <time>2019-07-01T17:51:06.781Z</time>
      </trkpt>
      <trkpt lat="40.50042167" lon="-3.50398667">
        <ele>665.055</ele>
        <time>2019-07-01T17:51:07.781Z</time>
      </trkpt>
      <trkpt lat="40.50030667" lon="-3.50404">
        <ele>665.055</ele>
        <time>2019-07-01T17:51:08.781Z</time>
      </trkpt>
      <trkpt lat="40.50030667" lon="-3.50404">
        <ele>665.055</ele>
        <time>2019-07-01T17:51:09.781Z</time>
      </trkpt>
      <trkpt lat="40.500195" lon="-3.50408833">
        <ele>665.055</ele>
        <time>2019-07-01T17:51:10.781Z</time>
      </trkpt>
      <trkpt lat="40.500195" lon="-3.50408833">
        <ele>665.055</ele>
        <time>2019-07-01T17:51:11.781Z</time>
      </trkpt>
      <trkpt lat="40.50008833" lon="-3.50414">
        <ele>665.055</ele>
        <time>2019-07-01T17:51:12.781Z</time>
      </trkpt>
      <trkpt lat="40.50008833" lon="-3.50414">
        <ele>665.055</ele>
        <time>2019-07-01T17:51:13.781Z</time>
      </trkpt>
      <trkpt lat="40.499985" lon="-3.50418667">
        <ele>665.055</ele>
        <time>2019-07-01T17:51:14.781Z</time>
      </trkpt>
      <trkpt lat="40.499985" lon="-3.50418667">
        <ele>665.055</ele>
        <time>2019-07-01T17:51:15.781Z</time>
      </trkpt>
      <trkpt lat="40.499885" lon="-3.50423">
        <ele>665.055</ele>
        <time>2019-07-01T17:51:16.781Z</time>
      </trkpt>
      <trkpt lat="40.499885" lon="-3.50423">
        <ele>666.055</ele>
        <time>2019-07-01T17:51:17.781Z</time>
      </trkpt>
      <trkpt lat="40.49978667" lon="-3.50427333">
        <ele>666.055</ele>
        <time>2019-07-01T17:51:18.781Z</time>
      </trkpt>
      <trkpt lat="40.49978667" lon="-3.50427333">
        <ele>666.055</ele>
        <time>2019-07-01T17:51:19.781Z</time>
      </trkpt>
      <trkpt lat="40.49968667" lon="-3.50431833">
        <ele>666.055</ele>
        <time>2019-07-01T17:51:20.781Z</time>
      </trkpt>
      <trkpt lat="40.49968667" lon="-3.50431833">
        <ele>666.055</ele>
        <time>2019-07-01T17:51:21.781Z</time>
      </trkpt>
      <trkpt lat="40.499585" lon="-3.50436167">
        <ele>666.055</ele>
        <time>2019-07-01T17:51:22.781Z</time>
      </trkpt>
      <trkpt lat="40.49953333" lon="-3.50438667">
        <ele>666.055</ele>
        <time>2019-07-01T17:51:23.781Z</time>
      </trkpt>
      <trkpt lat="40.49948167" lon="-3.50440833">
        <ele>666.055</ele>
        <time>2019-07-01T17:51:24.781Z</time>
      </trkpt>
      <trkpt lat="40.49948167" lon="-3.50440833">
        <ele>666.055</ele>
        <time>2019-07-01T17:51:25.781Z</time>
      </trkpt>
      <trkpt lat="40.49937667" lon="-3.50445833">
        <ele>666.055</ele>
        <time>2019-07-01T17:51:26.781Z</time>
      </trkpt>
      <trkpt lat="40.49937667" lon="-3.50445833">
        <ele>667.055</ele>
        <time>2019-07-01T17:51:27.781Z</time>
      </trkpt>
      <trkpt lat="40.499275" lon="-3.504505">
        <ele>667.055</ele>
        <time>2019-07-01T17:51:28.781Z</time>
      </trkpt>
      <trkpt lat="40.49922167" lon="-3.50452833">
        <ele>667.055</ele>
        <time>2019-07-01T17:51:29.781Z</time>
      </trkpt>
      <trkpt lat="40.49916667" lon="-3.50455333">
        <ele>667.055</ele>
        <time>2019-07-01T17:51:30.781Z</time>
      </trkpt>
      <trkpt lat="40.49911167" lon="-3.50458">
        <ele>667.055</ele>
        <time>2019-07-01T17:51:31.781Z</time>
      </trkpt>
      <trkpt lat="40.49911167" lon="-3.50458">
        <ele>667.055</ele>
        <time>2019-07-01T17:51:32.781Z</time>
      </trkpt>
      <trkpt lat="40.49899833" lon="-3.50463167">
        <ele>667.055</ele>
        <time>2019-07-01T17:51:33.781Z</time>
      </trkpt>
      <trkpt lat="40.49894" lon="-3.50465667">
        <ele>667.055</ele>
        <time>2019-07-01T17:51:34.781Z</time>
      </trkpt>
      <trkpt lat="40.49894" lon="-3.50465667">
        <ele>667.055</ele>
        <time>2019-07-01T17:51:35.781Z</time>
      </trkpt>
      <trkpt lat="40.49882167" lon="-3.50471">
        <ele>667.055</ele>
        <time>2019-07-01T17:51:36.781Z</time>
      </trkpt>
      <trkpt lat="40.49876167" lon="-3.504735">
        <ele>666.055</ele>
        <time>2019-07-01T17:51:37.781Z</time>
      </trkpt>
      <trkpt lat="40.49876167" lon="-3.504735">
        <ele>666.055</ele>
        <time>2019-07-01T17:51:38.781Z</time>
      </trkpt>
      <trkpt lat="40.49863333" lon="-3.504785">
        <ele>666.055</ele>
        <time>2019-07-01T17:51:39.781Z</time>
      </trkpt>
      <trkpt lat="40.49856833" lon="-3.50481333">
        <ele>666.055</ele>
        <time>2019-07-01T17:51:40.781Z</time>
      </trkpt>
      <trkpt lat="40.49856833" lon="-3.50481333">
        <ele>665.055</ele>
        <time>2019-07-01T17:51:41.781Z</time>
      </trkpt>
      <trkpt lat="40.498435" lon="-3.50488">
        <ele>665.055</ele>
        <time>2019-07-01T17:51:42.781Z</time>
      </trkpt>
      <trkpt lat="40.498365" lon="-3.50491167">
        <ele>665.055</ele>
        <time>2019-07-01T17:51:43.781Z</time>
      </trkpt>
      <trkpt lat="40.498365" lon="-3.50491167">
        <ele>665.055</ele>
        <time>2019-07-01T17:51:44.781Z</time>
      </trkpt>
      <trkpt lat="40.498225" lon="-3.504975">
        <ele>664.055</ele>
        <time>2019-07-01T17:51:45.781Z</time>
      </trkpt>
      <trkpt lat="40.49815333" lon="-3.50500667">
        <ele>664.055</ele>
        <time>2019-07-01T17:51:46.781Z</time>
      </trkpt>
      <trkpt lat="40.49815333" lon="-3.50500667">
        <ele>664.055</ele>
        <time>2019-07-01T17:51:47.781Z</time>
      </trkpt>
      <trkpt lat="40.498005" lon="-3.50506667">
        <ele>664.055</ele>
        <time>2019-07-01T17:51:48.781Z</time>
      </trkpt>
      <trkpt lat="40.498005" lon="-3.50506667">
        <ele>663.055</ele>
        <time>2019-07-01T17:51:49.781Z</time>
      </trkpt>
      <trkpt lat="40.497855" lon="-3.505135">
        <ele>663.055</ele>
        <time>2019-07-01T17:51:50.781Z</time>
      </trkpt>
      <trkpt lat="40.497855" lon="-3.505135">
        <ele>663.055</ele>
        <time>2019-07-01T17:51:51.781Z</time>
      </trkpt>
      <trkpt lat="40.49770833" lon="-3.50521333">
        <ele>663.055</ele>
        <time>2019-07-01T17:51:52.781Z</time>
      </trkpt>
      <trkpt lat="40.49770833" lon="-3.50521333">
        <ele>661.055</ele>
        <time>2019-07-01T17:51:53.781Z</time>
      </trkpt>
      <trkpt lat="40.49758333" lon="-3.50533667">
        <ele>661.055</ele>
        <time>2019-07-01T17:51:54.781Z</time>
      </trkpt>
      <trkpt lat="40.49758333" lon="-3.50533667">
        <ele>661.055</ele>
        <time>2019-07-01T17:51:55.781Z</time>
      </trkpt>
      <trkpt lat="40.49746" lon="-3.50543333">
        <ele>661.055</ele>
        <time>2019-07-01T17:51:56.781Z</time>
      </trkpt>
      <trkpt lat="40.49739167" lon="-3.50543667">
        <ele>661.055</ele>
        <time>2019-07-01T17:51:57.781Z</time>
      </trkpt>
      <trkpt lat="40.49739167" lon="-3.50543667">
        <ele>661.055</ele>
        <time>2019-07-01T17:51:58.781Z</time>
      </trkpt>
      <trkpt lat="40.49725333" lon="-3.505415">
        <ele>661.055</ele>
        <time>2019-07-01T17:51:59.781Z</time>
      </trkpt>
      <trkpt lat="40.49718667" lon="-3.50541833">
        <ele>661.055</ele>
        <time>2019-07-01T17:52:00.781Z</time>
      </trkpt>
      <trkpt lat="40.49718667" lon="-3.50541833">
        <ele>661.055</ele>
        <time>2019-07-01T17:52:01.781Z</time>
      </trkpt>
      <trkpt lat="40.497055" lon="-3.50546667">
        <ele>661.055</ele>
        <time>2019-07-01T17:52:02.781Z</time>
      </trkpt>
      <trkpt lat="40.49698833" lon="-3.50550333">
        <ele>661.055</ele>
        <time>2019-07-01T17:52:03.781Z</time>
      </trkpt>
      <trkpt lat="40.49698833" lon="-3.50550333">
        <ele>661.055</ele>
        <time>2019-07-01T17:52:04.781Z</time>
      </trkpt>
      <trkpt lat="40.49684667" lon="-3.50557667">
        <ele>661.055</ele>
        <time>2019-07-01T17:52:05.781Z</time>
      </trkpt>
      <trkpt lat="40.49677667" lon="-3.50562">
        <ele>661.055</ele>
        <time>2019-07-01T17:52:06.781Z</time>
      </trkpt>
      <trkpt lat="40.49677667" lon="-3.50562">
        <ele>661.055</ele>
        <time>2019-07-01T17:52:07.781Z</time>
      </trkpt>
      <trkpt lat="40.49663167" lon="-3.50571">
        <ele>661.055</ele>
        <time>2019-07-01T17:52:08.781Z</time>
      </trkpt>
      <trkpt lat="40.49656167" lon="-3.50576167">
        <ele>661.055</ele>
        <time>2019-07-01T17:52:09.781Z</time>
      </trkpt>
      <trkpt lat="40.49656167" lon="-3.50576167">
        <ele>661.055</ele>
        <time>2019-07-01T17:52:10.781Z</time>
      </trkpt>
      <trkpt lat="40.49642667" lon="-3.50586667">
        <ele>661.055</ele>
        <time>2019-07-01T17:52:11.781Z</time>
      </trkpt>
      <trkpt lat="40.49636" lon="-3.50592">
        <ele>661.055</ele>
        <time>2019-07-01T17:52:12.781Z</time>
      </trkpt>
      <trkpt lat="40.49636" lon="-3.50592">
        <ele>661.055</ele>
        <time>2019-07-01T17:52:13.781Z</time>
      </trkpt>
      <trkpt lat="40.496235" lon="-3.50602833">
        <ele>661.055</ele>
        <time>2019-07-01T17:52:14.781Z</time>
      </trkpt>
      <trkpt lat="40.496235" lon="-3.50602833">
        <ele>661.055</ele>
        <time>2019-07-01T17:52:15.781Z</time>
      </trkpt>
      <trkpt lat="40.49611833" lon="-3.50614">
        <ele>661.055</ele>
        <time>2019-07-01T17:52:16.781Z</time>
      </trkpt>
      <trkpt lat="40.49606167" lon="-3.50619667">
        <ele>661.055</ele>
        <time>2019-07-01T17:52:17.781Z</time>
      </trkpt>
      <trkpt lat="40.49606167" lon="-3.50619667">
        <ele>661.055</ele>
        <time>2019-07-01T17:52:18.781Z</time>
      </trkpt>
      <trkpt lat="40.49596" lon="-3.50631333">
        <ele>661.055</ele>
        <time>2019-07-01T17:52:19.781Z</time>
      </trkpt>
      <trkpt lat="40.49596" lon="-3.50631333">
        <ele>660.055</ele>
        <time>2019-07-01T17:52:20.781Z</time>
      </trkpt>
      <trkpt lat="40.49586667" lon="-3.50644">
        <ele>660.055</ele>
        <time>2019-07-01T17:52:21.781Z</time>
      </trkpt>
      <trkpt lat="40.49586667" lon="-3.50644">
        <ele>660.055</ele>
        <time>2019-07-01T17:52:22.781Z</time>
      </trkpt>
      <trkpt lat="40.49577667" lon="-3.50657167">
        <ele>660.055</ele>
        <time>2019-07-01T17:52:23.781Z</time>
      </trkpt>
      <trkpt lat="40.49573167" lon="-3.50664">
        <ele>660.055</ele>
        <time>2019-07-01T17:52:24.781Z</time>
      </trkpt>
      <trkpt lat="40.49573167" lon="-3.50664">
        <ele>660.055</ele>
        <time>2019-07-01T17:52:25.781Z</time>
      </trkpt>
      <trkpt lat="40.49564667" lon="-3.50677833">
        <ele>660.055</ele>
        <time>2019-07-01T17:52:26.781Z</time>
      </trkpt>
      <trkpt lat="40.49560667" lon="-3.50684833">
        <ele>660.055</ele>
        <time>2019-07-01T17:52:27.781Z</time>
      </trkpt>
      <trkpt lat="40.49560667" lon="-3.50684833">
        <ele>660.055</ele>
        <time>2019-07-01T17:52:28.781Z</time>
      </trkpt>
      <trkpt lat="40.49553333" lon="-3.50699333">
        <ele>660.055</ele>
        <time>2019-07-01T17:52:29.781Z</time>
      </trkpt>
      <trkpt lat="40.49553333" lon="-3.50699333">
        <ele>660.055</ele>
        <time>2019-07-01T17:52:30.781Z</time>
      </trkpt>
      <trkpt lat="40.495465" lon="-3.507135">
        <ele>660.055</ele>
        <time>2019-07-01T17:52:31.781Z</time>
      </trkpt>
      <trkpt lat="40.49543333" lon="-3.50720833">
        <ele>660.055</ele>
        <time>2019-07-01T17:52:32.781Z</time>
      </trkpt>
      <trkpt lat="40.49543333" lon="-3.50720833">
        <ele>660.055</ele>
        <time>2019-07-01T17:52:33.781Z</time>
      </trkpt>
      <trkpt lat="40.49537833" lon="-3.507355">
        <ele>660.055</ele>
        <time>2019-07-01T17:52:34.781Z</time>
      </trkpt>
      <trkpt lat="40.49537833" lon="-3.507355">
        <ele>660.055</ele>
        <time>2019-07-01T17:52:35.781Z</time>
      </trkpt>
      <trkpt lat="40.495325" lon="-3.5075">
        <ele>660.055</ele>
        <time>2019-07-01T17:52:36.781Z</time>
      </trkpt>
      <trkpt lat="40.495325" lon="-3.5075">
        <ele>660.055</ele>
        <time>2019-07-01T17:52:37.781Z</time>
      </trkpt>
      <trkpt lat="40.495275" lon="-3.50764833">
        <ele>660.055</ele>
        <time>2019-07-01T17:52:38.781Z</time>
      </trkpt>
      <trkpt lat="40.49525333" lon="-3.50772333">
        <ele>660.055</ele>
        <time>2019-07-01T17:52:39.781Z</time>
      </trkpt>
      <trkpt lat="40.49525333" lon="-3.50772333">
        <ele>660.055</ele>
        <time>2019-07-01T17:52:40.781Z</time>
      </trkpt>
      <trkpt lat="40.49521333" lon="-3.50787333">
        <ele>660.055</ele>
        <time>2019-07-01T17:52:41.781Z</time>
      </trkpt>
      <trkpt lat="40.495195" lon="-3.50795">
        <ele>660.055</ele>
        <time>2019-07-01T17:52:42.781Z</time>
      </trkpt>
      <trkpt lat="40.495195" lon="-3.50795">
        <ele>660.055</ele>
        <time>2019-07-01T17:52:43.781Z</time>
      </trkpt>
      <trkpt lat="40.49516167" lon="-3.50810167">
        <ele>660.055</ele>
        <time>2019-07-01T17:52:44.781Z</time>
      </trkpt>
      <trkpt lat="40.49514833" lon="-3.50817667">
        <ele>660.055</ele>
        <time>2019-07-01T17:52:45.781Z</time>
      </trkpt>
      <trkpt lat="40.49514833" lon="-3.50817667">
        <ele>660.055</ele>
        <time>2019-07-01T17:52:46.781Z</time>
      </trkpt>
      <trkpt lat="40.49512833" lon="-3.50832667">
        <ele>660.055</ele>
        <time>2019-07-01T17:52:47.781Z</time>
      </trkpt>
      <trkpt lat="40.49512833" lon="-3.50832667">
        <ele>660.055</ele>
        <time>2019-07-01T17:52:48.781Z</time>
      </trkpt>
      <trkpt lat="40.49510833" lon="-3.50847167">
        <ele>660.055</ele>
        <time>2019-07-01T17:52:49.781Z</time>
      </trkpt>
      <trkpt lat="40.49510833" lon="-3.50847167">
        <ele>660.055</ele>
        <time>2019-07-01T17:52:50.781Z</time>
      </trkpt>
      <trkpt lat="40.49509667" lon="-3.50862167">
        <ele>660.055</ele>
        <time>2019-07-01T17:52:51.781Z</time>
      </trkpt>
      <trkpt lat="40.49509667" lon="-3.50862167">
        <ele>660.055</ele>
        <time>2019-07-01T17:52:52.781Z</time>
      </trkpt>
      <trkpt lat="40.49508833" lon="-3.50876833">
        <ele>660.055</ele>
        <time>2019-07-01T17:52:53.781Z</time>
      </trkpt>
      <trkpt lat="40.49508833" lon="-3.50876833">
        <ele>660.055</ele>
        <time>2019-07-01T17:52:54.781Z</time>
      </trkpt>
      <trkpt lat="40.495085" lon="-3.50891833">
        <ele>660.055</ele>
        <time>2019-07-01T17:52:55.781Z</time>
      </trkpt>
      <trkpt lat="40.49508333" lon="-3.50899333">
        <ele>660.055</ele>
        <time>2019-07-01T17:52:56.781Z</time>
      </trkpt>
      <trkpt lat="40.49508333" lon="-3.50899333">
        <ele>660.055</ele>
        <time>2019-07-01T17:52:57.781Z</time>
      </trkpt>
      <trkpt lat="40.49508167" lon="-3.50914">
        <ele>660.055</ele>
        <time>2019-07-01T17:52:58.781Z</time>
      </trkpt>
      <trkpt lat="40.49508167" lon="-3.50914">
        <ele>660.055</ele>
        <time>2019-07-01T17:52:59.781Z</time>
      </trkpt>
      <trkpt lat="40.49508667" lon="-3.50928833">
        <ele>660.055</ele>
        <time>2019-07-01T17:53:00.781Z</time>
      </trkpt>
      <trkpt lat="40.49508667" lon="-3.50928833">
        <ele>660.055</ele>
        <time>2019-07-01T17:53:01.781Z</time>
      </trkpt>
      <trkpt lat="40.49509833" lon="-3.509435">
        <ele>660.055</ele>
        <time>2019-07-01T17:53:02.781Z</time>
      </trkpt>
      <trkpt lat="40.495105" lon="-3.50950833">
        <ele>660.055</ele>
        <time>2019-07-01T17:53:03.781Z</time>
      </trkpt>
      <trkpt lat="40.495105" lon="-3.50950833">
        <ele>660.055</ele>
        <time>2019-07-01T17:53:04.781Z</time>
      </trkpt>
      <trkpt lat="40.495125" lon="-3.50965167">
        <ele>660.055</ele>
        <time>2019-07-01T17:53:05.781Z</time>
      </trkpt>
      <trkpt lat="40.495135" lon="-3.509725">
        <ele>660.055</ele>
        <time>2019-07-01T17:53:06.781Z</time>
      </trkpt>
      <trkpt lat="40.495135" lon="-3.509725">
        <ele>660.055</ele>
        <time>2019-07-01T17:53:07.781Z</time>
      </trkpt>
      <trkpt lat="40.49516" lon="-3.50987333">
        <ele>661.055</ele>
        <time>2019-07-01T17:53:08.781Z</time>
      </trkpt>
      <trkpt lat="40.49517333" lon="-3.509945">
        <ele>661.055</ele>
        <time>2019-07-01T17:53:09.781Z</time>
      </trkpt>
      <trkpt lat="40.49517333" lon="-3.509945">
        <ele>661.055</ele>
        <time>2019-07-01T17:53:10.781Z</time>
      </trkpt>
      <trkpt lat="40.49520167" lon="-3.510085">
        <ele>661.055</ele>
        <time>2019-07-01T17:53:11.781Z</time>
      </trkpt>
      <trkpt lat="40.49520167" lon="-3.510085">
        <ele>661.055</ele>
        <time>2019-07-01T17:53:12.781Z</time>
      </trkpt>
      <trkpt lat="40.49523667" lon="-3.510225">
        <ele>661.055</ele>
        <time>2019-07-01T17:53:13.781Z</time>
      </trkpt>
      <trkpt lat="40.495255" lon="-3.51029167">
        <ele>661.055</ele>
        <time>2019-07-01T17:53:14.781Z</time>
      </trkpt>
      <trkpt lat="40.495255" lon="-3.51029167">
        <ele>661.055</ele>
        <time>2019-07-01T17:53:15.781Z</time>
      </trkpt>
      <trkpt lat="40.495295" lon="-3.510425">
        <ele>661.055</ele>
        <time>2019-07-01T17:53:16.781Z</time>
      </trkpt>
      <trkpt lat="40.49531833" lon="-3.51049333">
        <ele>661.055</ele>
        <time>2019-07-01T17:53:17.781Z</time>
      </trkpt>
      <trkpt lat="40.49531833" lon="-3.51049333">
        <ele>661.055</ele>
        <time>2019-07-01T17:53:18.781Z</time>
      </trkpt>
      <trkpt lat="40.49536167" lon="-3.51062833">
        <ele>661.055</ele>
        <time>2019-07-01T17:53:19.781Z</time>
      </trkpt>
      <trkpt lat="40.49536167" lon="-3.51062833">
        <ele>661.055</ele>
        <time>2019-07-01T17:53:20.781Z</time>
      </trkpt>
      <trkpt lat="40.49540833" lon="-3.510765">
        <ele>661.055</ele>
        <time>2019-07-01T17:53:21.781Z</time>
      </trkpt>
      <trkpt lat="40.49543167" lon="-3.51083667">
        <ele>661.055</ele>
        <time>2019-07-01T17:53:22.781Z</time>
      </trkpt>
      <trkpt lat="40.49543167" lon="-3.51083667">
        <ele>661.055</ele>
        <time>2019-07-01T17:53:23.781Z</time>
      </trkpt>
      <trkpt lat="40.495475" lon="-3.51098667">
        <ele>661.055</ele>
        <time>2019-07-01T17:53:24.781Z</time>
      </trkpt>
      <trkpt lat="40.495475" lon="-3.51098667">
        <ele>661.055</ele>
        <time>2019-07-01T17:53:25.781Z</time>
      </trkpt>
      <trkpt lat="40.49552333" lon="-3.51114833">
        <ele>661.055</ele>
        <time>2019-07-01T17:53:26.781Z</time>
      </trkpt>
      <trkpt lat="40.49552333" lon="-3.51114833">
        <ele>661.055</ele>
        <time>2019-07-01T17:53:27.781Z</time>
      </trkpt>
      <trkpt lat="40.49557667" lon="-3.51131667">
        <ele>661.055</ele>
        <time>2019-07-01T17:53:28.781Z</time>
      </trkpt>
      <trkpt lat="40.49560167" lon="-3.511405">
        <ele>661.055</ele>
        <time>2019-07-01T17:53:29.781Z</time>
      </trkpt>
      <trkpt lat="40.49562833" lon="-3.511495">
        <ele>661.055</ele>
        <time>2019-07-01T17:53:30.781Z</time>
      </trkpt>
      <trkpt lat="40.49562833" lon="-3.511495">
        <ele>661.055</ele>
        <time>2019-07-01T17:53:31.781Z</time>
      </trkpt>
      <trkpt lat="40.49568167" lon="-3.51168">
        <ele>661.055</ele>
        <time>2019-07-01T17:53:32.781Z</time>
      </trkpt>
      <trkpt lat="40.49570667" lon="-3.51177667">
        <ele>667.055</ele>
        <time>2019-07-01T17:53:33.781Z</time>
      </trkpt>
      <trkpt lat="40.49570667" lon="-3.51177667">
        <ele>667.055</ele>
        <time>2019-07-01T17:53:34.781Z</time>
      </trkpt>
      <trkpt lat="40.49575833" lon="-3.51197167">
        <ele>667.055</ele>
        <time>2019-07-01T17:53:35.781Z</time>
      </trkpt>
      <trkpt lat="40.495785" lon="-3.51207167">
        <ele>667.055</ele>
        <time>2019-07-01T17:53:36.781Z</time>
      </trkpt>
      <trkpt lat="40.495785" lon="-3.51207167">
        <ele>666.055</ele>
        <time>2019-07-01T17:53:37.781Z</time>
      </trkpt>
      <trkpt lat="40.49584167" lon="-3.51227167">
        <ele>666.055</ele>
        <time>2019-07-01T17:53:38.781Z</time>
      </trkpt>
      <trkpt lat="40.49586833" lon="-3.512375">
        <ele>665.055</ele>
        <time>2019-07-01T17:53:39.781Z</time>
      </trkpt>
      <trkpt lat="40.49586833" lon="-3.512375">
        <ele>665.055</ele>
        <time>2019-07-01T17:53:40.781Z</time>
      </trkpt>
      <trkpt lat="40.49592" lon="-3.51258167">
        <ele>664.055</ele>
        <time>2019-07-01T17:53:41.781Z</time>
      </trkpt>
      <trkpt lat="40.49592" lon="-3.51258167">
        <ele>664.055</ele>
        <time>2019-07-01T17:53:42.781Z</time>
      </trkpt>
      <trkpt lat="40.49592" lon="-3.51258167">
        <ele>663.055</ele>
        <time>2019-07-01T17:53:43.781Z</time>
      </trkpt>
      <trkpt lat="40.49597167" lon="-3.51279667">
        <ele>663.055</ele>
        <time>2019-07-01T17:53:44.781Z</time>
      </trkpt>
      <trkpt lat="40.49602167" lon="-3.513015">
        <ele>662.055</ele>
        <time>2019-07-01T17:53:45.781Z</time>
      </trkpt>
      <trkpt lat="40.49604667" lon="-3.51312333">
        <ele>662.055</ele>
        <time>2019-07-01T17:53:46.781Z</time>
      </trkpt>
      <trkpt lat="40.49604667" lon="-3.51312333">
        <ele>661.055</ele>
        <time>2019-07-01T17:53:47.781Z</time>
      </trkpt>
      <trkpt lat="40.49610333" lon="-3.51330667">
        <ele>661.055</ele>
        <time>2019-07-01T17:53:48.781Z</time>
      </trkpt>
      <trkpt lat="40.49610333" lon="-3.51330667">
        <ele>661.055</ele>
        <time>2019-07-01T17:53:49.781Z</time>
      </trkpt>
      <trkpt lat="40.496195" lon="-3.51343167">
        <ele>661.055</ele>
        <time>2019-07-01T17:53:50.781Z</time>
      </trkpt>
      <trkpt lat="40.496235" lon="-3.51349333">
        <ele>660.055</ele>
        <time>2019-07-01T17:53:51.781Z</time>
      </trkpt>
      <trkpt lat="40.496235" lon="-3.51349333">
        <ele>660.055</ele>
        <time>2019-07-01T17:53:52.781Z</time>
      </trkpt>
      <trkpt lat="40.49625333" lon="-3.51364333">
        <ele>660.055</ele>
        <time>2019-07-01T17:53:53.781Z</time>
      </trkpt>
      <trkpt lat="40.49623333" lon="-3.513715">
        <ele>660.055</ele>
        <time>2019-07-01T17:53:54.781Z</time>
      </trkpt>
      <trkpt lat="40.49623333" lon="-3.513715">
        <ele>660.055</ele>
        <time>2019-07-01T17:53:55.781Z</time>
      </trkpt>
      <trkpt lat="40.49621833" lon="-3.51384333">
        <ele>660.055</ele>
        <time>2019-07-01T17:53:56.781Z</time>
      </trkpt>
      <trkpt lat="40.49621833" lon="-3.51384333">
        <ele>660.055</ele>
        <time>2019-07-01T17:53:57.781Z</time>
      </trkpt>
      <trkpt lat="40.49623833" lon="-3.51396333">
        <ele>660.055</ele>
        <time>2019-07-01T17:53:58.781Z</time>
      </trkpt>
      <trkpt lat="40.49623833" lon="-3.51396333">
        <ele>660.055</ele>
        <time>2019-07-01T17:53:59.781Z</time>
      </trkpt>
      <trkpt lat="40.49626167" lon="-3.51407167">
        <ele>660.055</ele>
        <time>2019-07-01T17:54:00.781Z</time>
      </trkpt>
      <trkpt lat="40.49626167" lon="-3.51407167">
        <ele>660.055</ele>
        <time>2019-07-01T17:54:01.781Z</time>
      </trkpt>
      <trkpt lat="40.49628333" lon="-3.51418">
        <ele>660.055</ele>
        <time>2019-07-01T17:54:02.781Z</time>
      </trkpt>
      <trkpt lat="40.49628333" lon="-3.51418">
        <ele>660.055</ele>
        <time>2019-07-01T17:54:03.781Z</time>
      </trkpt>
      <trkpt lat="40.49630333" lon="-3.514295">
        <ele>660.055</ele>
        <time>2019-07-01T17:54:04.781Z</time>
      </trkpt>
      <trkpt lat="40.49630333" lon="-3.514295">
        <ele>660.055</ele>
        <time>2019-07-01T17:54:05.781Z</time>
      </trkpt>
      <trkpt lat="40.49632167" lon="-3.51441">
        <ele>660.055</ele>
        <time>2019-07-01T17:54:06.781Z</time>
      </trkpt>
      <trkpt lat="40.49633167" lon="-3.51446667">
        <ele>660.055</ele>
        <time>2019-07-01T17:54:07.781Z</time>
      </trkpt>
      <trkpt lat="40.49633167" lon="-3.51446667">
        <ele>661.055</ele>
        <time>2019-07-01T17:54:08.781Z</time>
      </trkpt>
      <trkpt lat="40.49634833" lon="-3.514585">
        <ele>661.055</ele>
        <time>2019-07-01T17:54:09.781Z</time>
      </trkpt>
      <trkpt lat="40.49634833" lon="-3.514585">
        <ele>661.055</ele>
        <time>2019-07-01T17:54:10.781Z</time>
      </trkpt>
      <trkpt lat="40.496365" lon="-3.51469833">
        <ele>661.055</ele>
        <time>2019-07-01T17:54:11.781Z</time>
      </trkpt>
      <trkpt lat="40.496375" lon="-3.51475667">
        <ele>661.055</ele>
        <time>2019-07-01T17:54:12.781Z</time>
      </trkpt>
      <trkpt lat="40.496375" lon="-3.51475667">
        <ele>661.055</ele>
        <time>2019-07-01T17:54:13.781Z</time>
      </trkpt>
      <trkpt lat="40.49639333" lon="-3.51487167">
        <ele>662.055</ele>
        <time>2019-07-01T17:54:14.781Z</time>
      </trkpt>
      <trkpt lat="40.49639333" lon="-3.51487167">
        <ele>662.055</ele>
        <time>2019-07-01T17:54:15.781Z</time>
      </trkpt>
      <trkpt lat="40.49641167" lon="-3.51498667">
        <ele>662.055</ele>
        <time>2019-07-01T17:54:16.781Z</time>
      </trkpt>
      <trkpt lat="40.49641833" lon="-3.515045">
        <ele>662.055</ele>
        <time>2019-07-01T17:54:17.781Z</time>
      </trkpt>
      <trkpt lat="40.496425" lon="-3.5151">
        <ele>663.055</ele>
        <time>2019-07-01T17:54:18.781Z</time>
      </trkpt>
      <trkpt lat="40.496425" lon="-3.5151">
        <ele>663.055</ele>
        <time>2019-07-01T17:54:19.781Z</time>
      </trkpt>
      <trkpt lat="40.49644" lon="-3.51521167">
        <ele>663.055</ele>
        <time>2019-07-01T17:54:20.781Z</time>
      </trkpt>
      <trkpt lat="40.49644" lon="-3.51521167">
        <ele>663.055</ele>
        <time>2019-07-01T17:54:21.781Z</time>
      </trkpt>
      <trkpt lat="40.49645333" lon="-3.51532167">
        <ele>663.055</ele>
        <time>2019-07-01T17:54:22.781Z</time>
      </trkpt>
      <trkpt lat="40.49645333" lon="-3.51532167">
        <ele>663.055</ele>
        <time>2019-07-01T17:54:23.781Z</time>
      </trkpt>
      <trkpt lat="40.49646667" lon="-3.51543">
        <ele>663.055</ele>
        <time>2019-07-01T17:54:24.781Z</time>
      </trkpt>
      <trkpt lat="40.49646667" lon="-3.51543">
        <ele>663.055</ele>
        <time>2019-07-01T17:54:25.781Z</time>
      </trkpt>
      <trkpt lat="40.49647833" lon="-3.51553333">
        <ele>663.055</ele>
        <time>2019-07-01T17:54:26.781Z</time>
      </trkpt>
      <trkpt lat="40.49648333" lon="-3.51558333">
        <ele>663.055</ele>
        <time>2019-07-01T17:54:27.781Z</time>
      </trkpt>
      <trkpt lat="40.49648333" lon="-3.51558333">
        <ele>664.055</ele>
        <time>2019-07-01T17:54:28.781Z</time>
      </trkpt>
      <trkpt lat="40.49649667" lon="-3.51568333">
        <ele>664.055</ele>
        <time>2019-07-01T17:54:29.781Z</time>
      </trkpt>
      <trkpt lat="40.49650333" lon="-3.515735">
        <ele>664.055</ele>
        <time>2019-07-01T17:54:30.781Z</time>
      </trkpt>
      <trkpt lat="40.49650333" lon="-3.515735">
        <ele>664.055</ele>
        <time>2019-07-01T17:54:31.781Z</time>
      </trkpt>
      <trkpt lat="40.496515" lon="-3.51583833">
        <ele>665.055</ele>
        <time>2019-07-01T17:54:32.781Z</time>
      </trkpt>
      <trkpt lat="40.496515" lon="-3.51583833">
        <ele>665.055</ele>
        <time>2019-07-01T17:54:33.781Z</time>
      </trkpt>
      <trkpt lat="40.49652667" lon="-3.51594167">
        <ele>665.055</ele>
        <time>2019-07-01T17:54:34.781Z</time>
      </trkpt>
      <trkpt lat="40.49652667" lon="-3.51594167">
        <ele>665.055</ele>
        <time>2019-07-01T17:54:35.781Z</time>
      </trkpt>
      <trkpt lat="40.49653667" lon="-3.51604333">
        <ele>667.055</ele>
        <time>2019-07-01T17:54:36.781Z</time>
      </trkpt>
      <trkpt lat="40.49653667" lon="-3.51604333">
        <ele>667.055</ele>
        <time>2019-07-01T17:54:37.781Z</time>
      </trkpt>
      <trkpt lat="40.49654667" lon="-3.51614167">
        <ele>667.055</ele>
        <time>2019-07-01T17:54:38.781Z</time>
      </trkpt>
      <trkpt lat="40.49654667" lon="-3.51614167">
        <ele>667.055</ele>
        <time>2019-07-01T17:54:39.781Z</time>
      </trkpt>
      <trkpt lat="40.496555" lon="-3.51623333">
        <ele>667.055</ele>
        <time>2019-07-01T17:54:40.781Z</time>
      </trkpt>
      <trkpt lat="40.496555" lon="-3.51623333">
        <ele>667.055</ele>
        <time>2019-07-01T17:54:41.781Z</time>
      </trkpt>
      <trkpt lat="40.49656333" lon="-3.516325">
        <ele>668.055</ele>
        <time>2019-07-01T17:54:42.781Z</time>
      </trkpt>
      <trkpt lat="40.49656333" lon="-3.516325">
        <ele>668.055</ele>
        <time>2019-07-01T17:54:43.781Z</time>
      </trkpt>
      <trkpt lat="40.49657333" lon="-3.51641667">
        <ele>668.055</ele>
        <time>2019-07-01T17:54:44.781Z</time>
      </trkpt>
      <trkpt lat="40.49657333" lon="-3.51641667">
        <ele>668.055</ele>
        <time>2019-07-01T17:54:45.781Z</time>
      </trkpt>
      <trkpt lat="40.49658167" lon="-3.51650667">
        <ele>670.055</ele>
        <time>2019-07-01T17:54:46.781Z</time>
      </trkpt>
      <trkpt lat="40.49658167" lon="-3.51650667">
        <ele>670.055</ele>
        <time>2019-07-01T17:54:47.781Z</time>
      </trkpt>
      <trkpt lat="40.49658833" lon="-3.51659333">
        <ele>670.055</ele>
        <time>2019-07-01T17:54:48.781Z</time>
      </trkpt>
      <trkpt lat="40.49658833" lon="-3.51659333">
        <ele>670.055</ele>
        <time>2019-07-01T17:54:49.781Z</time>
      </trkpt>
      <trkpt lat="40.49659833" lon="-3.51668167">
        <ele>670.055</ele>
        <time>2019-07-01T17:54:50.781Z</time>
      </trkpt>
      <trkpt lat="40.49659833" lon="-3.51668167">
        <ele>670.055</ele>
        <time>2019-07-01T17:54:51.781Z</time>
      </trkpt>
      <trkpt lat="40.49660333" lon="-3.51676667">
        <ele>671.055</ele>
        <time>2019-07-01T17:54:52.781Z</time>
      </trkpt>
      <trkpt lat="40.496605" lon="-3.51681">
        <ele>671.055</ele>
        <time>2019-07-01T17:54:53.781Z</time>
      </trkpt>
      <trkpt lat="40.49660833" lon="-3.51685333">
        <ele>671.055</ele>
        <time>2019-07-01T17:54:54.781Z</time>
      </trkpt>
      <trkpt lat="40.49660833" lon="-3.51685333">
        <ele>671.055</ele>
        <time>2019-07-01T17:54:55.781Z</time>
      </trkpt>
      <trkpt lat="40.49661667" lon="-3.51693833">
        <ele>672.055</ele>
        <time>2019-07-01T17:54:56.781Z</time>
      </trkpt>
      <trkpt lat="40.49661667" lon="-3.51693833">
        <ele>672.055</ele>
        <time>2019-07-01T17:54:57.781Z</time>
      </trkpt>
      <trkpt lat="40.49662833" lon="-3.51702667">
        <ele>672.055</ele>
        <time>2019-07-01T17:54:58.781Z</time>
      </trkpt>
      <trkpt lat="40.49663333" lon="-3.51707333">
        <ele>672.055</ele>
        <time>2019-07-01T17:54:59.781Z</time>
      </trkpt>
      <trkpt lat="40.49664" lon="-3.51711667">
        <ele>673.055</ele>
        <time>2019-07-01T17:55:00.781Z</time>
      </trkpt>
      <trkpt lat="40.49664" lon="-3.51711667">
        <ele>673.055</ele>
        <time>2019-07-01T17:55:01.781Z</time>
      </trkpt>
      <trkpt lat="40.496645" lon="-3.51720667">
        <ele>673.055</ele>
        <time>2019-07-01T17:55:02.781Z</time>
      </trkpt>
      <trkpt lat="40.49665" lon="-3.51724833">
        <ele>673.055</ele>
        <time>2019-07-01T17:55:03.781Z</time>
      </trkpt>
      <trkpt lat="40.49665" lon="-3.51724833">
        <ele>673.055</ele>
        <time>2019-07-01T17:55:04.781Z</time>
      </trkpt>
      <trkpt lat="40.49665833" lon="-3.51733667">
        <ele>674.055</ele>
        <time>2019-07-01T17:55:05.781Z</time>
      </trkpt>
      <trkpt lat="40.49666333" lon="-3.51738">
        <ele>674.055</ele>
        <time>2019-07-01T17:55:06.781Z</time>
      </trkpt>
      <trkpt lat="40.49666333" lon="-3.51738">
        <ele>674.055</ele>
        <time>2019-07-01T17:55:07.781Z</time>
      </trkpt>
      <trkpt lat="40.49667167" lon="-3.51746833">
        <ele>674.055</ele>
        <time>2019-07-01T17:55:08.781Z</time>
      </trkpt>
      <trkpt lat="40.49667833" lon="-3.51751333">
        <ele>675.055</ele>
        <time>2019-07-01T17:55:09.781Z</time>
      </trkpt>
      <trkpt lat="40.49667833" lon="-3.51751333">
        <ele>675.055</ele>
        <time>2019-07-01T17:55:10.781Z</time>
      </trkpt>
      <trkpt lat="40.49668667" lon="-3.51760333">
        <ele>675.055</ele>
        <time>2019-07-01T17:55:11.781Z</time>
      </trkpt>
      <trkpt lat="40.49669167" lon="-3.51764667">
        <ele>675.055</ele>
        <time>2019-07-01T17:55:12.781Z</time>
      </trkpt>
      <trkpt lat="40.49669167" lon="-3.51764667">
        <ele>676.055</ele>
        <time>2019-07-01T17:55:13.781Z</time>
      </trkpt>
      <trkpt lat="40.4967" lon="-3.51773833">
        <ele>676.055</ele>
        <time>2019-07-01T17:55:14.781Z</time>
      </trkpt>
      <trkpt lat="40.4967" lon="-3.51773833">
        <ele>676.055</ele>
        <time>2019-07-01T17:55:15.781Z</time>
      </trkpt>
      <trkpt lat="40.49671167" lon="-3.51783">
        <ele>676.055</ele>
        <time>2019-07-01T17:55:16.781Z</time>
      </trkpt>
      <trkpt lat="40.49671667" lon="-3.51787833">
        <ele>676.055</ele>
        <time>2019-07-01T17:55:17.781Z</time>
      </trkpt>
      <trkpt lat="40.49671667" lon="-3.51787833">
        <ele>676.055</ele>
        <time>2019-07-01T17:55:18.781Z</time>
      </trkpt>
      <trkpt lat="40.49672833" lon="-3.51797333">
        <ele>676.055</ele>
        <time>2019-07-01T17:55:19.781Z</time>
      </trkpt>
      <trkpt lat="40.49672833" lon="-3.51797333">
        <ele>676.055</ele>
        <time>2019-07-01T17:55:20.781Z</time>
      </trkpt>
      <trkpt lat="40.49673667" lon="-3.51806667">
        <ele>676.055</ele>
        <time>2019-07-01T17:55:21.781Z</time>
      </trkpt>
      <trkpt lat="40.49673667" lon="-3.51806667">
        <ele>677.055</ele>
        <time>2019-07-01T17:55:22.781Z</time>
      </trkpt>
      <trkpt lat="40.49675" lon="-3.51815667">
        <ele>677.055</ele>
        <time>2019-07-01T17:55:23.781Z</time>
      </trkpt>
      <trkpt lat="40.49675667" lon="-3.51820167">
        <ele>677.055</ele>
        <time>2019-07-01T17:55:24.781Z</time>
      </trkpt>
      <trkpt lat="40.49675667" lon="-3.51820167">
        <ele>677.055</ele>
        <time>2019-07-01T17:55:25.781Z</time>
      </trkpt>
      <trkpt lat="40.49676833" lon="-3.51829333">
        <ele>678.055</ele>
        <time>2019-07-01T17:55:26.781Z</time>
      </trkpt>
      <trkpt lat="40.49677333" lon="-3.51833667">
        <ele>678.055</ele>
        <time>2019-07-01T17:55:27.781Z</time>
      </trkpt>
      <trkpt lat="40.49677333" lon="-3.51833667">
        <ele>678.055</ele>
        <time>2019-07-01T17:55:28.781Z</time>
      </trkpt>
      <trkpt lat="40.49678333" lon="-3.518425">
        <ele>678.055</ele>
        <time>2019-07-01T17:55:29.781Z</time>
      </trkpt>
      <trkpt lat="40.49678833" lon="-3.51847">
        <ele>679.055</ele>
        <time>2019-07-01T17:55:30.781Z</time>
      </trkpt>
      <trkpt lat="40.49678833" lon="-3.51847">
        <ele>679.055</ele>
        <time>2019-07-01T17:55:31.781Z</time>
      </trkpt>
      <trkpt lat="40.49680333" lon="-3.51856">
        <ele>679.055</ele>
        <time>2019-07-01T17:55:32.781Z</time>
      </trkpt>
      <trkpt lat="40.49680333" lon="-3.51856">
        <ele>679.055</ele>
        <time>2019-07-01T17:55:33.781Z</time>
      </trkpt>
      <trkpt lat="40.49682" lon="-3.51864833">
        <ele>679.055</ele>
        <time>2019-07-01T17:55:34.781Z</time>
      </trkpt>
      <trkpt lat="40.49682" lon="-3.51864833">
        <ele>679.055</ele>
        <time>2019-07-01T17:55:35.781Z</time>
      </trkpt>
      <trkpt lat="40.496835" lon="-3.51874">
        <ele>680.055</ele>
        <time>2019-07-01T17:55:36.781Z</time>
      </trkpt>
      <trkpt lat="40.496835" lon="-3.51874">
        <ele>680.055</ele>
        <time>2019-07-01T17:55:37.781Z</time>
      </trkpt>
      <trkpt lat="40.49685167" lon="-3.51883167">
        <ele>680.055</ele>
        <time>2019-07-01T17:55:38.781Z</time>
      </trkpt>
      <trkpt lat="40.49685833" lon="-3.51887833">
        <ele>680.055</ele>
        <time>2019-07-01T17:55:39.781Z</time>
      </trkpt>
      <trkpt lat="40.49685833" lon="-3.51887833">
        <ele>681.055</ele>
        <time>2019-07-01T17:55:40.781Z</time>
      </trkpt>
      <trkpt lat="40.49687167" lon="-3.51897">
        <ele>681.055</ele>
        <time>2019-07-01T17:55:41.781Z</time>
      </trkpt>
      <trkpt lat="40.49688167" lon="-3.519015">
        <ele>681.055</ele>
        <time>2019-07-01T17:55:42.781Z</time>
      </trkpt>
      <trkpt lat="40.49688167" lon="-3.519015">
        <ele>681.055</ele>
        <time>2019-07-01T17:55:43.781Z</time>
      </trkpt>
      <trkpt lat="40.49689667" lon="-3.519105">
        <ele>682.055</ele>
        <time>2019-07-01T17:55:44.781Z</time>
      </trkpt>
      <trkpt lat="40.49689667" lon="-3.519105">
        <ele>682.055</ele>
        <time>2019-07-01T17:55:45.781Z</time>
      </trkpt>
      <trkpt lat="40.49691333" lon="-3.519195">
        <ele>682.055</ele>
        <time>2019-07-01T17:55:46.781Z</time>
      </trkpt>
      <trkpt lat="40.49691333" lon="-3.519195">
        <ele>682.055</ele>
        <time>2019-07-01T17:55:47.781Z</time>
      </trkpt>
      <trkpt lat="40.49693167" lon="-3.51928667">
        <ele>682.055</ele>
        <time>2019-07-01T17:55:48.781Z</time>
      </trkpt>
      <trkpt lat="40.49693167" lon="-3.51928667">
        <ele>682.055</ele>
        <time>2019-07-01T17:55:49.781Z</time>
      </trkpt>
      <trkpt lat="40.49695" lon="-3.51938">
        <ele>683.055</ele>
        <time>2019-07-01T17:55:50.781Z</time>
      </trkpt>
      <trkpt lat="40.49695" lon="-3.51938">
        <ele>683.055</ele>
        <time>2019-07-01T17:55:51.781Z</time>
      </trkpt>
      <trkpt lat="40.49696667" lon="-3.51947">
        <ele>683.055</ele>
        <time>2019-07-01T17:55:52.781Z</time>
      </trkpt>
      <trkpt lat="40.49696667" lon="-3.51947">
        <ele>683.055</ele>
        <time>2019-07-01T17:55:53.781Z</time>
      </trkpt>
      <trkpt lat="40.496985" lon="-3.51956167">
        <ele>684.055</ele>
        <time>2019-07-01T17:55:54.781Z</time>
      </trkpt>
      <trkpt lat="40.496985" lon="-3.51956167">
        <ele>684.055</ele>
        <time>2019-07-01T17:55:55.781Z</time>
      </trkpt>
      <trkpt lat="40.49700167" lon="-3.51965167">
        <ele>684.055</ele>
        <time>2019-07-01T17:55:56.781Z</time>
      </trkpt>
      <trkpt lat="40.49700167" lon="-3.51965167">
        <ele>684.055</ele>
        <time>2019-07-01T17:55:57.781Z</time>
      </trkpt>
      <trkpt lat="40.49702" lon="-3.51974167">
        <ele>685.055</ele>
        <time>2019-07-01T17:55:58.781Z</time>
      </trkpt>
      <trkpt lat="40.49702" lon="-3.51974167">
        <ele>685.055</ele>
        <time>2019-07-01T17:55:59.781Z</time>
      </trkpt>
      <trkpt lat="40.49703833" lon="-3.51983167">
        <ele>685.055</ele>
        <time>2019-07-01T17:56:00.781Z</time>
      </trkpt>
      <trkpt lat="40.49703833" lon="-3.51983167">
        <ele>685.055</ele>
        <time>2019-07-01T17:56:01.781Z</time>
      </trkpt>
      <trkpt lat="40.49705667" lon="-3.51991833">
        <ele>685.055</ele>
        <time>2019-07-01T17:56:02.781Z</time>
      </trkpt>
      <trkpt lat="40.49706667" lon="-3.51996333">
        <ele>685.055</ele>
        <time>2019-07-01T17:56:03.781Z</time>
      </trkpt>
      <trkpt lat="40.49706667" lon="-3.51996333">
        <ele>686.055</ele>
        <time>2019-07-01T17:56:04.781Z</time>
      </trkpt>
      <trkpt lat="40.49708333" lon="-3.52005667">
        <ele>686.055</ele>
        <time>2019-07-01T17:56:05.781Z</time>
      </trkpt>
      <trkpt lat="40.49708333" lon="-3.52005667">
        <ele>686.055</ele>
        <time>2019-07-01T17:56:06.781Z</time>
      </trkpt>
      <trkpt lat="40.49710667" lon="-3.52014833">
        <ele>686.055</ele>
        <time>2019-07-01T17:56:07.781Z</time>
      </trkpt>
      <trkpt lat="40.49710667" lon="-3.52014833">
        <ele>687.055</ele>
        <time>2019-07-01T17:56:08.781Z</time>
      </trkpt>
      <trkpt lat="40.49712667" lon="-3.52024167">
        <ele>687.055</ele>
        <time>2019-07-01T17:56:09.781Z</time>
      </trkpt>
      <trkpt lat="40.49713667" lon="-3.52028833">
        <ele>687.055</ele>
        <time>2019-07-01T17:56:10.781Z</time>
      </trkpt>
      <trkpt lat="40.49713667" lon="-3.52028833">
        <ele>687.055</ele>
        <time>2019-07-01T17:56:11.781Z</time>
      </trkpt>
      <trkpt lat="40.497155" lon="-3.52038">
        <ele>687.055</ele>
        <time>2019-07-01T17:56:12.781Z</time>
      </trkpt>
      <trkpt lat="40.497155" lon="-3.52038">
        <ele>687.055</ele>
        <time>2019-07-01T17:56:13.781Z</time>
      </trkpt>
      <trkpt lat="40.49717667" lon="-3.52047167">
        <ele>689.055</ele>
        <time>2019-07-01T17:56:14.781Z</time>
      </trkpt>
      <trkpt lat="40.49717667" lon="-3.52047167">
        <ele>689.055</ele>
        <time>2019-07-01T17:56:15.781Z</time>
      </trkpt>
      <trkpt lat="40.497195" lon="-3.520565">
        <ele>689.055</ele>
        <time>2019-07-01T17:56:16.781Z</time>
      </trkpt>
      <trkpt lat="40.49720833" lon="-3.52061167">
        <ele>689.055</ele>
        <time>2019-07-01T17:56:17.781Z</time>
      </trkpt>
      <trkpt lat="40.49720833" lon="-3.52061167">
        <ele>690.055</ele>
        <time>2019-07-01T17:56:18.781Z</time>
      </trkpt>
      <trkpt lat="40.49723167" lon="-3.52070167">
        <ele>690.055</ele>
        <time>2019-07-01T17:56:19.781Z</time>
      </trkpt>
      <trkpt lat="40.49723167" lon="-3.52070167">
        <ele>690.055</ele>
        <time>2019-07-01T17:56:20.781Z</time>
      </trkpt>
      <trkpt lat="40.497255" lon="-3.52079167">
        <ele>690.055</ele>
        <time>2019-07-01T17:56:21.781Z</time>
      </trkpt>
      <trkpt lat="40.497255" lon="-3.52079167">
        <ele>691.055</ele>
        <time>2019-07-01T17:56:22.781Z</time>
      </trkpt>
      <trkpt lat="40.497275" lon="-3.52088167">
        <ele>691.055</ele>
        <time>2019-07-01T17:56:23.781Z</time>
      </trkpt>
      <trkpt lat="40.497275" lon="-3.52088167">
        <ele>691.055</ele>
        <time>2019-07-01T17:56:24.781Z</time>
      </trkpt>
      <trkpt lat="40.497295" lon="-3.52097333">
        <ele>691.055</ele>
        <time>2019-07-01T17:56:25.781Z</time>
      </trkpt>
      <trkpt lat="40.497305" lon="-3.52102">
        <ele>692.055</ele>
        <time>2019-07-01T17:56:26.781Z</time>
      </trkpt>
      <trkpt lat="40.497305" lon="-3.52102">
        <ele>692.055</ele>
        <time>2019-07-01T17:56:27.781Z</time>
      </trkpt>
      <trkpt lat="40.49732667" lon="-3.52111333">
        <ele>692.055</ele>
        <time>2019-07-01T17:56:28.781Z</time>
      </trkpt>
      <trkpt lat="40.49732667" lon="-3.52111333">
        <ele>692.055</ele>
        <time>2019-07-01T17:56:29.781Z</time>
      </trkpt>
      <trkpt lat="40.49735167" lon="-3.52120167">
        <ele>693.055</ele>
        <time>2019-07-01T17:56:30.781Z</time>
      </trkpt>
      <trkpt lat="40.49735167" lon="-3.52120167">
        <ele>693.055</ele>
        <time>2019-07-01T17:56:31.781Z</time>
      </trkpt>
      <trkpt lat="40.49737833" lon="-3.521295">
        <ele>693.055</ele>
        <time>2019-07-01T17:56:32.781Z</time>
      </trkpt>
      <trkpt lat="40.49737833" lon="-3.521295">
        <ele>693.055</ele>
        <time>2019-07-01T17:56:33.781Z</time>
      </trkpt>
      <trkpt lat="40.497405" lon="-3.52139">
        <ele>693.055</ele>
        <time>2019-07-01T17:56:34.781Z</time>
      </trkpt>
      <trkpt lat="40.49742" lon="-3.52143833">
        <ele>693.055</ele>
        <time>2019-07-01T17:56:35.781Z</time>
      </trkpt>
      <trkpt lat="40.49743167" lon="-3.521485">
        <ele>694.055</ele>
        <time>2019-07-01T17:56:36.781Z</time>
      </trkpt>
      <trkpt lat="40.49743167" lon="-3.521485">
        <ele>694.055</ele>
        <time>2019-07-01T17:56:37.781Z</time>
      </trkpt>
      <trkpt lat="40.49745667" lon="-3.52157667">
        <ele>694.055</ele>
        <time>2019-07-01T17:56:38.781Z</time>
      </trkpt>
      <trkpt lat="40.49746667" lon="-3.52162333">
        <ele>694.055</ele>
        <time>2019-07-01T17:56:39.781Z</time>
      </trkpt>
      <trkpt lat="40.49748" lon="-3.52167167">
        <ele>695.055</ele>
        <time>2019-07-01T17:56:40.781Z</time>
      </trkpt>
      <trkpt lat="40.49748" lon="-3.52167167">
        <ele>695.055</ele>
        <time>2019-07-01T17:56:41.781Z</time>
      </trkpt>
      <trkpt lat="40.49750833" lon="-3.52176333">
        <ele>695.055</ele>
        <time>2019-07-01T17:56:42.781Z</time>
      </trkpt>
      <trkpt lat="40.49750833" lon="-3.52176333">
        <ele>695.055</ele>
        <time>2019-07-01T17:56:43.781Z</time>
      </trkpt>
      <trkpt lat="40.49753667" lon="-3.52185833">
        <ele>695.055</ele>
        <time>2019-07-01T17:56:44.781Z</time>
      </trkpt>
      <trkpt lat="40.49753667" lon="-3.52185833">
        <ele>697.055</ele>
        <time>2019-07-01T17:56:45.781Z</time>
      </trkpt>
      <trkpt lat="40.49756167" lon="-3.52195">
        <ele>697.055</ele>
        <time>2019-07-01T17:56:46.781Z</time>
      </trkpt>
      <trkpt lat="40.49756167" lon="-3.52195">
        <ele>697.055</ele>
        <time>2019-07-01T17:56:47.781Z</time>
      </trkpt>
      <trkpt lat="40.497585" lon="-3.52204167">
        <ele>697.055</ele>
        <time>2019-07-01T17:56:48.781Z</time>
      </trkpt>
      <trkpt lat="40.497585" lon="-3.52204167">
        <ele>697.055</ele>
        <time>2019-07-01T17:56:49.781Z</time>
      </trkpt>
      <trkpt lat="40.497585" lon="-3.52204167">
        <ele>698.055</ele>
        <time>2019-07-01T17:56:50.781Z</time>
      </trkpt>
      <trkpt lat="40.49761167" lon="-3.52213333">
        <ele>698.055</ele>
        <time>2019-07-01T17:56:51.781Z</time>
      </trkpt>
      <trkpt lat="40.49763833" lon="-3.52222333">
        <ele>698.055</ele>
        <time>2019-07-01T17:56:52.781Z</time>
      </trkpt>
      <trkpt lat="40.49763833" lon="-3.52222333">
        <ele>698.055</ele>
        <time>2019-07-01T17:56:53.781Z</time>
      </trkpt>
      <trkpt lat="40.49766833" lon="-3.52231667">
        <ele>699.055</ele>
        <time>2019-07-01T17:56:54.781Z</time>
      </trkpt>
      <trkpt lat="40.49766833" lon="-3.52231667">
        <ele>699.055</ele>
        <time>2019-07-01T17:56:55.781Z</time>
      </trkpt>
      <trkpt lat="40.49769833" lon="-3.52241">
        <ele>699.055</ele>
        <time>2019-07-01T17:56:56.781Z</time>
      </trkpt>
      <trkpt lat="40.497715" lon="-3.522455">
        <ele>699.055</ele>
        <time>2019-07-01T17:56:57.781Z</time>
      </trkpt>
      <trkpt lat="40.497715" lon="-3.522455">
        <ele>700.055</ele>
        <time>2019-07-01T17:56:58.781Z</time>
      </trkpt>
      <trkpt lat="40.49775667" lon="-3.52253667">
        <ele>700.055</ele>
        <time>2019-07-01T17:56:59.781Z</time>
      </trkpt>
      <trkpt lat="40.49775667" lon="-3.52253667">
        <ele>700.055</ele>
        <time>2019-07-01T17:57:00.781Z</time>
      </trkpt>
      <trkpt lat="40.497825" lon="-3.52259">
        <ele>700.055</ele>
        <time>2019-07-01T17:57:01.781Z</time>
      </trkpt>
      <trkpt lat="40.497825" lon="-3.52259">
        <ele>700.055</ele>
        <time>2019-07-01T17:57:02.781Z</time>
      </trkpt>
      <trkpt lat="40.49790667" lon="-3.52262167">
        <ele>700.055</ele>
        <time>2019-07-01T17:57:03.781Z</time>
      </trkpt>
      <trkpt lat="40.497945" lon="-3.52264333">
        <ele>700.055</ele>
        <time>2019-07-01T17:57:04.781Z</time>
      </trkpt>
      <trkpt lat="40.49798" lon="-3.522675">
        <ele>700.055</ele>
        <time>2019-07-01T17:57:05.781Z</time>
      </trkpt>
      <trkpt lat="40.49801" lon="-3.522715">
        <ele>700.055</ele>
        <time>2019-07-01T17:57:06.781Z</time>
      </trkpt>
      <trkpt lat="40.49801" lon="-3.522715">
        <ele>700.055</ele>
        <time>2019-07-01T17:57:07.781Z</time>
      </trkpt>
      <trkpt lat="40.49805167" lon="-3.522805">
        <ele>700.055</ele>
        <time>2019-07-01T17:57:08.781Z</time>
      </trkpt>
      <trkpt lat="40.49806" lon="-3.52286333">
        <ele>701.055</ele>
        <time>2019-07-01T17:57:09.781Z</time>
      </trkpt>
      <trkpt lat="40.49806" lon="-3.52286333">
        <ele>701.055</ele>
        <time>2019-07-01T17:57:10.781Z</time>
      </trkpt>
      <trkpt lat="40.49804" lon="-3.52297667">
        <ele>701.055</ele>
        <time>2019-07-01T17:57:11.781Z</time>
      </trkpt>
      <trkpt lat="40.49801833" lon="-3.52302833">
        <ele>701.055</ele>
        <time>2019-07-01T17:57:12.781Z</time>
      </trkpt>
      <trkpt lat="40.49801833" lon="-3.52302833">
        <ele>701.055</ele>
        <time>2019-07-01T17:57:13.781Z</time>
      </trkpt>
      <trkpt lat="40.49795833" lon="-3.52310667">
        <ele>701.055</ele>
        <time>2019-07-01T17:57:14.781Z</time>
      </trkpt>
      <trkpt lat="40.49795833" lon="-3.52310667">
        <ele>701.055</ele>
        <time>2019-07-01T17:57:15.781Z</time>
      </trkpt>
      <trkpt lat="40.49792333" lon="-3.52319833">
        <ele>701.055</ele>
        <time>2019-07-01T17:57:16.781Z</time>
      </trkpt>
      <trkpt lat="40.49792667" lon="-3.523255">
        <ele>701.055</ele>
        <time>2019-07-01T17:57:17.781Z</time>
      </trkpt>
      <trkpt lat="40.49793333" lon="-3.523315">
        <ele>701.055</ele>
        <time>2019-07-01T17:57:18.781Z</time>
      </trkpt>
      <trkpt lat="40.49793333" lon="-3.523315">
        <ele>701.055</ele>
        <time>2019-07-01T17:57:19.781Z</time>
      </trkpt>
      <trkpt lat="40.49795833" lon="-3.52343167">
        <ele>701.055</ele>
        <time>2019-07-01T17:57:20.781Z</time>
      </trkpt>
      <trkpt lat="40.49795833" lon="-3.52343167">
        <ele>701.055</ele>
        <time>2019-07-01T17:57:21.781Z</time>
      </trkpt>
      <trkpt lat="40.49798833" lon="-3.523545">
        <ele>701.055</ele>
        <time>2019-07-01T17:57:22.781Z</time>
      </trkpt>
      <trkpt lat="40.49798833" lon="-3.523545">
        <ele>701.055</ele>
        <time>2019-07-01T17:57:23.781Z</time>
      </trkpt>
      <trkpt lat="40.49802" lon="-3.52367">
        <ele>701.055</ele>
        <time>2019-07-01T17:57:24.781Z</time>
      </trkpt>
      <trkpt lat="40.49802" lon="-3.52367">
        <ele>701.055</ele>
        <time>2019-07-01T17:57:25.781Z</time>
      </trkpt>
      <trkpt lat="40.49804833" lon="-3.52380333">
        <ele>701.055</ele>
        <time>2019-07-01T17:57:26.781Z</time>
      </trkpt>
      <trkpt lat="40.49804833" lon="-3.52380333">
        <ele>701.055</ele>
        <time>2019-07-01T17:57:27.781Z</time>
      </trkpt>
      <trkpt lat="40.49807" lon="-3.52394333">
        <ele>701.055</ele>
        <time>2019-07-01T17:57:28.781Z</time>
      </trkpt>
      <trkpt lat="40.49807" lon="-3.52394333">
        <ele>700.055</ele>
        <time>2019-07-01T17:57:29.781Z</time>
      </trkpt>
      <trkpt lat="40.49809667" lon="-3.52409">
        <ele>700.055</ele>
        <time>2019-07-01T17:57:30.781Z</time>
      </trkpt>
      <trkpt lat="40.49809667" lon="-3.52409">
        <ele>700.055</ele>
        <time>2019-07-01T17:57:31.781Z</time>
      </trkpt>
      <trkpt lat="40.49812667" lon="-3.52423667">
        <ele>700.055</ele>
        <time>2019-07-01T17:57:32.781Z</time>
      </trkpt>
      <trkpt lat="40.49812667" lon="-3.52423667">
        <ele>700.055</ele>
        <time>2019-07-01T17:57:33.781Z</time>
      </trkpt>
      <trkpt lat="40.49816167" lon="-3.52439833">
        <ele>700.055</ele>
        <time>2019-07-01T17:57:34.781Z</time>
      </trkpt>
      <trkpt lat="40.49816167" lon="-3.52439833">
        <ele>699.055</ele>
        <time>2019-07-01T17:57:35.781Z</time>
      </trkpt>
      <trkpt lat="40.498195" lon="-3.524575">
        <ele>699.055</ele>
        <time>2019-07-01T17:57:36.781Z</time>
      </trkpt>
      <trkpt lat="40.498195" lon="-3.524575">
        <ele>699.055</ele>
        <time>2019-07-01T17:57:37.781Z</time>
      </trkpt>
      <trkpt lat="40.49822833" lon="-3.524755">
        <ele>699.055</ele>
        <time>2019-07-01T17:57:38.781Z</time>
      </trkpt>
      <trkpt lat="40.49822833" lon="-3.524755">
        <ele>699.055</ele>
        <time>2019-07-01T17:57:39.781Z</time>
      </trkpt>
      <trkpt lat="40.49826667" lon="-3.52493667">
        <ele>699.055</ele>
        <time>2019-07-01T17:57:40.781Z</time>
      </trkpt>
      <trkpt lat="40.49826667" lon="-3.52493667">
        <ele>699.055</ele>
        <time>2019-07-01T17:57:41.781Z</time>
      </trkpt>
      <trkpt lat="40.49830833" lon="-3.52512833">
        <ele>699.055</ele>
        <time>2019-07-01T17:57:42.781Z</time>
      </trkpt>
      <trkpt lat="40.49830833" lon="-3.52512833">
        <ele>699.055</ele>
        <time>2019-07-01T17:57:43.781Z</time>
      </trkpt>
      <trkpt lat="40.49835167" lon="-3.52533167">
        <ele>699.055</ele>
        <time>2019-07-01T17:57:44.781Z</time>
      </trkpt>
      <trkpt lat="40.49835167" lon="-3.52533167">
        <ele>699.055</ele>
        <time>2019-07-01T17:57:45.781Z</time>
      </trkpt>
      <trkpt lat="40.49839667" lon="-3.52553833">
        <ele>699.055</ele>
        <time>2019-07-01T17:57:46.781Z</time>
      </trkpt>
      <trkpt lat="40.49839667" lon="-3.52553833">
        <ele>698.055</ele>
        <time>2019-07-01T17:57:47.781Z</time>
      </trkpt>
      <trkpt lat="40.49844167" lon="-3.52574333">
        <ele>698.055</ele>
        <time>2019-07-01T17:57:48.781Z</time>
      </trkpt>
      <trkpt lat="40.49844167" lon="-3.52574333">
        <ele>698.055</ele>
        <time>2019-07-01T17:57:49.781Z</time>
      </trkpt>
      <trkpt lat="40.49848333" lon="-3.52595">
        <ele>698.055</ele>
        <time>2019-07-01T17:57:50.781Z</time>
      </trkpt>
      <trkpt lat="40.49850333" lon="-3.52605167">
        <ele>696.055</ele>
        <time>2019-07-01T17:57:51.781Z</time>
      </trkpt>
      <trkpt lat="40.49850333" lon="-3.52605167">
        <ele>696.055</ele>
        <time>2019-07-01T17:57:52.781Z</time>
      </trkpt>
      <trkpt lat="40.49853833" lon="-3.52622833">
        <ele>696.055</ele>
        <time>2019-07-01T17:57:53.781Z</time>
      </trkpt>
      <trkpt lat="40.49854833" lon="-3.52628833">
        <ele>696.055</ele>
        <time>2019-07-01T17:57:54.781Z</time>
      </trkpt>
      <trkpt lat="40.49854833" lon="-3.52628833">
        <ele>695.055</ele>
        <time>2019-07-01T17:57:55.781Z</time>
      </trkpt>
      <trkpt lat="40.49857333" lon="-3.52640667">
        <ele>695.055</ele>
        <time>2019-07-01T17:57:56.781Z</time>
      </trkpt>
      <trkpt lat="40.49857333" lon="-3.52640667">
        <ele>695.055</ele>
        <time>2019-07-01T17:57:57.781Z</time>
      </trkpt>
      <trkpt lat="40.49859" lon="-3.526545">
        <ele>695.055</ele>
        <time>2019-07-01T17:57:58.781Z</time>
      </trkpt>
      <trkpt lat="40.49859" lon="-3.526545">
        <ele>695.055</ele>
        <time>2019-07-01T17:57:59.781Z</time>
      </trkpt>
      <trkpt lat="40.498615" lon="-3.52669167">
        <ele>695.055</ele>
        <time>2019-07-01T17:58:00.781Z</time>
      </trkpt>
      <trkpt lat="40.498615" lon="-3.52669167">
        <ele>694.055</ele>
        <time>2019-07-01T17:58:01.781Z</time>
      </trkpt>
      <trkpt lat="40.49863833" lon="-3.52686167">
        <ele>694.055</ele>
        <time>2019-07-01T17:58:02.781Z</time>
      </trkpt>
      <trkpt lat="40.49863833" lon="-3.52686167">
        <ele>694.055</ele>
        <time>2019-07-01T17:58:03.781Z</time>
      </trkpt>
      <trkpt lat="40.498655" lon="-3.52706667">
        <ele>694.055</ele>
        <time>2019-07-01T17:58:04.781Z</time>
      </trkpt>
      <trkpt lat="40.498655" lon="-3.52706667">
        <ele>694.055</ele>
        <time>2019-07-01T17:58:05.781Z</time>
      </trkpt>
      <trkpt lat="40.49866167" lon="-3.52729">
        <ele>693.055</ele>
        <time>2019-07-01T17:58:06.781Z</time>
      </trkpt>
      <trkpt lat="40.49866167" lon="-3.52729">
        <ele>693.055</ele>
        <time>2019-07-01T17:58:07.781Z</time>
      </trkpt>
      <trkpt lat="40.498665" lon="-3.52753333">
        <ele>692.055</ele>
        <time>2019-07-01T17:58:08.781Z</time>
      </trkpt>
      <trkpt lat="40.498665" lon="-3.52753333">
        <ele>692.055</ele>
        <time>2019-07-01T17:58:09.781Z</time>
      </trkpt>
      <trkpt lat="40.49866833" lon="-3.5278">
        <ele>691.055</ele>
        <time>2019-07-01T17:58:10.781Z</time>
      </trkpt>
      <trkpt lat="40.49866833" lon="-3.5278">
        <ele>691.055</ele>
        <time>2019-07-01T17:58:11.781Z</time>
      </trkpt>
      <trkpt lat="40.49866167" lon="-3.52808833">
        <ele>689.055</ele>
        <time>2019-07-01T17:58:12.781Z</time>
      </trkpt>
      <trkpt lat="40.49866167" lon="-3.52808833">
        <ele>689.055</ele>
        <time>2019-07-01T17:58:13.781Z</time>
      </trkpt>
      <trkpt lat="40.49864833" lon="-3.528375">
        <ele>687.055</ele>
        <time>2019-07-01T17:58:14.781Z</time>
      </trkpt>
      <trkpt lat="40.49864833" lon="-3.528375">
        <ele>687.055</ele>
        <time>2019-07-01T17:58:15.781Z</time>
      </trkpt>
      <trkpt lat="40.49862667" lon="-3.52864167">
        <ele>687.055</ele>
        <time>2019-07-01T17:58:16.781Z</time>
      </trkpt>
      <trkpt lat="40.49862667" lon="-3.52864167">
        <ele>687.055</ele>
        <time>2019-07-01T17:58:17.781Z</time>
      </trkpt>
      <trkpt lat="40.49861167" lon="-3.5289">
        <ele>687.055</ele>
        <time>2019-07-01T17:58:18.781Z</time>
      </trkpt>
      <trkpt lat="40.49861167" lon="-3.5289">
        <ele>687.055</ele>
        <time>2019-07-01T17:58:19.781Z</time>
      </trkpt>
      <trkpt lat="40.49859" lon="-3.52914833">
        <ele>685.055</ele>
        <time>2019-07-01T17:58:20.781Z</time>
      </trkpt>
      <trkpt lat="40.49859" lon="-3.52914833">
        <ele>685.055</ele>
        <time>2019-07-01T17:58:21.781Z</time>
      </trkpt>
      <trkpt lat="40.49856667" lon="-3.5294">
        <ele>685.055</ele>
        <time>2019-07-01T17:58:22.781Z</time>
      </trkpt>
      <trkpt lat="40.49855167" lon="-3.52952333">
        <ele>685.055</ele>
        <time>2019-07-01T17:58:23.781Z</time>
      </trkpt>
      <trkpt lat="40.498535" lon="-3.52964667">
        <ele>685.055</ele>
        <time>2019-07-01T17:58:24.781Z</time>
      </trkpt>
      <trkpt lat="40.498535" lon="-3.52964667">
        <ele>685.055</ele>
        <time>2019-07-01T17:58:25.781Z</time>
      </trkpt>
      <trkpt lat="40.49849667" lon="-3.52989167">
        <ele>685.055</ele>
        <time>2019-07-01T17:58:26.781Z</time>
      </trkpt>
      <trkpt lat="40.498475" lon="-3.53001">
        <ele>684.055</ele>
        <time>2019-07-01T17:58:27.781Z</time>
      </trkpt>
      <trkpt lat="40.498455" lon="-3.53013">
        <ele>684.055</ele>
        <time>2019-07-01T17:58:28.781Z</time>
      </trkpt>
      <trkpt lat="40.498455" lon="-3.53013">
        <ele>684.055</ele>
        <time>2019-07-01T17:58:29.781Z</time>
      </trkpt>
      <trkpt lat="40.49840833" lon="-3.530365">
        <ele>684.055</ele>
        <time>2019-07-01T17:58:30.781Z</time>
      </trkpt>
      <trkpt lat="40.49840833" lon="-3.530365">
        <ele>684.055</ele>
        <time>2019-07-01T17:58:31.781Z</time>
      </trkpt>
      <trkpt lat="40.498355" lon="-3.53059">
        <ele>684.055</ele>
        <time>2019-07-01T17:58:32.781Z</time>
      </trkpt>
      <trkpt lat="40.498355" lon="-3.53059">
        <ele>684.055</ele>
        <time>2019-07-01T17:58:33.781Z</time>
      </trkpt>
      <trkpt lat="40.49830167" lon="-3.53081333">
        <ele>683.055</ele>
        <time>2019-07-01T17:58:34.781Z</time>
      </trkpt>
      <trkpt lat="40.49827333" lon="-3.530925">
        <ele>683.055</ele>
        <time>2019-07-01T17:58:35.781Z</time>
      </trkpt>
      <trkpt lat="40.49827333" lon="-3.530925">
        <ele>683.055</ele>
        <time>2019-07-01T17:58:36.781Z</time>
      </trkpt>
      <trkpt lat="40.49820833" lon="-3.53113667">
        <ele>683.055</ele>
        <time>2019-07-01T17:58:37.781Z</time>
      </trkpt>
      <trkpt lat="40.49816833" lon="-3.531235">
        <ele>683.055</ele>
        <time>2019-07-01T17:58:38.781Z</time>
      </trkpt>
      <trkpt lat="40.49816833" lon="-3.531235">
        <ele>683.055</ele>
        <time>2019-07-01T17:58:39.781Z</time>
      </trkpt>
      <trkpt lat="40.49806833" lon="-3.53141">
        <ele>683.055</ele>
        <time>2019-07-01T17:58:40.781Z</time>
      </trkpt>
      <trkpt lat="40.49801167" lon="-3.53148833">
        <ele>683.055</ele>
        <time>2019-07-01T17:58:41.781Z</time>
      </trkpt>
      <trkpt lat="40.49794833" lon="-3.53155667">
        <ele>683.055</ele>
        <time>2019-07-01T17:58:42.781Z</time>
      </trkpt>
      <trkpt lat="40.49794833" lon="-3.53155667">
        <ele>683.055</ele>
        <time>2019-07-01T17:58:43.781Z</time>
      </trkpt>
      <trkpt lat="40.49780667" lon="-3.53166833">
        <ele>683.055</ele>
        <time>2019-07-01T17:58:44.781Z</time>
      </trkpt>
      <trkpt lat="40.49780667" lon="-3.53166833">
        <ele>683.055</ele>
        <time>2019-07-01T17:58:45.781Z</time>
      </trkpt>
      <trkpt lat="40.497655" lon="-3.531755">
        <ele>682.055</ele>
        <time>2019-07-01T17:58:46.781Z</time>
      </trkpt>
      <trkpt lat="40.497655" lon="-3.531755">
        <ele>682.055</ele>
        <time>2019-07-01T17:58:47.781Z</time>
      </trkpt>
      <trkpt lat="40.497495" lon="-3.531805">
        <ele>682.055</ele>
        <time>2019-07-01T17:58:48.781Z</time>
      </trkpt>
      <trkpt lat="40.497495" lon="-3.531805">
        <ele>682.055</ele>
        <time>2019-07-01T17:58:49.781Z</time>
      </trkpt>
      <trkpt lat="40.49733667" lon="-3.53181333">
        <ele>682.055</ele>
        <time>2019-07-01T17:58:50.781Z</time>
      </trkpt>
      <trkpt lat="40.49733667" lon="-3.53181333">
        <ele>682.055</ele>
        <time>2019-07-01T17:58:51.781Z</time>
      </trkpt>
      <trkpt lat="40.49718" lon="-3.53178833">
        <ele>682.055</ele>
        <time>2019-07-01T17:58:52.781Z</time>
      </trkpt>
      <trkpt lat="40.49718" lon="-3.53178833">
        <ele>682.055</ele>
        <time>2019-07-01T17:58:53.781Z</time>
      </trkpt>
      <trkpt lat="40.49702833" lon="-3.53173333">
        <ele>682.055</ele>
        <time>2019-07-01T17:58:54.781Z</time>
      </trkpt>
      <trkpt lat="40.49702833" lon="-3.53173333">
        <ele>682.055</ele>
        <time>2019-07-01T17:58:55.781Z</time>
      </trkpt>
      <trkpt lat="40.49688667" lon="-3.53163667">
        <ele>682.055</ele>
        <time>2019-07-01T17:58:56.781Z</time>
      </trkpt>
      <trkpt lat="40.49682" lon="-3.53157667">
        <ele>682.055</ele>
        <time>2019-07-01T17:58:57.781Z</time>
      </trkpt>
      <trkpt lat="40.49682" lon="-3.53157667">
        <ele>682.055</ele>
        <time>2019-07-01T17:58:58.781Z</time>
      </trkpt>
      <trkpt lat="40.49669833" lon="-3.53143333">
        <ele>682.055</ele>
        <time>2019-07-01T17:58:59.781Z</time>
      </trkpt>
      <trkpt lat="40.49669833" lon="-3.53143333">
        <ele>683.055</ele>
        <time>2019-07-01T17:59:00.781Z</time>
      </trkpt>
      <trkpt lat="40.49659333" lon="-3.531265">
        <ele>683.055</ele>
        <time>2019-07-01T17:59:01.781Z</time>
      </trkpt>
      <trkpt lat="40.49659333" lon="-3.531265">
        <ele>683.055</ele>
        <time>2019-07-01T17:59:02.781Z</time>
      </trkpt>
      <trkpt lat="40.496515" lon="-3.53107667">
        <ele>683.055</ele>
        <time>2019-07-01T17:59:03.781Z</time>
      </trkpt>
      <trkpt lat="40.496515" lon="-3.53107667">
        <ele>683.055</ele>
        <time>2019-07-01T17:59:04.781Z</time>
      </trkpt>
      <trkpt lat="40.49646167" lon="-3.53087667">
        <ele>683.055</ele>
        <time>2019-07-01T17:59:05.781Z</time>
      </trkpt>
      <trkpt lat="40.49644333" lon="-3.53077333">
        <ele>683.055</ele>
        <time>2019-07-01T17:59:06.781Z</time>
      </trkpt>
      <trkpt lat="40.49644333" lon="-3.53077333">
        <ele>683.055</ele>
        <time>2019-07-01T17:59:07.781Z</time>
      </trkpt>
      <trkpt lat="40.49643167" lon="-3.53056667">
        <ele>683.055</ele>
        <time>2019-07-01T17:59:08.781Z</time>
      </trkpt>
      <trkpt lat="40.49643167" lon="-3.53056667">
        <ele>683.055</ele>
        <time>2019-07-01T17:59:09.781Z</time>
      </trkpt>
      <trkpt lat="40.49644667" lon="-3.530365">
        <ele>683.055</ele>
        <time>2019-07-01T17:59:10.781Z</time>
      </trkpt>
      <trkpt lat="40.49644667" lon="-3.530365">
        <ele>683.055</ele>
        <time>2019-07-01T17:59:11.781Z</time>
      </trkpt>
      <trkpt lat="40.496485" lon="-3.53017333">
        <ele>683.055</ele>
        <time>2019-07-01T17:59:12.781Z</time>
      </trkpt>
      <trkpt lat="40.496485" lon="-3.53017333">
        <ele>683.055</ele>
        <time>2019-07-01T17:59:13.781Z</time>
      </trkpt>
      <trkpt lat="40.49653333" lon="-3.52998833">
        <ele>683.055</ele>
        <time>2019-07-01T17:59:14.781Z</time>
      </trkpt>
      <trkpt lat="40.49653333" lon="-3.52998833">
        <ele>683.055</ele>
        <time>2019-07-01T17:59:15.781Z</time>
      </trkpt>
      <trkpt lat="40.496595" lon="-3.52981167">
        <ele>683.055</ele>
        <time>2019-07-01T17:59:16.781Z</time>
      </trkpt>
      <trkpt lat="40.496595" lon="-3.52981167">
        <ele>683.055</ele>
        <time>2019-07-01T17:59:17.781Z</time>
      </trkpt>
      <trkpt lat="40.49666333" lon="-3.52964167">
        <ele>683.055</ele>
        <time>2019-07-01T17:59:18.781Z</time>
      </trkpt>
      <trkpt lat="40.49669833" lon="-3.52955667">
        <ele>683.055</ele>
        <time>2019-07-01T17:59:19.781Z</time>
      </trkpt>
      <trkpt lat="40.49669833" lon="-3.52955667">
        <ele>683.055</ele>
        <time>2019-07-01T17:59:20.781Z</time>
      </trkpt>
      <trkpt lat="40.49677167" lon="-3.52939167">
        <ele>683.055</ele>
        <time>2019-07-01T17:59:21.781Z</time>
      </trkpt>
      <trkpt lat="40.49681" lon="-3.52931">
        <ele>683.055</ele>
        <time>2019-07-01T17:59:22.781Z</time>
      </trkpt>
      <trkpt lat="40.49681" lon="-3.52931">
        <ele>683.055</ele>
        <time>2019-07-01T17:59:23.781Z</time>
      </trkpt>
      <trkpt lat="40.49689167" lon="-3.52915167">
        <ele>683.055</ele>
        <time>2019-07-01T17:59:24.781Z</time>
      </trkpt>
      <trkpt lat="40.49689167" lon="-3.52915167">
        <ele>683.055</ele>
        <time>2019-07-01T17:59:25.781Z</time>
      </trkpt>
      <trkpt lat="40.49697667" lon="-3.52899833">
        <ele>683.055</ele>
        <time>2019-07-01T17:59:26.781Z</time>
      </trkpt>
      <trkpt lat="40.49697667" lon="-3.52899833">
        <ele>683.055</ele>
        <time>2019-07-01T17:59:27.781Z</time>
      </trkpt>
      <trkpt lat="40.497065" lon="-3.52884833">
        <ele>683.055</ele>
        <time>2019-07-01T17:59:28.781Z</time>
      </trkpt>
      <trkpt lat="40.49711167" lon="-3.528775">
        <ele>683.055</ele>
        <time>2019-07-01T17:59:29.781Z</time>
      </trkpt>
      <trkpt lat="40.49716" lon="-3.52870167">
        <ele>683.055</ele>
        <time>2019-07-01T17:59:30.781Z</time>
      </trkpt>
      <trkpt lat="40.49716" lon="-3.52870167">
        <ele>683.055</ele>
        <time>2019-07-01T17:59:31.781Z</time>
      </trkpt>
      <trkpt lat="40.49725833" lon="-3.52855667">
        <ele>683.055</ele>
        <time>2019-07-01T17:59:32.781Z</time>
      </trkpt>
      <trkpt lat="40.49725833" lon="-3.52855667">
        <ele>683.055</ele>
        <time>2019-07-01T17:59:33.781Z</time>
      </trkpt>
      <trkpt lat="40.49735833" lon="-3.52841333">
        <ele>683.055</ele>
        <time>2019-07-01T17:59:34.781Z</time>
      </trkpt>
      <trkpt lat="40.49735833" lon="-3.52841333">
        <ele>683.055</ele>
        <time>2019-07-01T17:59:35.781Z</time>
      </trkpt>
      <trkpt lat="40.497465" lon="-3.528275">
        <ele>684.055</ele>
        <time>2019-07-01T17:59:36.781Z</time>
      </trkpt>
      <trkpt lat="40.497465" lon="-3.528275">
        <ele>684.055</ele>
        <time>2019-07-01T17:59:37.781Z</time>
      </trkpt>
      <trkpt lat="40.497575" lon="-3.52814">
        <ele>684.055</ele>
        <time>2019-07-01T17:59:38.781Z</time>
      </trkpt>
      <trkpt lat="40.497635" lon="-3.52808333">
        <ele>684.055</ele>
        <time>2019-07-01T17:59:39.781Z</time>
      </trkpt>
      <trkpt lat="40.497635" lon="-3.52808333">
        <ele>684.055</ele>
        <time>2019-07-01T17:59:40.781Z</time>
      </trkpt>
      <trkpt lat="40.49777333" lon="-3.52799833">
        <ele>684.055</ele>
        <time>2019-07-01T17:59:41.781Z</time>
      </trkpt>
      <trkpt lat="40.49784833" lon="-3.527975">
        <ele>684.055</ele>
        <time>2019-07-01T17:59:42.781Z</time>
      </trkpt>
      <trkpt lat="40.49784833" lon="-3.527975">
        <ele>684.055</ele>
        <time>2019-07-01T17:59:43.781Z</time>
      </trkpt>
      <trkpt lat="40.49799333" lon="-3.52795667">
        <ele>684.055</ele>
        <time>2019-07-01T17:59:44.781Z</time>
      </trkpt>
      <trkpt lat="40.49799333" lon="-3.52795667">
        <ele>684.055</ele>
        <time>2019-07-01T17:59:45.781Z</time>
      </trkpt>
      <trkpt lat="40.49814" lon="-3.52797167">
        <ele>684.055</ele>
        <time>2019-07-01T17:59:46.781Z</time>
      </trkpt>
      <trkpt lat="40.49821167" lon="-3.527985">
        <ele>684.055</ele>
        <time>2019-07-01T17:59:47.781Z</time>
      </trkpt>
      <trkpt lat="40.49821167" lon="-3.527985">
        <ele>684.055</ele>
        <time>2019-07-01T17:59:48.781Z</time>
      </trkpt>
      <trkpt lat="40.49835167" lon="-3.52802333">
        <ele>684.055</ele>
        <time>2019-07-01T17:59:49.781Z</time>
      </trkpt>
      <trkpt lat="40.49835167" lon="-3.52802333">
        <ele>684.055</ele>
        <time>2019-07-01T17:59:50.781Z</time>
      </trkpt>
      <trkpt lat="40.49848833" lon="-3.52805833">
        <ele>684.055</ele>
        <time>2019-07-01T17:59:51.781Z</time>
      </trkpt>
      <trkpt lat="40.49848833" lon="-3.52805833">
        <ele>684.055</ele>
        <time>2019-07-01T17:59:52.781Z</time>
      </trkpt>
      <trkpt lat="40.49861833" lon="-3.52805167">
        <ele>684.055</ele>
        <time>2019-07-01T17:59:53.781Z</time>
      </trkpt>
      <trkpt lat="40.49866" lon="-3.52799667">
        <ele>684.055</ele>
        <time>2019-07-01T17:59:54.781Z</time>
      </trkpt>
      <trkpt lat="40.49866" lon="-3.52799667">
        <ele>684.055</ele>
        <time>2019-07-01T17:59:55.781Z</time>
      </trkpt>
      <trkpt lat="40.49867" lon="-3.527845">
        <ele>684.055</ele>
        <time>2019-07-01T17:59:56.781Z</time>
      </trkpt>
      <trkpt lat="40.49866667" lon="-3.52777167">
        <ele>684.055</ele>
        <time>2019-07-01T17:59:57.781Z</time>
      </trkpt>
      <trkpt lat="40.49866667" lon="-3.52770167">
        <ele>684.055</ele>
        <time>2019-07-01T17:59:58.781Z</time>
      </trkpt>
      <trkpt lat="40.49866667" lon="-3.52770167">
        <ele>684.055</ele>
        <time>2019-07-01T17:59:59.781Z</time>
      </trkpt>
      <trkpt lat="40.49866" lon="-3.52757">
        <ele>685.055</ele>
        <time>2019-07-01T18:00:00.781Z</time>
      </trkpt>
      <trkpt lat="40.49866" lon="-3.52757">
        <ele>685.055</ele>
        <time>2019-07-01T18:00:01.781Z</time>
      </trkpt>
      <trkpt lat="40.49865667" lon="-3.527445">
        <ele>685.055</ele>
        <time>2019-07-01T18:00:02.781Z</time>
      </trkpt>
      <trkpt lat="40.49865667" lon="-3.527445">
        <ele>685.055</ele>
        <time>2019-07-01T18:00:03.781Z</time>
      </trkpt>
      <trkpt lat="40.49865167" lon="-3.52733167">
        <ele>685.055</ele>
        <time>2019-07-01T18:00:04.781Z</time>
      </trkpt>
      <trkpt lat="40.49864833" lon="-3.52727">
        <ele>687.055</ele>
        <time>2019-07-01T18:00:05.781Z</time>
      </trkpt>
      <trkpt lat="40.49864833" lon="-3.52727">
        <ele>687.055</ele>
        <time>2019-07-01T18:00:06.781Z</time>
      </trkpt>
      <trkpt lat="40.49864167" lon="-3.52713833">
        <ele>688.055</ele>
        <time>2019-07-01T18:00:07.781Z</time>
      </trkpt>
      <trkpt lat="40.49864167" lon="-3.52713833">
        <ele>688.055</ele>
        <time>2019-07-01T18:00:08.781Z</time>
      </trkpt>
      <trkpt lat="40.49863" lon="-3.52700833">
        <ele>688.055</ele>
        <time>2019-07-01T18:00:09.781Z</time>
      </trkpt>
      <trkpt lat="40.49863" lon="-3.52700833">
        <ele>688.055</ele>
        <time>2019-07-01T18:00:10.781Z</time>
      </trkpt>
      <trkpt lat="40.49862" lon="-3.526875">
        <ele>688.055</ele>
        <time>2019-07-01T18:00:11.781Z</time>
      </trkpt>
      <trkpt lat="40.498615" lon="-3.52681333">
        <ele>688.055</ele>
        <time>2019-07-01T18:00:12.781Z</time>
      </trkpt>
      <trkpt lat="40.498615" lon="-3.52681333">
        <ele>690.055</ele>
        <time>2019-07-01T18:00:13.781Z</time>
      </trkpt>
      <trkpt lat="40.49859833" lon="-3.52669167">
        <ele>690.055</ele>
        <time>2019-07-01T18:00:14.781Z</time>
      </trkpt>
      <trkpt lat="40.49859" lon="-3.52663167">
        <ele>691.055</ele>
        <time>2019-07-01T18:00:15.781Z</time>
      </trkpt>
      <trkpt lat="40.49859" lon="-3.52663167">
        <ele>691.055</ele>
        <time>2019-07-01T18:00:16.781Z</time>
      </trkpt>
      <trkpt lat="40.49858" lon="-3.52651333">
        <ele>692.055</ele>
        <time>2019-07-01T18:00:17.781Z</time>
      </trkpt>
      <trkpt lat="40.49858333" lon="-3.52645">
        <ele>692.055</ele>
        <time>2019-07-01T18:00:18.781Z</time>
      </trkpt>
      <trkpt lat="40.49858333" lon="-3.52645">
        <ele>692.055</ele>
        <time>2019-07-01T18:00:19.781Z</time>
      </trkpt>
      <trkpt lat="40.498625" lon="-3.52632167">
        <ele>692.055</ele>
        <time>2019-07-01T18:00:20.781Z</time>
      </trkpt>
      <trkpt lat="40.498625" lon="-3.52632167">
        <ele>692.055</ele>
        <time>2019-07-01T18:00:21.781Z</time>
      </trkpt>
      <trkpt lat="40.49872667" lon="-3.52624167">
        <ele>692.055</ele>
        <time>2019-07-01T18:00:22.781Z</time>
      </trkpt>
      <trkpt lat="40.49872667" lon="-3.52624167">
        <ele>692.055</ele>
        <time>2019-07-01T18:00:23.781Z</time>
      </trkpt>
      <trkpt lat="40.49884667" lon="-3.52619">
        <ele>692.055</ele>
        <time>2019-07-01T18:00:24.781Z</time>
      </trkpt>
      <trkpt lat="40.49884667" lon="-3.52619">
        <ele>693.055</ele>
        <time>2019-07-01T18:00:25.781Z</time>
      </trkpt>
      <trkpt lat="40.49897333" lon="-3.52614833">
        <ele>693.055</ele>
        <time>2019-07-01T18:00:26.781Z</time>
      </trkpt>
      <trkpt lat="40.49903667" lon="-3.52613333">
        <ele>693.055</ele>
        <time>2019-07-01T18:00:27.781Z</time>
      </trkpt>
      <trkpt lat="40.49903667" lon="-3.52613333">
        <ele>693.055</ele>
        <time>2019-07-01T18:00:28.781Z</time>
      </trkpt>
      <trkpt lat="40.49916" lon="-3.52612">
        <ele>693.055</ele>
        <time>2019-07-01T18:00:29.781Z</time>
      </trkpt>
      <trkpt lat="40.49922" lon="-3.52612">
        <ele>693.055</ele>
        <time>2019-07-01T18:00:30.781Z</time>
      </trkpt>
      <trkpt lat="40.49922" lon="-3.52612">
        <ele>693.055</ele>
        <time>2019-07-01T18:00:31.781Z</time>
      </trkpt>
      <trkpt lat="40.49934" lon="-3.52613">
        <ele>693.055</ele>
        <time>2019-07-01T18:00:32.781Z</time>
      </trkpt>
      <trkpt lat="40.4994" lon="-3.52614">
        <ele>693.055</ele>
        <time>2019-07-01T18:00:33.781Z</time>
      </trkpt>
      <trkpt lat="40.4994" lon="-3.52614">
        <ele>693.055</ele>
        <time>2019-07-01T18:00:34.781Z</time>
      </trkpt>
      <trkpt lat="40.499515" lon="-3.52616667">
        <ele>693.055</ele>
        <time>2019-07-01T18:00:35.781Z</time>
      </trkpt>
      <trkpt lat="40.49957167" lon="-3.52618167">
        <ele>693.055</ele>
        <time>2019-07-01T18:00:36.781Z</time>
      </trkpt>
      <trkpt lat="40.49957167" lon="-3.52618167">
        <ele>693.055</ele>
        <time>2019-07-01T18:00:37.781Z</time>
      </trkpt>
      <trkpt lat="40.49968167" lon="-3.52622333">
        <ele>693.055</ele>
        <time>2019-07-01T18:00:38.781Z</time>
      </trkpt>
      <trkpt lat="40.499735" lon="-3.52624833">
        <ele>693.055</ele>
        <time>2019-07-01T18:00:39.781Z</time>
      </trkpt>
      <trkpt lat="40.499735" lon="-3.52624833">
        <ele>693.055</ele>
        <time>2019-07-01T18:00:40.781Z</time>
      </trkpt>
      <trkpt lat="40.49984667" lon="-3.52629667">
        <ele>693.055</ele>
        <time>2019-07-01T18:00:41.781Z</time>
      </trkpt>
      <trkpt lat="40.49990833" lon="-3.52631833">
        <ele>693.055</ele>
        <time>2019-07-01T18:00:42.781Z</time>
      </trkpt>
      <trkpt lat="40.49997333" lon="-3.52634333">
        <ele>693.055</ele>
        <time>2019-07-01T18:00:43.781Z</time>
      </trkpt>
      <trkpt lat="40.49997333" lon="-3.52634333">
        <ele>693.055</ele>
        <time>2019-07-01T18:00:44.781Z</time>
      </trkpt>
      <trkpt lat="40.50011167" lon="-3.526395">
        <ele>693.055</ele>
        <time>2019-07-01T18:00:45.781Z</time>
      </trkpt>
      <trkpt lat="40.50011167" lon="-3.526395">
        <ele>693.055</ele>
        <time>2019-07-01T18:00:46.781Z</time>
      </trkpt>
      <trkpt lat="40.50025333" lon="-3.52644167">
        <ele>693.055</ele>
        <time>2019-07-01T18:00:47.781Z</time>
      </trkpt>
      <trkpt lat="40.50032333" lon="-3.52646333">
        <ele>693.055</ele>
        <time>2019-07-01T18:00:48.781Z</time>
      </trkpt>
      <trkpt lat="40.50032333" lon="-3.52646333">
        <ele>693.055</ele>
        <time>2019-07-01T18:00:49.781Z</time>
      </trkpt>
      <trkpt lat="40.50046167" lon="-3.52650667">
        <ele>693.055</ele>
        <time>2019-07-01T18:00:50.781Z</time>
      </trkpt>
      <trkpt lat="40.50046167" lon="-3.52650667">
        <ele>693.055</ele>
        <time>2019-07-01T18:00:51.781Z</time>
      </trkpt>
      <trkpt lat="40.50060333" lon="-3.52653">
        <ele>693.055</ele>
        <time>2019-07-01T18:00:52.781Z</time>
      </trkpt>
      <trkpt lat="40.50067667" lon="-3.52654167">
        <ele>692.055</ele>
        <time>2019-07-01T18:00:53.781Z</time>
      </trkpt>
      <trkpt lat="40.50074667" lon="-3.52655">
        <ele>692.055</ele>
        <time>2019-07-01T18:00:54.781Z</time>
      </trkpt>
      <trkpt lat="40.50074667" lon="-3.52655">
        <ele>692.055</ele>
        <time>2019-07-01T18:00:55.781Z</time>
      </trkpt>
      <trkpt lat="40.50088" lon="-3.526565">
        <ele>692.055</ele>
        <time>2019-07-01T18:00:56.781Z</time>
      </trkpt>
      <trkpt lat="40.50088" lon="-3.526565">
        <ele>692.055</ele>
        <time>2019-07-01T18:00:57.781Z</time>
      </trkpt>
      <trkpt lat="40.501005" lon="-3.526575">
        <ele>692.055</ele>
        <time>2019-07-01T18:00:58.781Z</time>
      </trkpt>
      <trkpt lat="40.501005" lon="-3.526575">
        <ele>692.055</ele>
        <time>2019-07-01T18:00:59.781Z</time>
      </trkpt>
      <trkpt lat="40.50113" lon="-3.52657667">
        <ele>692.055</ele>
        <time>2019-07-01T18:01:00.781Z</time>
      </trkpt>
      <trkpt lat="40.50113" lon="-3.52657667">
        <ele>692.055</ele>
        <time>2019-07-01T18:01:01.781Z</time>
      </trkpt>
      <trkpt lat="40.50125667" lon="-3.52657667">
        <ele>692.055</ele>
        <time>2019-07-01T18:01:02.781Z</time>
      </trkpt>
      <trkpt lat="40.50125667" lon="-3.52657667">
        <ele>692.055</ele>
        <time>2019-07-01T18:01:03.781Z</time>
      </trkpt>
      <trkpt lat="40.501385" lon="-3.52656833">
        <ele>693.055</ele>
        <time>2019-07-01T18:01:04.781Z</time>
      </trkpt>
      <trkpt lat="40.501385" lon="-3.52656833">
        <ele>693.055</ele>
        <time>2019-07-01T18:01:05.781Z</time>
      </trkpt>
      <trkpt lat="40.50151" lon="-3.52653667">
        <ele>693.055</ele>
        <time>2019-07-01T18:01:06.781Z</time>
      </trkpt>
      <trkpt lat="40.50151" lon="-3.52653667">
        <ele>693.055</ele>
        <time>2019-07-01T18:01:07.781Z</time>
      </trkpt>
      <trkpt lat="40.50162833" lon="-3.52647333">
        <ele>693.055</ele>
        <time>2019-07-01T18:01:08.781Z</time>
      </trkpt>
      <trkpt lat="40.50162833" lon="-3.52647333">
        <ele>693.055</ele>
        <time>2019-07-01T18:01:09.781Z</time>
      </trkpt>
      <trkpt lat="40.50172833" lon="-3.52636667">
        <ele>693.055</ele>
        <time>2019-07-01T18:01:10.781Z</time>
      </trkpt>
      <trkpt lat="40.50177333" lon="-3.526305">
        <ele>693.055</ele>
        <time>2019-07-01T18:01:11.781Z</time>
      </trkpt>
      <trkpt lat="40.50181333" lon="-3.52623667">
        <ele>693.055</ele>
        <time>2019-07-01T18:01:12.781Z</time>
      </trkpt>
      <trkpt lat="40.50181333" lon="-3.52623667">
        <ele>693.055</ele>
        <time>2019-07-01T18:01:13.781Z</time>
      </trkpt>
      <trkpt lat="40.50187667" lon="-3.52609">
        <ele>693.055</ele>
        <time>2019-07-01T18:01:14.781Z</time>
      </trkpt>
      <trkpt lat="40.50187667" lon="-3.52609">
        <ele>693.055</ele>
        <time>2019-07-01T18:01:15.781Z</time>
      </trkpt>
      <trkpt lat="40.50192" lon="-3.52593333">
        <ele>693.055</ele>
        <time>2019-07-01T18:01:16.781Z</time>
      </trkpt>
      <trkpt lat="40.50192" lon="-3.52593333">
        <ele>693.055</ele>
        <time>2019-07-01T18:01:17.781Z</time>
      </trkpt>
      <trkpt lat="40.50194833" lon="-3.52577">
        <ele>693.055</ele>
        <time>2019-07-01T18:01:18.781Z</time>
      </trkpt>
      <trkpt lat="40.50194833" lon="-3.52577">
        <ele>693.055</ele>
        <time>2019-07-01T18:01:19.781Z</time>
      </trkpt>
      <trkpt lat="40.50198" lon="-3.52561">
        <ele>694.055</ele>
        <time>2019-07-01T18:01:20.781Z</time>
      </trkpt>
      <trkpt lat="40.50198" lon="-3.52561">
        <ele>694.055</ele>
        <time>2019-07-01T18:01:21.781Z</time>
      </trkpt>
      <trkpt lat="40.50200833" lon="-3.52544833">
        <ele>694.055</ele>
        <time>2019-07-01T18:01:22.781Z</time>
      </trkpt>
      <trkpt lat="40.50200833" lon="-3.52544833">
        <ele>694.055</ele>
        <time>2019-07-01T18:01:23.781Z</time>
      </trkpt>
      <trkpt lat="40.50204" lon="-3.52529333">
        <ele>695.055</ele>
        <time>2019-07-01T18:01:24.781Z</time>
      </trkpt>
      <trkpt lat="40.50204" lon="-3.52529333">
        <ele>695.055</ele>
        <time>2019-07-01T18:01:25.781Z</time>
      </trkpt>
      <trkpt lat="40.50207167" lon="-3.52513667">
        <ele>695.055</ele>
        <time>2019-07-01T18:01:26.781Z</time>
      </trkpt>
      <trkpt lat="40.50207167" lon="-3.52513667">
        <ele>695.055</ele>
        <time>2019-07-01T18:01:27.781Z</time>
      </trkpt>
      <trkpt lat="40.502105" lon="-3.524985">
        <ele>695.055</ele>
        <time>2019-07-01T18:01:28.781Z</time>
      </trkpt>
      <trkpt lat="40.502105" lon="-3.524985">
        <ele>695.055</ele>
        <time>2019-07-01T18:01:29.781Z</time>
      </trkpt>
      <trkpt lat="40.50213667" lon="-3.52484">
        <ele>695.055</ele>
        <time>2019-07-01T18:01:30.781Z</time>
      </trkpt>
      <trkpt lat="40.50213667" lon="-3.52484">
        <ele>695.055</ele>
        <time>2019-07-01T18:01:31.781Z</time>
      </trkpt>
      <trkpt lat="40.50216833" lon="-3.52469833">
        <ele>696.055</ele>
        <time>2019-07-01T18:01:32.781Z</time>
      </trkpt>
      <trkpt lat="40.50216833" lon="-3.52469833">
        <ele>696.055</ele>
        <time>2019-07-01T18:01:33.781Z</time>
      </trkpt>
      <trkpt lat="40.50217333" lon="-3.52455667">
        <ele>696.055</ele>
        <time>2019-07-01T18:01:34.781Z</time>
      </trkpt>
      <trkpt lat="40.50217333" lon="-3.52455667">
        <ele>696.055</ele>
        <time>2019-07-01T18:01:35.781Z</time>
      </trkpt>
      <trkpt lat="40.502115" lon="-3.52445667">
        <ele>696.055</ele>
        <time>2019-07-01T18:01:36.781Z</time>
      </trkpt>
      <trkpt lat="40.502115" lon="-3.52445667">
        <ele>696.055</ele>
        <time>2019-07-01T18:01:37.781Z</time>
      </trkpt>
      <trkpt lat="40.50202833" lon="-3.524395">
        <ele>697.055</ele>
        <time>2019-07-01T18:01:38.781Z</time>
      </trkpt>
      <trkpt lat="40.50202833" lon="-3.524395">
        <ele>697.055</ele>
        <time>2019-07-01T18:01:39.781Z</time>
      </trkpt>
      <trkpt lat="40.50192833" lon="-3.52433833">
        <ele>697.055</ele>
        <time>2019-07-01T18:01:40.781Z</time>
      </trkpt>
      <trkpt lat="40.50192833" lon="-3.52433833">
        <ele>697.055</ele>
        <time>2019-07-01T18:01:41.781Z</time>
      </trkpt>
      <trkpt lat="40.50183" lon="-3.524275">
        <ele>698.055</ele>
        <time>2019-07-01T18:01:42.781Z</time>
      </trkpt>
      <trkpt lat="40.50183" lon="-3.524275">
        <ele>698.055</ele>
        <time>2019-07-01T18:01:43.781Z</time>
      </trkpt>
      <trkpt lat="40.50173" lon="-3.52421833">
        <ele>698.055</ele>
        <time>2019-07-01T18:01:44.781Z</time>
      </trkpt>
      <trkpt lat="40.50168" lon="-3.52418833">
        <ele>699.055</ele>
        <time>2019-07-01T18:01:45.781Z</time>
      </trkpt>
      <trkpt lat="40.50162833" lon="-3.524165">
        <ele>699.055</ele>
        <time>2019-07-01T18:01:46.781Z</time>
      </trkpt>
      <trkpt lat="40.50162833" lon="-3.524165">
        <ele>700.055</ele>
        <time>2019-07-01T18:01:47.781Z</time>
      </trkpt>
      <trkpt lat="40.501525" lon="-3.52412167">
        <ele>700.055</ele>
        <time>2019-07-01T18:01:48.781Z</time>
      </trkpt>
      <trkpt lat="40.501525" lon="-3.52412167">
        <ele>700.055</ele>
        <time>2019-07-01T18:01:49.781Z</time>
      </trkpt>
      <trkpt lat="40.501425" lon="-3.52406667">
        <ele>700.055</ele>
        <time>2019-07-01T18:01:50.781Z</time>
      </trkpt>
      <trkpt lat="40.50137667" lon="-3.52404167">
        <ele>701.055</ele>
        <time>2019-07-01T18:01:51.781Z</time>
      </trkpt>
      <trkpt lat="40.50137667" lon="-3.52404167">
        <ele>701.055</ele>
        <time>2019-07-01T18:01:52.781Z</time>
      </trkpt>
      <trkpt lat="40.50128667" lon="-3.523995">
        <ele>701.055</ele>
        <time>2019-07-01T18:01:53.781Z</time>
      </trkpt>
      <trkpt lat="40.50128667" lon="-3.523995">
        <ele>701.055</ele>
        <time>2019-07-01T18:01:54.781Z</time>
      </trkpt>
      <trkpt lat="40.50128667" lon="-3.523995">
        <ele>703.055</ele>
        <time>2019-07-01T18:01:55.781Z</time>
      </trkpt>
      <trkpt lat="40.501195" lon="-3.52395">
        <ele>703.055</ele>
        <time>2019-07-01T18:01:56.781Z</time>
      </trkpt>
      <trkpt lat="40.50109833" lon="-3.52390667">
        <ele>703.055</ele>
        <time>2019-07-01T18:01:57.781Z</time>
      </trkpt>
      <trkpt lat="40.50105" lon="-3.52388667">
        <ele>703.055</ele>
        <time>2019-07-01T18:01:58.781Z</time>
      </trkpt>
      <trkpt lat="40.50105" lon="-3.52388667">
        <ele>703.055</ele>
        <time>2019-07-01T18:01:59.781Z</time>
      </trkpt>
      <trkpt lat="40.50095333" lon="-3.52384667">
        <ele>703.055</ele>
        <time>2019-07-01T18:02:00.781Z</time>
      </trkpt>
      <trkpt lat="40.50095333" lon="-3.52384667">
        <ele>704.055</ele>
        <time>2019-07-01T18:02:01.781Z</time>
      </trkpt>
      <trkpt lat="40.50085167" lon="-3.52381333">
        <ele>704.055</ele>
        <time>2019-07-01T18:02:02.781Z</time>
      </trkpt>
      <trkpt lat="40.50085167" lon="-3.52381333">
        <ele>704.055</ele>
        <time>2019-07-01T18:02:03.781Z</time>
      </trkpt>
      <trkpt lat="40.50074667" lon="-3.523785">
        <ele>704.055</ele>
        <time>2019-07-01T18:02:04.781Z</time>
      </trkpt>
      <trkpt lat="40.500695" lon="-3.52376833">
        <ele>704.055</ele>
        <time>2019-07-01T18:02:05.781Z</time>
      </trkpt>
      <trkpt lat="40.500695" lon="-3.52376833">
        <ele>704.055</ele>
        <time>2019-07-01T18:02:06.781Z</time>
      </trkpt>
      <trkpt lat="40.50058833" lon="-3.52373333">
        <ele>704.055</ele>
        <time>2019-07-01T18:02:07.781Z</time>
      </trkpt>
      <trkpt lat="40.50058833" lon="-3.52373333">
        <ele>704.055</ele>
        <time>2019-07-01T18:02:08.781Z</time>
      </trkpt>
      <trkpt lat="40.500485" lon="-3.52369667">
        <ele>704.055</ele>
        <time>2019-07-01T18:02:09.781Z</time>
      </trkpt>
      <trkpt lat="40.500485" lon="-3.52369667">
        <ele>704.055</ele>
        <time>2019-07-01T18:02:10.781Z</time>
      </trkpt>
      <trkpt lat="40.50037667" lon="-3.52366333">
        <ele>704.055</ele>
        <time>2019-07-01T18:02:11.781Z</time>
      </trkpt>
      <trkpt lat="40.50032167" lon="-3.52364333">
        <ele>704.055</ele>
        <time>2019-07-01T18:02:12.781Z</time>
      </trkpt>
      <trkpt lat="40.50032167" lon="-3.52364333">
        <ele>704.055</ele>
        <time>2019-07-01T18:02:13.781Z</time>
      </trkpt>
      <trkpt lat="40.50021167" lon="-3.52359667">
        <ele>704.055</ele>
        <time>2019-07-01T18:02:14.781Z</time>
      </trkpt>
      <trkpt lat="40.50021167" lon="-3.52359667">
        <ele>704.055</ele>
        <time>2019-07-01T18:02:15.781Z</time>
      </trkpt>
      <trkpt lat="40.50009833" lon="-3.523555">
        <ele>704.055</ele>
        <time>2019-07-01T18:02:16.781Z</time>
      </trkpt>
      <trkpt lat="40.50009833" lon="-3.523555">
        <ele>704.055</ele>
        <time>2019-07-01T18:02:17.781Z</time>
      </trkpt>
      <trkpt lat="40.49998" lon="-3.523515">
        <ele>704.055</ele>
        <time>2019-07-01T18:02:18.781Z</time>
      </trkpt>
      <trkpt lat="40.49998" lon="-3.523515">
        <ele>704.055</ele>
        <time>2019-07-01T18:02:19.781Z</time>
      </trkpt>
      <trkpt lat="40.49986" lon="-3.523475">
        <ele>704.055</ele>
        <time>2019-07-01T18:02:20.781Z</time>
      </trkpt>
      <trkpt lat="40.49986" lon="-3.523475">
        <ele>704.055</ele>
        <time>2019-07-01T18:02:21.781Z</time>
      </trkpt>
      <trkpt lat="40.499745" lon="-3.52343667">
        <ele>704.055</ele>
        <time>2019-07-01T18:02:22.781Z</time>
      </trkpt>
      <trkpt lat="40.49968833" lon="-3.52342">
        <ele>704.055</ele>
        <time>2019-07-01T18:02:23.781Z</time>
      </trkpt>
      <trkpt lat="40.49963" lon="-3.523405">
        <ele>704.055</ele>
        <time>2019-07-01T18:02:24.781Z</time>
      </trkpt>
      <trkpt lat="40.49963" lon="-3.523405">
        <ele>704.055</ele>
        <time>2019-07-01T18:02:25.781Z</time>
      </trkpt>
      <trkpt lat="40.49950667" lon="-3.52337667">
        <ele>704.055</ele>
        <time>2019-07-01T18:02:26.781Z</time>
      </trkpt>
      <trkpt lat="40.49950667" lon="-3.52337667">
        <ele>704.055</ele>
        <time>2019-07-01T18:02:27.781Z</time>
      </trkpt>
      <trkpt lat="40.49938167" lon="-3.52335">
        <ele>704.055</ele>
        <time>2019-07-01T18:02:28.781Z</time>
      </trkpt>
      <trkpt lat="40.49938167" lon="-3.52335">
        <ele>704.055</ele>
        <time>2019-07-01T18:02:29.781Z</time>
      </trkpt>
      <trkpt lat="40.49925333" lon="-3.52332667">
        <ele>704.055</ele>
        <time>2019-07-01T18:02:30.781Z</time>
      </trkpt>
      <trkpt lat="40.49925333" lon="-3.52332667">
        <ele>704.055</ele>
        <time>2019-07-01T18:02:31.781Z</time>
      </trkpt>
      <trkpt lat="40.49911833" lon="-3.52330667">
        <ele>704.055</ele>
        <time>2019-07-01T18:02:32.781Z</time>
      </trkpt>
      <trkpt lat="40.49905167" lon="-3.52329667">
        <ele>704.055</ele>
        <time>2019-07-01T18:02:33.781Z</time>
      </trkpt>
      <trkpt lat="40.49905167" lon="-3.52329667">
        <ele>704.055</ele>
        <time>2019-07-01T18:02:34.781Z</time>
      </trkpt>
      <trkpt lat="40.49891333" lon="-3.52326833">
        <ele>704.055</ele>
        <time>2019-07-01T18:02:35.781Z</time>
      </trkpt>
      <trkpt lat="40.498845" lon="-3.52325167">
        <ele>703.055</ele>
        <time>2019-07-01T18:02:36.781Z</time>
      </trkpt>
      <trkpt lat="40.498845" lon="-3.52325167">
        <ele>703.055</ele>
        <time>2019-07-01T18:02:37.781Z</time>
      </trkpt>
      <trkpt lat="40.49870333" lon="-3.52322333">
        <ele>703.055</ele>
        <time>2019-07-01T18:02:38.781Z</time>
      </trkpt>
      <trkpt lat="40.49870333" lon="-3.52322333">
        <ele>703.055</ele>
        <time>2019-07-01T18:02:39.781Z</time>
      </trkpt>
      <trkpt lat="40.49855667" lon="-3.52319333">
        <ele>703.055</ele>
        <time>2019-07-01T18:02:40.781Z</time>
      </trkpt>
      <trkpt lat="40.49848167" lon="-3.523175">
        <ele>703.055</ele>
        <time>2019-07-01T18:02:41.781Z</time>
      </trkpt>
      <trkpt lat="40.49840667" lon="-3.52315667">
        <ele>702.055</ele>
        <time>2019-07-01T18:02:42.781Z</time>
      </trkpt>
      <trkpt lat="40.49840667" lon="-3.52315667">
        <ele>702.055</ele>
        <time>2019-07-01T18:02:43.781Z</time>
      </trkpt>
      <trkpt lat="40.498255" lon="-3.52311833">
        <ele>702.055</ele>
        <time>2019-07-01T18:02:44.781Z</time>
      </trkpt>
      <trkpt lat="40.498255" lon="-3.52311833">
        <ele>702.055</ele>
        <time>2019-07-01T18:02:45.781Z</time>
      </trkpt>
      <trkpt lat="40.49810333" lon="-3.52308167">
        <ele>702.055</ele>
        <time>2019-07-01T18:02:46.781Z</time>
      </trkpt>
      <trkpt lat="40.49810333" lon="-3.52308167">
        <ele>702.055</ele>
        <time>2019-07-01T18:02:47.781Z</time>
      </trkpt>
      <trkpt lat="40.49795333" lon="-3.52309167">
        <ele>701.055</ele>
        <time>2019-07-01T18:02:48.781Z</time>
      </trkpt>
      <trkpt lat="40.49795333" lon="-3.52309167">
        <ele>701.055</ele>
        <time>2019-07-01T18:02:49.781Z</time>
      </trkpt>
      <trkpt lat="40.49781333" lon="-3.52312167">
        <ele>701.055</ele>
        <time>2019-07-01T18:02:50.781Z</time>
      </trkpt>
      <trkpt lat="40.497745" lon="-3.52310667">
        <ele>701.055</ele>
        <time>2019-07-01T18:02:51.781Z</time>
      </trkpt>
      <trkpt lat="40.497745" lon="-3.52310667">
        <ele>701.055</ele>
        <time>2019-07-01T18:02:52.781Z</time>
      </trkpt>
      <trkpt lat="40.497635" lon="-3.52300667">
        <ele>701.055</ele>
        <time>2019-07-01T18:02:53.781Z</time>
      </trkpt>
      <trkpt lat="40.497635" lon="-3.52300667">
        <ele>701.055</ele>
        <time>2019-07-01T18:02:54.781Z</time>
      </trkpt>
      <trkpt lat="40.497545" lon="-3.52288">
        <ele>701.055</ele>
        <time>2019-07-01T18:02:55.781Z</time>
      </trkpt>
      <trkpt lat="40.497545" lon="-3.52288">
        <ele>701.055</ele>
        <time>2019-07-01T18:02:56.781Z</time>
      </trkpt>
      <trkpt lat="40.49743167" lon="-3.52281333">
        <ele>701.055</ele>
        <time>2019-07-01T18:02:57.781Z</time>
      </trkpt>
      <trkpt lat="40.49743167" lon="-3.52281333">
        <ele>700.055</ele>
        <time>2019-07-01T18:02:58.781Z</time>
      </trkpt>
      <trkpt lat="40.49731" lon="-3.52277167">
        <ele>700.055</ele>
        <time>2019-07-01T18:02:59.781Z</time>
      </trkpt>
      <trkpt lat="40.49731" lon="-3.52277167">
        <ele>700.055</ele>
        <time>2019-07-01T18:03:00.781Z</time>
      </trkpt>
      <trkpt lat="40.49718833" lon="-3.52273333">
        <ele>700.055</ele>
        <time>2019-07-01T18:03:01.781Z</time>
      </trkpt>
      <trkpt lat="40.49718833" lon="-3.52273333">
        <ele>700.055</ele>
        <time>2019-07-01T18:03:02.781Z</time>
      </trkpt>
      <trkpt lat="40.49706333" lon="-3.52267833">
        <ele>700.055</ele>
        <time>2019-07-01T18:03:03.781Z</time>
      </trkpt>
      <trkpt lat="40.49706333" lon="-3.52267833">
        <ele>700.055</ele>
        <time>2019-07-01T18:03:04.781Z</time>
      </trkpt>
      <trkpt lat="40.49693667" lon="-3.52260333">
        <ele>700.055</ele>
        <time>2019-07-01T18:03:05.781Z</time>
      </trkpt>
      <trkpt lat="40.49693667" lon="-3.52260333">
        <ele>700.055</ele>
        <time>2019-07-01T18:03:06.781Z</time>
      </trkpt>
      <trkpt lat="40.49680667" lon="-3.52252333">
        <ele>700.055</ele>
        <time>2019-07-01T18:03:07.781Z</time>
      </trkpt>
      <trkpt lat="40.49680667" lon="-3.52252333">
        <ele>700.055</ele>
        <time>2019-07-01T18:03:08.781Z</time>
      </trkpt>
      <trkpt lat="40.49668" lon="-3.52244">
        <ele>700.055</ele>
        <time>2019-07-01T18:03:09.781Z</time>
      </trkpt>
      <trkpt lat="40.49668" lon="-3.52244">
        <ele>700.055</ele>
        <time>2019-07-01T18:03:10.781Z</time>
      </trkpt>
      <trkpt lat="40.49655333" lon="-3.52234167">
        <ele>700.055</ele>
        <time>2019-07-01T18:03:11.781Z</time>
      </trkpt>
      <trkpt lat="40.496495" lon="-3.522285">
        <ele>700.055</ele>
        <time>2019-07-01T18:03:12.781Z</time>
      </trkpt>
      <trkpt lat="40.496495" lon="-3.522285">
        <ele>700.055</ele>
        <time>2019-07-01T18:03:13.781Z</time>
      </trkpt>
      <trkpt lat="40.49638833" lon="-3.52217667">
        <ele>700.055</ele>
        <time>2019-07-01T18:03:14.781Z</time>
      </trkpt>
      <trkpt lat="40.496335" lon="-3.52212667">
        <ele>700.055</ele>
        <time>2019-07-01T18:03:15.781Z</time>
      </trkpt>
      <trkpt lat="40.496335" lon="-3.52212667">
        <ele>700.055</ele>
        <time>2019-07-01T18:03:16.781Z</time>
      </trkpt>
      <trkpt lat="40.49621833" lon="-3.52203333">
        <ele>700.055</ele>
        <time>2019-07-01T18:03:17.781Z</time>
      </trkpt>
      <trkpt lat="40.49615667" lon="-3.52198833">
        <ele>700.055</ele>
        <time>2019-07-01T18:03:18.781Z</time>
      </trkpt>
      <trkpt lat="40.49615667" lon="-3.52198833">
        <ele>700.055</ele>
        <time>2019-07-01T18:03:19.781Z</time>
      </trkpt>
      <trkpt lat="40.49603167" lon="-3.521895">
        <ele>700.055</ele>
        <time>2019-07-01T18:03:20.781Z</time>
      </trkpt>
      <trkpt lat="40.49596833" lon="-3.52185333">
        <ele>700.055</ele>
        <time>2019-07-01T18:03:21.781Z</time>
      </trkpt>
      <trkpt lat="40.49596833" lon="-3.52185333">
        <ele>700.055</ele>
        <time>2019-07-01T18:03:22.781Z</time>
      </trkpt>
      <trkpt lat="40.49583333" lon="-3.52178333">
        <ele>700.055</ele>
        <time>2019-07-01T18:03:23.781Z</time>
      </trkpt>
      <trkpt lat="40.49576333" lon="-3.52175167">
        <ele>700.055</ele>
        <time>2019-07-01T18:03:24.781Z</time>
      </trkpt>
      <trkpt lat="40.49569167" lon="-3.52172167">
        <ele>700.055</ele>
        <time>2019-07-01T18:03:25.781Z</time>
      </trkpt>
      <trkpt lat="40.49569167" lon="-3.52172167">
        <ele>700.055</ele>
        <time>2019-07-01T18:03:26.781Z</time>
      </trkpt>
      <trkpt lat="40.49554333" lon="-3.52166167">
        <ele>700.055</ele>
        <time>2019-07-01T18:03:27.781Z</time>
      </trkpt>
      <trkpt lat="40.49554333" lon="-3.52166167">
        <ele>699.055</ele>
        <time>2019-07-01T18:03:28.781Z</time>
      </trkpt>
      <trkpt lat="40.49539" lon="-3.52160333">
        <ele>699.055</ele>
        <time>2019-07-01T18:03:29.781Z</time>
      </trkpt>
      <trkpt lat="40.49531333" lon="-3.521575">
        <ele>699.055</ele>
        <time>2019-07-01T18:03:30.781Z</time>
      </trkpt>
      <trkpt lat="40.49531333" lon="-3.521575">
        <ele>699.055</ele>
        <time>2019-07-01T18:03:31.781Z</time>
      </trkpt>
      <trkpt lat="40.49515833" lon="-3.52151833">
        <ele>699.055</ele>
        <time>2019-07-01T18:03:32.781Z</time>
      </trkpt>
      <trkpt lat="40.49508333" lon="-3.52149">
        <ele>699.055</ele>
        <time>2019-07-01T18:03:33.781Z</time>
      </trkpt>
      <trkpt lat="40.49508333" lon="-3.52149">
        <ele>699.055</ele>
        <time>2019-07-01T18:03:34.781Z</time>
      </trkpt>
      <trkpt lat="40.49493667" lon="-3.52142833">
        <ele>699.055</ele>
        <time>2019-07-01T18:03:35.781Z</time>
      </trkpt>
      <trkpt lat="40.49486333" lon="-3.52140167">
        <ele>699.055</ele>
        <time>2019-07-01T18:03:36.781Z</time>
      </trkpt>
      <trkpt lat="40.49486333" lon="-3.52140167">
        <ele>699.055</ele>
        <time>2019-07-01T18:03:37.781Z</time>
      </trkpt>
      <trkpt lat="40.49472333" lon="-3.52136">
        <ele>699.055</ele>
        <time>2019-07-01T18:03:38.781Z</time>
      </trkpt>
      <trkpt lat="40.49472333" lon="-3.52136">
        <ele>699.055</ele>
        <time>2019-07-01T18:03:39.781Z</time>
      </trkpt>
      <trkpt lat="40.49458333" lon="-3.52133167">
        <ele>699.055</ele>
        <time>2019-07-01T18:03:40.781Z</time>
      </trkpt>
      <trkpt lat="40.49458333" lon="-3.52133167">
        <ele>699.055</ele>
        <time>2019-07-01T18:03:41.781Z</time>
      </trkpt>
      <trkpt lat="40.49444167" lon="-3.52130667">
        <ele>699.055</ele>
        <time>2019-07-01T18:03:42.781Z</time>
      </trkpt>
      <trkpt lat="40.49444167" lon="-3.52130667">
        <ele>699.055</ele>
        <time>2019-07-01T18:03:43.781Z</time>
      </trkpt>
      <trkpt lat="40.4943" lon="-3.52129333">
        <ele>699.055</ele>
        <time>2019-07-01T18:03:44.781Z</time>
      </trkpt>
      <trkpt lat="40.4943" lon="-3.52129333">
        <ele>699.055</ele>
        <time>2019-07-01T18:03:45.781Z</time>
      </trkpt>
      <trkpt lat="40.49415667" lon="-3.52128333">
        <ele>700.055</ele>
        <time>2019-07-01T18:03:46.781Z</time>
      </trkpt>
      <trkpt lat="40.49415667" lon="-3.52128333">
        <ele>700.055</ele>
        <time>2019-07-01T18:03:47.781Z</time>
      </trkpt>
      <trkpt lat="40.49401333" lon="-3.52127333">
        <ele>700.055</ele>
        <time>2019-07-01T18:03:48.781Z</time>
      </trkpt>
      <trkpt lat="40.49401333" lon="-3.52127333">
        <ele>700.055</ele>
        <time>2019-07-01T18:03:49.781Z</time>
      </trkpt>
      <trkpt lat="40.49387" lon="-3.52126">
        <ele>700.055</ele>
        <time>2019-07-01T18:03:50.781Z</time>
      </trkpt>
      <trkpt lat="40.49387" lon="-3.52126">
        <ele>700.055</ele>
        <time>2019-07-01T18:03:51.781Z</time>
      </trkpt>
      <trkpt lat="40.49373" lon="-3.52125">
        <ele>700.055</ele>
        <time>2019-07-01T18:03:52.781Z</time>
      </trkpt>
      <trkpt lat="40.49373" lon="-3.52125">
        <ele>700.055</ele>
        <time>2019-07-01T18:03:53.781Z</time>
      </trkpt>
      <trkpt lat="40.49358833" lon="-3.52124167">
        <ele>700.055</ele>
        <time>2019-07-01T18:03:54.781Z</time>
      </trkpt>
      <trkpt lat="40.49358833" lon="-3.52124167">
        <ele>700.055</ele>
        <time>2019-07-01T18:03:55.781Z</time>
      </trkpt>
      <trkpt lat="40.493445" lon="-3.52123667">
        <ele>701.055</ele>
        <time>2019-07-01T18:03:56.781Z</time>
      </trkpt>
      <trkpt lat="40.493445" lon="-3.52123667">
        <ele>701.055</ele>
        <time>2019-07-01T18:03:57.781Z</time>
      </trkpt>
      <trkpt lat="40.49330167" lon="-3.52124167">
        <ele>701.055</ele>
        <time>2019-07-01T18:03:58.781Z</time>
      </trkpt>
      <trkpt lat="40.49330167" lon="-3.52124167">
        <ele>701.055</ele>
        <time>2019-07-01T18:03:59.781Z</time>
      </trkpt>
      <trkpt lat="40.49315833" lon="-3.52125167">
        <ele>701.055</ele>
        <time>2019-07-01T18:04:00.781Z</time>
      </trkpt>
      <trkpt lat="40.49315833" lon="-3.52125167">
        <ele>701.055</ele>
        <time>2019-07-01T18:04:01.781Z</time>
      </trkpt>
      <trkpt lat="40.49301333" lon="-3.52126333">
        <ele>701.055</ele>
        <time>2019-07-01T18:04:02.781Z</time>
      </trkpt>
      <trkpt lat="40.49294" lon="-3.521265">
        <ele>701.055</ele>
        <time>2019-07-01T18:04:03.781Z</time>
      </trkpt>
      <trkpt lat="40.49294" lon="-3.521265">
        <ele>701.055</ele>
        <time>2019-07-01T18:04:04.781Z</time>
      </trkpt>
      <trkpt lat="40.492795" lon="-3.52126333">
        <ele>701.055</ele>
        <time>2019-07-01T18:04:05.781Z</time>
      </trkpt>
      <trkpt lat="40.49272167" lon="-3.52126167">
        <ele>701.055</ele>
        <time>2019-07-01T18:04:06.781Z</time>
      </trkpt>
      <trkpt lat="40.49265" lon="-3.52125667">
        <ele>701.055</ele>
        <time>2019-07-01T18:04:07.781Z</time>
      </trkpt>
      <trkpt lat="40.49265" lon="-3.52125667">
        <ele>701.055</ele>
        <time>2019-07-01T18:04:08.781Z</time>
      </trkpt>
      <trkpt lat="40.492505" lon="-3.52124">
        <ele>701.055</ele>
        <time>2019-07-01T18:04:09.781Z</time>
      </trkpt>
      <trkpt lat="40.492435" lon="-3.52122333">
        <ele>701.055</ele>
        <time>2019-07-01T18:04:10.781Z</time>
      </trkpt>
      <trkpt lat="40.492435" lon="-3.52122333">
        <ele>701.055</ele>
        <time>2019-07-01T18:04:11.781Z</time>
      </trkpt>
      <trkpt lat="40.492295" lon="-3.521185">
        <ele>701.055</ele>
        <time>2019-07-01T18:04:12.781Z</time>
      </trkpt>
      <trkpt lat="40.492295" lon="-3.521185">
        <ele>701.055</ele>
        <time>2019-07-01T18:04:13.781Z</time>
      </trkpt>
      <trkpt lat="40.49215667" lon="-3.52114333">
        <ele>701.055</ele>
        <time>2019-07-01T18:04:14.781Z</time>
      </trkpt>
      <trkpt lat="40.49208833" lon="-3.52112167">
        <ele>701.055</ele>
        <time>2019-07-01T18:04:15.781Z</time>
      </trkpt>
      <trkpt lat="40.49208833" lon="-3.52112167">
        <ele>701.055</ele>
        <time>2019-07-01T18:04:16.781Z</time>
      </trkpt>
      <trkpt lat="40.49194833" lon="-3.52107">
        <ele>701.055</ele>
        <time>2019-07-01T18:04:17.781Z</time>
      </trkpt>
      <trkpt lat="40.49187833" lon="-3.52104167">
        <ele>701.055</ele>
        <time>2019-07-01T18:04:18.781Z</time>
      </trkpt>
      <trkpt lat="40.49187833" lon="-3.52104167">
        <ele>700.055</ele>
        <time>2019-07-01T18:04:19.781Z</time>
      </trkpt>
      <trkpt lat="40.49173667" lon="-3.520995">
        <ele>700.055</ele>
        <time>2019-07-01T18:04:20.781Z</time>
      </trkpt>
      <trkpt lat="40.49173667" lon="-3.520995">
        <ele>700.055</ele>
        <time>2019-07-01T18:04:21.781Z</time>
      </trkpt>
      <trkpt lat="40.491595" lon="-3.52094667">
        <ele>700.055</ele>
        <time>2019-07-01T18:04:22.781Z</time>
      </trkpt>
      <trkpt lat="40.491595" lon="-3.52094667">
        <ele>700.055</ele>
        <time>2019-07-01T18:04:23.781Z</time>
      </trkpt>
      <trkpt lat="40.49145167" lon="-3.52089667">
        <ele>700.055</ele>
        <time>2019-07-01T18:04:24.781Z</time>
      </trkpt>
      <trkpt lat="40.49145167" lon="-3.52089667">
        <ele>700.055</ele>
        <time>2019-07-01T18:04:25.781Z</time>
      </trkpt>
      <trkpt lat="40.49130333" lon="-3.520855">
        <ele>700.055</ele>
        <time>2019-07-01T18:04:26.781Z</time>
      </trkpt>
      <trkpt lat="40.49130333" lon="-3.520855">
        <ele>699.055</ele>
        <time>2019-07-01T18:04:27.781Z</time>
      </trkpt>
      <trkpt lat="40.49114833" lon="-3.52083667">
        <ele>699.055</ele>
        <time>2019-07-01T18:04:28.781Z</time>
      </trkpt>
      <trkpt lat="40.49106833" lon="-3.520835">
        <ele>699.055</ele>
        <time>2019-07-01T18:04:29.781Z</time>
      </trkpt>
      <trkpt lat="40.49106833" lon="-3.520835">
        <ele>699.055</ele>
        <time>2019-07-01T18:04:30.781Z</time>
      </trkpt>
      <trkpt lat="40.49089333" lon="-3.52085333">
        <ele>698.055</ele>
        <time>2019-07-01T18:04:31.781Z</time>
      </trkpt>
      <trkpt lat="40.49089333" lon="-3.52085333">
        <ele>698.055</ele>
        <time>2019-07-01T18:04:32.781Z</time>
      </trkpt>
      <trkpt lat="40.49069833" lon="-3.52091667">
        <ele>697.055</ele>
        <time>2019-07-01T18:04:33.781Z</time>
      </trkpt>
      <trkpt lat="40.49059167" lon="-3.52094333">
        <ele>697.055</ele>
        <time>2019-07-01T18:04:34.781Z</time>
      </trkpt>
      <trkpt lat="40.49047833" lon="-3.52095667">
        <ele>695.055</ele>
        <time>2019-07-01T18:04:35.781Z</time>
      </trkpt>
      <trkpt lat="40.49035833" lon="-3.52095167">
        <ele>695.055</ele>
        <time>2019-07-01T18:04:36.781Z</time>
      </trkpt>
      <trkpt lat="40.49035833" lon="-3.52095167">
        <ele>693.055</ele>
        <time>2019-07-01T18:04:37.781Z</time>
      </trkpt>
      <trkpt lat="40.49010833" lon="-3.52090333">
        <ele>693.055</ele>
        <time>2019-07-01T18:04:38.781Z</time>
      </trkpt>
      <trkpt lat="40.49010833" lon="-3.52090333">
        <ele>691.055</ele>
        <time>2019-07-01T18:04:39.781Z</time>
      </trkpt>
      <trkpt lat="40.48985667" lon="-3.520785">
        <ele>691.055</ele>
        <time>2019-07-01T18:04:40.781Z</time>
      </trkpt>
      <trkpt lat="40.48972667" lon="-3.520705">
        <ele>689.055</ele>
        <time>2019-07-01T18:04:41.781Z</time>
      </trkpt>
      <trkpt lat="40.48972667" lon="-3.520705">
        <ele>689.055</ele>
        <time>2019-07-01T18:04:42.781Z</time>
      </trkpt>
      <trkpt lat="40.48945667" lon="-3.52054167">
        <ele>686.055</ele>
        <time>2019-07-01T18:04:43.781Z</time>
      </trkpt>
      <trkpt lat="40.48945667" lon="-3.52054167">
        <ele>686.055</ele>
        <time>2019-07-01T18:04:44.781Z</time>
      </trkpt>
      <trkpt lat="40.48916167" lon="-3.52040167">
        <ele>684.055</ele>
        <time>2019-07-01T18:04:45.781Z</time>
      </trkpt>
      <trkpt lat="40.48916167" lon="-3.52040167">
        <ele>684.055</ele>
        <time>2019-07-01T18:04:46.781Z</time>
      </trkpt>
      <trkpt lat="40.48884" lon="-3.52032">
        <ele>681.055</ele>
        <time>2019-07-01T18:04:47.781Z</time>
      </trkpt>
      <trkpt lat="40.48884" lon="-3.52032">
        <ele>681.055</ele>
        <time>2019-07-01T18:04:48.781Z</time>
      </trkpt>
      <trkpt lat="40.48850667" lon="-3.52031333">
        <ele>678.055</ele>
        <time>2019-07-01T18:04:49.781Z</time>
      </trkpt>
      <trkpt lat="40.48850667" lon="-3.52031333">
        <ele>678.055</ele>
        <time>2019-07-01T18:04:50.781Z</time>
      </trkpt>
      <trkpt lat="40.48817833" lon="-3.52029667">
        <ele>675.055</ele>
        <time>2019-07-01T18:04:51.781Z</time>
      </trkpt>
      <trkpt lat="40.48801833" lon="-3.52025667">
        <ele>675.055</ele>
        <time>2019-07-01T18:04:52.781Z</time>
      </trkpt>
      <trkpt lat="40.48787167" lon="-3.52018333">
        <ele>674.055</ele>
        <time>2019-07-01T18:04:53.781Z</time>
      </trkpt>
      <trkpt lat="40.48787167" lon="-3.52018333">
        <ele>674.055</ele>
        <time>2019-07-01T18:04:54.781Z</time>
      </trkpt>
      <trkpt lat="40.48763167" lon="-3.51994667">
        <ele>673.055</ele>
        <time>2019-07-01T18:04:55.781Z</time>
      </trkpt>
      <trkpt lat="40.48763167" lon="-3.51994667">
        <ele>673.055</ele>
        <time>2019-07-01T18:04:56.781Z</time>
      </trkpt>
      <trkpt lat="40.48742167" lon="-3.51968167">
        <ele>673.055</ele>
        <time>2019-07-01T18:04:57.781Z</time>
      </trkpt>
      <trkpt lat="40.48731167" lon="-3.51957667">
        <ele>673.055</ele>
        <time>2019-07-01T18:04:58.781Z</time>
      </trkpt>
      <trkpt lat="40.48731167" lon="-3.51957667">
        <ele>673.055</ele>
        <time>2019-07-01T18:04:59.781Z</time>
      </trkpt>
      <trkpt lat="40.48707667" lon="-3.5195">
        <ele>673.055</ele>
        <time>2019-07-01T18:05:00.781Z</time>
      </trkpt>
      <trkpt lat="40.48707667" lon="-3.5195">
        <ele>674.055</ele>
        <time>2019-07-01T18:05:01.781Z</time>
      </trkpt>
      <trkpt lat="40.48685167" lon="-3.51949667">
        <ele>674.055</ele>
        <time>2019-07-01T18:05:02.781Z</time>
      </trkpt>
      <trkpt lat="40.48685167" lon="-3.51949667">
        <ele>674.055</ele>
        <time>2019-07-01T18:05:03.781Z</time>
      </trkpt>
      <trkpt lat="40.48662667" lon="-3.519455">
        <ele>674.055</ele>
        <time>2019-07-01T18:05:04.781Z</time>
      </trkpt>
      <trkpt lat="40.486515" lon="-3.51941167">
        <ele>674.055</ele>
        <time>2019-07-01T18:05:05.781Z</time>
      </trkpt>
      <trkpt lat="40.486515" lon="-3.51941167">
        <ele>674.055</ele>
        <time>2019-07-01T18:05:06.781Z</time>
      </trkpt>
      <trkpt lat="40.486285" lon="-3.51927667">
        <ele>674.055</ele>
        <time>2019-07-01T18:05:07.781Z</time>
      </trkpt>
      <trkpt lat="40.486285" lon="-3.51927667">
        <ele>673.055</ele>
        <time>2019-07-01T18:05:08.781Z</time>
      </trkpt>
      <trkpt lat="40.48607667" lon="-3.51903833">
        <ele>673.055</ele>
        <time>2019-07-01T18:05:09.781Z</time>
      </trkpt>
      <trkpt lat="40.48607667" lon="-3.51903833">
        <ele>671.055</ele>
        <time>2019-07-01T18:05:10.781Z</time>
      </trkpt>
      <trkpt lat="40.48590333" lon="-3.518725">
        <ele>671.055</ele>
        <time>2019-07-01T18:05:11.781Z</time>
      </trkpt>
      <trkpt lat="40.485805" lon="-3.518575">
        <ele>669.055</ele>
        <time>2019-07-01T18:05:12.781Z</time>
      </trkpt>
      <trkpt lat="40.485805" lon="-3.518575">
        <ele>669.055</ele>
        <time>2019-07-01T18:05:13.781Z</time>
      </trkpt>
      <trkpt lat="40.48557667" lon="-3.51831667">
        <ele>667.055</ele>
        <time>2019-07-01T18:05:14.781Z</time>
      </trkpt>
      <trkpt lat="40.48557667" lon="-3.51831667">
        <ele>667.055</ele>
        <time>2019-07-01T18:05:15.781Z</time>
      </trkpt>
      <trkpt lat="40.48536" lon="-3.51804833">
        <ele>665.055</ele>
        <time>2019-07-01T18:05:16.781Z</time>
      </trkpt>
      <trkpt lat="40.48526" lon="-3.517905">
        <ele>665.055</ele>
        <time>2019-07-01T18:05:17.781Z</time>
      </trkpt>
      <trkpt lat="40.48526" lon="-3.517905">
        <ele>663.055</ele>
        <time>2019-07-01T18:05:18.781Z</time>
      </trkpt>
      <trkpt lat="40.48505333" lon="-3.51763167">
        <ele>663.055</ele>
        <time>2019-07-01T18:05:19.781Z</time>
      </trkpt>
      <trkpt lat="40.48505333" lon="-3.51763167">
        <ele>662.055</ele>
        <time>2019-07-01T18:05:20.781Z</time>
      </trkpt>
      <trkpt lat="40.48481833" lon="-3.51742333">
        <ele>662.055</ele>
        <time>2019-07-01T18:05:21.781Z</time>
      </trkpt>
      <trkpt lat="40.48468833" lon="-3.51735">
        <ele>661.055</ele>
        <time>2019-07-01T18:05:22.781Z</time>
      </trkpt>
      <trkpt lat="40.48468833" lon="-3.51735">
        <ele>661.055</ele>
        <time>2019-07-01T18:05:23.781Z</time>
      </trkpt>
      <trkpt lat="40.48442833" lon="-3.51723833">
        <ele>660.055</ele>
        <time>2019-07-01T18:05:24.781Z</time>
      </trkpt>
      <trkpt lat="40.48442833" lon="-3.51723833">
        <ele>660.055</ele>
        <time>2019-07-01T18:05:25.781Z</time>
      </trkpt>
      <trkpt lat="40.48417" lon="-3.51714167">
        <ele>658.055</ele>
        <time>2019-07-01T18:05:26.781Z</time>
      </trkpt>
      <trkpt lat="40.48417" lon="-3.51714167">
        <ele>658.055</ele>
        <time>2019-07-01T18:05:27.781Z</time>
      </trkpt>
      <trkpt lat="40.48391" lon="-3.51708167">
        <ele>657.055</ele>
        <time>2019-07-01T18:05:28.781Z</time>
      </trkpt>
      <trkpt lat="40.48377667" lon="-3.51706167">
        <ele>657.055</ele>
        <time>2019-07-01T18:05:29.781Z</time>
      </trkpt>
      <trkpt lat="40.48364667" lon="-3.51702">
        <ele>656.055</ele>
        <time>2019-07-01T18:05:30.781Z</time>
      </trkpt>
      <trkpt lat="40.48364667" lon="-3.51702">
        <ele>656.055</ele>
        <time>2019-07-01T18:05:31.781Z</time>
      </trkpt>
      <trkpt lat="40.483405" lon="-3.51686667">
        <ele>655.055</ele>
        <time>2019-07-01T18:05:32.781Z</time>
      </trkpt>
      <trkpt lat="40.48328833" lon="-3.51677833">
        <ele>655.055</ele>
        <time>2019-07-01T18:05:33.781Z</time>
      </trkpt>
      <trkpt lat="40.48317" lon="-3.51668833">
        <ele>654.055</ele>
        <time>2019-07-01T18:05:34.781Z</time>
      </trkpt>
      <trkpt lat="40.48317" lon="-3.51668833">
        <ele>654.055</ele>
        <time>2019-07-01T18:05:35.781Z</time>
      </trkpt>
      <trkpt lat="40.48293333" lon="-3.51651167">
        <ele>653.055</ele>
        <time>2019-07-01T18:05:36.781Z</time>
      </trkpt>
      <trkpt lat="40.48293333" lon="-3.51651167">
        <ele>653.055</ele>
        <time>2019-07-01T18:05:37.781Z</time>
      </trkpt>
      <trkpt lat="40.48268667" lon="-3.51637833">
        <ele>653.055</ele>
        <time>2019-07-01T18:05:38.781Z</time>
      </trkpt>
      <trkpt lat="40.48256333" lon="-3.51633167">
        <ele>653.055</ele>
        <time>2019-07-01T18:05:39.781Z</time>
      </trkpt>
      <trkpt lat="40.48244167" lon="-3.516285">
        <ele>652.055</ele>
        <time>2019-07-01T18:05:40.781Z</time>
      </trkpt>
      <trkpt lat="40.48244167" lon="-3.516285">
        <ele>652.055</ele>
        <time>2019-07-01T18:05:41.781Z</time>
      </trkpt>
      <trkpt lat="40.48221" lon="-3.51619333">
        <ele>652.055</ele>
        <time>2019-07-01T18:05:42.781Z</time>
      </trkpt>
      <trkpt lat="40.48210167" lon="-3.51614833">
        <ele>652.055</ele>
        <time>2019-07-01T18:05:43.781Z</time>
      </trkpt>
      <trkpt lat="40.48210167" lon="-3.51614833">
        <ele>652.055</ele>
        <time>2019-07-01T18:05:44.781Z</time>
      </trkpt>
      <trkpt lat="40.4819" lon="-3.51605833">
        <ele>652.055</ele>
        <time>2019-07-01T18:05:45.781Z</time>
      </trkpt>
      <trkpt lat="40.4819" lon="-3.51605833">
        <ele>651.055</ele>
        <time>2019-07-01T18:05:46.781Z</time>
      </trkpt>
      <trkpt lat="40.48171333" lon="-3.51595833">
        <ele>651.055</ele>
        <time>2019-07-01T18:05:47.781Z</time>
      </trkpt>
      <trkpt lat="40.48171333" lon="-3.51595833">
        <ele>651.055</ele>
        <time>2019-07-01T18:05:48.781Z</time>
      </trkpt>
      <trkpt lat="40.48153333" lon="-3.515845">
        <ele>651.055</ele>
        <time>2019-07-01T18:05:49.781Z</time>
      </trkpt>
      <trkpt lat="40.48144667" lon="-3.515795">
        <ele>651.055</ele>
        <time>2019-07-01T18:05:50.781Z</time>
      </trkpt>
      <trkpt lat="40.48144667" lon="-3.515795">
        <ele>651.055</ele>
        <time>2019-07-01T18:05:51.781Z</time>
      </trkpt>
      <trkpt lat="40.48127" lon="-3.515705">
        <ele>651.055</ele>
        <time>2019-07-01T18:05:52.781Z</time>
      </trkpt>
      <trkpt lat="40.48127" lon="-3.515705">
        <ele>651.055</ele>
        <time>2019-07-01T18:05:53.781Z</time>
      </trkpt>
      <trkpt lat="40.4811" lon="-3.51561833">
        <ele>651.055</ele>
        <time>2019-07-01T18:05:54.781Z</time>
      </trkpt>
      <trkpt lat="40.4811" lon="-3.51561833">
        <ele>651.055</ele>
        <time>2019-07-01T18:05:55.781Z</time>
      </trkpt>
      <trkpt lat="40.48094" lon="-3.515535">
        <ele>650.055</ele>
        <time>2019-07-01T18:05:56.781Z</time>
      </trkpt>
      <trkpt lat="40.48094" lon="-3.515535">
        <ele>650.055</ele>
        <time>2019-07-01T18:05:57.781Z</time>
      </trkpt>
      <trkpt lat="40.48079333" lon="-3.51548333">
        <ele>650.055</ele>
        <time>2019-07-01T18:05:58.781Z</time>
      </trkpt>
      <trkpt lat="40.48079333" lon="-3.51548333">
        <ele>650.055</ele>
        <time>2019-07-01T18:05:59.781Z</time>
      </trkpt>
      <trkpt lat="40.48064667" lon="-3.51545">
        <ele>650.055</ele>
        <time>2019-07-01T18:06:00.781Z</time>
      </trkpt>
      <trkpt lat="40.48064667" lon="-3.51545">
        <ele>650.055</ele>
        <time>2019-07-01T18:06:01.781Z</time>
      </trkpt>
      <trkpt lat="40.48049167" lon="-3.515425">
        <ele>650.055</ele>
        <time>2019-07-01T18:06:02.781Z</time>
      </trkpt>
      <trkpt lat="40.48049167" lon="-3.515425">
        <ele>650.055</ele>
        <time>2019-07-01T18:06:03.781Z</time>
      </trkpt>
      <trkpt lat="40.48034167" lon="-3.51539667">
        <ele>651.055</ele>
        <time>2019-07-01T18:06:04.781Z</time>
      </trkpt>
      <trkpt lat="40.480265" lon="-3.51538167">
        <ele>651.055</ele>
        <time>2019-07-01T18:06:05.781Z</time>
      </trkpt>
      <trkpt lat="40.480195" lon="-3.51536667">
        <ele>652.055</ele>
        <time>2019-07-01T18:06:06.781Z</time>
      </trkpt>
      <trkpt lat="40.480195" lon="-3.51536667">
        <ele>652.055</ele>
        <time>2019-07-01T18:06:07.781Z</time>
      </trkpt>
      <trkpt lat="40.48007167" lon="-3.515335">
        <ele>653.055</ele>
        <time>2019-07-01T18:06:08.781Z</time>
      </trkpt>
      <trkpt lat="40.48007167" lon="-3.515335">
        <ele>653.055</ele>
        <time>2019-07-01T18:06:09.781Z</time>
      </trkpt>
      <trkpt lat="40.47995667" lon="-3.51530667">
        <ele>654.055</ele>
        <time>2019-07-01T18:06:10.781Z</time>
      </trkpt>
      <trkpt lat="40.47995667" lon="-3.51530667">
        <ele>654.055</ele>
        <time>2019-07-01T18:06:11.781Z</time>
      </trkpt>
      <trkpt lat="40.479855" lon="-3.51529167">
        <ele>655.055</ele>
        <time>2019-07-01T18:06:12.781Z</time>
      </trkpt>
      <trkpt lat="40.479855" lon="-3.51529167">
        <ele>655.055</ele>
        <time>2019-07-01T18:06:13.781Z</time>
      </trkpt>
      <trkpt lat="40.479765" lon="-3.51527333">
        <ele>655.055</ele>
        <time>2019-07-01T18:06:14.781Z</time>
      </trkpt>
      <trkpt lat="40.47972167" lon="-3.51526333">
        <ele>655.055</ele>
        <time>2019-07-01T18:06:15.781Z</time>
      </trkpt>
      <trkpt lat="40.47968" lon="-3.51524833">
        <ele>656.055</ele>
        <time>2019-07-01T18:06:16.781Z</time>
      </trkpt>
      <trkpt lat="40.47968" lon="-3.51524833">
        <ele>656.055</ele>
        <time>2019-07-01T18:06:17.781Z</time>
      </trkpt>
      <trkpt lat="40.47959667" lon="-3.51521667">
        <ele>656.055</ele>
        <time>2019-07-01T18:06:18.781Z</time>
      </trkpt>
      <trkpt lat="40.47959667" lon="-3.51521667">
        <ele>656.055</ele>
        <time>2019-07-01T18:06:19.781Z</time>
      </trkpt>
      <trkpt lat="40.47952167" lon="-3.51518667">
        <ele>656.055</ele>
        <time>2019-07-01T18:06:20.781Z</time>
      </trkpt>
      <trkpt lat="40.47952167" lon="-3.51518667">
        <ele>656.055</ele>
        <time>2019-07-01T18:06:21.781Z</time>
      </trkpt>
      <trkpt lat="40.47944333" lon="-3.51515167">
        <ele>656.055</ele>
        <time>2019-07-01T18:06:22.781Z</time>
      </trkpt>
      <trkpt lat="40.47944333" lon="-3.51515167">
        <ele>656.055</ele>
        <time>2019-07-01T18:06:23.781Z</time>
      </trkpt>
      <trkpt lat="40.47936" lon="-3.51509833">
        <ele>656.055</ele>
        <time>2019-07-01T18:06:24.781Z</time>
      </trkpt>
      <trkpt lat="40.47936" lon="-3.51509833">
        <ele>656.055</ele>
        <time>2019-07-01T18:06:25.781Z</time>
      </trkpt>
      <trkpt lat="40.47925833" lon="-3.51504333">
        <ele>656.055</ele>
        <time>2019-07-01T18:06:26.781Z</time>
      </trkpt>
      <trkpt lat="40.47925833" lon="-3.51504333">
        <ele>656.055</ele>
        <time>2019-07-01T18:06:27.781Z</time>
      </trkpt>
      <trkpt lat="40.479145" lon="-3.51498">
        <ele>656.055</ele>
        <time>2019-07-01T18:06:28.781Z</time>
      </trkpt>
      <trkpt lat="40.479145" lon="-3.51498">
        <ele>656.055</ele>
        <time>2019-07-01T18:06:29.781Z</time>
      </trkpt>
      <trkpt lat="40.47901833" lon="-3.51491333">
        <ele>656.055</ele>
        <time>2019-07-01T18:06:30.781Z</time>
      </trkpt>
      <trkpt lat="40.47895" lon="-3.51487833">
        <ele>656.055</ele>
        <time>2019-07-01T18:06:31.781Z</time>
      </trkpt>
      <trkpt lat="40.47895" lon="-3.51487833">
        <ele>656.055</ele>
        <time>2019-07-01T18:06:32.781Z</time>
      </trkpt>
      <trkpt lat="40.4788" lon="-3.51481333">
        <ele>655.055</ele>
        <time>2019-07-01T18:06:33.781Z</time>
      </trkpt>
      <trkpt lat="40.4788" lon="-3.51481333">
        <ele>655.055</ele>
        <time>2019-07-01T18:06:34.781Z</time>
      </trkpt>
      <trkpt lat="40.47863167" lon="-3.514735">
        <ele>655.055</ele>
        <time>2019-07-01T18:06:35.781Z</time>
      </trkpt>
      <trkpt lat="40.47863167" lon="-3.514735">
        <ele>655.055</ele>
        <time>2019-07-01T18:06:36.781Z</time>
      </trkpt>
      <trkpt lat="40.47844167" lon="-3.51472667">
        <ele>653.055</ele>
        <time>2019-07-01T18:06:37.781Z</time>
      </trkpt>
      <trkpt lat="40.47844167" lon="-3.51472667">
        <ele>653.055</ele>
        <time>2019-07-01T18:06:38.781Z</time>
      </trkpt>
      <trkpt lat="40.47827167" lon="-3.51478833">
        <ele>652.055</ele>
        <time>2019-07-01T18:06:39.781Z</time>
      </trkpt>
      <trkpt lat="40.478185" lon="-3.51479667">
        <ele>652.055</ele>
        <time>2019-07-01T18:06:40.781Z</time>
      </trkpt>
      <trkpt lat="40.478185" lon="-3.51479667">
        <ele>652.055</ele>
        <time>2019-07-01T18:06:41.781Z</time>
      </trkpt>
      <trkpt lat="40.47800833" lon="-3.51483">
        <ele>652.055</ele>
        <time>2019-07-01T18:06:42.781Z</time>
      </trkpt>
      <trkpt lat="40.47793" lon="-3.51488667">
        <ele>651.055</ele>
        <time>2019-07-01T18:06:43.781Z</time>
      </trkpt>
      <trkpt lat="40.47793" lon="-3.51488667">
        <ele>651.055</ele>
        <time>2019-07-01T18:06:44.781Z</time>
      </trkpt>
      <trkpt lat="40.47781833" lon="-3.51503">
        <ele>651.055</ele>
        <time>2019-07-01T18:06:45.781Z</time>
      </trkpt>
      <trkpt lat="40.47781833" lon="-3.51503">
        <ele>651.055</ele>
        <time>2019-07-01T18:06:46.781Z</time>
      </trkpt>
      <trkpt lat="40.47774833" lon="-3.51515667">
        <ele>651.055</ele>
        <time>2019-07-01T18:06:47.781Z</time>
      </trkpt>
      <trkpt lat="40.47774833" lon="-3.51515667">
        <ele>651.055</ele>
        <time>2019-07-01T18:06:48.781Z</time>
      </trkpt>
      <trkpt lat="40.47768" lon="-3.51526833">
        <ele>652.055</ele>
        <time>2019-07-01T18:06:49.781Z</time>
      </trkpt>
      <trkpt lat="40.47768" lon="-3.51526833">
        <ele>652.055</ele>
        <time>2019-07-01T18:06:50.781Z</time>
      </trkpt>
      <trkpt lat="40.477615" lon="-3.51537833">
        <ele>653.055</ele>
        <time>2019-07-01T18:06:51.781Z</time>
      </trkpt>
      <trkpt lat="40.477615" lon="-3.51537833">
        <ele>653.055</ele>
        <time>2019-07-01T18:06:52.781Z</time>
      </trkpt>
      <trkpt lat="40.477545" lon="-3.51548167">
        <ele>654.055</ele>
        <time>2019-07-01T18:06:53.781Z</time>
      </trkpt>
      <trkpt lat="40.47750667" lon="-3.51553667">
        <ele>654.055</ele>
        <time>2019-07-01T18:06:54.781Z</time>
      </trkpt>
      <trkpt lat="40.47746667" lon="-3.51559167">
        <ele>655.055</ele>
        <time>2019-07-01T18:06:55.781Z</time>
      </trkpt>
      <trkpt lat="40.47746667" lon="-3.51559167">
        <ele>655.055</ele>
        <time>2019-07-01T18:06:56.781Z</time>
      </trkpt>
      <trkpt lat="40.47739" lon="-3.51571667">
        <ele>655.055</ele>
        <time>2019-07-01T18:06:57.781Z</time>
      </trkpt>
      <trkpt lat="40.47739" lon="-3.51571667">
        <ele>655.055</ele>
        <time>2019-07-01T18:06:58.781Z</time>
      </trkpt>
      <trkpt lat="40.47731" lon="-3.51585167">
        <ele>655.055</ele>
        <time>2019-07-01T18:06:59.781Z</time>
      </trkpt>
      <trkpt lat="40.477265" lon="-3.51592167">
        <ele>656.055</ele>
        <time>2019-07-01T18:07:00.781Z</time>
      </trkpt>
      <trkpt lat="40.477265" lon="-3.51592167">
        <ele>656.055</ele>
        <time>2019-07-01T18:07:01.781Z</time>
      </trkpt>
      <trkpt lat="40.47716833" lon="-3.51607333">
        <ele>656.055</ele>
        <time>2019-07-01T18:07:02.781Z</time>
      </trkpt>
      <trkpt lat="40.47711833" lon="-3.51615167">
        <ele>656.055</ele>
        <time>2019-07-01T18:07:03.781Z</time>
      </trkpt>
      <trkpt lat="40.47706333" lon="-3.51623333">
        <ele>656.055</ele>
        <time>2019-07-01T18:07:04.781Z</time>
      </trkpt>
      <trkpt lat="40.47706333" lon="-3.51623333">
        <ele>656.055</ele>
        <time>2019-07-01T18:07:05.781Z</time>
      </trkpt>
      <trkpt lat="40.47694333" lon="-3.51639333">
        <ele>656.055</ele>
        <time>2019-07-01T18:07:06.781Z</time>
      </trkpt>
      <trkpt lat="40.47694333" lon="-3.51639333">
        <ele>655.055</ele>
        <time>2019-07-01T18:07:07.781Z</time>
      </trkpt>
      <trkpt lat="40.47679667" lon="-3.51654333">
        <ele>655.055</ele>
        <time>2019-07-01T18:07:08.781Z</time>
      </trkpt>
      <trkpt lat="40.47671333" lon="-3.51661167">
        <ele>654.055</ele>
        <time>2019-07-01T18:07:09.781Z</time>
      </trkpt>
      <trkpt lat="40.47662167" lon="-3.51667">
        <ele>654.055</ele>
        <time>2019-07-01T18:07:10.781Z</time>
      </trkpt>
      <trkpt lat="40.47662167" lon="-3.51667">
        <ele>653.055</ele>
        <time>2019-07-01T18:07:11.781Z</time>
      </trkpt>
      <trkpt lat="40.47643167" lon="-3.516755">
        <ele>653.055</ele>
        <time>2019-07-01T18:07:12.781Z</time>
      </trkpt>
      <trkpt lat="40.47643167" lon="-3.516755">
        <ele>653.055</ele>
        <time>2019-07-01T18:07:13.781Z</time>
      </trkpt>
      <trkpt lat="40.47624333" lon="-3.51680333">
        <ele>653.055</ele>
        <time>2019-07-01T18:07:14.781Z</time>
      </trkpt>
      <trkpt lat="40.47624333" lon="-3.51680333">
        <ele>652.055</ele>
        <time>2019-07-01T18:07:15.781Z</time>
      </trkpt>
      <trkpt lat="40.47606667" lon="-3.51682">
        <ele>652.055</ele>
        <time>2019-07-01T18:07:16.781Z</time>
      </trkpt>
      <trkpt lat="40.47598167" lon="-3.516815">
        <ele>652.055</ele>
        <time>2019-07-01T18:07:17.781Z</time>
      </trkpt>
      <trkpt lat="40.47589833" lon="-3.516805">
        <ele>652.055</ele>
        <time>2019-07-01T18:07:18.781Z</time>
      </trkpt>
      <trkpt lat="40.47589833" lon="-3.516805">
        <ele>652.055</ele>
        <time>2019-07-01T18:07:19.781Z</time>
      </trkpt>
      <trkpt lat="40.47573833" lon="-3.51676833">
        <ele>652.055</ele>
        <time>2019-07-01T18:07:20.781Z</time>
      </trkpt>
      <trkpt lat="40.47573833" lon="-3.51676833">
        <ele>652.055</ele>
        <time>2019-07-01T18:07:21.781Z</time>
      </trkpt>
      <trkpt lat="40.47559" lon="-3.51671">
        <ele>652.055</ele>
        <time>2019-07-01T18:07:22.781Z</time>
      </trkpt>
      <trkpt lat="40.47559" lon="-3.51671">
        <ele>652.055</ele>
        <time>2019-07-01T18:07:23.781Z</time>
      </trkpt>
      <trkpt lat="40.47542667" lon="-3.516655">
        <ele>652.055</ele>
        <time>2019-07-01T18:07:24.781Z</time>
      </trkpt>
      <trkpt lat="40.47542667" lon="-3.516655">
        <ele>652.055</ele>
        <time>2019-07-01T18:07:25.781Z</time>
      </trkpt>
      <trkpt lat="40.475245" lon="-3.51659667">
        <ele>652.055</ele>
        <time>2019-07-01T18:07:26.781Z</time>
      </trkpt>
      <trkpt lat="40.47515167" lon="-3.51656333">
        <ele>651.055</ele>
        <time>2019-07-01T18:07:27.781Z</time>
      </trkpt>
      <trkpt lat="40.47505833" lon="-3.51653333">
        <ele>651.055</ele>
        <time>2019-07-01T18:07:28.781Z</time>
      </trkpt>
      <trkpt lat="40.47505833" lon="-3.51653333">
        <ele>651.055</ele>
        <time>2019-07-01T18:07:29.781Z</time>
      </trkpt>
      <trkpt lat="40.47487833" lon="-3.51646167">
        <ele>651.055</ele>
        <time>2019-07-01T18:07:30.781Z</time>
      </trkpt>
      <trkpt lat="40.47487833" lon="-3.51646167">
        <ele>651.055</ele>
        <time>2019-07-01T18:07:31.781Z</time>
      </trkpt>
      <trkpt lat="40.47471667" lon="-3.51637167">
        <ele>651.055</ele>
        <time>2019-07-01T18:07:32.781Z</time>
      </trkpt>
      <trkpt lat="40.47465" lon="-3.51631167">
        <ele>651.055</ele>
        <time>2019-07-01T18:07:33.781Z</time>
      </trkpt>
      <trkpt lat="40.47465" lon="-3.51631167">
        <ele>651.055</ele>
        <time>2019-07-01T18:07:34.781Z</time>
      </trkpt>
      <trkpt lat="40.474535" lon="-3.51617833">
        <ele>651.055</ele>
        <time>2019-07-01T18:07:35.781Z</time>
      </trkpt>
      <trkpt lat="40.47448667" lon="-3.51610667">
        <ele>651.055</ele>
        <time>2019-07-01T18:07:36.781Z</time>
      </trkpt>
      <trkpt lat="40.47448667" lon="-3.51610667">
        <ele>652.055</ele>
        <time>2019-07-01T18:07:37.781Z</time>
      </trkpt>
      <trkpt lat="40.47441833" lon="-3.51594833">
        <ele>652.055</ele>
        <time>2019-07-01T18:07:38.781Z</time>
      </trkpt>
      <trkpt lat="40.47439833" lon="-3.51586167">
        <ele>652.055</ele>
        <time>2019-07-01T18:07:39.781Z</time>
      </trkpt>
      <trkpt lat="40.47438333" lon="-3.51577">
        <ele>652.055</ele>
        <time>2019-07-01T18:07:40.781Z</time>
      </trkpt>
      <trkpt lat="40.47438333" lon="-3.51577">
        <ele>653.055</ele>
        <time>2019-07-01T18:07:41.781Z</time>
      </trkpt>
      <trkpt lat="40.47436333" lon="-3.51557833">
        <ele>653.055</ele>
        <time>2019-07-01T18:07:42.781Z</time>
      </trkpt>
      <trkpt lat="40.47436333" lon="-3.51557833">
        <ele>653.055</ele>
        <time>2019-07-01T18:07:43.781Z</time>
      </trkpt>
      <trkpt lat="40.47435333" lon="-3.51537833">
        <ele>653.055</ele>
        <time>2019-07-01T18:07:44.781Z</time>
      </trkpt>
      <trkpt lat="40.47435333" lon="-3.51537833">
        <ele>653.055</ele>
        <time>2019-07-01T18:07:45.781Z</time>
      </trkpt>
      <trkpt lat="40.47433833" lon="-3.515185">
        <ele>653.055</ele>
        <time>2019-07-01T18:07:46.781Z</time>
      </trkpt>
      <trkpt lat="40.47433833" lon="-3.515185">
        <ele>653.055</ele>
        <time>2019-07-01T18:07:47.781Z</time>
      </trkpt>
      <trkpt lat="40.47430833" lon="-3.51499667">
        <ele>653.055</ele>
        <time>2019-07-01T18:07:48.781Z</time>
      </trkpt>
      <trkpt lat="40.47430833" lon="-3.51499667">
        <ele>653.055</ele>
        <time>2019-07-01T18:07:49.781Z</time>
      </trkpt>
      <trkpt lat="40.474255" lon="-3.51481333">
        <ele>653.055</ele>
        <time>2019-07-01T18:07:50.781Z</time>
      </trkpt>
      <trkpt lat="40.474255" lon="-3.51481333">
        <ele>653.055</ele>
        <time>2019-07-01T18:07:51.781Z</time>
      </trkpt>
      <trkpt lat="40.47419667" lon="-3.51464">
        <ele>653.055</ele>
        <time>2019-07-01T18:07:52.781Z</time>
      </trkpt>
      <trkpt lat="40.47419667" lon="-3.51464">
        <ele>653.055</ele>
        <time>2019-07-01T18:07:53.781Z</time>
      </trkpt>
      <trkpt lat="40.47411167" lon="-3.51449667">
        <ele>653.055</ele>
        <time>2019-07-01T18:07:54.781Z</time>
      </trkpt>
      <trkpt lat="40.47411167" lon="-3.51449667">
        <ele>653.055</ele>
        <time>2019-07-01T18:07:55.781Z</time>
      </trkpt>
      <trkpt lat="40.47400667" lon="-3.514375">
        <ele>653.055</ele>
        <time>2019-07-01T18:07:56.781Z</time>
      </trkpt>
      <trkpt lat="40.47395333" lon="-3.51431833">
        <ele>653.055</ele>
        <time>2019-07-01T18:07:57.781Z</time>
      </trkpt>
      <trkpt lat="40.47395333" lon="-3.51431833">
        <ele>653.055</ele>
        <time>2019-07-01T18:07:58.781Z</time>
      </trkpt>
      <trkpt lat="40.47383667" lon="-3.51421667">
        <ele>653.055</ele>
        <time>2019-07-01T18:07:59.781Z</time>
      </trkpt>
      <trkpt lat="40.473775" lon="-3.51417667">
        <ele>653.055</ele>
        <time>2019-07-01T18:08:00.781Z</time>
      </trkpt>
      <trkpt lat="40.473775" lon="-3.51417667">
        <ele>653.055</ele>
        <time>2019-07-01T18:08:01.781Z</time>
      </trkpt>
      <trkpt lat="40.473635" lon="-3.51411">
        <ele>653.055</ele>
        <time>2019-07-01T18:08:02.781Z</time>
      </trkpt>
      <trkpt lat="40.47355833" lon="-3.514085">
        <ele>653.055</ele>
        <time>2019-07-01T18:08:03.781Z</time>
      </trkpt>
      <trkpt lat="40.47355833" lon="-3.514085">
        <ele>653.055</ele>
        <time>2019-07-01T18:08:04.781Z</time>
      </trkpt>
      <trkpt lat="40.47339333" lon="-3.51405833">
        <ele>653.055</ele>
        <time>2019-07-01T18:08:05.781Z</time>
      </trkpt>
      <trkpt lat="40.473305" lon="-3.51405333">
        <ele>653.055</ele>
        <time>2019-07-01T18:08:06.781Z</time>
      </trkpt>
      <trkpt lat="40.473305" lon="-3.51405333">
        <ele>653.055</ele>
        <time>2019-07-01T18:08:07.781Z</time>
      </trkpt>
      <trkpt lat="40.47311333" lon="-3.51405167">
        <ele>651.055</ele>
        <time>2019-07-01T18:08:08.781Z</time>
      </trkpt>
      <trkpt lat="40.47311333" lon="-3.51405167">
        <ele>651.055</ele>
        <time>2019-07-01T18:08:09.781Z</time>
      </trkpt>
      <trkpt lat="40.47291333" lon="-3.514055">
        <ele>650.055</ele>
        <time>2019-07-01T18:08:10.781Z</time>
      </trkpt>
      <trkpt lat="40.47291333" lon="-3.514055">
        <ele>650.055</ele>
        <time>2019-07-01T18:08:11.781Z</time>
      </trkpt>
      <trkpt lat="40.472705" lon="-3.514055">
        <ele>649.055</ele>
        <time>2019-07-01T18:08:12.781Z</time>
      </trkpt>
      <trkpt lat="40.472705" lon="-3.514055">
        <ele>649.055</ele>
        <time>2019-07-01T18:08:13.781Z</time>
      </trkpt>
      <trkpt lat="40.47249333" lon="-3.51405833">
        <ele>648.055</ele>
        <time>2019-07-01T18:08:14.781Z</time>
      </trkpt>
      <trkpt lat="40.47249333" lon="-3.51405833">
        <ele>648.055</ele>
        <time>2019-07-01T18:08:15.781Z</time>
      </trkpt>
      <trkpt lat="40.472285" lon="-3.51405833">
        <ele>647.055</ele>
        <time>2019-07-01T18:08:16.781Z</time>
      </trkpt>
      <trkpt lat="40.47218333" lon="-3.514055">
        <ele>647.055</ele>
        <time>2019-07-01T18:08:17.781Z</time>
      </trkpt>
      <trkpt lat="40.47208167" lon="-3.514055">
        <ele>646.055</ele>
        <time>2019-07-01T18:08:18.781Z</time>
      </trkpt>
      <trkpt lat="40.47208167" lon="-3.514055">
        <ele>646.055</ele>
        <time>2019-07-01T18:08:19.781Z</time>
      </trkpt>
      <trkpt lat="40.47188167" lon="-3.51405">
        <ele>646.055</ele>
        <time>2019-07-01T18:08:20.781Z</time>
      </trkpt>
      <trkpt lat="40.47178667" lon="-3.51405">
        <ele>646.055</ele>
        <time>2019-07-01T18:08:21.781Z</time>
      </trkpt>
      <trkpt lat="40.47169167" lon="-3.51405167">
        <ele>645.055</ele>
        <time>2019-07-01T18:08:22.781Z</time>
      </trkpt>
      <trkpt lat="40.47169167" lon="-3.51405167">
        <ele>645.055</ele>
        <time>2019-07-01T18:08:23.781Z</time>
      </trkpt>
      <trkpt lat="40.47151" lon="-3.51404833">
        <ele>645.055</ele>
        <time>2019-07-01T18:08:24.781Z</time>
      </trkpt>
      <trkpt lat="40.47142167" lon="-3.51404333">
        <ele>645.055</ele>
        <time>2019-07-01T18:08:25.781Z</time>
      </trkpt>
      <trkpt lat="40.47142167" lon="-3.51404333">
        <ele>645.055</ele>
        <time>2019-07-01T18:08:26.781Z</time>
      </trkpt>
      <trkpt lat="40.47125" lon="-3.51403833">
        <ele>645.055</ele>
        <time>2019-07-01T18:08:27.781Z</time>
      </trkpt>
      <trkpt lat="40.47116333" lon="-3.514035">
        <ele>644.055</ele>
        <time>2019-07-01T18:08:28.781Z</time>
      </trkpt>
      <trkpt lat="40.47116333" lon="-3.514035">
        <ele>644.055</ele>
        <time>2019-07-01T18:08:29.781Z</time>
      </trkpt>
      <trkpt lat="40.47098667" lon="-3.51403833">
        <ele>644.055</ele>
        <time>2019-07-01T18:08:30.781Z</time>
      </trkpt>
      <trkpt lat="40.47098667" lon="-3.51403833">
        <ele>644.055</ele>
        <time>2019-07-01T18:08:31.781Z</time>
      </trkpt>
      <trkpt lat="40.47079667" lon="-3.514045">
        <ele>642.055</ele>
        <time>2019-07-01T18:08:32.781Z</time>
      </trkpt>
      <trkpt lat="40.47079667" lon="-3.514045">
        <ele>642.055</ele>
        <time>2019-07-01T18:08:33.781Z</time>
      </trkpt>
      <trkpt lat="40.47059333" lon="-3.51404167">
        <ele>641.055</ele>
        <time>2019-07-01T18:08:34.781Z</time>
      </trkpt>
      <trkpt lat="40.47059333" lon="-3.51404167">
        <ele>641.055</ele>
        <time>2019-07-01T18:08:35.781Z</time>
      </trkpt>
      <trkpt lat="40.47037833" lon="-3.51402667">
        <ele>640.055</ele>
        <time>2019-07-01T18:08:36.781Z</time>
      </trkpt>
      <trkpt lat="40.470265" lon="-3.51401167">
        <ele>640.055</ele>
        <time>2019-07-01T18:08:37.781Z</time>
      </trkpt>
      <trkpt lat="40.470265" lon="-3.51401167">
        <ele>638.055</ele>
        <time>2019-07-01T18:08:38.781Z</time>
      </trkpt>
      <trkpt lat="40.47003333" lon="-3.51392">
        <ele>638.055</ele>
        <time>2019-07-01T18:08:39.781Z</time>
      </trkpt>
      <trkpt lat="40.47003333" lon="-3.51392">
        <ele>635.055</ele>
        <time>2019-07-01T18:08:40.781Z</time>
      </trkpt>
      <trkpt lat="40.46982333" lon="-3.51374">
        <ele>635.055</ele>
        <time>2019-07-01T18:08:41.781Z</time>
      </trkpt>
      <trkpt lat="40.46982333" lon="-3.51374">
        <ele>633.055</ele>
        <time>2019-07-01T18:08:42.781Z</time>
      </trkpt>
      <trkpt lat="40.46966" lon="-3.51346833">
        <ele>633.055</ele>
        <time>2019-07-01T18:08:43.781Z</time>
      </trkpt>
      <trkpt lat="40.46966" lon="-3.51346833">
        <ele>631.055</ele>
        <time>2019-07-01T18:08:44.781Z</time>
      </trkpt>
      <trkpt lat="40.46952333" lon="-3.513155">
        <ele>631.055</ele>
        <time>2019-07-01T18:08:45.781Z</time>
      </trkpt>
      <trkpt lat="40.46952333" lon="-3.513155">
        <ele>629.055</ele>
        <time>2019-07-01T18:08:46.781Z</time>
      </trkpt>
      <trkpt lat="40.469415" lon="-3.51281833">
        <ele>629.055</ele>
        <time>2019-07-01T18:08:47.781Z</time>
      </trkpt>
      <trkpt lat="40.46938667" lon="-3.51263667">
        <ele>627.055</ele>
        <time>2019-07-01T18:08:48.781Z</time>
      </trkpt>
      <trkpt lat="40.46938667" lon="-3.51263667">
        <ele>627.055</ele>
        <time>2019-07-01T18:08:49.781Z</time>
      </trkpt>
      <trkpt lat="40.46937167" lon="-3.51228">
        <ele>627.055</ele>
        <time>2019-07-01T18:08:50.781Z</time>
      </trkpt>
      <trkpt lat="40.46937667" lon="-3.51212167">
        <ele>625.055</ele>
        <time>2019-07-01T18:08:51.781Z</time>
      </trkpt>
      <trkpt lat="40.46938333" lon="-3.51199">
        <ele>625.055</ele>
        <time>2019-07-01T18:08:52.781Z</time>
      </trkpt>
      <trkpt lat="40.46938333" lon="-3.51199">
        <ele>623.055</ele>
        <time>2019-07-01T18:08:53.781Z</time>
      </trkpt>
      <trkpt lat="40.46937667" lon="-3.51179667">
        <ele>623.055</ele>
        <time>2019-07-01T18:08:54.781Z</time>
      </trkpt>
      <trkpt lat="40.46937667" lon="-3.51179667">
        <ele>622.055</ele>
        <time>2019-07-01T18:08:55.781Z</time>
      </trkpt>
      <trkpt lat="40.46931667" lon="-3.51163833">
        <ele>622.055</ele>
        <time>2019-07-01T18:08:56.781Z</time>
      </trkpt>
      <trkpt lat="40.46926" lon="-3.51157667">
        <ele>622.055</ele>
        <time>2019-07-01T18:08:57.781Z</time>
      </trkpt>
      <trkpt lat="40.46926" lon="-3.51157667">
        <ele>622.055</ele>
        <time>2019-07-01T18:08:58.781Z</time>
      </trkpt>
      <trkpt lat="40.46916667" lon="-3.51142">
        <ele>622.055</ele>
        <time>2019-07-01T18:08:59.781Z</time>
      </trkpt>
      <trkpt lat="40.46914667" lon="-3.511325">
        <ele>622.055</ele>
        <time>2019-07-01T18:09:00.781Z</time>
      </trkpt>
      <trkpt lat="40.46914667" lon="-3.511325">
        <ele>621.055</ele>
        <time>2019-07-01T18:09:01.781Z</time>
      </trkpt>
      <trkpt lat="40.46914667" lon="-3.51112833">
        <ele>621.055</ele>
        <time>2019-07-01T18:09:02.781Z</time>
      </trkpt>
      <trkpt lat="40.46914667" lon="-3.51112833">
        <ele>621.055</ele>
        <time>2019-07-01T18:09:03.781Z</time>
      </trkpt>
      <trkpt lat="40.469245" lon="-3.51096333">
        <ele>621.055</ele>
        <time>2019-07-01T18:09:04.781Z</time>
      </trkpt>
      <trkpt lat="40.469245" lon="-3.51096333">
        <ele>621.055</ele>
        <time>2019-07-01T18:09:05.781Z</time>
      </trkpt>
      <trkpt lat="40.46937833" lon="-3.51086833">
        <ele>621.055</ele>
        <time>2019-07-01T18:09:06.781Z</time>
      </trkpt>
      <trkpt lat="40.46944167" lon="-3.51083333">
        <ele>621.055</ele>
        <time>2019-07-01T18:09:07.781Z</time>
      </trkpt>
      <trkpt lat="40.46944167" lon="-3.51083333">
        <ele>621.055</ele>
        <time>2019-07-01T18:09:08.781Z</time>
      </trkpt>
      <trkpt lat="40.46954833" lon="-3.510735">
        <ele>621.055</ele>
        <time>2019-07-01T18:09:09.781Z</time>
      </trkpt>
      <trkpt lat="40.46957833" lon="-3.51066667">
        <ele>621.055</ele>
        <time>2019-07-01T18:09:10.781Z</time>
      </trkpt>
      <trkpt lat="40.46957833" lon="-3.51066667">
        <ele>621.055</ele>
        <time>2019-07-01T18:09:11.781Z</time>
      </trkpt>
      <trkpt lat="40.46961167" lon="-3.510515">
        <ele>621.055</ele>
        <time>2019-07-01T18:09:12.781Z</time>
      </trkpt>
      <trkpt lat="40.46961167" lon="-3.510515">
        <ele>621.055</ele>
        <time>2019-07-01T18:09:13.781Z</time>
      </trkpt>
      <trkpt lat="40.46964167" lon="-3.510355">
        <ele>621.055</ele>
        <time>2019-07-01T18:09:14.781Z</time>
      </trkpt>
      <trkpt lat="40.46964167" lon="-3.510355">
        <ele>621.055</ele>
        <time>2019-07-01T18:09:15.781Z</time>
      </trkpt>
      <trkpt lat="40.469675" lon="-3.51018667">
        <ele>621.055</ele>
        <time>2019-07-01T18:09:16.781Z</time>
      </trkpt>
      <trkpt lat="40.469675" lon="-3.51018667">
        <ele>621.055</ele>
        <time>2019-07-01T18:09:17.781Z</time>
      </trkpt>
      <trkpt lat="40.46971167" lon="-3.510025">
        <ele>621.055</ele>
        <time>2019-07-01T18:09:18.781Z</time>
      </trkpt>
      <trkpt lat="40.46971167" lon="-3.510025">
        <ele>621.055</ele>
        <time>2019-07-01T18:09:19.781Z</time>
      </trkpt>
      <trkpt lat="40.469745" lon="-3.50985333">
        <ele>621.055</ele>
        <time>2019-07-01T18:09:20.781Z</time>
      </trkpt>
      <trkpt lat="40.469745" lon="-3.50985333">
        <ele>621.055</ele>
        <time>2019-07-01T18:09:21.781Z</time>
      </trkpt>
      <trkpt lat="40.46977667" lon="-3.50968">
        <ele>621.055</ele>
        <time>2019-07-01T18:09:22.781Z</time>
      </trkpt>
      <trkpt lat="40.46977667" lon="-3.50968">
        <ele>621.055</ele>
        <time>2019-07-01T18:09:23.781Z</time>
      </trkpt>
      <trkpt lat="40.46980833" lon="-3.50950833">
        <ele>621.055</ele>
        <time>2019-07-01T18:09:24.781Z</time>
      </trkpt>
      <trkpt lat="40.46980833" lon="-3.50950833">
        <ele>621.055</ele>
        <time>2019-07-01T18:09:25.781Z</time>
      </trkpt>
      <trkpt lat="40.46984333" lon="-3.50933167">
        <ele>621.055</ele>
        <time>2019-07-01T18:09:26.781Z</time>
      </trkpt>
      <trkpt lat="40.46984333" lon="-3.50933167">
        <ele>621.055</ele>
        <time>2019-07-01T18:09:27.781Z</time>
      </trkpt>
      <trkpt lat="40.46987833" lon="-3.509155">
        <ele>621.055</ele>
        <time>2019-07-01T18:09:28.781Z</time>
      </trkpt>
      <trkpt lat="40.469895" lon="-3.509065">
        <ele>621.055</ele>
        <time>2019-07-01T18:09:29.781Z</time>
      </trkpt>
      <trkpt lat="40.469895" lon="-3.509065">
        <ele>621.055</ele>
        <time>2019-07-01T18:09:30.781Z</time>
      </trkpt>
      <trkpt lat="40.46993167" lon="-3.50888333">
        <ele>621.055</ele>
        <time>2019-07-01T18:09:31.781Z</time>
      </trkpt>
      <trkpt lat="40.46993167" lon="-3.50888333">
        <ele>621.055</ele>
        <time>2019-07-01T18:09:32.781Z</time>
      </trkpt>
      <trkpt lat="40.46997167" lon="-3.50870167">
        <ele>621.055</ele>
        <time>2019-07-01T18:09:33.781Z</time>
      </trkpt>
      <trkpt lat="40.46997167" lon="-3.50870167">
        <ele>621.055</ele>
        <time>2019-07-01T18:09:34.781Z</time>
      </trkpt>
      <trkpt lat="40.47001333" lon="-3.50851833">
        <ele>621.055</ele>
        <time>2019-07-01T18:09:35.781Z</time>
      </trkpt>
      <trkpt lat="40.47003667" lon="-3.50842833">
        <ele>621.055</ele>
        <time>2019-07-01T18:09:36.781Z</time>
      </trkpt>
      <trkpt lat="40.47003667" lon="-3.50842833">
        <ele>621.055</ele>
        <time>2019-07-01T18:09:37.781Z</time>
      </trkpt>
      <trkpt lat="40.47008833" lon="-3.50825333">
        <ele>621.055</ele>
        <time>2019-07-01T18:09:38.781Z</time>
      </trkpt>
      <trkpt lat="40.47008833" lon="-3.50825333">
        <ele>621.055</ele>
        <time>2019-07-01T18:09:39.781Z</time>
      </trkpt>
      <trkpt lat="40.470145" lon="-3.50808167">
        <ele>621.055</ele>
        <time>2019-07-01T18:09:40.781Z</time>
      </trkpt>
      <trkpt lat="40.470145" lon="-3.50808167">
        <ele>621.055</ele>
        <time>2019-07-01T18:09:41.781Z</time>
      </trkpt>
      <trkpt lat="40.47021" lon="-3.50791667">
        <ele>621.055</ele>
        <time>2019-07-01T18:09:42.781Z</time>
      </trkpt>
      <trkpt lat="40.47021" lon="-3.50791667">
        <ele>621.055</ele>
        <time>2019-07-01T18:09:43.781Z</time>
      </trkpt>
      <trkpt lat="40.47027667" lon="-3.50775">
        <ele>621.055</ele>
        <time>2019-07-01T18:09:44.781Z</time>
      </trkpt>
      <trkpt lat="40.47027667" lon="-3.50775">
        <ele>621.055</ele>
        <time>2019-07-01T18:09:45.781Z</time>
      </trkpt>
      <trkpt lat="40.47034667" lon="-3.50758667">
        <ele>621.055</ele>
        <time>2019-07-01T18:09:46.781Z</time>
      </trkpt>
      <trkpt lat="40.47034667" lon="-3.50758667">
        <ele>620.055</ele>
        <time>2019-07-01T18:09:47.781Z</time>
      </trkpt>
      <trkpt lat="40.470415" lon="-3.50742167">
        <ele>620.055</ele>
        <time>2019-07-01T18:09:48.781Z</time>
      </trkpt>
      <trkpt lat="40.470415" lon="-3.50742167">
        <ele>620.055</ele>
        <time>2019-07-01T18:09:49.781Z</time>
      </trkpt>
      <trkpt lat="40.470485" lon="-3.50725833">
        <ele>620.055</ele>
        <time>2019-07-01T18:09:50.781Z</time>
      </trkpt>
      <trkpt lat="40.470485" lon="-3.50725833">
        <ele>620.055</ele>
        <time>2019-07-01T18:09:51.781Z</time>
      </trkpt>
      <trkpt lat="40.47055833" lon="-3.5071">
        <ele>620.055</ele>
        <time>2019-07-01T18:09:52.781Z</time>
      </trkpt>
      <trkpt lat="40.47055833" lon="-3.5071">
        <ele>620.055</ele>
        <time>2019-07-01T18:09:53.781Z</time>
      </trkpt>
      <trkpt lat="40.47063833" lon="-3.50693667">
        <ele>620.055</ele>
        <time>2019-07-01T18:09:54.781Z</time>
      </trkpt>
      <trkpt lat="40.47063833" lon="-3.50693667">
        <ele>620.055</ele>
        <time>2019-07-01T18:09:55.781Z</time>
      </trkpt>
      <trkpt lat="40.470715" lon="-3.50676333">
        <ele>620.055</ele>
        <time>2019-07-01T18:09:56.781Z</time>
      </trkpt>
      <trkpt lat="40.47075333" lon="-3.50667">
        <ele>619.055</ele>
        <time>2019-07-01T18:09:57.781Z</time>
      </trkpt>
      <trkpt lat="40.47075333" lon="-3.50667">
        <ele>619.055</ele>
        <time>2019-07-01T18:09:58.781Z</time>
      </trkpt>
      <trkpt lat="40.47083333" lon="-3.50648167">
        <ele>619.055</ele>
        <time>2019-07-01T18:09:59.781Z</time>
      </trkpt>
      <trkpt lat="40.47083333" lon="-3.50648167">
        <ele>619.055</ele>
        <time>2019-07-01T18:10:00.781Z</time>
      </trkpt>
      <trkpt lat="40.47092" lon="-3.50627833">
        <ele>619.055</ele>
        <time>2019-07-01T18:10:01.781Z</time>
      </trkpt>
      <trkpt lat="40.47092" lon="-3.50627833">
        <ele>618.055</ele>
        <time>2019-07-01T18:10:02.781Z</time>
      </trkpt>
      <trkpt lat="40.471015" lon="-3.50606333">
        <ele>618.055</ele>
        <time>2019-07-01T18:10:03.781Z</time>
      </trkpt>
      <trkpt lat="40.47106333" lon="-3.50595">
        <ele>617.055</ele>
        <time>2019-07-01T18:10:04.781Z</time>
      </trkpt>
      <trkpt lat="40.47106333" lon="-3.50595">
        <ele>617.055</ele>
        <time>2019-07-01T18:10:05.781Z</time>
      </trkpt>
      <trkpt lat="40.47114833" lon="-3.50570833">
        <ele>616.055</ele>
        <time>2019-07-01T18:10:06.781Z</time>
      </trkpt>
      <trkpt lat="40.47114833" lon="-3.50570833">
        <ele>616.055</ele>
        <time>2019-07-01T18:10:07.781Z</time>
      </trkpt>
      <trkpt lat="40.47121333" lon="-3.50546">
        <ele>615.055</ele>
        <time>2019-07-01T18:10:08.781Z</time>
      </trkpt>
      <trkpt lat="40.47121333" lon="-3.50546">
        <ele>615.055</ele>
        <time>2019-07-01T18:10:09.781Z</time>
      </trkpt>
      <trkpt lat="40.47128833" lon="-3.50523833">
        <ele>615.055</ele>
        <time>2019-07-01T18:10:10.781Z</time>
      </trkpt>
      <trkpt lat="40.47128833" lon="-3.50523833">
        <ele>615.055</ele>
        <time>2019-07-01T18:10:11.781Z</time>
      </trkpt>
      <trkpt lat="40.471395" lon="-3.50510833">
        <ele>614.055</ele>
        <time>2019-07-01T18:10:12.781Z</time>
      </trkpt>
      <trkpt lat="40.471395" lon="-3.50510833">
        <ele>614.055</ele>
        <time>2019-07-01T18:10:13.781Z</time>
      </trkpt>
      <trkpt lat="40.47151" lon="-3.50511167">
        <ele>614.055</ele>
        <time>2019-07-01T18:10:14.781Z</time>
      </trkpt>
      <trkpt lat="40.47151" lon="-3.50511167">
        <ele>614.055</ele>
        <time>2019-07-01T18:10:15.781Z</time>
      </trkpt>
      <trkpt lat="40.47158833" lon="-3.50519333">
        <ele>613.055</ele>
        <time>2019-07-01T18:10:16.781Z</time>
      </trkpt>
      <trkpt lat="40.47161333" lon="-3.50524167">
        <ele>613.055</ele>
        <time>2019-07-01T18:10:17.781Z</time>
      </trkpt>
      <trkpt lat="40.47161333" lon="-3.50524167">
        <ele>613.055</ele>
        <time>2019-07-01T18:10:18.781Z</time>
      </trkpt>
      <trkpt lat="40.47165333" lon="-3.505345">
        <ele>613.055</ele>
        <time>2019-07-01T18:10:19.781Z</time>
      </trkpt>
      <trkpt lat="40.47165333" lon="-3.505345">
        <ele>613.055</ele>
        <time>2019-07-01T18:10:20.781Z</time>
      </trkpt>
      <trkpt lat="40.47169333" lon="-3.50546">
        <ele>613.055</ele>
        <time>2019-07-01T18:10:21.781Z</time>
      </trkpt>
      <trkpt lat="40.47171667" lon="-3.50551667">
        <ele>613.055</ele>
        <time>2019-07-01T18:10:22.781Z</time>
      </trkpt>
      <trkpt lat="40.47171667" lon="-3.50551667">
        <ele>613.055</ele>
        <time>2019-07-01T18:10:23.781Z</time>
      </trkpt>
      <trkpt lat="40.47175833" lon="-3.50563667">
        <ele>613.055</ele>
        <time>2019-07-01T18:10:24.781Z</time>
      </trkpt>
      <trkpt lat="40.47175833" lon="-3.50563667">
        <ele>613.055</ele>
        <time>2019-07-01T18:10:25.781Z</time>
      </trkpt>
      <trkpt lat="40.47180167" lon="-3.50575167">
        <ele>613.055</ele>
        <time>2019-07-01T18:10:26.781Z</time>
      </trkpt>
      <trkpt lat="40.47180167" lon="-3.50575167">
        <ele>613.055</ele>
        <time>2019-07-01T18:10:27.781Z</time>
      </trkpt>
      <trkpt lat="40.47184667" lon="-3.50586167">
        <ele>613.055</ele>
        <time>2019-07-01T18:10:28.781Z</time>
      </trkpt>
      <trkpt lat="40.47187" lon="-3.50591333">
        <ele>613.055</ele>
        <time>2019-07-01T18:10:29.781Z</time>
      </trkpt>
      <trkpt lat="40.47187" lon="-3.50591333">
        <ele>613.055</ele>
        <time>2019-07-01T18:10:30.781Z</time>
      </trkpt>
      <trkpt lat="40.47191333" lon="-3.50601667">
        <ele>613.055</ele>
        <time>2019-07-01T18:10:31.781Z</time>
      </trkpt>
      <trkpt lat="40.471935" lon="-3.50606833">
        <ele>613.055</ele>
        <time>2019-07-01T18:10:32.781Z</time>
      </trkpt>
      <trkpt lat="40.471935" lon="-3.50606833">
        <ele>613.055</ele>
        <time>2019-07-01T18:10:33.781Z</time>
      </trkpt>
      <trkpt lat="40.47197833" lon="-3.50617833">
        <ele>614.055</ele>
        <time>2019-07-01T18:10:34.781Z</time>
      </trkpt>
      <trkpt lat="40.47197833" lon="-3.50617833">
        <ele>614.055</ele>
        <time>2019-07-01T18:10:35.781Z</time>
      </trkpt>
      <trkpt lat="40.47201833" lon="-3.506285">
        <ele>614.055</ele>
        <time>2019-07-01T18:10:36.781Z</time>
      </trkpt>
      <trkpt lat="40.47201833" lon="-3.506285">
        <ele>614.055</ele>
        <time>2019-07-01T18:10:37.781Z</time>
      </trkpt>
      <trkpt lat="40.47206" lon="-3.50639">
        <ele>614.055</ele>
        <time>2019-07-01T18:10:38.781Z</time>
      </trkpt>
      <trkpt lat="40.47206" lon="-3.50639">
        <ele>614.055</ele>
        <time>2019-07-01T18:10:39.781Z</time>
      </trkpt>
      <trkpt lat="40.47210167" lon="-3.50649167">
        <ele>614.055</ele>
        <time>2019-07-01T18:10:40.781Z</time>
      </trkpt>
      <trkpt lat="40.47210167" lon="-3.50649167">
        <ele>614.055</ele>
        <time>2019-07-01T18:10:41.781Z</time>
      </trkpt>
      <trkpt lat="40.47214167" lon="-3.506595">
        <ele>615.055</ele>
        <time>2019-07-01T18:10:42.781Z</time>
      </trkpt>
      <trkpt lat="40.47214167" lon="-3.506595">
        <ele>615.055</ele>
        <time>2019-07-01T18:10:43.781Z</time>
      </trkpt>
      <trkpt lat="40.47218667" lon="-3.50670333">
        <ele>615.055</ele>
        <time>2019-07-01T18:10:44.781Z</time>
      </trkpt>
      <trkpt lat="40.47218667" lon="-3.50670333">
        <ele>615.055</ele>
        <time>2019-07-01T18:10:45.781Z</time>
      </trkpt>
      <trkpt lat="40.47222833" lon="-3.50680167">
        <ele>615.055</ele>
        <time>2019-07-01T18:10:46.781Z</time>
      </trkpt>
      <trkpt lat="40.47222833" lon="-3.50680167">
        <ele>615.055</ele>
        <time>2019-07-01T18:10:47.781Z</time>
      </trkpt>
      <trkpt lat="40.47227" lon="-3.50690833">
        <ele>615.055</ele>
        <time>2019-07-01T18:10:48.781Z</time>
      </trkpt>
      <trkpt lat="40.47227" lon="-3.50690833">
        <ele>615.055</ele>
        <time>2019-07-01T18:10:49.781Z</time>
      </trkpt>
      <trkpt lat="40.47231" lon="-3.50701167">
        <ele>616.055</ele>
        <time>2019-07-01T18:10:50.781Z</time>
      </trkpt>
      <trkpt lat="40.47231" lon="-3.50701167">
        <ele>616.055</ele>
        <time>2019-07-01T18:10:51.781Z</time>
      </trkpt>
      <trkpt lat="40.47235333" lon="-3.50711833">
        <ele>616.055</ele>
        <time>2019-07-01T18:10:52.781Z</time>
      </trkpt>
      <trkpt lat="40.47237667" lon="-3.50716833">
        <ele>616.055</ele>
        <time>2019-07-01T18:10:53.781Z</time>
      </trkpt>
      <trkpt lat="40.47239667" lon="-3.50722167">
        <ele>616.055</ele>
        <time>2019-07-01T18:10:54.781Z</time>
      </trkpt>
      <trkpt lat="40.47239667" lon="-3.50722167">
        <ele>616.055</ele>
        <time>2019-07-01T18:10:55.781Z</time>
      </trkpt>
      <trkpt lat="40.47244167" lon="-3.50732667">
        <ele>617.055</ele>
        <time>2019-07-01T18:10:56.781Z</time>
      </trkpt>
      <trkpt lat="40.47246333" lon="-3.50737833">
        <ele>617.055</ele>
        <time>2019-07-01T18:10:57.781Z</time>
      </trkpt>
      <trkpt lat="40.47246333" lon="-3.50737833">
        <ele>617.055</ele>
        <time>2019-07-01T18:10:58.781Z</time>
      </trkpt>
      <trkpt lat="40.47251167" lon="-3.50747667">
        <ele>617.055</ele>
        <time>2019-07-01T18:10:59.781Z</time>
      </trkpt>
      <trkpt lat="40.472535" lon="-3.50752833">
        <ele>617.055</ele>
        <time>2019-07-01T18:11:00.781Z</time>
      </trkpt>
      <trkpt lat="40.47255667" lon="-3.50757667">
        <ele>617.055</ele>
        <time>2019-07-01T18:11:01.781Z</time>
      </trkpt>
      <trkpt lat="40.47255667" lon="-3.50757667">
        <ele>617.055</ele>
        <time>2019-07-01T18:11:02.781Z</time>
      </trkpt>
      <trkpt lat="40.4726" lon="-3.50768667">
        <ele>617.055</ele>
        <time>2019-07-01T18:11:03.781Z</time>
      </trkpt>
      <trkpt lat="40.4726" lon="-3.50768667">
        <ele>617.055</ele>
        <time>2019-07-01T18:11:04.781Z</time>
      </trkpt>
      <trkpt lat="40.47264" lon="-3.50779333">
        <ele>617.055</ele>
        <time>2019-07-01T18:11:05.781Z</time>
      </trkpt>
      <trkpt lat="40.47266167" lon="-3.50784333">
        <ele>617.055</ele>
        <time>2019-07-01T18:11:06.781Z</time>
      </trkpt>
      <trkpt lat="40.47266167" lon="-3.50784333">
        <ele>617.055</ele>
        <time>2019-07-01T18:11:07.781Z</time>
      </trkpt>
      <trkpt lat="40.472705" lon="-3.50794167">
        <ele>617.055</ele>
        <time>2019-07-01T18:11:08.781Z</time>
      </trkpt>
      <trkpt lat="40.472705" lon="-3.50794167">
        <ele>617.055</ele>
        <time>2019-07-01T18:11:09.781Z</time>
      </trkpt>
      <trkpt lat="40.47274667" lon="-3.50803833">
        <ele>617.055</ele>
        <time>2019-07-01T18:11:10.781Z</time>
      </trkpt>
      <trkpt lat="40.47274667" lon="-3.50803833">
        <ele>618.055</ele>
        <time>2019-07-01T18:11:11.781Z</time>
      </trkpt>
      <trkpt lat="40.47278833" lon="-3.50814">
        <ele>618.055</ele>
        <time>2019-07-01T18:11:12.781Z</time>
      </trkpt>
      <trkpt lat="40.47278833" lon="-3.50814">
        <ele>618.055</ele>
        <time>2019-07-01T18:11:13.781Z</time>
      </trkpt>
      <trkpt lat="40.47283167" lon="-3.50824">
        <ele>618.055</ele>
        <time>2019-07-01T18:11:14.781Z</time>
      </trkpt>
      <trkpt lat="40.47283167" lon="-3.50824">
        <ele>618.055</ele>
        <time>2019-07-01T18:11:15.781Z</time>
      </trkpt>
      <trkpt lat="40.47287" lon="-3.50834333">
        <ele>618.055</ele>
        <time>2019-07-01T18:11:16.781Z</time>
      </trkpt>
      <trkpt lat="40.47289" lon="-3.508395">
        <ele>619.055</ele>
        <time>2019-07-01T18:11:17.781Z</time>
      </trkpt>
      <trkpt lat="40.47291" lon="-3.508445">
        <ele>619.055</ele>
        <time>2019-07-01T18:11:18.781Z</time>
      </trkpt>
      <trkpt lat="40.47291" lon="-3.508445">
        <ele>619.055</ele>
        <time>2019-07-01T18:11:19.781Z</time>
      </trkpt>
      <trkpt lat="40.47295667" lon="-3.50854167">
        <ele>619.055</ele>
        <time>2019-07-01T18:11:20.781Z</time>
      </trkpt>
      <trkpt lat="40.47295667" lon="-3.50854167">
        <ele>619.055</ele>
        <time>2019-07-01T18:11:21.781Z</time>
      </trkpt>
      <trkpt lat="40.47299833" lon="-3.50864167">
        <ele>619.055</ele>
        <time>2019-07-01T18:11:22.781Z</time>
      </trkpt>
      <trkpt lat="40.47301833" lon="-3.50869">
        <ele>620.055</ele>
        <time>2019-07-01T18:11:23.781Z</time>
      </trkpt>
      <trkpt lat="40.47304" lon="-3.50873833">
        <ele>620.055</ele>
        <time>2019-07-01T18:11:24.781Z</time>
      </trkpt>
      <trkpt lat="40.47304" lon="-3.50873833">
        <ele>620.055</ele>
        <time>2019-07-01T18:11:25.781Z</time>
      </trkpt>
      <trkpt lat="40.47308167" lon="-3.50884">
        <ele>620.055</ele>
        <time>2019-07-01T18:11:26.781Z</time>
      </trkpt>
      <trkpt lat="40.47308167" lon="-3.50884">
        <ele>620.055</ele>
        <time>2019-07-01T18:11:27.781Z</time>
      </trkpt>
      <trkpt lat="40.473125" lon="-3.508945">
        <ele>620.055</ele>
        <time>2019-07-01T18:11:28.781Z</time>
      </trkpt>
      <trkpt lat="40.47314667" lon="-3.50899667">
        <ele>620.055</ele>
        <time>2019-07-01T18:11:29.781Z</time>
      </trkpt>
      <trkpt lat="40.47314667" lon="-3.50899667">
        <ele>620.055</ele>
        <time>2019-07-01T18:11:30.781Z</time>
      </trkpt>
      <trkpt lat="40.47318833" lon="-3.50910167">
        <ele>620.055</ele>
        <time>2019-07-01T18:11:31.781Z</time>
      </trkpt>
      <trkpt lat="40.47321167" lon="-3.50915167">
        <ele>620.055</ele>
        <time>2019-07-01T18:11:32.781Z</time>
      </trkpt>
      <trkpt lat="40.47321167" lon="-3.50915167">
        <ele>620.055</ele>
        <time>2019-07-01T18:11:33.781Z</time>
      </trkpt>
      <trkpt lat="40.47325667" lon="-3.50925667">
        <ele>620.055</ele>
        <time>2019-07-01T18:11:34.781Z</time>
      </trkpt>
      <trkpt lat="40.47327667" lon="-3.50931">
        <ele>621.055</ele>
        <time>2019-07-01T18:11:35.781Z</time>
      </trkpt>
      <trkpt lat="40.47329833" lon="-3.50936167">
        <ele>621.055</ele>
        <time>2019-07-01T18:11:36.781Z</time>
      </trkpt>
      <trkpt lat="40.47329833" lon="-3.50936167">
        <ele>621.055</ele>
        <time>2019-07-01T18:11:37.781Z</time>
      </trkpt>
      <trkpt lat="40.473345" lon="-3.50946333">
        <ele>621.055</ele>
        <time>2019-07-01T18:11:38.781Z</time>
      </trkpt>
      <trkpt lat="40.47336667" lon="-3.509515">
        <ele>621.055</ele>
        <time>2019-07-01T18:11:39.781Z</time>
      </trkpt>
      <trkpt lat="40.47338833" lon="-3.50956667">
        <ele>621.055</ele>
        <time>2019-07-01T18:11:40.781Z</time>
      </trkpt>
      <trkpt lat="40.47338833" lon="-3.50956667">
        <ele>621.055</ele>
        <time>2019-07-01T18:11:41.781Z</time>
      </trkpt>
      <trkpt lat="40.47343167" lon="-3.50967">
        <ele>621.055</ele>
        <time>2019-07-01T18:11:42.781Z</time>
      </trkpt>
      <trkpt lat="40.47343167" lon="-3.50967">
        <ele>621.055</ele>
        <time>2019-07-01T18:11:43.781Z</time>
      </trkpt>
      <trkpt lat="40.47347167" lon="-3.50977667">
        <ele>621.055</ele>
        <time>2019-07-01T18:11:44.781Z</time>
      </trkpt>
      <trkpt lat="40.47347167" lon="-3.50977667">
        <ele>622.055</ele>
        <time>2019-07-01T18:11:45.781Z</time>
      </trkpt>
      <trkpt lat="40.473515" lon="-3.50987667">
        <ele>622.055</ele>
        <time>2019-07-01T18:11:46.781Z</time>
      </trkpt>
      <trkpt lat="40.47353833" lon="-3.50992833">
        <ele>622.055</ele>
        <time>2019-07-01T18:11:47.781Z</time>
      </trkpt>
      <trkpt lat="40.47353833" lon="-3.50992833">
        <ele>622.055</ele>
        <time>2019-07-01T18:11:48.781Z</time>
      </trkpt>
      <trkpt lat="40.47358167" lon="-3.510035">
        <ele>622.055</ele>
        <time>2019-07-01T18:11:49.781Z</time>
      </trkpt>
      <trkpt lat="40.47358167" lon="-3.510035">
        <ele>622.055</ele>
        <time>2019-07-01T18:11:50.781Z</time>
      </trkpt>
      <trkpt lat="40.473625" lon="-3.510145">
        <ele>622.055</ele>
        <time>2019-07-01T18:11:51.781Z</time>
      </trkpt>
      <trkpt lat="40.473625" lon="-3.510145">
        <ele>622.055</ele>
        <time>2019-07-01T18:11:52.781Z</time>
      </trkpt>
      <trkpt lat="40.47366833" lon="-3.51024667">
        <ele>622.055</ele>
        <time>2019-07-01T18:11:53.781Z</time>
      </trkpt>
      <trkpt lat="40.47366833" lon="-3.51024667">
        <ele>622.055</ele>
        <time>2019-07-01T18:11:54.781Z</time>
      </trkpt>
      <trkpt lat="40.47371167" lon="-3.51035667">
        <ele>622.055</ele>
        <time>2019-07-01T18:11:55.781Z</time>
      </trkpt>
      <trkpt lat="40.47371167" lon="-3.51035667">
        <ele>622.055</ele>
        <time>2019-07-01T18:11:56.781Z</time>
      </trkpt>
      <trkpt lat="40.47375333" lon="-3.51046167">
        <ele>622.055</ele>
        <time>2019-07-01T18:11:57.781Z</time>
      </trkpt>
      <trkpt lat="40.47375333" lon="-3.51046167">
        <ele>622.055</ele>
        <time>2019-07-01T18:11:58.781Z</time>
      </trkpt>
      <trkpt lat="40.473795" lon="-3.51056333">
        <ele>622.055</ele>
        <time>2019-07-01T18:11:59.781Z</time>
      </trkpt>
      <trkpt lat="40.473795" lon="-3.51056333">
        <ele>622.055</ele>
        <time>2019-07-01T18:12:00.781Z</time>
      </trkpt>
      <trkpt lat="40.47383667" lon="-3.51066667">
        <ele>622.055</ele>
        <time>2019-07-01T18:12:01.781Z</time>
      </trkpt>
      <trkpt lat="40.47383667" lon="-3.51066667">
        <ele>622.055</ele>
        <time>2019-07-01T18:12:02.781Z</time>
      </trkpt>
      <trkpt lat="40.47387833" lon="-3.51076833">
        <ele>623.055</ele>
        <time>2019-07-01T18:12:03.781Z</time>
      </trkpt>
      <trkpt lat="40.4739" lon="-3.51082167">
        <ele>623.055</ele>
        <time>2019-07-01T18:12:04.781Z</time>
      </trkpt>
      <trkpt lat="40.4739" lon="-3.51082167">
        <ele>623.055</ele>
        <time>2019-07-01T18:12:05.781Z</time>
      </trkpt>
      <trkpt lat="40.47394167" lon="-3.51091833">
        <ele>623.055</ele>
        <time>2019-07-01T18:12:06.781Z</time>
      </trkpt>
      <trkpt lat="40.47394167" lon="-3.51091833">
        <ele>623.055</ele>
        <time>2019-07-01T18:12:07.781Z</time>
      </trkpt>
      <trkpt lat="40.474" lon="-3.510995">
        <ele>623.055</ele>
        <time>2019-07-01T18:12:08.781Z</time>
      </trkpt>
      <trkpt lat="40.47403667" lon="-3.511005">
        <ele>623.055</ele>
        <time>2019-07-01T18:12:09.781Z</time>
      </trkpt>
      <trkpt lat="40.47403667" lon="-3.511005">
        <ele>623.055</ele>
        <time>2019-07-01T18:12:10.781Z</time>
      </trkpt>
      <trkpt lat="40.474115" lon="-3.51097">
        <ele>624.055</ele>
        <time>2019-07-01T18:12:11.781Z</time>
      </trkpt>
      <trkpt lat="40.474115" lon="-3.51097">
        <ele>624.055</ele>
        <time>2019-07-01T18:12:12.781Z</time>
      </trkpt>
      <trkpt lat="40.47418333" lon="-3.51091833">
        <ele>624.055</ele>
        <time>2019-07-01T18:12:13.781Z</time>
      </trkpt>
      <trkpt lat="40.47418333" lon="-3.51091833">
        <ele>624.055</ele>
        <time>2019-07-01T18:12:14.781Z</time>
      </trkpt>
      <trkpt lat="40.47426333" lon="-3.510875">
        <ele>625.055</ele>
        <time>2019-07-01T18:12:15.781Z</time>
      </trkpt>
      <trkpt lat="40.47426333" lon="-3.510875">
        <ele>625.055</ele>
        <time>2019-07-01T18:12:16.781Z</time>
      </trkpt>
      <trkpt lat="40.47434333" lon="-3.51084167">
        <ele>625.055</ele>
        <time>2019-07-01T18:12:17.781Z</time>
      </trkpt>
      <trkpt lat="40.47438167" lon="-3.51083">
        <ele>625.055</ele>
        <time>2019-07-01T18:12:18.781Z</time>
      </trkpt>
      <trkpt lat="40.47438167" lon="-3.51083">
        <ele>626.055</ele>
        <time>2019-07-01T18:12:19.781Z</time>
      </trkpt>
      <trkpt lat="40.47445833" lon="-3.51080667">
        <ele>626.055</ele>
        <time>2019-07-01T18:12:20.781Z</time>
      </trkpt>
      <trkpt lat="40.4745" lon="-3.51079667">
        <ele>626.055</ele>
        <time>2019-07-01T18:12:21.781Z</time>
      </trkpt>
      <trkpt lat="40.4745" lon="-3.51079667">
        <ele>626.055</ele>
        <time>2019-07-01T18:12:22.781Z</time>
      </trkpt>
      <trkpt lat="40.47458" lon="-3.51079333">
        <ele>626.055</ele>
        <time>2019-07-01T18:12:23.781Z</time>
      </trkpt>
      <trkpt lat="40.47462" lon="-3.51079667">
        <ele>626.055</ele>
        <time>2019-07-01T18:12:24.781Z</time>
      </trkpt>
      <trkpt lat="40.47462" lon="-3.51079667">
        <ele>627.055</ele>
        <time>2019-07-01T18:12:25.781Z</time>
      </trkpt>
      <trkpt lat="40.474705" lon="-3.510805">
        <ele>627.055</ele>
        <time>2019-07-01T18:12:26.781Z</time>
      </trkpt>
      <trkpt lat="40.474705" lon="-3.510805">
        <ele>627.055</ele>
        <time>2019-07-01T18:12:27.781Z</time>
      </trkpt>
      <trkpt lat="40.47479167" lon="-3.51081333">
        <ele>627.055</ele>
        <time>2019-07-01T18:12:28.781Z</time>
      </trkpt>
      <trkpt lat="40.47479167" lon="-3.51081333">
        <ele>627.055</ele>
        <time>2019-07-01T18:12:29.781Z</time>
      </trkpt>
      <trkpt lat="40.47487333" lon="-3.51083667">
        <ele>627.055</ele>
        <time>2019-07-01T18:12:30.781Z</time>
      </trkpt>
      <trkpt lat="40.47487333" lon="-3.51083667">
        <ele>627.055</ele>
        <time>2019-07-01T18:12:31.781Z</time>
      </trkpt>
      <trkpt lat="40.47495667" lon="-3.51086667">
        <ele>627.055</ele>
        <time>2019-07-01T18:12:32.781Z</time>
      </trkpt>
      <trkpt lat="40.47495667" lon="-3.51086667">
        <ele>627.055</ele>
        <time>2019-07-01T18:12:33.781Z</time>
      </trkpt>
      <trkpt lat="40.47504" lon="-3.51090667">
        <ele>627.055</ele>
        <time>2019-07-01T18:12:34.781Z</time>
      </trkpt>
      <trkpt lat="40.47508" lon="-3.51093333">
        <ele>628.055</ele>
        <time>2019-07-01T18:12:35.781Z</time>
      </trkpt>
      <trkpt lat="40.47508" lon="-3.51093333">
        <ele>628.055</ele>
        <time>2019-07-01T18:12:36.781Z</time>
      </trkpt>
      <trkpt lat="40.47515833" lon="-3.51099">
        <ele>628.055</ele>
        <time>2019-07-01T18:12:37.781Z</time>
      </trkpt>
      <trkpt lat="40.47519667" lon="-3.51101667">
        <ele>628.055</ele>
        <time>2019-07-01T18:12:38.781Z</time>
      </trkpt>
      <trkpt lat="40.47519667" lon="-3.51101667">
        <ele>628.055</ele>
        <time>2019-07-01T18:12:39.781Z</time>
      </trkpt>
      <trkpt lat="40.47527" lon="-3.51107">
        <ele>628.055</ele>
        <time>2019-07-01T18:12:40.781Z</time>
      </trkpt>
      <trkpt lat="40.475305" lon="-3.51110167">
        <ele>628.055</ele>
        <time>2019-07-01T18:12:41.781Z</time>
      </trkpt>
      <trkpt lat="40.47534333" lon="-3.511135">
        <ele>628.055</ele>
        <time>2019-07-01T18:12:42.781Z</time>
      </trkpt>
      <trkpt lat="40.47534333" lon="-3.511135">
        <ele>628.055</ele>
        <time>2019-07-01T18:12:43.781Z</time>
      </trkpt>
      <trkpt lat="40.47541667" lon="-3.51119833">
        <ele>628.055</ele>
        <time>2019-07-01T18:12:44.781Z</time>
      </trkpt>
      <trkpt lat="40.47541667" lon="-3.51119833">
        <ele>628.055</ele>
        <time>2019-07-01T18:12:45.781Z</time>
      </trkpt>
      <trkpt lat="40.47549167" lon="-3.51126167">
        <ele>628.055</ele>
        <time>2019-07-01T18:12:46.781Z</time>
      </trkpt>
      <trkpt lat="40.47552667" lon="-3.511295">
        <ele>629.055</ele>
        <time>2019-07-01T18:12:47.781Z</time>
      </trkpt>
      <trkpt lat="40.47556333" lon="-3.51132667">
        <ele>629.055</ele>
        <time>2019-07-01T18:12:48.781Z</time>
      </trkpt>
      <trkpt lat="40.47556333" lon="-3.51132667">
        <ele>629.055</ele>
        <time>2019-07-01T18:12:49.781Z</time>
      </trkpt>
      <trkpt lat="40.475635" lon="-3.511385">
        <ele>629.055</ele>
        <time>2019-07-01T18:12:50.781Z</time>
      </trkpt>
      <trkpt lat="40.47567167" lon="-3.51141167">
        <ele>629.055</ele>
        <time>2019-07-01T18:12:51.781Z</time>
      </trkpt>
      <trkpt lat="40.47567167" lon="-3.51141167">
        <ele>629.055</ele>
        <time>2019-07-01T18:12:52.781Z</time>
      </trkpt>
      <trkpt lat="40.47574833" lon="-3.51145667">
        <ele>629.055</ele>
        <time>2019-07-01T18:12:53.781Z</time>
      </trkpt>
      <trkpt lat="40.47578833" lon="-3.51147333">
        <ele>629.055</ele>
        <time>2019-07-01T18:12:54.781Z</time>
      </trkpt>
      <trkpt lat="40.47578833" lon="-3.51147333">
        <ele>630.055</ele>
        <time>2019-07-01T18:12:55.781Z</time>
      </trkpt>
      <trkpt lat="40.47586833" lon="-3.511505">
        <ele>630.055</ele>
        <time>2019-07-01T18:12:56.781Z</time>
      </trkpt>
      <trkpt lat="40.47590833" lon="-3.511515">
        <ele>630.055</ele>
        <time>2019-07-01T18:12:57.781Z</time>
      </trkpt>
      <trkpt lat="40.47590833" lon="-3.511515">
        <ele>630.055</ele>
        <time>2019-07-01T18:12:58.781Z</time>
      </trkpt>
      <trkpt lat="40.47598667" lon="-3.51152833">
        <ele>630.055</ele>
        <time>2019-07-01T18:12:59.781Z</time>
      </trkpt>
      <trkpt lat="40.47602667" lon="-3.51152833">
        <ele>631.055</ele>
        <time>2019-07-01T18:13:00.781Z</time>
      </trkpt>
      <trkpt lat="40.47602667" lon="-3.51152833">
        <ele>631.055</ele>
        <time>2019-07-01T18:13:01.781Z</time>
      </trkpt>
      <trkpt lat="40.47610667" lon="-3.51152333">
        <ele>631.055</ele>
        <time>2019-07-01T18:13:02.781Z</time>
      </trkpt>
      <trkpt lat="40.47614667" lon="-3.51151667">
        <ele>631.055</ele>
        <time>2019-07-01T18:13:03.781Z</time>
      </trkpt>
      <trkpt lat="40.47614667" lon="-3.51151667">
        <ele>631.055</ele>
        <time>2019-07-01T18:13:04.781Z</time>
      </trkpt>
      <trkpt lat="40.47622667" lon="-3.51150333">
        <ele>631.055</ele>
        <time>2019-07-01T18:13:05.781Z</time>
      </trkpt>
      <trkpt lat="40.47626333" lon="-3.51149">
        <ele>632.055</ele>
        <time>2019-07-01T18:13:06.781Z</time>
      </trkpt>
      <trkpt lat="40.47626333" lon="-3.51149">
        <ele>632.055</ele>
        <time>2019-07-01T18:13:07.781Z</time>
      </trkpt>
      <trkpt lat="40.47633833" lon="-3.51146333">
        <ele>632.055</ele>
        <time>2019-07-01T18:13:08.781Z</time>
      </trkpt>
      <trkpt lat="40.47633833" lon="-3.51146333">
        <ele>632.055</ele>
        <time>2019-07-01T18:13:09.781Z</time>
      </trkpt>
      <trkpt lat="40.47640833" lon="-3.51142667">
        <ele>633.055</ele>
        <time>2019-07-01T18:13:10.781Z</time>
      </trkpt>
      <trkpt lat="40.47640833" lon="-3.51142667">
        <ele>633.055</ele>
        <time>2019-07-01T18:13:11.781Z</time>
      </trkpt>
      <trkpt lat="40.476475" lon="-3.51138167">
        <ele>633.055</ele>
        <time>2019-07-01T18:13:12.781Z</time>
      </trkpt>
      <trkpt lat="40.47650667" lon="-3.51135667">
        <ele>633.055</ele>
        <time>2019-07-01T18:13:13.781Z</time>
      </trkpt>
      <trkpt lat="40.47650667" lon="-3.51135667">
        <ele>633.055</ele>
        <time>2019-07-01T18:13:14.781Z</time>
      </trkpt>
      <trkpt lat="40.47656667" lon="-3.5113">
        <ele>633.055</ele>
        <time>2019-07-01T18:13:15.781Z</time>
      </trkpt>
      <trkpt lat="40.47659667" lon="-3.51127167">
        <ele>633.055</ele>
        <time>2019-07-01T18:13:16.781Z</time>
      </trkpt>
      <trkpt lat="40.47659667" lon="-3.51127167">
        <ele>633.055</ele>
        <time>2019-07-01T18:13:17.781Z</time>
      </trkpt>
      <trkpt lat="40.47665667" lon="-3.51121667">
        <ele>634.055</ele>
        <time>2019-07-01T18:13:18.781Z</time>
      </trkpt>
      <trkpt lat="40.47665667" lon="-3.51121667">
        <ele>634.055</ele>
        <time>2019-07-01T18:13:19.781Z</time>
      </trkpt>
      <trkpt lat="40.47671667" lon="-3.511165">
        <ele>634.055</ele>
        <time>2019-07-01T18:13:20.781Z</time>
      </trkpt>
      <trkpt lat="40.47671667" lon="-3.511165">
        <ele>634.055</ele>
        <time>2019-07-01T18:13:21.781Z</time>
      </trkpt>
      <trkpt lat="40.47678" lon="-3.511115">
        <ele>635.055</ele>
        <time>2019-07-01T18:13:22.781Z</time>
      </trkpt>
      <trkpt lat="40.47678" lon="-3.511115">
        <ele>635.055</ele>
        <time>2019-07-01T18:13:23.781Z</time>
      </trkpt>
      <trkpt lat="40.47684333" lon="-3.51106667">
        <ele>635.055</ele>
        <time>2019-07-01T18:13:24.781Z</time>
      </trkpt>
      <trkpt lat="40.47684333" lon="-3.51106667">
        <ele>635.055</ele>
        <time>2019-07-01T18:13:25.781Z</time>
      </trkpt>
      <trkpt lat="40.47690833" lon="-3.51101833">
        <ele>636.055</ele>
        <time>2019-07-01T18:13:26.781Z</time>
      </trkpt>
      <trkpt lat="40.47690833" lon="-3.51101833">
        <ele>636.055</ele>
        <time>2019-07-01T18:13:27.781Z</time>
      </trkpt>
      <trkpt lat="40.47696833" lon="-3.51096333">
        <ele>636.055</ele>
        <time>2019-07-01T18:13:28.781Z</time>
      </trkpt>
      <trkpt lat="40.477" lon="-3.51093667">
        <ele>636.055</ele>
        <time>2019-07-01T18:13:29.781Z</time>
      </trkpt>
      <trkpt lat="40.477" lon="-3.51093667">
        <ele>637.055</ele>
        <time>2019-07-01T18:13:30.781Z</time>
      </trkpt>
      <trkpt lat="40.47706167" lon="-3.51088333">
        <ele>637.055</ele>
        <time>2019-07-01T18:13:31.781Z</time>
      </trkpt>
      <trkpt lat="40.47706167" lon="-3.51088333">
        <ele>637.055</ele>
        <time>2019-07-01T18:13:32.781Z</time>
      </trkpt>
      <trkpt lat="40.477125" lon="-3.51082333">
        <ele>637.055</ele>
        <time>2019-07-01T18:13:33.781Z</time>
      </trkpt>
      <trkpt lat="40.47715667" lon="-3.51079667">
        <ele>638.055</ele>
        <time>2019-07-01T18:13:34.781Z</time>
      </trkpt>
      <trkpt lat="40.47718833" lon="-3.51076833">
        <ele>638.055</ele>
        <time>2019-07-01T18:13:35.781Z</time>
      </trkpt>
      <trkpt lat="40.47721833" lon="-3.51073833">
        <ele>638.055</ele>
        <time>2019-07-01T18:13:36.781Z</time>
      </trkpt>
      <trkpt lat="40.47721833" lon="-3.51073833">
        <ele>638.055</ele>
        <time>2019-07-01T18:13:37.781Z</time>
      </trkpt>
      <trkpt lat="40.47728167" lon="-3.51068167">
        <ele>638.055</ele>
        <time>2019-07-01T18:13:38.781Z</time>
      </trkpt>
      <trkpt lat="40.47728167" lon="-3.51068167">
        <ele>638.055</ele>
        <time>2019-07-01T18:13:39.781Z</time>
      </trkpt>
      <trkpt lat="40.47734333" lon="-3.51063">
        <ele>639.055</ele>
        <time>2019-07-01T18:13:40.781Z</time>
      </trkpt>
      <trkpt lat="40.47734333" lon="-3.51063">
        <ele>639.055</ele>
        <time>2019-07-01T18:13:41.781Z</time>
      </trkpt>
      <trkpt lat="40.47741" lon="-3.510585">
        <ele>639.055</ele>
        <time>2019-07-01T18:13:42.781Z</time>
      </trkpt>
      <trkpt lat="40.477445" lon="-3.51056833">
        <ele>639.055</ele>
        <time>2019-07-01T18:13:43.781Z</time>
      </trkpt>
      <trkpt lat="40.477445" lon="-3.51056833">
        <ele>640.055</ele>
        <time>2019-07-01T18:13:44.781Z</time>
      </trkpt>
      <trkpt lat="40.47751167" lon="-3.51053833">
        <ele>640.055</ele>
        <time>2019-07-01T18:13:45.781Z</time>
      </trkpt>
      <trkpt lat="40.47754667" lon="-3.51052333">
        <ele>640.055</ele>
        <time>2019-07-01T18:13:46.781Z</time>
      </trkpt>
      <trkpt lat="40.47754667" lon="-3.51052333">
        <ele>640.055</ele>
        <time>2019-07-01T18:13:47.781Z</time>
      </trkpt>
      <trkpt lat="40.477615" lon="-3.5105">
        <ele>641.055</ele>
        <time>2019-07-01T18:13:48.781Z</time>
      </trkpt>
      <trkpt lat="40.477615" lon="-3.5105">
        <ele>641.055</ele>
        <time>2019-07-01T18:13:49.781Z</time>
      </trkpt>
      <trkpt lat="40.477685" lon="-3.510485">
        <ele>642.055</ele>
        <time>2019-07-01T18:13:50.781Z</time>
      </trkpt>
      <trkpt lat="40.477685" lon="-3.510485">
        <ele>642.055</ele>
        <time>2019-07-01T18:13:51.781Z</time>
      </trkpt>
      <trkpt lat="40.477755" lon="-3.510475">
        <ele>642.055</ele>
        <time>2019-07-01T18:13:52.781Z</time>
      </trkpt>
      <trkpt lat="40.477755" lon="-3.510475">
        <ele>642.055</ele>
        <time>2019-07-01T18:13:53.781Z</time>
      </trkpt>
      <trkpt lat="40.477825" lon="-3.51047667">
        <ele>643.055</ele>
        <time>2019-07-01T18:13:54.781Z</time>
      </trkpt>
      <trkpt lat="40.477825" lon="-3.51047667">
        <ele>643.055</ele>
        <time>2019-07-01T18:13:55.781Z</time>
      </trkpt>
      <trkpt lat="40.477895" lon="-3.51048333">
        <ele>643.055</ele>
        <time>2019-07-01T18:13:56.781Z</time>
      </trkpt>
      <trkpt lat="40.47793" lon="-3.51049167">
        <ele>643.055</ele>
        <time>2019-07-01T18:13:57.781Z</time>
      </trkpt>
      <trkpt lat="40.47793" lon="-3.51049167">
        <ele>645.055</ele>
        <time>2019-07-01T18:13:58.781Z</time>
      </trkpt>
      <trkpt lat="40.47799667" lon="-3.510515">
        <ele>645.055</ele>
        <time>2019-07-01T18:13:59.781Z</time>
      </trkpt>
      <trkpt lat="40.47802833" lon="-3.51053167">
        <ele>645.055</ele>
        <time>2019-07-01T18:14:00.781Z</time>
      </trkpt>
      <trkpt lat="40.47802833" lon="-3.51053167">
        <ele>646.055</ele>
        <time>2019-07-01T18:14:01.781Z</time>
      </trkpt>
      <trkpt lat="40.47809333" lon="-3.51056333">
        <ele>646.055</ele>
        <time>2019-07-01T18:14:02.781Z</time>
      </trkpt>
      <trkpt lat="40.478125" lon="-3.51058167">
        <ele>646.055</ele>
        <time>2019-07-01T18:14:03.781Z</time>
      </trkpt>
      <trkpt lat="40.47815833" lon="-3.51059833">
        <ele>646.055</ele>
        <time>2019-07-01T18:14:04.781Z</time>
      </trkpt>
      <trkpt lat="40.47815833" lon="-3.51059833">
        <ele>647.055</ele>
        <time>2019-07-01T18:14:05.781Z</time>
      </trkpt>
      <trkpt lat="40.47822167" lon="-3.51064">
        <ele>647.055</ele>
        <time>2019-07-01T18:14:06.781Z</time>
      </trkpt>
      <trkpt lat="40.47822167" lon="-3.51064">
        <ele>648.055</ele>
        <time>2019-07-01T18:14:07.781Z</time>
      </trkpt>
      <trkpt lat="40.47827833" lon="-3.51069">
        <ele>648.055</ele>
        <time>2019-07-01T18:14:08.781Z</time>
      </trkpt>
      <trkpt lat="40.478305" lon="-3.51071833">
        <ele>648.055</ele>
        <time>2019-07-01T18:14:09.781Z</time>
      </trkpt>
      <trkpt lat="40.478305" lon="-3.51071833">
        <ele>648.055</ele>
        <time>2019-07-01T18:14:10.781Z</time>
      </trkpt>
      <trkpt lat="40.47835833" lon="-3.51077167">
        <ele>649.055</ele>
        <time>2019-07-01T18:14:11.781Z</time>
      </trkpt>
      <trkpt lat="40.47838167" lon="-3.5108">
        <ele>649.055</ele>
        <time>2019-07-01T18:14:12.781Z</time>
      </trkpt>
      <trkpt lat="40.47838167" lon="-3.5108">
        <ele>649.055</ele>
        <time>2019-07-01T18:14:13.781Z</time>
      </trkpt>
      <trkpt lat="40.47842167" lon="-3.510865">
        <ele>649.055</ele>
        <time>2019-07-01T18:14:14.781Z</time>
      </trkpt>
      <trkpt lat="40.47842167" lon="-3.510865">
        <ele>650.055</ele>
        <time>2019-07-01T18:14:15.781Z</time>
      </trkpt>
      <trkpt lat="40.478465" lon="-3.51093333">
        <ele>650.055</ele>
        <time>2019-07-01T18:14:16.781Z</time>
      </trkpt>
      <trkpt lat="40.478485" lon="-3.51097">
        <ele>651.055</ele>
        <time>2019-07-01T18:14:17.781Z</time>
      </trkpt>
      <trkpt lat="40.478485" lon="-3.51097">
        <ele>651.055</ele>
        <time>2019-07-01T18:14:18.781Z</time>
      </trkpt>
      <trkpt lat="40.47852333" lon="-3.511045">
        <ele>651.055</ele>
        <time>2019-07-01T18:14:19.781Z</time>
      </trkpt>
      <trkpt lat="40.47852333" lon="-3.511045">
        <ele>651.055</ele>
        <time>2019-07-01T18:14:20.781Z</time>
      </trkpt>
      <trkpt lat="40.47855167" lon="-3.51112333">
        <ele>652.055</ele>
        <time>2019-07-01T18:14:21.781Z</time>
      </trkpt>
      <trkpt lat="40.47856333" lon="-3.511165">
        <ele>652.055</ele>
        <time>2019-07-01T18:14:22.781Z</time>
      </trkpt>
      <trkpt lat="40.47856333" lon="-3.511165">
        <ele>653.055</ele>
        <time>2019-07-01T18:14:23.781Z</time>
      </trkpt>
      <trkpt lat="40.478585" lon="-3.51125167">
        <ele>653.055</ele>
        <time>2019-07-01T18:14:24.781Z</time>
      </trkpt>
      <trkpt lat="40.478585" lon="-3.51125167">
        <ele>653.055</ele>
        <time>2019-07-01T18:14:25.781Z</time>
      </trkpt>
      <trkpt lat="40.47860333" lon="-3.51133667">
        <ele>653.055</ele>
        <time>2019-07-01T18:14:26.781Z</time>
      </trkpt>
      <trkpt lat="40.47860333" lon="-3.51133667">
        <ele>654.055</ele>
        <time>2019-07-01T18:14:27.781Z</time>
      </trkpt>
      <trkpt lat="40.47861667" lon="-3.511425">
        <ele>654.055</ele>
        <time>2019-07-01T18:14:28.781Z</time>
      </trkpt>
      <trkpt lat="40.47862333" lon="-3.51147167">
        <ele>654.055</ele>
        <time>2019-07-01T18:14:29.781Z</time>
      </trkpt>
      <trkpt lat="40.47862333" lon="-3.51147167">
        <ele>654.055</ele>
        <time>2019-07-01T18:14:30.781Z</time>
      </trkpt>
      <trkpt lat="40.47862833" lon="-3.51156167">
        <ele>655.055</ele>
        <time>2019-07-01T18:14:31.781Z</time>
      </trkpt>
      <trkpt lat="40.47863" lon="-3.51160833">
        <ele>655.055</ele>
        <time>2019-07-01T18:14:32.781Z</time>
      </trkpt>
      <trkpt lat="40.47863" lon="-3.51160833">
        <ele>655.055</ele>
        <time>2019-07-01T18:14:33.781Z</time>
      </trkpt>
      <trkpt lat="40.47863333" lon="-3.51170167">
        <ele>655.055</ele>
        <time>2019-07-01T18:14:34.781Z</time>
      </trkpt>
      <trkpt lat="40.47863333" lon="-3.51170167">
        <ele>655.055</ele>
        <time>2019-07-01T18:14:35.781Z</time>
      </trkpt>
      <trkpt lat="40.47863" lon="-3.51179833">
        <ele>655.055</ele>
        <time>2019-07-01T18:14:36.781Z</time>
      </trkpt>
      <trkpt lat="40.47863" lon="-3.51179833">
        <ele>655.055</ele>
        <time>2019-07-01T18:14:37.781Z</time>
      </trkpt>
      <trkpt lat="40.47862667" lon="-3.51189667">
        <ele>655.055</ele>
        <time>2019-07-01T18:14:38.781Z</time>
      </trkpt>
      <trkpt lat="40.478625" lon="-3.511945">
        <ele>656.055</ele>
        <time>2019-07-01T18:14:39.781Z</time>
      </trkpt>
      <trkpt lat="40.47862167" lon="-3.51199667">
        <ele>656.055</ele>
        <time>2019-07-01T18:14:40.781Z</time>
      </trkpt>
      <trkpt lat="40.47862167" lon="-3.51199667">
        <ele>656.055</ele>
        <time>2019-07-01T18:14:41.781Z</time>
      </trkpt>
      <trkpt lat="40.47862" lon="-3.51209667">
        <ele>656.055</ele>
        <time>2019-07-01T18:14:42.781Z</time>
      </trkpt>
      <trkpt lat="40.47862" lon="-3.51209667">
        <ele>656.055</ele>
        <time>2019-07-01T18:14:43.781Z</time>
      </trkpt>
      <trkpt lat="40.47861667" lon="-3.51219833">
        <ele>656.055</ele>
        <time>2019-07-01T18:14:44.781Z</time>
      </trkpt>
      <trkpt lat="40.47861667" lon="-3.51225">
        <ele>657.055</ele>
        <time>2019-07-01T18:14:45.781Z</time>
      </trkpt>
      <trkpt lat="40.47861667" lon="-3.51225">
        <ele>657.055</ele>
        <time>2019-07-01T18:14:46.781Z</time>
      </trkpt>
      <trkpt lat="40.47861" lon="-3.51235667">
        <ele>657.055</ele>
        <time>2019-07-01T18:14:47.781Z</time>
      </trkpt>
      <trkpt lat="40.478605" lon="-3.51240833">
        <ele>657.055</ele>
        <time>2019-07-01T18:14:48.781Z</time>
      </trkpt>
      <trkpt lat="40.478605" lon="-3.51240833">
        <ele>657.055</ele>
        <time>2019-07-01T18:14:49.781Z</time>
      </trkpt>
      <trkpt lat="40.478595" lon="-3.51251333">
        <ele>657.055</ele>
        <time>2019-07-01T18:14:50.781Z</time>
      </trkpt>
      <trkpt lat="40.478595" lon="-3.51251333">
        <ele>657.055</ele>
        <time>2019-07-01T18:14:51.781Z</time>
      </trkpt>
      <trkpt lat="40.478585" lon="-3.51262333">
        <ele>657.055</ele>
        <time>2019-07-01T18:14:52.781Z</time>
      </trkpt>
      <trkpt lat="40.478585" lon="-3.51262333">
        <ele>657.055</ele>
        <time>2019-07-01T18:14:53.781Z</time>
      </trkpt>
      <trkpt lat="40.47857333" lon="-3.51274167">
        <ele>657.055</ele>
        <time>2019-07-01T18:14:54.781Z</time>
      </trkpt>
      <trkpt lat="40.47856667" lon="-3.51280333">
        <ele>657.055</ele>
        <time>2019-07-01T18:14:55.781Z</time>
      </trkpt>
      <trkpt lat="40.47856667" lon="-3.51280333">
        <ele>657.055</ele>
        <time>2019-07-01T18:14:56.781Z</time>
      </trkpt>
      <trkpt lat="40.47854833" lon="-3.51293833">
        <ele>657.055</ele>
        <time>2019-07-01T18:14:57.781Z</time>
      </trkpt>
      <trkpt lat="40.47854833" lon="-3.51293833">
        <ele>657.055</ele>
        <time>2019-07-01T18:14:58.781Z</time>
      </trkpt>
      <trkpt lat="40.47852167" lon="-3.51308333">
        <ele>657.055</ele>
        <time>2019-07-01T18:14:59.781Z</time>
      </trkpt>
      <trkpt lat="40.47852167" lon="-3.51308333">
        <ele>657.055</ele>
        <time>2019-07-01T18:15:00.781Z</time>
      </trkpt>
      <trkpt lat="40.47848833" lon="-3.51323333">
        <ele>656.055</ele>
        <time>2019-07-01T18:15:01.781Z</time>
      </trkpt>
      <trkpt lat="40.47848833" lon="-3.51323333">
        <ele>656.055</ele>
        <time>2019-07-01T18:15:02.781Z</time>
      </trkpt>
      <trkpt lat="40.478455" lon="-3.51339667">
        <ele>656.055</ele>
        <time>2019-07-01T18:15:03.781Z</time>
      </trkpt>
      <trkpt lat="40.47843833" lon="-3.51349333">
        <ele>656.055</ele>
        <time>2019-07-01T18:15:04.781Z</time>
      </trkpt>
      <trkpt lat="40.47843833" lon="-3.51349333">
        <ele>655.055</ele>
        <time>2019-07-01T18:15:05.781Z</time>
      </trkpt>
      <trkpt lat="40.47840333" lon="-3.51369667">
        <ele>655.055</ele>
        <time>2019-07-01T18:15:06.781Z</time>
      </trkpt>
      <trkpt lat="40.47840333" lon="-3.51369667">
        <ele>653.055</ele>
        <time>2019-07-01T18:15:07.781Z</time>
      </trkpt>
      <trkpt lat="40.47837833" lon="-3.51388">
        <ele>653.055</ele>
        <time>2019-07-01T18:15:08.781Z</time>
      </trkpt>
      <trkpt lat="40.47838333" lon="-3.51396667">
        <ele>652.055</ele>
        <time>2019-07-01T18:15:09.781Z</time>
      </trkpt>
      <trkpt lat="40.47838333" lon="-3.51396667">
        <ele>652.055</ele>
        <time>2019-07-01T18:15:10.781Z</time>
      </trkpt>
      <trkpt lat="40.47844667" lon="-3.51411167">
        <ele>651.055</ele>
        <time>2019-07-01T18:15:11.781Z</time>
      </trkpt>
      <trkpt lat="40.47848" lon="-3.51417167">
        <ele>651.055</ele>
        <time>2019-07-01T18:15:12.781Z</time>
      </trkpt>
      <trkpt lat="40.47848" lon="-3.51417167">
        <ele>651.055</ele>
        <time>2019-07-01T18:15:13.781Z</time>
      </trkpt>
      <trkpt lat="40.47854" lon="-3.51429167">
        <ele>651.055</ele>
        <time>2019-07-01T18:15:14.781Z</time>
      </trkpt>
      <trkpt lat="40.47854" lon="-3.51429167">
        <ele>651.055</ele>
        <time>2019-07-01T18:15:15.781Z</time>
      </trkpt>
      <trkpt lat="40.47858833" lon="-3.51441333">
        <ele>651.055</ele>
        <time>2019-07-01T18:15:16.781Z</time>
      </trkpt>
      <trkpt lat="40.47858833" lon="-3.51441333">
        <ele>651.055</ele>
        <time>2019-07-01T18:15:17.781Z</time>
      </trkpt>
      <trkpt lat="40.47866333" lon="-3.51450333">
        <ele>651.055</ele>
        <time>2019-07-01T18:15:18.781Z</time>
      </trkpt>
      <trkpt lat="40.47870667" lon="-3.514535">
        <ele>651.055</ele>
        <time>2019-07-01T18:15:19.781Z</time>
      </trkpt>
      <trkpt lat="40.47870667" lon="-3.514535">
        <ele>651.055</ele>
        <time>2019-07-01T18:15:20.781Z</time>
      </trkpt>
      <trkpt lat="40.47879167" lon="-3.51458333">
        <ele>651.055</ele>
        <time>2019-07-01T18:15:21.781Z</time>
      </trkpt>
      <trkpt lat="40.47879167" lon="-3.51458333">
        <ele>651.055</ele>
        <time>2019-07-01T18:15:22.781Z</time>
      </trkpt>
      <trkpt lat="40.47887167" lon="-3.51462333">
        <ele>651.055</ele>
        <time>2019-07-01T18:15:23.781Z</time>
      </trkpt>
      <trkpt lat="40.478905" lon="-3.51464333">
        <ele>652.055</ele>
        <time>2019-07-01T18:15:24.781Z</time>
      </trkpt>
      <trkpt lat="40.478905" lon="-3.51464333">
        <ele>652.055</ele>
        <time>2019-07-01T18:15:25.781Z</time>
      </trkpt>
      <trkpt lat="40.47898" lon="-3.51468333">
        <ele>652.055</ele>
        <time>2019-07-01T18:15:26.781Z</time>
      </trkpt>
      <trkpt lat="40.47902" lon="-3.51470167">
        <ele>652.055</ele>
        <time>2019-07-01T18:15:27.781Z</time>
      </trkpt>
      <trkpt lat="40.47902" lon="-3.51470167">
        <ele>653.055</ele>
        <time>2019-07-01T18:15:28.781Z</time>
      </trkpt>
      <trkpt lat="40.47911167" lon="-3.51474167">
        <ele>653.055</ele>
        <time>2019-07-01T18:15:29.781Z</time>
      </trkpt>
      <trkpt lat="40.479155" lon="-3.514765">
        <ele>653.055</ele>
        <time>2019-07-01T18:15:30.781Z</time>
      </trkpt>
      <trkpt lat="40.479155" lon="-3.514765">
        <ele>653.055</ele>
        <time>2019-07-01T18:15:31.781Z</time>
      </trkpt>
      <trkpt lat="40.47923167" lon="-3.51481">
        <ele>654.055</ele>
        <time>2019-07-01T18:15:32.781Z</time>
      </trkpt>
      <trkpt lat="40.47923167" lon="-3.51481">
        <ele>654.055</ele>
        <time>2019-07-01T18:15:33.781Z</time>
      </trkpt>
      <trkpt lat="40.47931167" lon="-3.51485167">
        <ele>654.055</ele>
        <time>2019-07-01T18:15:34.781Z</time>
      </trkpt>
      <trkpt lat="40.47931167" lon="-3.51485167">
        <ele>654.055</ele>
        <time>2019-07-01T18:15:35.781Z</time>
      </trkpt>
      <trkpt lat="40.47939167" lon="-3.514895">
        <ele>655.055</ele>
        <time>2019-07-01T18:15:36.781Z</time>
      </trkpt>
      <trkpt lat="40.47939167" lon="-3.514895">
        <ele>655.055</ele>
        <time>2019-07-01T18:15:37.781Z</time>
      </trkpt>
      <trkpt lat="40.479475" lon="-3.514935">
        <ele>655.055</ele>
        <time>2019-07-01T18:15:38.781Z</time>
      </trkpt>
      <trkpt lat="40.479475" lon="-3.514935">
        <ele>655.055</ele>
        <time>2019-07-01T18:15:39.781Z</time>
      </trkpt>
      <trkpt lat="40.47955667" lon="-3.51497833">
        <ele>656.055</ele>
        <time>2019-07-01T18:15:40.781Z</time>
      </trkpt>
      <trkpt lat="40.4796" lon="-3.515">
        <ele>656.055</ele>
        <time>2019-07-01T18:15:41.781Z</time>
      </trkpt>
      <trkpt lat="40.47964333" lon="-3.51502167">
        <ele>656.055</ele>
        <time>2019-07-01T18:15:42.781Z</time>
      </trkpt>
      <trkpt lat="40.47964333" lon="-3.51502167">
        <ele>656.055</ele>
        <time>2019-07-01T18:15:43.781Z</time>
      </trkpt>
      <trkpt lat="40.47973833" lon="-3.51507167">
        <ele>656.055</ele>
        <time>2019-07-01T18:15:44.781Z</time>
      </trkpt>
      <trkpt lat="40.47978333" lon="-3.51509667">
        <ele>656.055</ele>
        <time>2019-07-01T18:15:45.781Z</time>
      </trkpt>
      <trkpt lat="40.47983167" lon="-3.51512167">
        <ele>656.055</ele>
        <time>2019-07-01T18:15:46.781Z</time>
      </trkpt>
      <trkpt lat="40.47983167" lon="-3.51512167">
        <ele>656.055</ele>
        <time>2019-07-01T18:15:47.781Z</time>
      </trkpt>
      <trkpt lat="40.479925" lon="-3.51517">
        <ele>656.055</ele>
        <time>2019-07-01T18:15:48.781Z</time>
      </trkpt>
      <trkpt lat="40.479925" lon="-3.51517">
        <ele>656.055</ele>
        <time>2019-07-01T18:15:49.781Z</time>
      </trkpt>
      <trkpt lat="40.48002667" lon="-3.51522167">
        <ele>656.055</ele>
        <time>2019-07-01T18:15:50.781Z</time>
      </trkpt>
      <trkpt lat="40.48002667" lon="-3.51522167">
        <ele>656.055</ele>
        <time>2019-07-01T18:15:51.781Z</time>
      </trkpt>
      <trkpt lat="40.48014167" lon="-3.51527667">
        <ele>656.055</ele>
        <time>2019-07-01T18:15:52.781Z</time>
      </trkpt>
      <trkpt lat="40.48014167" lon="-3.51527667">
        <ele>656.055</ele>
        <time>2019-07-01T18:15:53.781Z</time>
      </trkpt>
      <trkpt lat="40.48026667" lon="-3.51531667">
        <ele>656.055</ele>
        <time>2019-07-01T18:15:54.781Z</time>
      </trkpt>
      <trkpt lat="40.48026667" lon="-3.51531667">
        <ele>655.055</ele>
        <time>2019-07-01T18:15:55.781Z</time>
      </trkpt>
      <trkpt lat="40.48041" lon="-3.51535333">
        <ele>655.055</ele>
        <time>2019-07-01T18:15:56.781Z</time>
      </trkpt>
      <trkpt lat="40.48049" lon="-3.51536833">
        <ele>654.055</ele>
        <time>2019-07-01T18:15:57.781Z</time>
      </trkpt>
      <trkpt lat="40.48049" lon="-3.51536833">
        <ele>654.055</ele>
        <time>2019-07-01T18:15:58.781Z</time>
      </trkpt>
      <trkpt lat="40.48066167" lon="-3.515405">
        <ele>654.055</ele>
        <time>2019-07-01T18:15:59.781Z</time>
      </trkpt>
      <trkpt lat="40.48075" lon="-3.51542833">
        <ele>653.055</ele>
        <time>2019-07-01T18:16:00.781Z</time>
      </trkpt>
      <trkpt lat="40.48075" lon="-3.51542833">
        <ele>653.055</ele>
        <time>2019-07-01T18:16:01.781Z</time>
      </trkpt>
      <trkpt lat="40.48092333" lon="-3.51548667">
        <ele>652.055</ele>
        <time>2019-07-01T18:16:02.781Z</time>
      </trkpt>
      <trkpt lat="40.48100833" lon="-3.51552">
        <ele>652.055</ele>
        <time>2019-07-01T18:16:03.781Z</time>
      </trkpt>
      <trkpt lat="40.48108833" lon="-3.51556333">
        <ele>651.055</ele>
        <time>2019-07-01T18:16:04.781Z</time>
      </trkpt>
      <trkpt lat="40.48108833" lon="-3.51556333">
        <ele>651.055</ele>
        <time>2019-07-01T18:16:05.781Z</time>
      </trkpt>
      <trkpt lat="40.48124" lon="-3.51564667">
        <ele>651.055</ele>
        <time>2019-07-01T18:16:06.781Z</time>
      </trkpt>
      <trkpt lat="40.48124" lon="-3.51564667">
        <ele>651.055</ele>
        <time>2019-07-01T18:16:07.781Z</time>
      </trkpt>
      <trkpt lat="40.48138167" lon="-3.51571333">
        <ele>650.055</ele>
        <time>2019-07-01T18:16:08.781Z</time>
      </trkpt>
      <trkpt lat="40.48144833" lon="-3.515745">
        <ele>650.055</ele>
        <time>2019-07-01T18:16:09.781Z</time>
      </trkpt>
      <trkpt lat="40.48144833" lon="-3.515745">
        <ele>650.055</ele>
        <time>2019-07-01T18:16:10.781Z</time>
      </trkpt>
      <trkpt lat="40.48157667" lon="-3.51580833">
        <ele>650.055</ele>
        <time>2019-07-01T18:16:11.781Z</time>
      </trkpt>
      <trkpt lat="40.48163667" lon="-3.51584333">
        <ele>649.055</ele>
        <time>2019-07-01T18:16:12.781Z</time>
      </trkpt>
      <trkpt lat="40.48163667" lon="-3.51584333">
        <ele>649.055</ele>
        <time>2019-07-01T18:16:13.781Z</time>
      </trkpt>
      <trkpt lat="40.48174833" lon="-3.51591667">
        <ele>649.055</ele>
        <time>2019-07-01T18:16:14.781Z</time>
      </trkpt>
      <trkpt lat="40.48174833" lon="-3.51591667">
        <ele>649.055</ele>
        <time>2019-07-01T18:16:15.781Z</time>
      </trkpt>
      <trkpt lat="40.48185833" lon="-3.51598833">
        <ele>649.055</ele>
        <time>2019-07-01T18:16:16.781Z</time>
      </trkpt>
      <trkpt lat="40.481915" lon="-3.51602">
        <ele>649.055</ele>
        <time>2019-07-01T18:16:17.781Z</time>
      </trkpt>
      <trkpt lat="40.48197333" lon="-3.51604833">
        <ele>649.055</ele>
        <time>2019-07-01T18:16:18.781Z</time>
      </trkpt>
      <trkpt lat="40.48197333" lon="-3.51604833">
        <ele>649.055</ele>
        <time>2019-07-01T18:16:19.781Z</time>
      </trkpt>
      <trkpt lat="40.48209167" lon="-3.51609667">
        <ele>649.055</ele>
        <time>2019-07-01T18:16:20.781Z</time>
      </trkpt>
      <trkpt lat="40.48209167" lon="-3.51609667">
        <ele>649.055</ele>
        <time>2019-07-01T18:16:21.781Z</time>
      </trkpt>
      <trkpt lat="40.48220833" lon="-3.51614333">
        <ele>649.055</ele>
        <time>2019-07-01T18:16:22.781Z</time>
      </trkpt>
      <trkpt lat="40.48220833" lon="-3.51614333">
        <ele>649.055</ele>
        <time>2019-07-01T18:16:23.781Z</time>
      </trkpt>
      <trkpt lat="40.48232667" lon="-3.51619833">
        <ele>649.055</ele>
        <time>2019-07-01T18:16:24.781Z</time>
      </trkpt>
      <trkpt lat="40.48232667" lon="-3.51619833">
        <ele>649.055</ele>
        <time>2019-07-01T18:16:25.781Z</time>
      </trkpt>
      <trkpt lat="40.48244167" lon="-3.51625">
        <ele>649.055</ele>
        <time>2019-07-01T18:16:26.781Z</time>
      </trkpt>
      <trkpt lat="40.48249667" lon="-3.51627167">
        <ele>649.055</ele>
        <time>2019-07-01T18:16:27.781Z</time>
      </trkpt>
      <trkpt lat="40.48249667" lon="-3.51627167">
        <ele>649.055</ele>
        <time>2019-07-01T18:16:28.781Z</time>
      </trkpt>
      <trkpt lat="40.48260667" lon="-3.51631667">
        <ele>649.055</ele>
        <time>2019-07-01T18:16:29.781Z</time>
      </trkpt>
      <trkpt lat="40.48260667" lon="-3.51631667">
        <ele>649.055</ele>
        <time>2019-07-01T18:16:30.781Z</time>
      </trkpt>
      <trkpt lat="40.48271167" lon="-3.51636167">
        <ele>649.055</ele>
        <time>2019-07-01T18:16:31.781Z</time>
      </trkpt>
      <trkpt lat="40.48271167" lon="-3.51636167">
        <ele>649.055</ele>
        <time>2019-07-01T18:16:32.781Z</time>
      </trkpt>
      <trkpt lat="40.48281667" lon="-3.51640167">
        <ele>649.055</ele>
        <time>2019-07-01T18:16:33.781Z</time>
      </trkpt>
      <trkpt lat="40.48281667" lon="-3.51640167">
        <ele>649.055</ele>
        <time>2019-07-01T18:16:34.781Z</time>
      </trkpt>
      <trkpt lat="40.48292167" lon="-3.51644333">
        <ele>649.055</ele>
        <time>2019-07-01T18:16:35.781Z</time>
      </trkpt>
      <trkpt lat="40.48292167" lon="-3.51644333">
        <ele>649.055</ele>
        <time>2019-07-01T18:16:36.781Z</time>
      </trkpt>
      <trkpt lat="40.48302" lon="-3.51650167">
        <ele>649.055</ele>
        <time>2019-07-01T18:16:37.781Z</time>
      </trkpt>
      <trkpt lat="40.48306833" lon="-3.516535">
        <ele>649.055</ele>
        <time>2019-07-01T18:16:38.781Z</time>
      </trkpt>
      <trkpt lat="40.48306833" lon="-3.516535">
        <ele>649.055</ele>
        <time>2019-07-01T18:16:39.781Z</time>
      </trkpt>
      <trkpt lat="40.48315667" lon="-3.51659833">
        <ele>650.055</ele>
        <time>2019-07-01T18:16:40.781Z</time>
      </trkpt>
      <trkpt lat="40.48315667" lon="-3.51659833">
        <ele>650.055</ele>
        <time>2019-07-01T18:16:41.781Z</time>
      </trkpt>
      <trkpt lat="40.48324" lon="-3.51666333">
        <ele>650.055</ele>
        <time>2019-07-01T18:16:42.781Z</time>
      </trkpt>
      <trkpt lat="40.48324" lon="-3.51666333">
        <ele>650.055</ele>
        <time>2019-07-01T18:16:43.781Z</time>
      </trkpt>
      <trkpt lat="40.48332333" lon="-3.51673167">
        <ele>650.055</ele>
        <time>2019-07-01T18:16:44.781Z</time>
      </trkpt>
      <trkpt lat="40.48332333" lon="-3.51673167">
        <ele>650.055</ele>
        <time>2019-07-01T18:16:45.781Z</time>
      </trkpt>
      <trkpt lat="40.48340667" lon="-3.5168">
        <ele>651.055</ele>
        <time>2019-07-01T18:16:46.781Z</time>
      </trkpt>
      <trkpt lat="40.48345" lon="-3.51683167">
        <ele>651.055</ele>
        <time>2019-07-01T18:16:47.781Z</time>
      </trkpt>
      <trkpt lat="40.48349167" lon="-3.51686333">
        <ele>651.055</ele>
        <time>2019-07-01T18:16:48.781Z</time>
      </trkpt>
      <trkpt lat="40.48349167" lon="-3.51686333">
        <ele>651.055</ele>
        <time>2019-07-01T18:16:49.781Z</time>
      </trkpt>
      <trkpt lat="40.48357" lon="-3.51692667">
        <ele>651.055</ele>
        <time>2019-07-01T18:16:50.781Z</time>
      </trkpt>
      <trkpt lat="40.48357" lon="-3.51692667">
        <ele>651.055</ele>
        <time>2019-07-01T18:16:51.781Z</time>
      </trkpt>
      <trkpt lat="40.48365333" lon="-3.51698333">
        <ele>651.055</ele>
        <time>2019-07-01T18:16:52.781Z</time>
      </trkpt>
      <trkpt lat="40.48365333" lon="-3.51698333">
        <ele>651.055</ele>
        <time>2019-07-01T18:16:53.781Z</time>
      </trkpt>
      <trkpt lat="40.48374" lon="-3.517025">
        <ele>651.055</ele>
        <time>2019-07-01T18:16:54.781Z</time>
      </trkpt>
      <trkpt lat="40.48374" lon="-3.517025">
        <ele>651.055</ele>
        <time>2019-07-01T18:16:55.781Z</time>
      </trkpt>
      <trkpt lat="40.48382833" lon="-3.51705167">
        <ele>652.055</ele>
        <time>2019-07-01T18:16:56.781Z</time>
      </trkpt>
      <trkpt lat="40.48387333" lon="-3.51706">
        <ele>652.055</ele>
        <time>2019-07-01T18:16:57.781Z</time>
      </trkpt>
      <trkpt lat="40.48387333" lon="-3.51706">
        <ele>652.055</ele>
        <time>2019-07-01T18:16:58.781Z</time>
      </trkpt>
      <trkpt lat="40.48395833" lon="-3.51706833">
        <ele>652.055</ele>
        <time>2019-07-01T18:16:59.781Z</time>
      </trkpt>
      <trkpt lat="40.484" lon="-3.51707167">
        <ele>652.055</ele>
        <time>2019-07-01T18:17:00.781Z</time>
      </trkpt>
      <trkpt lat="40.484" lon="-3.51707167">
        <ele>652.055</ele>
        <time>2019-07-01T18:17:01.781Z</time>
      </trkpt>
      <trkpt lat="40.484085" lon="-3.517085">
        <ele>652.055</ele>
        <time>2019-07-01T18:17:02.781Z</time>
      </trkpt>
      <trkpt lat="40.484085" lon="-3.517085">
        <ele>653.055</ele>
        <time>2019-07-01T18:17:03.781Z</time>
      </trkpt>
      <trkpt lat="40.48417333" lon="-3.51711">
        <ele>653.055</ele>
        <time>2019-07-01T18:17:04.781Z</time>
      </trkpt>
      <trkpt lat="40.48417333" lon="-3.51711">
        <ele>653.055</ele>
        <time>2019-07-01T18:17:05.781Z</time>
      </trkpt>
      <trkpt lat="40.48426167" lon="-3.51713833">
        <ele>653.055</ele>
        <time>2019-07-01T18:17:06.781Z</time>
      </trkpt>
      <trkpt lat="40.48426167" lon="-3.51713833">
        <ele>653.055</ele>
        <time>2019-07-01T18:17:07.781Z</time>
      </trkpt>
      <trkpt lat="40.48434667" lon="-3.51717167">
        <ele>653.055</ele>
        <time>2019-07-01T18:17:08.781Z</time>
      </trkpt>
      <trkpt lat="40.48434667" lon="-3.51717167">
        <ele>655.055</ele>
        <time>2019-07-01T18:17:09.781Z</time>
      </trkpt>
      <trkpt lat="40.48443667" lon="-3.517205">
        <ele>655.055</ele>
        <time>2019-07-01T18:17:10.781Z</time>
      </trkpt>
      <trkpt lat="40.48443667" lon="-3.517205">
        <ele>655.055</ele>
        <time>2019-07-01T18:17:11.781Z</time>
      </trkpt>
      <trkpt lat="40.48452333" lon="-3.51724667">
        <ele>655.055</ele>
        <time>2019-07-01T18:17:12.781Z</time>
      </trkpt>
      <trkpt lat="40.48452333" lon="-3.51724667">
        <ele>655.055</ele>
        <time>2019-07-01T18:17:13.781Z</time>
      </trkpt>
      <trkpt lat="40.48461167" lon="-3.51728667">
        <ele>655.055</ele>
        <time>2019-07-01T18:17:14.781Z</time>
      </trkpt>
      <trkpt lat="40.48465667" lon="-3.517305">
        <ele>656.055</ele>
        <time>2019-07-01T18:17:15.781Z</time>
      </trkpt>
      <trkpt lat="40.48465667" lon="-3.517305">
        <ele>656.055</ele>
        <time>2019-07-01T18:17:16.781Z</time>
      </trkpt>
      <trkpt lat="40.48474833" lon="-3.51734833">
        <ele>656.055</ele>
        <time>2019-07-01T18:17:17.781Z</time>
      </trkpt>
      <trkpt lat="40.48479167" lon="-3.51736833">
        <ele>656.055</ele>
        <time>2019-07-01T18:17:18.781Z</time>
      </trkpt>
      <trkpt lat="40.48479167" lon="-3.51736833">
        <ele>656.055</ele>
        <time>2019-07-01T18:17:19.781Z</time>
      </trkpt>
      <trkpt lat="40.48488" lon="-3.517415">
        <ele>656.055</ele>
        <time>2019-07-01T18:17:20.781Z</time>
      </trkpt>
      <trkpt lat="40.48488" lon="-3.517415">
        <ele>656.055</ele>
        <time>2019-07-01T18:17:21.781Z</time>
      </trkpt>
      <trkpt lat="40.48496667" lon="-3.51746833">
        <ele>656.055</ele>
        <time>2019-07-01T18:17:22.781Z</time>
      </trkpt>
      <trkpt lat="40.48496667" lon="-3.51746833">
        <ele>657.055</ele>
        <time>2019-07-01T18:17:23.781Z</time>
      </trkpt>
      <trkpt lat="40.48504667" lon="-3.51753333">
        <ele>657.055</ele>
        <time>2019-07-01T18:17:24.781Z</time>
      </trkpt>
      <trkpt lat="40.48504667" lon="-3.51753333">
        <ele>657.055</ele>
        <time>2019-07-01T18:17:25.781Z</time>
      </trkpt>
      <trkpt lat="40.48511833" lon="-3.51761167">
        <ele>657.055</ele>
        <time>2019-07-01T18:17:26.781Z</time>
      </trkpt>
      <trkpt lat="40.48511833" lon="-3.51761167">
        <ele>657.055</ele>
        <time>2019-07-01T18:17:27.781Z</time>
      </trkpt>
      <trkpt lat="40.48518667" lon="-3.51769167">
        <ele>657.055</ele>
        <time>2019-07-01T18:17:28.781Z</time>
      </trkpt>
      <trkpt lat="40.48518667" lon="-3.51769167">
        <ele>657.055</ele>
        <time>2019-07-01T18:17:29.781Z</time>
      </trkpt>
      <trkpt lat="40.48525333" lon="-3.51777667">
        <ele>657.055</ele>
        <time>2019-07-01T18:17:30.781Z</time>
      </trkpt>
      <trkpt lat="40.48525333" lon="-3.51777667">
        <ele>658.055</ele>
        <time>2019-07-01T18:17:31.781Z</time>
      </trkpt>
      <trkpt lat="40.48531833" lon="-3.517865">
        <ele>658.055</ele>
        <time>2019-07-01T18:17:32.781Z</time>
      </trkpt>
      <trkpt lat="40.48535" lon="-3.51791167">
        <ele>658.055</ele>
        <time>2019-07-01T18:17:33.781Z</time>
      </trkpt>
      <trkpt lat="40.48535" lon="-3.51791167">
        <ele>658.055</ele>
        <time>2019-07-01T18:17:34.781Z</time>
      </trkpt>
      <trkpt lat="40.48541" lon="-3.51800333">
        <ele>658.055</ele>
        <time>2019-07-01T18:17:35.781Z</time>
      </trkpt>
      <trkpt lat="40.48541" lon="-3.51800333">
        <ele>658.055</ele>
        <time>2019-07-01T18:17:36.781Z</time>
      </trkpt>
      <trkpt lat="40.48547333" lon="-3.51809333">
        <ele>659.055</ele>
        <time>2019-07-01T18:17:37.781Z</time>
      </trkpt>
      <trkpt lat="40.485505" lon="-3.51813667">
        <ele>659.055</ele>
        <time>2019-07-01T18:17:38.781Z</time>
      </trkpt>
      <trkpt lat="40.485505" lon="-3.51813667">
        <ele>659.055</ele>
        <time>2019-07-01T18:17:39.781Z</time>
      </trkpt>
      <trkpt lat="40.48557" lon="-3.51821833">
        <ele>659.055</ele>
        <time>2019-07-01T18:17:40.781Z</time>
      </trkpt>
      <trkpt lat="40.48557" lon="-3.51821833">
        <ele>660.055</ele>
        <time>2019-07-01T18:17:41.781Z</time>
      </trkpt>
      <trkpt lat="40.485635" lon="-3.518295">
        <ele>660.055</ele>
        <time>2019-07-01T18:17:42.781Z</time>
      </trkpt>
      <trkpt lat="40.485635" lon="-3.518295">
        <ele>660.055</ele>
        <time>2019-07-01T18:17:43.781Z</time>
      </trkpt>
      <trkpt lat="40.4857" lon="-3.51836333">
        <ele>660.055</ele>
        <time>2019-07-01T18:17:44.781Z</time>
      </trkpt>
      <trkpt lat="40.4857" lon="-3.51836333">
        <ele>661.055</ele>
        <time>2019-07-01T18:17:45.781Z</time>
      </trkpt>
      <trkpt lat="40.48576833" lon="-3.51842333">
        <ele>661.055</ele>
        <time>2019-07-01T18:17:46.781Z</time>
      </trkpt>
      <trkpt lat="40.48580333" lon="-3.51845333">
        <ele>661.055</ele>
        <time>2019-07-01T18:17:47.781Z</time>
      </trkpt>
      <trkpt lat="40.48580333" lon="-3.51845333">
        <ele>661.055</ele>
        <time>2019-07-01T18:17:48.781Z</time>
      </trkpt>
      <trkpt lat="40.48587333" lon="-3.518515">
        <ele>662.055</ele>
        <time>2019-07-01T18:17:49.781Z</time>
      </trkpt>
      <trkpt lat="40.485905" lon="-3.51855">
        <ele>662.055</ele>
        <time>2019-07-01T18:17:50.781Z</time>
      </trkpt>
      <trkpt lat="40.485905" lon="-3.51855">
        <ele>662.055</ele>
        <time>2019-07-01T18:17:51.781Z</time>
      </trkpt>
      <trkpt lat="40.48595833" lon="-3.51862667">
        <ele>662.055</ele>
        <time>2019-07-01T18:17:52.781Z</time>
      </trkpt>
      <trkpt lat="40.48595833" lon="-3.51862667">
        <ele>662.055</ele>
        <time>2019-07-01T18:17:53.781Z</time>
      </trkpt>
      <trkpt lat="40.486005" lon="-3.51871167">
        <ele>662.055</ele>
        <time>2019-07-01T18:17:54.781Z</time>
      </trkpt>
      <trkpt lat="40.486005" lon="-3.51871167">
        <ele>662.055</ele>
        <time>2019-07-01T18:17:55.781Z</time>
      </trkpt>
      <trkpt lat="40.48604" lon="-3.51879667">
        <ele>662.055</ele>
        <time>2019-07-01T18:17:56.781Z</time>
      </trkpt>
      <trkpt lat="40.48604" lon="-3.51879667">
        <ele>662.055</ele>
        <time>2019-07-01T18:17:57.781Z</time>
      </trkpt>
      <trkpt lat="40.48607833" lon="-3.51887667">
        <ele>663.055</ele>
        <time>2019-07-01T18:17:58.781Z</time>
      </trkpt>
      <trkpt lat="40.48607833" lon="-3.51887667">
        <ele>663.055</ele>
        <time>2019-07-01T18:17:59.781Z</time>
      </trkpt>
      <trkpt lat="40.48611833" lon="-3.51895833">
        <ele>663.055</ele>
        <time>2019-07-01T18:18:00.781Z</time>
      </trkpt>
      <trkpt lat="40.48611833" lon="-3.51895833">
        <ele>663.055</ele>
        <time>2019-07-01T18:18:01.781Z</time>
      </trkpt>
      <trkpt lat="40.48616333" lon="-3.51903667">
        <ele>664.055</ele>
        <time>2019-07-01T18:18:02.781Z</time>
      </trkpt>
      <trkpt lat="40.48616333" lon="-3.51903667">
        <ele>664.055</ele>
        <time>2019-07-01T18:18:03.781Z</time>
      </trkpt>
      <trkpt lat="40.48621333" lon="-3.51910833">
        <ele>664.055</ele>
        <time>2019-07-01T18:18:04.781Z</time>
      </trkpt>
      <trkpt lat="40.48623833" lon="-3.51914333">
        <ele>664.055</ele>
        <time>2019-07-01T18:18:05.781Z</time>
      </trkpt>
      <trkpt lat="40.48626333" lon="-3.519175">
        <ele>665.055</ele>
        <time>2019-07-01T18:18:06.781Z</time>
      </trkpt>
      <trkpt lat="40.48626333" lon="-3.519175">
        <ele>665.055</ele>
        <time>2019-07-01T18:18:07.781Z</time>
      </trkpt>
      <trkpt lat="40.48632" lon="-3.51923333">
        <ele>665.055</ele>
        <time>2019-07-01T18:18:08.781Z</time>
      </trkpt>
      <trkpt lat="40.48632" lon="-3.51923333">
        <ele>665.055</ele>
        <time>2019-07-01T18:18:09.781Z</time>
      </trkpt>
      <trkpt lat="40.48638167" lon="-3.51928333">
        <ele>667.055</ele>
        <time>2019-07-01T18:18:10.781Z</time>
      </trkpt>
      <trkpt lat="40.48638167" lon="-3.51928333">
        <ele>667.055</ele>
        <time>2019-07-01T18:18:11.781Z</time>
      </trkpt>
      <trkpt lat="40.48645" lon="-3.51932833">
        <ele>667.055</ele>
        <time>2019-07-01T18:18:12.781Z</time>
      </trkpt>
      <trkpt lat="40.48645" lon="-3.51932833">
        <ele>667.055</ele>
        <time>2019-07-01T18:18:13.781Z</time>
      </trkpt>
      <trkpt lat="40.48652" lon="-3.51936667">
        <ele>667.055</ele>
        <time>2019-07-01T18:18:14.781Z</time>
      </trkpt>
      <trkpt lat="40.48652" lon="-3.51936667">
        <ele>667.055</ele>
        <time>2019-07-01T18:18:15.781Z</time>
      </trkpt>
      <trkpt lat="40.48659333" lon="-3.51939833">
        <ele>669.055</ele>
        <time>2019-07-01T18:18:16.781Z</time>
      </trkpt>
      <trkpt lat="40.48659333" lon="-3.51939833">
        <ele>669.055</ele>
        <time>2019-07-01T18:18:17.781Z</time>
      </trkpt>
      <trkpt lat="40.48666667" lon="-3.51942333">
        <ele>669.055</ele>
        <time>2019-07-01T18:18:18.781Z</time>
      </trkpt>
      <trkpt lat="40.48666667" lon="-3.51942333">
        <ele>669.055</ele>
        <time>2019-07-01T18:18:19.781Z</time>
      </trkpt>
      <trkpt lat="40.48674167" lon="-3.519445">
        <ele>670.055</ele>
        <time>2019-07-01T18:18:20.781Z</time>
      </trkpt>
      <trkpt lat="40.48678167" lon="-3.51945333">
        <ele>670.055</ele>
        <time>2019-07-01T18:18:21.781Z</time>
      </trkpt>
      <trkpt lat="40.48678167" lon="-3.51945333">
        <ele>671.055</ele>
        <time>2019-07-01T18:18:22.781Z</time>
      </trkpt>
      <trkpt lat="40.48687167" lon="-3.51946667">
        <ele>671.055</ele>
        <time>2019-07-01T18:18:23.781Z</time>
      </trkpt>
      <trkpt lat="40.48687167" lon="-3.51946667">
        <ele>672.055</ele>
        <time>2019-07-01T18:18:24.781Z</time>
      </trkpt>
      <trkpt lat="40.48697167" lon="-3.51947167">
        <ele>672.055</ele>
        <time>2019-07-01T18:18:25.781Z</time>
      </trkpt>
      <trkpt lat="40.487025" lon="-3.51947">
        <ele>672.055</ele>
        <time>2019-07-01T18:18:26.781Z</time>
      </trkpt>
      <trkpt lat="40.487025" lon="-3.51947">
        <ele>672.055</ele>
        <time>2019-07-01T18:18:27.781Z</time>
      </trkpt>
      <trkpt lat="40.48715167" lon="-3.519465">
        <ele>673.055</ele>
        <time>2019-07-01T18:18:28.781Z</time>
      </trkpt>
      <trkpt lat="40.48715167" lon="-3.519465">
        <ele>673.055</ele>
        <time>2019-07-01T18:18:29.781Z</time>
      </trkpt>
      <trkpt lat="40.48729833" lon="-3.51948833">
        <ele>673.055</ele>
        <time>2019-07-01T18:18:30.781Z</time>
      </trkpt>
      <trkpt lat="40.48729833" lon="-3.51948833">
        <ele>673.055</ele>
        <time>2019-07-01T18:18:31.781Z</time>
      </trkpt>
      <trkpt lat="40.48744167" lon="-3.519575">
        <ele>673.055</ele>
        <time>2019-07-01T18:18:32.781Z</time>
      </trkpt>
      <trkpt lat="40.487505" lon="-3.51963667">
        <ele>673.055</ele>
        <time>2019-07-01T18:18:33.781Z</time>
      </trkpt>
      <trkpt lat="40.487505" lon="-3.51963667">
        <ele>673.055</ele>
        <time>2019-07-01T18:18:34.781Z</time>
      </trkpt>
      <trkpt lat="40.48762333" lon="-3.51977833">
        <ele>673.055</ele>
        <time>2019-07-01T18:18:35.781Z</time>
      </trkpt>
      <trkpt lat="40.48768167" lon="-3.51985167">
        <ele>671.055</ele>
        <time>2019-07-01T18:18:36.781Z</time>
      </trkpt>
      <trkpt lat="40.48768167" lon="-3.51985167">
        <ele>671.055</ele>
        <time>2019-07-01T18:18:37.781Z</time>
      </trkpt>
      <trkpt lat="40.48779" lon="-3.51999833">
        <ele>671.055</ele>
        <time>2019-07-01T18:18:38.781Z</time>
      </trkpt>
      <trkpt lat="40.48779" lon="-3.51999833">
        <ele>671.055</ele>
        <time>2019-07-01T18:18:39.781Z</time>
      </trkpt>
      <trkpt lat="40.48789833" lon="-3.52011833">
        <ele>671.055</ele>
        <time>2019-07-01T18:18:40.781Z</time>
      </trkpt>
      <trkpt lat="40.48795333" lon="-3.52016667">
        <ele>671.055</ele>
        <time>2019-07-01T18:18:41.781Z</time>
      </trkpt>
      <trkpt lat="40.48795333" lon="-3.52016667">
        <ele>671.055</ele>
        <time>2019-07-01T18:18:42.781Z</time>
      </trkpt>
      <trkpt lat="40.48807167" lon="-3.520235">
        <ele>671.055</ele>
        <time>2019-07-01T18:18:43.781Z</time>
      </trkpt>
      <trkpt lat="40.48813167" lon="-3.52026">
        <ele>671.055</ele>
        <time>2019-07-01T18:18:44.781Z</time>
      </trkpt>
      <trkpt lat="40.48813167" lon="-3.52026">
        <ele>670.055</ele>
        <time>2019-07-01T18:18:45.781Z</time>
      </trkpt>
      <trkpt lat="40.48825167" lon="-3.52029333">
        <ele>670.055</ele>
        <time>2019-07-01T18:18:46.781Z</time>
      </trkpt>
      <trkpt lat="40.48825167" lon="-3.52029333">
        <ele>670.055</ele>
        <time>2019-07-01T18:18:47.781Z</time>
      </trkpt>
      <trkpt lat="40.48837167" lon="-3.520305">
        <ele>670.055</ele>
        <time>2019-07-01T18:18:48.781Z</time>
      </trkpt>
      <trkpt lat="40.48837167" lon="-3.520305">
        <ele>670.055</ele>
        <time>2019-07-01T18:18:49.781Z</time>
      </trkpt>
      <trkpt lat="40.48848333" lon="-3.52030333">
        <ele>670.055</ele>
        <time>2019-07-01T18:18:50.781Z</time>
      </trkpt>
      <trkpt lat="40.48848333" lon="-3.52030333">
        <ele>670.055</ele>
        <time>2019-07-01T18:18:51.781Z</time>
      </trkpt>
      <trkpt lat="40.488585" lon="-3.5203">
        <ele>670.055</ele>
        <time>2019-07-01T18:18:52.781Z</time>
      </trkpt>
      <trkpt lat="40.48863333" lon="-3.5203">
        <ele>671.055</ele>
        <time>2019-07-01T18:18:53.781Z</time>
      </trkpt>
      <trkpt lat="40.48863333" lon="-3.5203">
        <ele>671.055</ele>
        <time>2019-07-01T18:18:54.781Z</time>
      </trkpt>
      <trkpt lat="40.48872333" lon="-3.5203">
        <ele>671.055</ele>
        <time>2019-07-01T18:18:55.781Z</time>
      </trkpt>
      <trkpt lat="40.48872333" lon="-3.5203">
        <ele>671.055</ele>
        <time>2019-07-01T18:18:56.781Z</time>
      </trkpt>
      <trkpt lat="40.48881167" lon="-3.520295">
        <ele>671.055</ele>
        <time>2019-07-01T18:18:57.781Z</time>
      </trkpt>
      <trkpt lat="40.48881167" lon="-3.520295">
        <ele>672.055</ele>
        <time>2019-07-01T18:18:58.781Z</time>
      </trkpt>
      <trkpt lat="40.48889333" lon="-3.520295">
        <ele>672.055</ele>
        <time>2019-07-01T18:18:59.781Z</time>
      </trkpt>
      <trkpt lat="40.48889333" lon="-3.520295">
        <ele>672.055</ele>
        <time>2019-07-01T18:19:00.781Z</time>
      </trkpt>
      <trkpt lat="40.48897" lon="-3.5203">
        <ele>672.055</ele>
        <time>2019-07-01T18:19:01.781Z</time>
      </trkpt>
      <trkpt lat="40.48900667" lon="-3.52030333">
        <ele>672.055</ele>
        <time>2019-07-01T18:19:02.781Z</time>
      </trkpt>
      <trkpt lat="40.48900667" lon="-3.52030333">
        <ele>672.055</ele>
        <time>2019-07-01T18:19:03.781Z</time>
      </trkpt>
      <trkpt lat="40.48908167" lon="-3.52032">
        <ele>672.055</ele>
        <time>2019-07-01T18:19:04.781Z</time>
      </trkpt>
      <trkpt lat="40.48908167" lon="-3.52032">
        <ele>672.055</ele>
        <time>2019-07-01T18:19:05.781Z</time>
      </trkpt>
      <trkpt lat="40.48915333" lon="-3.52034167">
        <ele>674.055</ele>
        <time>2019-07-01T18:19:06.781Z</time>
      </trkpt>
      <trkpt lat="40.48915333" lon="-3.52034167">
        <ele>674.055</ele>
        <time>2019-07-01T18:19:07.781Z</time>
      </trkpt>
      <trkpt lat="40.48922167" lon="-3.52036333">
        <ele>674.055</ele>
        <time>2019-07-01T18:19:08.781Z</time>
      </trkpt>
      <trkpt lat="40.48925667" lon="-3.52037667">
        <ele>674.055</ele>
        <time>2019-07-01T18:19:09.781Z</time>
      </trkpt>
      <trkpt lat="40.48929333" lon="-3.52039333">
        <ele>675.055</ele>
        <time>2019-07-01T18:19:10.781Z</time>
      </trkpt>
      <trkpt lat="40.48929333" lon="-3.52039333">
        <ele>675.055</ele>
        <time>2019-07-01T18:19:11.781Z</time>
      </trkpt>
      <trkpt lat="40.48936333" lon="-3.52043">
        <ele>676.055</ele>
        <time>2019-07-01T18:19:12.781Z</time>
      </trkpt>
      <trkpt lat="40.48936333" lon="-3.52043">
        <ele>676.055</ele>
        <time>2019-07-01T18:19:13.781Z</time>
      </trkpt>
      <trkpt lat="40.48944" lon="-3.52046333">
        <ele>678.055</ele>
        <time>2019-07-01T18:19:14.781Z</time>
      </trkpt>
      <trkpt lat="40.489475" lon="-3.52048">
        <ele>678.055</ele>
        <time>2019-07-01T18:19:15.781Z</time>
      </trkpt>
      <trkpt lat="40.489475" lon="-3.52048">
        <ele>679.055</ele>
        <time>2019-07-01T18:19:16.781Z</time>
      </trkpt>
      <trkpt lat="40.48954667" lon="-3.52051833">
        <ele>679.055</ele>
        <time>2019-07-01T18:19:17.781Z</time>
      </trkpt>
      <trkpt lat="40.48958167" lon="-3.52054">
        <ele>679.055</ele>
        <time>2019-07-01T18:19:18.781Z</time>
      </trkpt>
      <trkpt lat="40.48958167" lon="-3.52054">
        <ele>679.055</ele>
        <time>2019-07-01T18:19:19.781Z</time>
      </trkpt>
      <trkpt lat="40.48965167" lon="-3.52058333">
        <ele>681.055</ele>
        <time>2019-07-01T18:19:20.781Z</time>
      </trkpt>
      <trkpt lat="40.48968833" lon="-3.520605">
        <ele>681.055</ele>
        <time>2019-07-01T18:19:21.781Z</time>
      </trkpt>
      <trkpt lat="40.48968833" lon="-3.520605">
        <ele>682.055</ele>
        <time>2019-07-01T18:19:22.781Z</time>
      </trkpt>
      <trkpt lat="40.48976333" lon="-3.520645">
        <ele>682.055</ele>
        <time>2019-07-01T18:19:23.781Z</time>
      </trkpt>
      <trkpt lat="40.48979667" lon="-3.520665">
        <ele>682.055</ele>
        <time>2019-07-01T18:19:24.781Z</time>
      </trkpt>
      <trkpt lat="40.48979667" lon="-3.520665">
        <ele>682.055</ele>
        <time>2019-07-01T18:19:25.781Z</time>
      </trkpt>
      <trkpt lat="40.48986167" lon="-3.52071">
        <ele>683.055</ele>
        <time>2019-07-01T18:19:26.781Z</time>
      </trkpt>
      <trkpt lat="40.48986167" lon="-3.52071">
        <ele>683.055</ele>
        <time>2019-07-01T18:19:27.781Z</time>
      </trkpt>
      <trkpt lat="40.489925" lon="-3.52075333">
        <ele>684.055</ele>
        <time>2019-07-01T18:19:28.781Z</time>
      </trkpt>
      <trkpt lat="40.489925" lon="-3.52075333">
        <ele>684.055</ele>
        <time>2019-07-01T18:19:29.781Z</time>
      </trkpt>
      <trkpt lat="40.48999" lon="-3.52079333">
        <ele>684.055</ele>
        <time>2019-07-01T18:19:30.781Z</time>
      </trkpt>
      <trkpt lat="40.48999" lon="-3.52079333">
        <ele>684.055</ele>
        <time>2019-07-01T18:19:31.781Z</time>
      </trkpt>
      <trkpt lat="40.49006" lon="-3.520825">
        <ele>685.055</ele>
        <time>2019-07-01T18:19:32.781Z</time>
      </trkpt>
      <trkpt lat="40.49006" lon="-3.520825">
        <ele>685.055</ele>
        <time>2019-07-01T18:19:33.781Z</time>
      </trkpt>
      <trkpt lat="40.49012833" lon="-3.52085667">
        <ele>685.055</ele>
        <time>2019-07-01T18:19:34.781Z</time>
      </trkpt>
      <trkpt lat="40.49012833" lon="-3.52085667">
        <ele>685.055</ele>
        <time>2019-07-01T18:19:35.781Z</time>
      </trkpt>
      <trkpt lat="40.49019333" lon="-3.52087667">
        <ele>686.055</ele>
        <time>2019-07-01T18:19:36.781Z</time>
      </trkpt>
      <trkpt lat="40.49019333" lon="-3.52087667">
        <ele>686.055</ele>
        <time>2019-07-01T18:19:37.781Z</time>
      </trkpt>
      <trkpt lat="40.490255" lon="-3.520885">
        <ele>686.055</ele>
        <time>2019-07-01T18:19:38.781Z</time>
      </trkpt>
      <trkpt lat="40.490255" lon="-3.520885">
        <ele>686.055</ele>
        <time>2019-07-01T18:19:39.781Z</time>
      </trkpt>
      <trkpt lat="40.49031667" lon="-3.52089333">
        <ele>687.055</ele>
        <time>2019-07-01T18:19:40.781Z</time>
      </trkpt>
      <trkpt lat="40.49031667" lon="-3.52089333">
        <ele>687.055</ele>
        <time>2019-07-01T18:19:41.781Z</time>
      </trkpt>
      <trkpt lat="40.490385" lon="-3.5209">
        <ele>688.055</ele>
        <time>2019-07-01T18:19:42.781Z</time>
      </trkpt>
      <trkpt lat="40.490385" lon="-3.5209">
        <ele>688.055</ele>
        <time>2019-07-01T18:19:43.781Z</time>
      </trkpt>
      <trkpt lat="40.490455" lon="-3.52090667">
        <ele>688.055</ele>
        <time>2019-07-01T18:19:44.781Z</time>
      </trkpt>
      <trkpt lat="40.490455" lon="-3.52090667">
        <ele>688.055</ele>
        <time>2019-07-01T18:19:45.781Z</time>
      </trkpt>
      <trkpt lat="40.49052167" lon="-3.52091333">
        <ele>688.055</ele>
        <time>2019-07-01T18:19:46.781Z</time>
      </trkpt>
      <trkpt lat="40.49052167" lon="-3.52091333">
        <ele>689.055</ele>
        <time>2019-07-01T18:19:47.781Z</time>
      </trkpt>
      <trkpt lat="40.49059" lon="-3.52092167">
        <ele>689.055</ele>
        <time>2019-07-01T18:19:48.781Z</time>
      </trkpt>
      <trkpt lat="40.49059" lon="-3.52092167">
        <ele>689.055</ele>
        <time>2019-07-01T18:19:49.781Z</time>
      </trkpt>
      <trkpt lat="40.49065833" lon="-3.520915">
        <ele>689.055</ele>
        <time>2019-07-01T18:19:50.781Z</time>
      </trkpt>
      <trkpt lat="40.49065833" lon="-3.520915">
        <ele>690.055</ele>
        <time>2019-07-01T18:19:51.781Z</time>
      </trkpt>
      <trkpt lat="40.49072167" lon="-3.52089833">
        <ele>690.055</ele>
        <time>2019-07-01T18:19:52.781Z</time>
      </trkpt>
      <trkpt lat="40.49072167" lon="-3.52089833">
        <ele>690.055</ele>
        <time>2019-07-01T18:19:53.781Z</time>
      </trkpt>
      <trkpt lat="40.49079" lon="-3.52087">
        <ele>690.055</ele>
        <time>2019-07-01T18:19:54.781Z</time>
      </trkpt>
      <trkpt lat="40.49079" lon="-3.52087">
        <ele>690.055</ele>
        <time>2019-07-01T18:19:55.781Z</time>
      </trkpt>
      <trkpt lat="40.49086167" lon="-3.52085667">
        <ele>691.055</ele>
        <time>2019-07-01T18:19:56.781Z</time>
      </trkpt>
      <trkpt lat="40.49086167" lon="-3.52085667">
        <ele>691.055</ele>
        <time>2019-07-01T18:19:57.781Z</time>
      </trkpt>
      <trkpt lat="40.49093333" lon="-3.52083333">
        <ele>692.055</ele>
        <time>2019-07-01T18:19:58.781Z</time>
      </trkpt>
      <trkpt lat="40.49093333" lon="-3.52083333">
        <ele>692.055</ele>
        <time>2019-07-01T18:19:59.781Z</time>
      </trkpt>
      <trkpt lat="40.49101" lon="-3.52081167">
        <ele>692.055</ele>
        <time>2019-07-01T18:20:00.781Z</time>
      </trkpt>
      <trkpt lat="40.49101" lon="-3.52081167">
        <ele>692.055</ele>
        <time>2019-07-01T18:20:01.781Z</time>
      </trkpt>
      <trkpt lat="40.49108667" lon="-3.5208">
        <ele>693.055</ele>
        <time>2019-07-01T18:20:02.781Z</time>
      </trkpt>
      <trkpt lat="40.49108667" lon="-3.5208">
        <ele>693.055</ele>
        <time>2019-07-01T18:20:03.781Z</time>
      </trkpt>
      <trkpt lat="40.49115333" lon="-3.52080333">
        <ele>693.055</ele>
        <time>2019-07-01T18:20:04.781Z</time>
      </trkpt>
      <trkpt lat="40.49115333" lon="-3.52080333">
        <ele>693.055</ele>
        <time>2019-07-01T18:20:05.781Z</time>
      </trkpt>
      <trkpt lat="40.49123" lon="-3.52080167">
        <ele>695.055</ele>
        <time>2019-07-01T18:20:06.781Z</time>
      </trkpt>
      <trkpt lat="40.49123" lon="-3.52080167">
        <ele>695.055</ele>
        <time>2019-07-01T18:20:07.781Z</time>
      </trkpt>
      <trkpt lat="40.4913" lon="-3.52081">
        <ele>695.055</ele>
        <time>2019-07-01T18:20:08.781Z</time>
      </trkpt>
      <trkpt lat="40.4913" lon="-3.52081">
        <ele>695.055</ele>
        <time>2019-07-01T18:20:09.781Z</time>
      </trkpt>
      <trkpt lat="40.49137167" lon="-3.52082667">
        <ele>696.055</ele>
        <time>2019-07-01T18:20:10.781Z</time>
      </trkpt>
      <trkpt lat="40.49140667" lon="-3.520835">
        <ele>696.055</ele>
        <time>2019-07-01T18:20:11.781Z</time>
      </trkpt>
      <trkpt lat="40.49140667" lon="-3.520835">
        <ele>696.055</ele>
        <time>2019-07-01T18:20:12.781Z</time>
      </trkpt>
      <trkpt lat="40.49148" lon="-3.52085833">
        <ele>696.055</ele>
        <time>2019-07-01T18:20:13.781Z</time>
      </trkpt>
      <trkpt lat="40.491515" lon="-3.52087">
        <ele>696.055</ele>
        <time>2019-07-01T18:20:14.781Z</time>
      </trkpt>
      <trkpt lat="40.491515" lon="-3.52087">
        <ele>696.055</ele>
        <time>2019-07-01T18:20:15.781Z</time>
      </trkpt>
      <trkpt lat="40.49158833" lon="-3.52089333">
        <ele>696.055</ele>
        <time>2019-07-01T18:20:16.781Z</time>
      </trkpt>
      <trkpt lat="40.49158833" lon="-3.52089333">
        <ele>696.055</ele>
        <time>2019-07-01T18:20:17.781Z</time>
      </trkpt>
      <trkpt lat="40.49166667" lon="-3.52092167">
        <ele>696.055</ele>
        <time>2019-07-01T18:20:18.781Z</time>
      </trkpt>
      <trkpt lat="40.49166667" lon="-3.52092167">
        <ele>696.055</ele>
        <time>2019-07-01T18:20:19.781Z</time>
      </trkpt>
      <trkpt lat="40.49174167" lon="-3.52094667">
        <ele>696.055</ele>
        <time>2019-07-01T18:20:20.781Z</time>
      </trkpt>
      <trkpt lat="40.49174167" lon="-3.52094667">
        <ele>696.055</ele>
        <time>2019-07-01T18:20:21.781Z</time>
      </trkpt>
      <trkpt lat="40.49181667" lon="-3.520975">
        <ele>697.055</ele>
        <time>2019-07-01T18:20:22.781Z</time>
      </trkpt>
      <trkpt lat="40.49185333" lon="-3.52098833">
        <ele>697.055</ele>
        <time>2019-07-01T18:20:23.781Z</time>
      </trkpt>
      <trkpt lat="40.49189333" lon="-3.52100333">
        <ele>697.055</ele>
        <time>2019-07-01T18:20:24.781Z</time>
      </trkpt>
      <trkpt lat="40.49189333" lon="-3.52100333">
        <ele>697.055</ele>
        <time>2019-07-01T18:20:25.781Z</time>
      </trkpt>
      <trkpt lat="40.49196833" lon="-3.521035">
        <ele>697.055</ele>
        <time>2019-07-01T18:20:26.781Z</time>
      </trkpt>
      <trkpt lat="40.49200833" lon="-3.52105333">
        <ele>697.055</ele>
        <time>2019-07-01T18:20:27.781Z</time>
      </trkpt>
      <trkpt lat="40.49200833" lon="-3.52105333">
        <ele>697.055</ele>
        <time>2019-07-01T18:20:28.781Z</time>
      </trkpt>
      <trkpt lat="40.492085" lon="-3.52109">
        <ele>697.055</ele>
        <time>2019-07-01T18:20:29.781Z</time>
      </trkpt>
      <trkpt lat="40.49212667" lon="-3.521105">
        <ele>697.055</ele>
        <time>2019-07-01T18:20:30.781Z</time>
      </trkpt>
      <trkpt lat="40.49212667" lon="-3.521105">
        <ele>697.055</ele>
        <time>2019-07-01T18:20:31.781Z</time>
      </trkpt>
      <trkpt lat="40.49221167" lon="-3.521135">
        <ele>697.055</ele>
        <time>2019-07-01T18:20:32.781Z</time>
      </trkpt>
      <trkpt lat="40.49225333" lon="-3.52114833">
        <ele>697.055</ele>
        <time>2019-07-01T18:20:33.781Z</time>
      </trkpt>
      <trkpt lat="40.49225333" lon="-3.52114833">
        <ele>697.055</ele>
        <time>2019-07-01T18:20:34.781Z</time>
      </trkpt>
      <trkpt lat="40.49234" lon="-3.52117167">
        <ele>697.055</ele>
        <time>2019-07-01T18:20:35.781Z</time>
      </trkpt>
      <trkpt lat="40.49238333" lon="-3.521185">
        <ele>697.055</ele>
        <time>2019-07-01T18:20:36.781Z</time>
      </trkpt>
      <trkpt lat="40.49238333" lon="-3.521185">
        <ele>698.055</ele>
        <time>2019-07-01T18:20:37.781Z</time>
      </trkpt>
      <trkpt lat="40.492475" lon="-3.52121">
        <ele>698.055</ele>
        <time>2019-07-01T18:20:38.781Z</time>
      </trkpt>
      <trkpt lat="40.492475" lon="-3.52121">
        <ele>698.055</ele>
        <time>2019-07-01T18:20:39.781Z</time>
      </trkpt>
      <trkpt lat="40.49257" lon="-3.52122833">
        <ele>698.055</ele>
        <time>2019-07-01T18:20:40.781Z</time>
      </trkpt>
      <trkpt lat="40.49257" lon="-3.52122833">
        <ele>698.055</ele>
        <time>2019-07-01T18:20:41.781Z</time>
      </trkpt>
      <trkpt lat="40.49267" lon="-3.52124167">
        <ele>698.055</ele>
        <time>2019-07-01T18:20:42.781Z</time>
      </trkpt>
      <trkpt lat="40.49267" lon="-3.52124167">
        <ele>698.055</ele>
        <time>2019-07-01T18:20:43.781Z</time>
      </trkpt>
      <trkpt lat="40.49277167" lon="-3.52125">
        <ele>698.055</ele>
        <time>2019-07-01T18:20:44.781Z</time>
      </trkpt>
      <trkpt lat="40.49282167" lon="-3.52125333">
        <ele>698.055</ele>
        <time>2019-07-01T18:20:45.781Z</time>
      </trkpt>
      <trkpt lat="40.49282167" lon="-3.52125333">
        <ele>698.055</ele>
        <time>2019-07-01T18:20:46.781Z</time>
      </trkpt>
      <trkpt lat="40.49292167" lon="-3.52125333">
        <ele>698.055</ele>
        <time>2019-07-01T18:20:47.781Z</time>
      </trkpt>
      <trkpt lat="40.49292167" lon="-3.52125333">
        <ele>698.055</ele>
        <time>2019-07-01T18:20:48.781Z</time>
      </trkpt>
      <trkpt lat="40.49302333" lon="-3.52124833">
        <ele>698.055</ele>
        <time>2019-07-01T18:20:49.781Z</time>
      </trkpt>
      <trkpt lat="40.49302333" lon="-3.52124833">
        <ele>698.055</ele>
        <time>2019-07-01T18:20:50.781Z</time>
      </trkpt>
      <trkpt lat="40.49312833" lon="-3.52124333">
        <ele>698.055</ele>
        <time>2019-07-01T18:20:51.781Z</time>
      </trkpt>
      <trkpt lat="40.49312833" lon="-3.52124333">
        <ele>698.055</ele>
        <time>2019-07-01T18:20:52.781Z</time>
      </trkpt>
      <trkpt lat="40.49323333" lon="-3.52124">
        <ele>698.055</ele>
        <time>2019-07-01T18:20:53.781Z</time>
      </trkpt>
      <trkpt lat="40.49323333" lon="-3.52124">
        <ele>698.055</ele>
        <time>2019-07-01T18:20:54.781Z</time>
      </trkpt>
      <trkpt lat="40.49333833" lon="-3.52122833">
        <ele>698.055</ele>
        <time>2019-07-01T18:20:55.781Z</time>
      </trkpt>
      <trkpt lat="40.49338833" lon="-3.521225">
        <ele>698.055</ele>
        <time>2019-07-01T18:20:56.781Z</time>
      </trkpt>
      <trkpt lat="40.49338833" lon="-3.521225">
        <ele>698.055</ele>
        <time>2019-07-01T18:20:57.781Z</time>
      </trkpt>
      <trkpt lat="40.49349167" lon="-3.52122167">
        <ele>698.055</ele>
        <time>2019-07-01T18:20:58.781Z</time>
      </trkpt>
      <trkpt lat="40.49349167" lon="-3.52122167">
        <ele>698.055</ele>
        <time>2019-07-01T18:20:59.781Z</time>
      </trkpt>
      <trkpt lat="40.493595" lon="-3.52122333">
        <ele>698.055</ele>
        <time>2019-07-01T18:21:00.781Z</time>
      </trkpt>
      <trkpt lat="40.493595" lon="-3.52122333">
        <ele>698.055</ele>
        <time>2019-07-01T18:21:01.781Z</time>
      </trkpt>
      <trkpt lat="40.4937" lon="-3.52122667">
        <ele>698.055</ele>
        <time>2019-07-01T18:21:02.781Z</time>
      </trkpt>
      <trkpt lat="40.4937" lon="-3.52122667">
        <ele>698.055</ele>
        <time>2019-07-01T18:21:03.781Z</time>
      </trkpt>
      <trkpt lat="40.493805" lon="-3.52123333">
        <ele>698.055</ele>
        <time>2019-07-01T18:21:04.781Z</time>
      </trkpt>
      <trkpt lat="40.493805" lon="-3.52123333">
        <ele>698.055</ele>
        <time>2019-07-01T18:21:05.781Z</time>
      </trkpt>
      <trkpt lat="40.493915" lon="-3.521245">
        <ele>698.055</ele>
        <time>2019-07-01T18:21:06.781Z</time>
      </trkpt>
      <trkpt lat="40.493915" lon="-3.521245">
        <ele>698.055</ele>
        <time>2019-07-01T18:21:07.781Z</time>
      </trkpt>
      <trkpt lat="40.49402667" lon="-3.52125833">
        <ele>698.055</ele>
        <time>2019-07-01T18:21:08.781Z</time>
      </trkpt>
      <trkpt lat="40.49402667" lon="-3.52125833">
        <ele>698.055</ele>
        <time>2019-07-01T18:21:09.781Z</time>
      </trkpt>
      <trkpt lat="40.49413833" lon="-3.52126833">
        <ele>698.055</ele>
        <time>2019-07-01T18:21:10.781Z</time>
      </trkpt>
      <trkpt lat="40.49413833" lon="-3.52126833">
        <ele>698.055</ele>
        <time>2019-07-01T18:21:11.781Z</time>
      </trkpt>
      <trkpt lat="40.49425" lon="-3.52127333">
        <ele>698.055</ele>
        <time>2019-07-01T18:21:12.781Z</time>
      </trkpt>
      <trkpt lat="40.49425" lon="-3.52127333">
        <ele>698.055</ele>
        <time>2019-07-01T18:21:13.781Z</time>
      </trkpt>
      <trkpt lat="40.49436167" lon="-3.52128333">
        <ele>698.055</ele>
        <time>2019-07-01T18:21:14.781Z</time>
      </trkpt>
      <trkpt lat="40.49436167" lon="-3.52128333">
        <ele>698.055</ele>
        <time>2019-07-01T18:21:15.781Z</time>
      </trkpt>
      <trkpt lat="40.49447" lon="-3.52129333">
        <ele>698.055</ele>
        <time>2019-07-01T18:21:16.781Z</time>
      </trkpt>
      <trkpt lat="40.49447" lon="-3.52129333">
        <ele>698.055</ele>
        <time>2019-07-01T18:21:17.781Z</time>
      </trkpt>
      <trkpt lat="40.49458167" lon="-3.52131333">
        <ele>698.055</ele>
        <time>2019-07-01T18:21:18.781Z</time>
      </trkpt>
      <trkpt lat="40.49458167" lon="-3.52131333">
        <ele>698.055</ele>
        <time>2019-07-01T18:21:19.781Z</time>
      </trkpt>
      <trkpt lat="40.49469833" lon="-3.521335">
        <ele>698.055</ele>
        <time>2019-07-01T18:21:20.781Z</time>
      </trkpt>
      <trkpt lat="40.49475833" lon="-3.52134833">
        <ele>698.055</ele>
        <time>2019-07-01T18:21:21.781Z</time>
      </trkpt>
      <trkpt lat="40.49475833" lon="-3.52134833">
        <ele>698.055</ele>
        <time>2019-07-01T18:21:22.781Z</time>
      </trkpt>
      <trkpt lat="40.49475833" lon="-3.52134833">
        <ele>698.055</ele>
        <time>2019-07-01T18:21:23.781Z</time>
      </trkpt>
      <trkpt lat="40.49494167" lon="-3.52140333">
        <ele>698.055</ele>
        <time>2019-07-01T18:21:24.781Z</time>
      </trkpt>
      <trkpt lat="40.49494167" lon="-3.52140333">
        <ele>698.055</ele>
        <time>2019-07-01T18:21:25.781Z</time>
      </trkpt>
      <trkpt lat="40.49506667" lon="-3.52145167">
        <ele>698.055</ele>
        <time>2019-07-01T18:21:26.781Z</time>
      </trkpt>
      <trkpt lat="40.49513167" lon="-3.52147833">
        <ele>698.055</ele>
        <time>2019-07-01T18:21:27.781Z</time>
      </trkpt>
      <trkpt lat="40.49519667" lon="-3.521505">
        <ele>697.055</ele>
        <time>2019-07-01T18:21:28.781Z</time>
      </trkpt>
      <trkpt lat="40.49519667" lon="-3.521505">
        <ele>697.055</ele>
        <time>2019-07-01T18:21:29.781Z</time>
      </trkpt>
      <trkpt lat="40.49532667" lon="-3.52155833">
        <ele>697.055</ele>
        <time>2019-07-01T18:21:30.781Z</time>
      </trkpt>
      <trkpt lat="40.49532667" lon="-3.52155833">
        <ele>697.055</ele>
        <time>2019-07-01T18:21:31.781Z</time>
      </trkpt>
      <trkpt lat="40.495455" lon="-3.52161">
        <ele>697.055</ele>
        <time>2019-07-01T18:21:32.781Z</time>
      </trkpt>
      <trkpt lat="40.49551833" lon="-3.52163667">
        <ele>697.055</ele>
        <time>2019-07-01T18:21:33.781Z</time>
      </trkpt>
      <trkpt lat="40.49558167" lon="-3.52166167">
        <ele>697.055</ele>
        <time>2019-07-01T18:21:34.781Z</time>
      </trkpt>
      <trkpt lat="40.49558167" lon="-3.52166167">
        <ele>697.055</ele>
        <time>2019-07-01T18:21:35.781Z</time>
      </trkpt>
      <trkpt lat="40.495705" lon="-3.52170667">
        <ele>697.055</ele>
        <time>2019-07-01T18:21:36.781Z</time>
      </trkpt>
      <trkpt lat="40.495705" lon="-3.52170667">
        <ele>697.055</ele>
        <time>2019-07-01T18:21:37.781Z</time>
      </trkpt>
      <trkpt lat="40.49582167" lon="-3.52175">
        <ele>697.055</ele>
        <time>2019-07-01T18:21:38.781Z</time>
      </trkpt>
      <trkpt lat="40.49587833" lon="-3.52177">
        <ele>697.055</ele>
        <time>2019-07-01T18:21:39.781Z</time>
      </trkpt>
      <trkpt lat="40.49593333" lon="-3.52179333">
        <ele>697.055</ele>
        <time>2019-07-01T18:21:40.781Z</time>
      </trkpt>
      <trkpt lat="40.49599" lon="-3.52182167">
        <ele>697.055</ele>
        <time>2019-07-01T18:21:41.781Z</time>
      </trkpt>
      <trkpt lat="40.49599" lon="-3.52182167">
        <ele>697.055</ele>
        <time>2019-07-01T18:21:42.781Z</time>
      </trkpt>
      <trkpt lat="40.4961" lon="-3.52188">
        <ele>697.055</ele>
        <time>2019-07-01T18:21:43.781Z</time>
      </trkpt>
      <trkpt lat="40.4961" lon="-3.52188">
        <ele>697.055</ele>
        <time>2019-07-01T18:21:44.781Z</time>
      </trkpt>
      <trkpt lat="40.4962" lon="-3.52195667">
        <ele>697.055</ele>
        <time>2019-07-01T18:21:45.781Z</time>
      </trkpt>
      <trkpt lat="40.4962" lon="-3.52195667">
        <ele>697.055</ele>
        <time>2019-07-01T18:21:46.781Z</time>
      </trkpt>
      <trkpt lat="40.49629167" lon="-3.52202833">
        <ele>697.055</ele>
        <time>2019-07-01T18:21:47.781Z</time>
      </trkpt>
      <trkpt lat="40.49629167" lon="-3.52202833">
        <ele>697.055</ele>
        <time>2019-07-01T18:21:48.781Z</time>
      </trkpt>
      <trkpt lat="40.49638167" lon="-3.52210833">
        <ele>697.055</ele>
        <time>2019-07-01T18:21:49.781Z</time>
      </trkpt>
      <trkpt lat="40.49638167" lon="-3.52210833">
        <ele>697.055</ele>
        <time>2019-07-01T18:21:50.781Z</time>
      </trkpt>
      <trkpt lat="40.49646" lon="-3.5222">
        <ele>697.055</ele>
        <time>2019-07-01T18:21:51.781Z</time>
      </trkpt>
      <trkpt lat="40.49650167" lon="-3.52224667">
        <ele>697.055</ele>
        <time>2019-07-01T18:21:52.781Z</time>
      </trkpt>
      <trkpt lat="40.49650167" lon="-3.52224667">
        <ele>697.055</ele>
        <time>2019-07-01T18:21:53.781Z</time>
      </trkpt>
      <trkpt lat="40.496585" lon="-3.52234333">
        <ele>697.055</ele>
        <time>2019-07-01T18:21:54.781Z</time>
      </trkpt>
      <trkpt lat="40.496585" lon="-3.52234333">
        <ele>697.055</ele>
        <time>2019-07-01T18:21:55.781Z</time>
      </trkpt>
      <trkpt lat="40.49667" lon="-3.52245333">
        <ele>697.055</ele>
        <time>2019-07-01T18:21:56.781Z</time>
      </trkpt>
      <trkpt lat="40.49667" lon="-3.52245333">
        <ele>697.055</ele>
        <time>2019-07-01T18:21:57.781Z</time>
      </trkpt>
      <trkpt lat="40.49676667" lon="-3.522545">
        <ele>697.055</ele>
        <time>2019-07-01T18:21:58.781Z</time>
      </trkpt>
      <trkpt lat="40.49676667" lon="-3.522545">
        <ele>697.055</ele>
        <time>2019-07-01T18:21:59.781Z</time>
      </trkpt>
      <trkpt lat="40.49687" lon="-3.52262667">
        <ele>697.055</ele>
        <time>2019-07-01T18:22:00.781Z</time>
      </trkpt>
      <trkpt lat="40.49687" lon="-3.52262667">
        <ele>697.055</ele>
        <time>2019-07-01T18:22:01.781Z</time>
      </trkpt>
      <trkpt lat="40.496975" lon="-3.52269667">
        <ele>697.055</ele>
        <time>2019-07-01T18:22:02.781Z</time>
      </trkpt>
      <trkpt lat="40.49703167" lon="-3.522715">
        <ele>697.055</ele>
        <time>2019-07-01T18:22:03.781Z</time>
      </trkpt>
      <trkpt lat="40.49703167" lon="-3.522715">
        <ele>697.055</ele>
        <time>2019-07-01T18:22:04.781Z</time>
      </trkpt>
      <trkpt lat="40.497145" lon="-3.52276">
        <ele>697.055</ele>
        <time>2019-07-01T18:22:05.781Z</time>
      </trkpt>
      <trkpt lat="40.497145" lon="-3.52276">
        <ele>697.055</ele>
        <time>2019-07-01T18:22:06.781Z</time>
      </trkpt>
      <trkpt lat="40.49725833" lon="-3.52281">
        <ele>697.055</ele>
        <time>2019-07-01T18:22:07.781Z</time>
      </trkpt>
      <trkpt lat="40.49725833" lon="-3.52281">
        <ele>697.055</ele>
        <time>2019-07-01T18:22:08.781Z</time>
      </trkpt>
      <trkpt lat="40.49737333" lon="-3.52285667">
        <ele>697.055</ele>
        <time>2019-07-01T18:22:09.781Z</time>
      </trkpt>
      <trkpt lat="40.49737333" lon="-3.52285667">
        <ele>697.055</ele>
        <time>2019-07-01T18:22:10.781Z</time>
      </trkpt>
      <trkpt lat="40.49747667" lon="-3.52289">
        <ele>697.055</ele>
        <time>2019-07-01T18:22:11.781Z</time>
      </trkpt>
      <trkpt lat="40.49752667" lon="-3.522875">
        <ele>697.055</ele>
        <time>2019-07-01T18:22:12.781Z</time>
      </trkpt>
      <trkpt lat="40.49752667" lon="-3.522875">
        <ele>697.055</ele>
        <time>2019-07-01T18:22:13.781Z</time>
      </trkpt>
      <trkpt lat="40.49759667" lon="-3.52276">
        <ele>697.055</ele>
        <time>2019-07-01T18:22:14.781Z</time>
      </trkpt>
      <trkpt lat="40.49759667" lon="-3.52276">
        <ele>697.055</ele>
        <time>2019-07-01T18:22:15.781Z</time>
      </trkpt>
      <trkpt lat="40.49760167" lon="-3.52262167">
        <ele>697.055</ele>
        <time>2019-07-01T18:22:16.781Z</time>
      </trkpt>
      <trkpt lat="40.49758833" lon="-3.522555">
        <ele>697.055</ele>
        <time>2019-07-01T18:22:17.781Z</time>
      </trkpt>
      <trkpt lat="40.49758833" lon="-3.522555">
        <ele>697.055</ele>
        <time>2019-07-01T18:22:18.781Z</time>
      </trkpt>
      <trkpt lat="40.49754833" lon="-3.52242">
        <ele>697.055</ele>
        <time>2019-07-01T18:22:19.781Z</time>
      </trkpt>
      <trkpt lat="40.49754833" lon="-3.52242">
        <ele>697.055</ele>
        <time>2019-07-01T18:22:20.781Z</time>
      </trkpt>
      <trkpt lat="40.49750833" lon="-3.52227167">
        <ele>697.055</ele>
        <time>2019-07-01T18:22:21.781Z</time>
      </trkpt>
      <trkpt lat="40.497485" lon="-3.52218833">
        <ele>697.055</ele>
        <time>2019-07-01T18:22:22.781Z</time>
      </trkpt>
      <trkpt lat="40.497485" lon="-3.52218833">
        <ele>697.055</ele>
        <time>2019-07-01T18:22:23.781Z</time>
      </trkpt>
      <trkpt lat="40.49742833" lon="-3.52201167">
        <ele>697.055</ele>
        <time>2019-07-01T18:22:24.781Z</time>
      </trkpt>
      <trkpt lat="40.49742833" lon="-3.52201167">
        <ele>697.055</ele>
        <time>2019-07-01T18:22:25.781Z</time>
      </trkpt>
      <trkpt lat="40.497375" lon="-3.52180833">
        <ele>697.055</ele>
        <time>2019-07-01T18:22:26.781Z</time>
      </trkpt>
      <trkpt lat="40.497375" lon="-3.52180833">
        <ele>696.055</ele>
        <time>2019-07-01T18:22:27.781Z</time>
      </trkpt>
      <trkpt lat="40.49731333" lon="-3.52158333">
        <ele>696.055</ele>
        <time>2019-07-01T18:22:28.781Z</time>
      </trkpt>
      <trkpt lat="40.49731333" lon="-3.52158333">
        <ele>696.055</ele>
        <time>2019-07-01T18:22:29.781Z</time>
      </trkpt>
      <trkpt lat="40.49724333" lon="-3.521345">
        <ele>696.055</ele>
        <time>2019-07-01T18:22:30.781Z</time>
      </trkpt>
      <trkpt lat="40.49721" lon="-3.52121833">
        <ele>695.055</ele>
        <time>2019-07-01T18:22:31.781Z</time>
      </trkpt>
      <trkpt lat="40.49721" lon="-3.52121833">
        <ele>695.055</ele>
        <time>2019-07-01T18:22:32.781Z</time>
      </trkpt>
      <trkpt lat="40.497145" lon="-3.52094667">
        <ele>693.055</ele>
        <time>2019-07-01T18:22:33.781Z</time>
      </trkpt>
      <trkpt lat="40.497145" lon="-3.52094667">
        <ele>693.055</ele>
        <time>2019-07-01T18:22:34.781Z</time>
      </trkpt>
      <trkpt lat="40.49708" lon="-3.52066">
        <ele>692.055</ele>
        <time>2019-07-01T18:22:35.781Z</time>
      </trkpt>
      <trkpt lat="40.497045" lon="-3.52051333">
        <ele>692.055</ele>
        <time>2019-07-01T18:22:36.781Z</time>
      </trkpt>
      <trkpt lat="40.497045" lon="-3.52051333">
        <ele>691.055</ele>
        <time>2019-07-01T18:22:37.781Z</time>
      </trkpt>
      <trkpt lat="40.49697833" lon="-3.520205">
        <ele>691.055</ele>
        <time>2019-07-01T18:22:38.781Z</time>
      </trkpt>
      <trkpt lat="40.49697833" lon="-3.520205">
        <ele>690.055</ele>
        <time>2019-07-01T18:22:39.781Z</time>
      </trkpt>
      <trkpt lat="40.49691833" lon="-3.51988667">
        <ele>690.055</ele>
        <time>2019-07-01T18:22:40.781Z</time>
      </trkpt>
      <trkpt lat="40.49691833" lon="-3.51988667">
        <ele>688.055</ele>
        <time>2019-07-01T18:22:41.781Z</time>
      </trkpt>
      <trkpt lat="40.49685833" lon="-3.51955333">
        <ele>688.055</ele>
        <time>2019-07-01T18:22:42.781Z</time>
      </trkpt>
      <trkpt lat="40.49685833" lon="-3.51955333">
        <ele>686.055</ele>
        <time>2019-07-01T18:22:43.781Z</time>
      </trkpt>
      <trkpt lat="40.49679667" lon="-3.519215">
        <ele>686.055</ele>
        <time>2019-07-01T18:22:44.781Z</time>
      </trkpt>
      <trkpt lat="40.49679667" lon="-3.519215">
        <ele>686.055</ele>
        <time>2019-07-01T18:22:45.781Z</time>
      </trkpt>
      <trkpt lat="40.49674167" lon="-3.51888167">
        <ele>685.055</ele>
        <time>2019-07-01T18:22:46.781Z</time>
      </trkpt>
      <trkpt lat="40.49674167" lon="-3.51888167">
        <ele>683.055</ele>
        <time>2019-07-01T18:22:47.781Z</time>
      </trkpt>
      <trkpt lat="40.49668667" lon="-3.51854667">
        <ele>683.055</ele>
        <time>2019-07-01T18:22:48.781Z</time>
      </trkpt>
      <trkpt lat="40.49666" lon="-3.518375">
        <ele>681.055</ele>
        <time>2019-07-01T18:22:49.781Z</time>
      </trkpt>
      <trkpt lat="40.496635" lon="-3.51820167">
        <ele>681.055</ele>
        <time>2019-07-01T18:22:50.781Z</time>
      </trkpt>
      <trkpt lat="40.496635" lon="-3.51820167">
        <ele>679.055</ele>
        <time>2019-07-01T18:22:51.781Z</time>
      </trkpt>
      <trkpt lat="40.49659167" lon="-3.51784667">
        <ele>679.055</ele>
        <time>2019-07-01T18:22:52.781Z</time>
      </trkpt>
      <trkpt lat="40.49659167" lon="-3.51784667">
        <ele>679.055</ele>
        <time>2019-07-01T18:22:53.781Z</time>
      </trkpt>
      <trkpt lat="40.49655667" lon="-3.51748167">
        <ele>678.055</ele>
        <time>2019-07-01T18:22:54.781Z</time>
      </trkpt>
      <trkpt lat="40.49655667" lon="-3.51748167">
        <ele>678.055</ele>
        <time>2019-07-01T18:22:55.781Z</time>
      </trkpt>
      <trkpt lat="40.496525" lon="-3.51710667">
        <ele>676.055</ele>
        <time>2019-07-01T18:22:56.781Z</time>
      </trkpt>
      <trkpt lat="40.496525" lon="-3.51710667">
        <ele>676.055</ele>
        <time>2019-07-01T18:22:57.781Z</time>
      </trkpt>
      <trkpt lat="40.49649167" lon="-3.516725">
        <ele>674.055</ele>
        <time>2019-07-01T18:22:58.781Z</time>
      </trkpt>
      <trkpt lat="40.49649167" lon="-3.516725">
        <ele>674.055</ele>
        <time>2019-07-01T18:22:59.781Z</time>
      </trkpt>
      <trkpt lat="40.49645667" lon="-3.51634333">
        <ele>672.055</ele>
        <time>2019-07-01T18:23:00.781Z</time>
      </trkpt>
      <trkpt lat="40.49645667" lon="-3.51634333">
        <ele>672.055</ele>
        <time>2019-07-01T18:23:01.781Z</time>
      </trkpt>
      <trkpt lat="40.496415" lon="-3.51595833">
        <ele>670.055</ele>
        <time>2019-07-01T18:23:02.781Z</time>
      </trkpt>
      <trkpt lat="40.49639333" lon="-3.515765">
        <ele>670.055</ele>
        <time>2019-07-01T18:23:03.781Z</time>
      </trkpt>
      <trkpt lat="40.49639333" lon="-3.515765">
        <ele>668.055</ele>
        <time>2019-07-01T18:23:04.781Z</time>
      </trkpt>
      <trkpt lat="40.49634833" lon="-3.51537833">
        <ele>668.055</ele>
        <time>2019-07-01T18:23:05.781Z</time>
      </trkpt>
      <trkpt lat="40.49634833" lon="-3.51537833">
        <ele>666.055</ele>
        <time>2019-07-01T18:23:06.781Z</time>
      </trkpt>
      <trkpt lat="40.49629833" lon="-3.51498667">
        <ele>666.055</ele>
        <time>2019-07-01T18:23:07.781Z</time>
      </trkpt>
      <trkpt lat="40.49629833" lon="-3.51498667">
        <ele>664.055</ele>
        <time>2019-07-01T18:23:08.781Z</time>
      </trkpt>
      <trkpt lat="40.49624" lon="-3.51459833">
        <ele>664.055</ele>
        <time>2019-07-01T18:23:09.781Z</time>
      </trkpt>
      <trkpt lat="40.49624" lon="-3.51459833">
        <ele>662.055</ele>
        <time>2019-07-01T18:23:10.781Z</time>
      </trkpt>
      <trkpt lat="40.49618" lon="-3.51421167">
        <ele>662.055</ele>
        <time>2019-07-01T18:23:11.781Z</time>
      </trkpt>
      <trkpt lat="40.49618" lon="-3.51421167">
        <ele>660.055</ele>
        <time>2019-07-01T18:23:12.781Z</time>
      </trkpt>
      <trkpt lat="40.49610667" lon="-3.513855">
        <ele>660.055</ele>
        <time>2019-07-01T18:23:13.781Z</time>
      </trkpt>
      <trkpt lat="40.49610667" lon="-3.513855">
        <ele>658.055</ele>
        <time>2019-07-01T18:23:14.781Z</time>
      </trkpt>
      <trkpt lat="40.49602667" lon="-3.51354333">
        <ele>658.055</ele>
        <time>2019-07-01T18:23:15.781Z</time>
      </trkpt>
      <trkpt lat="40.49602667" lon="-3.51354333">
        <ele>657.055</ele>
        <time>2019-07-01T18:23:16.781Z</time>
      </trkpt>
      <trkpt lat="40.495995" lon="-3.513235">
        <ele>657.055</ele>
        <time>2019-07-01T18:23:17.781Z</time>
      </trkpt>
      <trkpt lat="40.49597333" lon="-3.513095">
        <ele>656.055</ele>
        <time>2019-07-01T18:23:18.781Z</time>
      </trkpt>
      <trkpt lat="40.49597333" lon="-3.513095">
        <ele>656.055</ele>
        <time>2019-07-01T18:23:19.781Z</time>
      </trkpt>
      <trkpt lat="40.49591167" lon="-3.512845">
        <ele>656.055</ele>
        <time>2019-07-01T18:23:20.781Z</time>
      </trkpt>
      <trkpt lat="40.49591167" lon="-3.512845">
        <ele>656.055</ele>
        <time>2019-07-01T18:23:21.781Z</time>
      </trkpt>
      <trkpt lat="40.49585333" lon="-3.51261667">
        <ele>656.055</ele>
        <time>2019-07-01T18:23:22.781Z</time>
      </trkpt>
      <trkpt lat="40.49585333" lon="-3.51261667">
        <ele>656.055</ele>
        <time>2019-07-01T18:23:23.781Z</time>
      </trkpt>
      <trkpt lat="40.49579833" lon="-3.5124">
        <ele>657.055</ele>
        <time>2019-07-01T18:23:24.781Z</time>
      </trkpt>
      <trkpt lat="40.49579833" lon="-3.5124">
        <ele>657.055</ele>
        <time>2019-07-01T18:23:25.781Z</time>
      </trkpt>
      <trkpt lat="40.495745" lon="-3.5122">
        <ele>658.055</ele>
        <time>2019-07-01T18:23:26.781Z</time>
      </trkpt>
      <trkpt lat="40.495745" lon="-3.5122">
        <ele>658.055</ele>
        <time>2019-07-01T18:23:27.781Z</time>
      </trkpt>
      <trkpt lat="40.49569667" lon="-3.51201667">
        <ele>659.055</ele>
        <time>2019-07-01T18:23:28.781Z</time>
      </trkpt>
      <trkpt lat="40.49569667" lon="-3.51201667">
        <ele>659.055</ele>
        <time>2019-07-01T18:23:29.781Z</time>
      </trkpt>
      <trkpt lat="40.49564833" lon="-3.51184167">
        <ele>659.055</ele>
        <time>2019-07-01T18:23:30.781Z</time>
      </trkpt>
      <trkpt lat="40.49564833" lon="-3.51184167">
        <ele>659.055</ele>
        <time>2019-07-01T18:23:31.781Z</time>
      </trkpt>
      <trkpt lat="40.49560167" lon="-3.51167167">
        <ele>660.055</ele>
        <time>2019-07-01T18:23:32.781Z</time>
      </trkpt>
      <trkpt lat="40.49560167" lon="-3.51167167">
        <ele>660.055</ele>
        <time>2019-07-01T18:23:33.781Z</time>
      </trkpt>
      <trkpt lat="40.49555667" lon="-3.51151333">
        <ele>661.055</ele>
        <time>2019-07-01T18:23:34.781Z</time>
      </trkpt>
      <trkpt lat="40.49555667" lon="-3.51151333">
        <ele>661.055</ele>
        <time>2019-07-01T18:23:35.781Z</time>
      </trkpt>
      <trkpt lat="40.49551333" lon="-3.51135833">
        <ele>662.055</ele>
        <time>2019-07-01T18:23:36.781Z</time>
      </trkpt>
      <trkpt lat="40.49551333" lon="-3.51135833">
        <ele>662.055</ele>
        <time>2019-07-01T18:23:37.781Z</time>
      </trkpt>
      <trkpt lat="40.495465" lon="-3.51120833">
        <ele>663.055</ele>
        <time>2019-07-01T18:23:38.781Z</time>
      </trkpt>
      <trkpt lat="40.495465" lon="-3.51120833">
        <ele>663.055</ele>
        <time>2019-07-01T18:23:39.781Z</time>
      </trkpt>
      <trkpt lat="40.49542" lon="-3.51106">
        <ele>663.055</ele>
        <time>2019-07-01T18:23:40.781Z</time>
      </trkpt>
      <trkpt lat="40.49542" lon="-3.51106">
        <ele>663.055</ele>
        <time>2019-07-01T18:23:41.781Z</time>
      </trkpt>
      <trkpt lat="40.49538" lon="-3.510915">
        <ele>664.055</ele>
        <time>2019-07-01T18:23:42.781Z</time>
      </trkpt>
      <trkpt lat="40.49538" lon="-3.510915">
        <ele>664.055</ele>
        <time>2019-07-01T18:23:43.781Z</time>
      </trkpt>
      <trkpt lat="40.495335" lon="-3.51077">
        <ele>664.055</ele>
        <time>2019-07-01T18:23:44.781Z</time>
      </trkpt>
      <trkpt lat="40.495335" lon="-3.51077">
        <ele>664.055</ele>
        <time>2019-07-01T18:23:45.781Z</time>
      </trkpt>
      <trkpt lat="40.49528667" lon="-3.51063333">
        <ele>664.055</ele>
        <time>2019-07-01T18:23:46.781Z</time>
      </trkpt>
      <trkpt lat="40.49528667" lon="-3.51063333">
        <ele>664.055</ele>
        <time>2019-07-01T18:23:47.781Z</time>
      </trkpt>
      <trkpt lat="40.495245" lon="-3.5105">
        <ele>665.055</ele>
        <time>2019-07-01T18:23:48.781Z</time>
      </trkpt>
      <trkpt lat="40.495245" lon="-3.5105">
        <ele>665.055</ele>
        <time>2019-07-01T18:23:49.781Z</time>
      </trkpt>
      <trkpt lat="40.49520333" lon="-3.51036333">
        <ele>665.055</ele>
        <time>2019-07-01T18:23:50.781Z</time>
      </trkpt>
      <trkpt lat="40.49518167" lon="-3.51029">
        <ele>666.055</ele>
        <time>2019-07-01T18:23:51.781Z</time>
      </trkpt>
      <trkpt lat="40.49518167" lon="-3.51029">
        <ele>666.055</ele>
        <time>2019-07-01T18:23:52.781Z</time>
      </trkpt>
      <trkpt lat="40.495145" lon="-3.51013833">
        <ele>666.055</ele>
        <time>2019-07-01T18:23:53.781Z</time>
      </trkpt>
      <trkpt lat="40.49512833" lon="-3.51005833">
        <ele>666.055</ele>
        <time>2019-07-01T18:23:54.781Z</time>
      </trkpt>
      <trkpt lat="40.49512833" lon="-3.51005833">
        <ele>666.055</ele>
        <time>2019-07-01T18:23:55.781Z</time>
      </trkpt>
      <trkpt lat="40.49509333" lon="-3.50989333">
        <ele>666.055</ele>
        <time>2019-07-01T18:23:56.781Z</time>
      </trkpt>
      <trkpt lat="40.49509333" lon="-3.50989333">
        <ele>666.055</ele>
        <time>2019-07-01T18:23:57.781Z</time>
      </trkpt>
      <trkpt lat="40.495065" lon="-3.50972">
        <ele>666.055</ele>
        <time>2019-07-01T18:23:58.781Z</time>
      </trkpt>
      <trkpt lat="40.495065" lon="-3.50972">
        <ele>666.055</ele>
        <time>2019-07-01T18:23:59.781Z</time>
      </trkpt>
      <trkpt lat="40.49504" lon="-3.50953667">
        <ele>666.055</ele>
        <time>2019-07-01T18:24:00.781Z</time>
      </trkpt>
      <trkpt lat="40.49504" lon="-3.50953667">
        <ele>666.055</ele>
        <time>2019-07-01T18:24:01.781Z</time>
      </trkpt>
      <trkpt lat="40.49502167" lon="-3.50935333">
        <ele>666.055</ele>
        <time>2019-07-01T18:24:02.781Z</time>
      </trkpt>
      <trkpt lat="40.49502167" lon="-3.50935333">
        <ele>666.055</ele>
        <time>2019-07-01T18:24:03.781Z</time>
      </trkpt>
      <trkpt lat="40.49501167" lon="-3.50917">
        <ele>666.055</ele>
        <time>2019-07-01T18:24:04.781Z</time>
      </trkpt>
      <trkpt lat="40.49501167" lon="-3.50917">
        <ele>666.055</ele>
        <time>2019-07-01T18:24:05.781Z</time>
      </trkpt>
      <trkpt lat="40.49501667" lon="-3.50898833">
        <ele>666.055</ele>
        <time>2019-07-01T18:24:06.781Z</time>
      </trkpt>
      <trkpt lat="40.49501667" lon="-3.50898833">
        <ele>666.055</ele>
        <time>2019-07-01T18:24:07.781Z</time>
      </trkpt>
      <trkpt lat="40.49502667" lon="-3.50880667">
        <ele>666.055</ele>
        <time>2019-07-01T18:24:08.781Z</time>
      </trkpt>
      <trkpt lat="40.49502667" lon="-3.50880667">
        <ele>666.055</ele>
        <time>2019-07-01T18:24:09.781Z</time>
      </trkpt>
      <trkpt lat="40.49503833" lon="-3.50862667">
        <ele>666.055</ele>
        <time>2019-07-01T18:24:10.781Z</time>
      </trkpt>
      <trkpt lat="40.49503833" lon="-3.50862667">
        <ele>666.055</ele>
        <time>2019-07-01T18:24:11.781Z</time>
      </trkpt>
      <trkpt lat="40.49506" lon="-3.50843667">
        <ele>665.055</ele>
        <time>2019-07-01T18:24:12.781Z</time>
      </trkpt>
      <trkpt lat="40.49506" lon="-3.50843667">
        <ele>665.055</ele>
        <time>2019-07-01T18:24:13.781Z</time>
      </trkpt>
      <trkpt lat="40.49509" lon="-3.50823">
        <ele>665.055</ele>
        <time>2019-07-01T18:24:14.781Z</time>
      </trkpt>
      <trkpt lat="40.49509" lon="-3.50823">
        <ele>665.055</ele>
        <time>2019-07-01T18:24:15.781Z</time>
      </trkpt>
      <trkpt lat="40.49512833" lon="-3.50801167">
        <ele>665.055</ele>
        <time>2019-07-01T18:24:16.781Z</time>
      </trkpt>
      <trkpt lat="40.49512833" lon="-3.50801167">
        <ele>665.055</ele>
        <time>2019-07-01T18:24:17.781Z</time>
      </trkpt>
      <trkpt lat="40.49517833" lon="-3.50779167">
        <ele>664.055</ele>
        <time>2019-07-01T18:24:18.781Z</time>
      </trkpt>
      <trkpt lat="40.49517833" lon="-3.50779167">
        <ele>664.055</ele>
        <time>2019-07-01T18:24:19.781Z</time>
      </trkpt>
      <trkpt lat="40.49523667" lon="-3.50757333">
        <ele>664.055</ele>
        <time>2019-07-01T18:24:20.781Z</time>
      </trkpt>
      <trkpt lat="40.495275" lon="-3.50747">
        <ele>664.055</ele>
        <time>2019-07-01T18:24:21.781Z</time>
      </trkpt>
      <trkpt lat="40.495315" lon="-3.50736833">
        <ele>664.055</ele>
        <time>2019-07-01T18:24:22.781Z</time>
      </trkpt>
      <trkpt lat="40.495315" lon="-3.50736833">
        <ele>664.055</ele>
        <time>2019-07-01T18:24:23.781Z</time>
      </trkpt>
      <trkpt lat="40.49539667" lon="-3.50717167">
        <ele>664.055</ele>
        <time>2019-07-01T18:24:24.781Z</time>
      </trkpt>
      <trkpt lat="40.49539667" lon="-3.50717167">
        <ele>664.055</ele>
        <time>2019-07-01T18:24:25.781Z</time>
      </trkpt>
      <trkpt lat="40.495485" lon="-3.50697667">
        <ele>663.055</ele>
        <time>2019-07-01T18:24:26.781Z</time>
      </trkpt>
      <trkpt lat="40.495485" lon="-3.50697667">
        <ele>663.055</ele>
        <time>2019-07-01T18:24:27.781Z</time>
      </trkpt>
      <trkpt lat="40.49558333" lon="-3.50678167">
        <ele>663.055</ele>
        <time>2019-07-01T18:24:28.781Z</time>
      </trkpt>
      <trkpt lat="40.49558333" lon="-3.50678167">
        <ele>663.055</ele>
        <time>2019-07-01T18:24:29.781Z</time>
      </trkpt>
      <trkpt lat="40.49569333" lon="-3.50659333">
        <ele>663.055</ele>
        <time>2019-07-01T18:24:30.781Z</time>
      </trkpt>
      <trkpt lat="40.49569333" lon="-3.50659333">
        <ele>663.055</ele>
        <time>2019-07-01T18:24:31.781Z</time>
      </trkpt>
      <trkpt lat="40.49581333" lon="-3.506415">
        <ele>663.055</ele>
        <time>2019-07-01T18:24:32.781Z</time>
      </trkpt>
      <trkpt lat="40.49581333" lon="-3.506415">
        <ele>663.055</ele>
        <time>2019-07-01T18:24:33.781Z</time>
      </trkpt>
      <trkpt lat="40.495935" lon="-3.50625167">
        <ele>663.055</ele>
        <time>2019-07-01T18:24:34.781Z</time>
      </trkpt>
      <trkpt lat="40.495935" lon="-3.50625167">
        <ele>663.055</ele>
        <time>2019-07-01T18:24:35.781Z</time>
      </trkpt>
      <trkpt lat="40.49606" lon="-3.50610833">
        <ele>663.055</ele>
        <time>2019-07-01T18:24:36.781Z</time>
      </trkpt>
      <trkpt lat="40.49606" lon="-3.50610833">
        <ele>663.055</ele>
        <time>2019-07-01T18:24:37.781Z</time>
      </trkpt>
      <trkpt lat="40.49619167" lon="-3.50597833">
        <ele>663.055</ele>
        <time>2019-07-01T18:24:38.781Z</time>
      </trkpt>
      <trkpt lat="40.49619167" lon="-3.50597833">
        <ele>663.055</ele>
        <time>2019-07-01T18:24:39.781Z</time>
      </trkpt>
      <trkpt lat="40.49632667" lon="-3.50585667">
        <ele>663.055</ele>
        <time>2019-07-01T18:24:40.781Z</time>
      </trkpt>
      <trkpt lat="40.49639833" lon="-3.50579833">
        <ele>663.055</ele>
        <time>2019-07-01T18:24:41.781Z</time>
      </trkpt>
      <trkpt lat="40.49639833" lon="-3.50579833">
        <ele>663.055</ele>
        <time>2019-07-01T18:24:42.781Z</time>
      </trkpt>
      <trkpt lat="40.496535" lon="-3.505695">
        <ele>663.055</ele>
        <time>2019-07-01T18:24:43.781Z</time>
      </trkpt>
      <trkpt lat="40.49660333" lon="-3.505645">
        <ele>663.055</ele>
        <time>2019-07-01T18:24:44.781Z</time>
      </trkpt>
      <trkpt lat="40.49660333" lon="-3.505645">
        <ele>663.055</ele>
        <time>2019-07-01T18:24:45.781Z</time>
      </trkpt>
      <trkpt lat="40.49674333" lon="-3.50555833">
        <ele>663.055</ele>
        <time>2019-07-01T18:24:46.781Z</time>
      </trkpt>
      <trkpt lat="40.49681167" lon="-3.50551833">
        <ele>663.055</ele>
        <time>2019-07-01T18:24:47.781Z</time>
      </trkpt>
      <trkpt lat="40.49681167" lon="-3.50551833">
        <ele>663.055</ele>
        <time>2019-07-01T18:24:48.781Z</time>
      </trkpt>
      <trkpt lat="40.49694833" lon="-3.50544833">
        <ele>663.055</ele>
        <time>2019-07-01T18:24:49.781Z</time>
      </trkpt>
      <trkpt lat="40.49701667" lon="-3.505415">
        <ele>664.055</ele>
        <time>2019-07-01T18:24:50.781Z</time>
      </trkpt>
      <trkpt lat="40.49701667" lon="-3.505415">
        <ele>664.055</ele>
        <time>2019-07-01T18:24:51.781Z</time>
      </trkpt>
      <trkpt lat="40.49714167" lon="-3.50534667">
        <ele>664.055</ele>
        <time>2019-07-01T18:24:52.781Z</time>
      </trkpt>
      <trkpt lat="40.49720333" lon="-3.50532167">
        <ele>664.055</ele>
        <time>2019-07-01T18:24:53.781Z</time>
      </trkpt>
      <trkpt lat="40.49726667" lon="-3.50529">
        <ele>664.055</ele>
        <time>2019-07-01T18:24:54.781Z</time>
      </trkpt>
      <trkpt lat="40.49726667" lon="-3.50529">
        <ele>664.055</ele>
        <time>2019-07-01T18:24:55.781Z</time>
      </trkpt>
      <trkpt lat="40.49738167" lon="-3.50520667">
        <ele>664.055</ele>
        <time>2019-07-01T18:24:56.781Z</time>
      </trkpt>
      <trkpt lat="40.49738167" lon="-3.50520667">
        <ele>665.055</ele>
        <time>2019-07-01T18:24:57.781Z</time>
      </trkpt>
      <trkpt lat="40.49750833" lon="-3.50515">
        <ele>665.055</ele>
        <time>2019-07-01T18:24:58.781Z</time>
      </trkpt>
      <trkpt lat="40.49750833" lon="-3.50515">
        <ele>665.055</ele>
        <time>2019-07-01T18:24:59.781Z</time>
      </trkpt>
      <trkpt lat="40.49764333" lon="-3.50514833">
        <ele>665.055</ele>
        <time>2019-07-01T18:25:00.781Z</time>
      </trkpt>
      <trkpt lat="40.49764333" lon="-3.50514833">
        <ele>665.055</ele>
        <time>2019-07-01T18:25:01.781Z</time>
      </trkpt>
      <trkpt lat="40.49777833" lon="-3.505115">
        <ele>665.055</ele>
        <time>2019-07-01T18:25:02.781Z</time>
      </trkpt>
      <trkpt lat="40.49784" lon="-3.50508833">
        <ele>665.055</ele>
        <time>2019-07-01T18:25:03.781Z</time>
      </trkpt>
      <trkpt lat="40.49784" lon="-3.50508833">
        <ele>665.055</ele>
        <time>2019-07-01T18:25:04.781Z</time>
      </trkpt>
      <trkpt lat="40.49795833" lon="-3.50503167">
        <ele>665.055</ele>
        <time>2019-07-01T18:25:05.781Z</time>
      </trkpt>
      <trkpt lat="40.49801667" lon="-3.50500333">
        <ele>665.055</ele>
        <time>2019-07-01T18:25:06.781Z</time>
      </trkpt>
      <trkpt lat="40.49801667" lon="-3.50500333">
        <ele>665.055</ele>
        <time>2019-07-01T18:25:07.781Z</time>
      </trkpt>
      <trkpt lat="40.498135" lon="-3.50494667">
        <ele>665.055</ele>
        <time>2019-07-01T18:25:08.781Z</time>
      </trkpt>
      <trkpt lat="40.498135" lon="-3.50494667">
        <ele>666.055</ele>
        <time>2019-07-01T18:25:09.781Z</time>
      </trkpt>
      <trkpt lat="40.49825333" lon="-3.50489833">
        <ele>666.055</ele>
        <time>2019-07-01T18:25:10.781Z</time>
      </trkpt>
      <trkpt lat="40.49825333" lon="-3.50489833">
        <ele>667.055</ele>
        <time>2019-07-01T18:25:11.781Z</time>
      </trkpt>
      <trkpt lat="40.49836333" lon="-3.50485667">
        <ele>667.055</ele>
        <time>2019-07-01T18:25:12.781Z</time>
      </trkpt>
      <trkpt lat="40.49842" lon="-3.50483333">
        <ele>667.055</ele>
        <time>2019-07-01T18:25:13.781Z</time>
      </trkpt>
      <trkpt lat="40.49842" lon="-3.50483333">
        <ele>667.055</ele>
        <time>2019-07-01T18:25:14.781Z</time>
      </trkpt>
      <trkpt lat="40.49853" lon="-3.504785">
        <ele>668.055</ele>
        <time>2019-07-01T18:25:15.781Z</time>
      </trkpt>
      <trkpt lat="40.49858333" lon="-3.50476">
        <ele>668.055</ele>
        <time>2019-07-01T18:25:16.781Z</time>
      </trkpt>
      <trkpt lat="40.49858333" lon="-3.50476">
        <ele>668.055</ele>
        <time>2019-07-01T18:25:17.781Z</time>
      </trkpt>
      <trkpt lat="40.49868667" lon="-3.50470667">
        <ele>668.055</ele>
        <time>2019-07-01T18:25:18.781Z</time>
      </trkpt>
      <trkpt lat="40.49868667" lon="-3.50470667">
        <ele>669.055</ele>
        <time>2019-07-01T18:25:19.781Z</time>
      </trkpt>
      <trkpt lat="40.49879167" lon="-3.50465333">
        <ele>669.055</ele>
        <time>2019-07-01T18:25:20.781Z</time>
      </trkpt>
      <trkpt lat="40.49879167" lon="-3.50465333">
        <ele>669.055</ele>
        <time>2019-07-01T18:25:21.781Z</time>
      </trkpt>
      <trkpt lat="40.498895" lon="-3.50460667">
        <ele>669.055</ele>
        <time>2019-07-01T18:25:22.781Z</time>
      </trkpt>
      <trkpt lat="40.498895" lon="-3.50460667">
        <ele>670.055</ele>
        <time>2019-07-01T18:25:23.781Z</time>
      </trkpt>
      <trkpt lat="40.49899667" lon="-3.50456">
        <ele>670.055</ele>
        <time>2019-07-01T18:25:24.781Z</time>
      </trkpt>
      <trkpt lat="40.49899667" lon="-3.50456">
        <ele>670.055</ele>
        <time>2019-07-01T18:25:25.781Z</time>
      </trkpt>
      <trkpt lat="40.49909333" lon="-3.50451667">
        <ele>670.055</ele>
        <time>2019-07-01T18:25:26.781Z</time>
      </trkpt>
      <trkpt lat="40.49909333" lon="-3.50451667">
        <ele>671.055</ele>
        <time>2019-07-01T18:25:27.781Z</time>
      </trkpt>
      <trkpt lat="40.49919333" lon="-3.50447">
        <ele>671.055</ele>
        <time>2019-07-01T18:25:28.781Z</time>
      </trkpt>
      <trkpt lat="40.49924333" lon="-3.504445">
        <ele>671.055</ele>
        <time>2019-07-01T18:25:29.781Z</time>
      </trkpt>
      <trkpt lat="40.49929333" lon="-3.50442">
        <ele>671.055</ele>
        <time>2019-07-01T18:25:30.781Z</time>
      </trkpt>
      <trkpt lat="40.49929333" lon="-3.50442">
        <ele>671.055</ele>
        <time>2019-07-01T18:25:31.781Z</time>
      </trkpt>
      <trkpt lat="40.49939333" lon="-3.50436667">
        <ele>671.055</ele>
        <time>2019-07-01T18:25:32.781Z</time>
      </trkpt>
      <trkpt lat="40.49944667" lon="-3.50434333">
        <ele>672.055</ele>
        <time>2019-07-01T18:25:33.781Z</time>
      </trkpt>
      <trkpt lat="40.49944667" lon="-3.50434333">
        <ele>672.055</ele>
        <time>2019-07-01T18:25:34.781Z</time>
      </trkpt>
      <trkpt lat="40.49955" lon="-3.50430167">
        <ele>672.055</ele>
        <time>2019-07-01T18:25:35.781Z</time>
      </trkpt>
      <trkpt lat="40.49960167" lon="-3.50428">
        <ele>672.055</ele>
        <time>2019-07-01T18:25:36.781Z</time>
      </trkpt>
      <trkpt lat="40.49960167" lon="-3.50428">
        <ele>672.055</ele>
        <time>2019-07-01T18:25:37.781Z</time>
      </trkpt>
      <trkpt lat="40.499705" lon="-3.504235">
        <ele>672.055</ele>
        <time>2019-07-01T18:25:38.781Z</time>
      </trkpt>
      <trkpt lat="40.499705" lon="-3.504235">
        <ele>672.055</ele>
        <time>2019-07-01T18:25:39.781Z</time>
      </trkpt>
      <trkpt lat="40.49981333" lon="-3.50418833">
        <ele>672.055</ele>
        <time>2019-07-01T18:25:40.781Z</time>
      </trkpt>
      <trkpt lat="40.49981333" lon="-3.50418833">
        <ele>672.055</ele>
        <time>2019-07-01T18:25:41.781Z</time>
      </trkpt>
      <trkpt lat="40.499925" lon="-3.50414">
        <ele>672.055</ele>
        <time>2019-07-01T18:25:42.781Z</time>
      </trkpt>
      <trkpt lat="40.499925" lon="-3.50414">
        <ele>672.055</ele>
        <time>2019-07-01T18:25:43.781Z</time>
      </trkpt>
      <trkpt lat="40.50004" lon="-3.50409333">
        <ele>672.055</ele>
        <time>2019-07-01T18:25:44.781Z</time>
      </trkpt>
      <trkpt lat="40.50009833" lon="-3.50406833">
        <ele>672.055</ele>
        <time>2019-07-01T18:25:45.781Z</time>
      </trkpt>
      <trkpt lat="40.50009833" lon="-3.50406833">
        <ele>672.055</ele>
        <time>2019-07-01T18:25:46.781Z</time>
      </trkpt>
      <trkpt lat="40.50021667" lon="-3.50401833">
        <ele>672.055</ele>
        <time>2019-07-01T18:25:47.781Z</time>
      </trkpt>
      <trkpt lat="40.50028" lon="-3.50399">
        <ele>672.055</ele>
        <time>2019-07-01T18:25:48.781Z</time>
      </trkpt>
      <trkpt lat="40.50028" lon="-3.50399">
        <ele>671.055</ele>
        <time>2019-07-01T18:25:49.781Z</time>
      </trkpt>
      <trkpt lat="40.50041" lon="-3.50393333">
        <ele>671.055</ele>
        <time>2019-07-01T18:25:50.781Z</time>
      </trkpt>
      <trkpt lat="40.50041" lon="-3.50393333">
        <ele>671.055</ele>
        <time>2019-07-01T18:25:51.781Z</time>
      </trkpt>
      <trkpt lat="40.50054333" lon="-3.50387167">
        <ele>671.055</ele>
        <time>2019-07-01T18:25:52.781Z</time>
      </trkpt>
      <trkpt lat="40.50054333" lon="-3.50387167">
        <ele>671.055</ele>
        <time>2019-07-01T18:25:53.781Z</time>
      </trkpt>
      <trkpt lat="40.50064833" lon="-3.50376167">
        <ele>670.055</ele>
        <time>2019-07-01T18:25:54.781Z</time>
      </trkpt>
      <trkpt lat="40.50068333" lon="-3.50368667">
        <ele>670.055</ele>
        <time>2019-07-01T18:25:55.781Z</time>
      </trkpt>
      <trkpt lat="40.50068333" lon="-3.50368667">
        <ele>670.055</ele>
        <time>2019-07-01T18:25:56.781Z</time>
      </trkpt>
      <trkpt lat="40.50077167" lon="-3.50356333">
        <ele>670.055</ele>
        <time>2019-07-01T18:25:57.781Z</time>
      </trkpt>
      <trkpt lat="40.50083" lon="-3.503535">
        <ele>670.055</ele>
        <time>2019-07-01T18:25:58.781Z</time>
      </trkpt>
      <trkpt lat="40.50083" lon="-3.503535">
        <ele>670.055</ele>
        <time>2019-07-01T18:25:59.781Z</time>
      </trkpt>
      <trkpt lat="40.500945" lon="-3.50355667">
        <ele>670.055</ele>
        <time>2019-07-01T18:26:00.781Z</time>
      </trkpt>
      <trkpt lat="40.500945" lon="-3.50355667">
        <ele>670.055</ele>
        <time>2019-07-01T18:26:01.781Z</time>
      </trkpt>
      <trkpt lat="40.50104667" lon="-3.50362833">
        <ele>670.055</ele>
        <time>2019-07-01T18:26:02.781Z</time>
      </trkpt>
      <trkpt lat="40.50104667" lon="-3.50362833">
        <ele>670.055</ele>
        <time>2019-07-01T18:26:03.781Z</time>
      </trkpt>
      <trkpt lat="40.501165" lon="-3.50367">
        <ele>670.055</ele>
        <time>2019-07-01T18:26:04.781Z</time>
      </trkpt>
      <trkpt lat="40.501165" lon="-3.50367">
        <ele>670.055</ele>
        <time>2019-07-01T18:26:05.781Z</time>
      </trkpt>
      <trkpt lat="40.50129" lon="-3.503655">
        <ele>670.055</ele>
        <time>2019-07-01T18:26:06.781Z</time>
      </trkpt>
      <trkpt lat="40.50129" lon="-3.503655">
        <ele>670.055</ele>
        <time>2019-07-01T18:26:07.781Z</time>
      </trkpt>
      <trkpt lat="40.50141167" lon="-3.50363333">
        <ele>670.055</ele>
        <time>2019-07-01T18:26:08.781Z</time>
      </trkpt>
      <trkpt lat="40.50141167" lon="-3.50363333">
        <ele>670.055</ele>
        <time>2019-07-01T18:26:09.781Z</time>
      </trkpt>
      <trkpt lat="40.50152833" lon="-3.50361167">
        <ele>670.055</ele>
        <time>2019-07-01T18:26:10.781Z</time>
      </trkpt>
      <trkpt lat="40.50152833" lon="-3.50361167">
        <ele>670.055</ele>
        <time>2019-07-01T18:26:11.781Z</time>
      </trkpt>
      <trkpt lat="40.501645" lon="-3.503595">
        <ele>670.055</ele>
        <time>2019-07-01T18:26:12.781Z</time>
      </trkpt>
      <trkpt lat="40.501645" lon="-3.503595">
        <ele>670.055</ele>
        <time>2019-07-01T18:26:13.781Z</time>
      </trkpt>
      <trkpt lat="40.50175667" lon="-3.50357167">
        <ele>670.055</ele>
        <time>2019-07-01T18:26:14.781Z</time>
      </trkpt>
      <trkpt lat="40.50175667" lon="-3.50357167">
        <ele>670.055</ele>
        <time>2019-07-01T18:26:15.781Z</time>
      </trkpt>
      <trkpt lat="40.50186333" lon="-3.50354667">
        <ele>671.055</ele>
        <time>2019-07-01T18:26:16.781Z</time>
      </trkpt>
      <trkpt lat="40.50186333" lon="-3.50354667">
        <ele>671.055</ele>
        <time>2019-07-01T18:26:17.781Z</time>
      </trkpt>
      <trkpt lat="40.50197167" lon="-3.50352667">
        <ele>671.055</ele>
        <time>2019-07-01T18:26:18.781Z</time>
      </trkpt>
      <trkpt lat="40.50197167" lon="-3.50352667">
        <ele>671.055</ele>
        <time>2019-07-01T18:26:19.781Z</time>
      </trkpt>
      <trkpt lat="40.50208" lon="-3.50350667">
        <ele>671.055</ele>
        <time>2019-07-01T18:26:20.781Z</time>
      </trkpt>
      <trkpt lat="40.50208" lon="-3.50350667">
        <ele>671.055</ele>
        <time>2019-07-01T18:26:21.781Z</time>
      </trkpt>
      <trkpt lat="40.502185" lon="-3.50349167">
        <ele>671.055</ele>
        <time>2019-07-01T18:26:22.781Z</time>
      </trkpt>
      <trkpt lat="40.50223667" lon="-3.50348333">
        <ele>671.055</ele>
        <time>2019-07-01T18:26:23.781Z</time>
      </trkpt>
      <trkpt lat="40.50223667" lon="-3.50348333">
        <ele>671.055</ele>
        <time>2019-07-01T18:26:24.781Z</time>
      </trkpt>
      <trkpt lat="40.50234" lon="-3.50346333">
        <ele>671.055</ele>
        <time>2019-07-01T18:26:25.781Z</time>
      </trkpt>
      <trkpt lat="40.50234" lon="-3.50346333">
        <ele>671.055</ele>
        <time>2019-07-01T18:26:26.781Z</time>
      </trkpt>
      <trkpt lat="40.50244667" lon="-3.50344167">
        <ele>671.055</ele>
        <time>2019-07-01T18:26:27.781Z</time>
      </trkpt>
      <trkpt lat="40.50244667" lon="-3.50344167">
        <ele>672.055</ele>
        <time>2019-07-01T18:26:28.781Z</time>
      </trkpt>
      <trkpt lat="40.50255333" lon="-3.50341833">
        <ele>672.055</ele>
        <time>2019-07-01T18:26:29.781Z</time>
      </trkpt>
      <trkpt lat="40.502605" lon="-3.50340833">
        <ele>672.055</ele>
        <time>2019-07-01T18:26:30.781Z</time>
      </trkpt>
      <trkpt lat="40.502605" lon="-3.50340833">
        <ele>672.055</ele>
        <time>2019-07-01T18:26:31.781Z</time>
      </trkpt>
      <trkpt lat="40.50271" lon="-3.503395">
        <ele>672.055</ele>
        <time>2019-07-01T18:26:32.781Z</time>
      </trkpt>
      <trkpt lat="40.50276333" lon="-3.50338667">
        <ele>672.055</ele>
        <time>2019-07-01T18:26:33.781Z</time>
      </trkpt>
      <trkpt lat="40.50276333" lon="-3.50338667">
        <ele>673.055</ele>
        <time>2019-07-01T18:26:34.781Z</time>
      </trkpt>
      <trkpt lat="40.50287" lon="-3.503365">
        <ele>673.055</ele>
        <time>2019-07-01T18:26:35.781Z</time>
      </trkpt>
      <trkpt lat="40.50292333" lon="-3.503355">
        <ele>673.055</ele>
        <time>2019-07-01T18:26:36.781Z</time>
      </trkpt>
      <trkpt lat="40.50292333" lon="-3.503355">
        <ele>673.055</ele>
        <time>2019-07-01T18:26:37.781Z</time>
      </trkpt>
      <trkpt lat="40.50303167" lon="-3.50333833">
        <ele>674.055</ele>
        <time>2019-07-01T18:26:38.781Z</time>
      </trkpt>
      <trkpt lat="40.50308333" lon="-3.50333">
        <ele>674.055</ele>
        <time>2019-07-01T18:26:39.781Z</time>
      </trkpt>
      <trkpt lat="40.50313667" lon="-3.50332333">
        <ele>674.055</ele>
        <time>2019-07-01T18:26:40.781Z</time>
      </trkpt>
      <trkpt lat="40.50313667" lon="-3.50332333">
        <ele>674.055</ele>
        <time>2019-07-01T18:26:41.781Z</time>
      </trkpt>
      <trkpt lat="40.50324333" lon="-3.50330833">
        <ele>674.055</ele>
        <time>2019-07-01T18:26:42.781Z</time>
      </trkpt>
      <trkpt lat="40.50324333" lon="-3.50330833">
        <ele>674.055</ele>
        <time>2019-07-01T18:26:43.781Z</time>
      </trkpt>
      <trkpt lat="40.50334833" lon="-3.503295">
        <ele>675.055</ele>
        <time>2019-07-01T18:26:44.781Z</time>
      </trkpt>
      <trkpt lat="40.50334833" lon="-3.503295">
        <ele>675.055</ele>
        <time>2019-07-01T18:26:45.781Z</time>
      </trkpt>
      <trkpt lat="40.50345167" lon="-3.503285">
        <ele>675.055</ele>
        <time>2019-07-01T18:26:46.781Z</time>
      </trkpt>
      <trkpt lat="40.50350167" lon="-3.50328167">
        <ele>675.055</ele>
        <time>2019-07-01T18:26:47.781Z</time>
      </trkpt>
      <trkpt lat="40.50350167" lon="-3.50328167">
        <ele>675.055</ele>
        <time>2019-07-01T18:26:48.781Z</time>
      </trkpt>
      <trkpt lat="40.50360333" lon="-3.50327833">
        <ele>675.055</ele>
        <time>2019-07-01T18:26:49.781Z</time>
      </trkpt>
      <trkpt lat="40.50360333" lon="-3.50327833">
        <ele>675.055</ele>
        <time>2019-07-01T18:26:50.781Z</time>
      </trkpt>
      <trkpt lat="40.50370333" lon="-3.503275">
        <ele>675.055</ele>
        <time>2019-07-01T18:26:51.781Z</time>
      </trkpt>
      <trkpt lat="40.50370333" lon="-3.503275">
        <ele>675.055</ele>
        <time>2019-07-01T18:26:52.781Z</time>
      </trkpt>
      <trkpt lat="40.5038" lon="-3.503275">
        <ele>676.055</ele>
        <time>2019-07-01T18:26:53.781Z</time>
      </trkpt>
      <trkpt lat="40.5038" lon="-3.503275">
        <ele>676.055</ele>
        <time>2019-07-01T18:26:54.781Z</time>
      </trkpt>
      <trkpt lat="40.50389167" lon="-3.50326">
        <ele>676.055</ele>
        <time>2019-07-01T18:26:55.781Z</time>
      </trkpt>
      <trkpt lat="40.50389167" lon="-3.50326">
        <ele>676.055</ele>
        <time>2019-07-01T18:26:56.781Z</time>
      </trkpt>
      <trkpt lat="40.50397" lon="-3.50322333">
        <ele>676.055</ele>
        <time>2019-07-01T18:26:57.781Z</time>
      </trkpt>
      <trkpt lat="40.50397" lon="-3.50322333">
        <ele>676.055</ele>
        <time>2019-07-01T18:26:58.781Z</time>
      </trkpt>
      <trkpt lat="40.50404" lon="-3.50324">
        <ele>676.055</ele>
        <time>2019-07-01T18:26:59.781Z</time>
      </trkpt>
      <trkpt lat="40.50404" lon="-3.50324">
        <ele>676.055</ele>
        <time>2019-07-01T18:27:00.781Z</time>
      </trkpt>
      <trkpt lat="40.50407167" lon="-3.503325">
        <ele>676.055</ele>
        <time>2019-07-01T18:27:01.781Z</time>
      </trkpt>
      <trkpt lat="40.50407167" lon="-3.503325">
        <ele>676.055</ele>
        <time>2019-07-01T18:27:02.781Z</time>
      </trkpt>
      <trkpt lat="40.50404167" lon="-3.50340833">
        <ele>676.055</ele>
        <time>2019-07-01T18:27:03.781Z</time>
      </trkpt>
      <trkpt lat="40.50404167" lon="-3.50340833">
        <ele>676.055</ele>
        <time>2019-07-01T18:27:04.781Z</time>
      </trkpt>
      <trkpt lat="40.50397333" lon="-3.50343333">
        <ele>676.055</ele>
        <time>2019-07-01T18:27:05.781Z</time>
      </trkpt>
      <trkpt lat="40.50393833" lon="-3.50342333">
        <ele>676.055</ele>
        <time>2019-07-01T18:27:06.781Z</time>
      </trkpt>
      <trkpt lat="40.50393833" lon="-3.50342333">
        <ele>676.055</ele>
        <time>2019-07-01T18:27:07.781Z</time>
      </trkpt>
      <trkpt lat="40.503865" lon="-3.50338333">
        <ele>676.055</ele>
        <time>2019-07-01T18:27:08.781Z</time>
      </trkpt>
      <trkpt lat="40.503865" lon="-3.50338333">
        <ele>676.055</ele>
        <time>2019-07-01T18:27:09.781Z</time>
      </trkpt>
      <trkpt lat="40.50377167" lon="-3.50337">
        <ele>676.055</ele>
        <time>2019-07-01T18:27:10.781Z</time>
      </trkpt>
      <trkpt lat="40.50377167" lon="-3.50337">
        <ele>676.055</ele>
        <time>2019-07-01T18:27:11.781Z</time>
      </trkpt>
      <trkpt lat="40.50367" lon="-3.50337667">
        <ele>676.055</ele>
        <time>2019-07-01T18:27:12.781Z</time>
      </trkpt>
      <trkpt lat="40.50367" lon="-3.50337667">
        <ele>676.055</ele>
        <time>2019-07-01T18:27:13.781Z</time>
      </trkpt>
      <trkpt lat="40.503565" lon="-3.50338167">
        <ele>676.055</ele>
        <time>2019-07-01T18:27:14.781Z</time>
      </trkpt>
      <trkpt lat="40.503565" lon="-3.50338167">
        <ele>676.055</ele>
        <time>2019-07-01T18:27:15.781Z</time>
      </trkpt>
      <trkpt lat="40.503455" lon="-3.50338833">
        <ele>676.055</ele>
        <time>2019-07-01T18:27:16.781Z</time>
      </trkpt>
      <trkpt lat="40.50339833" lon="-3.503395">
        <ele>676.055</ele>
        <time>2019-07-01T18:27:17.781Z</time>
      </trkpt>
      <trkpt lat="40.50334" lon="-3.50340167">
        <ele>676.055</ele>
        <time>2019-07-01T18:27:18.781Z</time>
      </trkpt>
      <trkpt lat="40.50328" lon="-3.50340667">
        <ele>676.055</ele>
        <time>2019-07-01T18:27:19.781Z</time>
      </trkpt>
      <trkpt lat="40.50328" lon="-3.50340667">
        <ele>676.055</ele>
        <time>2019-07-01T18:27:20.781Z</time>
      </trkpt>
      <trkpt lat="40.50316" lon="-3.50341667">
        <ele>676.055</ele>
        <time>2019-07-01T18:27:21.781Z</time>
      </trkpt>
      <trkpt lat="40.5031" lon="-3.50342167">
        <ele>675.055</ele>
        <time>2019-07-01T18:27:22.781Z</time>
      </trkpt>
      <trkpt lat="40.5031" lon="-3.50342167">
        <ele>675.055</ele>
        <time>2019-07-01T18:27:23.781Z</time>
      </trkpt>
      <trkpt lat="40.50297333" lon="-3.50343333">
        <ele>675.055</ele>
        <time>2019-07-01T18:27:24.781Z</time>
      </trkpt>
      <trkpt lat="40.50297333" lon="-3.50343333">
        <ele>675.055</ele>
        <time>2019-07-01T18:27:25.781Z</time>
      </trkpt>
      <trkpt lat="40.50284167" lon="-3.50345">
        <ele>675.055</ele>
        <time>2019-07-01T18:27:26.781Z</time>
      </trkpt>
      <trkpt lat="40.50284167" lon="-3.50345">
        <ele>675.055</ele>
        <time>2019-07-01T18:27:27.781Z</time>
      </trkpt>
      <trkpt lat="40.50271167" lon="-3.50347">
        <ele>674.055</ele>
        <time>2019-07-01T18:27:28.781Z</time>
      </trkpt>
      <trkpt lat="40.50271167" lon="-3.50347">
        <ele>674.055</ele>
        <time>2019-07-01T18:27:29.781Z</time>
      </trkpt>
      <trkpt lat="40.50257833" lon="-3.503495">
        <ele>674.055</ele>
        <time>2019-07-01T18:27:30.781Z</time>
      </trkpt>
      <trkpt lat="40.49975167" lon="-3.5043">
        <ele>696.011</ele>
        <time>2019-07-01T18:28:16.935Z</time>
      </trkpt>
      <trkpt lat="40.499705" lon="-3.50433">
        <ele>696.011</ele>
        <time>2019-07-01T18:28:17.935Z</time>
      </trkpt>
      <trkpt lat="40.49966" lon="-3.50436167">
        <ele>696.011</ele>
        <time>2019-07-01T18:28:18.935Z</time>
      </trkpt>
      <trkpt lat="40.49966" lon="-3.50436167">
        <ele>696.011</ele>
        <time>2019-07-01T18:28:19.935Z</time>
      </trkpt>
      <trkpt lat="40.49956333" lon="-3.50441333">
        <ele>696.011</ele>
        <time>2019-07-01T18:28:20.935Z</time>
      </trkpt>
      <trkpt lat="40.49956333" lon="-3.50441333">
        <ele>696.011</ele>
        <time>2019-07-01T18:28:21.935Z</time>
      </trkpt>
      <trkpt lat="40.49945833" lon="-3.50446167">
        <ele>696.011</ele>
        <time>2019-07-01T18:28:22.935Z</time>
      </trkpt>
      <trkpt lat="40.49945833" lon="-3.50446167">
        <ele>696.011</ele>
        <time>2019-07-01T18:28:23.935Z</time>
      </trkpt>
      <trkpt lat="40.49934833" lon="-3.50451">
        <ele>696.011</ele>
        <time>2019-07-01T18:28:24.935Z</time>
      </trkpt>
      <trkpt lat="40.49934833" lon="-3.50451">
        <ele>696.011</ele>
        <time>2019-07-01T18:28:25.935Z</time>
      </trkpt>
      <trkpt lat="40.499235" lon="-3.50455333">
        <ele>696.011</ele>
        <time>2019-07-01T18:28:26.935Z</time>
      </trkpt>
      <trkpt lat="40.499235" lon="-3.50455333">
        <ele>696.011</ele>
        <time>2019-07-01T18:28:27.935Z</time>
      </trkpt>
      <trkpt lat="40.49911833" lon="-3.50460667">
        <ele>696.011</ele>
        <time>2019-07-01T18:28:28.935Z</time>
      </trkpt>
      <trkpt lat="40.49911833" lon="-3.50460667">
        <ele>696.011</ele>
        <time>2019-07-01T18:28:29.935Z</time>
      </trkpt>
      <trkpt lat="40.499" lon="-3.50467">
        <ele>696.011</ele>
        <time>2019-07-01T18:28:30.935Z</time>
      </trkpt>
      <trkpt lat="40.499" lon="-3.50467">
        <ele>696.011</ele>
        <time>2019-07-01T18:28:31.935Z</time>
      </trkpt>
      <trkpt lat="40.49887167" lon="-3.50472167">
        <ele>696.011</ele>
        <time>2019-07-01T18:28:32.935Z</time>
      </trkpt>
      <trkpt lat="40.49880667" lon="-3.504745">
        <ele>696.011</ele>
        <time>2019-07-01T18:28:33.935Z</time>
      </trkpt>
      <trkpt lat="40.49880667" lon="-3.504745">
        <ele>696.011</ele>
        <time>2019-07-01T18:28:34.935Z</time>
      </trkpt>
      <trkpt lat="40.49867" lon="-3.50480167">
        <ele>696.011</ele>
        <time>2019-07-01T18:28:35.935Z</time>
      </trkpt>
      <trkpt lat="40.49860167" lon="-3.50483">
        <ele>696.011</ele>
        <time>2019-07-01T18:28:36.935Z</time>
      </trkpt>
      <trkpt lat="40.49852833" lon="-3.50485833">
        <ele>696.011</ele>
        <time>2019-07-01T18:28:37.935Z</time>
      </trkpt>
      <trkpt lat="40.49852833" lon="-3.50485833">
        <ele>696.011</ele>
        <time>2019-07-01T18:28:38.935Z</time>
      </trkpt>
      <trkpt lat="40.49837667" lon="-3.50492167">
        <ele>696.011</ele>
        <time>2019-07-01T18:28:39.935Z</time>
      </trkpt>
      <trkpt lat="40.49837667" lon="-3.50492167">
        <ele>696.011</ele>
        <time>2019-07-01T18:28:40.935Z</time>
      </trkpt>
      <trkpt lat="40.49822" lon="-3.504995">
        <ele>696.011</ele>
        <time>2019-07-01T18:28:41.935Z</time>
      </trkpt>
      <trkpt lat="40.49814" lon="-3.50503167">
        <ele>696.011</ele>
        <time>2019-07-01T18:28:42.935Z</time>
      </trkpt>
      <trkpt lat="40.49814" lon="-3.50503167">
        <ele>696.011</ele>
        <time>2019-07-01T18:28:43.935Z</time>
      </trkpt>
      <trkpt lat="40.49797667" lon="-3.50510833">
        <ele>696.011</ele>
        <time>2019-07-01T18:28:44.935Z</time>
      </trkpt>
      <trkpt lat="40.49797667" lon="-3.50510833">
        <ele>696.011</ele>
        <time>2019-07-01T18:28:45.935Z</time>
      </trkpt>
      <trkpt lat="40.49780667" lon="-3.505185">
        <ele>696.011</ele>
        <time>2019-07-01T18:28:46.935Z</time>
      </trkpt>
      <trkpt lat="40.49780667" lon="-3.505185">
        <ele>696.011</ele>
        <time>2019-07-01T18:28:47.935Z</time>
      </trkpt>
      <trkpt lat="40.49764167" lon="-3.505285">
        <ele>696.011</ele>
        <time>2019-07-01T18:28:48.935Z</time>
      </trkpt>
      <trkpt lat="40.49764167" lon="-3.505285">
        <ele>696.011</ele>
        <time>2019-07-01T18:28:49.935Z</time>
      </trkpt>
      <trkpt lat="40.49749667" lon="-3.50541167">
        <ele>696.011</ele>
        <time>2019-07-01T18:28:50.935Z</time>
      </trkpt>
      <trkpt lat="40.49749667" lon="-3.50541167">
        <ele>696.011</ele>
        <time>2019-07-01T18:28:51.935Z</time>
      </trkpt>
      <trkpt lat="40.497335" lon="-3.505425">
        <ele>696.011</ele>
        <time>2019-07-01T18:28:52.935Z</time>
      </trkpt>
      <trkpt lat="40.497335" lon="-3.505425">
        <ele>696.011</ele>
        <time>2019-07-01T18:28:53.935Z</time>
      </trkpt>
      <trkpt lat="40.49716833" lon="-3.50542833">
        <ele>696.011</ele>
        <time>2019-07-01T18:28:54.935Z</time>
      </trkpt>
      <trkpt lat="40.49716833" lon="-3.50542833">
        <ele>696.011</ele>
        <time>2019-07-01T18:28:55.935Z</time>
      </trkpt>
      <trkpt lat="40.497015" lon="-3.50549167">
        <ele>696.011</ele>
        <time>2019-07-01T18:28:56.935Z</time>
      </trkpt>
      <trkpt lat="40.497015" lon="-3.50549167">
        <ele>696.011</ele>
        <time>2019-07-01T18:28:57.935Z</time>
      </trkpt>
      <trkpt lat="40.49686" lon="-3.50556833">
        <ele>696.011</ele>
        <time>2019-07-01T18:28:58.935Z</time>
      </trkpt>
      <trkpt lat="40.49678167" lon="-3.50560833">
        <ele>696.011</ele>
        <time>2019-07-01T18:28:59.935Z</time>
      </trkpt>
      <trkpt lat="40.49678167" lon="-3.50560833">
        <ele>696.011</ele>
        <time>2019-07-01T18:29:00.935Z</time>
      </trkpt>
      <trkpt lat="40.49662667" lon="-3.50569833">
        <ele>696.011</ele>
        <time>2019-07-01T18:29:01.935Z</time>
      </trkpt>
      <trkpt lat="40.49662667" lon="-3.50569833">
        <ele>696.011</ele>
        <time>2019-07-01T18:29:02.935Z</time>
      </trkpt>
      <trkpt lat="40.49647667" lon="-3.5058">
        <ele>696.011</ele>
        <time>2019-07-01T18:29:03.935Z</time>
      </trkpt>
      <trkpt lat="40.49647667" lon="-3.5058">
        <ele>696.011</ele>
        <time>2019-07-01T18:29:04.935Z</time>
      </trkpt>
      <trkpt lat="40.49634333" lon="-3.50591333">
        <ele>696.011</ele>
        <time>2019-07-01T18:29:05.935Z</time>
      </trkpt>
      <trkpt lat="40.49634333" lon="-3.50591333">
        <ele>696.011</ele>
        <time>2019-07-01T18:29:06.935Z</time>
      </trkpt>
      <trkpt lat="40.49621667" lon="-3.50602833">
        <ele>696.011</ele>
        <time>2019-07-01T18:29:07.935Z</time>
      </trkpt>
      <trkpt lat="40.49621667" lon="-3.50602833">
        <ele>696.011</ele>
        <time>2019-07-01T18:29:08.935Z</time>
      </trkpt>
      <trkpt lat="40.49609833" lon="-3.50615167">
        <ele>696.011</ele>
        <time>2019-07-01T18:29:09.935Z</time>
      </trkpt>
      <trkpt lat="40.49604167" lon="-3.50621833">
        <ele>696.011</ele>
        <time>2019-07-01T18:29:10.935Z</time>
      </trkpt>
      <trkpt lat="40.49604167" lon="-3.50621833">
        <ele>696.011</ele>
        <time>2019-07-01T18:29:11.935Z</time>
      </trkpt>
      <trkpt lat="40.49593167" lon="-3.50635333">
        <ele>696.011</ele>
        <time>2019-07-01T18:29:12.935Z</time>
      </trkpt>
      <trkpt lat="40.49588" lon="-3.50642167">
        <ele>696.011</ele>
        <time>2019-07-01T18:29:13.935Z</time>
      </trkpt>
      <trkpt lat="40.49588" lon="-3.50642167">
        <ele>696.011</ele>
        <time>2019-07-01T18:29:14.935Z</time>
      </trkpt>
      <trkpt lat="40.49578167" lon="-3.50655333">
        <ele>696.011</ele>
        <time>2019-07-01T18:29:15.935Z</time>
      </trkpt>
      <trkpt lat="40.49578167" lon="-3.50655333">
        <ele>696.011</ele>
        <time>2019-07-01T18:29:16.935Z</time>
      </trkpt>
      <trkpt lat="40.49569333" lon="-3.50669333">
        <ele>696.011</ele>
        <time>2019-07-01T18:29:17.935Z</time>
      </trkpt>
      <trkpt lat="40.49565167" lon="-3.506765">
        <ele>696.011</ele>
        <time>2019-07-01T18:29:18.935Z</time>
      </trkpt>
      <trkpt lat="40.49565167" lon="-3.506765">
        <ele>696.011</ele>
        <time>2019-07-01T18:29:19.935Z</time>
      </trkpt>
      <trkpt lat="40.49557" lon="-3.50691167">
        <ele>696.011</ele>
        <time>2019-07-01T18:29:20.935Z</time>
      </trkpt>
      <trkpt lat="40.49557" lon="-3.50691167">
        <ele>696.011</ele>
        <time>2019-07-01T18:29:21.935Z</time>
      </trkpt>
      <trkpt lat="40.495495" lon="-3.50706333">
        <ele>696.011</ele>
        <time>2019-07-01T18:29:22.935Z</time>
      </trkpt>
      <trkpt lat="40.495495" lon="-3.50706333">
        <ele>696.011</ele>
        <time>2019-07-01T18:29:23.935Z</time>
      </trkpt>
      <trkpt lat="40.49542667" lon="-3.507215">
        <ele>696.011</ele>
        <time>2019-07-01T18:29:24.935Z</time>
      </trkpt>
      <trkpt lat="40.49542667" lon="-3.507215">
        <ele>696.011</ele>
        <time>2019-07-01T18:29:25.935Z</time>
      </trkpt>
      <trkpt lat="40.495365" lon="-3.50736833">
        <ele>696.011</ele>
        <time>2019-07-01T18:29:26.935Z</time>
      </trkpt>
      <trkpt lat="40.49533667" lon="-3.50744667">
        <ele>696.011</ele>
        <time>2019-07-01T18:29:27.935Z</time>
      </trkpt>
      <trkpt lat="40.49533667" lon="-3.50744667">
        <ele>696.011</ele>
        <time>2019-07-01T18:29:28.935Z</time>
      </trkpt>
      <trkpt lat="40.495285" lon="-3.50760167">
        <ele>696.011</ele>
        <time>2019-07-01T18:29:29.935Z</time>
      </trkpt>
      <trkpt lat="40.49526167" lon="-3.50768">
        <ele>696.011</ele>
        <time>2019-07-01T18:29:30.935Z</time>
      </trkpt>
      <trkpt lat="40.49526167" lon="-3.50768">
        <ele>696.011</ele>
        <time>2019-07-01T18:29:31.935Z</time>
      </trkpt>
      <trkpt lat="40.49522333" lon="-3.507835">
        <ele>696.011</ele>
        <time>2019-07-01T18:29:32.935Z</time>
      </trkpt>
      <trkpt lat="40.49522333" lon="-3.507835">
        <ele>696.011</ele>
        <time>2019-07-01T18:29:33.935Z</time>
      </trkpt>
      <trkpt lat="40.49518833" lon="-3.50798667">
        <ele>696.011</ele>
        <time>2019-07-01T18:29:34.935Z</time>
      </trkpt>
      <trkpt lat="40.49518833" lon="-3.50798667">
        <ele>696.011</ele>
        <time>2019-07-01T18:29:35.935Z</time>
      </trkpt>
      <trkpt lat="40.49516" lon="-3.50814">
        <ele>696.011</ele>
        <time>2019-07-01T18:29:36.935Z</time>
      </trkpt>
      <trkpt lat="40.49516" lon="-3.50814">
        <ele>696.011</ele>
        <time>2019-07-01T18:29:37.935Z</time>
      </trkpt>
      <trkpt lat="40.49513167" lon="-3.50828833">
        <ele>696.011</ele>
        <time>2019-07-01T18:29:38.935Z</time>
      </trkpt>
      <trkpt lat="40.49513167" lon="-3.50828833">
        <ele>696.011</ele>
        <time>2019-07-01T18:29:39.935Z</time>
      </trkpt>
      <trkpt lat="40.49511" lon="-3.50843833">
        <ele>696.011</ele>
        <time>2019-07-01T18:29:40.935Z</time>
      </trkpt>
      <trkpt lat="40.495105" lon="-3.50851333">
        <ele>696.011</ele>
        <time>2019-07-01T18:29:41.935Z</time>
      </trkpt>
      <trkpt lat="40.495105" lon="-3.50851333">
        <ele>696.011</ele>
        <time>2019-07-01T18:29:42.935Z</time>
      </trkpt>
      <trkpt lat="40.49509333" lon="-3.50866167">
        <ele>696.011</ele>
        <time>2019-07-01T18:29:43.935Z</time>
      </trkpt>
      <trkpt lat="40.49509" lon="-3.50873667">
        <ele>696.011</ele>
        <time>2019-07-01T18:29:44.935Z</time>
      </trkpt>
      <trkpt lat="40.49509" lon="-3.50873667">
        <ele>696.011</ele>
        <time>2019-07-01T18:29:45.935Z</time>
      </trkpt>
      <trkpt lat="40.495085" lon="-3.50888833">
        <ele>696.011</ele>
        <time>2019-07-01T18:29:46.935Z</time>
      </trkpt>
      <trkpt lat="40.495085" lon="-3.50888833">
        <ele>696.011</ele>
        <time>2019-07-01T18:29:47.935Z</time>
      </trkpt>
      <trkpt lat="40.49508333" lon="-3.50904333">
        <ele>696.011</ele>
        <time>2019-07-01T18:29:48.935Z</time>
      </trkpt>
      <trkpt lat="40.49508333" lon="-3.50904333">
        <ele>696.011</ele>
        <time>2019-07-01T18:29:49.935Z</time>
      </trkpt>
      <trkpt lat="40.495085" lon="-3.50919667">
        <ele>696.011</ele>
        <time>2019-07-01T18:29:50.935Z</time>
      </trkpt>
      <trkpt lat="40.495085" lon="-3.50919667">
        <ele>696.011</ele>
        <time>2019-07-01T18:29:51.935Z</time>
      </trkpt>
      <trkpt lat="40.49509333" lon="-3.509345">
        <ele>696.011</ele>
        <time>2019-07-01T18:29:52.935Z</time>
      </trkpt>
      <trkpt lat="40.49509333" lon="-3.509345">
        <ele>696.011</ele>
        <time>2019-07-01T18:29:53.935Z</time>
      </trkpt>
      <trkpt lat="40.49511" lon="-3.50949167">
        <ele>696.011</ele>
        <time>2019-07-01T18:29:54.935Z</time>
      </trkpt>
      <trkpt lat="40.49511" lon="-3.50949167">
        <ele>696.011</ele>
        <time>2019-07-01T18:29:55.935Z</time>
      </trkpt>
      <trkpt lat="40.49513167" lon="-3.509635">
        <ele>696.011</ele>
        <time>2019-07-01T18:29:56.935Z</time>
      </trkpt>
      <trkpt lat="40.49513167" lon="-3.509635">
        <ele>696.011</ele>
        <time>2019-07-01T18:29:57.935Z</time>
      </trkpt>
      <trkpt lat="40.49515167" lon="-3.50977833">
        <ele>696.011</ele>
        <time>2019-07-01T18:29:58.935Z</time>
      </trkpt>
      <trkpt lat="40.49515167" lon="-3.50977833">
        <ele>696.011</ele>
        <time>2019-07-01T18:29:59.935Z</time>
      </trkpt>
      <trkpt lat="40.49517833" lon="-3.50992">
        <ele>696.011</ele>
        <time>2019-07-01T18:30:00.935Z</time>
      </trkpt>
      <trkpt lat="40.49519167" lon="-3.50999">
        <ele>696.011</ele>
        <time>2019-07-01T18:30:01.935Z</time>
      </trkpt>
      <trkpt lat="40.49519167" lon="-3.50999">
        <ele>696.011</ele>
        <time>2019-07-01T18:30:02.935Z</time>
      </trkpt>
      <trkpt lat="40.49522167" lon="-3.51012833">
        <ele>696.011</ele>
        <time>2019-07-01T18:30:03.935Z</time>
      </trkpt>
      <trkpt lat="40.49522167" lon="-3.51012833">
        <ele>696.011</ele>
        <time>2019-07-01T18:30:04.935Z</time>
      </trkpt>
      <trkpt lat="40.49525667" lon="-3.51026167">
        <ele>696.011</ele>
        <time>2019-07-01T18:30:05.935Z</time>
      </trkpt>
      <trkpt lat="40.49525667" lon="-3.51026167">
        <ele>696.011</ele>
        <time>2019-07-01T18:30:06.935Z</time>
      </trkpt>
      <trkpt lat="40.49529667" lon="-3.51039333">
        <ele>696.011</ele>
        <time>2019-07-01T18:30:07.935Z</time>
      </trkpt>
      <trkpt lat="40.49531667" lon="-3.51045833">
        <ele>696.011</ele>
        <time>2019-07-01T18:30:08.935Z</time>
      </trkpt>
      <trkpt lat="40.49531667" lon="-3.51045833">
        <ele>696.011</ele>
        <time>2019-07-01T18:30:09.935Z</time>
      </trkpt>
      <trkpt lat="40.495355" lon="-3.51059333">
        <ele>696.011</ele>
        <time>2019-07-01T18:30:10.935Z</time>
      </trkpt>
      <trkpt lat="40.495355" lon="-3.51059333">
        <ele>696.011</ele>
        <time>2019-07-01T18:30:11.935Z</time>
      </trkpt>
      <trkpt lat="40.4954" lon="-3.51071833">
        <ele>696.011</ele>
        <time>2019-07-01T18:30:12.935Z</time>
      </trkpt>
      <trkpt lat="40.49542333" lon="-3.51078167">
        <ele>696.011</ele>
        <time>2019-07-01T18:30:13.935Z</time>
      </trkpt>
      <trkpt lat="40.49542333" lon="-3.51078167">
        <ele>696.011</ele>
        <time>2019-07-01T18:30:14.935Z</time>
      </trkpt>
      <trkpt lat="40.49546833" lon="-3.51092167">
        <ele>696.011</ele>
        <time>2019-07-01T18:30:15.935Z</time>
      </trkpt>
      <trkpt lat="40.49546833" lon="-3.51092167">
        <ele>696.011</ele>
        <time>2019-07-01T18:30:16.935Z</time>
      </trkpt>
      <trkpt lat="40.49551667" lon="-3.51107333">
        <ele>696.011</ele>
        <time>2019-07-01T18:30:17.935Z</time>
      </trkpt>
      <trkpt lat="40.49551667" lon="-3.51107333">
        <ele>696.011</ele>
        <time>2019-07-01T18:30:18.935Z</time>
      </trkpt>
      <trkpt lat="40.495565" lon="-3.51123833">
        <ele>695.011</ele>
        <time>2019-07-01T18:30:19.935Z</time>
      </trkpt>
      <trkpt lat="40.49559167" lon="-3.51132333">
        <ele>695.011</ele>
        <time>2019-07-01T18:30:20.935Z</time>
      </trkpt>
      <trkpt lat="40.49559167" lon="-3.51132333">
        <ele>695.011</ele>
        <time>2019-07-01T18:30:21.935Z</time>
      </trkpt>
      <trkpt lat="40.49564333" lon="-3.51149667">
        <ele>695.011</ele>
        <time>2019-07-01T18:30:22.935Z</time>
      </trkpt>
      <trkpt lat="40.49564333" lon="-3.51149667">
        <ele>694.011</ele>
        <time>2019-07-01T18:30:23.935Z</time>
      </trkpt>
      <trkpt lat="40.49569333" lon="-3.51167667">
        <ele>694.011</ele>
        <time>2019-07-01T18:30:24.935Z</time>
      </trkpt>
      <trkpt lat="40.49569333" lon="-3.51167667">
        <ele>694.011</ele>
        <time>2019-07-01T18:30:25.935Z</time>
      </trkpt>
      <trkpt lat="40.495745" lon="-3.51185667">
        <ele>694.011</ele>
        <time>2019-07-01T18:30:26.935Z</time>
      </trkpt>
      <trkpt lat="40.495745" lon="-3.51185667">
        <ele>693.011</ele>
        <time>2019-07-01T18:30:27.935Z</time>
      </trkpt>
      <trkpt lat="40.49579833" lon="-3.51204167">
        <ele>693.011</ele>
        <time>2019-07-01T18:30:28.935Z</time>
      </trkpt>
      <trkpt lat="40.49579833" lon="-3.51204167">
        <ele>693.011</ele>
        <time>2019-07-01T18:30:29.935Z</time>
      </trkpt>
      <trkpt lat="40.49584833" lon="-3.51223333">
        <ele>693.011</ele>
        <time>2019-07-01T18:30:30.935Z</time>
      </trkpt>
      <trkpt lat="40.49584833" lon="-3.51223333">
        <ele>692.011</ele>
        <time>2019-07-01T18:30:31.935Z</time>
      </trkpt>
      <trkpt lat="40.49589833" lon="-3.51243833">
        <ele>692.011</ele>
        <time>2019-07-01T18:30:32.935Z</time>
      </trkpt>
      <trkpt lat="40.49589833" lon="-3.51243833">
        <ele>692.011</ele>
        <time>2019-07-01T18:30:33.935Z</time>
      </trkpt>
      <trkpt lat="40.49594833" lon="-3.51265167">
        <ele>692.011</ele>
        <time>2019-07-01T18:30:34.935Z</time>
      </trkpt>
      <trkpt lat="40.49597333" lon="-3.51276167">
        <ele>690.011</ele>
        <time>2019-07-01T18:30:35.935Z</time>
      </trkpt>
      <trkpt lat="40.49597333" lon="-3.51276167">
        <ele>690.011</ele>
        <time>2019-07-01T18:30:36.935Z</time>
      </trkpt>
      <trkpt lat="40.496025" lon="-3.512985">
        <ele>689.011</ele>
        <time>2019-07-01T18:30:37.935Z</time>
      </trkpt>
      <trkpt lat="40.49605167" lon="-3.5131">
        <ele>689.011</ele>
        <time>2019-07-01T18:30:38.935Z</time>
      </trkpt>
      <trkpt lat="40.49605167" lon="-3.5131">
        <ele>689.011</ele>
        <time>2019-07-01T18:30:39.935Z</time>
      </trkpt>
      <trkpt lat="40.496125" lon="-3.51331667">
        <ele>689.011</ele>
        <time>2019-07-01T18:30:40.935Z</time>
      </trkpt>
      <trkpt lat="40.49618" lon="-3.513405">
        <ele>688.011</ele>
        <time>2019-07-01T18:30:41.935Z</time>
      </trkpt>
      <trkpt lat="40.49618" lon="-3.513405">
        <ele>688.011</ele>
        <time>2019-07-01T18:30:42.935Z</time>
      </trkpt>
      <trkpt lat="40.49624" lon="-3.51359333">
        <ele>688.011</ele>
        <time>2019-07-01T18:30:43.935Z</time>
      </trkpt>
      <trkpt lat="40.49624" lon="-3.51359333">
        <ele>688.011</ele>
        <time>2019-07-01T18:30:44.935Z</time>
      </trkpt>
      <trkpt lat="40.49621333" lon="-3.51378833">
        <ele>688.011</ele>
        <time>2019-07-01T18:30:45.935Z</time>
      </trkpt>
      <trkpt lat="40.49621333" lon="-3.51378833">
        <ele>688.011</ele>
        <time>2019-07-01T18:30:46.935Z</time>
      </trkpt>
      <trkpt lat="40.49622667" lon="-3.51396">
        <ele>688.011</ele>
        <time>2019-07-01T18:30:47.935Z</time>
      </trkpt>
      <trkpt lat="40.49622667" lon="-3.51396">
        <ele>687.011</ele>
        <time>2019-07-01T18:30:48.935Z</time>
      </trkpt>
      <trkpt lat="40.49625333" lon="-3.51411">
        <ele>687.011</ele>
        <time>2019-07-01T18:30:49.935Z</time>
      </trkpt>
      <trkpt lat="40.49625333" lon="-3.51411">
        <ele>687.011</ele>
        <time>2019-07-01T18:30:50.935Z</time>
      </trkpt>
      <trkpt lat="40.49627833" lon="-3.514235">
        <ele>687.011</ele>
        <time>2019-07-01T18:30:51.935Z</time>
      </trkpt>
      <trkpt lat="40.49629" lon="-3.51429333">
        <ele>687.011</ele>
        <time>2019-07-01T18:30:52.935Z</time>
      </trkpt>
      <trkpt lat="40.49629" lon="-3.51429333">
        <ele>687.011</ele>
        <time>2019-07-01T18:30:53.935Z</time>
      </trkpt>
      <trkpt lat="40.49631333" lon="-3.514405">
        <ele>688.011</ele>
        <time>2019-07-01T18:30:54.935Z</time>
      </trkpt>
      <trkpt lat="40.49631333" lon="-3.514405">
        <ele>688.011</ele>
        <time>2019-07-01T18:30:55.935Z</time>
      </trkpt>
      <trkpt lat="40.49633167" lon="-3.51451833">
        <ele>688.011</ele>
        <time>2019-07-01T18:30:56.935Z</time>
      </trkpt>
      <trkpt lat="40.49633167" lon="-3.51451833">
        <ele>688.011</ele>
        <time>2019-07-01T18:30:57.935Z</time>
      </trkpt>
      <trkpt lat="40.49634833" lon="-3.51462833">
        <ele>688.011</ele>
        <time>2019-07-01T18:30:58.935Z</time>
      </trkpt>
      <trkpt lat="40.49634833" lon="-3.51462833">
        <ele>688.011</ele>
        <time>2019-07-01T18:30:59.935Z</time>
      </trkpt>
      <trkpt lat="40.49636833" lon="-3.51474">
        <ele>689.011</ele>
        <time>2019-07-01T18:31:00.935Z</time>
      </trkpt>
      <trkpt lat="40.49636833" lon="-3.51474">
        <ele>689.011</ele>
        <time>2019-07-01T18:31:01.935Z</time>
      </trkpt>
      <trkpt lat="40.49639" lon="-3.51484833">
        <ele>689.011</ele>
        <time>2019-07-01T18:31:02.935Z</time>
      </trkpt>
      <trkpt lat="40.49639" lon="-3.51484833">
        <ele>689.011</ele>
        <time>2019-07-01T18:31:03.935Z</time>
      </trkpt>
      <trkpt lat="40.496405" lon="-3.51495833">
        <ele>689.011</ele>
        <time>2019-07-01T18:31:04.935Z</time>
      </trkpt>
      <trkpt lat="40.496405" lon="-3.51495833">
        <ele>689.011</ele>
        <time>2019-07-01T18:31:05.935Z</time>
      </trkpt>
      <trkpt lat="40.49641667" lon="-3.51506667">
        <ele>689.011</ele>
        <time>2019-07-01T18:31:06.935Z</time>
      </trkpt>
      <trkpt lat="40.49641667" lon="-3.51506667">
        <ele>690.011</ele>
        <time>2019-07-01T18:31:07.935Z</time>
      </trkpt>
      <trkpt lat="40.49643" lon="-3.51517167">
        <ele>690.011</ele>
        <time>2019-07-01T18:31:08.935Z</time>
      </trkpt>
      <trkpt lat="40.49643667" lon="-3.51522333">
        <ele>690.011</ele>
        <time>2019-07-01T18:31:09.935Z</time>
      </trkpt>
      <trkpt lat="40.49643667" lon="-3.51522333">
        <ele>690.011</ele>
        <time>2019-07-01T18:31:10.935Z</time>
      </trkpt>
      <trkpt lat="40.49645" lon="-3.51531833">
        <ele>691.011</ele>
        <time>2019-07-01T18:31:11.935Z</time>
      </trkpt>
      <trkpt lat="40.49645" lon="-3.51531833">
        <ele>691.011</ele>
        <time>2019-07-01T18:31:12.935Z</time>
      </trkpt>
      <trkpt lat="40.49646167" lon="-3.51541333">
        <ele>691.011</ele>
        <time>2019-07-01T18:31:13.935Z</time>
      </trkpt>
      <trkpt lat="40.49646667" lon="-3.51545833">
        <ele>691.011</ele>
        <time>2019-07-01T18:31:14.935Z</time>
      </trkpt>
      <trkpt lat="40.49646667" lon="-3.51545833">
        <ele>691.011</ele>
        <time>2019-07-01T18:31:15.935Z</time>
      </trkpt>
      <trkpt lat="40.49647833" lon="-3.51554833">
        <ele>691.011</ele>
        <time>2019-07-01T18:31:16.935Z</time>
      </trkpt>
      <trkpt lat="40.49647833" lon="-3.51554833">
        <ele>692.011</ele>
        <time>2019-07-01T18:31:17.935Z</time>
      </trkpt>
      <trkpt lat="40.49649" lon="-3.51564">
        <ele>692.011</ele>
        <time>2019-07-01T18:31:18.935Z</time>
      </trkpt>
      <trkpt lat="40.49649" lon="-3.51564">
        <ele>692.011</ele>
        <time>2019-07-01T18:31:19.935Z</time>
      </trkpt>
      <trkpt lat="40.4965" lon="-3.51572833">
        <ele>692.011</ele>
        <time>2019-07-01T18:31:20.935Z</time>
      </trkpt>
      <trkpt lat="40.4965" lon="-3.51572833">
        <ele>693.011</ele>
        <time>2019-07-01T18:31:21.935Z</time>
      </trkpt>
      <trkpt lat="40.49651" lon="-3.515815">
        <ele>693.011</ele>
        <time>2019-07-01T18:31:22.935Z</time>
      </trkpt>
      <trkpt lat="40.49651" lon="-3.515815">
        <ele>693.011</ele>
        <time>2019-07-01T18:31:23.935Z</time>
      </trkpt>
      <trkpt lat="40.49651667" lon="-3.51590167">
        <ele>693.011</ele>
        <time>2019-07-01T18:31:24.935Z</time>
      </trkpt>
      <trkpt lat="40.49651667" lon="-3.51590167">
        <ele>694.011</ele>
        <time>2019-07-01T18:31:25.935Z</time>
      </trkpt>
      <trkpt lat="40.49652667" lon="-3.51599">
        <ele>694.011</ele>
        <time>2019-07-01T18:31:26.935Z</time>
      </trkpt>
      <trkpt lat="40.49652667" lon="-3.51599">
        <ele>694.011</ele>
        <time>2019-07-01T18:31:27.935Z</time>
      </trkpt>
      <trkpt lat="40.49653167" lon="-3.51607667">
        <ele>694.011</ele>
        <time>2019-07-01T18:31:28.935Z</time>
      </trkpt>
      <trkpt lat="40.496535" lon="-3.51612">
        <ele>694.011</ele>
        <time>2019-07-01T18:31:29.935Z</time>
      </trkpt>
      <trkpt lat="40.496535" lon="-3.51612">
        <ele>694.011</ele>
        <time>2019-07-01T18:31:30.935Z</time>
      </trkpt>
      <trkpt lat="40.49654167" lon="-3.51620167">
        <ele>694.011</ele>
        <time>2019-07-01T18:31:31.935Z</time>
      </trkpt>
      <trkpt lat="40.49654833" lon="-3.51624333">
        <ele>694.011</ele>
        <time>2019-07-01T18:31:32.935Z</time>
      </trkpt>
      <trkpt lat="40.49654833" lon="-3.51624333">
        <ele>695.011</ele>
        <time>2019-07-01T18:31:33.935Z</time>
      </trkpt>
      <trkpt lat="40.49656" lon="-3.51633167">
        <ele>695.011</ele>
        <time>2019-07-01T18:31:34.935Z</time>
      </trkpt>
      <trkpt lat="40.49656" lon="-3.51633167">
        <ele>695.011</ele>
        <time>2019-07-01T18:31:35.935Z</time>
      </trkpt>
      <trkpt lat="40.49657167" lon="-3.51641667">
        <ele>695.011</ele>
        <time>2019-07-01T18:31:36.935Z</time>
      </trkpt>
      <trkpt lat="40.49657167" lon="-3.51641667">
        <ele>696.011</ele>
        <time>2019-07-01T18:31:37.935Z</time>
      </trkpt>
      <trkpt lat="40.49658" lon="-3.51650167">
        <ele>696.011</ele>
        <time>2019-07-01T18:31:38.935Z</time>
      </trkpt>
      <trkpt lat="40.49658" lon="-3.51650167">
        <ele>696.011</ele>
        <time>2019-07-01T18:31:39.935Z</time>
      </trkpt>
      <trkpt lat="40.496585" lon="-3.51658833">
        <ele>696.011</ele>
        <time>2019-07-01T18:31:40.935Z</time>
      </trkpt>
      <trkpt lat="40.496585" lon="-3.51658833">
        <ele>696.011</ele>
        <time>2019-07-01T18:31:41.935Z</time>
      </trkpt>
      <trkpt lat="40.49659" lon="-3.51667333">
        <ele>697.011</ele>
        <time>2019-07-01T18:31:42.935Z</time>
      </trkpt>
      <trkpt lat="40.49659" lon="-3.51667333">
        <ele>697.011</ele>
        <time>2019-07-01T18:31:43.935Z</time>
      </trkpt>
      <trkpt lat="40.49659667" lon="-3.51675833">
        <ele>697.011</ele>
        <time>2019-07-01T18:31:44.935Z</time>
      </trkpt>
      <trkpt lat="40.49659667" lon="-3.51675833">
        <ele>697.011</ele>
        <time>2019-07-01T18:31:45.935Z</time>
      </trkpt>
      <trkpt lat="40.49660333" lon="-3.51684">
        <ele>698.011</ele>
        <time>2019-07-01T18:31:46.935Z</time>
      </trkpt>
      <trkpt lat="40.49660333" lon="-3.51684">
        <ele>698.011</ele>
        <time>2019-07-01T18:31:47.935Z</time>
      </trkpt>
      <trkpt lat="40.49660833" lon="-3.51692333">
        <ele>698.011</ele>
        <time>2019-07-01T18:31:48.935Z</time>
      </trkpt>
      <trkpt lat="40.49661333" lon="-3.51696333">
        <ele>698.011</ele>
        <time>2019-07-01T18:31:49.935Z</time>
      </trkpt>
      <trkpt lat="40.49661333" lon="-3.51696333">
        <ele>699.011</ele>
        <time>2019-07-01T18:31:50.935Z</time>
      </trkpt>
      <trkpt lat="40.49662667" lon="-3.51704667">
        <ele>699.011</ele>
        <time>2019-07-01T18:31:51.935Z</time>
      </trkpt>
      <trkpt lat="40.49662667" lon="-3.51704667">
        <ele>699.011</ele>
        <time>2019-07-01T18:31:52.935Z</time>
      </trkpt>
      <trkpt lat="40.496635" lon="-3.51713333">
        <ele>699.011</ele>
        <time>2019-07-01T18:31:53.935Z</time>
      </trkpt>
      <trkpt lat="40.49663833" lon="-3.51717667">
        <ele>700.011</ele>
        <time>2019-07-01T18:31:54.935Z</time>
      </trkpt>
      <trkpt lat="40.49663833" lon="-3.51717667">
        <ele>700.011</ele>
        <time>2019-07-01T18:31:55.935Z</time>
      </trkpt>
      <trkpt lat="40.496645" lon="-3.51726167">
        <ele>700.011</ele>
        <time>2019-07-01T18:31:56.935Z</time>
      </trkpt>
      <trkpt lat="40.496645" lon="-3.51726167">
        <ele>700.011</ele>
        <time>2019-07-01T18:31:57.935Z</time>
      </trkpt>
      <trkpt lat="40.496655" lon="-3.51734833">
        <ele>701.011</ele>
        <time>2019-07-01T18:31:58.935Z</time>
      </trkpt>
      <trkpt lat="40.49666" lon="-3.51739167">
        <ele>701.011</ele>
        <time>2019-07-01T18:31:59.935Z</time>
      </trkpt>
      <trkpt lat="40.49666" lon="-3.51739167">
        <ele>702.011</ele>
        <time>2019-07-01T18:32:00.935Z</time>
      </trkpt>
      <trkpt lat="40.496665" lon="-3.51747667">
        <ele>702.011</ele>
        <time>2019-07-01T18:32:01.935Z</time>
      </trkpt>
      <trkpt lat="40.496665" lon="-3.51747667">
        <ele>702.011</ele>
        <time>2019-07-01T18:32:02.935Z</time>
      </trkpt>
      <trkpt lat="40.49667" lon="-3.51756">
        <ele>702.011</ele>
        <time>2019-07-01T18:32:03.935Z</time>
      </trkpt>
      <trkpt lat="40.49667" lon="-3.51756">
        <ele>703.011</ele>
        <time>2019-07-01T18:32:04.935Z</time>
      </trkpt>
      <trkpt lat="40.49668333" lon="-3.51764667">
        <ele>703.011</ele>
        <time>2019-07-01T18:32:05.935Z</time>
      </trkpt>
      <trkpt lat="40.49668333" lon="-3.51764667">
        <ele>703.011</ele>
        <time>2019-07-01T18:32:06.935Z</time>
      </trkpt>
      <trkpt lat="40.49669333" lon="-3.51773333">
        <ele>703.011</ele>
        <time>2019-07-01T18:32:07.935Z</time>
      </trkpt>
      <trkpt lat="40.49669833" lon="-3.51777833">
        <ele>704.011</ele>
        <time>2019-07-01T18:32:08.935Z</time>
      </trkpt>
      <trkpt lat="40.496705" lon="-3.51782167">
        <ele>704.011</ele>
        <time>2019-07-01T18:32:09.935Z</time>
      </trkpt>
      <trkpt lat="40.496705" lon="-3.51782167">
        <ele>704.011</ele>
        <time>2019-07-01T18:32:10.935Z</time>
      </trkpt>
      <trkpt lat="40.49672" lon="-3.51790833">
        <ele>704.011</ele>
        <time>2019-07-01T18:32:11.935Z</time>
      </trkpt>
      <trkpt lat="40.49672667" lon="-3.51795333">
        <ele>705.011</ele>
        <time>2019-07-01T18:32:12.935Z</time>
      </trkpt>
      <trkpt lat="40.49672667" lon="-3.51795333">
        <ele>705.011</ele>
        <time>2019-07-01T18:32:13.935Z</time>
      </trkpt>
      <trkpt lat="40.49674167" lon="-3.51804">
        <ele>705.011</ele>
        <time>2019-07-01T18:32:14.935Z</time>
      </trkpt>
      <trkpt lat="40.49674167" lon="-3.51804">
        <ele>705.011</ele>
        <time>2019-07-01T18:32:15.935Z</time>
      </trkpt>
      <trkpt lat="40.496755" lon="-3.51812833">
        <ele>706.011</ele>
        <time>2019-07-01T18:32:16.935Z</time>
      </trkpt>
      <trkpt lat="40.496755" lon="-3.51812833">
        <ele>706.011</ele>
        <time>2019-07-01T18:32:17.935Z</time>
      </trkpt>
      <trkpt lat="40.496765" lon="-3.51821833">
        <ele>706.011</ele>
        <time>2019-07-01T18:32:18.935Z</time>
      </trkpt>
      <trkpt lat="40.496765" lon="-3.51821833">
        <ele>706.011</ele>
        <time>2019-07-01T18:32:19.935Z</time>
      </trkpt>
      <trkpt lat="40.49677667" lon="-3.51830667">
        <ele>707.011</ele>
        <time>2019-07-01T18:32:20.935Z</time>
      </trkpt>
      <trkpt lat="40.49677667" lon="-3.51830667">
        <ele>707.011</ele>
        <time>2019-07-01T18:32:21.935Z</time>
      </trkpt>
      <trkpt lat="40.49678667" lon="-3.518395">
        <ele>707.011</ele>
        <time>2019-07-01T18:32:22.935Z</time>
      </trkpt>
      <trkpt lat="40.49679167" lon="-3.51843833">
        <ele>707.011</ele>
        <time>2019-07-01T18:32:23.935Z</time>
      </trkpt>
      <trkpt lat="40.49679667" lon="-3.51848167">
        <ele>708.011</ele>
        <time>2019-07-01T18:32:24.935Z</time>
      </trkpt>
      <trkpt lat="40.49679667" lon="-3.51848167">
        <ele>708.011</ele>
        <time>2019-07-01T18:32:25.935Z</time>
      </trkpt>
      <trkpt lat="40.496805" lon="-3.51856667">
        <ele>708.011</ele>
        <time>2019-07-01T18:32:26.935Z</time>
      </trkpt>
      <trkpt lat="40.496805" lon="-3.51856667">
        <ele>708.011</ele>
        <time>2019-07-01T18:32:27.935Z</time>
      </trkpt>
      <trkpt lat="40.49681667" lon="-3.518655">
        <ele>708.011</ele>
        <time>2019-07-01T18:32:28.935Z</time>
      </trkpt>
      <trkpt lat="40.49681667" lon="-3.518655">
        <ele>708.011</ele>
        <time>2019-07-01T18:32:29.935Z</time>
      </trkpt>
      <trkpt lat="40.49683" lon="-3.51874333">
        <ele>708.011</ele>
        <time>2019-07-01T18:32:30.935Z</time>
      </trkpt>
      <trkpt lat="40.49683833" lon="-3.51878667">
        <ele>708.011</ele>
        <time>2019-07-01T18:32:31.935Z</time>
      </trkpt>
      <trkpt lat="40.496845" lon="-3.51883">
        <ele>710.011</ele>
        <time>2019-07-01T18:32:32.935Z</time>
      </trkpt>
      <trkpt lat="40.496845" lon="-3.51883">
        <ele>710.011</ele>
        <time>2019-07-01T18:32:33.935Z</time>
      </trkpt>
      <trkpt lat="40.49685833" lon="-3.51891667">
        <ele>710.011</ele>
        <time>2019-07-01T18:32:34.935Z</time>
      </trkpt>
      <trkpt lat="40.49685833" lon="-3.51891667">
        <ele>710.011</ele>
        <time>2019-07-01T18:32:35.935Z</time>
      </trkpt>
      <trkpt lat="40.496875" lon="-3.51900333">
        <ele>711.011</ele>
        <time>2019-07-01T18:32:36.935Z</time>
      </trkpt>
      <trkpt lat="40.496875" lon="-3.51900333">
        <ele>711.011</ele>
        <time>2019-07-01T18:32:37.935Z</time>
      </trkpt>
      <trkpt lat="40.49688833" lon="-3.51908667">
        <ele>711.011</ele>
        <time>2019-07-01T18:32:38.935Z</time>
      </trkpt>
      <trkpt lat="40.49688833" lon="-3.51908667">
        <ele>711.011</ele>
        <time>2019-07-01T18:32:39.935Z</time>
      </trkpt>
      <trkpt lat="40.49690333" lon="-3.51917167">
        <ele>711.011</ele>
        <time>2019-07-01T18:32:40.935Z</time>
      </trkpt>
      <trkpt lat="40.49690333" lon="-3.51917167">
        <ele>712.011</ele>
        <time>2019-07-01T18:32:41.935Z</time>
      </trkpt>
      <trkpt lat="40.49691833" lon="-3.51925333">
        <ele>712.011</ele>
        <time>2019-07-01T18:32:42.935Z</time>
      </trkpt>
      <trkpt lat="40.49691833" lon="-3.51925333">
        <ele>712.011</ele>
        <time>2019-07-01T18:32:43.935Z</time>
      </trkpt>
      <trkpt lat="40.496935" lon="-3.51933833">
        <ele>712.011</ele>
        <time>2019-07-01T18:32:44.935Z</time>
      </trkpt>
      <trkpt lat="40.496935" lon="-3.51933833">
        <ele>713.011</ele>
        <time>2019-07-01T18:32:45.935Z</time>
      </trkpt>
      <trkpt lat="40.49695" lon="-3.51942167">
        <ele>713.011</ele>
        <time>2019-07-01T18:32:46.935Z</time>
      </trkpt>
      <trkpt lat="40.49695833" lon="-3.51946333">
        <ele>713.011</ele>
        <time>2019-07-01T18:32:47.935Z</time>
      </trkpt>
      <trkpt lat="40.49696667" lon="-3.51950667">
        <ele>713.011</ele>
        <time>2019-07-01T18:32:48.935Z</time>
      </trkpt>
      <trkpt lat="40.49696667" lon="-3.51950667">
        <ele>714.011</ele>
        <time>2019-07-01T18:32:49.935Z</time>
      </trkpt>
      <trkpt lat="40.49698167" lon="-3.51959167">
        <ele>714.011</ele>
        <time>2019-07-01T18:32:50.935Z</time>
      </trkpt>
      <trkpt lat="40.49698167" lon="-3.51959167">
        <ele>714.011</ele>
        <time>2019-07-01T18:32:51.935Z</time>
      </trkpt>
      <trkpt lat="40.49699833" lon="-3.51967667">
        <ele>714.011</ele>
        <time>2019-07-01T18:32:52.935Z</time>
      </trkpt>
      <trkpt lat="40.49699833" lon="-3.51967667">
        <ele>714.011</ele>
        <time>2019-07-01T18:32:53.935Z</time>
      </trkpt>
      <trkpt lat="40.49701333" lon="-3.51976333">
        <ele>714.011</ele>
        <time>2019-07-01T18:32:54.935Z</time>
      </trkpt>
      <trkpt lat="40.49701333" lon="-3.51976333">
        <ele>714.011</ele>
        <time>2019-07-01T18:32:55.935Z</time>
      </trkpt>
      <trkpt lat="40.49703167" lon="-3.51984667">
        <ele>714.011</ele>
        <time>2019-07-01T18:32:56.935Z</time>
      </trkpt>
      <trkpt lat="40.49703167" lon="-3.51984667">
        <ele>715.011</ele>
        <time>2019-07-01T18:32:57.935Z</time>
      </trkpt>
      <trkpt lat="40.49705" lon="-3.51993333">
        <ele>715.011</ele>
        <time>2019-07-01T18:32:58.935Z</time>
      </trkpt>
      <trkpt lat="40.49706" lon="-3.51997333">
        <ele>715.011</ele>
        <time>2019-07-01T18:32:59.935Z</time>
      </trkpt>
      <trkpt lat="40.49706833" lon="-3.52001667">
        <ele>715.011</ele>
        <time>2019-07-01T18:33:00.935Z</time>
      </trkpt>
      <trkpt lat="40.49706833" lon="-3.52001667">
        <ele>716.011</ele>
        <time>2019-07-01T18:33:01.935Z</time>
      </trkpt>
      <trkpt lat="40.49708333" lon="-3.5201">
        <ele>716.011</ele>
        <time>2019-07-01T18:33:02.935Z</time>
      </trkpt>
      <trkpt lat="40.49708333" lon="-3.5201">
        <ele>716.011</ele>
        <time>2019-07-01T18:33:03.935Z</time>
      </trkpt>
      <trkpt lat="40.49710167" lon="-3.52018333">
        <ele>716.011</ele>
        <time>2019-07-01T18:33:04.935Z</time>
      </trkpt>
      <trkpt lat="40.49710167" lon="-3.52018333">
        <ele>716.011</ele>
        <time>2019-07-01T18:33:05.935Z</time>
      </trkpt>
      <trkpt lat="40.49711667" lon="-3.52026667">
        <ele>717.011</ele>
        <time>2019-07-01T18:33:06.935Z</time>
      </trkpt>
      <trkpt lat="40.49711667" lon="-3.52026667">
        <ele>717.011</ele>
        <time>2019-07-01T18:33:07.935Z</time>
      </trkpt>
      <trkpt lat="40.497135" lon="-3.52034833">
        <ele>717.011</ele>
        <time>2019-07-01T18:33:08.935Z</time>
      </trkpt>
      <trkpt lat="40.497135" lon="-3.52034833">
        <ele>717.011</ele>
        <time>2019-07-01T18:33:09.935Z</time>
      </trkpt>
      <trkpt lat="40.49715667" lon="-3.52042833">
        <ele>718.011</ele>
        <time>2019-07-01T18:33:10.935Z</time>
      </trkpt>
      <trkpt lat="40.49716667" lon="-3.52047">
        <ele>718.011</ele>
        <time>2019-07-01T18:33:11.935Z</time>
      </trkpt>
      <trkpt lat="40.49716667" lon="-3.52047">
        <ele>718.011</ele>
        <time>2019-07-01T18:33:12.935Z</time>
      </trkpt>
      <trkpt lat="40.49718333" lon="-3.520555">
        <ele>718.011</ele>
        <time>2019-07-01T18:33:13.935Z</time>
      </trkpt>
      <trkpt lat="40.49718333" lon="-3.520555">
        <ele>719.011</ele>
        <time>2019-07-01T18:33:14.935Z</time>
      </trkpt>
      <trkpt lat="40.49720167" lon="-3.52063667">
        <ele>719.011</ele>
        <time>2019-07-01T18:33:15.935Z</time>
      </trkpt>
      <trkpt lat="40.49720167" lon="-3.52063667">
        <ele>719.011</ele>
        <time>2019-07-01T18:33:16.935Z</time>
      </trkpt>
      <trkpt lat="40.49722" lon="-3.52072167">
        <ele>719.011</ele>
        <time>2019-07-01T18:33:17.935Z</time>
      </trkpt>
      <trkpt lat="40.49722" lon="-3.52072167">
        <ele>719.011</ele>
        <time>2019-07-01T18:33:18.935Z</time>
      </trkpt>
      <trkpt lat="40.49724" lon="-3.52080667">
        <ele>719.011</ele>
        <time>2019-07-01T18:33:19.935Z</time>
      </trkpt>
      <trkpt lat="40.49724833" lon="-3.52085">
        <ele>719.011</ele>
        <time>2019-07-01T18:33:20.935Z</time>
      </trkpt>
      <trkpt lat="40.49725833" lon="-3.52089167">
        <ele>719.011</ele>
        <time>2019-07-01T18:33:21.935Z</time>
      </trkpt>
      <trkpt lat="40.49725833" lon="-3.52089167">
        <ele>719.011</ele>
        <time>2019-07-01T18:33:22.935Z</time>
      </trkpt>
      <trkpt lat="40.49727667" lon="-3.52097833">
        <ele>719.011</ele>
        <time>2019-07-01T18:33:23.935Z</time>
      </trkpt>
      <trkpt lat="40.49727667" lon="-3.52097833">
        <ele>719.011</ele>
        <time>2019-07-01T18:33:24.935Z</time>
      </trkpt>
      <trkpt lat="40.49729667" lon="-3.52106333">
        <ele>719.011</ele>
        <time>2019-07-01T18:33:25.935Z</time>
      </trkpt>
      <trkpt lat="40.49729667" lon="-3.52106333">
        <ele>696.011</ele>
        <time>2019-07-01T18:33:26.935Z</time>
      </trkpt>
      <trkpt lat="40.49731833" lon="-3.52114833">
        <ele>696.011</ele>
        <time>2019-07-01T18:33:27.935Z</time>
      </trkpt>
      <trkpt lat="40.49731833" lon="-3.52114833">
        <ele>696.011</ele>
        <time>2019-07-01T18:33:28.935Z</time>
      </trkpt>
      <trkpt lat="40.49733833" lon="-3.52123167">
        <ele>696.011</ele>
        <time>2019-07-01T18:33:29.935Z</time>
      </trkpt>
      <trkpt lat="40.49735" lon="-3.52127333">
        <ele>697.011</ele>
        <time>2019-07-01T18:33:30.935Z</time>
      </trkpt>
      <trkpt lat="40.49735" lon="-3.52127333">
        <ele>697.011</ele>
        <time>2019-07-01T18:33:31.935Z</time>
      </trkpt>
      <trkpt lat="40.49736667" lon="-3.52136">
        <ele>697.011</ele>
        <time>2019-07-01T18:33:32.935Z</time>
      </trkpt>
      <trkpt lat="40.49737667" lon="-3.521405">
        <ele>697.011</ele>
        <time>2019-07-01T18:33:33.935Z</time>
      </trkpt>
      <trkpt lat="40.49737667" lon="-3.521405">
        <ele>698.011</ele>
        <time>2019-07-01T18:33:34.935Z</time>
      </trkpt>
      <trkpt lat="40.49739167" lon="-3.52149167">
        <ele>698.011</ele>
        <time>2019-07-01T18:33:35.935Z</time>
      </trkpt>
      <trkpt lat="40.49740167" lon="-3.52153167">
        <ele>698.011</ele>
        <time>2019-07-01T18:33:36.935Z</time>
      </trkpt>
      <trkpt lat="40.49740167" lon="-3.52153167">
        <ele>698.011</ele>
        <time>2019-07-01T18:33:37.935Z</time>
      </trkpt>
      <trkpt lat="40.49741333" lon="-3.52161833">
        <ele>699.011</ele>
        <time>2019-07-01T18:33:38.935Z</time>
      </trkpt>
      <trkpt lat="40.49741333" lon="-3.52161833">
        <ele>699.011</ele>
        <time>2019-07-01T18:33:39.935Z</time>
      </trkpt>
      <trkpt lat="40.49743333" lon="-3.5217">
        <ele>699.011</ele>
        <time>2019-07-01T18:33:40.935Z</time>
      </trkpt>
      <trkpt lat="40.49743333" lon="-3.5217">
        <ele>699.011</ele>
        <time>2019-07-01T18:33:41.935Z</time>
      </trkpt>
      <trkpt lat="40.49745833" lon="-3.52177833">
        <ele>699.011</ele>
        <time>2019-07-01T18:33:42.935Z</time>
      </trkpt>
      <trkpt lat="40.49745833" lon="-3.52177833">
        <ele>700.011</ele>
        <time>2019-07-01T18:33:43.935Z</time>
      </trkpt>
      <trkpt lat="40.49748167" lon="-3.52185833">
        <ele>700.011</ele>
        <time>2019-07-01T18:33:44.935Z</time>
      </trkpt>
      <trkpt lat="40.49748167" lon="-3.52185833">
        <ele>700.011</ele>
        <time>2019-07-01T18:33:45.935Z</time>
      </trkpt>
      <trkpt lat="40.49750833" lon="-3.52193833">
        <ele>700.011</ele>
        <time>2019-07-01T18:33:46.935Z</time>
      </trkpt>
      <trkpt lat="40.49750833" lon="-3.52193833">
        <ele>700.011</ele>
        <time>2019-07-01T18:33:47.935Z</time>
      </trkpt>
      <trkpt lat="40.49753167" lon="-3.52201833">
        <ele>701.011</ele>
        <time>2019-07-01T18:33:48.935Z</time>
      </trkpt>
      <trkpt lat="40.49753167" lon="-3.52201833">
        <ele>701.011</ele>
        <time>2019-07-01T18:33:49.935Z</time>
      </trkpt>
      <trkpt lat="40.49755333" lon="-3.5221">
        <ele>701.011</ele>
        <time>2019-07-01T18:33:50.935Z</time>
      </trkpt>
      <trkpt lat="40.49755333" lon="-3.5221">
        <ele>701.011</ele>
        <time>2019-07-01T18:33:51.935Z</time>
      </trkpt>
      <trkpt lat="40.49758" lon="-3.52218">
        <ele>702.011</ele>
        <time>2019-07-01T18:33:52.935Z</time>
      </trkpt>
      <trkpt lat="40.49759333" lon="-3.52222">
        <ele>702.011</ele>
        <time>2019-07-01T18:33:53.935Z</time>
      </trkpt>
      <trkpt lat="40.49759333" lon="-3.52222">
        <ele>702.011</ele>
        <time>2019-07-01T18:33:54.935Z</time>
      </trkpt>
      <trkpt lat="40.49762167" lon="-3.52229833">
        <ele>702.011</ele>
        <time>2019-07-01T18:33:55.935Z</time>
      </trkpt>
      <trkpt lat="40.49763667" lon="-3.52233833">
        <ele>703.011</ele>
        <time>2019-07-01T18:33:56.935Z</time>
      </trkpt>
      <trkpt lat="40.49765333" lon="-3.52237833">
        <ele>703.011</ele>
        <time>2019-07-01T18:33:57.935Z</time>
      </trkpt>
      <trkpt lat="40.49765333" lon="-3.52237833">
        <ele>703.011</ele>
        <time>2019-07-01T18:33:58.935Z</time>
      </trkpt>
      <trkpt lat="40.497685" lon="-3.52246167">
        <ele>703.011</ele>
        <time>2019-07-01T18:33:59.935Z</time>
      </trkpt>
      <trkpt lat="40.4977" lon="-3.52250333">
        <ele>703.011</ele>
        <time>2019-07-01T18:34:00.935Z</time>
      </trkpt>
      <trkpt lat="40.4977" lon="-3.52250333">
        <ele>703.011</ele>
        <time>2019-07-01T18:34:01.935Z</time>
      </trkpt>
      <trkpt lat="40.49774333" lon="-3.522575">
        <ele>704.011</ele>
        <time>2019-07-01T18:34:02.935Z</time>
      </trkpt>
      <trkpt lat="40.49777333" lon="-3.52260167">
        <ele>704.011</ele>
        <time>2019-07-01T18:34:03.935Z</time>
      </trkpt>
      <trkpt lat="40.49781" lon="-3.52261833">
        <ele>704.011</ele>
        <time>2019-07-01T18:34:04.935Z</time>
      </trkpt>
      <trkpt lat="40.49781" lon="-3.52261833">
        <ele>704.011</ele>
        <time>2019-07-01T18:34:05.935Z</time>
      </trkpt>
      <trkpt lat="40.49788333" lon="-3.52265">
        <ele>704.011</ele>
        <time>2019-07-01T18:34:06.935Z</time>
      </trkpt>
      <trkpt lat="40.49788333" lon="-3.52265">
        <ele>704.011</ele>
        <time>2019-07-01T18:34:07.935Z</time>
      </trkpt>
      <trkpt lat="40.49795" lon="-3.52271167">
        <ele>704.011</ele>
        <time>2019-07-01T18:34:08.935Z</time>
      </trkpt>
      <trkpt lat="40.49795" lon="-3.52271167">
        <ele>704.011</ele>
        <time>2019-07-01T18:34:09.935Z</time>
      </trkpt>
      <trkpt lat="40.49799833" lon="-3.5228">
        <ele>704.011</ele>
        <time>2019-07-01T18:34:10.935Z</time>
      </trkpt>
      <trkpt lat="40.49799833" lon="-3.5228">
        <ele>704.011</ele>
        <time>2019-07-01T18:34:11.935Z</time>
      </trkpt>
      <trkpt lat="40.49801" lon="-3.52292">
        <ele>704.011</ele>
        <time>2019-07-01T18:34:12.935Z</time>
      </trkpt>
      <trkpt lat="40.49801" lon="-3.52292">
        <ele>704.011</ele>
        <time>2019-07-01T18:34:13.935Z</time>
      </trkpt>
      <trkpt lat="40.49798333" lon="-3.52302667">
        <ele>704.011</ele>
        <time>2019-07-01T18:34:14.935Z</time>
      </trkpt>
      <trkpt lat="40.49798333" lon="-3.52302667">
        <ele>704.011</ele>
        <time>2019-07-01T18:34:15.935Z</time>
      </trkpt>
      <trkpt lat="40.49791667" lon="-3.52311167">
        <ele>704.011</ele>
        <time>2019-07-01T18:34:16.935Z</time>
      </trkpt>
      <trkpt lat="40.49786833" lon="-3.52313167">
        <ele>704.011</ele>
        <time>2019-07-01T18:34:17.935Z</time>
      </trkpt>
      <trkpt lat="40.49781333" lon="-3.52313167">
        <ele>704.011</ele>
        <time>2019-07-01T18:34:18.935Z</time>
      </trkpt>
      <trkpt lat="40.49781333" lon="-3.52313167">
        <ele>704.011</ele>
        <time>2019-07-01T18:34:19.935Z</time>
      </trkpt>
      <trkpt lat="40.49771333" lon="-3.52308">
        <ele>704.011</ele>
        <time>2019-07-01T18:34:20.935Z</time>
      </trkpt>
      <trkpt lat="40.49771333" lon="-3.52308">
        <ele>704.011</ele>
        <time>2019-07-01T18:34:21.935Z</time>
      </trkpt>
      <trkpt lat="40.49764" lon="-3.52298">
        <ele>704.011</ele>
        <time>2019-07-01T18:34:22.935Z</time>
      </trkpt>
      <trkpt lat="40.49760833" lon="-3.52292667">
        <ele>704.011</ele>
        <time>2019-07-01T18:34:23.935Z</time>
      </trkpt>
      <trkpt lat="40.49756667" lon="-3.52288167">
        <ele>704.011</ele>
        <time>2019-07-01T18:34:24.935Z</time>
      </trkpt>
      <trkpt lat="40.49756667" lon="-3.52288167">
        <ele>704.011</ele>
        <time>2019-07-01T18:34:25.935Z</time>
      </trkpt>
      <trkpt lat="40.49746667" lon="-3.52283333">
        <ele>704.011</ele>
        <time>2019-07-01T18:34:26.935Z</time>
      </trkpt>
      <trkpt lat="40.49746667" lon="-3.52283333">
        <ele>704.011</ele>
        <time>2019-07-01T18:34:27.935Z</time>
      </trkpt>
      <trkpt lat="40.497365" lon="-3.52280833">
        <ele>704.011</ele>
        <time>2019-07-01T18:34:28.935Z</time>
      </trkpt>
      <trkpt lat="40.497365" lon="-3.52280833">
        <ele>704.011</ele>
        <time>2019-07-01T18:34:29.935Z</time>
      </trkpt>
      <trkpt lat="40.497265" lon="-3.52277667">
        <ele>704.011</ele>
        <time>2019-07-01T18:34:30.935Z</time>
      </trkpt>
      <trkpt lat="40.497265" lon="-3.52277667">
        <ele>704.011</ele>
        <time>2019-07-01T18:34:31.935Z</time>
      </trkpt>
      <trkpt lat="40.49716167" lon="-3.52273167">
        <ele>704.011</ele>
        <time>2019-07-01T18:34:32.935Z</time>
      </trkpt>
      <trkpt lat="40.49710667" lon="-3.52271167">
        <ele>704.011</ele>
        <time>2019-07-01T18:34:33.935Z</time>
      </trkpt>
      <trkpt lat="40.49710667" lon="-3.52271167">
        <ele>704.011</ele>
        <time>2019-07-01T18:34:34.935Z</time>
      </trkpt>
      <trkpt lat="40.49699833" lon="-3.52266333">
        <ele>704.011</ele>
        <time>2019-07-01T18:34:35.935Z</time>
      </trkpt>
      <trkpt lat="40.49699833" lon="-3.52266333">
        <ele>704.011</ele>
        <time>2019-07-01T18:34:36.935Z</time>
      </trkpt>
      <trkpt lat="40.49689" lon="-3.522605">
        <ele>704.011</ele>
        <time>2019-07-01T18:34:37.935Z</time>
      </trkpt>
      <trkpt lat="40.496835" lon="-3.52256667">
        <ele>704.011</ele>
        <time>2019-07-01T18:34:38.935Z</time>
      </trkpt>
      <trkpt lat="40.496835" lon="-3.52256667">
        <ele>704.011</ele>
        <time>2019-07-01T18:34:39.935Z</time>
      </trkpt>
      <trkpt lat="40.49672667" lon="-3.52249167">
        <ele>704.011</ele>
        <time>2019-07-01T18:34:40.935Z</time>
      </trkpt>
      <trkpt lat="40.49672667" lon="-3.52249167">
        <ele>704.011</ele>
        <time>2019-07-01T18:34:41.935Z</time>
      </trkpt>
      <trkpt lat="40.49663167" lon="-3.52240667">
        <ele>704.011</ele>
        <time>2019-07-01T18:34:42.935Z</time>
      </trkpt>
      <trkpt lat="40.49663167" lon="-3.52240667">
        <ele>704.011</ele>
        <time>2019-07-01T18:34:43.935Z</time>
      </trkpt>
      <trkpt lat="40.49654167" lon="-3.52232">
        <ele>704.011</ele>
        <time>2019-07-01T18:34:44.935Z</time>
      </trkpt>
      <trkpt lat="40.496495" lon="-3.52227667">
        <ele>704.011</ele>
        <time>2019-07-01T18:34:45.935Z</time>
      </trkpt>
      <trkpt lat="40.496495" lon="-3.52227667">
        <ele>704.011</ele>
        <time>2019-07-01T18:34:46.935Z</time>
      </trkpt>
      <trkpt lat="40.49640833" lon="-3.52219833">
        <ele>704.011</ele>
        <time>2019-07-01T18:34:47.935Z</time>
      </trkpt>
      <trkpt lat="40.49636333" lon="-3.52216333">
        <ele>704.011</ele>
        <time>2019-07-01T18:34:48.935Z</time>
      </trkpt>
      <trkpt lat="40.49636333" lon="-3.52216333">
        <ele>704.011</ele>
        <time>2019-07-01T18:34:49.935Z</time>
      </trkpt>
      <trkpt lat="40.49627" lon="-3.52208833">
        <ele>704.011</ele>
        <time>2019-07-01T18:34:50.935Z</time>
      </trkpt>
      <trkpt lat="40.49622" lon="-3.52205167">
        <ele>704.011</ele>
        <time>2019-07-01T18:34:51.935Z</time>
      </trkpt>
      <trkpt lat="40.49622" lon="-3.52205167">
        <ele>704.011</ele>
        <time>2019-07-01T18:34:52.935Z</time>
      </trkpt>
      <trkpt lat="40.496115" lon="-3.52197667">
        <ele>704.011</ele>
        <time>2019-07-01T18:34:53.935Z</time>
      </trkpt>
      <trkpt lat="40.49606167" lon="-3.52193833">
        <ele>704.011</ele>
        <time>2019-07-01T18:34:54.935Z</time>
      </trkpt>
      <trkpt lat="40.49606167" lon="-3.52193833">
        <ele>704.011</ele>
        <time>2019-07-01T18:34:55.935Z</time>
      </trkpt>
      <trkpt lat="40.49595167" lon="-3.52186833">
        <ele>704.011</ele>
        <time>2019-07-01T18:34:56.935Z</time>
      </trkpt>
      <trkpt lat="40.49589333" lon="-3.52183667">
        <ele>704.011</ele>
        <time>2019-07-01T18:34:57.935Z</time>
      </trkpt>
      <trkpt lat="40.49583333" lon="-3.52181167">
        <ele>704.011</ele>
        <time>2019-07-01T18:34:58.935Z</time>
      </trkpt>
      <trkpt lat="40.49583333" lon="-3.52181167">
        <ele>704.011</ele>
        <time>2019-07-01T18:34:59.935Z</time>
      </trkpt>
      <trkpt lat="40.49571167" lon="-3.52176333">
        <ele>704.011</ele>
        <time>2019-07-01T18:35:00.935Z</time>
      </trkpt>
      <trkpt lat="40.49571167" lon="-3.52176333">
        <ele>704.011</ele>
        <time>2019-07-01T18:35:01.935Z</time>
      </trkpt>
      <trkpt lat="40.49558833" lon="-3.52171667">
        <ele>703.011</ele>
        <time>2019-07-01T18:35:02.935Z</time>
      </trkpt>
      <trkpt lat="40.495525" lon="-3.52168833">
        <ele>703.011</ele>
        <time>2019-07-01T18:35:03.935Z</time>
      </trkpt>
      <trkpt lat="40.495525" lon="-3.52168833">
        <ele>703.011</ele>
        <time>2019-07-01T18:35:04.935Z</time>
      </trkpt>
      <trkpt lat="40.49539833" lon="-3.521635">
        <ele>703.011</ele>
        <time>2019-07-01T18:35:05.935Z</time>
      </trkpt>
      <trkpt lat="40.49533667" lon="-3.52160833">
        <ele>703.011</ele>
        <time>2019-07-01T18:35:06.935Z</time>
      </trkpt>
      <trkpt lat="40.49533667" lon="-3.52160833">
        <ele>703.011</ele>
        <time>2019-07-01T18:35:07.935Z</time>
      </trkpt>
      <trkpt lat="40.49521167" lon="-3.521555">
        <ele>703.011</ele>
        <time>2019-07-01T18:35:08.935Z</time>
      </trkpt>
      <trkpt lat="40.49515" lon="-3.52153">
        <ele>703.011</ele>
        <time>2019-07-01T18:35:09.935Z</time>
      </trkpt>
      <trkpt lat="40.49515" lon="-3.52153">
        <ele>703.011</ele>
        <time>2019-07-01T18:35:10.935Z</time>
      </trkpt>
      <trkpt lat="40.49502833" lon="-3.52148167">
        <ele>703.011</ele>
        <time>2019-07-01T18:35:11.935Z</time>
      </trkpt>
      <trkpt lat="40.49502833" lon="-3.52148167">
        <ele>703.011</ele>
        <time>2019-07-01T18:35:12.935Z</time>
      </trkpt>
      <trkpt lat="40.49490833" lon="-3.52143333">
        <ele>703.011</ele>
        <time>2019-07-01T18:35:13.935Z</time>
      </trkpt>
      <trkpt lat="40.49490833" lon="-3.52143333">
        <ele>703.011</ele>
        <time>2019-07-01T18:35:14.935Z</time>
      </trkpt>
      <trkpt lat="40.49479" lon="-3.521395">
        <ele>703.011</ele>
        <time>2019-07-01T18:35:15.935Z</time>
      </trkpt>
      <trkpt lat="40.49479" lon="-3.521395">
        <ele>703.011</ele>
        <time>2019-07-01T18:35:16.935Z</time>
      </trkpt>
      <trkpt lat="40.49467167" lon="-3.52136333">
        <ele>703.011</ele>
        <time>2019-07-01T18:35:17.935Z</time>
      </trkpt>
      <trkpt lat="40.49461333" lon="-3.52135">
        <ele>703.011</ele>
        <time>2019-07-01T18:35:18.935Z</time>
      </trkpt>
      <trkpt lat="40.49461333" lon="-3.52135">
        <ele>703.011</ele>
        <time>2019-07-01T18:35:19.935Z</time>
      </trkpt>
      <trkpt lat="40.49449167" lon="-3.52132667">
        <ele>703.011</ele>
        <time>2019-07-01T18:35:20.935Z</time>
      </trkpt>
      <trkpt lat="40.49449167" lon="-3.52132667">
        <ele>703.011</ele>
        <time>2019-07-01T18:35:21.935Z</time>
      </trkpt>
      <trkpt lat="40.49436667" lon="-3.52130833">
        <ele>704.011</ele>
        <time>2019-07-01T18:35:22.935Z</time>
      </trkpt>
      <trkpt lat="40.49436667" lon="-3.52130833">
        <ele>704.011</ele>
        <time>2019-07-01T18:35:23.935Z</time>
      </trkpt>
      <trkpt lat="40.49424" lon="-3.521295">
        <ele>704.011</ele>
        <time>2019-07-01T18:35:24.935Z</time>
      </trkpt>
      <trkpt lat="40.49424" lon="-3.521295">
        <ele>704.011</ele>
        <time>2019-07-01T18:35:25.935Z</time>
      </trkpt>
      <trkpt lat="40.49411167" lon="-3.521285">
        <ele>704.011</ele>
        <time>2019-07-01T18:35:26.935Z</time>
      </trkpt>
      <trkpt lat="40.494045" lon="-3.52128167">
        <ele>704.011</ele>
        <time>2019-07-01T18:35:27.935Z</time>
      </trkpt>
      <trkpt lat="40.494045" lon="-3.52128167">
        <ele>704.011</ele>
        <time>2019-07-01T18:35:28.935Z</time>
      </trkpt>
      <trkpt lat="40.49391" lon="-3.521275">
        <ele>704.011</ele>
        <time>2019-07-01T18:35:29.935Z</time>
      </trkpt>
      <trkpt lat="40.49384333" lon="-3.52126833">
        <ele>705.011</ele>
        <time>2019-07-01T18:35:30.935Z</time>
      </trkpt>
      <trkpt lat="40.49384333" lon="-3.52126833">
        <ele>705.011</ele>
        <time>2019-07-01T18:35:31.935Z</time>
      </trkpt>
      <trkpt lat="40.49371" lon="-3.52125667">
        <ele>705.011</ele>
        <time>2019-07-01T18:35:32.935Z</time>
      </trkpt>
      <trkpt lat="40.49371" lon="-3.52125667">
        <ele>705.011</ele>
        <time>2019-07-01T18:35:33.935Z</time>
      </trkpt>
      <trkpt lat="40.49357667" lon="-3.52125">
        <ele>705.011</ele>
        <time>2019-07-01T18:35:34.935Z</time>
      </trkpt>
      <trkpt lat="40.49357667" lon="-3.52125">
        <ele>705.011</ele>
        <time>2019-07-01T18:35:35.935Z</time>
      </trkpt>
      <trkpt lat="40.49344" lon="-3.52124667">
        <ele>705.011</ele>
        <time>2019-07-01T18:35:36.935Z</time>
      </trkpt>
      <trkpt lat="40.49344" lon="-3.52124667">
        <ele>705.011</ele>
        <time>2019-07-01T18:35:37.935Z</time>
      </trkpt>
      <trkpt lat="40.49329833" lon="-3.521255">
        <ele>705.011</ele>
        <time>2019-07-01T18:35:38.935Z</time>
      </trkpt>
      <trkpt lat="40.49329833" lon="-3.521255">
        <ele>705.011</ele>
        <time>2019-07-01T18:35:39.935Z</time>
      </trkpt>
      <trkpt lat="40.49315167" lon="-3.52126333">
        <ele>705.011</ele>
        <time>2019-07-01T18:35:40.935Z</time>
      </trkpt>
      <trkpt lat="40.49315167" lon="-3.52126333">
        <ele>705.011</ele>
        <time>2019-07-01T18:35:41.935Z</time>
      </trkpt>
      <trkpt lat="40.49300333" lon="-3.52127">
        <ele>705.011</ele>
        <time>2019-07-01T18:35:42.935Z</time>
      </trkpt>
      <trkpt lat="40.49300333" lon="-3.52127">
        <ele>705.011</ele>
        <time>2019-07-01T18:35:43.935Z</time>
      </trkpt>
      <trkpt lat="40.492855" lon="-3.52127333">
        <ele>705.011</ele>
        <time>2019-07-01T18:35:44.935Z</time>
      </trkpt>
      <trkpt lat="40.492855" lon="-3.52127333">
        <ele>705.011</ele>
        <time>2019-07-01T18:35:45.935Z</time>
      </trkpt>
      <trkpt lat="40.49270667" lon="-3.52126833">
        <ele>705.011</ele>
        <time>2019-07-01T18:35:46.935Z</time>
      </trkpt>
      <trkpt lat="40.49263333" lon="-3.52126">
        <ele>705.011</ele>
        <time>2019-07-01T18:35:47.935Z</time>
      </trkpt>
      <trkpt lat="40.49255833" lon="-3.52124833">
        <ele>705.011</ele>
        <time>2019-07-01T18:35:48.935Z</time>
      </trkpt>
      <trkpt lat="40.49255833" lon="-3.52124833">
        <ele>705.011</ele>
        <time>2019-07-01T18:35:49.935Z</time>
      </trkpt>
      <trkpt lat="40.49241" lon="-3.52122">
        <ele>705.011</ele>
        <time>2019-07-01T18:35:50.935Z</time>
      </trkpt>
      <trkpt lat="40.49241" lon="-3.52122">
        <ele>705.011</ele>
        <time>2019-07-01T18:35:51.935Z</time>
      </trkpt>
      <trkpt lat="40.49226167" lon="-3.52118">
        <ele>705.011</ele>
        <time>2019-07-01T18:35:52.935Z</time>
      </trkpt>
      <trkpt lat="40.49218833" lon="-3.52115667">
        <ele>705.011</ele>
        <time>2019-07-01T18:35:53.935Z</time>
      </trkpt>
      <trkpt lat="40.49211333" lon="-3.52113333">
        <ele>705.011</ele>
        <time>2019-07-01T18:35:54.935Z</time>
      </trkpt>
      <trkpt lat="40.49211333" lon="-3.52113333">
        <ele>705.011</ele>
        <time>2019-07-01T18:35:55.935Z</time>
      </trkpt>
      <trkpt lat="40.491965" lon="-3.52108">
        <ele>705.011</ele>
        <time>2019-07-01T18:35:56.935Z</time>
      </trkpt>
      <trkpt lat="40.491965" lon="-3.52108">
        <ele>705.011</ele>
        <time>2019-07-01T18:35:57.935Z</time>
      </trkpt>
      <trkpt lat="40.49181333" lon="-3.52102">
        <ele>705.011</ele>
        <time>2019-07-01T18:35:58.935Z</time>
      </trkpt>
      <trkpt lat="40.49181333" lon="-3.52102">
        <ele>705.011</ele>
        <time>2019-07-01T18:35:59.935Z</time>
      </trkpt>
      <trkpt lat="40.49166" lon="-3.52096">
        <ele>705.011</ele>
        <time>2019-07-01T18:36:00.935Z</time>
      </trkpt>
      <trkpt lat="40.49166" lon="-3.52096">
        <ele>705.011</ele>
        <time>2019-07-01T18:36:01.935Z</time>
      </trkpt>
      <trkpt lat="40.49149833" lon="-3.52090667">
        <ele>704.011</ele>
        <time>2019-07-01T18:36:02.935Z</time>
      </trkpt>
      <trkpt lat="40.49149833" lon="-3.52090667">
        <ele>704.011</ele>
        <time>2019-07-01T18:36:03.935Z</time>
      </trkpt>
      <trkpt lat="40.491325" lon="-3.52086167">
        <ele>704.011</ele>
        <time>2019-07-01T18:36:04.935Z</time>
      </trkpt>
      <trkpt lat="40.491325" lon="-3.52086167">
        <ele>704.011</ele>
        <time>2019-07-01T18:36:05.935Z</time>
      </trkpt>
      <trkpt lat="40.49114333" lon="-3.52083333">
        <ele>703.011</ele>
        <time>2019-07-01T18:36:06.935Z</time>
      </trkpt>
      <trkpt lat="40.49114333" lon="-3.52083333">
        <ele>703.011</ele>
        <time>2019-07-01T18:36:07.935Z</time>
      </trkpt>
      <trkpt lat="40.49094833" lon="-3.52084">
        <ele>702.011</ele>
        <time>2019-07-01T18:36:08.935Z</time>
      </trkpt>
      <trkpt lat="40.490845" lon="-3.52086667">
        <ele>702.011</ele>
        <time>2019-07-01T18:36:09.935Z</time>
      </trkpt>
      <trkpt lat="40.490845" lon="-3.52086667">
        <ele>701.011</ele>
        <time>2019-07-01T18:36:10.935Z</time>
      </trkpt>
      <trkpt lat="40.49061333" lon="-3.52093167">
        <ele>701.011</ele>
        <time>2019-07-01T18:36:11.935Z</time>
      </trkpt>
      <trkpt lat="40.49049" lon="-3.520935">
        <ele>699.011</ele>
        <time>2019-07-01T18:36:12.935Z</time>
      </trkpt>
      <trkpt lat="40.49049" lon="-3.520935">
        <ele>699.011</ele>
        <time>2019-07-01T18:36:13.935Z</time>
      </trkpt>
      <trkpt lat="40.49022667" lon="-3.52090667">
        <ele>697.011</ele>
        <time>2019-07-01T18:36:14.935Z</time>
      </trkpt>
      <trkpt lat="40.49009167" lon="-3.520875">
        <ele>697.011</ele>
        <time>2019-07-01T18:36:15.935Z</time>
      </trkpt>
      <trkpt lat="40.49009167" lon="-3.520875">
        <ele>695.011</ele>
        <time>2019-07-01T18:36:16.935Z</time>
      </trkpt>
      <trkpt lat="40.48982333" lon="-3.52075">
        <ele>695.011</ele>
        <time>2019-07-01T18:36:17.935Z</time>
      </trkpt>
      <trkpt lat="40.48969167" lon="-3.520665">
        <ele>693.011</ele>
        <time>2019-07-01T18:36:18.935Z</time>
      </trkpt>
      <trkpt lat="40.48969167" lon="-3.520665">
        <ele>693.011</ele>
        <time>2019-07-01T18:36:19.935Z</time>
      </trkpt>
      <trkpt lat="40.48941333" lon="-3.52050333">
        <ele>691.011</ele>
        <time>2019-07-01T18:36:20.935Z</time>
      </trkpt>
      <trkpt lat="40.48926667" lon="-3.52043">
        <ele>691.011</ele>
        <time>2019-07-01T18:36:21.935Z</time>
      </trkpt>
      <trkpt lat="40.48926667" lon="-3.52043">
        <ele>688.011</ele>
        <time>2019-07-01T18:36:22.935Z</time>
      </trkpt>
      <trkpt lat="40.48894" lon="-3.52032667">
        <ele>688.011</ele>
        <time>2019-07-01T18:36:23.935Z</time>
      </trkpt>
      <trkpt lat="40.48894" lon="-3.52032667">
        <ele>684.011</ele>
        <time>2019-07-01T18:36:24.935Z</time>
      </trkpt>
      <trkpt lat="40.48859167" lon="-3.520305">
        <ele>684.011</ele>
        <time>2019-07-01T18:36:25.935Z</time>
      </trkpt>
      <trkpt lat="40.48841833" lon="-3.52030667">
        <ele>680.011</ele>
        <time>2019-07-01T18:36:26.935Z</time>
      </trkpt>
      <trkpt lat="40.48824667" lon="-3.52029833">
        <ele>680.011</ele>
        <time>2019-07-01T18:36:27.935Z</time>
      </trkpt>
      <trkpt lat="40.48824667" lon="-3.52029833">
        <ele>677.011</ele>
        <time>2019-07-01T18:36:28.935Z</time>
      </trkpt>
      <trkpt lat="40.48792333" lon="-3.520195">
        <ele>677.011</ele>
        <time>2019-07-01T18:36:29.935Z</time>
      </trkpt>
      <trkpt lat="40.48792333" lon="-3.520195">
        <ele>676.011</ele>
        <time>2019-07-01T18:36:30.935Z</time>
      </trkpt>
      <trkpt lat="40.48767" lon="-3.51996">
        <ele>676.011</ele>
        <time>2019-07-01T18:36:31.935Z</time>
      </trkpt>
      <trkpt lat="40.48767" lon="-3.51996">
        <ele>676.011</ele>
        <time>2019-07-01T18:36:32.935Z</time>
      </trkpt>
      <trkpt lat="40.48746667" lon="-3.51969833">
        <ele>676.011</ele>
        <time>2019-07-01T18:36:33.935Z</time>
      </trkpt>
      <trkpt lat="40.48746667" lon="-3.51969833">
        <ele>676.011</ele>
        <time>2019-07-01T18:36:34.935Z</time>
      </trkpt>
      <trkpt lat="40.48725667" lon="-3.519505">
        <ele>675.011</ele>
        <time>2019-07-01T18:36:35.935Z</time>
      </trkpt>
      <trkpt lat="40.48714667" lon="-3.51946">
        <ele>675.011</ele>
        <time>2019-07-01T18:36:36.935Z</time>
      </trkpt>
      <trkpt lat="40.48714667" lon="-3.51946">
        <ele>675.011</ele>
        <time>2019-07-01T18:36:37.935Z</time>
      </trkpt>
      <trkpt lat="40.486935" lon="-3.51945167">
        <ele>675.011</ele>
        <time>2019-07-01T18:36:38.935Z</time>
      </trkpt>
      <trkpt lat="40.486935" lon="-3.51945167">
        <ele>676.011</ele>
        <time>2019-07-01T18:36:39.935Z</time>
      </trkpt>
      <trkpt lat="40.48672833" lon="-3.51943667">
        <ele>676.011</ele>
        <time>2019-07-01T18:36:40.935Z</time>
      </trkpt>
      <trkpt lat="40.48672833" lon="-3.51943667">
        <ele>676.011</ele>
        <time>2019-07-01T18:36:41.935Z</time>
      </trkpt>
      <trkpt lat="40.48650833" lon="-3.51937833">
        <ele>676.011</ele>
        <time>2019-07-01T18:36:42.935Z</time>
      </trkpt>
      <trkpt lat="40.48650833" lon="-3.51937833">
        <ele>676.011</ele>
        <time>2019-07-01T18:36:43.935Z</time>
      </trkpt>
      <trkpt lat="40.48628667" lon="-3.519245">
        <ele>676.011</ele>
        <time>2019-07-01T18:36:44.935Z</time>
      </trkpt>
      <trkpt lat="40.48628667" lon="-3.519245">
        <ele>674.011</ele>
        <time>2019-07-01T18:36:45.935Z</time>
      </trkpt>
      <trkpt lat="40.48608333" lon="-3.51901833">
        <ele>674.011</ele>
        <time>2019-07-01T18:36:46.935Z</time>
      </trkpt>
      <trkpt lat="40.48608333" lon="-3.51901833">
        <ele>673.011</ele>
        <time>2019-07-01T18:36:47.935Z</time>
      </trkpt>
      <trkpt lat="40.48591167" lon="-3.51871833">
        <ele>673.011</ele>
        <time>2019-07-01T18:36:48.935Z</time>
      </trkpt>
      <trkpt lat="40.48591167" lon="-3.51871833">
        <ele>671.011</ele>
        <time>2019-07-01T18:36:49.935Z</time>
      </trkpt>
      <trkpt lat="40.48570667" lon="-3.51844">
        <ele>671.011</ele>
        <time>2019-07-01T18:36:50.935Z</time>
      </trkpt>
      <trkpt lat="40.48570667" lon="-3.51844">
        <ele>669.011</ele>
        <time>2019-07-01T18:36:51.935Z</time>
      </trkpt>
      <trkpt lat="40.48547833" lon="-3.51818333">
        <ele>669.011</ele>
        <time>2019-07-01T18:36:52.935Z</time>
      </trkpt>
      <trkpt lat="40.48537333" lon="-3.51804333">
        <ele>668.011</ele>
        <time>2019-07-01T18:36:53.935Z</time>
      </trkpt>
      <trkpt lat="40.48527167" lon="-3.51789833">
        <ele>668.011</ele>
        <time>2019-07-01T18:36:54.935Z</time>
      </trkpt>
      <trkpt lat="40.48527167" lon="-3.51789833">
        <ele>666.011</ele>
        <time>2019-07-01T18:36:55.935Z</time>
      </trkpt>
      <trkpt lat="40.48505833" lon="-3.51762">
        <ele>666.011</ele>
        <time>2019-07-01T18:36:56.935Z</time>
      </trkpt>
      <trkpt lat="40.48494" lon="-3.5175">
        <ele>665.011</ele>
        <time>2019-07-01T18:36:57.935Z</time>
      </trkpt>
      <trkpt lat="40.48494" lon="-3.5175">
        <ele>665.011</ele>
        <time>2019-07-01T18:36:58.935Z</time>
      </trkpt>
      <trkpt lat="40.48467667" lon="-3.51732667">
        <ele>663.011</ele>
        <time>2019-07-01T18:36:59.935Z</time>
      </trkpt>
      <trkpt lat="40.48467667" lon="-3.51732667">
        <ele>663.011</ele>
        <time>2019-07-01T18:37:00.935Z</time>
      </trkpt>
      <trkpt lat="40.48440167" lon="-3.51721">
        <ele>662.011</ele>
        <time>2019-07-01T18:37:01.935Z</time>
      </trkpt>
      <trkpt lat="40.484265" lon="-3.51715667">
        <ele>662.011</ele>
        <time>2019-07-01T18:37:02.935Z</time>
      </trkpt>
      <trkpt lat="40.484265" lon="-3.51715667">
        <ele>661.011</ele>
        <time>2019-07-01T18:37:03.935Z</time>
      </trkpt>
      <trkpt lat="40.48398833" lon="-3.51708">
        <ele>661.011</ele>
        <time>2019-07-01T18:37:04.935Z</time>
      </trkpt>
      <trkpt lat="40.48398833" lon="-3.51708">
        <ele>660.011</ele>
        <time>2019-07-01T18:37:05.935Z</time>
      </trkpt>
      <trkpt lat="40.48371" lon="-3.517025">
        <ele>660.011</ele>
        <time>2019-07-01T18:37:06.935Z</time>
      </trkpt>
      <trkpt lat="40.48371" lon="-3.517025">
        <ele>659.011</ele>
        <time>2019-07-01T18:37:07.935Z</time>
      </trkpt>
      <trkpt lat="40.48345333" lon="-3.51688833">
        <ele>659.011</ele>
        <time>2019-07-01T18:37:08.935Z</time>
      </trkpt>
      <trkpt lat="40.483335" lon="-3.51679667">
        <ele>657.011</ele>
        <time>2019-07-01T18:37:09.935Z</time>
      </trkpt>
      <trkpt lat="40.483335" lon="-3.51679667">
        <ele>657.011</ele>
        <time>2019-07-01T18:37:10.935Z</time>
      </trkpt>
      <trkpt lat="40.48310167" lon="-3.516615">
        <ele>657.011</ele>
        <time>2019-07-01T18:37:11.935Z</time>
      </trkpt>
      <trkpt lat="40.482985" lon="-3.51652833">
        <ele>657.011</ele>
        <time>2019-07-01T18:37:12.935Z</time>
      </trkpt>
      <trkpt lat="40.482985" lon="-3.51652833">
        <ele>656.011</ele>
        <time>2019-07-01T18:37:13.935Z</time>
      </trkpt>
      <trkpt lat="40.482745" lon="-3.516385">
        <ele>656.011</ele>
        <time>2019-07-01T18:37:14.935Z</time>
      </trkpt>
      <trkpt lat="40.48262167" lon="-3.51633333">
        <ele>655.011</ele>
        <time>2019-07-01T18:37:15.935Z</time>
      </trkpt>
      <trkpt lat="40.48262167" lon="-3.51633333">
        <ele>655.011</ele>
        <time>2019-07-01T18:37:16.935Z</time>
      </trkpt>
      <trkpt lat="40.48237667" lon="-3.51624333">
        <ele>655.011</ele>
        <time>2019-07-01T18:37:17.935Z</time>
      </trkpt>
      <trkpt lat="40.48237667" lon="-3.51624333">
        <ele>655.011</ele>
        <time>2019-07-01T18:37:18.935Z</time>
      </trkpt>
      <trkpt lat="40.48214667" lon="-3.51615167">
        <ele>654.011</ele>
        <time>2019-07-01T18:37:19.935Z</time>
      </trkpt>
      <trkpt lat="40.48214667" lon="-3.51615167">
        <ele>654.011</ele>
        <time>2019-07-01T18:37:20.935Z</time>
      </trkpt>
      <trkpt lat="40.481935" lon="-3.51605667">
        <ele>654.011</ele>
        <time>2019-07-01T18:37:21.935Z</time>
      </trkpt>
      <trkpt lat="40.481935" lon="-3.51605667">
        <ele>654.011</ele>
        <time>2019-07-01T18:37:22.935Z</time>
      </trkpt>
      <trkpt lat="40.48173833" lon="-3.51595">
        <ele>654.011</ele>
        <time>2019-07-01T18:37:23.935Z</time>
      </trkpt>
      <trkpt lat="40.48164667" lon="-3.51589333">
        <ele>654.011</ele>
        <time>2019-07-01T18:37:24.935Z</time>
      </trkpt>
      <trkpt lat="40.48164667" lon="-3.51589333">
        <ele>654.011</ele>
        <time>2019-07-01T18:37:25.935Z</time>
      </trkpt>
      <trkpt lat="40.481465" lon="-3.51578333">
        <ele>654.011</ele>
        <time>2019-07-01T18:37:26.935Z</time>
      </trkpt>
      <trkpt lat="40.48138" lon="-3.51574">
        <ele>653.011</ele>
        <time>2019-07-01T18:37:27.935Z</time>
      </trkpt>
      <trkpt lat="40.48138" lon="-3.51574">
        <ele>653.011</ele>
        <time>2019-07-01T18:37:28.935Z</time>
      </trkpt>
      <trkpt lat="40.48122833" lon="-3.515665">
        <ele>653.011</ele>
        <time>2019-07-01T18:37:29.935Z</time>
      </trkpt>
      <trkpt lat="40.48116167" lon="-3.51563333">
        <ele>653.011</ele>
        <time>2019-07-01T18:37:30.935Z</time>
      </trkpt>
      <trkpt lat="40.48116167" lon="-3.51563333">
        <ele>653.011</ele>
        <time>2019-07-01T18:37:31.935Z</time>
      </trkpt>
      <trkpt lat="40.48104167" lon="-3.51558167">
        <ele>653.011</ele>
        <time>2019-07-01T18:37:32.935Z</time>
      </trkpt>
      <trkpt lat="40.48104167" lon="-3.51558167">
        <ele>653.011</ele>
        <time>2019-07-01T18:37:33.935Z</time>
      </trkpt>
      <trkpt lat="40.48093" lon="-3.515525">
        <ele>653.011</ele>
        <time>2019-07-01T18:37:34.935Z</time>
      </trkpt>
      <trkpt lat="40.48093" lon="-3.515525">
        <ele>653.011</ele>
        <time>2019-07-01T18:37:35.935Z</time>
      </trkpt>
      <trkpt lat="40.480825" lon="-3.51548">
        <ele>653.011</ele>
        <time>2019-07-01T18:37:36.935Z</time>
      </trkpt>
      <trkpt lat="40.48077167" lon="-3.51546667">
        <ele>653.011</ele>
        <time>2019-07-01T18:37:37.935Z</time>
      </trkpt>
      <trkpt lat="40.48077167" lon="-3.51546667">
        <ele>653.011</ele>
        <time>2019-07-01T18:37:38.935Z</time>
      </trkpt>
      <trkpt lat="40.48066833" lon="-3.515445">
        <ele>653.011</ele>
        <time>2019-07-01T18:37:39.935Z</time>
      </trkpt>
      <trkpt lat="40.480615" lon="-3.51543667">
        <ele>653.011</ele>
        <time>2019-07-01T18:37:40.935Z</time>
      </trkpt>
      <trkpt lat="40.480615" lon="-3.51543667">
        <ele>653.011</ele>
        <time>2019-07-01T18:37:41.935Z</time>
      </trkpt>
      <trkpt lat="40.48050167" lon="-3.51541667">
        <ele>653.011</ele>
        <time>2019-07-01T18:37:42.935Z</time>
      </trkpt>
      <trkpt lat="40.48050167" lon="-3.51541667">
        <ele>653.011</ele>
        <time>2019-07-01T18:37:43.935Z</time>
      </trkpt>
      <trkpt lat="40.480385" lon="-3.51539167">
        <ele>654.011</ele>
        <time>2019-07-01T18:37:44.935Z</time>
      </trkpt>
      <trkpt lat="40.48033" lon="-3.51537833">
        <ele>654.011</ele>
        <time>2019-07-01T18:37:45.935Z</time>
      </trkpt>
      <trkpt lat="40.48027833" lon="-3.51536833">
        <ele>655.011</ele>
        <time>2019-07-01T18:37:46.935Z</time>
      </trkpt>
      <trkpt lat="40.48027833" lon="-3.51536833">
        <ele>655.011</ele>
        <time>2019-07-01T18:37:47.935Z</time>
      </trkpt>
      <trkpt lat="40.480185" lon="-3.51534833">
        <ele>656.011</ele>
        <time>2019-07-01T18:37:48.935Z</time>
      </trkpt>
      <trkpt lat="40.480145" lon="-3.51534">
        <ele>656.011</ele>
        <time>2019-07-01T18:37:49.935Z</time>
      </trkpt>
      <trkpt lat="40.480145" lon="-3.51534">
        <ele>656.011</ele>
        <time>2019-07-01T18:37:50.935Z</time>
      </trkpt>
      <trkpt lat="40.48005833" lon="-3.51532167">
        <ele>656.011</ele>
        <time>2019-07-01T18:37:51.935Z</time>
      </trkpt>
      <trkpt lat="40.48005833" lon="-3.51532167">
        <ele>657.011</ele>
        <time>2019-07-01T18:37:52.935Z</time>
      </trkpt>
      <trkpt lat="40.47997667" lon="-3.51529167">
        <ele>657.011</ele>
        <time>2019-07-01T18:37:53.935Z</time>
      </trkpt>
      <trkpt lat="40.479935" lon="-3.51528333">
        <ele>657.011</ele>
        <time>2019-07-01T18:37:54.935Z</time>
      </trkpt>
      <trkpt lat="40.479935" lon="-3.51528333">
        <ele>657.011</ele>
        <time>2019-07-01T18:37:55.935Z</time>
      </trkpt>
      <trkpt lat="40.47985333" lon="-3.515275">
        <ele>659.011</ele>
        <time>2019-07-01T18:37:56.935Z</time>
      </trkpt>
      <trkpt lat="40.47981333" lon="-3.51527">
        <ele>659.011</ele>
        <time>2019-07-01T18:37:57.935Z</time>
      </trkpt>
      <trkpt lat="40.47981333" lon="-3.51527">
        <ele>659.011</ele>
        <time>2019-07-01T18:37:58.935Z</time>
      </trkpt>
      <trkpt lat="40.47972" lon="-3.51525">
        <ele>659.011</ele>
        <time>2019-07-01T18:37:59.935Z</time>
      </trkpt>
      <trkpt lat="40.47967667" lon="-3.51523667">
        <ele>659.011</ele>
        <time>2019-07-01T18:38:00.935Z</time>
      </trkpt>
      <trkpt lat="40.47967667" lon="-3.51523667">
        <ele>659.011</ele>
        <time>2019-07-01T18:38:01.935Z</time>
      </trkpt>
      <trkpt lat="40.47959833" lon="-3.51521">
        <ele>659.011</ele>
        <time>2019-07-01T18:38:02.935Z</time>
      </trkpt>
      <trkpt lat="40.47959833" lon="-3.51521">
        <ele>659.011</ele>
        <time>2019-07-01T18:38:03.935Z</time>
      </trkpt>
      <trkpt lat="40.479515" lon="-3.51518">
        <ele>659.011</ele>
        <time>2019-07-01T18:38:04.935Z</time>
      </trkpt>
      <trkpt lat="40.479515" lon="-3.51518">
        <ele>659.011</ele>
        <time>2019-07-01T18:38:05.935Z</time>
      </trkpt>
      <trkpt lat="40.47943167" lon="-3.515145">
        <ele>659.011</ele>
        <time>2019-07-01T18:38:06.935Z</time>
      </trkpt>
      <trkpt lat="40.47938833" lon="-3.51512333">
        <ele>659.011</ele>
        <time>2019-07-01T18:38:07.935Z</time>
      </trkpt>
      <trkpt lat="40.47938833" lon="-3.51512333">
        <ele>659.011</ele>
        <time>2019-07-01T18:38:08.935Z</time>
      </trkpt>
      <trkpt lat="40.47929667" lon="-3.51508167">
        <ele>659.011</ele>
        <time>2019-07-01T18:38:09.935Z</time>
      </trkpt>
      <trkpt lat="40.47929667" lon="-3.51508167">
        <ele>659.011</ele>
        <time>2019-07-01T18:38:10.935Z</time>
      </trkpt>
      <trkpt lat="40.47920333" lon="-3.51503">
        <ele>659.011</ele>
        <time>2019-07-01T18:38:11.935Z</time>
      </trkpt>
      <trkpt lat="40.47920333" lon="-3.51503">
        <ele>659.011</ele>
        <time>2019-07-01T18:38:12.935Z</time>
      </trkpt>
      <trkpt lat="40.47909667" lon="-3.51497167">
        <ele>659.011</ele>
        <time>2019-07-01T18:38:13.935Z</time>
      </trkpt>
      <trkpt lat="40.47909667" lon="-3.51497167">
        <ele>659.011</ele>
        <time>2019-07-01T18:38:14.935Z</time>
      </trkpt>
      <trkpt lat="40.47897333" lon="-3.51491167">
        <ele>659.011</ele>
        <time>2019-07-01T18:38:15.935Z</time>
      </trkpt>
      <trkpt lat="40.47897333" lon="-3.51491167">
        <ele>659.011</ele>
        <time>2019-07-01T18:38:16.935Z</time>
      </trkpt>
      <trkpt lat="40.47884667" lon="-3.51485833">
        <ele>659.011</ele>
        <time>2019-07-01T18:38:17.935Z</time>
      </trkpt>
      <trkpt lat="40.47878167" lon="-3.51483167">
        <ele>659.011</ele>
        <time>2019-07-01T18:38:18.935Z</time>
      </trkpt>
      <trkpt lat="40.47878167" lon="-3.51483167">
        <ele>658.011</ele>
        <time>2019-07-01T18:38:19.935Z</time>
      </trkpt>
      <trkpt lat="40.47863833" lon="-3.51476">
        <ele>658.011</ele>
        <time>2019-07-01T18:38:20.935Z</time>
      </trkpt>
      <trkpt lat="40.47855833" lon="-3.51473">
        <ele>657.011</ele>
        <time>2019-07-01T18:38:21.935Z</time>
      </trkpt>
      <trkpt lat="40.47855833" lon="-3.51473">
        <ele>657.011</ele>
        <time>2019-07-01T18:38:22.935Z</time>
      </trkpt>
      <trkpt lat="40.47839" lon="-3.51475333">
        <ele>656.011</ele>
        <time>2019-07-01T18:38:23.935Z</time>
      </trkpt>
      <trkpt lat="40.478315" lon="-3.51479333">
        <ele>656.011</ele>
        <time>2019-07-01T18:38:24.935Z</time>
      </trkpt>
      <trkpt lat="40.478315" lon="-3.51479333">
        <ele>656.011</ele>
        <time>2019-07-01T18:38:25.935Z</time>
      </trkpt>
      <trkpt lat="40.47814667" lon="-3.51481167">
        <ele>656.011</ele>
        <time>2019-07-01T18:38:26.935Z</time>
      </trkpt>
      <trkpt lat="40.47805833" lon="-3.51482">
        <ele>654.011</ele>
        <time>2019-07-01T18:38:27.935Z</time>
      </trkpt>
      <trkpt lat="40.47805833" lon="-3.51482">
        <ele>654.011</ele>
        <time>2019-07-01T18:38:28.935Z</time>
      </trkpt>
      <trkpt lat="40.477905" lon="-3.51490167">
        <ele>654.011</ele>
        <time>2019-07-01T18:38:29.935Z</time>
      </trkpt>
      <trkpt lat="40.477845" lon="-3.51496333">
        <ele>654.011</ele>
        <time>2019-07-01T18:38:30.935Z</time>
      </trkpt>
      <trkpt lat="40.477845" lon="-3.51496333">
        <ele>654.011</ele>
        <time>2019-07-01T18:38:31.935Z</time>
      </trkpt>
      <trkpt lat="40.47777" lon="-3.51508833">
        <ele>654.011</ele>
        <time>2019-07-01T18:38:32.935Z</time>
      </trkpt>
      <trkpt lat="40.47777" lon="-3.51508833">
        <ele>654.011</ele>
        <time>2019-07-01T18:38:33.935Z</time>
      </trkpt>
      <trkpt lat="40.47772833" lon="-3.51518167">
        <ele>654.011</ele>
        <time>2019-07-01T18:38:34.935Z</time>
      </trkpt>
      <trkpt lat="40.47772833" lon="-3.51518167">
        <ele>654.011</ele>
        <time>2019-07-01T18:38:35.935Z</time>
      </trkpt>
      <trkpt lat="40.47769333" lon="-3.51524667">
        <ele>655.011</ele>
        <time>2019-07-01T18:38:36.935Z</time>
      </trkpt>
      <trkpt lat="40.47769333" lon="-3.51524667">
        <ele>655.011</ele>
        <time>2019-07-01T18:38:37.935Z</time>
      </trkpt>
      <trkpt lat="40.477645" lon="-3.51531333">
        <ele>656.011</ele>
        <time>2019-07-01T18:38:38.935Z</time>
      </trkpt>
      <trkpt lat="40.47762" lon="-3.51535333">
        <ele>656.011</ele>
        <time>2019-07-01T18:38:39.935Z</time>
      </trkpt>
      <trkpt lat="40.47762" lon="-3.51535333">
        <ele>656.011</ele>
        <time>2019-07-01T18:38:40.935Z</time>
      </trkpt>
      <trkpt lat="40.477565" lon="-3.51544167">
        <ele>656.011</ele>
        <time>2019-07-01T18:38:41.935Z</time>
      </trkpt>
      <trkpt lat="40.477535" lon="-3.51548333">
        <ele>657.011</ele>
        <time>2019-07-01T18:38:42.935Z</time>
      </trkpt>
      <trkpt lat="40.477535" lon="-3.51548333">
        <ele>657.011</ele>
        <time>2019-07-01T18:38:43.935Z</time>
      </trkpt>
      <trkpt lat="40.47748" lon="-3.51556167">
        <ele>658.011</ele>
        <time>2019-07-01T18:38:44.935Z</time>
      </trkpt>
      <trkpt lat="40.47748" lon="-3.51556167">
        <ele>658.011</ele>
        <time>2019-07-01T18:38:45.935Z</time>
      </trkpt>
      <trkpt lat="40.47743" lon="-3.51564167">
        <ele>658.011</ele>
        <time>2019-07-01T18:38:46.935Z</time>
      </trkpt>
      <trkpt lat="40.47743" lon="-3.51564167">
        <ele>658.011</ele>
        <time>2019-07-01T18:38:47.935Z</time>
      </trkpt>
      <trkpt lat="40.47737833" lon="-3.51572667">
        <ele>659.011</ele>
        <time>2019-07-01T18:38:48.935Z</time>
      </trkpt>
      <trkpt lat="40.47737833" lon="-3.51572667">
        <ele>659.011</ele>
        <time>2019-07-01T18:38:49.935Z</time>
      </trkpt>
      <trkpt lat="40.47732667" lon="-3.51581833">
        <ele>659.011</ele>
        <time>2019-07-01T18:38:50.935Z</time>
      </trkpt>
      <trkpt lat="40.47732667" lon="-3.51581833">
        <ele>659.011</ele>
        <time>2019-07-01T18:38:51.935Z</time>
      </trkpt>
      <trkpt lat="40.47726833" lon="-3.51591167">
        <ele>659.011</ele>
        <time>2019-07-01T18:38:52.935Z</time>
      </trkpt>
      <trkpt lat="40.47726833" lon="-3.51591167">
        <ele>659.011</ele>
        <time>2019-07-01T18:38:53.935Z</time>
      </trkpt>
      <trkpt lat="40.47720667" lon="-3.51602">
        <ele>659.011</ele>
        <time>2019-07-01T18:38:54.935Z</time>
      </trkpt>
      <trkpt lat="40.47720667" lon="-3.51602">
        <ele>659.011</ele>
        <time>2019-07-01T18:38:55.935Z</time>
      </trkpt>
      <trkpt lat="40.47713333" lon="-3.51614">
        <ele>659.011</ele>
        <time>2019-07-01T18:38:56.935Z</time>
      </trkpt>
      <trkpt lat="40.47713333" lon="-3.51614">
        <ele>659.011</ele>
        <time>2019-07-01T18:38:57.935Z</time>
      </trkpt>
      <trkpt lat="40.477045" lon="-3.51627167">
        <ele>659.011</ele>
        <time>2019-07-01T18:38:58.935Z</time>
      </trkpt>
      <trkpt lat="40.477045" lon="-3.51627167">
        <ele>659.011</ele>
        <time>2019-07-01T18:38:59.935Z</time>
      </trkpt>
      <trkpt lat="40.47693667" lon="-3.51640833">
        <ele>658.011</ele>
        <time>2019-07-01T18:39:00.935Z</time>
      </trkpt>
      <trkpt lat="40.47693667" lon="-3.51640833">
        <ele>658.011</ele>
        <time>2019-07-01T18:39:01.935Z</time>
      </trkpt>
      <trkpt lat="40.47680167" lon="-3.51654333">
        <ele>657.011</ele>
        <time>2019-07-01T18:39:02.935Z</time>
      </trkpt>
      <trkpt lat="40.47680167" lon="-3.51654333">
        <ele>657.011</ele>
        <time>2019-07-01T18:39:03.935Z</time>
      </trkpt>
      <trkpt lat="40.476645" lon="-3.51665167">
        <ele>656.011</ele>
        <time>2019-07-01T18:39:04.935Z</time>
      </trkpt>
      <trkpt lat="40.476645" lon="-3.51665167">
        <ele>656.011</ele>
        <time>2019-07-01T18:39:05.935Z</time>
      </trkpt>
      <trkpt lat="40.47647833" lon="-3.51673">
        <ele>655.011</ele>
        <time>2019-07-01T18:39:06.935Z</time>
      </trkpt>
      <trkpt lat="40.47647833" lon="-3.51673">
        <ele>655.011</ele>
        <time>2019-07-01T18:39:07.935Z</time>
      </trkpt>
      <trkpt lat="40.47631" lon="-3.51678333">
        <ele>655.011</ele>
        <time>2019-07-01T18:39:08.935Z</time>
      </trkpt>
      <trkpt lat="40.47622833" lon="-3.51680167">
        <ele>655.011</ele>
        <time>2019-07-01T18:39:09.935Z</time>
      </trkpt>
      <trkpt lat="40.47622833" lon="-3.51680167">
        <ele>655.011</ele>
        <time>2019-07-01T18:39:10.935Z</time>
      </trkpt>
      <trkpt lat="40.47607333" lon="-3.516815">
        <ele>655.011</ele>
        <time>2019-07-01T18:39:11.935Z</time>
      </trkpt>
      <trkpt lat="40.47600333" lon="-3.51681">
        <ele>655.011</ele>
        <time>2019-07-01T18:39:12.935Z</time>
      </trkpt>
      <trkpt lat="40.47600333" lon="-3.51681">
        <ele>655.011</ele>
        <time>2019-07-01T18:39:13.935Z</time>
      </trkpt>
      <trkpt lat="40.475865" lon="-3.51679167">
        <ele>655.011</ele>
        <time>2019-07-01T18:39:14.935Z</time>
      </trkpt>
      <trkpt lat="40.475865" lon="-3.51679167">
        <ele>655.011</ele>
        <time>2019-07-01T18:39:15.935Z</time>
      </trkpt>
      <trkpt lat="40.47573333" lon="-3.51675667">
        <ele>655.011</ele>
        <time>2019-07-01T18:39:16.935Z</time>
      </trkpt>
      <trkpt lat="40.47573333" lon="-3.51675667">
        <ele>655.011</ele>
        <time>2019-07-01T18:39:17.935Z</time>
      </trkpt>
      <trkpt lat="40.47560333" lon="-3.51670833">
        <ele>655.011</ele>
        <time>2019-07-01T18:39:18.935Z</time>
      </trkpt>
      <trkpt lat="40.47560333" lon="-3.51670833">
        <ele>655.011</ele>
        <time>2019-07-01T18:39:19.935Z</time>
      </trkpt>
      <trkpt lat="40.47546667" lon="-3.51666333">
        <ele>655.011</ele>
        <time>2019-07-01T18:39:20.935Z</time>
      </trkpt>
      <trkpt lat="40.47546667" lon="-3.51666333">
        <ele>655.011</ele>
        <time>2019-07-01T18:39:21.935Z</time>
      </trkpt>
      <trkpt lat="40.47531667" lon="-3.51661">
        <ele>655.011</ele>
        <time>2019-07-01T18:39:22.935Z</time>
      </trkpt>
      <trkpt lat="40.47531667" lon="-3.51661">
        <ele>655.011</ele>
        <time>2019-07-01T18:39:23.935Z</time>
      </trkpt>
      <trkpt lat="40.47516" lon="-3.516555">
        <ele>655.011</ele>
        <time>2019-07-01T18:39:24.935Z</time>
      </trkpt>
      <trkpt lat="40.47516" lon="-3.516555">
        <ele>653.011</ele>
        <time>2019-07-01T18:39:25.935Z</time>
      </trkpt>
      <trkpt lat="40.47500333" lon="-3.516495">
        <ele>653.011</ele>
        <time>2019-07-01T18:39:26.935Z</time>
      </trkpt>
      <trkpt lat="40.47492667" lon="-3.51646167">
        <ele>653.011</ele>
        <time>2019-07-01T18:39:27.935Z</time>
      </trkpt>
      <trkpt lat="40.47492667" lon="-3.51646167">
        <ele>653.011</ele>
        <time>2019-07-01T18:39:28.935Z</time>
      </trkpt>
      <trkpt lat="40.47479" lon="-3.516395">
        <ele>653.011</ele>
        <time>2019-07-01T18:39:29.935Z</time>
      </trkpt>
      <trkpt lat="40.47473167" lon="-3.51635667">
        <ele>653.011</ele>
        <time>2019-07-01T18:39:30.935Z</time>
      </trkpt>
      <trkpt lat="40.47473167" lon="-3.51635667">
        <ele>653.011</ele>
        <time>2019-07-01T18:39:31.935Z</time>
      </trkpt>
      <trkpt lat="40.47462833" lon="-3.51627167">
        <ele>653.011</ele>
        <time>2019-07-01T18:39:32.935Z</time>
      </trkpt>
      <trkpt lat="40.47462833" lon="-3.51627167">
        <ele>653.011</ele>
        <time>2019-07-01T18:39:33.935Z</time>
      </trkpt>
      <trkpt lat="40.47454333" lon="-3.51618167">
        <ele>653.011</ele>
        <time>2019-07-01T18:39:34.935Z</time>
      </trkpt>
      <trkpt lat="40.47454333" lon="-3.51618167">
        <ele>653.011</ele>
        <time>2019-07-01T18:39:35.935Z</time>
      </trkpt>
      <trkpt lat="40.47446833" lon="-3.51607">
        <ele>654.011</ele>
        <time>2019-07-01T18:39:36.935Z</time>
      </trkpt>
      <trkpt lat="40.47446833" lon="-3.51607">
        <ele>654.011</ele>
        <time>2019-07-01T18:39:37.935Z</time>
      </trkpt>
      <trkpt lat="40.47442" lon="-3.515935">
        <ele>654.011</ele>
        <time>2019-07-01T18:39:38.935Z</time>
      </trkpt>
      <trkpt lat="40.47442" lon="-3.515935">
        <ele>654.011</ele>
        <time>2019-07-01T18:39:39.935Z</time>
      </trkpt>
      <trkpt lat="40.47438167" lon="-3.5158">
        <ele>655.011</ele>
        <time>2019-07-01T18:39:40.935Z</time>
      </trkpt>
      <trkpt lat="40.47438167" lon="-3.5158">
        <ele>655.011</ele>
        <time>2019-07-01T18:39:41.935Z</time>
      </trkpt>
      <trkpt lat="40.47436333" lon="-3.51566">
        <ele>655.011</ele>
        <time>2019-07-01T18:39:42.935Z</time>
      </trkpt>
      <trkpt lat="40.47436333" lon="-3.51566">
        <ele>655.011</ele>
        <time>2019-07-01T18:39:43.935Z</time>
      </trkpt>
      <trkpt lat="40.47435167" lon="-3.51551333">
        <ele>655.011</ele>
        <time>2019-07-01T18:39:44.935Z</time>
      </trkpt>
      <trkpt lat="40.47435167" lon="-3.51551333">
        <ele>655.011</ele>
        <time>2019-07-01T18:39:45.935Z</time>
      </trkpt>
      <trkpt lat="40.474345" lon="-3.51536167">
        <ele>655.011</ele>
        <time>2019-07-01T18:39:46.935Z</time>
      </trkpt>
      <trkpt lat="40.474345" lon="-3.51536167">
        <ele>655.011</ele>
        <time>2019-07-01T18:39:47.935Z</time>
      </trkpt>
      <trkpt lat="40.47433167" lon="-3.51521">
        <ele>655.011</ele>
        <time>2019-07-01T18:39:48.935Z</time>
      </trkpt>
      <trkpt lat="40.47433167" lon="-3.51521">
        <ele>655.011</ele>
        <time>2019-07-01T18:39:49.935Z</time>
      </trkpt>
      <trkpt lat="40.47431" lon="-3.51506333">
        <ele>655.011</ele>
        <time>2019-07-01T18:39:50.935Z</time>
      </trkpt>
      <trkpt lat="40.47431" lon="-3.51506333">
        <ele>655.011</ele>
        <time>2019-07-01T18:39:51.935Z</time>
      </trkpt>
      <trkpt lat="40.474275" lon="-3.51492167">
        <ele>655.011</ele>
        <time>2019-07-01T18:39:52.935Z</time>
      </trkpt>
      <trkpt lat="40.47425167" lon="-3.51485167">
        <ele>655.011</ele>
        <time>2019-07-01T18:39:53.935Z</time>
      </trkpt>
      <trkpt lat="40.47423" lon="-3.514785">
        <ele>656.011</ele>
        <time>2019-07-01T18:39:54.935Z</time>
      </trkpt>
      <trkpt lat="40.47423" lon="-3.514785">
        <ele>656.011</ele>
        <time>2019-07-01T18:39:55.935Z</time>
      </trkpt>
      <trkpt lat="40.47417833" lon="-3.51465833">
        <ele>656.011</ele>
        <time>2019-07-01T18:39:56.935Z</time>
      </trkpt>
      <trkpt lat="40.47417833" lon="-3.51465833">
        <ele>656.011</ele>
        <time>2019-07-01T18:39:57.935Z</time>
      </trkpt>
      <trkpt lat="40.474115" lon="-3.51454167">
        <ele>656.011</ele>
        <time>2019-07-01T18:39:58.935Z</time>
      </trkpt>
      <trkpt lat="40.474115" lon="-3.51454167">
        <ele>656.011</ele>
        <time>2019-07-01T18:39:59.935Z</time>
      </trkpt>
      <trkpt lat="40.47404" lon="-3.51443833">
        <ele>656.011</ele>
        <time>2019-07-01T18:40:00.935Z</time>
      </trkpt>
      <trkpt lat="40.47404" lon="-3.51443833">
        <ele>656.011</ele>
        <time>2019-07-01T18:40:01.935Z</time>
      </trkpt>
      <trkpt lat="40.47396167" lon="-3.51434667">
        <ele>656.011</ele>
        <time>2019-07-01T18:40:02.935Z</time>
      </trkpt>
      <trkpt lat="40.47391" lon="-3.51430333">
        <ele>656.011</ele>
        <time>2019-07-01T18:40:03.935Z</time>
      </trkpt>
      <trkpt lat="40.47391" lon="-3.51430333">
        <ele>656.011</ele>
        <time>2019-07-01T18:40:04.935Z</time>
      </trkpt>
      <trkpt lat="40.47381333" lon="-3.51422167">
        <ele>656.011</ele>
        <time>2019-07-01T18:40:05.935Z</time>
      </trkpt>
      <trkpt lat="40.47376" lon="-3.51418333">
        <ele>656.011</ele>
        <time>2019-07-01T18:40:06.935Z</time>
      </trkpt>
      <trkpt lat="40.47376" lon="-3.51418333">
        <ele>656.011</ele>
        <time>2019-07-01T18:40:07.935Z</time>
      </trkpt>
      <trkpt lat="40.47364167" lon="-3.51412167">
        <ele>656.011</ele>
        <time>2019-07-01T18:40:08.935Z</time>
      </trkpt>
      <trkpt lat="40.47364167" lon="-3.51412167">
        <ele>656.011</ele>
        <time>2019-07-01T18:40:09.935Z</time>
      </trkpt>
      <trkpt lat="40.47350667" lon="-3.514085">
        <ele>655.011</ele>
        <time>2019-07-01T18:40:10.935Z</time>
      </trkpt>
      <trkpt lat="40.47350667" lon="-3.514085">
        <ele>655.011</ele>
        <time>2019-07-01T18:40:11.935Z</time>
      </trkpt>
      <trkpt lat="40.473355" lon="-3.51407333">
        <ele>655.011</ele>
        <time>2019-07-01T18:40:12.935Z</time>
      </trkpt>
      <trkpt lat="40.473355" lon="-3.51407333">
        <ele>655.011</ele>
        <time>2019-07-01T18:40:13.935Z</time>
      </trkpt>
      <trkpt lat="40.473185" lon="-3.514065">
        <ele>654.011</ele>
        <time>2019-07-01T18:40:14.935Z</time>
      </trkpt>
      <trkpt lat="40.473095" lon="-3.51406667">
        <ele>654.011</ele>
        <time>2019-07-01T18:40:15.935Z</time>
      </trkpt>
      <trkpt lat="40.473095" lon="-3.51406667">
        <ele>653.011</ele>
        <time>2019-07-01T18:40:16.935Z</time>
      </trkpt>
      <trkpt lat="40.47290167" lon="-3.51406667">
        <ele>653.011</ele>
        <time>2019-07-01T18:40:17.935Z</time>
      </trkpt>
      <trkpt lat="40.4728" lon="-3.51406667">
        <ele>652.011</ele>
        <time>2019-07-01T18:40:18.935Z</time>
      </trkpt>
      <trkpt lat="40.4728" lon="-3.51406667">
        <ele>652.011</ele>
        <time>2019-07-01T18:40:19.935Z</time>
      </trkpt>
      <trkpt lat="40.47259167" lon="-3.514065">
        <ele>650.011</ele>
        <time>2019-07-01T18:40:20.935Z</time>
      </trkpt>
      <trkpt lat="40.47259167" lon="-3.514065">
        <ele>650.011</ele>
        <time>2019-07-01T18:40:21.935Z</time>
      </trkpt>
      <trkpt lat="40.47238" lon="-3.514065">
        <ele>649.011</ele>
        <time>2019-07-01T18:40:22.935Z</time>
      </trkpt>
      <trkpt lat="40.47238" lon="-3.514065">
        <ele>649.011</ele>
        <time>2019-07-01T18:40:23.935Z</time>
      </trkpt>
      <trkpt lat="40.47217167" lon="-3.51406">
        <ele>648.011</ele>
        <time>2019-07-01T18:40:24.935Z</time>
      </trkpt>
      <trkpt lat="40.47217167" lon="-3.51406">
        <ele>648.011</ele>
        <time>2019-07-01T18:40:25.935Z</time>
      </trkpt>
      <trkpt lat="40.47197333" lon="-3.51405833">
        <ele>648.011</ele>
        <time>2019-07-01T18:40:26.935Z</time>
      </trkpt>
      <trkpt lat="40.47197333" lon="-3.51405833">
        <ele>648.011</ele>
        <time>2019-07-01T18:40:27.935Z</time>
      </trkpt>
      <trkpt lat="40.47178333" lon="-3.51405833">
        <ele>648.011</ele>
        <time>2019-07-01T18:40:28.935Z</time>
      </trkpt>
      <trkpt lat="40.47169167" lon="-3.51405667">
        <ele>647.011</ele>
        <time>2019-07-01T18:40:29.935Z</time>
      </trkpt>
      <trkpt lat="40.4716" lon="-3.514055">
        <ele>647.011</ele>
        <time>2019-07-01T18:40:30.935Z</time>
      </trkpt>
      <trkpt lat="40.4716" lon="-3.514055">
        <ele>647.011</ele>
        <time>2019-07-01T18:40:31.935Z</time>
      </trkpt>
      <trkpt lat="40.471425" lon="-3.514055">
        <ele>647.011</ele>
        <time>2019-07-01T18:40:32.935Z</time>
      </trkpt>
      <trkpt lat="40.47133833" lon="-3.51405333">
        <ele>647.011</ele>
        <time>2019-07-01T18:40:33.935Z</time>
      </trkpt>
      <trkpt lat="40.47133833" lon="-3.51405333">
        <ele>647.011</ele>
        <time>2019-07-01T18:40:34.935Z</time>
      </trkpt>
      <trkpt lat="40.47116333" lon="-3.51404667">
        <ele>646.011</ele>
        <time>2019-07-01T18:40:35.935Z</time>
      </trkpt>
      <trkpt lat="40.47116333" lon="-3.51404667">
        <ele>646.011</ele>
        <time>2019-07-01T18:40:36.935Z</time>
      </trkpt>
      <trkpt lat="40.47098167" lon="-3.51404333">
        <ele>646.011</ele>
        <time>2019-07-01T18:40:37.935Z</time>
      </trkpt>
      <trkpt lat="40.47088833" lon="-3.51404333">
        <ele>646.011</ele>
        <time>2019-07-01T18:40:38.935Z</time>
      </trkpt>
      <trkpt lat="40.47079167" lon="-3.51404333">
        <ele>645.011</ele>
        <time>2019-07-01T18:40:39.935Z</time>
      </trkpt>
      <trkpt lat="40.47079167" lon="-3.51404333">
        <ele>645.011</ele>
        <time>2019-07-01T18:40:40.935Z</time>
      </trkpt>
      <trkpt lat="40.470585" lon="-3.51404167">
        <ele>644.011</ele>
        <time>2019-07-01T18:40:41.935Z</time>
      </trkpt>
      <trkpt lat="40.47047833" lon="-3.51404167">
        <ele>644.011</ele>
        <time>2019-07-01T18:40:42.935Z</time>
      </trkpt>
      <trkpt lat="40.47047833" lon="-3.51404167">
        <ele>643.011</ele>
        <time>2019-07-01T18:40:43.935Z</time>
      </trkpt>
      <trkpt lat="40.47026333" lon="-3.51402">
        <ele>643.011</ele>
        <time>2019-07-01T18:40:44.935Z</time>
      </trkpt>
      <trkpt lat="40.47015167" lon="-3.51398833">
        <ele>642.011</ele>
        <time>2019-07-01T18:40:45.935Z</time>
      </trkpt>
      <trkpt lat="40.47015167" lon="-3.51398833">
        <ele>642.011</ele>
        <time>2019-07-01T18:40:46.935Z</time>
      </trkpt>
      <trkpt lat="40.469935" lon="-3.51385833">
        <ele>640.011</ele>
        <time>2019-07-01T18:40:47.935Z</time>
      </trkpt>
      <trkpt lat="40.46983667" lon="-3.51375667">
        <ele>640.011</ele>
        <time>2019-07-01T18:40:48.935Z</time>
      </trkpt>
      <trkpt lat="40.46983667" lon="-3.51375667">
        <ele>638.011</ele>
        <time>2019-07-01T18:40:49.935Z</time>
      </trkpt>
      <trkpt lat="40.46967" lon="-3.51350167">
        <ele>638.011</ele>
        <time>2019-07-01T18:40:50.935Z</time>
      </trkpt>
      <trkpt lat="40.46959833" lon="-3.51335333">
        <ele>636.011</ele>
        <time>2019-07-01T18:40:51.935Z</time>
      </trkpt>
      <trkpt lat="40.46959833" lon="-3.51335333">
        <ele>636.011</ele>
        <time>2019-07-01T18:40:52.935Z</time>
      </trkpt>
      <trkpt lat="40.46946833" lon="-3.51304">
        <ele>634.011</ele>
        <time>2019-07-01T18:40:53.935Z</time>
      </trkpt>
      <trkpt lat="40.46941833" lon="-3.51287333">
        <ele>634.011</ele>
        <time>2019-07-01T18:40:54.935Z</time>
      </trkpt>
      <trkpt lat="40.46941833" lon="-3.51287333">
        <ele>632.011</ele>
        <time>2019-07-01T18:40:55.935Z</time>
      </trkpt>
      <trkpt lat="40.46936667" lon="-3.51252167">
        <ele>632.011</ele>
        <time>2019-07-01T18:40:56.935Z</time>
      </trkpt>
      <trkpt lat="40.46936167" lon="-3.51235">
        <ele>630.011</ele>
        <time>2019-07-01T18:40:57.935Z</time>
      </trkpt>
      <trkpt lat="40.46936167" lon="-3.51235">
        <ele>630.011</ele>
        <time>2019-07-01T18:40:58.935Z</time>
      </trkpt>
      <trkpt lat="40.469375" lon="-3.51205">
        <ele>629.011</ele>
        <time>2019-07-01T18:40:59.935Z</time>
      </trkpt>
      <trkpt lat="40.469375" lon="-3.51205">
        <ele>629.011</ele>
        <time>2019-07-01T18:41:00.935Z</time>
      </trkpt>
      <trkpt lat="40.46937167" lon="-3.51184167">
        <ele>627.011</ele>
        <time>2019-07-01T18:41:01.935Z</time>
      </trkpt>
      <trkpt lat="40.46937167" lon="-3.51184167">
        <ele>627.011</ele>
        <time>2019-07-01T18:41:02.935Z</time>
      </trkpt>
      <trkpt lat="40.46932167" lon="-3.511665">
        <ele>627.011</ele>
        <time>2019-07-01T18:41:03.935Z</time>
      </trkpt>
      <trkpt lat="40.46927" lon="-3.51159833">
        <ele>627.011</ele>
        <time>2019-07-01T18:41:04.935Z</time>
      </trkpt>
      <trkpt lat="40.46921833" lon="-3.51152833">
        <ele>627.011</ele>
        <time>2019-07-01T18:41:05.935Z</time>
      </trkpt>
      <trkpt lat="40.46921833" lon="-3.51152833">
        <ele>627.011</ele>
        <time>2019-07-01T18:41:06.935Z</time>
      </trkpt>
      <trkpt lat="40.46914667" lon="-3.51136">
        <ele>627.011</ele>
        <time>2019-07-01T18:41:07.935Z</time>
      </trkpt>
      <trkpt lat="40.46913667" lon="-3.51127">
        <ele>627.011</ele>
        <time>2019-07-01T18:41:08.935Z</time>
      </trkpt>
      <trkpt lat="40.46913667" lon="-3.51127">
        <ele>625.011</ele>
        <time>2019-07-01T18:41:09.935Z</time>
      </trkpt>
      <trkpt lat="40.46918667" lon="-3.51109167">
        <ele>625.011</ele>
        <time>2019-07-01T18:41:10.935Z</time>
      </trkpt>
      <trkpt lat="40.46918667" lon="-3.51109167">
        <ele>625.011</ele>
        <time>2019-07-01T18:41:11.935Z</time>
      </trkpt>
      <trkpt lat="40.46926" lon="-3.51096333">
        <ele>625.011</ele>
        <time>2019-07-01T18:41:12.935Z</time>
      </trkpt>
      <trkpt lat="40.46926" lon="-3.51096333">
        <ele>625.011</ele>
        <time>2019-07-01T18:41:13.935Z</time>
      </trkpt>
      <trkpt lat="40.469365" lon="-3.51088833">
        <ele>625.011</ele>
        <time>2019-07-01T18:41:14.935Z</time>
      </trkpt>
      <trkpt lat="40.469365" lon="-3.51088833">
        <ele>625.011</ele>
        <time>2019-07-01T18:41:15.935Z</time>
      </trkpt>
      <trkpt lat="40.469465" lon="-3.51083833">
        <ele>625.011</ele>
        <time>2019-07-01T18:41:16.935Z</time>
      </trkpt>
      <trkpt lat="40.469505" lon="-3.5108">
        <ele>625.011</ele>
        <time>2019-07-01T18:41:17.935Z</time>
      </trkpt>
      <trkpt lat="40.46954" lon="-3.51075333">
        <ele>625.011</ele>
        <time>2019-07-01T18:41:18.935Z</time>
      </trkpt>
      <trkpt lat="40.46956833" lon="-3.51069833">
        <ele>625.011</ele>
        <time>2019-07-01T18:41:19.935Z</time>
      </trkpt>
      <trkpt lat="40.46956833" lon="-3.51069833">
        <ele>625.011</ele>
        <time>2019-07-01T18:41:20.935Z</time>
      </trkpt>
      <trkpt lat="40.46960333" lon="-3.51057">
        <ele>626.011</ele>
        <time>2019-07-01T18:41:21.935Z</time>
      </trkpt>
      <trkpt lat="40.46961667" lon="-3.5105">
        <ele>626.011</ele>
        <time>2019-07-01T18:41:22.935Z</time>
      </trkpt>
      <trkpt lat="40.46961667" lon="-3.5105">
        <ele>626.011</ele>
        <time>2019-07-01T18:41:23.935Z</time>
      </trkpt>
      <trkpt lat="40.46964167" lon="-3.510365">
        <ele>626.011</ele>
        <time>2019-07-01T18:41:24.935Z</time>
      </trkpt>
      <trkpt lat="40.46964167" lon="-3.510365">
        <ele>626.011</ele>
        <time>2019-07-01T18:41:25.935Z</time>
      </trkpt>
      <trkpt lat="40.469665" lon="-3.510235">
        <ele>626.011</ele>
        <time>2019-07-01T18:41:26.935Z</time>
      </trkpt>
      <trkpt lat="40.46967833" lon="-3.51017">
        <ele>626.011</ele>
        <time>2019-07-01T18:41:27.935Z</time>
      </trkpt>
      <trkpt lat="40.46967833" lon="-3.51017">
        <ele>626.011</ele>
        <time>2019-07-01T18:41:28.935Z</time>
      </trkpt>
      <trkpt lat="40.469705" lon="-3.51003667">
        <ele>626.011</ele>
        <time>2019-07-01T18:41:29.935Z</time>
      </trkpt>
      <trkpt lat="40.469705" lon="-3.51003667">
        <ele>626.011</ele>
        <time>2019-07-01T18:41:30.935Z</time>
      </trkpt>
      <trkpt lat="40.46973167" lon="-3.5099">
        <ele>626.011</ele>
        <time>2019-07-01T18:41:31.935Z</time>
      </trkpt>
      <trkpt lat="40.469745" lon="-3.50983167">
        <ele>626.011</ele>
        <time>2019-07-01T18:41:32.935Z</time>
      </trkpt>
      <trkpt lat="40.469745" lon="-3.50983167">
        <ele>626.011</ele>
        <time>2019-07-01T18:41:33.935Z</time>
      </trkpt>
      <trkpt lat="40.46977" lon="-3.50969667">
        <ele>626.011</ele>
        <time>2019-07-01T18:41:34.935Z</time>
      </trkpt>
      <trkpt lat="40.46978167" lon="-3.50963">
        <ele>626.011</ele>
        <time>2019-07-01T18:41:35.935Z</time>
      </trkpt>
      <trkpt lat="40.46978167" lon="-3.50963">
        <ele>626.011</ele>
        <time>2019-07-01T18:41:36.935Z</time>
      </trkpt>
      <trkpt lat="40.46980667" lon="-3.509495">
        <ele>626.011</ele>
        <time>2019-07-01T18:41:37.935Z</time>
      </trkpt>
      <trkpt lat="40.46980667" lon="-3.509495">
        <ele>626.011</ele>
        <time>2019-07-01T18:41:38.935Z</time>
      </trkpt>
      <trkpt lat="40.46983333" lon="-3.50936167">
        <ele>626.011</ele>
        <time>2019-07-01T18:41:39.935Z</time>
      </trkpt>
      <trkpt lat="40.46984667" lon="-3.50929667">
        <ele>626.011</ele>
        <time>2019-07-01T18:41:40.935Z</time>
      </trkpt>
      <trkpt lat="40.46984667" lon="-3.50929667">
        <ele>626.011</ele>
        <time>2019-07-01T18:41:41.935Z</time>
      </trkpt>
      <trkpt lat="40.46987" lon="-3.50916333">
        <ele>626.011</ele>
        <time>2019-07-01T18:41:42.935Z</time>
      </trkpt>
      <trkpt lat="40.46987" lon="-3.50916333">
        <ele>626.011</ele>
        <time>2019-07-01T18:41:43.935Z</time>
      </trkpt>
      <trkpt lat="40.46989667" lon="-3.50902333">
        <ele>626.011</ele>
        <time>2019-07-01T18:41:44.935Z</time>
      </trkpt>
      <trkpt lat="40.46989667" lon="-3.50902333">
        <ele>626.011</ele>
        <time>2019-07-01T18:41:45.935Z</time>
      </trkpt>
      <trkpt lat="40.46993" lon="-3.50888">
        <ele>626.011</ele>
        <time>2019-07-01T18:41:46.935Z</time>
      </trkpt>
      <trkpt lat="40.46993" lon="-3.50888">
        <ele>626.011</ele>
        <time>2019-07-01T18:41:47.935Z</time>
      </trkpt>
      <trkpt lat="40.46996167" lon="-3.50873833">
        <ele>626.011</ele>
        <time>2019-07-01T18:41:48.935Z</time>
      </trkpt>
      <trkpt lat="40.46996167" lon="-3.50873833">
        <ele>626.011</ele>
        <time>2019-07-01T18:41:49.935Z</time>
      </trkpt>
      <trkpt lat="40.46999167" lon="-3.50859">
        <ele>626.011</ele>
        <time>2019-07-01T18:41:50.935Z</time>
      </trkpt>
      <trkpt lat="40.46999167" lon="-3.50859">
        <ele>626.011</ele>
        <time>2019-07-01T18:41:51.935Z</time>
      </trkpt>
      <trkpt lat="40.47002833" lon="-3.50844167">
        <ele>626.011</ele>
        <time>2019-07-01T18:41:52.935Z</time>
      </trkpt>
      <trkpt lat="40.47002833" lon="-3.50844167">
        <ele>626.011</ele>
        <time>2019-07-01T18:41:53.935Z</time>
      </trkpt>
      <trkpt lat="40.47007333" lon="-3.50829667">
        <ele>626.011</ele>
        <time>2019-07-01T18:41:54.935Z</time>
      </trkpt>
      <trkpt lat="40.47007333" lon="-3.50829667">
        <ele>625.011</ele>
        <time>2019-07-01T18:41:55.935Z</time>
      </trkpt>
      <trkpt lat="40.47011833" lon="-3.50815333">
        <ele>625.011</ele>
        <time>2019-07-01T18:41:56.935Z</time>
      </trkpt>
      <trkpt lat="40.47011833" lon="-3.50815333">
        <ele>625.011</ele>
        <time>2019-07-01T18:41:57.935Z</time>
      </trkpt>
      <trkpt lat="40.47016667" lon="-3.50801">
        <ele>625.011</ele>
        <time>2019-07-01T18:41:58.935Z</time>
      </trkpt>
      <trkpt lat="40.47019333" lon="-3.50794167">
        <ele>625.011</ele>
        <time>2019-07-01T18:41:59.935Z</time>
      </trkpt>
      <trkpt lat="40.47022" lon="-3.50787667">
        <ele>625.011</ele>
        <time>2019-07-01T18:42:00.935Z</time>
      </trkpt>
      <trkpt lat="40.47022" lon="-3.50787667">
        <ele>625.011</ele>
        <time>2019-07-01T18:42:01.935Z</time>
      </trkpt>
      <trkpt lat="40.47027333" lon="-3.50774333">
        <ele>625.011</ele>
        <time>2019-07-01T18:42:02.935Z</time>
      </trkpt>
      <trkpt lat="40.47027333" lon="-3.50774333">
        <ele>625.011</ele>
        <time>2019-07-01T18:42:03.935Z</time>
      </trkpt>
      <trkpt lat="40.47033333" lon="-3.50761667">
        <ele>625.011</ele>
        <time>2019-07-01T18:42:04.935Z</time>
      </trkpt>
      <trkpt lat="40.47033333" lon="-3.50761667">
        <ele>625.011</ele>
        <time>2019-07-01T18:42:05.935Z</time>
      </trkpt>
      <trkpt lat="40.470395" lon="-3.50748667">
        <ele>625.011</ele>
        <time>2019-07-01T18:42:06.935Z</time>
      </trkpt>
      <trkpt lat="40.470395" lon="-3.50748667">
        <ele>625.011</ele>
        <time>2019-07-01T18:42:07.935Z</time>
      </trkpt>
      <trkpt lat="40.47045167" lon="-3.50735167">
        <ele>625.011</ele>
        <time>2019-07-01T18:42:08.935Z</time>
      </trkpt>
      <trkpt lat="40.47045167" lon="-3.50735167">
        <ele>625.011</ele>
        <time>2019-07-01T18:42:09.935Z</time>
      </trkpt>
      <trkpt lat="40.47051" lon="-3.50722333">
        <ele>625.011</ele>
        <time>2019-07-01T18:42:10.935Z</time>
      </trkpt>
      <trkpt lat="40.47051" lon="-3.50722333">
        <ele>625.011</ele>
        <time>2019-07-01T18:42:11.935Z</time>
      </trkpt>
      <trkpt lat="40.47056667" lon="-3.50709333">
        <ele>625.011</ele>
        <time>2019-07-01T18:42:12.935Z</time>
      </trkpt>
      <trkpt lat="40.47056667" lon="-3.50709333">
        <ele>625.011</ele>
        <time>2019-07-01T18:42:13.935Z</time>
      </trkpt>
      <trkpt lat="40.47062833" lon="-3.50695667">
        <ele>625.011</ele>
        <time>2019-07-01T18:42:14.935Z</time>
      </trkpt>
      <trkpt lat="40.47062833" lon="-3.50695667">
        <ele>625.011</ele>
        <time>2019-07-01T18:42:15.935Z</time>
      </trkpt>
      <trkpt lat="40.47069167" lon="-3.50681333">
        <ele>625.011</ele>
        <time>2019-07-01T18:42:16.935Z</time>
      </trkpt>
      <trkpt lat="40.470725" lon="-3.50674">
        <ele>625.011</ele>
        <time>2019-07-01T18:42:17.935Z</time>
      </trkpt>
      <trkpt lat="40.470725" lon="-3.50674">
        <ele>624.011</ele>
        <time>2019-07-01T18:42:18.935Z</time>
      </trkpt>
      <trkpt lat="40.470795" lon="-3.50658833">
        <ele>624.011</ele>
        <time>2019-07-01T18:42:19.935Z</time>
      </trkpt>
      <trkpt lat="40.470795" lon="-3.50658833">
        <ele>624.011</ele>
        <time>2019-07-01T18:42:20.935Z</time>
      </trkpt>
      <trkpt lat="40.47087333" lon="-3.50641833">
        <ele>624.011</ele>
        <time>2019-07-01T18:42:21.935Z</time>
      </trkpt>
      <trkpt lat="40.47091167" lon="-3.506325">
        <ele>622.011</ele>
        <time>2019-07-01T18:42:22.935Z</time>
      </trkpt>
      <trkpt lat="40.47091167" lon="-3.506325">
        <ele>622.011</ele>
        <time>2019-07-01T18:42:23.935Z</time>
      </trkpt>
      <trkpt lat="40.47099667" lon="-3.50613">
        <ele>621.011</ele>
        <time>2019-07-01T18:42:24.935Z</time>
      </trkpt>
      <trkpt lat="40.47099667" lon="-3.50613">
        <ele>621.011</ele>
        <time>2019-07-01T18:42:25.935Z</time>
      </trkpt>
      <trkpt lat="40.471085" lon="-3.50591833">
        <ele>621.011</ele>
        <time>2019-07-01T18:42:26.935Z</time>
      </trkpt>
      <trkpt lat="40.471085" lon="-3.50591833">
        <ele>620.011</ele>
        <time>2019-07-01T18:42:27.935Z</time>
      </trkpt>
      <trkpt lat="40.47116167" lon="-3.50569167">
        <ele>620.011</ele>
        <time>2019-07-01T18:42:28.935Z</time>
      </trkpt>
      <trkpt lat="40.47119333" lon="-3.505575">
        <ele>619.011</ele>
        <time>2019-07-01T18:42:29.935Z</time>
      </trkpt>
      <trkpt lat="40.47122333" lon="-3.50545833">
        <ele>619.011</ele>
        <time>2019-07-01T18:42:30.935Z</time>
      </trkpt>
      <trkpt lat="40.47122333" lon="-3.50545833">
        <ele>618.011</ele>
        <time>2019-07-01T18:42:31.935Z</time>
      </trkpt>
      <trkpt lat="40.47129667" lon="-3.50525">
        <ele>618.011</ele>
        <time>2019-07-01T18:42:32.935Z</time>
      </trkpt>
      <trkpt lat="40.47134667" lon="-3.505175">
        <ele>618.011</ele>
        <time>2019-07-01T18:42:33.935Z</time>
      </trkpt>
      <trkpt lat="40.47134667" lon="-3.505175">
        <ele>618.011</ele>
        <time>2019-07-01T18:42:34.935Z</time>
      </trkpt>
      <trkpt lat="40.47144167" lon="-3.505105">
        <ele>617.011</ele>
        <time>2019-07-01T18:42:35.935Z</time>
      </trkpt>
      <trkpt lat="40.47149167" lon="-3.505115">
        <ele>617.011</ele>
        <time>2019-07-01T18:42:36.935Z</time>
      </trkpt>
      <trkpt lat="40.47153333" lon="-3.50514">
        <ele>617.011</ele>
        <time>2019-07-01T18:42:37.935Z</time>
      </trkpt>
      <trkpt lat="40.47153333" lon="-3.50514">
        <ele>617.011</ele>
        <time>2019-07-01T18:42:38.935Z</time>
      </trkpt>
      <trkpt lat="40.47159" lon="-3.50521833">
        <ele>617.011</ele>
        <time>2019-07-01T18:42:39.935Z</time>
      </trkpt>
      <trkpt lat="40.47159" lon="-3.50521833">
        <ele>617.011</ele>
        <time>2019-07-01T18:42:40.935Z</time>
      </trkpt>
      <trkpt lat="40.47163" lon="-3.505315">
        <ele>617.011</ele>
        <time>2019-07-01T18:42:41.935Z</time>
      </trkpt>
      <trkpt lat="40.47165" lon="-3.50536667">
        <ele>617.011</ele>
        <time>2019-07-01T18:42:42.935Z</time>
      </trkpt>
      <trkpt lat="40.47165" lon="-3.50536667">
        <ele>617.011</ele>
        <time>2019-07-01T18:42:43.935Z</time>
      </trkpt>
      <trkpt lat="40.47169333" lon="-3.50547667">
        <ele>617.011</ele>
        <time>2019-07-01T18:42:44.935Z</time>
      </trkpt>
      <trkpt lat="40.47169333" lon="-3.50547667">
        <ele>617.011</ele>
        <time>2019-07-01T18:42:45.935Z</time>
      </trkpt>
      <trkpt lat="40.47173667" lon="-3.505585">
        <ele>617.011</ele>
        <time>2019-07-01T18:42:46.935Z</time>
      </trkpt>
      <trkpt lat="40.47173667" lon="-3.505585">
        <ele>617.011</ele>
        <time>2019-07-01T18:42:47.935Z</time>
      </trkpt>
      <trkpt lat="40.47178167" lon="-3.50569333">
        <ele>617.011</ele>
        <time>2019-07-01T18:42:48.935Z</time>
      </trkpt>
      <trkpt lat="40.47178167" lon="-3.50569333">
        <ele>617.011</ele>
        <time>2019-07-01T18:42:49.935Z</time>
      </trkpt>
      <trkpt lat="40.47182833" lon="-3.5058">
        <ele>617.011</ele>
        <time>2019-07-01T18:42:50.935Z</time>
      </trkpt>
      <trkpt lat="40.47182833" lon="-3.5058">
        <ele>617.011</ele>
        <time>2019-07-01T18:42:51.935Z</time>
      </trkpt>
      <trkpt lat="40.471875" lon="-3.50590333">
        <ele>617.011</ele>
        <time>2019-07-01T18:42:52.935Z</time>
      </trkpt>
      <trkpt lat="40.471875" lon="-3.50590333">
        <ele>618.011</ele>
        <time>2019-07-01T18:42:53.935Z</time>
      </trkpt>
      <trkpt lat="40.47192" lon="-3.50600167">
        <ele>618.011</ele>
        <time>2019-07-01T18:42:54.935Z</time>
      </trkpt>
      <trkpt lat="40.47192" lon="-3.50600167">
        <ele>618.011</ele>
        <time>2019-07-01T18:42:55.935Z</time>
      </trkpt>
      <trkpt lat="40.47195833" lon="-3.50610333">
        <ele>618.011</ele>
        <time>2019-07-01T18:42:56.935Z</time>
      </trkpt>
      <trkpt lat="40.47195833" lon="-3.50610333">
        <ele>618.011</ele>
        <time>2019-07-01T18:42:57.935Z</time>
      </trkpt>
      <trkpt lat="40.472" lon="-3.50619833">
        <ele>618.011</ele>
        <time>2019-07-01T18:42:58.935Z</time>
      </trkpt>
      <trkpt lat="40.472" lon="-3.50619833">
        <ele>618.011</ele>
        <time>2019-07-01T18:42:59.935Z</time>
      </trkpt>
      <trkpt lat="40.47204167" lon="-3.50628833">
        <ele>618.011</ele>
        <time>2019-07-01T18:43:00.935Z</time>
      </trkpt>
      <trkpt lat="40.47204167" lon="-3.50628833">
        <ele>618.011</ele>
        <time>2019-07-01T18:43:01.935Z</time>
      </trkpt>
      <trkpt lat="40.472085" lon="-3.50638333">
        <ele>618.011</ele>
        <time>2019-07-01T18:43:02.935Z</time>
      </trkpt>
      <trkpt lat="40.472085" lon="-3.50638333">
        <ele>618.011</ele>
        <time>2019-07-01T18:43:03.935Z</time>
      </trkpt>
      <trkpt lat="40.47212833" lon="-3.50647667">
        <ele>618.011</ele>
        <time>2019-07-01T18:43:04.935Z</time>
      </trkpt>
      <trkpt lat="40.47212833" lon="-3.50647667">
        <ele>618.011</ele>
        <time>2019-07-01T18:43:05.935Z</time>
      </trkpt>
      <trkpt lat="40.47217167" lon="-3.50656833">
        <ele>618.011</ele>
        <time>2019-07-01T18:43:06.935Z</time>
      </trkpt>
      <trkpt lat="40.47217167" lon="-3.50656833">
        <ele>618.011</ele>
        <time>2019-07-01T18:43:07.935Z</time>
      </trkpt>
      <trkpt lat="40.47220333" lon="-3.50666833">
        <ele>618.011</ele>
        <time>2019-07-01T18:43:08.935Z</time>
      </trkpt>
      <trkpt lat="40.47222" lon="-3.50671833">
        <ele>618.011</ele>
        <time>2019-07-01T18:43:09.935Z</time>
      </trkpt>
      <trkpt lat="40.47222" lon="-3.50671833">
        <ele>618.011</ele>
        <time>2019-07-01T18:43:10.935Z</time>
      </trkpt>
      <trkpt lat="40.47225333" lon="-3.50682333">
        <ele>618.011</ele>
        <time>2019-07-01T18:43:11.935Z</time>
      </trkpt>
      <trkpt lat="40.47225333" lon="-3.50682333">
        <ele>619.011</ele>
        <time>2019-07-01T18:43:12.935Z</time>
      </trkpt>
      <trkpt lat="40.472285" lon="-3.506925">
        <ele>619.011</ele>
        <time>2019-07-01T18:43:13.935Z</time>
      </trkpt>
      <trkpt lat="40.472285" lon="-3.506925">
        <ele>619.011</ele>
        <time>2019-07-01T18:43:14.935Z</time>
      </trkpt>
      <trkpt lat="40.47231833" lon="-3.50701667">
        <ele>619.011</ele>
        <time>2019-07-01T18:43:15.935Z</time>
      </trkpt>
      <trkpt lat="40.47231833" lon="-3.50701667">
        <ele>619.011</ele>
        <time>2019-07-01T18:43:16.935Z</time>
      </trkpt>
      <trkpt lat="40.47235667" lon="-3.50710667">
        <ele>619.011</ele>
        <time>2019-07-01T18:43:17.935Z</time>
      </trkpt>
      <trkpt lat="40.47235667" lon="-3.50710667">
        <ele>620.011</ele>
        <time>2019-07-01T18:43:18.935Z</time>
      </trkpt>
      <trkpt lat="40.47239333" lon="-3.50720167">
        <ele>620.011</ele>
        <time>2019-07-01T18:43:19.935Z</time>
      </trkpt>
      <trkpt lat="40.47239333" lon="-3.50720167">
        <ele>620.011</ele>
        <time>2019-07-01T18:43:20.935Z</time>
      </trkpt>
      <trkpt lat="40.47243" lon="-3.50729">
        <ele>620.011</ele>
        <time>2019-07-01T18:43:21.935Z</time>
      </trkpt>
      <trkpt lat="40.47244667" lon="-3.507335">
        <ele>621.011</ele>
        <time>2019-07-01T18:43:22.935Z</time>
      </trkpt>
      <trkpt lat="40.47244667" lon="-3.507335">
        <ele>621.011</ele>
        <time>2019-07-01T18:43:23.935Z</time>
      </trkpt>
      <trkpt lat="40.47248333" lon="-3.50742333">
        <ele>621.011</ele>
        <time>2019-07-01T18:43:24.935Z</time>
      </trkpt>
      <trkpt lat="40.47250167" lon="-3.50746833">
        <ele>621.011</ele>
        <time>2019-07-01T18:43:25.935Z</time>
      </trkpt>
      <trkpt lat="40.47250167" lon="-3.50746833">
        <ele>621.011</ele>
        <time>2019-07-01T18:43:26.935Z</time>
      </trkpt>
      <trkpt lat="40.47254" lon="-3.50756167">
        <ele>621.011</ele>
        <time>2019-07-01T18:43:27.935Z</time>
      </trkpt>
      <trkpt lat="40.47255833" lon="-3.50760667">
        <ele>621.011</ele>
        <time>2019-07-01T18:43:28.935Z</time>
      </trkpt>
      <trkpt lat="40.47255833" lon="-3.50760667">
        <ele>621.011</ele>
        <time>2019-07-01T18:43:29.935Z</time>
      </trkpt>
      <trkpt lat="40.472595" lon="-3.50769833">
        <ele>621.011</ele>
        <time>2019-07-01T18:43:30.935Z</time>
      </trkpt>
      <trkpt lat="40.472595" lon="-3.50769833">
        <ele>621.011</ele>
        <time>2019-07-01T18:43:31.935Z</time>
      </trkpt>
      <trkpt lat="40.47263167" lon="-3.50778667">
        <ele>622.011</ele>
        <time>2019-07-01T18:43:32.935Z</time>
      </trkpt>
      <trkpt lat="40.47263167" lon="-3.50778667">
        <ele>622.011</ele>
        <time>2019-07-01T18:43:33.935Z</time>
      </trkpt>
      <trkpt lat="40.47267" lon="-3.50787333">
        <ele>622.011</ele>
        <time>2019-07-01T18:43:34.935Z</time>
      </trkpt>
      <trkpt lat="40.47267" lon="-3.50787333">
        <ele>622.011</ele>
        <time>2019-07-01T18:43:35.935Z</time>
      </trkpt>
      <trkpt lat="40.47270833" lon="-3.50796">
        <ele>622.011</ele>
        <time>2019-07-01T18:43:36.935Z</time>
      </trkpt>
      <trkpt lat="40.47270833" lon="-3.50796">
        <ele>622.011</ele>
        <time>2019-07-01T18:43:37.935Z</time>
      </trkpt>
      <trkpt lat="40.47274667" lon="-3.50804833">
        <ele>623.011</ele>
        <time>2019-07-01T18:43:38.935Z</time>
      </trkpt>
      <trkpt lat="40.472765" lon="-3.50809167">
        <ele>623.011</ele>
        <time>2019-07-01T18:43:39.935Z</time>
      </trkpt>
      <trkpt lat="40.472765" lon="-3.50809167">
        <ele>623.011</ele>
        <time>2019-07-01T18:43:40.935Z</time>
      </trkpt>
      <trkpt lat="40.47280167" lon="-3.508185">
        <ele>623.011</ele>
        <time>2019-07-01T18:43:41.935Z</time>
      </trkpt>
      <trkpt lat="40.47280167" lon="-3.508185">
        <ele>623.011</ele>
        <time>2019-07-01T18:43:42.935Z</time>
      </trkpt>
      <trkpt lat="40.47284" lon="-3.50827333">
        <ele>623.011</ele>
        <time>2019-07-01T18:43:43.935Z</time>
      </trkpt>
      <trkpt lat="40.47284" lon="-3.50827333">
        <ele>623.011</ele>
        <time>2019-07-01T18:43:44.935Z</time>
      </trkpt>
      <trkpt lat="40.47287833" lon="-3.50836167">
        <ele>623.011</ele>
        <time>2019-07-01T18:43:45.935Z</time>
      </trkpt>
      <trkpt lat="40.47287833" lon="-3.50836167">
        <ele>623.011</ele>
        <time>2019-07-01T18:43:46.935Z</time>
      </trkpt>
      <trkpt lat="40.472915" lon="-3.50845">
        <ele>623.011</ele>
        <time>2019-07-01T18:43:47.935Z</time>
      </trkpt>
      <trkpt lat="40.472915" lon="-3.50845">
        <ele>623.011</ele>
        <time>2019-07-01T18:43:48.935Z</time>
      </trkpt>
      <trkpt lat="40.47295167" lon="-3.50854">
        <ele>623.011</ele>
        <time>2019-07-01T18:43:49.935Z</time>
      </trkpt>
      <trkpt lat="40.47295167" lon="-3.50854">
        <ele>623.011</ele>
        <time>2019-07-01T18:43:50.935Z</time>
      </trkpt>
      <trkpt lat="40.47299" lon="-3.50862833">
        <ele>624.011</ele>
        <time>2019-07-01T18:43:51.935Z</time>
      </trkpt>
      <trkpt lat="40.47299" lon="-3.50862833">
        <ele>624.011</ele>
        <time>2019-07-01T18:43:52.935Z</time>
      </trkpt>
      <trkpt lat="40.47302667" lon="-3.50871333">
        <ele>624.011</ele>
        <time>2019-07-01T18:43:53.935Z</time>
      </trkpt>
      <trkpt lat="40.47304667" lon="-3.50875833">
        <ele>624.011</ele>
        <time>2019-07-01T18:43:54.935Z</time>
      </trkpt>
      <trkpt lat="40.47304667" lon="-3.50875833">
        <ele>624.011</ele>
        <time>2019-07-01T18:43:55.935Z</time>
      </trkpt>
      <trkpt lat="40.47308" lon="-3.50884667">
        <ele>624.011</ele>
        <time>2019-07-01T18:43:56.935Z</time>
      </trkpt>
      <trkpt lat="40.47309667" lon="-3.50889">
        <ele>625.011</ele>
        <time>2019-07-01T18:43:57.935Z</time>
      </trkpt>
      <trkpt lat="40.47309667" lon="-3.50889">
        <ele>625.011</ele>
        <time>2019-07-01T18:43:58.935Z</time>
      </trkpt>
      <trkpt lat="40.473135" lon="-3.50897833">
        <ele>625.011</ele>
        <time>2019-07-01T18:43:59.935Z</time>
      </trkpt>
      <trkpt lat="40.47315167" lon="-3.50902167">
        <ele>625.011</ele>
        <time>2019-07-01T18:44:00.935Z</time>
      </trkpt>
      <trkpt lat="40.47315167" lon="-3.50902167">
        <ele>625.011</ele>
        <time>2019-07-01T18:44:01.935Z</time>
      </trkpt>
      <trkpt lat="40.47319" lon="-3.50911167">
        <ele>625.011</ele>
        <time>2019-07-01T18:44:02.935Z</time>
      </trkpt>
      <trkpt lat="40.47319" lon="-3.50911167">
        <ele>625.011</ele>
        <time>2019-07-01T18:44:03.935Z</time>
      </trkpt>
      <trkpt lat="40.47322667" lon="-3.509205">
        <ele>625.011</ele>
        <time>2019-07-01T18:44:04.935Z</time>
      </trkpt>
      <trkpt lat="40.47322667" lon="-3.509205">
        <ele>625.011</ele>
        <time>2019-07-01T18:44:05.935Z</time>
      </trkpt>
      <trkpt lat="40.47326333" lon="-3.509295">
        <ele>626.011</ele>
        <time>2019-07-01T18:44:06.935Z</time>
      </trkpt>
      <trkpt lat="40.47326333" lon="-3.509295">
        <ele>626.011</ele>
        <time>2019-07-01T18:44:07.935Z</time>
      </trkpt>
      <trkpt lat="40.47329833" lon="-3.50939">
        <ele>626.011</ele>
        <time>2019-07-01T18:44:08.935Z</time>
      </trkpt>
      <trkpt lat="40.47329833" lon="-3.50939">
        <ele>626.011</ele>
        <time>2019-07-01T18:44:09.935Z</time>
      </trkpt>
      <trkpt lat="40.47333667" lon="-3.50948">
        <ele>626.011</ele>
        <time>2019-07-01T18:44:10.935Z</time>
      </trkpt>
      <trkpt lat="40.47333667" lon="-3.50948">
        <ele>626.011</ele>
        <time>2019-07-01T18:44:11.935Z</time>
      </trkpt>
      <trkpt lat="40.47337833" lon="-3.50956833">
        <ele>626.011</ele>
        <time>2019-07-01T18:44:12.935Z</time>
      </trkpt>
      <trkpt lat="40.47337833" lon="-3.50956833">
        <ele>626.011</ele>
        <time>2019-07-01T18:44:13.935Z</time>
      </trkpt>
      <trkpt lat="40.47341833" lon="-3.50965833">
        <ele>627.011</ele>
        <time>2019-07-01T18:44:14.935Z</time>
      </trkpt>
      <trkpt lat="40.47341833" lon="-3.50965833">
        <ele>627.011</ele>
        <time>2019-07-01T18:44:15.935Z</time>
      </trkpt>
      <trkpt lat="40.47345667" lon="-3.50974667">
        <ele>627.011</ele>
        <time>2019-07-01T18:44:16.935Z</time>
      </trkpt>
      <trkpt lat="40.473475" lon="-3.50979167">
        <ele>627.011</ele>
        <time>2019-07-01T18:44:17.935Z</time>
      </trkpt>
      <trkpt lat="40.473475" lon="-3.50979167">
        <ele>627.011</ele>
        <time>2019-07-01T18:44:18.935Z</time>
      </trkpt>
      <trkpt lat="40.47351667" lon="-3.50987833">
        <ele>627.011</ele>
        <time>2019-07-01T18:44:19.935Z</time>
      </trkpt>
      <trkpt lat="40.47351667" lon="-3.50987833">
        <ele>627.011</ele>
        <time>2019-07-01T18:44:20.935Z</time>
      </trkpt>
      <trkpt lat="40.473555" lon="-3.50997333">
        <ele>627.011</ele>
        <time>2019-07-01T18:44:21.935Z</time>
      </trkpt>
      <trkpt lat="40.473555" lon="-3.50997333">
        <ele>627.011</ele>
        <time>2019-07-01T18:44:22.935Z</time>
      </trkpt>
      <trkpt lat="40.47359667" lon="-3.51006167">
        <ele>627.011</ele>
        <time>2019-07-01T18:44:23.935Z</time>
      </trkpt>
      <trkpt lat="40.473615" lon="-3.510105">
        <ele>627.011</ele>
        <time>2019-07-01T18:44:24.935Z</time>
      </trkpt>
      <trkpt lat="40.473615" lon="-3.510105">
        <ele>627.011</ele>
        <time>2019-07-01T18:44:25.935Z</time>
      </trkpt>
      <trkpt lat="40.47365333" lon="-3.510195">
        <ele>627.011</ele>
        <time>2019-07-01T18:44:26.935Z</time>
      </trkpt>
      <trkpt lat="40.47367167" lon="-3.51024">
        <ele>628.011</ele>
        <time>2019-07-01T18:44:27.935Z</time>
      </trkpt>
      <trkpt lat="40.47369167" lon="-3.51029">
        <ele>628.011</ele>
        <time>2019-07-01T18:44:28.935Z</time>
      </trkpt>
      <trkpt lat="40.47369167" lon="-3.51029">
        <ele>628.011</ele>
        <time>2019-07-01T18:44:29.935Z</time>
      </trkpt>
      <trkpt lat="40.473725" lon="-3.51038333">
        <ele>628.011</ele>
        <time>2019-07-01T18:44:30.935Z</time>
      </trkpt>
      <trkpt lat="40.473725" lon="-3.51038333">
        <ele>628.011</ele>
        <time>2019-07-01T18:44:31.935Z</time>
      </trkpt>
      <trkpt lat="40.47376167" lon="-3.51047333">
        <ele>628.011</ele>
        <time>2019-07-01T18:44:32.935Z</time>
      </trkpt>
      <trkpt lat="40.47376167" lon="-3.51047333">
        <ele>628.011</ele>
        <time>2019-07-01T18:44:33.935Z</time>
      </trkpt>
      <trkpt lat="40.47379833" lon="-3.51056167">
        <ele>628.011</ele>
        <time>2019-07-01T18:44:34.935Z</time>
      </trkpt>
      <trkpt lat="40.47381667" lon="-3.51060167">
        <ele>628.011</ele>
        <time>2019-07-01T18:44:35.935Z</time>
      </trkpt>
      <trkpt lat="40.47381667" lon="-3.51060167">
        <ele>628.011</ele>
        <time>2019-07-01T18:44:36.935Z</time>
      </trkpt>
      <trkpt lat="40.47385333" lon="-3.51068667">
        <ele>628.011</ele>
        <time>2019-07-01T18:44:37.935Z</time>
      </trkpt>
      <trkpt lat="40.47387333" lon="-3.51073">
        <ele>628.011</ele>
        <time>2019-07-01T18:44:38.935Z</time>
      </trkpt>
      <trkpt lat="40.47387333" lon="-3.51073">
        <ele>628.011</ele>
        <time>2019-07-01T18:44:39.935Z</time>
      </trkpt>
      <trkpt lat="40.47390833" lon="-3.51081167">
        <ele>628.011</ele>
        <time>2019-07-01T18:44:40.935Z</time>
      </trkpt>
      <trkpt lat="40.47390833" lon="-3.51081167">
        <ele>628.011</ele>
        <time>2019-07-01T18:44:41.935Z</time>
      </trkpt>
      <trkpt lat="40.473945" lon="-3.51089667">
        <ele>628.011</ele>
        <time>2019-07-01T18:44:42.935Z</time>
      </trkpt>
      <trkpt lat="40.473945" lon="-3.51089667">
        <ele>628.011</ele>
        <time>2019-07-01T18:44:43.935Z</time>
      </trkpt>
      <trkpt lat="40.473985" lon="-3.51096833">
        <ele>628.011</ele>
        <time>2019-07-01T18:44:44.935Z</time>
      </trkpt>
      <trkpt lat="40.47401333" lon="-3.51098667">
        <ele>628.011</ele>
        <time>2019-07-01T18:44:45.935Z</time>
      </trkpt>
      <trkpt lat="40.47401333" lon="-3.51098667">
        <ele>628.011</ele>
        <time>2019-07-01T18:44:46.935Z</time>
      </trkpt>
      <trkpt lat="40.47408" lon="-3.51097333">
        <ele>629.011</ele>
        <time>2019-07-01T18:44:47.935Z</time>
      </trkpt>
      <trkpt lat="40.47411167" lon="-3.51095667">
        <ele>629.011</ele>
        <time>2019-07-01T18:44:48.935Z</time>
      </trkpt>
      <trkpt lat="40.47411167" lon="-3.51095667">
        <ele>629.011</ele>
        <time>2019-07-01T18:44:49.935Z</time>
      </trkpt>
      <trkpt lat="40.47417333" lon="-3.51091333">
        <ele>629.011</ele>
        <time>2019-07-01T18:44:50.935Z</time>
      </trkpt>
      <trkpt lat="40.47420667" lon="-3.51089667">
        <ele>629.011</ele>
        <time>2019-07-01T18:44:51.935Z</time>
      </trkpt>
      <trkpt lat="40.47420667" lon="-3.51089667">
        <ele>629.011</ele>
        <time>2019-07-01T18:44:52.935Z</time>
      </trkpt>
      <trkpt lat="40.47427" lon="-3.510865">
        <ele>630.011</ele>
        <time>2019-07-01T18:44:53.935Z</time>
      </trkpt>
      <trkpt lat="40.47427" lon="-3.510865">
        <ele>630.011</ele>
        <time>2019-07-01T18:44:54.935Z</time>
      </trkpt>
      <trkpt lat="40.47433167" lon="-3.51084">
        <ele>630.011</ele>
        <time>2019-07-01T18:44:55.935Z</time>
      </trkpt>
      <trkpt lat="40.47433167" lon="-3.51084">
        <ele>630.011</ele>
        <time>2019-07-01T18:44:56.935Z</time>
      </trkpt>
      <trkpt lat="40.47439333" lon="-3.510825">
        <ele>631.011</ele>
        <time>2019-07-01T18:44:57.935Z</time>
      </trkpt>
      <trkpt lat="40.474425" lon="-3.51081667">
        <ele>631.011</ele>
        <time>2019-07-01T18:44:58.935Z</time>
      </trkpt>
      <trkpt lat="40.474455" lon="-3.51081">
        <ele>631.011</ele>
        <time>2019-07-01T18:44:59.935Z</time>
      </trkpt>
      <trkpt lat="40.474455" lon="-3.51081">
        <ele>631.011</ele>
        <time>2019-07-01T18:45:00.935Z</time>
      </trkpt>
      <trkpt lat="40.474515" lon="-3.5108">
        <ele>632.011</ele>
        <time>2019-07-01T18:45:01.935Z</time>
      </trkpt>
      <trkpt lat="40.474515" lon="-3.5108">
        <ele>632.011</ele>
        <time>2019-07-01T18:45:02.935Z</time>
      </trkpt>
      <trkpt lat="40.47457667" lon="-3.5108">
        <ele>632.011</ele>
        <time>2019-07-01T18:45:03.935Z</time>
      </trkpt>
      <trkpt lat="40.47457667" lon="-3.5108">
        <ele>632.011</ele>
        <time>2019-07-01T18:45:04.935Z</time>
      </trkpt>
      <trkpt lat="40.47464" lon="-3.51080167">
        <ele>632.011</ele>
        <time>2019-07-01T18:45:05.935Z</time>
      </trkpt>
      <trkpt lat="40.47467333" lon="-3.5108">
        <ele>632.011</ele>
        <time>2019-07-01T18:45:06.935Z</time>
      </trkpt>
      <trkpt lat="40.47467333" lon="-3.5108">
        <ele>632.011</ele>
        <time>2019-07-01T18:45:07.935Z</time>
      </trkpt>
      <trkpt lat="40.47474167" lon="-3.51080333">
        <ele>633.011</ele>
        <time>2019-07-01T18:45:08.935Z</time>
      </trkpt>
      <trkpt lat="40.474775" lon="-3.51081167">
        <ele>633.011</ele>
        <time>2019-07-01T18:45:09.935Z</time>
      </trkpt>
      <trkpt lat="40.474775" lon="-3.51081167">
        <ele>633.011</ele>
        <time>2019-07-01T18:45:10.935Z</time>
      </trkpt>
      <trkpt lat="40.474845" lon="-3.51082833">
        <ele>633.011</ele>
        <time>2019-07-01T18:45:11.935Z</time>
      </trkpt>
      <trkpt lat="40.47488" lon="-3.51083833">
        <ele>633.011</ele>
        <time>2019-07-01T18:45:12.935Z</time>
      </trkpt>
      <trkpt lat="40.47488" lon="-3.51083833">
        <ele>633.011</ele>
        <time>2019-07-01T18:45:13.935Z</time>
      </trkpt>
      <trkpt lat="40.47494833" lon="-3.51087167">
        <ele>633.011</ele>
        <time>2019-07-01T18:45:14.935Z</time>
      </trkpt>
      <trkpt lat="40.47494833" lon="-3.51087167">
        <ele>633.011</ele>
        <time>2019-07-01T18:45:15.935Z</time>
      </trkpt>
      <trkpt lat="40.47501667" lon="-3.51090333">
        <ele>633.011</ele>
        <time>2019-07-01T18:45:16.935Z</time>
      </trkpt>
      <trkpt lat="40.47501667" lon="-3.51090333">
        <ele>633.011</ele>
        <time>2019-07-01T18:45:17.935Z</time>
      </trkpt>
      <trkpt lat="40.47507833" lon="-3.51093667">
        <ele>633.011</ele>
        <time>2019-07-01T18:45:18.935Z</time>
      </trkpt>
      <trkpt lat="40.47507833" lon="-3.51093667">
        <ele>633.011</ele>
        <time>2019-07-01T18:45:19.935Z</time>
      </trkpt>
      <trkpt lat="40.47514" lon="-3.51097833">
        <ele>633.011</ele>
        <time>2019-07-01T18:45:20.935Z</time>
      </trkpt>
      <trkpt lat="40.47514" lon="-3.51097833">
        <ele>633.011</ele>
        <time>2019-07-01T18:45:21.935Z</time>
      </trkpt>
      <trkpt lat="40.47520333" lon="-3.51102333">
        <ele>633.011</ele>
        <time>2019-07-01T18:45:22.935Z</time>
      </trkpt>
      <trkpt lat="40.47520333" lon="-3.51102333">
        <ele>633.011</ele>
        <time>2019-07-01T18:45:23.935Z</time>
      </trkpt>
      <trkpt lat="40.47526" lon="-3.51107667">
        <ele>633.011</ele>
        <time>2019-07-01T18:45:24.935Z</time>
      </trkpt>
      <trkpt lat="40.47526" lon="-3.51107667">
        <ele>633.011</ele>
        <time>2019-07-01T18:45:25.935Z</time>
      </trkpt>
      <trkpt lat="40.47531667" lon="-3.51113333">
        <ele>633.011</ele>
        <time>2019-07-01T18:45:26.935Z</time>
      </trkpt>
      <trkpt lat="40.47534667" lon="-3.51115833">
        <ele>633.011</ele>
        <time>2019-07-01T18:45:27.935Z</time>
      </trkpt>
      <trkpt lat="40.47534667" lon="-3.51115833">
        <ele>633.011</ele>
        <time>2019-07-01T18:45:28.935Z</time>
      </trkpt>
      <trkpt lat="40.475405" lon="-3.51121167">
        <ele>633.011</ele>
        <time>2019-07-01T18:45:29.935Z</time>
      </trkpt>
      <trkpt lat="40.47543333" lon="-3.51124">
        <ele>633.011</ele>
        <time>2019-07-01T18:45:30.935Z</time>
      </trkpt>
      <trkpt lat="40.47543333" lon="-3.51124">
        <ele>633.011</ele>
        <time>2019-07-01T18:45:31.935Z</time>
      </trkpt>
      <trkpt lat="40.47549167" lon="-3.51128667">
        <ele>634.011</ele>
        <time>2019-07-01T18:45:32.935Z</time>
      </trkpt>
      <trkpt lat="40.47552" lon="-3.51131167">
        <ele>634.011</ele>
        <time>2019-07-01T18:45:33.935Z</time>
      </trkpt>
      <trkpt lat="40.47555" lon="-3.511335">
        <ele>634.011</ele>
        <time>2019-07-01T18:45:34.935Z</time>
      </trkpt>
      <trkpt lat="40.47555" lon="-3.511335">
        <ele>634.011</ele>
        <time>2019-07-01T18:45:35.935Z</time>
      </trkpt>
      <trkpt lat="40.47561167" lon="-3.51137333">
        <ele>634.011</ele>
        <time>2019-07-01T18:45:36.935Z</time>
      </trkpt>
      <trkpt lat="40.47561167" lon="-3.51137333">
        <ele>634.011</ele>
        <time>2019-07-01T18:45:37.935Z</time>
      </trkpt>
      <trkpt lat="40.47567833" lon="-3.51141">
        <ele>634.011</ele>
        <time>2019-07-01T18:45:38.935Z</time>
      </trkpt>
      <trkpt lat="40.47567833" lon="-3.51141">
        <ele>634.011</ele>
        <time>2019-07-01T18:45:39.935Z</time>
      </trkpt>
      <trkpt lat="40.47574333" lon="-3.511445">
        <ele>634.011</ele>
        <time>2019-07-01T18:45:40.935Z</time>
      </trkpt>
      <trkpt lat="40.47574333" lon="-3.511445">
        <ele>634.011</ele>
        <time>2019-07-01T18:45:41.935Z</time>
      </trkpt>
      <trkpt lat="40.47580667" lon="-3.51147167">
        <ele>635.011</ele>
        <time>2019-07-01T18:45:42.935Z</time>
      </trkpt>
      <trkpt lat="40.47580667" lon="-3.51147167">
        <ele>635.011</ele>
        <time>2019-07-01T18:45:43.935Z</time>
      </trkpt>
      <trkpt lat="40.47587333" lon="-3.51149167">
        <ele>635.011</ele>
        <time>2019-07-01T18:45:44.935Z</time>
      </trkpt>
      <trkpt lat="40.475905" lon="-3.5115">
        <ele>635.011</ele>
        <time>2019-07-01T18:45:45.935Z</time>
      </trkpt>
      <trkpt lat="40.47593667" lon="-3.51150833">
        <ele>635.011</ele>
        <time>2019-07-01T18:45:46.935Z</time>
      </trkpt>
      <trkpt lat="40.47593667" lon="-3.51150833">
        <ele>635.011</ele>
        <time>2019-07-01T18:45:47.935Z</time>
      </trkpt>
      <trkpt lat="40.47600167" lon="-3.51151333">
        <ele>635.011</ele>
        <time>2019-07-01T18:45:48.935Z</time>
      </trkpt>
      <trkpt lat="40.47600167" lon="-3.51151333">
        <ele>635.011</ele>
        <time>2019-07-01T18:45:49.935Z</time>
      </trkpt>
      <trkpt lat="40.47606667" lon="-3.511515">
        <ele>636.011</ele>
        <time>2019-07-01T18:45:50.935Z</time>
      </trkpt>
      <trkpt lat="40.47606667" lon="-3.511515">
        <ele>636.011</ele>
        <time>2019-07-01T18:45:51.935Z</time>
      </trkpt>
      <trkpt lat="40.47612833" lon="-3.51151167">
        <ele>636.011</ele>
        <time>2019-07-01T18:45:52.935Z</time>
      </trkpt>
      <trkpt lat="40.47612833" lon="-3.51151167">
        <ele>636.011</ele>
        <time>2019-07-01T18:45:53.935Z</time>
      </trkpt>
      <trkpt lat="40.47619" lon="-3.51150333">
        <ele>637.011</ele>
        <time>2019-07-01T18:45:54.935Z</time>
      </trkpt>
      <trkpt lat="40.47619" lon="-3.51150333">
        <ele>637.011</ele>
        <time>2019-07-01T18:45:55.935Z</time>
      </trkpt>
      <trkpt lat="40.47625167" lon="-3.511485">
        <ele>637.011</ele>
        <time>2019-07-01T18:45:56.935Z</time>
      </trkpt>
      <trkpt lat="40.47625167" lon="-3.511485">
        <ele>637.011</ele>
        <time>2019-07-01T18:45:57.935Z</time>
      </trkpt>
      <trkpt lat="40.47631" lon="-3.51146167">
        <ele>637.011</ele>
        <time>2019-07-01T18:45:58.935Z</time>
      </trkpt>
      <trkpt lat="40.47631" lon="-3.51146167">
        <ele>637.011</ele>
        <time>2019-07-01T18:45:59.935Z</time>
      </trkpt>
      <trkpt lat="40.476365" lon="-3.51143167">
        <ele>637.011</ele>
        <time>2019-07-01T18:46:00.935Z</time>
      </trkpt>
      <trkpt lat="40.476365" lon="-3.51143167">
        <ele>637.011</ele>
        <time>2019-07-01T18:46:01.935Z</time>
      </trkpt>
      <trkpt lat="40.47641833" lon="-3.51139833">
        <ele>637.011</ele>
        <time>2019-07-01T18:46:02.935Z</time>
      </trkpt>
      <trkpt lat="40.476445" lon="-3.51138">
        <ele>637.011</ele>
        <time>2019-07-01T18:46:03.935Z</time>
      </trkpt>
      <trkpt lat="40.476445" lon="-3.51138">
        <ele>637.011</ele>
        <time>2019-07-01T18:46:04.935Z</time>
      </trkpt>
      <trkpt lat="40.47649667" lon="-3.51133667">
        <ele>637.011</ele>
        <time>2019-07-01T18:46:05.935Z</time>
      </trkpt>
      <trkpt lat="40.47652" lon="-3.51131667">
        <ele>638.011</ele>
        <time>2019-07-01T18:46:06.935Z</time>
      </trkpt>
      <trkpt lat="40.47652" lon="-3.51131667">
        <ele>638.011</ele>
        <time>2019-07-01T18:46:07.935Z</time>
      </trkpt>
      <trkpt lat="40.47657" lon="-3.51127333">
        <ele>638.011</ele>
        <time>2019-07-01T18:46:08.935Z</time>
      </trkpt>
      <trkpt lat="40.47657" lon="-3.51127333">
        <ele>638.011</ele>
        <time>2019-07-01T18:46:09.935Z</time>
      </trkpt>
      <trkpt lat="40.47662333" lon="-3.51122667">
        <ele>638.011</ele>
        <time>2019-07-01T18:46:10.935Z</time>
      </trkpt>
      <trkpt lat="40.47662333" lon="-3.51122667">
        <ele>638.011</ele>
        <time>2019-07-01T18:46:11.935Z</time>
      </trkpt>
      <trkpt lat="40.476675" lon="-3.51118167">
        <ele>639.011</ele>
        <time>2019-07-01T18:46:12.935Z</time>
      </trkpt>
      <trkpt lat="40.47670333" lon="-3.51115833">
        <ele>639.011</ele>
        <time>2019-07-01T18:46:13.935Z</time>
      </trkpt>
      <trkpt lat="40.47670333" lon="-3.51115833">
        <ele>639.011</ele>
        <time>2019-07-01T18:46:14.935Z</time>
      </trkpt>
      <trkpt lat="40.47675833" lon="-3.51111333">
        <ele>639.011</ele>
        <time>2019-07-01T18:46:15.935Z</time>
      </trkpt>
      <trkpt lat="40.47675833" lon="-3.51111333">
        <ele>639.011</ele>
        <time>2019-07-01T18:46:16.935Z</time>
      </trkpt>
      <trkpt lat="40.47681833" lon="-3.51107">
        <ele>639.011</ele>
        <time>2019-07-01T18:46:17.935Z</time>
      </trkpt>
      <trkpt lat="40.476845" lon="-3.51104833">
        <ele>639.011</ele>
        <time>2019-07-01T18:46:18.935Z</time>
      </trkpt>
      <trkpt lat="40.476845" lon="-3.51104833">
        <ele>639.011</ele>
        <time>2019-07-01T18:46:19.935Z</time>
      </trkpt>
      <trkpt lat="40.47690167" lon="-3.51100333">
        <ele>640.011</ele>
        <time>2019-07-01T18:46:20.935Z</time>
      </trkpt>
      <trkpt lat="40.47693" lon="-3.51098167">
        <ele>640.011</ele>
        <time>2019-07-01T18:46:21.935Z</time>
      </trkpt>
      <trkpt lat="40.47693" lon="-3.51098167">
        <ele>640.011</ele>
        <time>2019-07-01T18:46:22.935Z</time>
      </trkpt>
      <trkpt lat="40.47698167" lon="-3.510935">
        <ele>640.011</ele>
        <time>2019-07-01T18:46:23.935Z</time>
      </trkpt>
      <trkpt lat="40.47700833" lon="-3.51091">
        <ele>640.011</ele>
        <time>2019-07-01T18:46:24.935Z</time>
      </trkpt>
      <trkpt lat="40.47700833" lon="-3.51091">
        <ele>641.011</ele>
        <time>2019-07-01T18:46:25.935Z</time>
      </trkpt>
      <trkpt lat="40.47706" lon="-3.51086167">
        <ele>641.011</ele>
        <time>2019-07-01T18:46:26.935Z</time>
      </trkpt>
      <trkpt lat="40.47708667" lon="-3.51083667">
        <ele>641.011</ele>
        <time>2019-07-01T18:46:27.935Z</time>
      </trkpt>
      <trkpt lat="40.47708667" lon="-3.51083667">
        <ele>641.011</ele>
        <time>2019-07-01T18:46:28.935Z</time>
      </trkpt>
      <trkpt lat="40.47714" lon="-3.51079167">
        <ele>641.011</ele>
        <time>2019-07-01T18:46:29.935Z</time>
      </trkpt>
      <trkpt lat="40.477165" lon="-3.51077">
        <ele>641.011</ele>
        <time>2019-07-01T18:46:30.935Z</time>
      </trkpt>
      <trkpt lat="40.477165" lon="-3.51077">
        <ele>641.011</ele>
        <time>2019-07-01T18:46:31.935Z</time>
      </trkpt>
      <trkpt lat="40.47721167" lon="-3.510725">
        <ele>641.011</ele>
        <time>2019-07-01T18:46:32.935Z</time>
      </trkpt>
      <trkpt lat="40.47721167" lon="-3.510725">
        <ele>642.011</ele>
        <time>2019-07-01T18:46:33.935Z</time>
      </trkpt>
      <trkpt lat="40.47726667" lon="-3.51068333">
        <ele>642.011</ele>
        <time>2019-07-01T18:46:34.935Z</time>
      </trkpt>
      <trkpt lat="40.47726667" lon="-3.51068333">
        <ele>642.011</ele>
        <time>2019-07-01T18:46:35.935Z</time>
      </trkpt>
      <trkpt lat="40.47732667" lon="-3.51063667">
        <ele>642.011</ele>
        <time>2019-07-01T18:46:36.935Z</time>
      </trkpt>
      <trkpt lat="40.47732667" lon="-3.51063667">
        <ele>642.011</ele>
        <time>2019-07-01T18:46:37.935Z</time>
      </trkpt>
      <trkpt lat="40.47737667" lon="-3.51059833">
        <ele>642.011</ele>
        <time>2019-07-01T18:46:38.935Z</time>
      </trkpt>
      <trkpt lat="40.47740167" lon="-3.510585">
        <ele>643.011</ele>
        <time>2019-07-01T18:46:39.935Z</time>
      </trkpt>
      <trkpt lat="40.47740167" lon="-3.510585">
        <ele>643.011</ele>
        <time>2019-07-01T18:46:40.935Z</time>
      </trkpt>
      <trkpt lat="40.47745333" lon="-3.51055333">
        <ele>643.011</ele>
        <time>2019-07-01T18:46:41.935Z</time>
      </trkpt>
      <trkpt lat="40.47747833" lon="-3.51053833">
        <ele>643.011</ele>
        <time>2019-07-01T18:46:42.935Z</time>
      </trkpt>
      <trkpt lat="40.47747833" lon="-3.51053833">
        <ele>644.011</ele>
        <time>2019-07-01T18:46:43.935Z</time>
      </trkpt>
      <trkpt lat="40.47753" lon="-3.51051">
        <ele>644.011</ele>
        <time>2019-07-01T18:46:44.935Z</time>
      </trkpt>
      <trkpt lat="40.47753" lon="-3.51051">
        <ele>644.011</ele>
        <time>2019-07-01T18:46:45.935Z</time>
      </trkpt>
      <trkpt lat="40.477585" lon="-3.51049167">
        <ele>644.011</ele>
        <time>2019-07-01T18:46:46.935Z</time>
      </trkpt>
      <trkpt lat="40.477585" lon="-3.51049167">
        <ele>644.011</ele>
        <time>2019-07-01T18:46:47.935Z</time>
      </trkpt>
      <trkpt lat="40.47764" lon="-3.51048333">
        <ele>644.011</ele>
        <time>2019-07-01T18:46:48.935Z</time>
      </trkpt>
      <trkpt lat="40.47764" lon="-3.51048333">
        <ele>645.011</ele>
        <time>2019-07-01T18:46:49.935Z</time>
      </trkpt>
      <trkpt lat="40.477695" lon="-3.51047667">
        <ele>645.011</ele>
        <time>2019-07-01T18:46:50.935Z</time>
      </trkpt>
      <trkpt lat="40.477695" lon="-3.51047667">
        <ele>645.011</ele>
        <time>2019-07-01T18:46:51.935Z</time>
      </trkpt>
      <trkpt lat="40.47775167" lon="-3.51048">
        <ele>645.011</ele>
        <time>2019-07-01T18:46:52.935Z</time>
      </trkpt>
      <trkpt lat="40.47775167" lon="-3.51048">
        <ele>646.011</ele>
        <time>2019-07-01T18:46:53.935Z</time>
      </trkpt>
      <trkpt lat="40.47780333" lon="-3.51048167">
        <ele>646.011</ele>
        <time>2019-07-01T18:46:54.935Z</time>
      </trkpt>
      <trkpt lat="40.47780333" lon="-3.51048167">
        <ele>646.011</ele>
        <time>2019-07-01T18:46:55.935Z</time>
      </trkpt>
      <trkpt lat="40.47785667" lon="-3.51048667">
        <ele>646.011</ele>
        <time>2019-07-01T18:46:56.935Z</time>
      </trkpt>
      <trkpt lat="40.47788333" lon="-3.51049167">
        <ele>647.011</ele>
        <time>2019-07-01T18:46:57.935Z</time>
      </trkpt>
      <trkpt lat="40.47788333" lon="-3.51049167">
        <ele>647.011</ele>
        <time>2019-07-01T18:46:58.935Z</time>
      </trkpt>
      <trkpt lat="40.47794167" lon="-3.51050333">
        <ele>647.011</ele>
        <time>2019-07-01T18:46:59.935Z</time>
      </trkpt>
      <trkpt lat="40.47796833" lon="-3.51051167">
        <ele>647.011</ele>
        <time>2019-07-01T18:47:00.935Z</time>
      </trkpt>
      <trkpt lat="40.47796833" lon="-3.51051167">
        <ele>648.011</ele>
        <time>2019-07-01T18:47:01.935Z</time>
      </trkpt>
      <trkpt lat="40.47801833" lon="-3.51053333">
        <ele>648.011</ele>
        <time>2019-07-01T18:47:02.935Z</time>
      </trkpt>
      <trkpt lat="40.478045" lon="-3.51054333">
        <ele>648.011</ele>
        <time>2019-07-01T18:47:03.935Z</time>
      </trkpt>
      <trkpt lat="40.478045" lon="-3.51054333">
        <ele>648.011</ele>
        <time>2019-07-01T18:47:04.935Z</time>
      </trkpt>
      <trkpt lat="40.47809333" lon="-3.51057">
        <ele>649.011</ele>
        <time>2019-07-01T18:47:05.935Z</time>
      </trkpt>
      <trkpt lat="40.47812" lon="-3.51058333">
        <ele>649.011</ele>
        <time>2019-07-01T18:47:06.935Z</time>
      </trkpt>
      <trkpt lat="40.47812" lon="-3.51058333">
        <ele>649.011</ele>
        <time>2019-07-01T18:47:07.935Z</time>
      </trkpt>
      <trkpt lat="40.47816833" lon="-3.51061833">
        <ele>649.011</ele>
        <time>2019-07-01T18:47:08.935Z</time>
      </trkpt>
      <trkpt lat="40.47816833" lon="-3.51061833">
        <ele>650.011</ele>
        <time>2019-07-01T18:47:09.935Z</time>
      </trkpt>
      <trkpt lat="40.478215" lon="-3.51065">
        <ele>650.011</ele>
        <time>2019-07-01T18:47:10.935Z</time>
      </trkpt>
      <trkpt lat="40.47823833" lon="-3.51066667">
        <ele>650.011</ele>
        <time>2019-07-01T18:47:11.935Z</time>
      </trkpt>
      <trkpt lat="40.47826" lon="-3.510685">
        <ele>650.011</ele>
        <time>2019-07-01T18:47:12.935Z</time>
      </trkpt>
      <trkpt lat="40.47826" lon="-3.510685">
        <ele>651.011</ele>
        <time>2019-07-01T18:47:13.935Z</time>
      </trkpt>
      <trkpt lat="40.47829833" lon="-3.510725">
        <ele>651.011</ele>
        <time>2019-07-01T18:47:14.935Z</time>
      </trkpt>
      <trkpt lat="40.47829833" lon="-3.510725">
        <ele>651.011</ele>
        <time>2019-07-01T18:47:15.935Z</time>
      </trkpt>
      <trkpt lat="40.47833833" lon="-3.510765">
        <ele>651.011</ele>
        <time>2019-07-01T18:47:16.935Z</time>
      </trkpt>
      <trkpt lat="40.47833833" lon="-3.510765">
        <ele>652.011</ele>
        <time>2019-07-01T18:47:17.935Z</time>
      </trkpt>
      <trkpt lat="40.47837333" lon="-3.51081333">
        <ele>652.011</ele>
        <time>2019-07-01T18:47:18.935Z</time>
      </trkpt>
      <trkpt lat="40.47837333" lon="-3.51081333">
        <ele>652.011</ele>
        <time>2019-07-01T18:47:19.935Z</time>
      </trkpt>
      <trkpt lat="40.47840667" lon="-3.51086333">
        <ele>652.011</ele>
        <time>2019-07-01T18:47:20.935Z</time>
      </trkpt>
      <trkpt lat="40.47840667" lon="-3.51086333">
        <ele>652.011</ele>
        <time>2019-07-01T18:47:21.935Z</time>
      </trkpt>
      <trkpt lat="40.47844167" lon="-3.51092">
        <ele>653.011</ele>
        <time>2019-07-01T18:47:22.935Z</time>
      </trkpt>
      <trkpt lat="40.47844167" lon="-3.51092">
        <ele>653.011</ele>
        <time>2019-07-01T18:47:23.935Z</time>
      </trkpt>
      <trkpt lat="40.47847167" lon="-3.51097333">
        <ele>653.011</ele>
        <time>2019-07-01T18:47:24.935Z</time>
      </trkpt>
      <trkpt lat="40.47847167" lon="-3.51097333">
        <ele>653.011</ele>
        <time>2019-07-01T18:47:25.935Z</time>
      </trkpt>
      <trkpt lat="40.47849667" lon="-3.51102833">
        <ele>654.011</ele>
        <time>2019-07-01T18:47:26.935Z</time>
      </trkpt>
      <trkpt lat="40.47850667" lon="-3.51105833">
        <ele>654.011</ele>
        <time>2019-07-01T18:47:27.935Z</time>
      </trkpt>
      <trkpt lat="40.47850667" lon="-3.51105833">
        <ele>654.011</ele>
        <time>2019-07-01T18:47:28.935Z</time>
      </trkpt>
      <trkpt lat="40.478535" lon="-3.511115">
        <ele>654.011</ele>
        <time>2019-07-01T18:47:29.935Z</time>
      </trkpt>
      <trkpt lat="40.47855" lon="-3.511145">
        <ele>655.011</ele>
        <time>2019-07-01T18:47:30.935Z</time>
      </trkpt>
      <trkpt lat="40.47855" lon="-3.511145">
        <ele>655.011</ele>
        <time>2019-07-01T18:47:31.935Z</time>
      </trkpt>
      <trkpt lat="40.47857333" lon="-3.51120167">
        <ele>655.011</ele>
        <time>2019-07-01T18:47:32.935Z</time>
      </trkpt>
      <trkpt lat="40.47858333" lon="-3.51123">
        <ele>655.011</ele>
        <time>2019-07-01T18:47:33.935Z</time>
      </trkpt>
      <trkpt lat="40.47858333" lon="-3.51123">
        <ele>655.011</ele>
        <time>2019-07-01T18:47:34.935Z</time>
      </trkpt>
      <trkpt lat="40.47859833" lon="-3.51129167">
        <ele>656.011</ele>
        <time>2019-07-01T18:47:35.935Z</time>
      </trkpt>
      <trkpt lat="40.47859833" lon="-3.51129167">
        <ele>656.011</ele>
        <time>2019-07-01T18:47:36.935Z</time>
      </trkpt>
      <trkpt lat="40.47860833" lon="-3.511355">
        <ele>656.011</ele>
        <time>2019-07-01T18:47:37.935Z</time>
      </trkpt>
      <trkpt lat="40.47861333" lon="-3.51139">
        <ele>656.011</ele>
        <time>2019-07-01T18:47:38.935Z</time>
      </trkpt>
      <trkpt lat="40.47861333" lon="-3.51139">
        <ele>657.011</ele>
        <time>2019-07-01T18:47:39.935Z</time>
      </trkpt>
      <trkpt lat="40.478625" lon="-3.51146">
        <ele>657.011</ele>
        <time>2019-07-01T18:47:40.935Z</time>
      </trkpt>
      <trkpt lat="40.47862833" lon="-3.51149667">
        <ele>657.011</ele>
        <time>2019-07-01T18:47:41.935Z</time>
      </trkpt>
      <trkpt lat="40.47863167" lon="-3.51153333">
        <ele>657.011</ele>
        <time>2019-07-01T18:47:42.935Z</time>
      </trkpt>
      <trkpt lat="40.47863167" lon="-3.51153333">
        <ele>657.011</ele>
        <time>2019-07-01T18:47:43.935Z</time>
      </trkpt>
      <trkpt lat="40.478635" lon="-3.511605">
        <ele>657.011</ele>
        <time>2019-07-01T18:47:44.935Z</time>
      </trkpt>
      <trkpt lat="40.478635" lon="-3.51164">
        <ele>658.011</ele>
        <time>2019-07-01T18:47:45.935Z</time>
      </trkpt>
      <trkpt lat="40.478635" lon="-3.51164">
        <ele>658.011</ele>
        <time>2019-07-01T18:47:46.935Z</time>
      </trkpt>
      <trkpt lat="40.47863333" lon="-3.51171333">
        <ele>658.011</ele>
        <time>2019-07-01T18:47:47.935Z</time>
      </trkpt>
      <trkpt lat="40.47863333" lon="-3.51171333">
        <ele>658.011</ele>
        <time>2019-07-01T18:47:48.935Z</time>
      </trkpt>
      <trkpt lat="40.47863167" lon="-3.51178667">
        <ele>658.011</ele>
        <time>2019-07-01T18:47:49.935Z</time>
      </trkpt>
      <trkpt lat="40.47863167" lon="-3.51178667">
        <ele>658.011</ele>
        <time>2019-07-01T18:47:50.935Z</time>
      </trkpt>
      <trkpt lat="40.47862833" lon="-3.51186833">
        <ele>658.011</ele>
        <time>2019-07-01T18:47:51.935Z</time>
      </trkpt>
      <trkpt lat="40.47862667" lon="-3.51190667">
        <ele>658.011</ele>
        <time>2019-07-01T18:47:52.935Z</time>
      </trkpt>
      <trkpt lat="40.478625" lon="-3.51195">
        <ele>658.011</ele>
        <time>2019-07-01T18:47:53.935Z</time>
      </trkpt>
      <trkpt lat="40.478625" lon="-3.51195">
        <ele>658.011</ele>
        <time>2019-07-01T18:47:54.935Z</time>
      </trkpt>
      <trkpt lat="40.47862333" lon="-3.51204167">
        <ele>658.011</ele>
        <time>2019-07-01T18:47:55.935Z</time>
      </trkpt>
      <trkpt lat="40.47862333" lon="-3.51204167">
        <ele>658.011</ele>
        <time>2019-07-01T18:47:56.935Z</time>
      </trkpt>
      <trkpt lat="40.47862167" lon="-3.51212667">
        <ele>658.011</ele>
        <time>2019-07-01T18:47:57.935Z</time>
      </trkpt>
      <trkpt lat="40.47862167" lon="-3.51212667">
        <ele>658.011</ele>
        <time>2019-07-01T18:47:58.935Z</time>
      </trkpt>
      <trkpt lat="40.47862" lon="-3.512225">
        <ele>659.011</ele>
        <time>2019-07-01T18:47:59.935Z</time>
      </trkpt>
      <trkpt lat="40.47862" lon="-3.512225">
        <ele>659.011</ele>
        <time>2019-07-01T18:48:00.935Z</time>
      </trkpt>
      <trkpt lat="40.47861667" lon="-3.51232833">
        <ele>659.011</ele>
        <time>2019-07-01T18:48:01.935Z</time>
      </trkpt>
      <trkpt lat="40.47861167" lon="-3.51238333">
        <ele>659.011</ele>
        <time>2019-07-01T18:48:02.935Z</time>
      </trkpt>
      <trkpt lat="40.47861167" lon="-3.51238333">
        <ele>659.011</ele>
        <time>2019-07-01T18:48:03.935Z</time>
      </trkpt>
      <trkpt lat="40.47859833" lon="-3.51249667">
        <ele>659.011</ele>
        <time>2019-07-01T18:48:04.935Z</time>
      </trkpt>
      <trkpt lat="40.47859833" lon="-3.51249667">
        <ele>659.011</ele>
        <time>2019-07-01T18:48:05.935Z</time>
      </trkpt>
      <trkpt lat="40.47858667" lon="-3.51261167">
        <ele>659.011</ele>
        <time>2019-07-01T18:48:06.935Z</time>
      </trkpt>
      <trkpt lat="40.47858667" lon="-3.51261167">
        <ele>659.011</ele>
        <time>2019-07-01T18:48:07.935Z</time>
      </trkpt>
      <trkpt lat="40.47858167" lon="-3.51272667">
        <ele>659.011</ele>
        <time>2019-07-01T18:48:08.935Z</time>
      </trkpt>
      <trkpt lat="40.478575" lon="-3.51279">
        <ele>659.011</ele>
        <time>2019-07-01T18:48:09.935Z</time>
      </trkpt>
      <trkpt lat="40.47856667" lon="-3.51285167">
        <ele>659.011</ele>
        <time>2019-07-01T18:48:10.935Z</time>
      </trkpt>
      <trkpt lat="40.47856667" lon="-3.51285167">
        <ele>659.011</ele>
        <time>2019-07-01T18:48:11.935Z</time>
      </trkpt>
      <trkpt lat="40.47854" lon="-3.51298167">
        <ele>659.011</ele>
        <time>2019-07-01T18:48:12.935Z</time>
      </trkpt>
      <trkpt lat="40.47854" lon="-3.51298167">
        <ele>659.011</ele>
        <time>2019-07-01T18:48:13.935Z</time>
      </trkpt>
      <trkpt lat="40.47851167" lon="-3.513125">
        <ele>659.011</ele>
        <time>2019-07-01T18:48:14.935Z</time>
      </trkpt>
      <trkpt lat="40.47851167" lon="-3.513125">
        <ele>658.011</ele>
        <time>2019-07-01T18:48:15.935Z</time>
      </trkpt>
      <trkpt lat="40.47847833" lon="-3.513295">
        <ele>658.011</ele>
        <time>2019-07-01T18:48:16.935Z</time>
      </trkpt>
      <trkpt lat="40.47845833" lon="-3.51338667">
        <ele>657.011</ele>
        <time>2019-07-01T18:48:17.935Z</time>
      </trkpt>
      <trkpt lat="40.47844" lon="-3.51348">
        <ele>657.011</ele>
        <time>2019-07-01T18:48:18.935Z</time>
      </trkpt>
      <trkpt lat="40.47844" lon="-3.51348">
        <ele>657.011</ele>
        <time>2019-07-01T18:48:19.935Z</time>
      </trkpt>
      <trkpt lat="40.47839833" lon="-3.51366833">
        <ele>657.011</ele>
        <time>2019-07-01T18:48:20.935Z</time>
      </trkpt>
      <trkpt lat="40.47839833" lon="-3.51366833">
        <ele>657.011</ele>
        <time>2019-07-01T18:48:21.935Z</time>
      </trkpt>
      <trkpt lat="40.478365" lon="-3.51386833">
        <ele>655.011</ele>
        <time>2019-07-01T18:48:22.935Z</time>
      </trkpt>
      <trkpt lat="40.47836167" lon="-3.51397">
        <ele>655.011</ele>
        <time>2019-07-01T18:48:23.935Z</time>
      </trkpt>
      <trkpt lat="40.47837833" lon="-3.51406333">
        <ele>654.011</ele>
        <time>2019-07-01T18:48:24.935Z</time>
      </trkpt>
      <trkpt lat="40.47837833" lon="-3.51406333">
        <ele>654.011</ele>
        <time>2019-07-01T18:48:25.935Z</time>
      </trkpt>
      <trkpt lat="40.47844333" lon="-3.51422">
        <ele>654.011</ele>
        <time>2019-07-01T18:48:26.935Z</time>
      </trkpt>
      <trkpt lat="40.47844333" lon="-3.51422">
        <ele>654.011</ele>
        <time>2019-07-01T18:48:27.935Z</time>
      </trkpt>
      <trkpt lat="40.47850833" lon="-3.51435833">
        <ele>654.011</ele>
        <time>2019-07-01T18:48:28.935Z</time>
      </trkpt>
      <trkpt lat="40.47850833" lon="-3.51435833">
        <ele>654.011</ele>
        <time>2019-07-01T18:48:29.935Z</time>
      </trkpt>
      <trkpt lat="40.47858667" lon="-3.51448333">
        <ele>654.011</ele>
        <time>2019-07-01T18:48:30.935Z</time>
      </trkpt>
      <trkpt lat="40.47858667" lon="-3.51448333">
        <ele>654.011</ele>
        <time>2019-07-01T18:48:31.935Z</time>
      </trkpt>
      <trkpt lat="40.47869333" lon="-3.514555">
        <ele>654.011</ele>
        <time>2019-07-01T18:48:32.935Z</time>
      </trkpt>
      <trkpt lat="40.47869333" lon="-3.514555">
        <ele>654.011</ele>
        <time>2019-07-01T18:48:33.935Z</time>
      </trkpt>
      <trkpt lat="40.47879333" lon="-3.51459167">
        <ele>654.011</ele>
        <time>2019-07-01T18:48:34.935Z</time>
      </trkpt>
      <trkpt lat="40.47879333" lon="-3.51459167">
        <ele>654.011</ele>
        <time>2019-07-01T18:48:35.935Z</time>
      </trkpt>
      <trkpt lat="40.47886833" lon="-3.51462667">
        <ele>654.011</ele>
        <time>2019-07-01T18:48:36.935Z</time>
      </trkpt>
      <trkpt lat="40.47886833" lon="-3.51462667">
        <ele>654.011</ele>
        <time>2019-07-01T18:48:37.935Z</time>
      </trkpt>
      <trkpt lat="40.47894167" lon="-3.51467333">
        <ele>655.011</ele>
        <time>2019-07-01T18:48:38.935Z</time>
      </trkpt>
      <trkpt lat="40.47898333" lon="-3.51468667">
        <ele>655.011</ele>
        <time>2019-07-01T18:48:39.935Z</time>
      </trkpt>
      <trkpt lat="40.47898333" lon="-3.51468667">
        <ele>655.011</ele>
        <time>2019-07-01T18:48:40.935Z</time>
      </trkpt>
      <trkpt lat="40.47905667" lon="-3.51471833">
        <ele>655.011</ele>
        <time>2019-07-01T18:48:41.935Z</time>
      </trkpt>
      <trkpt lat="40.479095" lon="-3.51473833">
        <ele>656.011</ele>
        <time>2019-07-01T18:48:42.935Z</time>
      </trkpt>
      <trkpt lat="40.479095" lon="-3.51473833">
        <ele>656.011</ele>
        <time>2019-07-01T18:48:43.935Z</time>
      </trkpt>
      <trkpt lat="40.47916667" lon="-3.51477167">
        <ele>656.011</ele>
        <time>2019-07-01T18:48:44.935Z</time>
      </trkpt>
      <trkpt lat="40.4792" lon="-3.51479">
        <ele>656.011</ele>
        <time>2019-07-01T18:48:45.935Z</time>
      </trkpt>
      <trkpt lat="40.4792" lon="-3.51479">
        <ele>657.011</ele>
        <time>2019-07-01T18:48:46.935Z</time>
      </trkpt>
      <trkpt lat="40.479265" lon="-3.51482167">
        <ele>657.011</ele>
        <time>2019-07-01T18:48:47.935Z</time>
      </trkpt>
      <trkpt lat="40.479265" lon="-3.51482167">
        <ele>657.011</ele>
        <time>2019-07-01T18:48:48.935Z</time>
      </trkpt>
      <trkpt lat="40.47932833" lon="-3.51485333">
        <ele>657.011</ele>
        <time>2019-07-01T18:48:49.935Z</time>
      </trkpt>
      <trkpt lat="40.47932833" lon="-3.51485333">
        <ele>658.011</ele>
        <time>2019-07-01T18:48:50.935Z</time>
      </trkpt>
      <trkpt lat="40.47939" lon="-3.51488333">
        <ele>658.011</ele>
        <time>2019-07-01T18:48:51.935Z</time>
      </trkpt>
      <trkpt lat="40.47942" lon="-3.5149">
        <ele>658.011</ele>
        <time>2019-07-01T18:48:52.935Z</time>
      </trkpt>
      <trkpt lat="40.47942" lon="-3.5149">
        <ele>658.011</ele>
        <time>2019-07-01T18:48:53.935Z</time>
      </trkpt>
      <trkpt lat="40.479485" lon="-3.51493333">
        <ele>658.011</ele>
        <time>2019-07-01T18:48:54.935Z</time>
      </trkpt>
      <trkpt lat="40.479485" lon="-3.51493333">
        <ele>658.011</ele>
        <time>2019-07-01T18:48:55.935Z</time>
      </trkpt>
      <trkpt lat="40.479555" lon="-3.51496833">
        <ele>658.011</ele>
        <time>2019-07-01T18:48:56.935Z</time>
      </trkpt>
      <trkpt lat="40.479555" lon="-3.51496833">
        <ele>658.011</ele>
        <time>2019-07-01T18:48:57.935Z</time>
      </trkpt>
      <trkpt lat="40.47962667" lon="-3.51501">
        <ele>658.011</ele>
        <time>2019-07-01T18:48:58.935Z</time>
      </trkpt>
      <trkpt lat="40.47962667" lon="-3.51501">
        <ele>658.011</ele>
        <time>2019-07-01T18:48:59.935Z</time>
      </trkpt>
      <trkpt lat="40.4797" lon="-3.51505">
        <ele>658.011</ele>
        <time>2019-07-01T18:49:00.935Z</time>
      </trkpt>
      <trkpt lat="40.4797" lon="-3.51505">
        <ele>658.011</ele>
        <time>2019-07-01T18:49:01.935Z</time>
      </trkpt>
      <trkpt lat="40.47977333" lon="-3.51509333">
        <ele>658.011</ele>
        <time>2019-07-01T18:49:02.935Z</time>
      </trkpt>
      <trkpt lat="40.47977333" lon="-3.51509333">
        <ele>658.011</ele>
        <time>2019-07-01T18:49:03.935Z</time>
      </trkpt>
      <trkpt lat="40.47984833" lon="-3.51513167">
        <ele>658.011</ele>
        <time>2019-07-01T18:49:04.935Z</time>
      </trkpt>
      <trkpt lat="40.47984833" lon="-3.51513167">
        <ele>658.011</ele>
        <time>2019-07-01T18:49:05.935Z</time>
      </trkpt>
      <trkpt lat="40.47992333" lon="-3.51517167">
        <ele>658.011</ele>
        <time>2019-07-01T18:49:06.935Z</time>
      </trkpt>
      <trkpt lat="40.47992333" lon="-3.51517167">
        <ele>658.011</ele>
        <time>2019-07-01T18:49:07.935Z</time>
      </trkpt>
      <trkpt lat="40.48000833" lon="-3.515215">
        <ele>658.011</ele>
        <time>2019-07-01T18:49:08.935Z</time>
      </trkpt>
      <trkpt lat="40.48000833" lon="-3.515215">
        <ele>658.011</ele>
        <time>2019-07-01T18:49:09.935Z</time>
      </trkpt>
      <trkpt lat="40.48010167" lon="-3.51526">
        <ele>658.011</ele>
        <time>2019-07-01T18:49:10.935Z</time>
      </trkpt>
      <trkpt lat="40.48015333" lon="-3.51528">
        <ele>658.011</ele>
        <time>2019-07-01T18:49:11.935Z</time>
      </trkpt>
      <trkpt lat="40.48021" lon="-3.5153">
        <ele>657.011</ele>
        <time>2019-07-01T18:49:12.935Z</time>
      </trkpt>
      <trkpt lat="40.48021" lon="-3.5153">
        <ele>657.011</ele>
        <time>2019-07-01T18:49:13.935Z</time>
      </trkpt>
      <trkpt lat="40.480335" lon="-3.51533167">
        <ele>657.011</ele>
        <time>2019-07-01T18:49:14.935Z</time>
      </trkpt>
      <trkpt lat="40.48040167" lon="-3.515345">
        <ele>657.011</ele>
        <time>2019-07-01T18:49:15.935Z</time>
      </trkpt>
      <trkpt lat="40.48040167" lon="-3.515345">
        <ele>657.011</ele>
        <time>2019-07-01T18:49:16.935Z</time>
      </trkpt>
      <trkpt lat="40.48055333" lon="-3.51537333">
        <ele>657.011</ele>
        <time>2019-07-01T18:49:17.935Z</time>
      </trkpt>
      <trkpt lat="40.48063333" lon="-3.51539167">
        <ele>656.011</ele>
        <time>2019-07-01T18:49:18.935Z</time>
      </trkpt>
      <trkpt lat="40.48063333" lon="-3.51539167">
        <ele>656.011</ele>
        <time>2019-07-01T18:49:19.935Z</time>
      </trkpt>
      <trkpt lat="40.480795" lon="-3.51543667">
        <ele>655.011</ele>
        <time>2019-07-01T18:49:20.935Z</time>
      </trkpt>
      <trkpt lat="40.480795" lon="-3.51543667">
        <ele>655.011</ele>
        <time>2019-07-01T18:49:21.935Z</time>
      </trkpt>
      <trkpt lat="40.48096" lon="-3.515485">
        <ele>654.011</ele>
        <time>2019-07-01T18:49:22.935Z</time>
      </trkpt>
      <trkpt lat="40.48096" lon="-3.515485">
        <ele>654.011</ele>
        <time>2019-07-01T18:49:23.935Z</time>
      </trkpt>
      <trkpt lat="40.48110167" lon="-3.51555167">
        <ele>653.011</ele>
        <time>2019-07-01T18:49:24.935Z</time>
      </trkpt>
      <trkpt lat="40.48110167" lon="-3.51555167">
        <ele>653.011</ele>
        <time>2019-07-01T18:49:25.935Z</time>
      </trkpt>
      <trkpt lat="40.48121667" lon="-3.515625">
        <ele>653.011</ele>
        <time>2019-07-01T18:49:26.935Z</time>
      </trkpt>
      <trkpt lat="40.48126667" lon="-3.51565833">
        <ele>653.011</ele>
        <time>2019-07-01T18:49:27.935Z</time>
      </trkpt>
      <trkpt lat="40.48126667" lon="-3.51565833">
        <ele>652.011</ele>
        <time>2019-07-01T18:49:28.935Z</time>
      </trkpt>
      <trkpt lat="40.48137" lon="-3.51571167">
        <ele>652.011</ele>
        <time>2019-07-01T18:49:29.935Z</time>
      </trkpt>
      <trkpt lat="40.48142167" lon="-3.51573667">
        <ele>652.011</ele>
        <time>2019-07-01T18:49:30.935Z</time>
      </trkpt>
      <trkpt lat="40.48142167" lon="-3.51573667">
        <ele>652.011</ele>
        <time>2019-07-01T18:49:31.935Z</time>
      </trkpt>
      <trkpt lat="40.48152667" lon="-3.51579">
        <ele>652.011</ele>
        <time>2019-07-01T18:49:32.935Z</time>
      </trkpt>
      <trkpt lat="40.48157833" lon="-3.51581833">
        <ele>652.011</ele>
        <time>2019-07-01T18:49:33.935Z</time>
      </trkpt>
      <trkpt lat="40.48157833" lon="-3.51581833">
        <ele>652.011</ele>
        <time>2019-07-01T18:49:34.935Z</time>
      </trkpt>
      <trkpt lat="40.48168333" lon="-3.51588333">
        <ele>652.011</ele>
        <time>2019-07-01T18:49:35.935Z</time>
      </trkpt>
      <trkpt lat="40.48173667" lon="-3.51591667">
        <ele>652.011</ele>
        <time>2019-07-01T18:49:36.935Z</time>
      </trkpt>
      <trkpt lat="40.48173667" lon="-3.51591667">
        <ele>652.011</ele>
        <time>2019-07-01T18:49:37.935Z</time>
      </trkpt>
      <trkpt lat="40.481845" lon="-3.51598167">
        <ele>652.011</ele>
        <time>2019-07-01T18:49:38.935Z</time>
      </trkpt>
      <trkpt lat="40.481845" lon="-3.51598167">
        <ele>652.011</ele>
        <time>2019-07-01T18:49:39.935Z</time>
      </trkpt>
      <trkpt lat="40.48195333" lon="-3.51604333">
        <ele>652.011</ele>
        <time>2019-07-01T18:49:40.935Z</time>
      </trkpt>
      <trkpt lat="40.48195333" lon="-3.51604333">
        <ele>652.011</ele>
        <time>2019-07-01T18:49:41.935Z</time>
      </trkpt>
      <trkpt lat="40.482065" lon="-3.51609167">
        <ele>652.011</ele>
        <time>2019-07-01T18:49:42.935Z</time>
      </trkpt>
      <trkpt lat="40.482065" lon="-3.51609167">
        <ele>652.011</ele>
        <time>2019-07-01T18:49:43.935Z</time>
      </trkpt>
      <trkpt lat="40.48218333" lon="-3.51613667">
        <ele>652.011</ele>
        <time>2019-07-01T18:49:44.935Z</time>
      </trkpt>
      <trkpt lat="40.48218333" lon="-3.51613667">
        <ele>652.011</ele>
        <time>2019-07-01T18:49:45.935Z</time>
      </trkpt>
      <trkpt lat="40.4823" lon="-3.51619333">
        <ele>652.011</ele>
        <time>2019-07-01T18:49:46.935Z</time>
      </trkpt>
      <trkpt lat="40.48236167" lon="-3.51622333">
        <ele>652.011</ele>
        <time>2019-07-01T18:49:47.935Z</time>
      </trkpt>
      <trkpt lat="40.48242333" lon="-3.51625">
        <ele>652.011</ele>
        <time>2019-07-01T18:49:48.935Z</time>
      </trkpt>
      <trkpt lat="40.48242333" lon="-3.51625">
        <ele>652.011</ele>
        <time>2019-07-01T18:49:49.935Z</time>
      </trkpt>
      <trkpt lat="40.48254667" lon="-3.51629833">
        <ele>652.011</ele>
        <time>2019-07-01T18:49:50.935Z</time>
      </trkpt>
      <trkpt lat="40.48261" lon="-3.51632167">
        <ele>652.011</ele>
        <time>2019-07-01T18:49:51.935Z</time>
      </trkpt>
      <trkpt lat="40.48261" lon="-3.51632167">
        <ele>652.011</ele>
        <time>2019-07-01T18:49:52.935Z</time>
      </trkpt>
      <trkpt lat="40.48272833" lon="-3.51636667">
        <ele>652.011</ele>
        <time>2019-07-01T18:49:53.935Z</time>
      </trkpt>
      <trkpt lat="40.482785" lon="-3.51639">
        <ele>652.011</ele>
        <time>2019-07-01T18:49:54.935Z</time>
      </trkpt>
      <trkpt lat="40.482785" lon="-3.51639">
        <ele>652.011</ele>
        <time>2019-07-01T18:49:55.935Z</time>
      </trkpt>
      <trkpt lat="40.482895" lon="-3.51643833">
        <ele>652.011</ele>
        <time>2019-07-01T18:49:56.935Z</time>
      </trkpt>
      <trkpt lat="40.482895" lon="-3.51643833">
        <ele>652.011</ele>
        <time>2019-07-01T18:49:57.935Z</time>
      </trkpt>
      <trkpt lat="40.483" lon="-3.51649167">
        <ele>652.011</ele>
        <time>2019-07-01T18:49:58.935Z</time>
      </trkpt>
      <trkpt lat="40.483" lon="-3.51649167">
        <ele>652.011</ele>
        <time>2019-07-01T18:49:59.935Z</time>
      </trkpt>
      <trkpt lat="40.4831" lon="-3.516555">
        <ele>652.011</ele>
        <time>2019-07-01T18:50:00.935Z</time>
      </trkpt>
      <trkpt lat="40.4831" lon="-3.516555">
        <ele>652.011</ele>
        <time>2019-07-01T18:50:01.935Z</time>
      </trkpt>
      <trkpt lat="40.48319333" lon="-3.516625">
        <ele>652.011</ele>
        <time>2019-07-01T18:50:02.935Z</time>
      </trkpt>
      <trkpt lat="40.48323833" lon="-3.51666333">
        <ele>652.011</ele>
        <time>2019-07-01T18:50:03.935Z</time>
      </trkpt>
      <trkpt lat="40.48323833" lon="-3.51666333">
        <ele>652.011</ele>
        <time>2019-07-01T18:50:04.935Z</time>
      </trkpt>
      <trkpt lat="40.48332833" lon="-3.51673833">
        <ele>653.011</ele>
        <time>2019-07-01T18:50:05.935Z</time>
      </trkpt>
      <trkpt lat="40.48337333" lon="-3.516775">
        <ele>653.011</ele>
        <time>2019-07-01T18:50:06.935Z</time>
      </trkpt>
      <trkpt lat="40.48337333" lon="-3.516775">
        <ele>653.011</ele>
        <time>2019-07-01T18:50:07.935Z</time>
      </trkpt>
      <trkpt lat="40.48346333" lon="-3.516845">
        <ele>653.011</ele>
        <time>2019-07-01T18:50:08.935Z</time>
      </trkpt>
      <trkpt lat="40.48346333" lon="-3.516845">
        <ele>653.011</ele>
        <time>2019-07-01T18:50:09.935Z</time>
      </trkpt>
      <trkpt lat="40.48355" lon="-3.51692">
        <ele>653.011</ele>
        <time>2019-07-01T18:50:10.935Z</time>
      </trkpt>
      <trkpt lat="40.48355" lon="-3.51692">
        <ele>654.011</ele>
        <time>2019-07-01T18:50:11.935Z</time>
      </trkpt>
      <trkpt lat="40.48364333" lon="-3.51698">
        <ele>654.011</ele>
        <time>2019-07-01T18:50:12.935Z</time>
      </trkpt>
      <trkpt lat="40.48364333" lon="-3.51698">
        <ele>654.011</ele>
        <time>2019-07-01T18:50:13.935Z</time>
      </trkpt>
      <trkpt lat="40.48373667" lon="-3.51703">
        <ele>654.011</ele>
        <time>2019-07-01T18:50:14.935Z</time>
      </trkpt>
      <trkpt lat="40.48373667" lon="-3.51703">
        <ele>655.011</ele>
        <time>2019-07-01T18:50:15.935Z</time>
      </trkpt>
      <trkpt lat="40.48383167" lon="-3.51706">
        <ele>655.011</ele>
        <time>2019-07-01T18:50:16.935Z</time>
      </trkpt>
      <trkpt lat="40.48388" lon="-3.51706833">
        <ele>655.011</ele>
        <time>2019-07-01T18:50:17.935Z</time>
      </trkpt>
      <trkpt lat="40.48392667" lon="-3.51707167">
        <ele>655.011</ele>
        <time>2019-07-01T18:50:18.935Z</time>
      </trkpt>
      <trkpt lat="40.48392667" lon="-3.51707167">
        <ele>655.011</ele>
        <time>2019-07-01T18:50:19.935Z</time>
      </trkpt>
      <trkpt lat="40.48402167" lon="-3.517085">
        <ele>655.011</ele>
        <time>2019-07-01T18:50:20.935Z</time>
      </trkpt>
      <trkpt lat="40.48406667" lon="-3.51709167">
        <ele>655.011</ele>
        <time>2019-07-01T18:50:21.935Z</time>
      </trkpt>
      <trkpt lat="40.48406667" lon="-3.51709167">
        <ele>655.011</ele>
        <time>2019-07-01T18:50:22.935Z</time>
      </trkpt>
      <trkpt lat="40.48415333" lon="-3.51710667">
        <ele>655.011</ele>
        <time>2019-07-01T18:50:23.935Z</time>
      </trkpt>
      <trkpt lat="40.48419667" lon="-3.51711667">
        <ele>655.011</ele>
        <time>2019-07-01T18:50:24.935Z</time>
      </trkpt>
      <trkpt lat="40.48419667" lon="-3.51711667">
        <ele>655.011</ele>
        <time>2019-07-01T18:50:25.935Z</time>
      </trkpt>
      <trkpt lat="40.48428167" lon="-3.51713833">
        <ele>656.011</ele>
        <time>2019-07-01T18:50:26.935Z</time>
      </trkpt>
      <trkpt lat="40.48428167" lon="-3.51713833">
        <ele>656.011</ele>
        <time>2019-07-01T18:50:27.935Z</time>
      </trkpt>
      <trkpt lat="40.48436167" lon="-3.51716833">
        <ele>656.011</ele>
        <time>2019-07-01T18:50:28.935Z</time>
      </trkpt>
      <trkpt lat="40.48436167" lon="-3.51716833">
        <ele>656.011</ele>
        <time>2019-07-01T18:50:29.935Z</time>
      </trkpt>
      <trkpt lat="40.48444167" lon="-3.51720167">
        <ele>656.011</ele>
        <time>2019-07-01T18:50:30.935Z</time>
      </trkpt>
      <trkpt lat="40.48444167" lon="-3.51720167">
        <ele>656.011</ele>
        <time>2019-07-01T18:50:31.935Z</time>
      </trkpt>
      <trkpt lat="40.48451667" lon="-3.51724">
        <ele>656.011</ele>
        <time>2019-07-01T18:50:32.935Z</time>
      </trkpt>
      <trkpt lat="40.48451667" lon="-3.51724">
        <ele>657.011</ele>
        <time>2019-07-01T18:50:33.935Z</time>
      </trkpt>
      <trkpt lat="40.48459333" lon="-3.51727667">
        <ele>657.011</ele>
        <time>2019-07-01T18:50:34.935Z</time>
      </trkpt>
      <trkpt lat="40.48459333" lon="-3.51727667">
        <ele>657.011</ele>
        <time>2019-07-01T18:50:35.935Z</time>
      </trkpt>
      <trkpt lat="40.48467333" lon="-3.517305">
        <ele>657.011</ele>
        <time>2019-07-01T18:50:36.935Z</time>
      </trkpt>
      <trkpt lat="40.48467333" lon="-3.517305">
        <ele>657.011</ele>
        <time>2019-07-01T18:50:37.935Z</time>
      </trkpt>
      <trkpt lat="40.48475333" lon="-3.51733833">
        <ele>657.011</ele>
        <time>2019-07-01T18:50:38.935Z</time>
      </trkpt>
      <trkpt lat="40.48475333" lon="-3.51733833">
        <ele>657.011</ele>
        <time>2019-07-01T18:50:39.935Z</time>
      </trkpt>
      <trkpt lat="40.48483333" lon="-3.51737333">
        <ele>657.011</ele>
        <time>2019-07-01T18:50:40.935Z</time>
      </trkpt>
      <trkpt lat="40.48483333" lon="-3.51737333">
        <ele>658.011</ele>
        <time>2019-07-01T18:50:41.935Z</time>
      </trkpt>
      <trkpt lat="40.48491" lon="-3.51741833">
        <ele>658.011</ele>
        <time>2019-07-01T18:50:42.935Z</time>
      </trkpt>
      <trkpt lat="40.484945" lon="-3.517445">
        <ele>658.011</ele>
        <time>2019-07-01T18:50:43.935Z</time>
      </trkpt>
      <trkpt lat="40.484945" lon="-3.517445">
        <ele>658.011</ele>
        <time>2019-07-01T18:50:44.935Z</time>
      </trkpt>
      <trkpt lat="40.485015" lon="-3.517505">
        <ele>658.011</ele>
        <time>2019-07-01T18:50:45.935Z</time>
      </trkpt>
      <trkpt lat="40.48505" lon="-3.51753833">
        <ele>658.011</ele>
        <time>2019-07-01T18:50:46.935Z</time>
      </trkpt>
      <trkpt lat="40.48505" lon="-3.51753833">
        <ele>658.011</ele>
        <time>2019-07-01T18:50:47.935Z</time>
      </trkpt>
      <trkpt lat="40.48511833" lon="-3.517605">
        <ele>659.011</ele>
        <time>2019-07-01T18:50:48.935Z</time>
      </trkpt>
      <trkpt lat="40.48511833" lon="-3.517605">
        <ele>659.011</ele>
        <time>2019-07-01T18:50:49.935Z</time>
      </trkpt>
      <trkpt lat="40.48518333" lon="-3.51768">
        <ele>659.011</ele>
        <time>2019-07-01T18:50:50.935Z</time>
      </trkpt>
      <trkpt lat="40.48518333" lon="-3.51768">
        <ele>659.011</ele>
        <time>2019-07-01T18:50:51.935Z</time>
      </trkpt>
      <trkpt lat="40.48524333" lon="-3.51776167">
        <ele>659.011</ele>
        <time>2019-07-01T18:50:52.935Z</time>
      </trkpt>
      <trkpt lat="40.48527333" lon="-3.51780333">
        <ele>659.011</ele>
        <time>2019-07-01T18:50:53.935Z</time>
      </trkpt>
      <trkpt lat="40.48530167" lon="-3.517845">
        <ele>660.011</ele>
        <time>2019-07-01T18:50:54.935Z</time>
      </trkpt>
      <trkpt lat="40.48530167" lon="-3.517845">
        <ele>660.011</ele>
        <time>2019-07-01T18:50:55.935Z</time>
      </trkpt>
      <trkpt lat="40.48535833" lon="-3.51793">
        <ele>660.011</ele>
        <time>2019-07-01T18:50:56.935Z</time>
      </trkpt>
      <trkpt lat="40.48535833" lon="-3.51793">
        <ele>660.011</ele>
        <time>2019-07-01T18:50:57.935Z</time>
      </trkpt>
      <trkpt lat="40.48541333" lon="-3.51801333">
        <ele>661.011</ele>
        <time>2019-07-01T18:50:58.935Z</time>
      </trkpt>
      <trkpt lat="40.48541333" lon="-3.51801333">
        <ele>661.011</ele>
        <time>2019-07-01T18:50:59.935Z</time>
      </trkpt>
      <trkpt lat="40.485465" lon="-3.51809833">
        <ele>661.011</ele>
        <time>2019-07-01T18:51:00.935Z</time>
      </trkpt>
      <trkpt lat="40.485465" lon="-3.51809833">
        <ele>661.011</ele>
        <time>2019-07-01T18:51:01.935Z</time>
      </trkpt>
      <trkpt lat="40.485525" lon="-3.51816833">
        <ele>661.011</ele>
        <time>2019-07-01T18:51:02.935Z</time>
      </trkpt>
      <trkpt lat="40.485525" lon="-3.51816833">
        <ele>661.011</ele>
        <time>2019-07-01T18:51:03.935Z</time>
      </trkpt>
      <trkpt lat="40.48558667" lon="-3.518235">
        <ele>662.011</ele>
        <time>2019-07-01T18:51:04.935Z</time>
      </trkpt>
      <trkpt lat="40.48558667" lon="-3.518235">
        <ele>662.011</ele>
        <time>2019-07-01T18:51:05.935Z</time>
      </trkpt>
      <trkpt lat="40.48564333" lon="-3.518295">
        <ele>662.011</ele>
        <time>2019-07-01T18:51:06.935Z</time>
      </trkpt>
      <trkpt lat="40.48567333" lon="-3.51832167">
        <ele>662.011</ele>
        <time>2019-07-01T18:51:07.935Z</time>
      </trkpt>
      <trkpt lat="40.48567333" lon="-3.51832167">
        <ele>662.011</ele>
        <time>2019-07-01T18:51:08.935Z</time>
      </trkpt>
      <trkpt lat="40.485735" lon="-3.518375">
        <ele>662.011</ele>
        <time>2019-07-01T18:51:09.935Z</time>
      </trkpt>
      <trkpt lat="40.485735" lon="-3.518375">
        <ele>662.011</ele>
        <time>2019-07-01T18:51:10.935Z</time>
      </trkpt>
      <trkpt lat="40.48579667" lon="-3.51842833">
        <ele>662.011</ele>
        <time>2019-07-01T18:51:11.935Z</time>
      </trkpt>
      <trkpt lat="40.485825" lon="-3.518455">
        <ele>663.011</ele>
        <time>2019-07-01T18:51:12.935Z</time>
      </trkpt>
      <trkpt lat="40.485825" lon="-3.518455">
        <ele>663.011</ele>
        <time>2019-07-01T18:51:13.935Z</time>
      </trkpt>
      <trkpt lat="40.48588333" lon="-3.51851">
        <ele>663.011</ele>
        <time>2019-07-01T18:51:14.935Z</time>
      </trkpt>
      <trkpt lat="40.48591" lon="-3.51854167">
        <ele>663.011</ele>
        <time>2019-07-01T18:51:15.935Z</time>
      </trkpt>
      <trkpt lat="40.48591" lon="-3.51854167">
        <ele>663.011</ele>
        <time>2019-07-01T18:51:16.935Z</time>
      </trkpt>
      <trkpt lat="40.48595667" lon="-3.51861167">
        <ele>664.011</ele>
        <time>2019-07-01T18:51:17.935Z</time>
      </trkpt>
      <trkpt lat="40.48595667" lon="-3.51861167">
        <ele>664.011</ele>
        <time>2019-07-01T18:51:18.935Z</time>
      </trkpt>
      <trkpt lat="40.48599333" lon="-3.51869">
        <ele>664.011</ele>
        <time>2019-07-01T18:51:19.935Z</time>
      </trkpt>
      <trkpt lat="40.48599333" lon="-3.51869">
        <ele>664.011</ele>
        <time>2019-07-01T18:51:20.935Z</time>
      </trkpt>
      <trkpt lat="40.48602833" lon="-3.51876667">
        <ele>665.011</ele>
        <time>2019-07-01T18:51:21.935Z</time>
      </trkpt>
      <trkpt lat="40.48602833" lon="-3.51876667">
        <ele>665.011</ele>
        <time>2019-07-01T18:51:22.935Z</time>
      </trkpt>
      <trkpt lat="40.48606" lon="-3.51885">
        <ele>665.011</ele>
        <time>2019-07-01T18:51:23.935Z</time>
      </trkpt>
      <trkpt lat="40.48607667" lon="-3.51889167">
        <ele>665.011</ele>
        <time>2019-07-01T18:51:24.935Z</time>
      </trkpt>
      <trkpt lat="40.48607667" lon="-3.51889167">
        <ele>666.011</ele>
        <time>2019-07-01T18:51:25.935Z</time>
      </trkpt>
      <trkpt lat="40.48611167" lon="-3.51897">
        <ele>666.011</ele>
        <time>2019-07-01T18:51:26.935Z</time>
      </trkpt>
      <trkpt lat="40.48613167" lon="-3.51900333">
        <ele>666.011</ele>
        <time>2019-07-01T18:51:27.935Z</time>
      </trkpt>
      <trkpt lat="40.48613167" lon="-3.51900333">
        <ele>666.011</ele>
        <time>2019-07-01T18:51:28.935Z</time>
      </trkpt>
      <trkpt lat="40.48617333" lon="-3.51906667">
        <ele>667.011</ele>
        <time>2019-07-01T18:51:29.935Z</time>
      </trkpt>
      <trkpt lat="40.48619333" lon="-3.51909667">
        <ele>667.011</ele>
        <time>2019-07-01T18:51:30.935Z</time>
      </trkpt>
      <trkpt lat="40.48619333" lon="-3.51909667">
        <ele>667.011</ele>
        <time>2019-07-01T18:51:31.935Z</time>
      </trkpt>
      <trkpt lat="40.48624167" lon="-3.51915">
        <ele>667.011</ele>
        <time>2019-07-01T18:51:32.935Z</time>
      </trkpt>
      <trkpt lat="40.48627" lon="-3.519175">
        <ele>668.011</ele>
        <time>2019-07-01T18:51:33.935Z</time>
      </trkpt>
      <trkpt lat="40.48627" lon="-3.519175">
        <ele>668.011</ele>
        <time>2019-07-01T18:51:34.935Z</time>
      </trkpt>
      <trkpt lat="40.48632833" lon="-3.51923">
        <ele>668.011</ele>
        <time>2019-07-01T18:51:35.935Z</time>
      </trkpt>
      <trkpt lat="40.48636333" lon="-3.519255">
        <ele>668.011</ele>
        <time>2019-07-01T18:51:36.935Z</time>
      </trkpt>
      <trkpt lat="40.48636333" lon="-3.519255">
        <ele>668.011</ele>
        <time>2019-07-01T18:51:37.935Z</time>
      </trkpt>
      <trkpt lat="40.48642667" lon="-3.519295">
        <ele>668.011</ele>
        <time>2019-07-01T18:51:38.935Z</time>
      </trkpt>
      <trkpt lat="40.486455" lon="-3.519315">
        <ele>670.011</ele>
        <time>2019-07-01T18:51:39.935Z</time>
      </trkpt>
      <trkpt lat="40.486485" lon="-3.51933333">
        <ele>670.011</ele>
        <time>2019-07-01T18:51:40.935Z</time>
      </trkpt>
      <trkpt lat="40.486485" lon="-3.51933333">
        <ele>671.011</ele>
        <time>2019-07-01T18:51:41.935Z</time>
      </trkpt>
      <trkpt lat="40.48654667" lon="-3.51936333">
        <ele>671.011</ele>
        <time>2019-07-01T18:51:42.935Z</time>
      </trkpt>
      <trkpt lat="40.48654667" lon="-3.51936333">
        <ele>671.011</ele>
        <time>2019-07-01T18:51:43.935Z</time>
      </trkpt>
      <trkpt lat="40.48660833" lon="-3.51938833">
        <ele>671.011</ele>
        <time>2019-07-01T18:51:44.935Z</time>
      </trkpt>
      <trkpt lat="40.48660833" lon="-3.51938833">
        <ele>672.011</ele>
        <time>2019-07-01T18:51:45.935Z</time>
      </trkpt>
      <trkpt lat="40.48667" lon="-3.51941167">
        <ele>672.011</ele>
        <time>2019-07-01T18:51:46.935Z</time>
      </trkpt>
      <trkpt lat="40.48670167" lon="-3.51942">
        <ele>672.011</ele>
        <time>2019-07-01T18:51:47.935Z</time>
      </trkpt>
      <trkpt lat="40.48673167" lon="-3.51942833">
        <ele>672.011</ele>
        <time>2019-07-01T18:51:48.935Z</time>
      </trkpt>
      <trkpt lat="40.48673167" lon="-3.51942833">
        <ele>673.011</ele>
        <time>2019-07-01T18:51:49.935Z</time>
      </trkpt>
      <trkpt lat="40.48679333" lon="-3.519445">
        <ele>673.011</ele>
        <time>2019-07-01T18:51:50.935Z</time>
      </trkpt>
      <trkpt lat="40.486825" lon="-3.51945167">
        <ele>673.011</ele>
        <time>2019-07-01T18:51:51.935Z</time>
      </trkpt>
      <trkpt lat="40.48685667" lon="-3.51945667">
        <ele>673.011</ele>
        <time>2019-07-01T18:51:52.935Z</time>
      </trkpt>
      <trkpt lat="40.48685667" lon="-3.51945667">
        <ele>673.011</ele>
        <time>2019-07-01T18:51:53.935Z</time>
      </trkpt>
      <trkpt lat="40.48692167" lon="-3.51945833">
        <ele>674.011</ele>
        <time>2019-07-01T18:51:54.935Z</time>
      </trkpt>
      <trkpt lat="40.48692167" lon="-3.51945833">
        <ele>674.011</ele>
        <time>2019-07-01T18:51:55.935Z</time>
      </trkpt>
      <trkpt lat="40.48699167" lon="-3.51946">
        <ele>674.011</ele>
        <time>2019-07-01T18:51:56.935Z</time>
      </trkpt>
      <trkpt lat="40.48703" lon="-3.51945667">
        <ele>674.011</ele>
        <time>2019-07-01T18:51:57.935Z</time>
      </trkpt>
      <trkpt lat="40.48703" lon="-3.51945667">
        <ele>674.011</ele>
        <time>2019-07-01T18:51:58.935Z</time>
      </trkpt>
      <trkpt lat="40.48711667" lon="-3.519455">
        <ele>674.011</ele>
        <time>2019-07-01T18:51:59.935Z</time>
      </trkpt>
      <trkpt lat="40.48711667" lon="-3.519455">
        <ele>674.011</ele>
        <time>2019-07-01T18:52:00.935Z</time>
      </trkpt>
      <trkpt lat="40.48721667" lon="-3.51946167">
        <ele>674.011</ele>
        <time>2019-07-01T18:52:01.935Z</time>
      </trkpt>
      <trkpt lat="40.48727" lon="-3.51947667">
        <ele>674.011</ele>
        <time>2019-07-01T18:52:02.935Z</time>
      </trkpt>
      <trkpt lat="40.48727" lon="-3.51947667">
        <ele>674.011</ele>
        <time>2019-07-01T18:52:03.935Z</time>
      </trkpt>
      <trkpt lat="40.487375" lon="-3.51953333">
        <ele>674.011</ele>
        <time>2019-07-01T18:52:04.935Z</time>
      </trkpt>
      <trkpt lat="40.487375" lon="-3.51953333">
        <ele>674.011</ele>
        <time>2019-07-01T18:52:05.935Z</time>
      </trkpt>
      <trkpt lat="40.48747" lon="-3.51962333">
        <ele>674.011</ele>
        <time>2019-07-01T18:52:06.935Z</time>
      </trkpt>
      <trkpt lat="40.48747" lon="-3.51962333">
        <ele>674.011</ele>
        <time>2019-07-01T18:52:07.935Z</time>
      </trkpt>
      <trkpt lat="40.48756167" lon="-3.51972667">
        <ele>673.011</ele>
        <time>2019-07-01T18:52:08.935Z</time>
      </trkpt>
      <trkpt lat="40.48756167" lon="-3.51972667">
        <ele>673.011</ele>
        <time>2019-07-01T18:52:09.935Z</time>
      </trkpt>
      <trkpt lat="40.48765" lon="-3.51984167">
        <ele>673.011</ele>
        <time>2019-07-01T18:52:10.935Z</time>
      </trkpt>
      <trkpt lat="40.48765" lon="-3.51984167">
        <ele>673.011</ele>
        <time>2019-07-01T18:52:11.935Z</time>
      </trkpt>
      <trkpt lat="40.48774333" lon="-3.51996333">
        <ele>673.011</ele>
        <time>2019-07-01T18:52:12.935Z</time>
      </trkpt>
      <trkpt lat="40.48774333" lon="-3.51996333">
        <ele>673.011</ele>
        <time>2019-07-01T18:52:13.935Z</time>
      </trkpt>
      <trkpt lat="40.48784833" lon="-3.52008">
        <ele>672.011</ele>
        <time>2019-07-01T18:52:14.935Z</time>
      </trkpt>
      <trkpt lat="40.48784833" lon="-3.52008">
        <ele>672.011</ele>
        <time>2019-07-01T18:52:15.935Z</time>
      </trkpt>
      <trkpt lat="40.48797167" lon="-3.520175">
        <ele>672.011</ele>
        <time>2019-07-01T18:52:16.935Z</time>
      </trkpt>
      <trkpt lat="40.48797167" lon="-3.520175">
        <ele>672.011</ele>
        <time>2019-07-01T18:52:17.935Z</time>
      </trkpt>
      <trkpt lat="40.48810833" lon="-3.52024667">
        <ele>672.011</ele>
        <time>2019-07-01T18:52:18.935Z</time>
      </trkpt>
      <trkpt lat="40.48817833" lon="-3.52026833">
        <ele>672.011</ele>
        <time>2019-07-01T18:52:19.935Z</time>
      </trkpt>
      <trkpt lat="40.48824833" lon="-3.52028333">
        <ele>672.011</ele>
        <time>2019-07-01T18:52:20.935Z</time>
      </trkpt>
      <trkpt lat="40.48824833" lon="-3.52028333">
        <ele>672.011</ele>
        <time>2019-07-01T18:52:21.935Z</time>
      </trkpt>
      <trkpt lat="40.48837833" lon="-3.520295">
        <ele>672.011</ele>
        <time>2019-07-01T18:52:22.935Z</time>
      </trkpt>
      <trkpt lat="40.48837833" lon="-3.520295">
        <ele>672.011</ele>
        <time>2019-07-01T18:52:23.935Z</time>
      </trkpt>
      <trkpt lat="40.48848833" lon="-3.520295">
        <ele>672.011</ele>
        <time>2019-07-01T18:52:24.935Z</time>
      </trkpt>
      <trkpt lat="40.48848833" lon="-3.520295">
        <ele>672.011</ele>
        <time>2019-07-01T18:52:25.935Z</time>
      </trkpt>
      <trkpt lat="40.48859" lon="-3.52029167">
        <ele>672.011</ele>
        <time>2019-07-01T18:52:26.935Z</time>
      </trkpt>
      <trkpt lat="40.48863667" lon="-3.52029">
        <ele>672.011</ele>
        <time>2019-07-01T18:52:27.935Z</time>
      </trkpt>
      <trkpt lat="40.48863667" lon="-3.52029">
        <ele>672.011</ele>
        <time>2019-07-01T18:52:28.935Z</time>
      </trkpt>
      <trkpt lat="40.488725" lon="-3.52028667">
        <ele>672.011</ele>
        <time>2019-07-01T18:52:29.935Z</time>
      </trkpt>
      <trkpt lat="40.48876833" lon="-3.520285">
        <ele>672.011</ele>
        <time>2019-07-01T18:52:30.935Z</time>
      </trkpt>
      <trkpt lat="40.48876833" lon="-3.520285">
        <ele>672.011</ele>
        <time>2019-07-01T18:52:31.935Z</time>
      </trkpt>
      <trkpt lat="40.48884833" lon="-3.52029">
        <ele>673.011</ele>
        <time>2019-07-01T18:52:32.935Z</time>
      </trkpt>
      <trkpt lat="40.48884833" lon="-3.52029">
        <ele>673.011</ele>
        <time>2019-07-01T18:52:33.935Z</time>
      </trkpt>
      <trkpt lat="40.48892" lon="-3.52029667">
        <ele>673.011</ele>
        <time>2019-07-01T18:52:34.935Z</time>
      </trkpt>
      <trkpt lat="40.48892" lon="-3.52029667">
        <ele>673.011</ele>
        <time>2019-07-01T18:52:35.935Z</time>
      </trkpt>
      <trkpt lat="40.48899" lon="-3.5203">
        <ele>674.011</ele>
        <time>2019-07-01T18:52:36.935Z</time>
      </trkpt>
      <trkpt lat="40.48899" lon="-3.5203">
        <ele>674.011</ele>
        <time>2019-07-01T18:52:37.935Z</time>
      </trkpt>
      <trkpt lat="40.48905833" lon="-3.52030667">
        <ele>674.011</ele>
        <time>2019-07-01T18:52:38.935Z</time>
      </trkpt>
      <trkpt lat="40.48908833" lon="-3.52031333">
        <ele>674.011</ele>
        <time>2019-07-01T18:52:39.935Z</time>
      </trkpt>
      <trkpt lat="40.48911667" lon="-3.52032333">
        <ele>675.011</ele>
        <time>2019-07-01T18:52:40.935Z</time>
      </trkpt>
      <trkpt lat="40.48911667" lon="-3.52032333">
        <ele>675.011</ele>
        <time>2019-07-01T18:52:41.935Z</time>
      </trkpt>
      <trkpt lat="40.48918" lon="-3.52035">
        <ele>675.011</ele>
        <time>2019-07-01T18:52:42.935Z</time>
      </trkpt>
      <trkpt lat="40.48918" lon="-3.52035">
        <ele>675.011</ele>
        <time>2019-07-01T18:52:43.935Z</time>
      </trkpt>
      <trkpt lat="40.489245" lon="-3.52037167">
        <ele>676.011</ele>
        <time>2019-07-01T18:52:44.935Z</time>
      </trkpt>
      <trkpt lat="40.489245" lon="-3.52037167">
        <ele>676.011</ele>
        <time>2019-07-01T18:52:45.935Z</time>
      </trkpt>
      <trkpt lat="40.48930167" lon="-3.52039833">
        <ele>677.011</ele>
        <time>2019-07-01T18:52:46.935Z</time>
      </trkpt>
      <trkpt lat="40.48933" lon="-3.52040833">
        <ele>677.011</ele>
        <time>2019-07-01T18:52:47.935Z</time>
      </trkpt>
      <trkpt lat="40.48936" lon="-3.52041833">
        <ele>678.011</ele>
        <time>2019-07-01T18:52:48.935Z</time>
      </trkpt>
      <trkpt lat="40.48936" lon="-3.52041833">
        <ele>678.011</ele>
        <time>2019-07-01T18:52:49.935Z</time>
      </trkpt>
      <trkpt lat="40.48942167" lon="-3.520445">
        <ele>678.011</ele>
        <time>2019-07-01T18:52:50.935Z</time>
      </trkpt>
      <trkpt lat="40.48942167" lon="-3.520445">
        <ele>678.011</ele>
        <time>2019-07-01T18:52:51.935Z</time>
      </trkpt>
      <trkpt lat="40.48948" lon="-3.52047667">
        <ele>679.011</ele>
        <time>2019-07-01T18:52:52.935Z</time>
      </trkpt>
      <trkpt lat="40.48951" lon="-3.52049333">
        <ele>679.011</ele>
        <time>2019-07-01T18:52:53.935Z</time>
      </trkpt>
      <trkpt lat="40.48951" lon="-3.52049333">
        <ele>680.011</ele>
        <time>2019-07-01T18:52:54.935Z</time>
      </trkpt>
      <trkpt lat="40.48957" lon="-3.52052833">
        <ele>680.011</ele>
        <time>2019-07-01T18:52:55.935Z</time>
      </trkpt>
      <trkpt lat="40.48957" lon="-3.52052833">
        <ele>681.011</ele>
        <time>2019-07-01T18:52:56.935Z</time>
      </trkpt>
      <trkpt lat="40.48963" lon="-3.520565">
        <ele>681.011</ele>
        <time>2019-07-01T18:52:57.935Z</time>
      </trkpt>
      <trkpt lat="40.48965833" lon="-3.520585">
        <ele>681.011</ele>
        <time>2019-07-01T18:52:58.935Z</time>
      </trkpt>
      <trkpt lat="40.489685" lon="-3.52060667">
        <ele>681.011</ele>
        <time>2019-07-01T18:52:59.935Z</time>
      </trkpt>
      <trkpt lat="40.489715" lon="-3.52062333">
        <ele>682.011</ele>
        <time>2019-07-01T18:53:00.935Z</time>
      </trkpt>
      <trkpt lat="40.489715" lon="-3.52062333">
        <ele>682.011</ele>
        <time>2019-07-01T18:53:01.935Z</time>
      </trkpt>
      <trkpt lat="40.48977667" lon="-3.52065667">
        <ele>682.011</ele>
        <time>2019-07-01T18:53:02.935Z</time>
      </trkpt>
      <trkpt lat="40.48977667" lon="-3.52065667">
        <ele>682.011</ele>
        <time>2019-07-01T18:53:03.935Z</time>
      </trkpt>
      <trkpt lat="40.48983" lon="-3.520695">
        <ele>683.011</ele>
        <time>2019-07-01T18:53:04.935Z</time>
      </trkpt>
      <trkpt lat="40.48983" lon="-3.520695">
        <ele>683.011</ele>
        <time>2019-07-01T18:53:05.935Z</time>
      </trkpt>
      <trkpt lat="40.48988333" lon="-3.52073">
        <ele>683.011</ele>
        <time>2019-07-01T18:53:06.935Z</time>
      </trkpt>
      <trkpt lat="40.48988333" lon="-3.52073">
        <ele>683.011</ele>
        <time>2019-07-01T18:53:07.935Z</time>
      </trkpt>
      <trkpt lat="40.48993333" lon="-3.52076667">
        <ele>684.011</ele>
        <time>2019-07-01T18:53:08.935Z</time>
      </trkpt>
      <trkpt lat="40.48993333" lon="-3.52076667">
        <ele>684.011</ele>
        <time>2019-07-01T18:53:09.935Z</time>
      </trkpt>
      <trkpt lat="40.48998333" lon="-3.52079667">
        <ele>684.011</ele>
        <time>2019-07-01T18:53:10.935Z</time>
      </trkpt>
      <trkpt lat="40.48998333" lon="-3.52079667">
        <ele>684.011</ele>
        <time>2019-07-01T18:53:11.935Z</time>
      </trkpt>
      <trkpt lat="40.49003667" lon="-3.52082333">
        <ele>684.011</ele>
        <time>2019-07-01T18:53:12.935Z</time>
      </trkpt>
      <trkpt lat="40.49003667" lon="-3.52082333">
        <ele>685.011</ele>
        <time>2019-07-01T18:53:13.935Z</time>
      </trkpt>
      <trkpt lat="40.49009333" lon="-3.52084667">
        <ele>685.011</ele>
        <time>2019-07-01T18:53:14.935Z</time>
      </trkpt>
      <trkpt lat="40.49009333" lon="-3.52084667">
        <ele>685.011</ele>
        <time>2019-07-01T18:53:15.935Z</time>
      </trkpt>
      <trkpt lat="40.49015333" lon="-3.52086167">
        <ele>685.011</ele>
        <time>2019-07-01T18:53:16.935Z</time>
      </trkpt>
      <trkpt lat="40.49018333" lon="-3.52087">
        <ele>687.011</ele>
        <time>2019-07-01T18:53:17.935Z</time>
      </trkpt>
      <trkpt lat="40.49021333" lon="-3.520875">
        <ele>687.011</ele>
        <time>2019-07-01T18:53:18.935Z</time>
      </trkpt>
      <trkpt lat="40.49021333" lon="-3.520875">
        <ele>687.011</ele>
        <time>2019-07-01T18:53:19.935Z</time>
      </trkpt>
      <trkpt lat="40.49027167" lon="-3.52088667">
        <ele>687.011</ele>
        <time>2019-07-01T18:53:20.935Z</time>
      </trkpt>
      <trkpt lat="40.49030333" lon="-3.52089">
        <ele>688.011</ele>
        <time>2019-07-01T18:53:21.935Z</time>
      </trkpt>
      <trkpt lat="40.49030333" lon="-3.52089">
        <ele>688.011</ele>
        <time>2019-07-01T18:53:22.935Z</time>
      </trkpt>
      <trkpt lat="40.49036667" lon="-3.52089833">
        <ele>689.011</ele>
        <time>2019-07-01T18:53:23.935Z</time>
      </trkpt>
      <trkpt lat="40.49036667" lon="-3.52089833">
        <ele>689.011</ele>
        <time>2019-07-01T18:53:24.935Z</time>
      </trkpt>
      <trkpt lat="40.49043" lon="-3.52090833">
        <ele>690.011</ele>
        <time>2019-07-01T18:53:25.935Z</time>
      </trkpt>
      <trkpt lat="40.49043" lon="-3.52090833">
        <ele>690.011</ele>
        <time>2019-07-01T18:53:26.935Z</time>
      </trkpt>
      <trkpt lat="40.49049" lon="-3.52091833">
        <ele>690.011</ele>
        <time>2019-07-01T18:53:27.935Z</time>
      </trkpt>
      <trkpt lat="40.49049" lon="-3.52091833">
        <ele>690.011</ele>
        <time>2019-07-01T18:53:28.935Z</time>
      </trkpt>
      <trkpt lat="40.49055" lon="-3.52092333">
        <ele>691.011</ele>
        <time>2019-07-01T18:53:29.935Z</time>
      </trkpt>
      <trkpt lat="40.49055" lon="-3.52092333">
        <ele>691.011</ele>
        <time>2019-07-01T18:53:30.935Z</time>
      </trkpt>
      <trkpt lat="40.49061167" lon="-3.52092">
        <ele>691.011</ele>
        <time>2019-07-01T18:53:31.935Z</time>
      </trkpt>
      <trkpt lat="40.49061167" lon="-3.52092">
        <ele>691.011</ele>
        <time>2019-07-01T18:53:32.935Z</time>
      </trkpt>
      <trkpt lat="40.49067167" lon="-3.52091833">
        <ele>692.011</ele>
        <time>2019-07-01T18:53:33.935Z</time>
      </trkpt>
      <trkpt lat="40.49067167" lon="-3.52091833">
        <ele>692.011</ele>
        <time>2019-07-01T18:53:34.935Z</time>
      </trkpt>
      <trkpt lat="40.49072833" lon="-3.52089667">
        <ele>692.011</ele>
        <time>2019-07-01T18:53:35.935Z</time>
      </trkpt>
      <trkpt lat="40.49072833" lon="-3.52089667">
        <ele>692.011</ele>
        <time>2019-07-01T18:53:36.935Z</time>
      </trkpt>
      <trkpt lat="40.49079167" lon="-3.52087">
        <ele>693.011</ele>
        <time>2019-07-01T18:53:37.935Z</time>
      </trkpt>
      <trkpt lat="40.49079167" lon="-3.52087">
        <ele>693.011</ele>
        <time>2019-07-01T18:53:38.935Z</time>
      </trkpt>
      <trkpt lat="40.49086333" lon="-3.52084833">
        <ele>693.011</ele>
        <time>2019-07-01T18:53:39.935Z</time>
      </trkpt>
      <trkpt lat="40.49086333" lon="-3.52084833">
        <ele>693.011</ele>
        <time>2019-07-01T18:53:40.935Z</time>
      </trkpt>
      <trkpt lat="40.490925" lon="-3.52083333">
        <ele>695.011</ele>
        <time>2019-07-01T18:53:41.935Z</time>
      </trkpt>
      <trkpt lat="40.49095333" lon="-3.52082333">
        <ele>695.011</ele>
        <time>2019-07-01T18:53:42.935Z</time>
      </trkpt>
      <trkpt lat="40.49095333" lon="-3.52082333">
        <ele>695.011</ele>
        <time>2019-07-01T18:53:43.935Z</time>
      </trkpt>
      <trkpt lat="40.49100833" lon="-3.52080667">
        <ele>695.011</ele>
        <time>2019-07-01T18:53:44.935Z</time>
      </trkpt>
      <trkpt lat="40.491035" lon="-3.5208">
        <ele>696.011</ele>
        <time>2019-07-01T18:53:45.935Z</time>
      </trkpt>
      <trkpt lat="40.491035" lon="-3.5208">
        <ele>696.011</ele>
        <time>2019-07-01T18:53:46.935Z</time>
      </trkpt>
      <trkpt lat="40.49109333" lon="-3.52079167">
        <ele>697.011</ele>
        <time>2019-07-01T18:53:47.935Z</time>
      </trkpt>
      <trkpt lat="40.49112333" lon="-3.52079">
        <ele>697.011</ele>
        <time>2019-07-01T18:53:48.935Z</time>
      </trkpt>
      <trkpt lat="40.49112333" lon="-3.52079">
        <ele>698.011</ele>
        <time>2019-07-01T18:53:49.935Z</time>
      </trkpt>
      <trkpt lat="40.49118667" lon="-3.520795">
        <ele>698.011</ele>
        <time>2019-07-01T18:53:50.935Z</time>
      </trkpt>
      <trkpt lat="40.49118667" lon="-3.520795">
        <ele>698.011</ele>
        <time>2019-07-01T18:53:51.935Z</time>
      </trkpt>
      <trkpt lat="40.49125" lon="-3.5208">
        <ele>698.011</ele>
        <time>2019-07-01T18:53:52.935Z</time>
      </trkpt>
      <trkpt lat="40.49125" lon="-3.5208">
        <ele>699.011</ele>
        <time>2019-07-01T18:53:53.935Z</time>
      </trkpt>
      <trkpt lat="40.491315" lon="-3.520805">
        <ele>699.011</ele>
        <time>2019-07-01T18:53:54.935Z</time>
      </trkpt>
      <trkpt lat="40.491315" lon="-3.520805">
        <ele>699.011</ele>
        <time>2019-07-01T18:53:55.935Z</time>
      </trkpt>
      <trkpt lat="40.49138333" lon="-3.520825">
        <ele>699.011</ele>
        <time>2019-07-01T18:53:56.935Z</time>
      </trkpt>
      <trkpt lat="40.49138333" lon="-3.520825">
        <ele>699.011</ele>
        <time>2019-07-01T18:53:57.935Z</time>
      </trkpt>
      <trkpt lat="40.49145167" lon="-3.520845">
        <ele>699.011</ele>
        <time>2019-07-01T18:53:58.935Z</time>
      </trkpt>
      <trkpt lat="40.49145167" lon="-3.520845">
        <ele>699.011</ele>
        <time>2019-07-01T18:53:59.935Z</time>
      </trkpt>
      <trkpt lat="40.491525" lon="-3.520865">
        <ele>700.011</ele>
        <time>2019-07-01T18:54:00.935Z</time>
      </trkpt>
      <trkpt lat="40.491525" lon="-3.520865">
        <ele>700.011</ele>
        <time>2019-07-01T18:54:01.935Z</time>
      </trkpt>
      <trkpt lat="40.49160167" lon="-3.52088833">
        <ele>700.011</ele>
        <time>2019-07-01T18:54:02.935Z</time>
      </trkpt>
      <trkpt lat="40.49160167" lon="-3.52088833">
        <ele>700.011</ele>
        <time>2019-07-01T18:54:03.935Z</time>
      </trkpt>
      <trkpt lat="40.49168" lon="-3.52091167">
        <ele>700.011</ele>
        <time>2019-07-01T18:54:04.935Z</time>
      </trkpt>
      <trkpt lat="40.49168" lon="-3.52091167">
        <ele>700.011</ele>
        <time>2019-07-01T18:54:05.935Z</time>
      </trkpt>
      <trkpt lat="40.49175833" lon="-3.52094167">
        <ele>700.011</ele>
        <time>2019-07-01T18:54:06.935Z</time>
      </trkpt>
      <trkpt lat="40.49175833" lon="-3.52094167">
        <ele>700.011</ele>
        <time>2019-07-01T18:54:07.935Z</time>
      </trkpt>
      <trkpt lat="40.49183667" lon="-3.520975">
        <ele>700.011</ele>
        <time>2019-07-01T18:54:08.935Z</time>
      </trkpt>
      <trkpt lat="40.49183667" lon="-3.520975">
        <ele>700.011</ele>
        <time>2019-07-01T18:54:09.935Z</time>
      </trkpt>
      <trkpt lat="40.49191833" lon="-3.52101167">
        <ele>700.011</ele>
        <time>2019-07-01T18:54:10.935Z</time>
      </trkpt>
      <trkpt lat="40.49196" lon="-3.52102833">
        <ele>701.011</ele>
        <time>2019-07-01T18:54:11.935Z</time>
      </trkpt>
      <trkpt lat="40.49200333" lon="-3.521045">
        <ele>701.011</ele>
        <time>2019-07-01T18:54:12.935Z</time>
      </trkpt>
      <trkpt lat="40.49200333" lon="-3.521045">
        <ele>701.011</ele>
        <time>2019-07-01T18:54:13.935Z</time>
      </trkpt>
      <trkpt lat="40.49208833" lon="-3.52108">
        <ele>701.011</ele>
        <time>2019-07-01T18:54:14.935Z</time>
      </trkpt>
      <trkpt lat="40.49208833" lon="-3.52108">
        <ele>701.011</ele>
        <time>2019-07-01T18:54:15.935Z</time>
      </trkpt>
      <trkpt lat="40.49217833" lon="-3.52111167">
        <ele>701.011</ele>
        <time>2019-07-01T18:54:16.935Z</time>
      </trkpt>
      <trkpt lat="40.49217833" lon="-3.52111167">
        <ele>701.011</ele>
        <time>2019-07-01T18:54:17.935Z</time>
      </trkpt>
      <trkpt lat="40.49227167" lon="-3.52114">
        <ele>701.011</ele>
        <time>2019-07-01T18:54:18.935Z</time>
      </trkpt>
      <trkpt lat="40.49227167" lon="-3.52114">
        <ele>701.011</ele>
        <time>2019-07-01T18:54:19.935Z</time>
      </trkpt>
      <trkpt lat="40.49237167" lon="-3.52116167">
        <ele>701.011</ele>
        <time>2019-07-01T18:54:20.935Z</time>
      </trkpt>
      <trkpt lat="40.49237167" lon="-3.52116167">
        <ele>701.011</ele>
        <time>2019-07-01T18:54:21.935Z</time>
      </trkpt>
      <trkpt lat="40.49247833" lon="-3.52118667">
        <ele>701.011</ele>
        <time>2019-07-01T18:54:22.935Z</time>
      </trkpt>
      <trkpt lat="40.49247833" lon="-3.52118667">
        <ele>701.011</ele>
        <time>2019-07-01T18:54:23.935Z</time>
      </trkpt>
      <trkpt lat="40.492595" lon="-3.52121">
        <ele>701.011</ele>
        <time>2019-07-01T18:54:24.935Z</time>
      </trkpt>
      <trkpt lat="40.492595" lon="-3.52121">
        <ele>701.011</ele>
        <time>2019-07-01T18:54:25.935Z</time>
      </trkpt>
      <trkpt lat="40.49271833" lon="-3.52122667">
        <ele>701.011</ele>
        <time>2019-07-01T18:54:26.935Z</time>
      </trkpt>
      <trkpt lat="40.49271833" lon="-3.52122667">
        <ele>701.011</ele>
        <time>2019-07-01T18:54:27.935Z</time>
      </trkpt>
      <trkpt lat="40.49284167" lon="-3.52123667">
        <ele>701.011</ele>
        <time>2019-07-01T18:54:28.935Z</time>
      </trkpt>
      <trkpt lat="40.49284167" lon="-3.52123667">
        <ele>701.011</ele>
        <time>2019-07-01T18:54:29.935Z</time>
      </trkpt>
      <trkpt lat="40.49296833" lon="-3.521235">
        <ele>701.011</ele>
        <time>2019-07-01T18:54:30.935Z</time>
      </trkpt>
      <trkpt lat="40.49296833" lon="-3.521235">
        <ele>701.011</ele>
        <time>2019-07-01T18:54:31.935Z</time>
      </trkpt>
      <trkpt lat="40.49309333" lon="-3.521225">
        <ele>701.011</ele>
        <time>2019-07-01T18:54:32.935Z</time>
      </trkpt>
      <trkpt lat="40.49309333" lon="-3.521225">
        <ele>701.011</ele>
        <time>2019-07-01T18:54:33.935Z</time>
      </trkpt>
      <trkpt lat="40.49322167" lon="-3.52121667">
        <ele>701.011</ele>
        <time>2019-07-01T18:54:34.935Z</time>
      </trkpt>
      <trkpt lat="40.49322167" lon="-3.52121667">
        <ele>701.011</ele>
        <time>2019-07-01T18:54:35.935Z</time>
      </trkpt>
      <trkpt lat="40.49335167" lon="-3.52121167">
        <ele>701.011</ele>
        <time>2019-07-01T18:54:36.935Z</time>
      </trkpt>
      <trkpt lat="40.49335167" lon="-3.52121167">
        <ele>701.011</ele>
        <time>2019-07-01T18:54:37.935Z</time>
      </trkpt>
      <trkpt lat="40.49347333" lon="-3.52121167">
        <ele>701.011</ele>
        <time>2019-07-01T18:54:38.935Z</time>
      </trkpt>
      <trkpt lat="40.49347333" lon="-3.52121167">
        <ele>701.011</ele>
        <time>2019-07-01T18:54:39.935Z</time>
      </trkpt>
      <trkpt lat="40.49359333" lon="-3.521215">
        <ele>701.011</ele>
        <time>2019-07-01T18:54:40.935Z</time>
      </trkpt>
      <trkpt lat="40.493655" lon="-3.52121667">
        <ele>701.011</ele>
        <time>2019-07-01T18:54:41.935Z</time>
      </trkpt>
      <trkpt lat="40.493655" lon="-3.52121667">
        <ele>701.011</ele>
        <time>2019-07-01T18:54:42.935Z</time>
      </trkpt>
      <trkpt lat="40.49378167" lon="-3.52123167">
        <ele>701.011</ele>
        <time>2019-07-01T18:54:43.935Z</time>
      </trkpt>
      <trkpt lat="40.49384833" lon="-3.52123667">
        <ele>701.011</ele>
        <time>2019-07-01T18:54:44.935Z</time>
      </trkpt>
      <trkpt lat="40.49384833" lon="-3.52123667">
        <ele>701.011</ele>
        <time>2019-07-01T18:54:45.935Z</time>
      </trkpt>
      <trkpt lat="40.49397833" lon="-3.52124833">
        <ele>701.011</ele>
        <time>2019-07-01T18:54:46.935Z</time>
      </trkpt>
      <trkpt lat="40.49404333" lon="-3.52125333">
        <ele>701.011</ele>
        <time>2019-07-01T18:54:47.935Z</time>
      </trkpt>
      <trkpt lat="40.49404333" lon="-3.52125333">
        <ele>701.011</ele>
        <time>2019-07-01T18:54:48.935Z</time>
      </trkpt>
      <trkpt lat="40.49417" lon="-3.52126667">
        <ele>701.011</ele>
        <time>2019-07-01T18:54:49.935Z</time>
      </trkpt>
      <trkpt lat="40.494235" lon="-3.52127333">
        <ele>701.011</ele>
        <time>2019-07-01T18:54:50.935Z</time>
      </trkpt>
      <trkpt lat="40.49429833" lon="-3.52127833">
        <ele>701.011</ele>
        <time>2019-07-01T18:54:51.935Z</time>
      </trkpt>
      <trkpt lat="40.49429833" lon="-3.52127833">
        <ele>701.011</ele>
        <time>2019-07-01T18:54:52.935Z</time>
      </trkpt>
      <trkpt lat="40.49443" lon="-3.52128833">
        <ele>701.011</ele>
        <time>2019-07-01T18:54:53.935Z</time>
      </trkpt>
      <trkpt lat="40.494495" lon="-3.52129667">
        <ele>700.011</ele>
        <time>2019-07-01T18:54:54.935Z</time>
      </trkpt>
      <trkpt lat="40.494495" lon="-3.52129667">
        <ele>700.011</ele>
        <time>2019-07-01T18:54:55.935Z</time>
      </trkpt>
      <trkpt lat="40.49462667" lon="-3.52132">
        <ele>700.011</ele>
        <time>2019-07-01T18:54:56.935Z</time>
      </trkpt>
      <trkpt lat="40.49469333" lon="-3.52133333">
        <ele>700.011</ele>
        <time>2019-07-01T18:54:57.935Z</time>
      </trkpt>
      <trkpt lat="40.49469333" lon="-3.52133333">
        <ele>700.011</ele>
        <time>2019-07-01T18:54:58.935Z</time>
      </trkpt>
      <trkpt lat="40.49482667" lon="-3.52136167">
        <ele>700.011</ele>
        <time>2019-07-01T18:54:59.935Z</time>
      </trkpt>
      <trkpt lat="40.49489667" lon="-3.52137833">
        <ele>699.011</ele>
        <time>2019-07-01T18:55:00.935Z</time>
      </trkpt>
      <trkpt lat="40.49489667" lon="-3.52137833">
        <ele>699.011</ele>
        <time>2019-07-01T18:55:01.935Z</time>
      </trkpt>
      <trkpt lat="40.49503333" lon="-3.52143667">
        <ele>699.011</ele>
        <time>2019-07-01T18:55:02.935Z</time>
      </trkpt>
      <trkpt lat="40.49503333" lon="-3.52143667">
        <ele>699.011</ele>
        <time>2019-07-01T18:55:03.935Z</time>
      </trkpt>
      <trkpt lat="40.495175" lon="-3.52149833">
        <ele>698.011</ele>
        <time>2019-07-01T18:55:04.935Z</time>
      </trkpt>
      <trkpt lat="40.495175" lon="-3.52149833">
        <ele>698.011</ele>
        <time>2019-07-01T18:55:05.935Z</time>
      </trkpt>
      <trkpt lat="40.49531833" lon="-3.52155833">
        <ele>698.011</ele>
        <time>2019-07-01T18:55:06.935Z</time>
      </trkpt>
      <trkpt lat="40.49531833" lon="-3.52155833">
        <ele>698.011</ele>
        <time>2019-07-01T18:55:07.935Z</time>
      </trkpt>
      <trkpt lat="40.49546333" lon="-3.52161667">
        <ele>698.011</ele>
        <time>2019-07-01T18:55:08.935Z</time>
      </trkpt>
      <trkpt lat="40.49546333" lon="-3.52161667">
        <ele>697.011</ele>
        <time>2019-07-01T18:55:09.935Z</time>
      </trkpt>
      <trkpt lat="40.49560333" lon="-3.52167167">
        <ele>697.011</ele>
        <time>2019-07-01T18:55:10.935Z</time>
      </trkpt>
      <trkpt lat="40.49560333" lon="-3.52167167">
        <ele>697.011</ele>
        <time>2019-07-01T18:55:11.935Z</time>
      </trkpt>
      <trkpt lat="40.49573667" lon="-3.52172667">
        <ele>697.011</ele>
        <time>2019-07-01T18:55:12.935Z</time>
      </trkpt>
      <trkpt lat="40.49573667" lon="-3.52172667">
        <ele>697.011</ele>
        <time>2019-07-01T18:55:13.935Z</time>
      </trkpt>
      <trkpt lat="40.49586333" lon="-3.52178167">
        <ele>697.011</ele>
        <time>2019-07-01T18:55:14.935Z</time>
      </trkpt>
      <trkpt lat="40.49586333" lon="-3.52178167">
        <ele>697.011</ele>
        <time>2019-07-01T18:55:15.935Z</time>
      </trkpt>
      <trkpt lat="40.495975" lon="-3.521855">
        <ele>697.011</ele>
        <time>2019-07-01T18:55:16.935Z</time>
      </trkpt>
      <trkpt lat="40.49600667" lon="-3.52191333">
        <ele>698.011</ele>
        <time>2019-07-01T18:55:17.935Z</time>
      </trkpt>
      <trkpt lat="40.49600667" lon="-3.52191333">
        <ele>698.011</ele>
        <time>2019-07-01T18:55:18.935Z</time>
      </trkpt>
      <trkpt lat="40.49598333" lon="-3.52203333">
        <ele>698.011</ele>
        <time>2019-07-01T18:55:19.935Z</time>
      </trkpt>
      <trkpt lat="40.49598333" lon="-3.52203333">
        <ele>698.011</ele>
        <time>2019-07-01T18:55:20.935Z</time>
      </trkpt>
      <trkpt lat="40.49589167" lon="-3.522125">
        <ele>698.011</ele>
        <time>2019-07-01T18:55:21.935Z</time>
      </trkpt>
      <trkpt lat="40.49589167" lon="-3.522125">
        <ele>698.011</ele>
        <time>2019-07-01T18:55:22.935Z</time>
      </trkpt>
      <trkpt lat="40.495805" lon="-3.52223167">
        <ele>698.011</ele>
        <time>2019-07-01T18:55:23.935Z</time>
      </trkpt>
      <trkpt lat="40.495765" lon="-3.52229333">
        <ele>698.011</ele>
        <time>2019-07-01T18:55:24.935Z</time>
      </trkpt>
      <trkpt lat="40.495765" lon="-3.52229333">
        <ele>698.011</ele>
        <time>2019-07-01T18:55:25.935Z</time>
      </trkpt>
      <trkpt lat="40.49569167" lon="-3.52242667">
        <ele>698.011</ele>
        <time>2019-07-01T18:55:26.935Z</time>
      </trkpt>
      <trkpt lat="40.49569167" lon="-3.52242667">
        <ele>698.011</ele>
        <time>2019-07-01T18:55:27.935Z</time>
      </trkpt>
      <trkpt lat="40.49562" lon="-3.52256167">
        <ele>698.011</ele>
        <time>2019-07-01T18:55:28.935Z</time>
      </trkpt>
      <trkpt lat="40.49562" lon="-3.52256167">
        <ele>698.011</ele>
        <time>2019-07-01T18:55:29.935Z</time>
      </trkpt>
      <trkpt lat="40.495545" lon="-3.52269">
        <ele>698.011</ele>
        <time>2019-07-01T18:55:30.935Z</time>
      </trkpt>
      <trkpt lat="40.495545" lon="-3.52269">
        <ele>698.011</ele>
        <time>2019-07-01T18:55:31.935Z</time>
      </trkpt>
      <trkpt lat="40.49547333" lon="-3.52282167">
        <ele>697.011</ele>
        <time>2019-07-01T18:55:32.935Z</time>
      </trkpt>
      <trkpt lat="40.49543667" lon="-3.52289">
        <ele>697.011</ele>
        <time>2019-07-01T18:55:33.935Z</time>
      </trkpt>
      <trkpt lat="40.49543667" lon="-3.52289">
        <ele>697.011</ele>
        <time>2019-07-01T18:55:34.935Z</time>
      </trkpt>
      <trkpt lat="40.49536333" lon="-3.52302333">
        <ele>697.011</ele>
        <time>2019-07-01T18:55:35.935Z</time>
      </trkpt>
      <trkpt lat="40.49532667" lon="-3.52309333">
        <ele>697.011</ele>
        <time>2019-07-01T18:55:36.935Z</time>
      </trkpt>
      <trkpt lat="40.49532667" lon="-3.52309333">
        <ele>697.011</ele>
        <time>2019-07-01T18:55:37.935Z</time>
      </trkpt>
      <trkpt lat="40.495265" lon="-3.52323667">
        <ele>697.011</ele>
        <time>2019-07-01T18:55:38.935Z</time>
      </trkpt>
      <trkpt lat="40.495265" lon="-3.52323667">
        <ele>697.011</ele>
        <time>2019-07-01T18:55:39.935Z</time>
      </trkpt>
      <trkpt lat="40.495215" lon="-3.52338167">
        <ele>697.011</ele>
        <time>2019-07-01T18:55:40.935Z</time>
      </trkpt>
      <trkpt lat="40.495215" lon="-3.52338167">
        <ele>697.011</ele>
        <time>2019-07-01T18:55:41.935Z</time>
      </trkpt>
      <trkpt lat="40.49517667" lon="-3.52352667">
        <ele>697.011</ele>
        <time>2019-07-01T18:55:42.935Z</time>
      </trkpt>
      <trkpt lat="40.49517667" lon="-3.52352667">
        <ele>697.011</ele>
        <time>2019-07-01T18:55:43.935Z</time>
      </trkpt>
      <trkpt lat="40.49515167" lon="-3.52366167">
        <ele>697.011</ele>
        <time>2019-07-01T18:55:44.935Z</time>
      </trkpt>
      <trkpt lat="40.49515167" lon="-3.52366167">
        <ele>697.011</ele>
        <time>2019-07-01T18:55:45.935Z</time>
      </trkpt>
      <trkpt lat="40.49513833" lon="-3.5238">
        <ele>697.011</ele>
        <time>2019-07-01T18:55:46.935Z</time>
      </trkpt>
      <trkpt lat="40.49513667" lon="-3.52387167">
        <ele>697.011</ele>
        <time>2019-07-01T18:55:47.935Z</time>
      </trkpt>
      <trkpt lat="40.49513667" lon="-3.52387167">
        <ele>697.011</ele>
        <time>2019-07-01T18:55:48.935Z</time>
      </trkpt>
      <trkpt lat="40.49513333" lon="-3.52401167">
        <ele>697.011</ele>
        <time>2019-07-01T18:55:49.935Z</time>
      </trkpt>
      <trkpt lat="40.49513333" lon="-3.52401167">
        <ele>697.011</ele>
        <time>2019-07-01T18:55:50.935Z</time>
      </trkpt>
      <trkpt lat="40.49514167" lon="-3.52415">
        <ele>697.011</ele>
        <time>2019-07-01T18:55:51.935Z</time>
      </trkpt>
      <trkpt lat="40.49514167" lon="-3.52415">
        <ele>698.011</ele>
        <time>2019-07-01T18:55:52.935Z</time>
      </trkpt>
      <trkpt lat="40.49515333" lon="-3.524285">
        <ele>698.011</ele>
        <time>2019-07-01T18:55:53.935Z</time>
      </trkpt>
      <trkpt lat="40.49516333" lon="-3.52435">
        <ele>698.011</ele>
        <time>2019-07-01T18:55:54.935Z</time>
      </trkpt>
      <trkpt lat="40.49516333" lon="-3.52435">
        <ele>698.011</ele>
        <time>2019-07-01T18:55:55.935Z</time>
      </trkpt>
      <trkpt lat="40.49518667" lon="-3.52447667">
        <ele>698.011</ele>
        <time>2019-07-01T18:55:56.935Z</time>
      </trkpt>
      <trkpt lat="40.49518667" lon="-3.52447667">
        <ele>698.011</ele>
        <time>2019-07-01T18:55:57.935Z</time>
      </trkpt>
      <trkpt lat="40.49522667" lon="-3.52461667">
        <ele>698.011</ele>
        <time>2019-07-01T18:55:58.935Z</time>
      </trkpt>
      <trkpt lat="40.49522667" lon="-3.52461667">
        <ele>698.011</ele>
        <time>2019-07-01T18:55:59.935Z</time>
      </trkpt>
      <trkpt lat="40.49527" lon="-3.524755">
        <ele>698.011</ele>
        <time>2019-07-01T18:56:00.935Z</time>
      </trkpt>
      <trkpt lat="40.49529667" lon="-3.52482833">
        <ele>698.011</ele>
        <time>2019-07-01T18:56:01.935Z</time>
      </trkpt>
      <trkpt lat="40.49529667" lon="-3.52482833">
        <ele>698.011</ele>
        <time>2019-07-01T18:56:02.935Z</time>
      </trkpt>
      <trkpt lat="40.49535833" lon="-3.52497">
        <ele>697.011</ele>
        <time>2019-07-01T18:56:03.935Z</time>
      </trkpt>
      <trkpt lat="40.49535833" lon="-3.52497">
        <ele>697.011</ele>
        <time>2019-07-01T18:56:04.935Z</time>
      </trkpt>
      <trkpt lat="40.49542167" lon="-3.5251">
        <ele>697.011</ele>
        <time>2019-07-01T18:56:05.935Z</time>
      </trkpt>
      <trkpt lat="40.49542167" lon="-3.5251">
        <ele>697.011</ele>
        <time>2019-07-01T18:56:06.935Z</time>
      </trkpt>
      <trkpt lat="40.49548833" lon="-3.52522333">
        <ele>697.011</ele>
        <time>2019-07-01T18:56:07.935Z</time>
      </trkpt>
      <trkpt lat="40.49552667" lon="-3.525285">
        <ele>697.011</ele>
        <time>2019-07-01T18:56:08.935Z</time>
      </trkpt>
      <trkpt lat="40.49552667" lon="-3.525285">
        <ele>697.011</ele>
        <time>2019-07-01T18:56:09.935Z</time>
      </trkpt>
      <trkpt lat="40.49560667" lon="-3.52540833">
        <ele>697.011</ele>
        <time>2019-07-01T18:56:10.935Z</time>
      </trkpt>
      <trkpt lat="40.49564833" lon="-3.52547167">
        <ele>697.011</ele>
        <time>2019-07-01T18:56:11.935Z</time>
      </trkpt>
      <trkpt lat="40.49564833" lon="-3.52547167">
        <ele>697.011</ele>
        <time>2019-07-01T18:56:12.935Z</time>
      </trkpt>
      <trkpt lat="40.49573667" lon="-3.52559833">
        <ele>697.011</ele>
        <time>2019-07-01T18:56:13.935Z</time>
      </trkpt>
      <trkpt lat="40.49578333" lon="-3.52565833">
        <ele>696.011</ele>
        <time>2019-07-01T18:56:14.935Z</time>
      </trkpt>
      <trkpt lat="40.49578333" lon="-3.52565833">
        <ele>696.011</ele>
        <time>2019-07-01T18:56:15.935Z</time>
      </trkpt>
      <trkpt lat="40.49588167" lon="-3.52577333">
        <ele>696.011</ele>
        <time>2019-07-01T18:56:16.935Z</time>
      </trkpt>
      <trkpt lat="40.49588167" lon="-3.52577333">
        <ele>696.011</ele>
        <time>2019-07-01T18:56:17.935Z</time>
      </trkpt>
      <trkpt lat="40.49598" lon="-3.525885">
        <ele>696.011</ele>
        <time>2019-07-01T18:56:18.935Z</time>
      </trkpt>
      <trkpt lat="40.49598" lon="-3.525885">
        <ele>696.011</ele>
        <time>2019-07-01T18:56:19.935Z</time>
      </trkpt>
      <trkpt lat="40.49608167" lon="-3.52598833">
        <ele>696.011</ele>
        <time>2019-07-01T18:56:20.935Z</time>
      </trkpt>
      <trkpt lat="40.49613333" lon="-3.52603833">
        <ele>696.011</ele>
        <time>2019-07-01T18:56:21.935Z</time>
      </trkpt>
      <trkpt lat="40.49613333" lon="-3.52603833">
        <ele>696.011</ele>
        <time>2019-07-01T18:56:22.935Z</time>
      </trkpt>
      <trkpt lat="40.49624" lon="-3.52612833">
        <ele>696.011</ele>
        <time>2019-07-01T18:56:23.935Z</time>
      </trkpt>
      <trkpt lat="40.49629333" lon="-3.52616833">
        <ele>695.011</ele>
        <time>2019-07-01T18:56:24.935Z</time>
      </trkpt>
      <trkpt lat="40.49629333" lon="-3.52616833">
        <ele>695.011</ele>
        <time>2019-07-01T18:56:25.935Z</time>
      </trkpt>
      <trkpt lat="40.49640333" lon="-3.52624333">
        <ele>695.011</ele>
        <time>2019-07-01T18:56:26.935Z</time>
      </trkpt>
      <trkpt lat="40.49646" lon="-3.52628">
        <ele>695.011</ele>
        <time>2019-07-01T18:56:27.935Z</time>
      </trkpt>
      <trkpt lat="40.49646" lon="-3.52628">
        <ele>695.011</ele>
        <time>2019-07-01T18:56:28.935Z</time>
      </trkpt>
      <trkpt lat="40.496575" lon="-3.52634333">
        <ele>695.011</ele>
        <time>2019-07-01T18:56:29.935Z</time>
      </trkpt>
      <trkpt lat="40.496575" lon="-3.52634333">
        <ele>695.011</ele>
        <time>2019-07-01T18:56:30.935Z</time>
      </trkpt>
      <trkpt lat="40.49668833" lon="-3.52640167">
        <ele>695.011</ele>
        <time>2019-07-01T18:56:31.935Z</time>
      </trkpt>
      <trkpt lat="40.49668833" lon="-3.52640167">
        <ele>695.011</ele>
        <time>2019-07-01T18:56:32.935Z</time>
      </trkpt>
      <trkpt lat="40.49680333" lon="-3.52645">
        <ele>695.011</ele>
        <time>2019-07-01T18:56:33.935Z</time>
      </trkpt>
      <trkpt lat="40.49680333" lon="-3.52645">
        <ele>695.011</ele>
        <time>2019-07-01T18:56:34.935Z</time>
      </trkpt>
      <trkpt lat="40.49691667" lon="-3.52648667">
        <ele>695.011</ele>
        <time>2019-07-01T18:56:35.935Z</time>
      </trkpt>
      <trkpt lat="40.496975" lon="-3.526505">
        <ele>695.011</ele>
        <time>2019-07-01T18:56:36.935Z</time>
      </trkpt>
      <trkpt lat="40.496975" lon="-3.526505">
        <ele>695.011</ele>
        <time>2019-07-01T18:56:37.935Z</time>
      </trkpt>
      <trkpt lat="40.49709" lon="-3.52653833">
        <ele>695.011</ele>
        <time>2019-07-01T18:56:38.935Z</time>
      </trkpt>
      <trkpt lat="40.49714667" lon="-3.526555">
        <ele>695.011</ele>
        <time>2019-07-01T18:56:39.935Z</time>
      </trkpt>
      <trkpt lat="40.49714667" lon="-3.526555">
        <ele>695.011</ele>
        <time>2019-07-01T18:56:40.935Z</time>
      </trkpt>
      <trkpt lat="40.49725667" lon="-3.526585">
        <ele>694.011</ele>
        <time>2019-07-01T18:56:41.935Z</time>
      </trkpt>
      <trkpt lat="40.49731333" lon="-3.52659667">
        <ele>694.011</ele>
        <time>2019-07-01T18:56:42.935Z</time>
      </trkpt>
      <trkpt lat="40.49731333" lon="-3.52659667">
        <ele>694.011</ele>
        <time>2019-07-01T18:56:43.935Z</time>
      </trkpt>
      <trkpt lat="40.49743167" lon="-3.526615">
        <ele>694.011</ele>
        <time>2019-07-01T18:56:44.935Z</time>
      </trkpt>
      <trkpt lat="40.49748667" lon="-3.52662167">
        <ele>694.011</ele>
        <time>2019-07-01T18:56:45.935Z</time>
      </trkpt>
      <trkpt lat="40.49748667" lon="-3.52662167">
        <ele>694.011</ele>
        <time>2019-07-01T18:56:46.935Z</time>
      </trkpt>
      <trkpt lat="40.49760333" lon="-3.526625">
        <ele>693.011</ele>
        <time>2019-07-01T18:56:47.935Z</time>
      </trkpt>
      <trkpt lat="40.49766333" lon="-3.52662167">
        <ele>693.011</ele>
        <time>2019-07-01T18:56:48.935Z</time>
      </trkpt>
      <trkpt lat="40.49766333" lon="-3.52662167">
        <ele>693.011</ele>
        <time>2019-07-01T18:56:49.935Z</time>
      </trkpt>
      <trkpt lat="40.49777833" lon="-3.52661">
        <ele>693.011</ele>
        <time>2019-07-01T18:56:50.935Z</time>
      </trkpt>
      <trkpt lat="40.49783667" lon="-3.5266">
        <ele>693.011</ele>
        <time>2019-07-01T18:56:51.935Z</time>
      </trkpt>
      <trkpt lat="40.49783667" lon="-3.5266">
        <ele>693.011</ele>
        <time>2019-07-01T18:56:52.935Z</time>
      </trkpt>
      <trkpt lat="40.49794667" lon="-3.52658">
        <ele>692.011</ele>
        <time>2019-07-01T18:56:53.935Z</time>
      </trkpt>
      <trkpt lat="40.498" lon="-3.52657">
        <ele>692.011</ele>
        <time>2019-07-01T18:56:54.935Z</time>
      </trkpt>
      <trkpt lat="40.498" lon="-3.52657">
        <ele>692.011</ele>
        <time>2019-07-01T18:56:55.935Z</time>
      </trkpt>
      <trkpt lat="40.498105" lon="-3.526545">
        <ele>692.011</ele>
        <time>2019-07-01T18:56:56.935Z</time>
      </trkpt>
      <trkpt lat="40.49816" lon="-3.526535">
        <ele>691.011</ele>
        <time>2019-07-01T18:56:57.935Z</time>
      </trkpt>
      <trkpt lat="40.49816" lon="-3.526535">
        <ele>691.011</ele>
        <time>2019-07-01T18:56:58.935Z</time>
      </trkpt>
      <trkpt lat="40.49826667" lon="-3.526505">
        <ele>691.011</ele>
        <time>2019-07-01T18:56:59.935Z</time>
      </trkpt>
      <trkpt lat="40.49832167" lon="-3.52647833">
        <ele>691.011</ele>
        <time>2019-07-01T18:57:00.935Z</time>
      </trkpt>
      <trkpt lat="40.49832167" lon="-3.52647833">
        <ele>690.011</ele>
        <time>2019-07-01T18:57:01.935Z</time>
      </trkpt>
      <trkpt lat="40.49842667" lon="-3.52643333">
        <ele>690.011</ele>
        <time>2019-07-01T18:57:02.935Z</time>
      </trkpt>
      <trkpt lat="40.49842667" lon="-3.52643333">
        <ele>690.011</ele>
        <time>2019-07-01T18:57:03.935Z</time>
      </trkpt>
      <trkpt lat="40.49852833" lon="-3.52644">
        <ele>690.011</ele>
        <time>2019-07-01T18:57:04.935Z</time>
      </trkpt>
      <trkpt lat="40.49852833" lon="-3.52644">
        <ele>690.011</ele>
        <time>2019-07-01T18:57:05.935Z</time>
      </trkpt>
      <trkpt lat="40.49858" lon="-3.52655167">
        <ele>690.011</ele>
        <time>2019-07-01T18:57:06.935Z</time>
      </trkpt>
      <trkpt lat="40.49858" lon="-3.52655167">
        <ele>690.011</ele>
        <time>2019-07-01T18:57:07.935Z</time>
      </trkpt>
      <trkpt lat="40.49861667" lon="-3.52669833">
        <ele>689.011</ele>
        <time>2019-07-01T18:57:08.935Z</time>
      </trkpt>
      <trkpt lat="40.49861667" lon="-3.52669833">
        <ele>689.011</ele>
        <time>2019-07-01T18:57:09.935Z</time>
      </trkpt>
      <trkpt lat="40.49864167" lon="-3.52686667">
        <ele>688.011</ele>
        <time>2019-07-01T18:57:10.935Z</time>
      </trkpt>
      <trkpt lat="40.49864667" lon="-3.52695833">
        <ele>688.011</ele>
        <time>2019-07-01T18:57:11.935Z</time>
      </trkpt>
      <trkpt lat="40.49865" lon="-3.52705833">
        <ele>688.011</ele>
        <time>2019-07-01T18:57:12.935Z</time>
      </trkpt>
      <trkpt lat="40.49865" lon="-3.52705833">
        <ele>688.011</ele>
        <time>2019-07-01T18:57:13.935Z</time>
      </trkpt>
      <trkpt lat="40.49865833" lon="-3.52727667">
        <ele>687.011</ele>
        <time>2019-07-01T18:57:14.935Z</time>
      </trkpt>
      <trkpt lat="40.49866" lon="-3.52739">
        <ele>687.011</ele>
        <time>2019-07-01T18:57:15.935Z</time>
      </trkpt>
      <trkpt lat="40.49866" lon="-3.52739">
        <ele>686.011</ele>
        <time>2019-07-01T18:57:16.935Z</time>
      </trkpt>
      <trkpt lat="40.49866667" lon="-3.52763667">
        <ele>686.011</ele>
        <time>2019-07-01T18:57:17.935Z</time>
      </trkpt>
      <trkpt lat="40.49867" lon="-3.527765">
        <ele>685.011</ele>
        <time>2019-07-01T18:57:18.935Z</time>
      </trkpt>
      <trkpt lat="40.49867" lon="-3.527765">
        <ele>685.011</ele>
        <time>2019-07-01T18:57:19.935Z</time>
      </trkpt>
      <trkpt lat="40.49866333" lon="-3.52803333">
        <ele>684.011</ele>
        <time>2019-07-01T18:57:20.935Z</time>
      </trkpt>
      <trkpt lat="40.49866333" lon="-3.52803333">
        <ele>684.011</ele>
        <time>2019-07-01T18:57:21.935Z</time>
      </trkpt>
      <trkpt lat="40.49865167" lon="-3.52830333">
        <ele>683.011</ele>
        <time>2019-07-01T18:57:22.935Z</time>
      </trkpt>
      <trkpt lat="40.498645" lon="-3.528435">
        <ele>683.011</ele>
        <time>2019-07-01T18:57:23.935Z</time>
      </trkpt>
      <trkpt lat="40.498645" lon="-3.528435">
        <ele>682.011</ele>
        <time>2019-07-01T18:57:24.935Z</time>
      </trkpt>
      <trkpt lat="40.498635" lon="-3.52868333">
        <ele>682.011</ele>
        <time>2019-07-01T18:57:25.935Z</time>
      </trkpt>
      <trkpt lat="40.498635" lon="-3.52868333">
        <ele>682.011</ele>
        <time>2019-07-01T18:57:26.935Z</time>
      </trkpt>
      <trkpt lat="40.49861833" lon="-3.52892833">
        <ele>682.011</ele>
        <time>2019-07-01T18:57:27.935Z</time>
      </trkpt>
      <trkpt lat="40.49861833" lon="-3.52892833">
        <ele>681.011</ele>
        <time>2019-07-01T18:57:28.935Z</time>
      </trkpt>
      <trkpt lat="40.49859833" lon="-3.529165">
        <ele>681.011</ele>
        <time>2019-07-01T18:57:29.935Z</time>
      </trkpt>
      <trkpt lat="40.498585" lon="-3.52928">
        <ele>681.011</ele>
        <time>2019-07-01T18:57:30.935Z</time>
      </trkpt>
      <trkpt lat="40.498585" lon="-3.52928">
        <ele>681.011</ele>
        <time>2019-07-01T18:57:31.935Z</time>
      </trkpt>
      <trkpt lat="40.498555" lon="-3.529505">
        <ele>681.011</ele>
        <time>2019-07-01T18:57:32.935Z</time>
      </trkpt>
      <trkpt lat="40.49854" lon="-3.529615">
        <ele>681.011</ele>
        <time>2019-07-01T18:57:33.935Z</time>
      </trkpt>
      <trkpt lat="40.49854" lon="-3.529615">
        <ele>680.011</ele>
        <time>2019-07-01T18:57:34.935Z</time>
      </trkpt>
      <trkpt lat="40.49850167" lon="-3.52983333">
        <ele>680.011</ele>
        <time>2019-07-01T18:57:35.935Z</time>
      </trkpt>
      <trkpt lat="40.49848167" lon="-3.52994">
        <ele>680.011</ele>
        <time>2019-07-01T18:57:36.935Z</time>
      </trkpt>
      <trkpt lat="40.49848167" lon="-3.52994">
        <ele>680.011</ele>
        <time>2019-07-01T18:57:37.935Z</time>
      </trkpt>
      <trkpt lat="40.49844333" lon="-3.530155">
        <ele>680.011</ele>
        <time>2019-07-01T18:57:38.935Z</time>
      </trkpt>
      <trkpt lat="40.49842167" lon="-3.53026667">
        <ele>680.011</ele>
        <time>2019-07-01T18:57:39.935Z</time>
      </trkpt>
      <trkpt lat="40.49839667" lon="-3.53037667">
        <ele>680.011</ele>
        <time>2019-07-01T18:57:40.935Z</time>
      </trkpt>
      <trkpt lat="40.49839667" lon="-3.53037667">
        <ele>680.011</ele>
        <time>2019-07-01T18:57:41.935Z</time>
      </trkpt>
      <trkpt lat="40.49834667" lon="-3.53059333">
        <ele>680.011</ele>
        <time>2019-07-01T18:57:42.935Z</time>
      </trkpt>
      <trkpt lat="40.49834667" lon="-3.53059333">
        <ele>680.011</ele>
        <time>2019-07-01T18:57:43.935Z</time>
      </trkpt>
      <trkpt lat="40.49829333" lon="-3.53081167">
        <ele>680.011</ele>
        <time>2019-07-01T18:57:44.935Z</time>
      </trkpt>
      <trkpt lat="40.49829333" lon="-3.53081167">
        <ele>680.011</ele>
        <time>2019-07-01T18:57:45.935Z</time>
      </trkpt>
      <trkpt lat="40.49823333" lon="-3.53103">
        <ele>679.011</ele>
        <time>2019-07-01T18:57:46.935Z</time>
      </trkpt>
      <trkpt lat="40.498195" lon="-3.53113167">
        <ele>679.011</ele>
        <time>2019-07-01T18:57:47.935Z</time>
      </trkpt>
      <trkpt lat="40.498195" lon="-3.53113167">
        <ele>679.011</ele>
        <time>2019-07-01T18:57:48.935Z</time>
      </trkpt>
      <trkpt lat="40.49809833" lon="-3.53133">
        <ele>679.011</ele>
        <time>2019-07-01T18:57:49.935Z</time>
      </trkpt>
      <trkpt lat="40.49809833" lon="-3.53133">
        <ele>679.011</ele>
        <time>2019-07-01T18:57:50.935Z</time>
      </trkpt>
      <trkpt lat="40.497965" lon="-3.53149833">
        <ele>679.011</ele>
        <time>2019-07-01T18:57:51.935Z</time>
      </trkpt>
      <trkpt lat="40.497965" lon="-3.53149833">
        <ele>679.011</ele>
        <time>2019-07-01T18:57:52.935Z</time>
      </trkpt>
      <trkpt lat="40.49780833" lon="-3.53163333">
        <ele>679.011</ele>
        <time>2019-07-01T18:57:53.935Z</time>
      </trkpt>
      <trkpt lat="40.49772167" lon="-3.53169167">
        <ele>679.011</ele>
        <time>2019-07-01T18:57:54.935Z</time>
      </trkpt>
      <trkpt lat="40.49772167" lon="-3.53169167">
        <ele>679.011</ele>
        <time>2019-07-01T18:57:55.935Z</time>
      </trkpt>
      <trkpt lat="40.497535" lon="-3.53177333">
        <ele>679.011</ele>
        <time>2019-07-01T18:57:56.935Z</time>
      </trkpt>
      <trkpt lat="40.49743833" lon="-3.531795">
        <ele>679.011</ele>
        <time>2019-07-01T18:57:57.935Z</time>
      </trkpt>
      <trkpt lat="40.49743833" lon="-3.531795">
        <ele>678.011</ele>
        <time>2019-07-01T18:57:58.935Z</time>
      </trkpt>
      <trkpt lat="40.49725167" lon="-3.53179">
        <ele>678.011</ele>
        <time>2019-07-01T18:57:59.935Z</time>
      </trkpt>
      <trkpt lat="40.49716167" lon="-3.53177167">
        <ele>678.011</ele>
        <time>2019-07-01T18:58:00.935Z</time>
      </trkpt>
      <trkpt lat="40.49716167" lon="-3.53177167">
        <ele>678.011</ele>
        <time>2019-07-01T18:58:01.935Z</time>
      </trkpt>
      <trkpt lat="40.496995" lon="-3.53170833">
        <ele>678.011</ele>
        <time>2019-07-01T18:58:02.935Z</time>
      </trkpt>
      <trkpt lat="40.496915" lon="-3.53166333">
        <ele>678.011</ele>
        <time>2019-07-01T18:58:03.935Z</time>
      </trkpt>
      <trkpt lat="40.496915" lon="-3.53166333">
        <ele>678.011</ele>
        <time>2019-07-01T18:58:04.935Z</time>
      </trkpt>
      <trkpt lat="40.49677333" lon="-3.53154">
        <ele>678.011</ele>
        <time>2019-07-01T18:58:05.935Z</time>
      </trkpt>
      <trkpt lat="40.49677333" lon="-3.53154">
        <ele>678.011</ele>
        <time>2019-07-01T18:58:06.935Z</time>
      </trkpt>
      <trkpt lat="40.496655" lon="-3.53138333">
        <ele>678.011</ele>
        <time>2019-07-01T18:58:07.935Z</time>
      </trkpt>
      <trkpt lat="40.49660333" lon="-3.53129833">
        <ele>678.011</ele>
        <time>2019-07-01T18:58:08.935Z</time>
      </trkpt>
      <trkpt lat="40.49660333" lon="-3.53129833">
        <ele>678.011</ele>
        <time>2019-07-01T18:58:09.935Z</time>
      </trkpt>
      <trkpt lat="40.49652" lon="-3.53111667">
        <ele>678.011</ele>
        <time>2019-07-01T18:58:10.935Z</time>
      </trkpt>
      <trkpt lat="40.49652" lon="-3.53111667">
        <ele>678.011</ele>
        <time>2019-07-01T18:58:11.935Z</time>
      </trkpt>
      <trkpt lat="40.49646" lon="-3.53092">
        <ele>678.011</ele>
        <time>2019-07-01T18:58:12.935Z</time>
      </trkpt>
      <trkpt lat="40.49646" lon="-3.53092">
        <ele>679.011</ele>
        <time>2019-07-01T18:58:13.935Z</time>
      </trkpt>
      <trkpt lat="40.49643" lon="-3.53072333">
        <ele>679.011</ele>
        <time>2019-07-01T18:58:14.935Z</time>
      </trkpt>
      <trkpt lat="40.49643" lon="-3.53072333">
        <ele>679.011</ele>
        <time>2019-07-01T18:58:15.935Z</time>
      </trkpt>
      <trkpt lat="40.49642333" lon="-3.53052833">
        <ele>679.011</ele>
        <time>2019-07-01T18:58:16.935Z</time>
      </trkpt>
      <trkpt lat="40.49642833" lon="-3.53043333">
        <ele>679.011</ele>
        <time>2019-07-01T18:58:17.935Z</time>
      </trkpt>
      <trkpt lat="40.49642833" lon="-3.53043333">
        <ele>679.011</ele>
        <time>2019-07-01T18:58:18.935Z</time>
      </trkpt>
      <trkpt lat="40.49645" lon="-3.53025333">
        <ele>680.011</ele>
        <time>2019-07-01T18:58:19.935Z</time>
      </trkpt>
      <trkpt lat="40.49645" lon="-3.53025333">
        <ele>680.011</ele>
        <time>2019-07-01T18:58:20.935Z</time>
      </trkpt>
      <trkpt lat="40.49648833" lon="-3.530085">
        <ele>680.011</ele>
        <time>2019-07-01T18:58:21.935Z</time>
      </trkpt>
      <trkpt lat="40.49651333" lon="-3.53">
        <ele>680.011</ele>
        <time>2019-07-01T18:58:22.935Z</time>
      </trkpt>
      <trkpt lat="40.49651333" lon="-3.53">
        <ele>680.011</ele>
        <time>2019-07-01T18:58:23.935Z</time>
      </trkpt>
      <trkpt lat="40.49657" lon="-3.52985">
        <ele>680.011</ele>
        <time>2019-07-01T18:58:24.935Z</time>
      </trkpt>
      <trkpt lat="40.49657" lon="-3.52985">
        <ele>680.011</ele>
        <time>2019-07-01T18:58:25.935Z</time>
      </trkpt>
      <trkpt lat="40.49663" lon="-3.52970667">
        <ele>680.011</ele>
        <time>2019-07-01T18:58:26.935Z</time>
      </trkpt>
      <trkpt lat="40.49666" lon="-3.52963667">
        <ele>680.011</ele>
        <time>2019-07-01T18:58:27.935Z</time>
      </trkpt>
      <trkpt lat="40.49666" lon="-3.52963667">
        <ele>680.011</ele>
        <time>2019-07-01T18:58:28.935Z</time>
      </trkpt>
      <trkpt lat="40.49672167" lon="-3.52950333">
        <ele>680.011</ele>
        <time>2019-07-01T18:58:29.935Z</time>
      </trkpt>
      <trkpt lat="40.49672167" lon="-3.52950333">
        <ele>680.011</ele>
        <time>2019-07-01T18:58:30.935Z</time>
      </trkpt>
      <trkpt lat="40.49678333" lon="-3.529375">
        <ele>680.011</ele>
        <time>2019-07-01T18:58:31.935Z</time>
      </trkpt>
      <trkpt lat="40.496815" lon="-3.52931333">
        <ele>680.011</ele>
        <time>2019-07-01T18:58:32.935Z</time>
      </trkpt>
      <trkpt lat="40.496845" lon="-3.52925333">
        <ele>680.011</ele>
        <time>2019-07-01T18:58:33.935Z</time>
      </trkpt>
      <trkpt lat="40.496845" lon="-3.52925333">
        <ele>680.011</ele>
        <time>2019-07-01T18:58:34.935Z</time>
      </trkpt>
      <trkpt lat="40.49690833" lon="-3.52913">
        <ele>680.011</ele>
        <time>2019-07-01T18:58:35.935Z</time>
      </trkpt>
      <trkpt lat="40.49694" lon="-3.52907167">
        <ele>680.011</ele>
        <time>2019-07-01T18:58:36.935Z</time>
      </trkpt>
      <trkpt lat="40.49694" lon="-3.52907167">
        <ele>680.011</ele>
        <time>2019-07-01T18:58:37.935Z</time>
      </trkpt>
      <trkpt lat="40.497005" lon="-3.528955">
        <ele>680.011</ele>
        <time>2019-07-01T18:58:38.935Z</time>
      </trkpt>
      <trkpt lat="40.497005" lon="-3.528955">
        <ele>680.011</ele>
        <time>2019-07-01T18:58:39.935Z</time>
      </trkpt>
      <trkpt lat="40.497075" lon="-3.52884333">
        <ele>680.011</ele>
        <time>2019-07-01T18:58:40.935Z</time>
      </trkpt>
      <trkpt lat="40.497075" lon="-3.52884333">
        <ele>680.011</ele>
        <time>2019-07-01T18:58:41.935Z</time>
      </trkpt>
      <trkpt lat="40.497145" lon="-3.52874">
        <ele>680.011</ele>
        <time>2019-07-01T18:58:42.935Z</time>
      </trkpt>
      <trkpt lat="40.497145" lon="-3.52874">
        <ele>680.011</ele>
        <time>2019-07-01T18:58:43.935Z</time>
      </trkpt>
      <trkpt lat="40.49721333" lon="-3.52863333">
        <ele>680.011</ele>
        <time>2019-07-01T18:58:44.935Z</time>
      </trkpt>
      <trkpt lat="40.49721333" lon="-3.52863333">
        <ele>681.011</ele>
        <time>2019-07-01T18:58:45.935Z</time>
      </trkpt>
      <trkpt lat="40.49728333" lon="-3.52853167">
        <ele>681.011</ele>
        <time>2019-07-01T18:58:46.935Z</time>
      </trkpt>
      <trkpt lat="40.49728333" lon="-3.52853167">
        <ele>681.011</ele>
        <time>2019-07-01T18:58:47.935Z</time>
      </trkpt>
      <trkpt lat="40.49736167" lon="-3.52844">
        <ele>681.011</ele>
        <time>2019-07-01T18:58:48.935Z</time>
      </trkpt>
      <trkpt lat="40.49736167" lon="-3.52844">
        <ele>681.011</ele>
        <time>2019-07-01T18:58:49.935Z</time>
      </trkpt>
      <trkpt lat="40.49743333" lon="-3.528345">
        <ele>681.011</ele>
        <time>2019-07-01T18:58:50.935Z</time>
      </trkpt>
      <trkpt lat="40.49743333" lon="-3.528345">
        <ele>682.011</ele>
        <time>2019-07-01T18:58:51.935Z</time>
      </trkpt>
      <trkpt lat="40.497505" lon="-3.52825">
        <ele>682.011</ele>
        <time>2019-07-01T18:58:52.935Z</time>
      </trkpt>
      <trkpt lat="40.497505" lon="-3.52825">
        <ele>682.011</ele>
        <time>2019-07-01T18:58:53.935Z</time>
      </trkpt>
      <trkpt lat="40.49758333" lon="-3.52816167">
        <ele>682.011</ele>
        <time>2019-07-01T18:58:54.935Z</time>
      </trkpt>
      <trkpt lat="40.49762667" lon="-3.52812167">
        <ele>682.011</ele>
        <time>2019-07-01T18:58:55.935Z</time>
      </trkpt>
      <trkpt lat="40.49762667" lon="-3.52812167">
        <ele>682.011</ele>
        <time>2019-07-01T18:58:56.935Z</time>
      </trkpt>
      <trkpt lat="40.497715" lon="-3.52805">
        <ele>682.011</ele>
        <time>2019-07-01T18:58:57.935Z</time>
      </trkpt>
      <trkpt lat="40.49776167" lon="-3.52802">
        <ele>682.011</ele>
        <time>2019-07-01T18:58:58.935Z</time>
      </trkpt>
      <trkpt lat="40.49776167" lon="-3.52802">
        <ele>682.011</ele>
        <time>2019-07-01T18:58:59.935Z</time>
      </trkpt>
      <trkpt lat="40.49786" lon="-3.527985">
        <ele>682.011</ele>
        <time>2019-07-01T18:59:00.935Z</time>
      </trkpt>
      <trkpt lat="40.49791167" lon="-3.52797833">
        <ele>682.011</ele>
        <time>2019-07-01T18:59:01.935Z</time>
      </trkpt>
      <trkpt lat="40.49791167" lon="-3.52797833">
        <ele>682.011</ele>
        <time>2019-07-01T18:59:02.935Z</time>
      </trkpt>
      <trkpt lat="40.49801667" lon="-3.52797667">
        <ele>682.011</ele>
        <time>2019-07-01T18:59:03.935Z</time>
      </trkpt>
      <trkpt lat="40.49801667" lon="-3.52797667">
        <ele>682.011</ele>
        <time>2019-07-01T18:59:04.935Z</time>
      </trkpt>
      <trkpt lat="40.49812667" lon="-3.527985">
        <ele>682.011</ele>
        <time>2019-07-01T18:59:05.935Z</time>
      </trkpt>
      <trkpt lat="40.49818" lon="-3.52799667">
        <ele>682.011</ele>
        <time>2019-07-01T18:59:06.935Z</time>
      </trkpt>
      <trkpt lat="40.49818" lon="-3.52799667">
        <ele>682.011</ele>
        <time>2019-07-01T18:59:07.935Z</time>
      </trkpt>
      <trkpt lat="40.49829167" lon="-3.528025">
        <ele>682.011</ele>
        <time>2019-07-01T18:59:08.935Z</time>
      </trkpt>
      <trkpt lat="40.49829167" lon="-3.528025">
        <ele>682.011</ele>
        <time>2019-07-01T18:59:09.935Z</time>
      </trkpt>
      <trkpt lat="40.49840333" lon="-3.52805167">
        <ele>682.011</ele>
        <time>2019-07-01T18:59:10.935Z</time>
      </trkpt>
      <trkpt lat="40.49840333" lon="-3.52805167">
        <ele>682.011</ele>
        <time>2019-07-01T18:59:11.935Z</time>
      </trkpt>
      <trkpt lat="40.49851167" lon="-3.528075">
        <ele>682.011</ele>
        <time>2019-07-01T18:59:12.935Z</time>
      </trkpt>
      <trkpt lat="40.49851167" lon="-3.528075">
        <ele>682.011</ele>
        <time>2019-07-01T18:59:13.935Z</time>
      </trkpt>
      <trkpt lat="40.49860333" lon="-3.52806167">
        <ele>682.011</ele>
        <time>2019-07-01T18:59:14.935Z</time>
      </trkpt>
      <trkpt lat="40.49860333" lon="-3.52806167">
        <ele>682.011</ele>
        <time>2019-07-01T18:59:15.935Z</time>
      </trkpt>
      <trkpt lat="40.49863333" lon="-3.52795833">
        <ele>682.011</ele>
        <time>2019-07-01T18:59:16.935Z</time>
      </trkpt>
      <trkpt lat="40.49863333" lon="-3.52795833">
        <ele>682.011</ele>
        <time>2019-07-01T18:59:17.935Z</time>
      </trkpt>
      <trkpt lat="40.49863167" lon="-3.52784">
        <ele>682.011</ele>
        <time>2019-07-01T18:59:18.935Z</time>
      </trkpt>
      <trkpt lat="40.49863167" lon="-3.52784">
        <ele>682.011</ele>
        <time>2019-07-01T18:59:19.935Z</time>
      </trkpt>
      <trkpt lat="40.49862333" lon="-3.52772">
        <ele>682.011</ele>
        <time>2019-07-01T18:59:20.935Z</time>
      </trkpt>
      <trkpt lat="40.49862333" lon="-3.52772">
        <ele>682.011</ele>
        <time>2019-07-01T18:59:21.935Z</time>
      </trkpt>
      <trkpt lat="40.49861667" lon="-3.52760667">
        <ele>682.011</ele>
        <time>2019-07-01T18:59:22.935Z</time>
      </trkpt>
      <trkpt lat="40.49861667" lon="-3.52760667">
        <ele>682.011</ele>
        <time>2019-07-01T18:59:23.935Z</time>
      </trkpt>
      <trkpt lat="40.498615" lon="-3.52750167">
        <ele>683.011</ele>
        <time>2019-07-01T18:59:24.935Z</time>
      </trkpt>
      <trkpt lat="40.498615" lon="-3.52750167">
        <ele>683.011</ele>
        <time>2019-07-01T18:59:25.935Z</time>
      </trkpt>
      <trkpt lat="40.49861167" lon="-3.527405">
        <ele>683.011</ele>
        <time>2019-07-01T18:59:26.935Z</time>
      </trkpt>
      <trkpt lat="40.49861167" lon="-3.527405">
        <ele>683.011</ele>
        <time>2019-07-01T18:59:27.935Z</time>
      </trkpt>
      <trkpt lat="40.49861167" lon="-3.527305">
        <ele>684.011</ele>
        <time>2019-07-01T18:59:28.935Z</time>
      </trkpt>
      <trkpt lat="40.49861167" lon="-3.527305">
        <ele>684.011</ele>
        <time>2019-07-01T18:59:29.935Z</time>
      </trkpt>
      <trkpt lat="40.49861" lon="-3.52720333">
        <ele>685.011</ele>
        <time>2019-07-01T18:59:30.935Z</time>
      </trkpt>
      <trkpt lat="40.49861" lon="-3.52720333">
        <ele>685.011</ele>
        <time>2019-07-01T18:59:31.935Z</time>
      </trkpt>
      <trkpt lat="40.49860833" lon="-3.527105">
        <ele>685.011</ele>
        <time>2019-07-01T18:59:32.935Z</time>
      </trkpt>
      <trkpt lat="40.498605" lon="-3.52705667">
        <ele>685.011</ele>
        <time>2019-07-01T18:59:33.935Z</time>
      </trkpt>
      <trkpt lat="40.498605" lon="-3.52705667">
        <ele>686.011</ele>
        <time>2019-07-01T18:59:34.935Z</time>
      </trkpt>
      <trkpt lat="40.4986" lon="-3.52696167">
        <ele>686.011</ele>
        <time>2019-07-01T18:59:35.935Z</time>
      </trkpt>
      <trkpt lat="40.4986" lon="-3.52696167">
        <ele>686.011</ele>
        <time>2019-07-01T18:59:36.935Z</time>
      </trkpt>
      <trkpt lat="40.49859333" lon="-3.52686833">
        <ele>686.011</ele>
        <time>2019-07-01T18:59:37.935Z</time>
      </trkpt>
      <trkpt lat="40.49859333" lon="-3.52686833">
        <ele>687.011</ele>
        <time>2019-07-01T18:59:38.935Z</time>
      </trkpt>
      <trkpt lat="40.49859" lon="-3.52677833">
        <ele>687.011</ele>
        <time>2019-07-01T18:59:39.935Z</time>
      </trkpt>
      <trkpt lat="40.49859" lon="-3.52677833">
        <ele>687.011</ele>
        <time>2019-07-01T18:59:40.935Z</time>
      </trkpt>
      <trkpt lat="40.49858667" lon="-3.52667833">
        <ele>687.011</ele>
        <time>2019-07-01T18:59:41.935Z</time>
      </trkpt>
      <trkpt lat="40.49858167" lon="-3.526625">
        <ele>687.011</ele>
        <time>2019-07-01T18:59:42.935Z</time>
      </trkpt>
      <trkpt lat="40.49858167" lon="-3.526625">
        <ele>687.011</ele>
        <time>2019-07-01T18:59:43.935Z</time>
      </trkpt>
      <trkpt lat="40.49857833" lon="-3.52653">
        <ele>688.011</ele>
        <time>2019-07-01T18:59:44.935Z</time>
      </trkpt>
      <trkpt lat="40.49857833" lon="-3.52648667">
        <ele>688.011</ele>
        <time>2019-07-01T18:59:45.935Z</time>
      </trkpt>
      <trkpt lat="40.49857833" lon="-3.52648667">
        <ele>688.011</ele>
        <time>2019-07-01T18:59:46.935Z</time>
      </trkpt>
      <trkpt lat="40.498585" lon="-3.52640333">
        <ele>688.011</ele>
        <time>2019-07-01T18:59:47.935Z</time>
      </trkpt>
      <trkpt lat="40.49859833" lon="-3.52636">
        <ele>689.011</ele>
        <time>2019-07-01T18:59:48.935Z</time>
      </trkpt>
      <trkpt lat="40.49859833" lon="-3.52636">
        <ele>689.011</ele>
        <time>2019-07-01T18:59:49.935Z</time>
      </trkpt>
      <trkpt lat="40.498645" lon="-3.52629">
        <ele>689.011</ele>
        <time>2019-07-01T18:59:50.935Z</time>
      </trkpt>
      <trkpt lat="40.498675" lon="-3.52626">
        <ele>689.011</ele>
        <time>2019-07-01T18:59:51.935Z</time>
      </trkpt>
      <trkpt lat="40.498675" lon="-3.52626">
        <ele>689.011</ele>
        <time>2019-07-01T18:59:52.935Z</time>
      </trkpt>
      <trkpt lat="40.49874667" lon="-3.52621167">
        <ele>689.011</ele>
        <time>2019-07-01T18:59:53.935Z</time>
      </trkpt>
      <trkpt lat="40.49878667" lon="-3.526195">
        <ele>689.011</ele>
        <time>2019-07-01T18:59:54.935Z</time>
      </trkpt>
      <trkpt lat="40.49878667" lon="-3.526195">
        <ele>689.011</ele>
        <time>2019-07-01T18:59:55.935Z</time>
      </trkpt>
      <trkpt lat="40.49887" lon="-3.52616333">
        <ele>690.011</ele>
        <time>2019-07-01T18:59:56.935Z</time>
      </trkpt>
      <trkpt lat="40.49891333" lon="-3.52615167">
        <ele>690.011</ele>
        <time>2019-07-01T18:59:57.935Z</time>
      </trkpt>
      <trkpt lat="40.49891333" lon="-3.52615167">
        <ele>690.011</ele>
        <time>2019-07-01T18:59:58.935Z</time>
      </trkpt>
      <trkpt lat="40.49900333" lon="-3.52612833">
        <ele>690.011</ele>
        <time>2019-07-01T18:59:59.935Z</time>
      </trkpt>
      <trkpt lat="40.49905" lon="-3.52612">
        <ele>690.011</ele>
        <time>2019-07-01T19:00:00.935Z</time>
      </trkpt>
      <trkpt lat="40.49905" lon="-3.52612">
        <ele>690.011</ele>
        <time>2019-07-01T19:00:01.935Z</time>
      </trkpt>
      <trkpt lat="40.49914667" lon="-3.52611167">
        <ele>690.011</ele>
        <time>2019-07-01T19:00:02.935Z</time>
      </trkpt>
      <trkpt lat="40.499195" lon="-3.52611167">
        <ele>690.011</ele>
        <time>2019-07-01T19:00:03.935Z</time>
      </trkpt>
      <trkpt lat="40.499195" lon="-3.52611167">
        <ele>690.011</ele>
        <time>2019-07-01T19:00:04.935Z</time>
      </trkpt>
      <trkpt lat="40.49929667" lon="-3.526115">
        <ele>690.011</ele>
        <time>2019-07-01T19:00:05.935Z</time>
      </trkpt>
      <trkpt lat="40.49935" lon="-3.52612167">
        <ele>690.011</ele>
        <time>2019-07-01T19:00:06.935Z</time>
      </trkpt>
      <trkpt lat="40.49935" lon="-3.52612167">
        <ele>690.011</ele>
        <time>2019-07-01T19:00:07.935Z</time>
      </trkpt>
      <trkpt lat="40.49945667" lon="-3.52614">
        <ele>690.011</ele>
        <time>2019-07-01T19:00:08.935Z</time>
      </trkpt>
      <trkpt lat="40.49950667" lon="-3.526155">
        <ele>690.011</ele>
        <time>2019-07-01T19:00:09.935Z</time>
      </trkpt>
      <trkpt lat="40.49950667" lon="-3.526155">
        <ele>690.011</ele>
        <time>2019-07-01T19:00:10.935Z</time>
      </trkpt>
      <trkpt lat="40.49960667" lon="-3.52619333">
        <ele>690.011</ele>
        <time>2019-07-01T19:00:11.935Z</time>
      </trkpt>
      <trkpt lat="40.49966" lon="-3.526215">
        <ele>690.011</ele>
        <time>2019-07-01T19:00:12.935Z</time>
      </trkpt>
      <trkpt lat="40.49966" lon="-3.526215">
        <ele>689.011</ele>
        <time>2019-07-01T19:00:13.935Z</time>
      </trkpt>
      <trkpt lat="40.49977" lon="-3.52626167">
        <ele>689.011</ele>
        <time>2019-07-01T19:00:14.935Z</time>
      </trkpt>
      <trkpt lat="40.49982333" lon="-3.526285">
        <ele>689.011</ele>
        <time>2019-07-01T19:00:15.935Z</time>
      </trkpt>
      <trkpt lat="40.49982333" lon="-3.526285">
        <ele>689.011</ele>
        <time>2019-07-01T19:00:16.935Z</time>
      </trkpt>
      <trkpt lat="40.49993" lon="-3.52632833">
        <ele>689.011</ele>
        <time>2019-07-01T19:00:17.935Z</time>
      </trkpt>
      <trkpt lat="40.499985" lon="-3.52635">
        <ele>689.011</ele>
        <time>2019-07-01T19:00:18.935Z</time>
      </trkpt>
      <trkpt lat="40.499985" lon="-3.52635">
        <ele>688.011</ele>
        <time>2019-07-01T19:00:19.935Z</time>
      </trkpt>
      <trkpt lat="40.50009833" lon="-3.52639">
        <ele>688.011</ele>
        <time>2019-07-01T19:00:20.935Z</time>
      </trkpt>
      <trkpt lat="40.50009833" lon="-3.52639">
        <ele>688.011</ele>
        <time>2019-07-01T19:00:21.935Z</time>
      </trkpt>
      <trkpt lat="40.500215" lon="-3.52642333">
        <ele>688.011</ele>
        <time>2019-07-01T19:00:22.935Z</time>
      </trkpt>
      <trkpt lat="40.500275" lon="-3.52644167">
        <ele>688.011</ele>
        <time>2019-07-01T19:00:23.935Z</time>
      </trkpt>
      <trkpt lat="40.500275" lon="-3.52644167">
        <ele>688.011</ele>
        <time>2019-07-01T19:00:24.935Z</time>
      </trkpt>
      <trkpt lat="40.50039333" lon="-3.526485">
        <ele>688.011</ele>
        <time>2019-07-01T19:00:25.935Z</time>
      </trkpt>
      <trkpt lat="40.50039333" lon="-3.526485">
        <ele>688.011</ele>
        <time>2019-07-01T19:00:26.935Z</time>
      </trkpt>
      <trkpt lat="40.50051667" lon="-3.52651">
        <ele>688.011</ele>
        <time>2019-07-01T19:00:27.935Z</time>
      </trkpt>
      <trkpt lat="40.50051667" lon="-3.52651">
        <ele>688.011</ele>
        <time>2019-07-01T19:00:28.935Z</time>
      </trkpt>
      <trkpt lat="40.50063667" lon="-3.52653333">
        <ele>688.011</ele>
        <time>2019-07-01T19:00:29.935Z</time>
      </trkpt>
      <trkpt lat="40.50063667" lon="-3.52653333">
        <ele>688.011</ele>
        <time>2019-07-01T19:00:30.935Z</time>
      </trkpt>
      <trkpt lat="40.50075167" lon="-3.52654667">
        <ele>688.011</ele>
        <time>2019-07-01T19:00:31.935Z</time>
      </trkpt>
      <trkpt lat="40.50075167" lon="-3.52654667">
        <ele>688.011</ele>
        <time>2019-07-01T19:00:32.935Z</time>
      </trkpt>
      <trkpt lat="40.50086167" lon="-3.52655833">
        <ele>688.011</ele>
        <time>2019-07-01T19:00:33.935Z</time>
      </trkpt>
      <trkpt lat="40.50086167" lon="-3.52655833">
        <ele>688.011</ele>
        <time>2019-07-01T19:00:34.935Z</time>
      </trkpt>
      <trkpt lat="40.50096167" lon="-3.52656833">
        <ele>688.011</ele>
        <time>2019-07-01T19:00:35.935Z</time>
      </trkpt>
      <trkpt lat="40.50101167" lon="-3.52656667">
        <ele>688.011</ele>
        <time>2019-07-01T19:00:36.935Z</time>
      </trkpt>
      <trkpt lat="40.50101167" lon="-3.52656667">
        <ele>688.011</ele>
        <time>2019-07-01T19:00:37.935Z</time>
      </trkpt>
      <trkpt lat="40.50111833" lon="-3.52656833">
        <ele>688.011</ele>
        <time>2019-07-01T19:00:38.935Z</time>
      </trkpt>
      <trkpt lat="40.50117167" lon="-3.52656667">
        <ele>688.011</ele>
        <time>2019-07-01T19:00:39.935Z</time>
      </trkpt>
      <trkpt lat="40.50117167" lon="-3.52656667">
        <ele>688.011</ele>
        <time>2019-07-01T19:00:40.935Z</time>
      </trkpt>
      <trkpt lat="40.501275" lon="-3.526565">
        <ele>688.011</ele>
        <time>2019-07-01T19:00:41.935Z</time>
      </trkpt>
      <trkpt lat="40.501275" lon="-3.526565">
        <ele>688.011</ele>
        <time>2019-07-01T19:00:42.935Z</time>
      </trkpt>
      <trkpt lat="40.50137667" lon="-3.52655333">
        <ele>688.011</ele>
        <time>2019-07-01T19:00:43.935Z</time>
      </trkpt>
      <trkpt lat="40.50137667" lon="-3.52655333">
        <ele>688.011</ele>
        <time>2019-07-01T19:00:44.935Z</time>
      </trkpt>
      <trkpt lat="40.501475" lon="-3.526525">
        <ele>688.011</ele>
        <time>2019-07-01T19:00:45.935Z</time>
      </trkpt>
      <trkpt lat="40.501475" lon="-3.526525">
        <ele>688.011</ele>
        <time>2019-07-01T19:00:46.935Z</time>
      </trkpt>
      <trkpt lat="40.50156167" lon="-3.52648">
        <ele>688.011</ele>
        <time>2019-07-01T19:00:47.935Z</time>
      </trkpt>
      <trkpt lat="40.50156167" lon="-3.52648">
        <ele>688.011</ele>
        <time>2019-07-01T19:00:48.935Z</time>
      </trkpt>
      <trkpt lat="40.501645" lon="-3.52641167">
        <ele>688.011</ele>
        <time>2019-07-01T19:00:49.935Z</time>
      </trkpt>
      <trkpt lat="40.501645" lon="-3.52641167">
        <ele>688.011</ele>
        <time>2019-07-01T19:00:50.935Z</time>
      </trkpt>
      <trkpt lat="40.50171833" lon="-3.52632667">
        <ele>688.011</ele>
        <time>2019-07-01T19:00:51.935Z</time>
      </trkpt>
      <trkpt lat="40.50171833" lon="-3.52632667">
        <ele>688.011</ele>
        <time>2019-07-01T19:00:52.935Z</time>
      </trkpt>
      <trkpt lat="40.50178167" lon="-3.52623167">
        <ele>688.011</ele>
        <time>2019-07-01T19:00:53.935Z</time>
      </trkpt>
      <trkpt lat="40.501805" lon="-3.52618667">
        <ele>688.011</ele>
        <time>2019-07-01T19:00:54.935Z</time>
      </trkpt>
      <trkpt lat="40.501805" lon="-3.52618667">
        <ele>689.011</ele>
        <time>2019-07-01T19:00:55.935Z</time>
      </trkpt>
      <trkpt lat="40.50184333" lon="-3.52609333">
        <ele>689.011</ele>
        <time>2019-07-01T19:00:56.935Z</time>
      </trkpt>
      <trkpt lat="40.50184333" lon="-3.52609333">
        <ele>689.011</ele>
        <time>2019-07-01T19:00:57.935Z</time>
      </trkpt>
      <trkpt lat="40.50187" lon="-3.52599333">
        <ele>689.011</ele>
        <time>2019-07-01T19:00:58.935Z</time>
      </trkpt>
      <trkpt lat="40.50187" lon="-3.52599333">
        <ele>689.011</ele>
        <time>2019-07-01T19:00:59.935Z</time>
      </trkpt>
      <trkpt lat="40.50189167" lon="-3.52588833">
        <ele>689.011</ele>
        <time>2019-07-01T19:01:00.935Z</time>
      </trkpt>
      <trkpt lat="40.50189167" lon="-3.52588833">
        <ele>689.011</ele>
        <time>2019-07-01T19:01:01.935Z</time>
      </trkpt>
      <trkpt lat="40.50190833" lon="-3.52577833">
        <ele>689.011</ele>
        <time>2019-07-01T19:01:02.935Z</time>
      </trkpt>
      <trkpt lat="40.50190833" lon="-3.52577833">
        <ele>689.011</ele>
        <time>2019-07-01T19:01:03.935Z</time>
      </trkpt>
      <trkpt lat="40.50193167" lon="-3.52567">
        <ele>689.011</ele>
        <time>2019-07-01T19:01:04.935Z</time>
      </trkpt>
      <trkpt lat="40.50193167" lon="-3.52567">
        <ele>689.011</ele>
        <time>2019-07-01T19:01:05.935Z</time>
      </trkpt>
      <trkpt lat="40.50195667" lon="-3.52557">
        <ele>690.011</ele>
        <time>2019-07-01T19:01:06.935Z</time>
      </trkpt>
      <trkpt lat="40.50195667" lon="-3.52557">
        <ele>690.011</ele>
        <time>2019-07-01T19:01:07.935Z</time>
      </trkpt>
      <trkpt lat="40.50198333" lon="-3.52546833">
        <ele>690.011</ele>
        <time>2019-07-01T19:01:08.935Z</time>
      </trkpt>
      <trkpt lat="40.50198333" lon="-3.52546833">
        <ele>690.011</ele>
        <time>2019-07-01T19:01:09.935Z</time>
      </trkpt>
      <trkpt lat="40.502005" lon="-3.52536833">
        <ele>690.011</ele>
        <time>2019-07-01T19:01:10.935Z</time>
      </trkpt>
      <trkpt lat="40.502005" lon="-3.52536833">
        <ele>690.011</ele>
        <time>2019-07-01T19:01:11.935Z</time>
      </trkpt>
      <trkpt lat="40.50202667" lon="-3.525265">
        <ele>690.011</ele>
        <time>2019-07-01T19:01:12.935Z</time>
      </trkpt>
      <trkpt lat="40.50204" lon="-3.525215">
        <ele>690.011</ele>
        <time>2019-07-01T19:01:13.935Z</time>
      </trkpt>
      <trkpt lat="40.50204" lon="-3.525215">
        <ele>690.011</ele>
        <time>2019-07-01T19:01:14.935Z</time>
      </trkpt>
      <trkpt lat="40.50206167" lon="-3.52511167">
        <ele>690.011</ele>
        <time>2019-07-01T19:01:15.935Z</time>
      </trkpt>
      <trkpt lat="40.50207333" lon="-3.52506167">
        <ele>690.011</ele>
        <time>2019-07-01T19:01:16.935Z</time>
      </trkpt>
      <trkpt lat="40.50207333" lon="-3.52506167">
        <ele>691.011</ele>
        <time>2019-07-01T19:01:17.935Z</time>
      </trkpt>
      <trkpt lat="40.50209333" lon="-3.52495833">
        <ele>691.011</ele>
        <time>2019-07-01T19:01:18.935Z</time>
      </trkpt>
      <trkpt lat="40.50209333" lon="-3.52495833">
        <ele>691.011</ele>
        <time>2019-07-01T19:01:19.935Z</time>
      </trkpt>
      <trkpt lat="40.50211" lon="-3.52486167">
        <ele>691.011</ele>
        <time>2019-07-01T19:01:20.935Z</time>
      </trkpt>
      <trkpt lat="40.50211" lon="-3.52486167">
        <ele>691.011</ele>
        <time>2019-07-01T19:01:21.935Z</time>
      </trkpt>
      <trkpt lat="40.50213333" lon="-3.52475833">
        <ele>691.011</ele>
        <time>2019-07-01T19:01:22.935Z</time>
      </trkpt>
      <trkpt lat="40.50214333" lon="-3.524705">
        <ele>691.011</ele>
        <time>2019-07-01T19:01:23.935Z</time>
      </trkpt>
      <trkpt lat="40.50215333" lon="-3.524655">
        <ele>691.011</ele>
        <time>2019-07-01T19:01:24.935Z</time>
      </trkpt>
      <trkpt lat="40.50215333" lon="-3.524655">
        <ele>691.011</ele>
        <time>2019-07-01T19:01:25.935Z</time>
      </trkpt>
      <trkpt lat="40.50215167" lon="-3.52456">
        <ele>691.011</ele>
        <time>2019-07-01T19:01:26.935Z</time>
      </trkpt>
      <trkpt lat="40.50215167" lon="-3.52456">
        <ele>691.011</ele>
        <time>2019-07-01T19:01:27.935Z</time>
      </trkpt>
      <trkpt lat="40.50211333" lon="-3.52448333">
        <ele>691.011</ele>
        <time>2019-07-01T19:01:28.935Z</time>
      </trkpt>
      <trkpt lat="40.50208167" lon="-3.52446167">
        <ele>691.011</ele>
        <time>2019-07-01T19:01:29.935Z</time>
      </trkpt>
      <trkpt lat="40.50205" lon="-3.52444333">
        <ele>691.011</ele>
        <time>2019-07-01T19:01:30.935Z</time>
      </trkpt>
      <trkpt lat="40.50205" lon="-3.52444333">
        <ele>691.011</ele>
        <time>2019-07-01T19:01:31.935Z</time>
      </trkpt>
      <trkpt lat="40.50198833" lon="-3.5244">
        <ele>691.011</ele>
        <time>2019-07-01T19:01:32.935Z</time>
      </trkpt>
      <trkpt lat="40.50198833" lon="-3.5244">
        <ele>692.011</ele>
        <time>2019-07-01T19:01:33.935Z</time>
      </trkpt>
      <trkpt lat="40.50192667" lon="-3.524355">
        <ele>692.011</ele>
        <time>2019-07-01T19:01:34.935Z</time>
      </trkpt>
      <trkpt lat="40.50192667" lon="-3.524355">
        <ele>692.011</ele>
        <time>2019-07-01T19:01:35.935Z</time>
      </trkpt>
      <trkpt lat="40.501865" lon="-3.52431">
        <ele>693.011</ele>
        <time>2019-07-01T19:01:36.935Z</time>
      </trkpt>
      <trkpt lat="40.501865" lon="-3.52431">
        <ele>693.011</ele>
        <time>2019-07-01T19:01:37.935Z</time>
      </trkpt>
      <trkpt lat="40.50180167" lon="-3.52426667">
        <ele>693.011</ele>
        <time>2019-07-01T19:01:38.935Z</time>
      </trkpt>
      <trkpt lat="40.50180167" lon="-3.52426667">
        <ele>693.011</ele>
        <time>2019-07-01T19:01:39.935Z</time>
      </trkpt>
      <trkpt lat="40.50173833" lon="-3.52422667">
        <ele>694.011</ele>
        <time>2019-07-01T19:01:40.935Z</time>
      </trkpt>
      <trkpt lat="40.50173833" lon="-3.52422667">
        <ele>694.011</ele>
        <time>2019-07-01T19:01:41.935Z</time>
      </trkpt>
      <trkpt lat="40.50167833" lon="-3.52418333">
        <ele>694.011</ele>
        <time>2019-07-01T19:01:42.935Z</time>
      </trkpt>
      <trkpt lat="40.50167833" lon="-3.52418333">
        <ele>694.011</ele>
        <time>2019-07-01T19:01:43.935Z</time>
      </trkpt>
      <trkpt lat="40.50160667" lon="-3.52414333">
        <ele>695.011</ele>
        <time>2019-07-01T19:01:44.935Z</time>
      </trkpt>
      <trkpt lat="40.50160667" lon="-3.52414333">
        <ele>695.011</ele>
        <time>2019-07-01T19:01:45.935Z</time>
      </trkpt>
      <trkpt lat="40.50153833" lon="-3.52411">
        <ele>695.011</ele>
        <time>2019-07-01T19:01:46.935Z</time>
      </trkpt>
      <trkpt lat="40.501505" lon="-3.52409167">
        <ele>695.011</ele>
        <time>2019-07-01T19:01:47.935Z</time>
      </trkpt>
      <trkpt lat="40.50147167" lon="-3.524075">
        <ele>696.011</ele>
        <time>2019-07-01T19:01:48.935Z</time>
      </trkpt>
      <trkpt lat="40.50147167" lon="-3.524075">
        <ele>696.011</ele>
        <time>2019-07-01T19:01:49.935Z</time>
      </trkpt>
      <trkpt lat="40.501405" lon="-3.52404">
        <ele>696.011</ele>
        <time>2019-07-01T19:01:50.935Z</time>
      </trkpt>
      <trkpt lat="40.50137333" lon="-3.52402">
        <ele>696.011</ele>
        <time>2019-07-01T19:01:51.935Z</time>
      </trkpt>
      <trkpt lat="40.50137333" lon="-3.52402">
        <ele>696.011</ele>
        <time>2019-07-01T19:01:52.935Z</time>
      </trkpt>
      <trkpt lat="40.50130833" lon="-3.523985">
        <ele>696.011</ele>
        <time>2019-07-01T19:01:53.935Z</time>
      </trkpt>
      <trkpt lat="40.50127667" lon="-3.52396833">
        <ele>697.011</ele>
        <time>2019-07-01T19:01:54.935Z</time>
      </trkpt>
      <trkpt lat="40.50127667" lon="-3.52396833">
        <ele>697.011</ele>
        <time>2019-07-01T19:01:55.935Z</time>
      </trkpt>
      <trkpt lat="40.50120667" lon="-3.52393167">
        <ele>697.011</ele>
        <time>2019-07-01T19:01:56.935Z</time>
      </trkpt>
      <trkpt lat="40.50120667" lon="-3.52393167">
        <ele>697.011</ele>
        <time>2019-07-01T19:01:57.935Z</time>
      </trkpt>
      <trkpt lat="40.50114" lon="-3.52389833">
        <ele>697.011</ele>
        <time>2019-07-01T19:01:58.935Z</time>
      </trkpt>
      <trkpt lat="40.50114" lon="-3.52389833">
        <ele>697.011</ele>
        <time>2019-07-01T19:01:59.935Z</time>
      </trkpt>
      <trkpt lat="40.50106833" lon="-3.52387">
        <ele>697.011</ele>
        <time>2019-07-01T19:02:00.935Z</time>
      </trkpt>
      <trkpt lat="40.50106833" lon="-3.52387">
        <ele>698.011</ele>
        <time>2019-07-01T19:02:01.935Z</time>
      </trkpt>
      <trkpt lat="40.50099667" lon="-3.52383833">
        <ele>698.011</ele>
        <time>2019-07-01T19:02:02.935Z</time>
      </trkpt>
      <trkpt lat="40.50099667" lon="-3.52383833">
        <ele>698.011</ele>
        <time>2019-07-01T19:02:03.935Z</time>
      </trkpt>
      <trkpt lat="40.50092167" lon="-3.52381167">
        <ele>698.011</ele>
        <time>2019-07-01T19:02:04.935Z</time>
      </trkpt>
      <trkpt lat="40.50092167" lon="-3.52381167">
        <ele>698.011</ele>
        <time>2019-07-01T19:02:05.935Z</time>
      </trkpt>
      <trkpt lat="40.50084333" lon="-3.52378333">
        <ele>698.011</ele>
        <time>2019-07-01T19:02:06.935Z</time>
      </trkpt>
      <trkpt lat="40.50084333" lon="-3.52378333">
        <ele>699.011</ele>
        <time>2019-07-01T19:02:07.935Z</time>
      </trkpt>
      <trkpt lat="40.50076333" lon="-3.52375667">
        <ele>699.011</ele>
        <time>2019-07-01T19:02:08.935Z</time>
      </trkpt>
      <trkpt lat="40.50076333" lon="-3.52375667">
        <ele>699.011</ele>
        <time>2019-07-01T19:02:09.935Z</time>
      </trkpt>
      <trkpt lat="40.50068333" lon="-3.52372833">
        <ele>699.011</ele>
        <time>2019-07-01T19:02:10.935Z</time>
      </trkpt>
      <trkpt lat="40.50068333" lon="-3.52372833">
        <ele>699.011</ele>
        <time>2019-07-01T19:02:11.935Z</time>
      </trkpt>
      <trkpt lat="40.500605" lon="-3.52370667">
        <ele>699.011</ele>
        <time>2019-07-01T19:02:12.935Z</time>
      </trkpt>
      <trkpt lat="40.500605" lon="-3.52370667">
        <ele>699.011</ele>
        <time>2019-07-01T19:02:13.935Z</time>
      </trkpt>
      <trkpt lat="40.50052667" lon="-3.52367833">
        <ele>699.011</ele>
        <time>2019-07-01T19:02:14.935Z</time>
      </trkpt>
      <trkpt lat="40.50048667" lon="-3.523665">
        <ele>699.011</ele>
        <time>2019-07-01T19:02:15.935Z</time>
      </trkpt>
      <trkpt lat="40.50044667" lon="-3.523655">
        <ele>699.011</ele>
        <time>2019-07-01T19:02:16.935Z</time>
      </trkpt>
      <trkpt lat="40.50044667" lon="-3.523655">
        <ele>699.011</ele>
        <time>2019-07-01T19:02:17.935Z</time>
      </trkpt>
      <trkpt lat="40.50036667" lon="-3.52362833">
        <ele>699.011</ele>
        <time>2019-07-01T19:02:18.935Z</time>
      </trkpt>
      <trkpt lat="40.50036667" lon="-3.52362833">
        <ele>700.011</ele>
        <time>2019-07-01T19:02:19.935Z</time>
      </trkpt>
      <trkpt lat="40.50027833" lon="-3.52359833">
        <ele>700.011</ele>
        <time>2019-07-01T19:02:20.935Z</time>
      </trkpt>
      <trkpt lat="40.50027833" lon="-3.52359833">
        <ele>700.011</ele>
        <time>2019-07-01T19:02:21.935Z</time>
      </trkpt>
      <trkpt lat="40.50018667" lon="-3.52356167">
        <ele>700.011</ele>
        <time>2019-07-01T19:02:22.935Z</time>
      </trkpt>
      <trkpt lat="40.50018667" lon="-3.52356167">
        <ele>700.011</ele>
        <time>2019-07-01T19:02:23.935Z</time>
      </trkpt>
      <trkpt lat="40.50009" lon="-3.52353">
        <ele>700.011</ele>
        <time>2019-07-01T19:02:24.935Z</time>
      </trkpt>
      <trkpt lat="40.50009" lon="-3.52353">
        <ele>700.011</ele>
        <time>2019-07-01T19:02:25.935Z</time>
      </trkpt>
      <trkpt lat="40.499995" lon="-3.52349667">
        <ele>700.011</ele>
        <time>2019-07-01T19:02:26.935Z</time>
      </trkpt>
      <trkpt lat="40.499995" lon="-3.52349667">
        <ele>700.011</ele>
        <time>2019-07-01T19:02:27.935Z</time>
      </trkpt>
      <trkpt lat="40.4999" lon="-3.523465">
        <ele>700.011</ele>
        <time>2019-07-01T19:02:28.935Z</time>
      </trkpt>
      <trkpt lat="40.4999" lon="-3.523465">
        <ele>700.011</ele>
        <time>2019-07-01T19:02:29.935Z</time>
      </trkpt>
      <trkpt lat="40.49980333" lon="-3.52344">
        <ele>700.011</ele>
        <time>2019-07-01T19:02:30.935Z</time>
      </trkpt>
      <trkpt lat="40.49980333" lon="-3.52344">
        <ele>699.011</ele>
        <time>2019-07-01T19:02:31.935Z</time>
      </trkpt>
      <trkpt lat="40.4997" lon="-3.52342">
        <ele>699.011</ele>
        <time>2019-07-01T19:02:32.935Z</time>
      </trkpt>
      <trkpt lat="40.4997" lon="-3.52342">
        <ele>699.011</ele>
        <time>2019-07-01T19:02:33.935Z</time>
      </trkpt>
      <trkpt lat="40.49959667" lon="-3.52339667">
        <ele>699.011</ele>
        <time>2019-07-01T19:02:34.935Z</time>
      </trkpt>
      <trkpt lat="40.49954667" lon="-3.523385">
        <ele>699.011</ele>
        <time>2019-07-01T19:02:35.935Z</time>
      </trkpt>
      <trkpt lat="40.49949833" lon="-3.52337333">
        <ele>699.011</ele>
        <time>2019-07-01T19:02:36.935Z</time>
      </trkpt>
      <trkpt lat="40.49949833" lon="-3.52337333">
        <ele>699.011</ele>
        <time>2019-07-01T19:02:37.935Z</time>
      </trkpt>
      <trkpt lat="40.49939333" lon="-3.523345">
        <ele>699.011</ele>
        <time>2019-07-01T19:02:38.935Z</time>
      </trkpt>
      <trkpt lat="40.49933833" lon="-3.52333333">
        <ele>699.011</ele>
        <time>2019-07-01T19:02:39.935Z</time>
      </trkpt>
      <trkpt lat="40.49933833" lon="-3.52333333">
        <ele>699.011</ele>
        <time>2019-07-01T19:02:40.935Z</time>
      </trkpt>
      <trkpt lat="40.49922" lon="-3.52331167">
        <ele>699.011</ele>
        <time>2019-07-01T19:02:41.935Z</time>
      </trkpt>
      <trkpt lat="40.49915833" lon="-3.52329833">
        <ele>699.011</ele>
        <time>2019-07-01T19:02:42.935Z</time>
      </trkpt>
      <trkpt lat="40.49915833" lon="-3.52329833">
        <ele>699.011</ele>
        <time>2019-07-01T19:02:43.935Z</time>
      </trkpt>
      <trkpt lat="40.49902833" lon="-3.523275">
        <ele>699.011</ele>
        <time>2019-07-01T19:02:44.935Z</time>
      </trkpt>
      <trkpt lat="40.49895833" lon="-3.52326333">
        <ele>698.011</ele>
        <time>2019-07-01T19:02:45.935Z</time>
      </trkpt>
      <trkpt lat="40.49895833" lon="-3.52326333">
        <ele>698.011</ele>
        <time>2019-07-01T19:02:46.935Z</time>
      </trkpt>
      <trkpt lat="40.49881833" lon="-3.523235">
        <ele>698.011</ele>
        <time>2019-07-01T19:02:47.935Z</time>
      </trkpt>
      <trkpt lat="40.49874667" lon="-3.52321833">
        <ele>698.011</ele>
        <time>2019-07-01T19:02:48.935Z</time>
      </trkpt>
      <trkpt lat="40.49874667" lon="-3.52321833">
        <ele>697.011</ele>
        <time>2019-07-01T19:02:49.935Z</time>
      </trkpt>
      <trkpt lat="40.49859833" lon="-3.52318833">
        <ele>697.011</ele>
        <time>2019-07-01T19:02:50.935Z</time>
      </trkpt>
      <trkpt lat="40.49859833" lon="-3.52318833">
        <ele>697.011</ele>
        <time>2019-07-01T19:02:51.935Z</time>
      </trkpt>
      <trkpt lat="40.49844833" lon="-3.52315167">
        <ele>697.011</ele>
        <time>2019-07-01T19:02:52.935Z</time>
      </trkpt>
      <trkpt lat="40.49844833" lon="-3.52315167">
        <ele>697.011</ele>
        <time>2019-07-01T19:02:53.935Z</time>
      </trkpt>
      <trkpt lat="40.498295" lon="-3.52310833">
        <ele>696.011</ele>
        <time>2019-07-01T19:02:54.935Z</time>
      </trkpt>
      <trkpt lat="40.498295" lon="-3.52310833">
        <ele>696.011</ele>
        <time>2019-07-01T19:02:55.935Z</time>
      </trkpt>
      <trkpt lat="40.49814167" lon="-3.52307">
        <ele>696.011</ele>
        <time>2019-07-01T19:02:56.935Z</time>
      </trkpt>
      <trkpt lat="40.49806667" lon="-3.52306">
        <ele>696.011</ele>
        <time>2019-07-01T19:02:57.935Z</time>
      </trkpt>
      <trkpt lat="40.49806667" lon="-3.52306">
        <ele>696.011</ele>
        <time>2019-07-01T19:02:58.935Z</time>
      </trkpt>
      <trkpt lat="40.49792667" lon="-3.523095">
        <ele>695.011</ele>
        <time>2019-07-01T19:02:59.935Z</time>
      </trkpt>
      <trkpt lat="40.49785667" lon="-3.52310833">
        <ele>695.011</ele>
        <time>2019-07-01T19:03:00.935Z</time>
      </trkpt>
      <trkpt lat="40.49785667" lon="-3.52310833">
        <ele>695.011</ele>
        <time>2019-07-01T19:03:01.935Z</time>
      </trkpt>
      <trkpt lat="40.49773167" lon="-3.52307167">
        <ele>695.011</ele>
        <time>2019-07-01T19:03:02.935Z</time>
      </trkpt>
      <trkpt lat="40.49768167" lon="-3.52301167">
        <ele>695.011</ele>
        <time>2019-07-01T19:03:03.935Z</time>
      </trkpt>
      <trkpt lat="40.49768167" lon="-3.52301167">
        <ele>695.011</ele>
        <time>2019-07-01T19:03:04.935Z</time>
      </trkpt>
      <trkpt lat="40.49762167" lon="-3.52286833">
        <ele>694.011</ele>
        <time>2019-07-01T19:03:05.935Z</time>
      </trkpt>
      <trkpt lat="40.49761833" lon="-3.52279167">
        <ele>694.011</ele>
        <time>2019-07-01T19:03:06.935Z</time>
      </trkpt>
      <trkpt lat="40.49761833" lon="-3.52279167">
        <ele>694.011</ele>
        <time>2019-07-01T19:03:07.935Z</time>
      </trkpt>
      <trkpt lat="40.49764333" lon="-3.52263667">
        <ele>694.011</ele>
        <time>2019-07-01T19:03:08.935Z</time>
      </trkpt>
      <trkpt lat="40.497645" lon="-3.52255833">
        <ele>694.011</ele>
        <time>2019-07-01T19:03:09.935Z</time>
      </trkpt>
      <trkpt lat="40.49763333" lon="-3.52248167">
        <ele>694.011</ele>
        <time>2019-07-01T19:03:10.935Z</time>
      </trkpt>
      <trkpt lat="40.49763333" lon="-3.52248167">
        <ele>694.011</ele>
        <time>2019-07-01T19:03:11.935Z</time>
      </trkpt>
      <trkpt lat="40.49759667" lon="-3.522335">
        <ele>694.011</ele>
        <time>2019-07-01T19:03:12.935Z</time>
      </trkpt>
      <trkpt lat="40.49759667" lon="-3.522335">
        <ele>694.011</ele>
        <time>2019-07-01T19:03:13.935Z</time>
      </trkpt>
      <trkpt lat="40.49755167" lon="-3.52218333">
        <ele>694.011</ele>
        <time>2019-07-01T19:03:14.935Z</time>
      </trkpt>
      <trkpt lat="40.49755167" lon="-3.52218333">
        <ele>694.011</ele>
        <time>2019-07-01T19:03:15.935Z</time>
      </trkpt>
      <trkpt lat="40.4975" lon="-3.522015">
        <ele>694.011</ele>
        <time>2019-07-01T19:03:16.935Z</time>
      </trkpt>
      <trkpt lat="40.4975" lon="-3.522015">
        <ele>694.011</ele>
        <time>2019-07-01T19:03:17.935Z</time>
      </trkpt>
      <trkpt lat="40.497445" lon="-3.52182833">
        <ele>694.011</ele>
        <time>2019-07-01T19:03:18.935Z</time>
      </trkpt>
      <trkpt lat="40.497445" lon="-3.52182833">
        <ele>693.011</ele>
        <time>2019-07-01T19:03:19.935Z</time>
      </trkpt>
      <trkpt lat="40.49738833" lon="-3.52162833">
        <ele>693.011</ele>
        <time>2019-07-01T19:03:20.935Z</time>
      </trkpt>
      <trkpt lat="40.49736" lon="-3.52152667">
        <ele>692.011</ele>
        <time>2019-07-01T19:03:21.935Z</time>
      </trkpt>
      <trkpt lat="40.49736" lon="-3.52152667">
        <ele>692.011</ele>
        <time>2019-07-01T19:03:22.935Z</time>
      </trkpt>
      <trkpt lat="40.4973" lon="-3.52132333">
        <ele>691.011</ele>
        <time>2019-07-01T19:03:23.935Z</time>
      </trkpt>
      <trkpt lat="40.49727333" lon="-3.52121333">
        <ele>691.011</ele>
        <time>2019-07-01T19:03:24.935Z</time>
      </trkpt>
      <trkpt lat="40.49727333" lon="-3.52121333">
        <ele>690.011</ele>
        <time>2019-07-01T19:03:25.935Z</time>
      </trkpt>
      <trkpt lat="40.49721167" lon="-3.52098333">
        <ele>690.011</ele>
        <time>2019-07-01T19:03:26.935Z</time>
      </trkpt>
      <trkpt lat="40.49721167" lon="-3.52098333">
        <ele>689.011</ele>
        <time>2019-07-01T19:03:27.935Z</time>
      </trkpt>
      <trkpt lat="40.49714667" lon="-3.52074167">
        <ele>689.011</ele>
        <time>2019-07-01T19:03:28.935Z</time>
      </trkpt>
      <trkpt lat="40.49714667" lon="-3.52074167">
        <ele>689.011</ele>
        <time>2019-07-01T19:03:29.935Z</time>
      </trkpt>
      <trkpt lat="40.49709667" lon="-3.52047833">
        <ele>689.011</ele>
        <time>2019-07-01T19:03:30.935Z</time>
      </trkpt>
      <trkpt lat="40.49709667" lon="-3.52047833">
        <ele>687.011</ele>
        <time>2019-07-01T19:03:31.935Z</time>
      </trkpt>
      <trkpt lat="40.49704333" lon="-3.520205">
        <ele>687.011</ele>
        <time>2019-07-01T19:03:32.935Z</time>
      </trkpt>
      <trkpt lat="40.49704333" lon="-3.520205">
        <ele>685.011</ele>
        <time>2019-07-01T19:03:33.935Z</time>
      </trkpt>
      <trkpt lat="40.49698333" lon="-3.51992333">
        <ele>685.011</ele>
        <time>2019-07-01T19:03:34.935Z</time>
      </trkpt>
      <trkpt lat="40.49698333" lon="-3.51992333">
        <ele>684.011</ele>
        <time>2019-07-01T19:03:35.935Z</time>
      </trkpt>
      <trkpt lat="40.49692833" lon="-3.519635">
        <ele>684.011</ele>
        <time>2019-07-01T19:03:36.935Z</time>
      </trkpt>
      <trkpt lat="40.49692833" lon="-3.519635">
        <ele>682.011</ele>
        <time>2019-07-01T19:03:37.935Z</time>
      </trkpt>
      <trkpt lat="40.49687167" lon="-3.51934333">
        <ele>682.011</ele>
        <time>2019-07-01T19:03:38.935Z</time>
      </trkpt>
      <trkpt lat="40.496845" lon="-3.51919833">
        <ele>681.011</ele>
        <time>2019-07-01T19:03:39.935Z</time>
      </trkpt>
      <trkpt lat="40.49682" lon="-3.51905167">
        <ele>681.011</ele>
        <time>2019-07-01T19:03:40.935Z</time>
      </trkpt>
      <trkpt lat="40.49682" lon="-3.51905167">
        <ele>680.011</ele>
        <time>2019-07-01T19:03:41.935Z</time>
      </trkpt>
      <trkpt lat="40.49677167" lon="-3.51875833">
        <ele>680.011</ele>
        <time>2019-07-01T19:03:42.935Z</time>
      </trkpt>
      <trkpt lat="40.49677167" lon="-3.51875833">
        <ele>678.011</ele>
        <time>2019-07-01T19:03:43.935Z</time>
      </trkpt>
      <trkpt lat="40.49672" lon="-3.51846167">
        <ele>678.011</ele>
        <time>2019-07-01T19:03:44.935Z</time>
      </trkpt>
      <trkpt lat="40.49672" lon="-3.51846167">
        <ele>677.011</ele>
        <time>2019-07-01T19:03:45.935Z</time>
      </trkpt>
      <trkpt lat="40.49667667" lon="-3.51815333">
        <ele>677.011</ele>
        <time>2019-07-01T19:03:46.935Z</time>
      </trkpt>
      <trkpt lat="40.49667667" lon="-3.51815333">
        <ele>675.011</ele>
        <time>2019-07-01T19:03:47.935Z</time>
      </trkpt>
      <trkpt lat="40.49664667" lon="-3.517835">
        <ele>675.011</ele>
        <time>2019-07-01T19:03:48.935Z</time>
      </trkpt>
      <trkpt lat="40.49664667" lon="-3.517835">
        <ele>674.011</ele>
        <time>2019-07-01T19:03:49.935Z</time>
      </trkpt>
      <trkpt lat="40.49660833" lon="-3.51751333">
        <ele>674.011</ele>
        <time>2019-07-01T19:03:50.935Z</time>
      </trkpt>
      <trkpt lat="40.49660833" lon="-3.51751333">
        <ele>674.011</ele>
        <time>2019-07-01T19:03:51.935Z</time>
      </trkpt>
      <trkpt lat="40.496575" lon="-3.51719">
        <ele>673.011</ele>
        <time>2019-07-01T19:03:52.935Z</time>
      </trkpt>
      <trkpt lat="40.496575" lon="-3.51719">
        <ele>673.011</ele>
        <time>2019-07-01T19:03:53.935Z</time>
      </trkpt>
      <trkpt lat="40.49654667" lon="-3.51686167">
        <ele>670.011</ele>
        <time>2019-07-01T19:03:54.935Z</time>
      </trkpt>
      <trkpt lat="40.49654667" lon="-3.51686167">
        <ele>670.011</ele>
        <time>2019-07-01T19:03:55.935Z</time>
      </trkpt>
      <trkpt lat="40.49651833" lon="-3.516535">
        <ele>669.011</ele>
        <time>2019-07-01T19:03:56.935Z</time>
      </trkpt>
      <trkpt lat="40.49651833" lon="-3.516535">
        <ele>669.011</ele>
        <time>2019-07-01T19:03:57.935Z</time>
      </trkpt>
      <trkpt lat="40.496485" lon="-3.51620167">
        <ele>667.011</ele>
        <time>2019-07-01T19:03:58.935Z</time>
      </trkpt>
      <trkpt lat="40.49647" lon="-3.51603333">
        <ele>667.011</ele>
        <time>2019-07-01T19:03:59.935Z</time>
      </trkpt>
      <trkpt lat="40.49647" lon="-3.51603333">
        <ele>666.011</ele>
        <time>2019-07-01T19:04:00.935Z</time>
      </trkpt>
      <trkpt lat="40.49643333" lon="-3.51569833">
        <ele>666.011</ele>
        <time>2019-07-01T19:04:01.935Z</time>
      </trkpt>
      <trkpt lat="40.49641333" lon="-3.51552833">
        <ele>664.011</ele>
        <time>2019-07-01T19:04:02.935Z</time>
      </trkpt>
      <trkpt lat="40.49641333" lon="-3.51552833">
        <ele>664.011</ele>
        <time>2019-07-01T19:04:03.935Z</time>
      </trkpt>
      <trkpt lat="40.49637" lon="-3.51519167">
        <ele>662.011</ele>
        <time>2019-07-01T19:04:04.935Z</time>
      </trkpt>
      <trkpt lat="40.49637" lon="-3.51519167">
        <ele>662.011</ele>
        <time>2019-07-01T19:04:05.935Z</time>
      </trkpt>
      <trkpt lat="40.49632333" lon="-3.51485667">
        <ele>660.011</ele>
        <time>2019-07-01T19:04:06.935Z</time>
      </trkpt>
      <trkpt lat="40.49632333" lon="-3.51485667">
        <ele>660.011</ele>
        <time>2019-07-01T19:04:07.935Z</time>
      </trkpt>
      <trkpt lat="40.49627167" lon="-3.51453167">
        <ele>659.011</ele>
        <time>2019-07-01T19:04:08.935Z</time>
      </trkpt>
      <trkpt lat="40.49627167" lon="-3.51453167">
        <ele>659.011</ele>
        <time>2019-07-01T19:04:09.935Z</time>
      </trkpt>
      <trkpt lat="40.49621833" lon="-3.51421167">
        <ele>657.011</ele>
        <time>2019-07-01T19:04:10.935Z</time>
      </trkpt>
      <trkpt lat="40.49621833" lon="-3.51421167">
        <ele>657.011</ele>
        <time>2019-07-01T19:04:11.935Z</time>
      </trkpt>
      <trkpt lat="40.49615833" lon="-3.5139">
        <ele>656.011</ele>
        <time>2019-07-01T19:04:12.935Z</time>
      </trkpt>
      <trkpt lat="40.49611833" lon="-3.51375833">
        <ele>656.011</ele>
        <time>2019-07-01T19:04:13.935Z</time>
      </trkpt>
      <trkpt lat="40.49611833" lon="-3.51375833">
        <ele>655.011</ele>
        <time>2019-07-01T19:04:14.935Z</time>
      </trkpt>
      <trkpt lat="40.49604667" lon="-3.51348167">
        <ele>655.011</ele>
        <time>2019-07-01T19:04:15.935Z</time>
      </trkpt>
      <trkpt lat="40.49603" lon="-3.51334">
        <ele>653.011</ele>
        <time>2019-07-01T19:04:16.935Z</time>
      </trkpt>
      <trkpt lat="40.49603" lon="-3.51334">
        <ele>653.011</ele>
        <time>2019-07-01T19:04:17.935Z</time>
      </trkpt>
      <trkpt lat="40.49599167" lon="-3.51307167">
        <ele>653.011</ele>
        <time>2019-07-01T19:04:18.935Z</time>
      </trkpt>
      <trkpt lat="40.49599167" lon="-3.51307167">
        <ele>653.011</ele>
        <time>2019-07-01T19:04:19.935Z</time>
      </trkpt>
      <trkpt lat="40.49594167" lon="-3.51284333">
        <ele>652.011</ele>
        <time>2019-07-01T19:04:20.935Z</time>
      </trkpt>
      <trkpt lat="40.49594167" lon="-3.51284333">
        <ele>652.011</ele>
        <time>2019-07-01T19:04:21.935Z</time>
      </trkpt>
      <trkpt lat="40.49589667" lon="-3.51265167">
        <ele>652.011</ele>
        <time>2019-07-01T19:04:22.935Z</time>
      </trkpt>
      <trkpt lat="40.49589667" lon="-3.51265167">
        <ele>652.011</ele>
        <time>2019-07-01T19:04:23.935Z</time>
      </trkpt>
      <trkpt lat="40.495865" lon="-3.51248167">
        <ele>654.011</ele>
        <time>2019-07-01T19:04:24.935Z</time>
      </trkpt>
      <trkpt lat="40.495865" lon="-3.51248167">
        <ele>654.011</ele>
        <time>2019-07-01T19:04:25.935Z</time>
      </trkpt>
      <trkpt lat="40.495825" lon="-3.51233">
        <ele>655.011</ele>
        <time>2019-07-01T19:04:26.935Z</time>
      </trkpt>
      <trkpt lat="40.495825" lon="-3.51233">
        <ele>655.011</ele>
        <time>2019-07-01T19:04:27.935Z</time>
      </trkpt>
      <trkpt lat="40.49578667" lon="-3.51219">
        <ele>655.011</ele>
        <time>2019-07-01T19:04:28.935Z</time>
      </trkpt>
      <trkpt lat="40.49578667" lon="-3.51219">
        <ele>655.011</ele>
        <time>2019-07-01T19:04:29.935Z</time>
      </trkpt>
      <trkpt lat="40.49574667" lon="-3.51207333">
        <ele>656.011</ele>
        <time>2019-07-01T19:04:30.935Z</time>
      </trkpt>
      <trkpt lat="40.49574667" lon="-3.51207333">
        <ele>656.011</ele>
        <time>2019-07-01T19:04:31.935Z</time>
      </trkpt>
      <trkpt lat="40.49571167" lon="-3.51195833">
        <ele>657.011</ele>
        <time>2019-07-01T19:04:32.935Z</time>
      </trkpt>
      <trkpt lat="40.49571167" lon="-3.51195833">
        <ele>657.011</ele>
        <time>2019-07-01T19:04:33.935Z</time>
      </trkpt>
      <trkpt lat="40.49568667" lon="-3.51184667">
        <ele>657.011</ele>
        <time>2019-07-01T19:04:34.935Z</time>
      </trkpt>
      <trkpt lat="40.49568667" lon="-3.51184667">
        <ele>657.011</ele>
        <time>2019-07-01T19:04:35.935Z</time>
      </trkpt>
      <trkpt lat="40.49565333" lon="-3.51173833">
        <ele>657.011</ele>
        <time>2019-07-01T19:04:36.935Z</time>
      </trkpt>
      <trkpt lat="40.49565333" lon="-3.51173833">
        <ele>658.011</ele>
        <time>2019-07-01T19:04:37.935Z</time>
      </trkpt>
      <trkpt lat="40.49562167" lon="-3.51163833">
        <ele>658.011</ele>
        <time>2019-07-01T19:04:38.935Z</time>
      </trkpt>
      <trkpt lat="40.49562167" lon="-3.51163833">
        <ele>659.011</ele>
        <time>2019-07-01T19:04:39.935Z</time>
      </trkpt>
      <trkpt lat="40.495595" lon="-3.51154167">
        <ele>659.011</ele>
        <time>2019-07-01T19:04:40.935Z</time>
      </trkpt>
      <trkpt lat="40.495595" lon="-3.51154167">
        <ele>659.011</ele>
        <time>2019-07-01T19:04:41.935Z</time>
      </trkpt>
      <trkpt lat="40.49556667" lon="-3.51144333">
        <ele>659.011</ele>
        <time>2019-07-01T19:04:42.935Z</time>
      </trkpt>
      <trkpt lat="40.49556667" lon="-3.51144333">
        <ele>660.011</ele>
        <time>2019-07-01T19:04:43.935Z</time>
      </trkpt>
      <trkpt lat="40.49554" lon="-3.51133833">
        <ele>660.011</ele>
        <time>2019-07-01T19:04:44.935Z</time>
      </trkpt>
      <trkpt lat="40.49552667" lon="-3.51129">
        <ele>660.011</ele>
        <time>2019-07-01T19:04:45.935Z</time>
      </trkpt>
      <trkpt lat="40.49552667" lon="-3.51129">
        <ele>660.011</ele>
        <time>2019-07-01T19:04:46.935Z</time>
      </trkpt>
      <trkpt lat="40.495495" lon="-3.51119">
        <ele>660.011</ele>
        <time>2019-07-01T19:04:47.935Z</time>
      </trkpt>
      <trkpt lat="40.49547667" lon="-3.51114">
        <ele>660.011</ele>
        <time>2019-07-01T19:04:48.935Z</time>
      </trkpt>
      <trkpt lat="40.49547667" lon="-3.51114">
        <ele>660.011</ele>
        <time>2019-07-01T19:04:49.935Z</time>
      </trkpt>
      <trkpt lat="40.49544167" lon="-3.51103667">
        <ele>660.011</ele>
        <time>2019-07-01T19:04:50.935Z</time>
      </trkpt>
      <trkpt lat="40.49544167" lon="-3.51103667">
        <ele>660.011</ele>
        <time>2019-07-01T19:04:51.935Z</time>
      </trkpt>
      <trkpt lat="40.49540667" lon="-3.510935">
        <ele>660.011</ele>
        <time>2019-07-01T19:04:52.935Z</time>
      </trkpt>
      <trkpt lat="40.49540667" lon="-3.510935">
        <ele>660.011</ele>
        <time>2019-07-01T19:04:53.935Z</time>
      </trkpt>
      <trkpt lat="40.49537333" lon="-3.51084">
        <ele>660.011</ele>
        <time>2019-07-01T19:04:54.935Z</time>
      </trkpt>
      <trkpt lat="40.49535667" lon="-3.51079167">
        <ele>662.011</ele>
        <time>2019-07-01T19:04:55.935Z</time>
      </trkpt>
      <trkpt lat="40.49535667" lon="-3.51079167">
        <ele>662.011</ele>
        <time>2019-07-01T19:04:56.935Z</time>
      </trkpt>
      <trkpt lat="40.49532667" lon="-3.51070167">
        <ele>662.011</ele>
        <time>2019-07-01T19:04:57.935Z</time>
      </trkpt>
      <trkpt lat="40.49532667" lon="-3.51070167">
        <ele>662.011</ele>
        <time>2019-07-01T19:04:58.935Z</time>
      </trkpt>
      <trkpt lat="40.49529167" lon="-3.51061">
        <ele>662.011</ele>
        <time>2019-07-01T19:04:59.935Z</time>
      </trkpt>
      <trkpt lat="40.49527167" lon="-3.51055833">
        <ele>662.011</ele>
        <time>2019-07-01T19:05:00.935Z</time>
      </trkpt>
      <trkpt lat="40.49527167" lon="-3.51055833">
        <ele>662.011</ele>
        <time>2019-07-01T19:05:01.935Z</time>
      </trkpt>
      <trkpt lat="40.49523333" lon="-3.51045167">
        <ele>662.011</ele>
        <time>2019-07-01T19:05:02.935Z</time>
      </trkpt>
      <trkpt lat="40.495215" lon="-3.510395">
        <ele>662.011</ele>
        <time>2019-07-01T19:05:03.935Z</time>
      </trkpt>
      <trkpt lat="40.495215" lon="-3.510395">
        <ele>662.011</ele>
        <time>2019-07-01T19:05:04.935Z</time>
      </trkpt>
      <trkpt lat="40.495175" lon="-3.51027">
        <ele>662.011</ele>
        <time>2019-07-01T19:05:05.935Z</time>
      </trkpt>
      <trkpt lat="40.49515333" lon="-3.51021667">
        <ele>662.011</ele>
        <time>2019-07-01T19:05:06.935Z</time>
      </trkpt>
      <trkpt lat="40.49515333" lon="-3.51021667">
        <ele>662.011</ele>
        <time>2019-07-01T19:05:07.935Z</time>
      </trkpt>
      <trkpt lat="40.49512167" lon="-3.51008333">
        <ele>662.011</ele>
        <time>2019-07-01T19:05:08.935Z</time>
      </trkpt>
      <trkpt lat="40.49510833" lon="-3.51001333">
        <ele>662.011</ele>
        <time>2019-07-01T19:05:09.935Z</time>
      </trkpt>
      <trkpt lat="40.49510833" lon="-3.51001333">
        <ele>662.011</ele>
        <time>2019-07-01T19:05:10.935Z</time>
      </trkpt>
      <trkpt lat="40.49508333" lon="-3.509865">
        <ele>662.011</ele>
        <time>2019-07-01T19:05:11.935Z</time>
      </trkpt>
      <trkpt lat="40.49507" lon="-3.50978833">
        <ele>662.011</ele>
        <time>2019-07-01T19:05:12.935Z</time>
      </trkpt>
      <trkpt lat="40.49507" lon="-3.50978833">
        <ele>662.011</ele>
        <time>2019-07-01T19:05:13.935Z</time>
      </trkpt>
      <trkpt lat="40.49504667" lon="-3.50963167">
        <ele>662.011</ele>
        <time>2019-07-01T19:05:14.935Z</time>
      </trkpt>
      <trkpt lat="40.495035" lon="-3.50955167">
        <ele>662.011</ele>
        <time>2019-07-01T19:05:15.935Z</time>
      </trkpt>
      <trkpt lat="40.495035" lon="-3.50955167">
        <ele>662.011</ele>
        <time>2019-07-01T19:05:16.935Z</time>
      </trkpt>
      <trkpt lat="40.49501833" lon="-3.509395">
        <ele>662.011</ele>
        <time>2019-07-01T19:05:17.935Z</time>
      </trkpt>
      <trkpt lat="40.49501" lon="-3.509315">
        <ele>662.011</ele>
        <time>2019-07-01T19:05:18.935Z</time>
      </trkpt>
      <trkpt lat="40.49501" lon="-3.509315">
        <ele>662.011</ele>
        <time>2019-07-01T19:05:19.935Z</time>
      </trkpt>
      <trkpt lat="40.49500333" lon="-3.50915333">
        <ele>664.011</ele>
        <time>2019-07-01T19:05:20.935Z</time>
      </trkpt>
      <trkpt lat="40.49500333" lon="-3.50915333">
        <ele>664.011</ele>
        <time>2019-07-01T19:05:21.935Z</time>
      </trkpt>
      <trkpt lat="40.49499833" lon="-3.50899167">
        <ele>664.011</ele>
        <time>2019-07-01T19:05:22.935Z</time>
      </trkpt>
      <trkpt lat="40.495" lon="-3.50891">
        <ele>664.011</ele>
        <time>2019-07-01T19:05:23.935Z</time>
      </trkpt>
      <trkpt lat="40.49500167" lon="-3.50883">
        <ele>664.011</ele>
        <time>2019-07-01T19:05:24.935Z</time>
      </trkpt>
      <trkpt lat="40.49500167" lon="-3.50883">
        <ele>664.011</ele>
        <time>2019-07-01T19:05:25.935Z</time>
      </trkpt>
      <trkpt lat="40.49501333" lon="-3.508665">
        <ele>663.011</ele>
        <time>2019-07-01T19:05:26.935Z</time>
      </trkpt>
      <trkpt lat="40.49502" lon="-3.50858333">
        <ele>663.011</ele>
        <time>2019-07-01T19:05:27.935Z</time>
      </trkpt>
      <trkpt lat="40.49502" lon="-3.50858333">
        <ele>663.011</ele>
        <time>2019-07-01T19:05:28.935Z</time>
      </trkpt>
      <trkpt lat="40.49503667" lon="-3.50841833">
        <ele>663.011</ele>
        <time>2019-07-01T19:05:29.935Z</time>
      </trkpt>
      <trkpt lat="40.49504667" lon="-3.50833333">
        <ele>663.011</ele>
        <time>2019-07-01T19:05:30.935Z</time>
      </trkpt>
      <trkpt lat="40.49505833" lon="-3.50825">
        <ele>663.011</ele>
        <time>2019-07-01T19:05:31.935Z</time>
      </trkpt>
      <trkpt lat="40.49505833" lon="-3.50825">
        <ele>663.011</ele>
        <time>2019-07-01T19:05:32.935Z</time>
      </trkpt>
      <trkpt lat="40.49508833" lon="-3.508085">
        <ele>663.011</ele>
        <time>2019-07-01T19:05:33.935Z</time>
      </trkpt>
      <trkpt lat="40.49508833" lon="-3.508085">
        <ele>663.011</ele>
        <time>2019-07-01T19:05:34.935Z</time>
      </trkpt>
      <trkpt lat="40.49512" lon="-3.507925">
        <ele>663.011</ele>
        <time>2019-07-01T19:05:35.935Z</time>
      </trkpt>
      <trkpt lat="40.49514" lon="-3.507845">
        <ele>662.011</ele>
        <time>2019-07-01T19:05:36.935Z</time>
      </trkpt>
      <trkpt lat="40.49514" lon="-3.507845">
        <ele>662.011</ele>
        <time>2019-07-01T19:05:37.935Z</time>
      </trkpt>
      <trkpt lat="40.49518333" lon="-3.507685">
        <ele>662.011</ele>
        <time>2019-07-01T19:05:38.935Z</time>
      </trkpt>
      <trkpt lat="40.49520667" lon="-3.50760667">
        <ele>662.011</ele>
        <time>2019-07-01T19:05:39.935Z</time>
      </trkpt>
      <trkpt lat="40.49520667" lon="-3.50760667">
        <ele>662.011</ele>
        <time>2019-07-01T19:05:40.935Z</time>
      </trkpt>
      <trkpt lat="40.49525667" lon="-3.50744833">
        <ele>662.011</ele>
        <time>2019-07-01T19:05:41.935Z</time>
      </trkpt>
      <trkpt lat="40.49525667" lon="-3.50744833">
        <ele>662.011</ele>
        <time>2019-07-01T19:05:42.935Z</time>
      </trkpt>
      <trkpt lat="40.49531333" lon="-3.50730333">
        <ele>662.011</ele>
        <time>2019-07-01T19:05:43.935Z</time>
      </trkpt>
      <trkpt lat="40.49531333" lon="-3.50730333">
        <ele>662.011</ele>
        <time>2019-07-01T19:05:44.935Z</time>
      </trkpt>
      <trkpt lat="40.49537167" lon="-3.507155">
        <ele>662.011</ele>
        <time>2019-07-01T19:05:45.935Z</time>
      </trkpt>
      <trkpt lat="40.49537167" lon="-3.507155">
        <ele>662.011</ele>
        <time>2019-07-01T19:05:46.935Z</time>
      </trkpt>
      <trkpt lat="40.49543" lon="-3.50701667">
        <ele>662.011</ele>
        <time>2019-07-01T19:05:47.935Z</time>
      </trkpt>
      <trkpt lat="40.49546167" lon="-3.50695">
        <ele>662.011</ele>
        <time>2019-07-01T19:05:48.935Z</time>
      </trkpt>
      <trkpt lat="40.49546167" lon="-3.50695">
        <ele>662.011</ele>
        <time>2019-07-01T19:05:49.935Z</time>
      </trkpt>
      <trkpt lat="40.49552667" lon="-3.50681667">
        <ele>662.011</ele>
        <time>2019-07-01T19:05:50.935Z</time>
      </trkpt>
      <trkpt lat="40.49556167" lon="-3.50675333">
        <ele>662.011</ele>
        <time>2019-07-01T19:05:51.935Z</time>
      </trkpt>
      <trkpt lat="40.49556167" lon="-3.50675333">
        <ele>662.011</ele>
        <time>2019-07-01T19:05:52.935Z</time>
      </trkpt>
      <trkpt lat="40.49563667" lon="-3.50663">
        <ele>661.011</ele>
        <time>2019-07-01T19:05:53.935Z</time>
      </trkpt>
      <trkpt lat="40.495675" lon="-3.50657167">
        <ele>661.011</ele>
        <time>2019-07-01T19:05:54.935Z</time>
      </trkpt>
      <trkpt lat="40.495675" lon="-3.50657167">
        <ele>661.011</ele>
        <time>2019-07-01T19:05:55.935Z</time>
      </trkpt>
      <trkpt lat="40.49575333" lon="-3.50645667">
        <ele>661.011</ele>
        <time>2019-07-01T19:05:56.935Z</time>
      </trkpt>
      <trkpt lat="40.49575333" lon="-3.50645667">
        <ele>661.011</ele>
        <time>2019-07-01T19:05:57.935Z</time>
      </trkpt>
      <trkpt lat="40.49584167" lon="-3.50634667">
        <ele>661.011</ele>
        <time>2019-07-01T19:05:58.935Z</time>
      </trkpt>
      <trkpt lat="40.49584167" lon="-3.50634667">
        <ele>661.011</ele>
        <time>2019-07-01T19:05:59.935Z</time>
      </trkpt>
      <trkpt lat="40.49592167" lon="-3.50624333">
        <ele>661.011</ele>
        <time>2019-07-01T19:06:00.935Z</time>
      </trkpt>
      <trkpt lat="40.49592167" lon="-3.50624333">
        <ele>661.011</ele>
        <time>2019-07-01T19:06:01.935Z</time>
      </trkpt>
      <trkpt lat="40.49601" lon="-3.50613833">
        <ele>661.011</ele>
        <time>2019-07-01T19:06:02.935Z</time>
      </trkpt>
      <trkpt lat="40.49601" lon="-3.50613833">
        <ele>661.011</ele>
        <time>2019-07-01T19:06:03.935Z</time>
      </trkpt>
      <trkpt lat="40.49609667" lon="-3.50604667">
        <ele>661.011</ele>
        <time>2019-07-01T19:06:04.935Z</time>
      </trkpt>
      <trkpt lat="40.49609667" lon="-3.50604667">
        <ele>661.011</ele>
        <time>2019-07-01T19:06:05.935Z</time>
      </trkpt>
      <trkpt lat="40.49618667" lon="-3.50596">
        <ele>661.011</ele>
        <time>2019-07-01T19:06:06.935Z</time>
      </trkpt>
      <trkpt lat="40.49618667" lon="-3.50596">
        <ele>661.011</ele>
        <time>2019-07-01T19:06:07.935Z</time>
      </trkpt>
      <trkpt lat="40.49627167" lon="-3.50588167">
        <ele>661.011</ele>
        <time>2019-07-01T19:06:08.935Z</time>
      </trkpt>
      <trkpt lat="40.49627167" lon="-3.50588167">
        <ele>661.011</ele>
        <time>2019-07-01T19:06:09.935Z</time>
      </trkpt>
      <trkpt lat="40.49636" lon="-3.50580667">
        <ele>661.011</ele>
        <time>2019-07-01T19:06:10.935Z</time>
      </trkpt>
      <trkpt lat="40.49640667" lon="-3.50577167">
        <ele>661.011</ele>
        <time>2019-07-01T19:06:11.935Z</time>
      </trkpt>
      <trkpt lat="40.496455" lon="-3.50573833">
        <ele>661.011</ele>
        <time>2019-07-01T19:06:12.935Z</time>
      </trkpt>
      <trkpt lat="40.496455" lon="-3.50573833">
        <ele>661.011</ele>
        <time>2019-07-01T19:06:13.935Z</time>
      </trkpt>
      <trkpt lat="40.496545" lon="-3.50567167">
        <ele>661.011</ele>
        <time>2019-07-01T19:06:14.935Z</time>
      </trkpt>
      <trkpt lat="40.49659167" lon="-3.50564">
        <ele>661.011</ele>
        <time>2019-07-01T19:06:15.935Z</time>
      </trkpt>
      <trkpt lat="40.49659167" lon="-3.50564">
        <ele>661.011</ele>
        <time>2019-07-01T19:06:16.935Z</time>
      </trkpt>
      <trkpt lat="40.496685" lon="-3.50558333">
        <ele>661.011</ele>
        <time>2019-07-01T19:06:17.935Z</time>
      </trkpt>
      <trkpt lat="40.496685" lon="-3.50558333">
        <ele>661.011</ele>
        <time>2019-07-01T19:06:18.935Z</time>
      </trkpt>
      <trkpt lat="40.49677167" lon="-3.50553167">
        <ele>661.011</ele>
        <time>2019-07-01T19:06:19.935Z</time>
      </trkpt>
      <trkpt lat="40.49677167" lon="-3.50553167">
        <ele>661.011</ele>
        <time>2019-07-01T19:06:20.935Z</time>
      </trkpt>
      <trkpt lat="40.49685667" lon="-3.50548333">
        <ele>661.011</ele>
        <time>2019-07-01T19:06:21.935Z</time>
      </trkpt>
      <trkpt lat="40.49685667" lon="-3.50548333">
        <ele>661.011</ele>
        <time>2019-07-01T19:06:22.935Z</time>
      </trkpt>
      <trkpt lat="40.49694333" lon="-3.50544">
        <ele>661.011</ele>
        <time>2019-07-01T19:06:23.935Z</time>
      </trkpt>
      <trkpt lat="40.49698667" lon="-3.50541833">
        <ele>661.011</ele>
        <time>2019-07-01T19:06:24.935Z</time>
      </trkpt>
      <trkpt lat="40.49698667" lon="-3.50541833">
        <ele>661.011</ele>
        <time>2019-07-01T19:06:25.935Z</time>
      </trkpt>
      <trkpt lat="40.497075" lon="-3.50537833">
        <ele>661.011</ele>
        <time>2019-07-01T19:06:26.935Z</time>
      </trkpt>
      <trkpt lat="40.497075" lon="-3.50537833">
        <ele>661.011</ele>
        <time>2019-07-01T19:06:27.935Z</time>
      </trkpt>
      <trkpt lat="40.49715167" lon="-3.50533667">
        <ele>661.011</ele>
        <time>2019-07-01T19:06:28.935Z</time>
      </trkpt>
      <trkpt lat="40.49715167" lon="-3.50533667">
        <ele>662.011</ele>
        <time>2019-07-01T19:06:29.935Z</time>
      </trkpt>
      <trkpt lat="40.49722167" lon="-3.50531333">
        <ele>662.011</ele>
        <time>2019-07-01T19:06:30.935Z</time>
      </trkpt>
      <trkpt lat="40.49722167" lon="-3.50531333">
        <ele>662.011</ele>
        <time>2019-07-01T19:06:31.935Z</time>
      </trkpt>
      <trkpt lat="40.49728833" lon="-3.50526833">
        <ele>662.011</ele>
        <time>2019-07-01T19:06:32.935Z</time>
      </trkpt>
      <trkpt lat="40.49728833" lon="-3.50526833">
        <ele>662.011</ele>
        <time>2019-07-01T19:06:33.935Z</time>
      </trkpt>
      <trkpt lat="40.49735167" lon="-3.50520833">
        <ele>662.011</ele>
        <time>2019-07-01T19:06:34.935Z</time>
      </trkpt>
      <trkpt lat="40.49735167" lon="-3.50520833">
        <ele>661.011</ele>
        <time>2019-07-01T19:06:35.935Z</time>
      </trkpt>
      <trkpt lat="40.49742167" lon="-3.50515167">
        <ele>661.011</ele>
        <time>2019-07-01T19:06:36.935Z</time>
      </trkpt>
      <trkpt lat="40.49742167" lon="-3.50515167">
        <ele>661.011</ele>
        <time>2019-07-01T19:06:37.935Z</time>
      </trkpt>
      <trkpt lat="40.49751" lon="-3.50514333">
        <ele>661.011</ele>
        <time>2019-07-01T19:06:38.935Z</time>
      </trkpt>
      <trkpt lat="40.49751" lon="-3.50514333">
        <ele>661.011</ele>
        <time>2019-07-01T19:06:39.935Z</time>
      </trkpt>
      <trkpt lat="40.49759833" lon="-3.505155">
        <ele>661.011</ele>
        <time>2019-07-01T19:06:40.935Z</time>
      </trkpt>
      <trkpt lat="40.49759833" lon="-3.505155">
        <ele>661.011</ele>
        <time>2019-07-01T19:06:41.935Z</time>
      </trkpt>
      <trkpt lat="40.49769167" lon="-3.505145">
        <ele>661.011</ele>
        <time>2019-07-01T19:06:42.935Z</time>
      </trkpt>
      <trkpt lat="40.49769167" lon="-3.505145">
        <ele>661.011</ele>
        <time>2019-07-01T19:06:43.935Z</time>
      </trkpt>
      <trkpt lat="40.497775" lon="-3.50511">
        <ele>661.011</ele>
        <time>2019-07-01T19:06:44.935Z</time>
      </trkpt>
      <trkpt lat="40.497775" lon="-3.50511">
        <ele>661.011</ele>
        <time>2019-07-01T19:06:45.935Z</time>
      </trkpt>
      <trkpt lat="40.497845" lon="-3.505075">
        <ele>661.011</ele>
        <time>2019-07-01T19:06:46.935Z</time>
      </trkpt>
      <trkpt lat="40.49787833" lon="-3.50505833">
        <ele>661.011</ele>
        <time>2019-07-01T19:06:47.935Z</time>
      </trkpt>
      <trkpt lat="40.49791333" lon="-3.50504">
        <ele>661.011</ele>
        <time>2019-07-01T19:06:48.935Z</time>
      </trkpt>
      <trkpt lat="40.49791333" lon="-3.50504">
        <ele>661.011</ele>
        <time>2019-07-01T19:06:49.935Z</time>
      </trkpt>
      <trkpt lat="40.49798667" lon="-3.50500667">
        <ele>661.011</ele>
        <time>2019-07-01T19:06:50.935Z</time>
      </trkpt>
      <trkpt lat="40.49798667" lon="-3.50500667">
        <ele>661.011</ele>
        <time>2019-07-01T19:06:51.935Z</time>
      </trkpt>
      <trkpt lat="40.498055" lon="-3.50498">
        <ele>661.011</ele>
        <time>2019-07-01T19:06:52.935Z</time>
      </trkpt>
      <trkpt lat="40.498055" lon="-3.50498">
        <ele>661.011</ele>
        <time>2019-07-01T19:06:53.935Z</time>
      </trkpt>
      <trkpt lat="40.49811833" lon="-3.504945">
        <ele>662.011</ele>
        <time>2019-07-01T19:06:54.935Z</time>
      </trkpt>
      <trkpt lat="40.49811833" lon="-3.504945">
        <ele>662.011</ele>
        <time>2019-07-01T19:06:55.935Z</time>
      </trkpt>
      <trkpt lat="40.49818" lon="-3.50491333">
        <ele>663.011</ele>
        <time>2019-07-01T19:06:56.935Z</time>
      </trkpt>
      <trkpt lat="40.49821167" lon="-3.504895">
        <ele>663.011</ele>
        <time>2019-07-01T19:06:57.935Z</time>
      </trkpt>
      <trkpt lat="40.49821167" lon="-3.504895">
        <ele>663.011</ele>
        <time>2019-07-01T19:06:58.935Z</time>
      </trkpt>
      <trkpt lat="40.49827833" lon="-3.50486833">
        <ele>663.011</ele>
        <time>2019-07-01T19:06:59.935Z</time>
      </trkpt>
      <trkpt lat="40.498315" lon="-3.50485333">
        <ele>663.011</ele>
        <time>2019-07-01T19:07:00.935Z</time>
      </trkpt>
      <trkpt lat="40.498315" lon="-3.50485333">
        <ele>663.011</ele>
        <time>2019-07-01T19:07:01.935Z</time>
      </trkpt>
      <trkpt lat="40.49838833" lon="-3.504825">
        <ele>663.011</ele>
        <time>2019-07-01T19:07:02.935Z</time>
      </trkpt>
      <trkpt lat="40.49842333" lon="-3.50481333">
        <ele>663.011</ele>
        <time>2019-07-01T19:07:03.935Z</time>
      </trkpt>
      <trkpt lat="40.49842333" lon="-3.50481333">
        <ele>663.011</ele>
        <time>2019-07-01T19:07:04.935Z</time>
      </trkpt>
      <trkpt lat="40.498495" lon="-3.50478">
        <ele>663.011</ele>
        <time>2019-07-01T19:07:05.935Z</time>
      </trkpt>
      <trkpt lat="40.498495" lon="-3.50478">
        <ele>663.011</ele>
        <time>2019-07-01T19:07:06.935Z</time>
      </trkpt>
      <trkpt lat="40.49856667" lon="-3.504745">
        <ele>663.011</ele>
        <time>2019-07-01T19:07:07.935Z</time>
      </trkpt>
      <trkpt lat="40.49856667" lon="-3.504745">
        <ele>665.011</ele>
        <time>2019-07-01T19:07:08.935Z</time>
      </trkpt>
      <trkpt lat="40.49863667" lon="-3.50470667">
        <ele>665.011</ele>
        <time>2019-07-01T19:07:09.935Z</time>
      </trkpt>
      <trkpt lat="40.49863667" lon="-3.50470667">
        <ele>665.011</ele>
        <time>2019-07-01T19:07:10.935Z</time>
      </trkpt>
      <trkpt lat="40.49871" lon="-3.50467667">
        <ele>665.011</ele>
        <time>2019-07-01T19:07:11.935Z</time>
      </trkpt>
      <trkpt lat="40.49874667" lon="-3.50466">
        <ele>665.011</ele>
        <time>2019-07-01T19:07:12.935Z</time>
      </trkpt>
      <trkpt lat="40.49874667" lon="-3.50466">
        <ele>665.011</ele>
        <time>2019-07-01T19:07:13.935Z</time>
      </trkpt>
      <trkpt lat="40.49882167" lon="-3.50462333">
        <ele>666.011</ele>
        <time>2019-07-01T19:07:14.935Z</time>
      </trkpt>
      <trkpt lat="40.49885667" lon="-3.50460833">
        <ele>666.011</ele>
        <time>2019-07-01T19:07:15.935Z</time>
      </trkpt>
      <trkpt lat="40.49885667" lon="-3.50460833">
        <ele>666.011</ele>
        <time>2019-07-01T19:07:16.935Z</time>
      </trkpt>
      <trkpt lat="40.49892167" lon="-3.50457167">
        <ele>666.011</ele>
        <time>2019-07-01T19:07:17.935Z</time>
      </trkpt>
      <trkpt lat="40.498955" lon="-3.50455333">
        <ele>667.011</ele>
        <time>2019-07-01T19:07:18.935Z</time>
      </trkpt>
      <trkpt lat="40.498955" lon="-3.50455333">
        <ele>667.011</ele>
        <time>2019-07-01T19:07:19.935Z</time>
      </trkpt>
      <trkpt lat="40.49902333" lon="-3.50452">
        <ele>668.011</ele>
        <time>2019-07-01T19:07:20.935Z</time>
      </trkpt>
      <trkpt lat="40.49902333" lon="-3.50452">
        <ele>668.011</ele>
        <time>2019-07-01T19:07:21.935Z</time>
      </trkpt>
      <trkpt lat="40.49909167" lon="-3.50448833">
        <ele>668.011</ele>
        <time>2019-07-01T19:07:22.935Z</time>
      </trkpt>
      <trkpt lat="40.49909167" lon="-3.50448833">
        <ele>668.011</ele>
        <time>2019-07-01T19:07:23.935Z</time>
      </trkpt>
      <trkpt lat="40.49915667" lon="-3.50445667">
        <ele>668.011</ele>
        <time>2019-07-01T19:07:24.935Z</time>
      </trkpt>
      <trkpt lat="40.49915667" lon="-3.50445667">
        <ele>669.011</ele>
        <time>2019-07-01T19:07:25.935Z</time>
      </trkpt>
      <trkpt lat="40.49922" lon="-3.50442833">
        <ele>669.011</ele>
        <time>2019-07-01T19:07:26.935Z</time>
      </trkpt>
      <trkpt lat="40.49922" lon="-3.50442833">
        <ele>669.011</ele>
        <time>2019-07-01T19:07:27.935Z</time>
      </trkpt>
      <trkpt lat="40.49928167" lon="-3.50439833">
        <ele>669.011</ele>
        <time>2019-07-01T19:07:28.935Z</time>
      </trkpt>
      <trkpt lat="40.49928167" lon="-3.50439833">
        <ele>669.011</ele>
        <time>2019-07-01T19:07:29.935Z</time>
      </trkpt>
      <trkpt lat="40.49934667" lon="-3.50436333">
        <ele>669.011</ele>
        <time>2019-07-01T19:07:30.935Z</time>
      </trkpt>
      <trkpt lat="40.49934667" lon="-3.50436333">
        <ele>669.011</ele>
        <time>2019-07-01T19:07:31.935Z</time>
      </trkpt>
      <trkpt lat="40.499415" lon="-3.50432833">
        <ele>669.011</ele>
        <time>2019-07-01T19:07:32.935Z</time>
      </trkpt>
      <trkpt lat="40.49945" lon="-3.50431667">
        <ele>669.011</ele>
        <time>2019-07-01T19:07:33.935Z</time>
      </trkpt>
      <trkpt lat="40.49945" lon="-3.50431667">
        <ele>669.011</ele>
        <time>2019-07-01T19:07:34.935Z</time>
      </trkpt>
      <trkpt lat="40.49952" lon="-3.50429167">
        <ele>669.011</ele>
        <time>2019-07-01T19:07:35.935Z</time>
      </trkpt>
      <trkpt lat="40.49952" lon="-3.50429167">
        <ele>669.011</ele>
        <time>2019-07-01T19:07:36.935Z</time>
      </trkpt>
      <trkpt lat="40.49959" lon="-3.50426167">
        <ele>669.011</ele>
        <time>2019-07-01T19:07:37.935Z</time>
      </trkpt>
      <trkpt lat="40.49959" lon="-3.50426167">
        <ele>669.011</ele>
        <time>2019-07-01T19:07:38.935Z</time>
      </trkpt>
      <trkpt lat="40.49966667" lon="-3.50423167">
        <ele>669.011</ele>
        <time>2019-07-01T19:07:39.935Z</time>
      </trkpt>
      <trkpt lat="40.49966667" lon="-3.50423167">
        <ele>669.011</ele>
        <time>2019-07-01T19:07:40.935Z</time>
      </trkpt>
      <trkpt lat="40.499745" lon="-3.50419167">
        <ele>669.011</ele>
        <time>2019-07-01T19:07:41.935Z</time>
      </trkpt>
      <trkpt lat="40.49978333" lon="-3.50417">
        <ele>669.011</ele>
        <time>2019-07-01T19:07:42.935Z</time>
      </trkpt>
      <trkpt lat="40.49978333" lon="-3.50417">
        <ele>669.011</ele>
        <time>2019-07-01T19:07:43.935Z</time>
      </trkpt>
      <trkpt lat="40.499865" lon="-3.50413167">
        <ele>669.011</ele>
        <time>2019-07-01T19:07:44.935Z</time>
      </trkpt>
      <trkpt lat="40.499905" lon="-3.50411333">
        <ele>669.011</ele>
        <time>2019-07-01T19:07:45.935Z</time>
      </trkpt>
      <trkpt lat="40.499905" lon="-3.50411333">
        <ele>669.011</ele>
        <time>2019-07-01T19:07:46.935Z</time>
      </trkpt>
      <trkpt lat="40.49998333" lon="-3.50407667">
        <ele>669.011</ele>
        <time>2019-07-01T19:07:47.935Z</time>
      </trkpt>
      <trkpt lat="40.500025" lon="-3.50406">
        <ele>669.011</ele>
        <time>2019-07-01T19:07:48.935Z</time>
      </trkpt>
      <trkpt lat="40.500025" lon="-3.50406">
        <ele>669.011</ele>
        <time>2019-07-01T19:07:49.935Z</time>
      </trkpt>
      <trkpt lat="40.50011333" lon="-3.50402833">
        <ele>669.011</ele>
        <time>2019-07-01T19:07:50.935Z</time>
      </trkpt>
      <trkpt lat="40.50016" lon="-3.50401167">
        <ele>669.011</ele>
        <time>2019-07-01T19:07:51.935Z</time>
      </trkpt>
      <trkpt lat="40.50016" lon="-3.50401167">
        <ele>669.011</ele>
        <time>2019-07-01T19:07:52.935Z</time>
      </trkpt>
      <trkpt lat="40.50025333" lon="-3.50397167">
        <ele>669.011</ele>
        <time>2019-07-01T19:07:53.935Z</time>
      </trkpt>
      <trkpt lat="40.50025333" lon="-3.50397167">
        <ele>669.011</ele>
        <time>2019-07-01T19:07:54.935Z</time>
      </trkpt>
      <trkpt lat="40.50035333" lon="-3.503935">
        <ele>668.011</ele>
        <time>2019-07-01T19:07:55.935Z</time>
      </trkpt>
      <trkpt lat="40.50035333" lon="-3.503935">
        <ele>668.011</ele>
        <time>2019-07-01T19:07:56.935Z</time>
      </trkpt>
      <trkpt lat="40.50045" lon="-3.50389667">
        <ele>668.011</ele>
        <time>2019-07-01T19:07:57.935Z</time>
      </trkpt>
      <trkpt lat="40.50045" lon="-3.50389667">
        <ele>668.011</ele>
        <time>2019-07-01T19:07:58.935Z</time>
      </trkpt>
      <trkpt lat="40.500545" lon="-3.50384667">
        <ele>667.011</ele>
        <time>2019-07-01T19:07:59.935Z</time>
      </trkpt>
      <trkpt lat="40.50059" lon="-3.50381167">
        <ele>667.011</ele>
        <time>2019-07-01T19:08:00.935Z</time>
      </trkpt>
      <trkpt lat="40.50059" lon="-3.50381167">
        <ele>667.011</ele>
        <time>2019-07-01T19:08:01.935Z</time>
      </trkpt>
      <trkpt lat="40.50065167" lon="-3.50370833">
        <ele>667.011</ele>
        <time>2019-07-01T19:08:02.935Z</time>
      </trkpt>
      <trkpt lat="40.50065167" lon="-3.50370833">
        <ele>666.011</ele>
        <time>2019-07-01T19:08:03.935Z</time>
      </trkpt>
      <trkpt lat="40.50070833" lon="-3.50359667">
        <ele>666.011</ele>
        <time>2019-07-01T19:08:04.935Z</time>
      </trkpt>
      <trkpt lat="40.50070833" lon="-3.50359667">
        <ele>666.011</ele>
        <time>2019-07-01T19:08:05.935Z</time>
      </trkpt>
      <trkpt lat="40.500785" lon="-3.50352">
        <ele>666.011</ele>
        <time>2019-07-01T19:08:06.935Z</time>
      </trkpt>
      <trkpt lat="40.500785" lon="-3.50352">
        <ele>666.011</ele>
        <time>2019-07-01T19:08:07.935Z</time>
      </trkpt>
      <trkpt lat="40.50087833" lon="-3.50350667">
        <ele>666.011</ele>
        <time>2019-07-01T19:08:08.935Z</time>
      </trkpt>
      <trkpt lat="40.500925" lon="-3.50352">
        <ele>666.011</ele>
        <time>2019-07-01T19:08:09.935Z</time>
      </trkpt>
      <trkpt lat="40.500925" lon="-3.50352">
        <ele>666.011</ele>
        <time>2019-07-01T19:08:10.935Z</time>
      </trkpt>
      <trkpt lat="40.50101833" lon="-3.50357167">
        <ele>666.011</ele>
        <time>2019-07-01T19:08:11.935Z</time>
      </trkpt>
      <trkpt lat="40.50106167" lon="-3.503605">
        <ele>666.011</ele>
        <time>2019-07-01T19:08:12.935Z</time>
      </trkpt>
      <trkpt lat="40.50106167" lon="-3.503605">
        <ele>666.011</ele>
        <time>2019-07-01T19:08:13.935Z</time>
      </trkpt>
      <trkpt lat="40.501165" lon="-3.50364333">
        <ele>666.011</ele>
        <time>2019-07-01T19:08:14.935Z</time>
      </trkpt>
      <trkpt lat="40.50121667" lon="-3.50364167">
        <ele>666.011</ele>
        <time>2019-07-01T19:08:15.935Z</time>
      </trkpt>
      <trkpt lat="40.50121667" lon="-3.50364167">
        <ele>666.011</ele>
        <time>2019-07-01T19:08:16.935Z</time>
      </trkpt>
      <trkpt lat="40.501315" lon="-3.50362833">
        <ele>666.011</ele>
        <time>2019-07-01T19:08:17.935Z</time>
      </trkpt>
      <trkpt lat="40.50136167" lon="-3.50362167">
        <ele>666.011</ele>
        <time>2019-07-01T19:08:18.935Z</time>
      </trkpt>
      <trkpt lat="40.50136167" lon="-3.50362167">
        <ele>666.011</ele>
        <time>2019-07-01T19:08:19.935Z</time>
      </trkpt>
      <trkpt lat="40.50145" lon="-3.50360833">
        <ele>666.011</ele>
        <time>2019-07-01T19:08:20.935Z</time>
      </trkpt>
      <trkpt lat="40.50145" lon="-3.50360833">
        <ele>666.011</ele>
        <time>2019-07-01T19:08:21.935Z</time>
      </trkpt>
      <trkpt lat="40.50153167" lon="-3.50360167">
        <ele>666.011</ele>
        <time>2019-07-01T19:08:22.935Z</time>
      </trkpt>
      <trkpt lat="40.50153167" lon="-3.50360167">
        <ele>666.011</ele>
        <time>2019-07-01T19:08:23.935Z</time>
      </trkpt>
      <trkpt lat="40.50160833" lon="-3.50359">
        <ele>666.011</ele>
        <time>2019-07-01T19:08:24.935Z</time>
      </trkpt>
      <trkpt lat="40.50160833" lon="-3.50359">
        <ele>666.011</ele>
        <time>2019-07-01T19:08:25.935Z</time>
      </trkpt>
      <trkpt lat="40.501685" lon="-3.50357667">
        <ele>666.011</ele>
        <time>2019-07-01T19:08:26.935Z</time>
      </trkpt>
      <trkpt lat="40.50172333" lon="-3.50356833">
        <ele>666.011</ele>
        <time>2019-07-01T19:08:27.935Z</time>
      </trkpt>
      <trkpt lat="40.50172333" lon="-3.50356833">
        <ele>666.011</ele>
        <time>2019-07-01T19:08:28.935Z</time>
      </trkpt>
      <trkpt lat="40.50179833" lon="-3.50355333">
        <ele>666.011</ele>
        <time>2019-07-01T19:08:29.935Z</time>
      </trkpt>
      <trkpt lat="40.501835" lon="-3.50354667">
        <ele>666.011</ele>
        <time>2019-07-01T19:08:30.935Z</time>
      </trkpt>
      <trkpt lat="40.501835" lon="-3.50354667">
        <ele>666.011</ele>
        <time>2019-07-01T19:08:31.935Z</time>
      </trkpt>
      <trkpt lat="40.50191" lon="-3.503535">
        <ele>666.011</ele>
        <time>2019-07-01T19:08:32.935Z</time>
      </trkpt>
      <trkpt lat="40.50191" lon="-3.503535">
        <ele>666.011</ele>
        <time>2019-07-01T19:08:33.935Z</time>
      </trkpt>
      <trkpt lat="40.50198333" lon="-3.50351833">
        <ele>666.011</ele>
        <time>2019-07-01T19:08:34.935Z</time>
      </trkpt>
      <trkpt lat="40.50202" lon="-3.50351167">
        <ele>666.011</ele>
        <time>2019-07-01T19:08:35.935Z</time>
      </trkpt>
      <trkpt lat="40.50202" lon="-3.50351167">
        <ele>666.011</ele>
        <time>2019-07-01T19:08:36.935Z</time>
      </trkpt>
      <trkpt lat="40.50209333" lon="-3.5035">
        <ele>666.011</ele>
        <time>2019-07-01T19:08:37.935Z</time>
      </trkpt>
      <trkpt lat="40.50209333" lon="-3.5035">
        <ele>666.011</ele>
        <time>2019-07-01T19:08:38.935Z</time>
      </trkpt>
      <trkpt lat="40.50216667" lon="-3.50349167">
        <ele>666.011</ele>
        <time>2019-07-01T19:08:39.935Z</time>
      </trkpt>
      <trkpt lat="40.50216667" lon="-3.50349167">
        <ele>666.011</ele>
        <time>2019-07-01T19:08:40.935Z</time>
      </trkpt>
      <trkpt lat="40.50224167" lon="-3.50347333">
        <ele>666.011</ele>
        <time>2019-07-01T19:08:41.935Z</time>
      </trkpt>
      <trkpt lat="40.50227833" lon="-3.50346">
        <ele>666.011</ele>
        <time>2019-07-01T19:08:42.935Z</time>
      </trkpt>
      <trkpt lat="40.50227833" lon="-3.50346">
        <ele>666.011</ele>
        <time>2019-07-01T19:08:43.935Z</time>
      </trkpt>
      <trkpt lat="40.50235333" lon="-3.50344333">
        <ele>666.011</ele>
        <time>2019-07-01T19:08:44.935Z</time>
      </trkpt>
      <trkpt lat="40.50235333" lon="-3.50344333">
        <ele>666.011</ele>
        <time>2019-07-01T19:08:45.935Z</time>
      </trkpt>
      <trkpt lat="40.50242833" lon="-3.50343333">
        <ele>666.011</ele>
        <time>2019-07-01T19:08:46.935Z</time>
      </trkpt>
      <trkpt lat="40.50246667" lon="-3.50342833">
        <ele>666.011</ele>
        <time>2019-07-01T19:08:47.935Z</time>
      </trkpt>
      <trkpt lat="40.50246667" lon="-3.50342833">
        <ele>666.011</ele>
        <time>2019-07-01T19:08:48.935Z</time>
      </trkpt>
      <trkpt lat="40.50254333" lon="-3.50341833">
        <ele>667.011</ele>
        <time>2019-07-01T19:08:49.935Z</time>
      </trkpt>
      <trkpt lat="40.50258" lon="-3.50341333">
        <ele>667.011</ele>
        <time>2019-07-01T19:08:50.935Z</time>
      </trkpt>
      <trkpt lat="40.50261667" lon="-3.50340833">
        <ele>667.011</ele>
        <time>2019-07-01T19:08:51.935Z</time>
      </trkpt>
      <trkpt lat="40.50261667" lon="-3.50340833">
        <ele>667.011</ele>
        <time>2019-07-01T19:08:52.935Z</time>
      </trkpt>
      <trkpt lat="40.50269" lon="-3.50339333">
        <ele>667.011</ele>
        <time>2019-07-01T19:08:53.935Z</time>
      </trkpt>
      <trkpt lat="40.50272667" lon="-3.50338333">
        <ele>667.011</ele>
        <time>2019-07-01T19:08:54.935Z</time>
      </trkpt>
      <trkpt lat="40.50272667" lon="-3.50338333">
        <ele>667.011</ele>
        <time>2019-07-01T19:08:55.935Z</time>
      </trkpt>
      <trkpt lat="40.50279667" lon="-3.50337">
        <ele>667.011</ele>
        <time>2019-07-01T19:08:56.935Z</time>
      </trkpt>
      <trkpt lat="40.50283" lon="-3.503365">
        <ele>668.011</ele>
        <time>2019-07-01T19:08:57.935Z</time>
      </trkpt>
      <trkpt lat="40.50283" lon="-3.503365">
        <ele>668.011</ele>
        <time>2019-07-01T19:08:58.935Z</time>
      </trkpt>
      <trkpt lat="40.50289833" lon="-3.503355">
        <ele>668.011</ele>
        <time>2019-07-01T19:08:59.935Z</time>
      </trkpt>
      <trkpt lat="40.50293" lon="-3.50334833">
        <ele>668.011</ele>
        <time>2019-07-01T19:09:00.935Z</time>
      </trkpt>
      <trkpt lat="40.50293" lon="-3.50334833">
        <ele>669.011</ele>
        <time>2019-07-01T19:09:01.935Z</time>
      </trkpt>
      <trkpt lat="40.50299667" lon="-3.50333167">
        <ele>669.011</ele>
        <time>2019-07-01T19:09:02.935Z</time>
      </trkpt>
      <trkpt lat="40.50302833" lon="-3.503325">
        <ele>669.011</ele>
        <time>2019-07-01T19:09:03.935Z</time>
      </trkpt>
      <trkpt lat="40.50306167" lon="-3.50331833">
        <ele>669.011</ele>
        <time>2019-07-01T19:09:04.935Z</time>
      </trkpt>
      <trkpt lat="40.50306167" lon="-3.50331833">
        <ele>669.011</ele>
        <time>2019-07-01T19:09:05.935Z</time>
      </trkpt>
      <trkpt lat="40.50313" lon="-3.50331">
        <ele>669.011</ele>
        <time>2019-07-01T19:09:06.935Z</time>
      </trkpt>
      <trkpt lat="40.50313" lon="-3.50331">
        <ele>669.011</ele>
        <time>2019-07-01T19:09:07.935Z</time>
      </trkpt>
      <trkpt lat="40.50319667" lon="-3.5033">
        <ele>669.011</ele>
        <time>2019-07-01T19:09:08.935Z</time>
      </trkpt>
      <trkpt lat="40.50319667" lon="-3.5033">
        <ele>669.011</ele>
        <time>2019-07-01T19:09:09.935Z</time>
      </trkpt>
      <trkpt lat="40.503265" lon="-3.50329167">
        <ele>669.011</ele>
        <time>2019-07-01T19:09:10.935Z</time>
      </trkpt>
      <trkpt lat="40.50329833" lon="-3.50329">
        <ele>669.011</ele>
        <time>2019-07-01T19:09:11.935Z</time>
      </trkpt>
      <trkpt lat="40.50333333" lon="-3.503285">
        <ele>669.011</ele>
        <time>2019-07-01T19:09:12.935Z</time>
      </trkpt>
      <trkpt lat="40.50333333" lon="-3.503285">
        <ele>669.011</ele>
        <time>2019-07-01T19:09:13.935Z</time>
      </trkpt>
      <trkpt lat="40.50340167" lon="-3.50327667">
        <ele>669.011</ele>
        <time>2019-07-01T19:09:14.935Z</time>
      </trkpt>
      <trkpt lat="40.503435" lon="-3.50327167">
        <ele>670.011</ele>
        <time>2019-07-01T19:09:15.935Z</time>
      </trkpt>
      <trkpt lat="40.503435" lon="-3.50327167">
        <ele>670.011</ele>
        <time>2019-07-01T19:09:16.935Z</time>
      </trkpt>
      <trkpt lat="40.503505" lon="-3.50326333">
        <ele>670.011</ele>
        <time>2019-07-01T19:09:17.935Z</time>
      </trkpt>
      <trkpt lat="40.503505" lon="-3.50326333">
        <ele>670.011</ele>
        <time>2019-07-01T19:09:18.935Z</time>
      </trkpt>
      <trkpt lat="40.50357333" lon="-3.503265">
        <ele>670.011</ele>
        <time>2019-07-01T19:09:19.935Z</time>
      </trkpt>
      <trkpt lat="40.503605" lon="-3.50326333">
        <ele>670.011</ele>
        <time>2019-07-01T19:09:20.935Z</time>
      </trkpt>
      <trkpt lat="40.503605" lon="-3.50326333">
        <ele>670.011</ele>
        <time>2019-07-01T19:09:21.935Z</time>
      </trkpt>
      <trkpt lat="40.50367167" lon="-3.50326167">
        <ele>670.011</ele>
        <time>2019-07-01T19:09:22.935Z</time>
      </trkpt>
      <trkpt lat="40.50367167" lon="-3.50326167">
        <ele>670.011</ele>
        <time>2019-07-01T19:09:23.935Z</time>
      </trkpt>
      <trkpt lat="40.50373667" lon="-3.50325667">
        <ele>670.011</ele>
        <time>2019-07-01T19:09:24.935Z</time>
      </trkpt>
      <trkpt lat="40.50373667" lon="-3.50325667">
        <ele>670.011</ele>
        <time>2019-07-01T19:09:25.935Z</time>
      </trkpt>
      <trkpt lat="40.50380333" lon="-3.50325167">
        <ele>670.011</ele>
        <time>2019-07-01T19:09:26.935Z</time>
      </trkpt>
      <trkpt lat="40.50380333" lon="-3.50325167">
        <ele>670.011</ele>
        <time>2019-07-01T19:09:27.935Z</time>
      </trkpt>
      <trkpt lat="40.50386667" lon="-3.50324">
        <ele>670.011</ele>
        <time>2019-07-01T19:09:28.935Z</time>
      </trkpt>
      <trkpt lat="40.50386667" lon="-3.50324">
        <ele>670.011</ele>
        <time>2019-07-01T19:09:29.935Z</time>
      </trkpt>
      <trkpt lat="40.50392667" lon="-3.50321">
        <ele>670.011</ele>
        <time>2019-07-01T19:09:30.935Z</time>
      </trkpt>
      <trkpt lat="40.50392667" lon="-3.50321">
        <ele>671.011</ele>
        <time>2019-07-01T19:09:31.935Z</time>
      </trkpt>
      <trkpt lat="40.50398833" lon="-3.50319167">
        <ele>671.011</ele>
        <time>2019-07-01T19:09:32.935Z</time>
      </trkpt>
      <trkpt lat="40.50398833" lon="-3.50319167">
        <ele>671.011</ele>
        <time>2019-07-01T19:09:33.935Z</time>
      </trkpt>
      <trkpt lat="40.50405" lon="-3.503225">
        <ele>671.011</ele>
        <time>2019-07-01T19:09:34.935Z</time>
      </trkpt>
      <trkpt lat="40.50406333" lon="-3.50325833">
        <ele>671.011</ele>
        <time>2019-07-01T19:09:35.935Z</time>
      </trkpt>
      <trkpt lat="40.50406667" lon="-3.50329833">
        <ele>671.011</ele>
        <time>2019-07-01T19:09:36.935Z</time>
      </trkpt>
      <trkpt lat="40.50406667" lon="-3.50329833">
        <ele>671.011</ele>
        <time>2019-07-01T19:09:37.935Z</time>
      </trkpt>
      <trkpt lat="40.50404" lon="-3.50337">
        <ele>671.011</ele>
        <time>2019-07-01T19:09:38.935Z</time>
      </trkpt>
      <trkpt lat="40.50401667" lon="-3.50339167">
        <ele>671.011</ele>
        <time>2019-07-01T19:09:39.935Z</time>
      </trkpt>
      <trkpt lat="40.50401667" lon="-3.50339167">
        <ele>671.011</ele>
        <time>2019-07-01T19:09:40.935Z</time>
      </trkpt>
      <trkpt lat="40.503955" lon="-3.503385">
        <ele>671.011</ele>
        <time>2019-07-01T19:09:41.935Z</time>
      </trkpt>
      <trkpt lat="40.50392167" lon="-3.50337333">
        <ele>671.011</ele>
        <time>2019-07-01T19:09:42.935Z</time>
      </trkpt>
      <trkpt lat="40.50392167" lon="-3.50337333">
        <ele>671.011</ele>
        <time>2019-07-01T19:09:43.935Z</time>
      </trkpt>
      <trkpt lat="40.503855" lon="-3.50334833">
        <ele>671.011</ele>
        <time>2019-07-01T19:09:44.935Z</time>
      </trkpt>
      <trkpt lat="40.50381667" lon="-3.50333833">
        <ele>671.011</ele>
        <time>2019-07-01T19:09:45.935Z</time>
      </trkpt>
      <trkpt lat="40.50381667" lon="-3.50333833">
        <ele>671.011</ele>
        <time>2019-07-01T19:09:46.935Z</time>
      </trkpt>
      <trkpt lat="40.50373" lon="-3.50333667">
        <ele>671.011</ele>
        <time>2019-07-01T19:09:47.935Z</time>
      </trkpt>
      <trkpt lat="40.503685" lon="-3.50334">
        <ele>671.011</ele>
        <time>2019-07-01T19:09:48.935Z</time>
      </trkpt>
      <trkpt lat="40.503685" lon="-3.50334">
        <ele>671.011</ele>
        <time>2019-07-01T19:09:49.935Z</time>
      </trkpt>
      <trkpt lat="40.50358833" lon="-3.50334167">
        <ele>671.011</ele>
        <time>2019-07-01T19:09:50.935Z</time>
      </trkpt>
      <trkpt lat="40.50358833" lon="-3.50334167">
        <ele>671.011</ele>
        <time>2019-07-01T19:09:51.935Z</time>
      </trkpt>
      <trkpt lat="40.503485" lon="-3.50334833">
        <ele>671.011</ele>
        <time>2019-07-01T19:09:52.935Z</time>
      </trkpt>
      <trkpt lat="40.503485" lon="-3.50334833">
        <ele>670.011</ele>
        <time>2019-07-01T19:09:53.935Z</time>
      </trkpt>
      <trkpt lat="40.50337333" lon="-3.50335167">
        <ele>670.011</ele>
        <time>2019-07-01T19:09:54.935Z</time>
      </trkpt>
      <trkpt lat="40.50337333" lon="-3.50335167">
        <ele>670.011</ele>
        <time>2019-07-01T19:09:55.935Z</time>
      </trkpt>
      <trkpt lat="40.50325167" lon="-3.503365">
        <ele>670.011</ele>
        <time>2019-07-01T19:09:56.935Z</time>
      </trkpt>
      <trkpt lat="40.50325167" lon="-3.503365">
        <ele>670.011</ele>
        <time>2019-07-01T19:09:57.935Z</time>
      </trkpt>
      <trkpt lat="40.50312333" lon="-3.50338333">
        <ele>670.011</ele>
        <time>2019-07-01T19:09:58.935Z</time>
      </trkpt>
      <trkpt lat="40.50312333" lon="-3.50338333">
        <ele>670.011</ele>
        <time>2019-07-01T19:09:59.935Z</time>
      </trkpt>
      <trkpt lat="40.50298833" lon="-3.5034">
        <ele>670.011</ele>
        <time>2019-07-01T19:10:00.935Z</time>
      </trkpt>
      <trkpt lat="40.50298833" lon="-3.5034">
        <ele>669.011</ele>
        <time>2019-07-01T19:10:01.935Z</time>
      </trkpt>
      <trkpt lat="40.50285" lon="-3.50342167">
        <ele>669.011</ele>
        <time>2019-07-01T19:10:02.935Z</time>
      </trkpt>
      <trkpt lat="40.50285" lon="-3.50342167">
        <ele>669.011</ele>
        <time>2019-07-01T19:10:03.935Z</time>
      </trkpt>
      <trkpt lat="40.502705" lon="-3.503445">
        <ele>669.011</ele>
        <time>2019-07-01T19:10:04.935Z</time>
      </trkpt>
      <trkpt lat="40.50262833" lon="-3.503455">
        <ele>669.011</ele>
        <time>2019-07-01T19:10:05.935Z</time>
      </trkpt>
      <trkpt lat="40.50262833" lon="-3.503455">
        <ele>669.011</ele>
        <time>2019-07-01T19:10:06.935Z</time>
      </trkpt>
      <trkpt lat="40.502475" lon="-3.50348167">
        <ele>668.011</ele>
        <time>2019-07-01T19:10:07.935Z</time>
      </trkpt>
      <trkpt lat="40.502475" lon="-3.50348167">
        <ele>668.011</ele>
        <time>2019-07-01T19:10:08.935Z</time>
      </trkpt>
      <trkpt lat="40.502315" lon="-3.50351333">
        <ele>668.011</ele>
        <time>2019-07-01T19:10:09.935Z</time>
      </trkpt>
      <trkpt lat="40.502315" lon="-3.50351333">
        <ele>668.011</ele>
        <time>2019-07-01T19:10:10.935Z</time>
      </trkpt>
      <trkpt lat="40.50214833" lon="-3.50354667">
        <ele>667.011</ele>
        <time>2019-07-01T19:10:11.935Z</time>
      </trkpt>
      <trkpt lat="40.502065" lon="-3.50356167">
        <ele>667.011</ele>
        <time>2019-07-01T19:10:12.935Z</time>
      </trkpt>
      <trkpt lat="40.502065" lon="-3.50356167">
        <ele>667.011</ele>
        <time>2019-07-01T19:10:13.935Z</time>
      </trkpt>
      <trkpt lat="40.50189667" lon="-3.503595">
        <ele>667.011</ele>
        <time>2019-07-01T19:10:14.935Z</time>
      </trkpt>
      <trkpt lat="40.50181167" lon="-3.50361167">
        <ele>666.011</ele>
        <time>2019-07-01T19:10:15.935Z</time>
      </trkpt>
      <trkpt lat="40.50181167" lon="-3.50361167">
        <ele>666.011</ele>
        <time>2019-07-01T19:10:16.935Z</time>
      </trkpt>
      <trkpt lat="40.50163667" lon="-3.50364333">
        <ele>666.011</ele>
        <time>2019-07-01T19:10:17.935Z</time>
      </trkpt>
      <trkpt lat="40.50154833" lon="-3.50366">
        <ele>666.011</ele>
        <time>2019-07-01T19:10:18.935Z</time>
      </trkpt>
      <trkpt lat="40.50154833" lon="-3.50366">
        <ele>666.011</ele>
        <time>2019-07-01T19:10:19.935Z</time>
      </trkpt>
      <trkpt lat="40.50136833" lon="-3.50368833">
        <ele>666.011</ele>
        <time>2019-07-01T19:10:20.935Z</time>
      </trkpt>
      <trkpt lat="40.50127667" lon="-3.50370667">
        <ele>666.011</ele>
        <time>2019-07-01T19:10:21.935Z</time>
      </trkpt>
      <trkpt lat="40.50127667" lon="-3.50370667">
        <ele>666.011</ele>
        <time>2019-07-01T19:10:22.935Z</time>
      </trkpt>
      <trkpt lat="40.5011" lon="-3.50377667">
        <ele>665.011</ele>
        <time>2019-07-01T19:10:23.935Z</time>
      </trkpt>
      <trkpt lat="40.501025" lon="-3.50384667">
        <ele>665.011</ele>
        <time>2019-07-01T19:10:24.935Z</time>
      </trkpt>
      <trkpt lat="40.501025" lon="-3.50384667">
        <ele>665.011</ele>
        <time>2019-07-01T19:10:25.935Z</time>
      </trkpt>
      <trkpt lat="40.50088333" lon="-3.503995">
        <ele>665.011</ele>
        <time>2019-07-01T19:10:26.935Z</time>
      </trkpt>
      <trkpt lat="40.50088333" lon="-3.503995">
        <ele>665.011</ele>
        <time>2019-07-01T19:10:27.935Z</time>
      </trkpt>
      <trkpt lat="40.50071167" lon="-3.50400167">
        <ele>665.011</ele>
        <time>2019-07-01T19:10:28.935Z</time>
      </trkpt>
      <trkpt lat="40.50071167" lon="-3.50400167">
        <ele>665.011</ele>
        <time>2019-07-01T19:10:29.935Z</time>
      </trkpt>
      <trkpt lat="40.50054333" lon="-3.50397333">
        <ele>665.011</ele>
        <time>2019-07-01T19:10:30.935Z</time>
      </trkpt>
      <trkpt lat="40.50054333" lon="-3.50397333">
        <ele>665.011</ele>
        <time>2019-07-01T19:10:31.935Z</time>
      </trkpt>
      <trkpt lat="40.50038833" lon="-3.504035">
        <ele>665.011</ele>
        <time>2019-07-01T19:10:32.935Z</time>
      </trkpt>
      <trkpt lat="40.50038833" lon="-3.504035">
        <ele>665.011</ele>
        <time>2019-07-01T19:10:33.935Z</time>
      </trkpt>
      <trkpt lat="40.500245" lon="-3.50409833">
        <ele>665.011</ele>
        <time>2019-07-01T19:10:34.935Z</time>
      </trkpt>
      <trkpt lat="40.500245" lon="-3.50409833">
        <ele>665.011</ele>
        <time>2019-07-01T19:10:35.935Z</time>
      </trkpt>
      <trkpt lat="40.50011" lon="-3.504145">
        <ele>665.011</ele>
        <time>2019-07-01T19:10:36.935Z</time>
      </trkpt>
      <trkpt lat="40.50011" lon="-3.504145">
        <ele>665.011</ele>
        <time>2019-07-01T19:10:37.935Z</time>
      </trkpt>
      <trkpt lat="40.49999" lon="-3.50419667">
        <ele>665.011</ele>
        <time>2019-07-01T19:10:38.935Z</time>
      </trkpt>
      <trkpt lat="40.49993333" lon="-3.50422333">
        <ele>665.011</ele>
        <time>2019-07-01T19:10:39.935Z</time>
      </trkpt>
      <trkpt lat="40.49987833" lon="-3.50424667">
        <ele>665.011</ele>
        <time>2019-07-01T19:10:40.935Z</time>
      </trkpt>
      <trkpt lat="40.49987833" lon="-3.50424667">
        <ele>665.011</ele>
        <time>2019-07-01T19:10:41.935Z</time>
      </trkpt>
      <trkpt lat="40.499775" lon="-3.504295">
        <ele>666.011</ele>
        <time>2019-07-01T19:10:42.935Z</time>
      </trkpt>
      <trkpt lat="40.499775" lon="-3.504295">
        <ele>666.011</ele>
        <time>2019-07-01T19:10:43.935Z</time>
      </trkpt>
      <trkpt lat="40.49967667" lon="-3.50434">
        <ele>666.011</ele>
        <time>2019-07-01T19:10:44.935Z</time>
      </trkpt>
      <trkpt lat="40.49967667" lon="-3.50434">
        <ele>666.011</ele>
        <time>2019-07-01T19:10:45.935Z</time>
      </trkpt>
      <trkpt lat="40.49956833" lon="-3.50438167">
        <ele>666.011</ele>
        <time>2019-07-01T19:10:46.935Z</time>
      </trkpt>
      <trkpt lat="40.49956833" lon="-3.50438167">
        <ele>666.011</ele>
        <time>2019-07-01T19:10:47.935Z</time>
      </trkpt>
      <trkpt lat="40.49945333" lon="-3.50444167">
        <ele>667.011</ele>
        <time>2019-07-01T19:10:48.935Z</time>
      </trkpt>
      <trkpt lat="40.49945333" lon="-3.50444167">
        <ele>667.011</ele>
        <time>2019-07-01T19:10:49.935Z</time>
      </trkpt>
      <trkpt lat="40.499335" lon="-3.50450167">
        <ele>667.011</ele>
        <time>2019-07-01T19:10:50.935Z</time>
      </trkpt>
      <trkpt lat="40.499335" lon="-3.50450167">
        <ele>667.011</ele>
        <time>2019-07-01T19:10:51.935Z</time>
      </trkpt>
      <trkpt lat="40.49921333" lon="-3.50456333">
        <ele>667.011</ele>
        <time>2019-07-01T19:10:52.935Z</time>
      </trkpt>
      <trkpt lat="40.49914833" lon="-3.50459">
        <ele>667.011</ele>
        <time>2019-07-01T19:10:53.935Z</time>
      </trkpt>
      <trkpt lat="40.49908333" lon="-3.50461333">
        <ele>667.011</ele>
        <time>2019-07-01T19:10:54.935Z</time>
      </trkpt>
      <trkpt lat="40.49908333" lon="-3.50461333">
        <ele>667.011</ele>
        <time>2019-07-01T19:10:55.935Z</time>
      </trkpt>
      <trkpt lat="40.49894667" lon="-3.504665">
        <ele>667.011</ele>
        <time>2019-07-01T19:10:56.935Z</time>
      </trkpt>
      <trkpt lat="40.49894667" lon="-3.504665">
        <ele>667.011</ele>
        <time>2019-07-01T19:10:57.935Z</time>
      </trkpt>
      <trkpt lat="40.4988" lon="-3.50471833">
        <ele>667.011</ele>
        <time>2019-07-01T19:10:58.935Z</time>
      </trkpt>
      <trkpt lat="40.4988" lon="-3.50471833">
        <ele>667.011</ele>
        <time>2019-07-01T19:10:59.935Z</time>
      </trkpt>
      <trkpt lat="40.49864833" lon="-3.50478667">
        <ele>667.011</ele>
        <time>2019-07-01T19:11:00.935Z</time>
      </trkpt>
      <trkpt lat="40.49864833" lon="-3.50478667">
        <ele>667.011</ele>
        <time>2019-07-01T19:11:01.935Z</time>
      </trkpt>
      <trkpt lat="40.49848667" lon="-3.50486833">
        <ele>665.011</ele>
        <time>2019-07-01T19:11:02.935Z</time>
      </trkpt>
      <trkpt lat="40.4984" lon="-3.50490667">
        <ele>665.011</ele>
        <time>2019-07-01T19:11:03.935Z</time>
      </trkpt>
      <trkpt lat="40.4984" lon="-3.50490667">
        <ele>665.011</ele>
        <time>2019-07-01T19:11:04.935Z</time>
      </trkpt>
      <trkpt lat="40.49822" lon="-3.50498333">
        <ele>665.011</ele>
        <time>2019-07-01T19:11:05.935Z</time>
      </trkpt>
      <trkpt lat="40.49812833" lon="-3.50502667">
        <ele>664.011</ele>
        <time>2019-07-01T19:11:06.935Z</time>
      </trkpt>
      <trkpt lat="40.49812833" lon="-3.50502667">
        <ele>664.011</ele>
        <time>2019-07-01T19:11:07.935Z</time>
      </trkpt>
      <trkpt lat="40.49793833" lon="-3.50511333">
        <ele>664.011</ele>
        <time>2019-07-01T19:11:08.935Z</time>
      </trkpt>
      <trkpt lat="40.49783833" lon="-3.50515833">
        <ele>664.011</ele>
        <time>2019-07-01T19:11:09.935Z</time>
      </trkpt>
      <trkpt lat="40.49783833" lon="-3.50515833">
        <ele>664.011</ele>
        <time>2019-07-01T19:11:10.935Z</time>
      </trkpt>
      <trkpt lat="40.49765333" lon="-3.50528833">
        <ele>664.011</ele>
        <time>2019-07-01T19:11:11.935Z</time>
      </trkpt>
      <trkpt lat="40.49756667" lon="-3.50536833">
        <ele>662.011</ele>
        <time>2019-07-01T19:11:12.935Z</time>
      </trkpt>
      <trkpt lat="40.49756667" lon="-3.50536833">
        <ele>662.011</ele>
        <time>2019-07-01T19:11:13.935Z</time>
      </trkpt>
      <trkpt lat="40.49738667" lon="-3.50542667">
        <ele>661.011</ele>
        <time>2019-07-01T19:11:14.935Z</time>
      </trkpt>
      <trkpt lat="40.49738667" lon="-3.50542667">
        <ele>661.011</ele>
        <time>2019-07-01T19:11:15.935Z</time>
      </trkpt>
      <trkpt lat="40.49721833" lon="-3.50540667">
        <ele>661.011</ele>
        <time>2019-07-01T19:11:16.935Z</time>
      </trkpt>
      <trkpt lat="40.49721833" lon="-3.50540667">
        <ele>661.011</ele>
        <time>2019-07-01T19:11:17.935Z</time>
      </trkpt>
      <trkpt lat="40.497065" lon="-3.50546833">
        <ele>661.011</ele>
        <time>2019-07-01T19:11:18.935Z</time>
      </trkpt>
      <trkpt lat="40.497065" lon="-3.50546833">
        <ele>661.011</ele>
        <time>2019-07-01T19:11:19.935Z</time>
      </trkpt>
      <trkpt lat="40.49691333" lon="-3.50553833">
        <ele>661.011</ele>
        <time>2019-07-01T19:11:20.935Z</time>
      </trkpt>
      <trkpt lat="40.49683833" lon="-3.50557667">
        <ele>661.011</ele>
        <time>2019-07-01T19:11:21.935Z</time>
      </trkpt>
      <trkpt lat="40.49683833" lon="-3.50557667">
        <ele>661.011</ele>
        <time>2019-07-01T19:11:22.935Z</time>
      </trkpt>
      <trkpt lat="40.49668333" lon="-3.50567">
        <ele>661.011</ele>
        <time>2019-07-01T19:11:23.935Z</time>
      </trkpt>
      <trkpt lat="40.49660333" lon="-3.50572167">
        <ele>661.011</ele>
        <time>2019-07-01T19:11:24.935Z</time>
      </trkpt>
      <trkpt lat="40.49660333" lon="-3.50572167">
        <ele>661.011</ele>
        <time>2019-07-01T19:11:25.935Z</time>
      </trkpt>
      <trkpt lat="40.49644333" lon="-3.50584">
        <ele>661.011</ele>
        <time>2019-07-01T19:11:26.935Z</time>
      </trkpt>
      <trkpt lat="40.49644333" lon="-3.50584">
        <ele>661.011</ele>
        <time>2019-07-01T19:11:27.935Z</time>
      </trkpt>
      <trkpt lat="40.49628333" lon="-3.50598167">
        <ele>661.011</ele>
        <time>2019-07-01T19:11:28.935Z</time>
      </trkpt>
      <trkpt lat="40.49620333" lon="-3.50605833">
        <ele>661.011</ele>
        <time>2019-07-01T19:11:29.935Z</time>
      </trkpt>
      <trkpt lat="40.49612333" lon="-3.50613667">
        <ele>661.011</ele>
        <time>2019-07-01T19:11:30.935Z</time>
      </trkpt>
      <trkpt lat="40.49612333" lon="-3.50613667">
        <ele>661.011</ele>
        <time>2019-07-01T19:11:31.935Z</time>
      </trkpt>
      <trkpt lat="40.49596667" lon="-3.50631">
        <ele>661.011</ele>
        <time>2019-07-01T19:11:32.935Z</time>
      </trkpt>
      <trkpt lat="40.49596667" lon="-3.50631">
        <ele>661.011</ele>
        <time>2019-07-01T19:11:33.935Z</time>
      </trkpt>
      <trkpt lat="40.49581833" lon="-3.50649833">
        <ele>661.011</ele>
        <time>2019-07-01T19:11:34.935Z</time>
      </trkpt>
      <trkpt lat="40.49581833" lon="-3.50649833">
        <ele>661.011</ele>
        <time>2019-07-01T19:11:35.935Z</time>
      </trkpt>
      <trkpt lat="40.49568667" lon="-3.50670167">
        <ele>661.011</ele>
        <time>2019-07-01T19:11:36.935Z</time>
      </trkpt>
      <trkpt lat="40.49568667" lon="-3.50670167">
        <ele>661.011</ele>
        <time>2019-07-01T19:11:37.935Z</time>
      </trkpt>
      <trkpt lat="40.49557167" lon="-3.506915">
        <ele>661.011</ele>
        <time>2019-07-01T19:11:38.935Z</time>
      </trkpt>
      <trkpt lat="40.49551833" lon="-3.50702167">
        <ele>661.011</ele>
        <time>2019-07-01T19:11:39.935Z</time>
      </trkpt>
      <trkpt lat="40.49551833" lon="-3.50702167">
        <ele>661.011</ele>
        <time>2019-07-01T19:11:40.935Z</time>
      </trkpt>
      <trkpt lat="40.49542667" lon="-3.50723333">
        <ele>661.011</ele>
        <time>2019-07-01T19:11:41.935Z</time>
      </trkpt>
      <trkpt lat="40.49538333" lon="-3.50733833">
        <ele>661.011</ele>
        <time>2019-07-01T19:11:42.935Z</time>
      </trkpt>
      <trkpt lat="40.49538333" lon="-3.50733833">
        <ele>661.011</ele>
        <time>2019-07-01T19:11:43.935Z</time>
      </trkpt>
      <trkpt lat="40.49531167" lon="-3.50755167">
        <ele>661.011</ele>
        <time>2019-07-01T19:11:44.935Z</time>
      </trkpt>
      <trkpt lat="40.49527833" lon="-3.50766">
        <ele>661.011</ele>
        <time>2019-07-01T19:11:45.935Z</time>
      </trkpt>
      <trkpt lat="40.49527833" lon="-3.50766">
        <ele>661.011</ele>
        <time>2019-07-01T19:11:46.935Z</time>
      </trkpt>
      <trkpt lat="40.49521333" lon="-3.50786667">
        <ele>661.011</ele>
        <time>2019-07-01T19:11:47.935Z</time>
      </trkpt>
      <trkpt lat="40.49518667" lon="-3.50797">
        <ele>661.011</ele>
        <time>2019-07-01T19:11:48.935Z</time>
      </trkpt>
      <trkpt lat="40.49518667" lon="-3.50797">
        <ele>661.011</ele>
        <time>2019-07-01T19:11:49.935Z</time>
      </trkpt>
      <trkpt lat="40.49514667" lon="-3.50816833">
        <ele>661.011</ele>
        <time>2019-07-01T19:11:50.935Z</time>
      </trkpt>
      <trkpt lat="40.49513167" lon="-3.50826667">
        <ele>661.011</ele>
        <time>2019-07-01T19:11:51.935Z</time>
      </trkpt>
      <trkpt lat="40.49513167" lon="-3.50826667">
        <ele>661.011</ele>
        <time>2019-07-01T19:11:52.935Z</time>
      </trkpt>
      <trkpt lat="40.495105" lon="-3.50845833">
        <ele>661.011</ele>
        <time>2019-07-01T19:11:53.935Z</time>
      </trkpt>
      <trkpt lat="40.49509667" lon="-3.50854833">
        <ele>661.011</ele>
        <time>2019-07-01T19:11:54.935Z</time>
      </trkpt>
      <trkpt lat="40.49509667" lon="-3.50854833">
        <ele>661.011</ele>
        <time>2019-07-01T19:11:55.935Z</time>
      </trkpt>
      <trkpt lat="40.495085" lon="-3.508725">
        <ele>661.011</ele>
        <time>2019-07-01T19:11:56.935Z</time>
      </trkpt>
      <trkpt lat="40.495085" lon="-3.508725">
        <ele>661.011</ele>
        <time>2019-07-01T19:11:57.935Z</time>
      </trkpt>
      <trkpt lat="40.49508" lon="-3.50889">
        <ele>661.011</ele>
        <time>2019-07-01T19:11:58.935Z</time>
      </trkpt>
      <trkpt lat="40.49508167" lon="-3.50896667">
        <ele>661.011</ele>
        <time>2019-07-01T19:11:59.935Z</time>
      </trkpt>
      <trkpt lat="40.49508167" lon="-3.50896667">
        <ele>661.011</ele>
        <time>2019-07-01T19:12:00.935Z</time>
      </trkpt>
      <trkpt lat="40.495085" lon="-3.50912333">
        <ele>661.011</ele>
        <time>2019-07-01T19:12:01.935Z</time>
      </trkpt>
      <trkpt lat="40.49508833" lon="-3.50920167">
        <ele>661.011</ele>
        <time>2019-07-01T19:12:02.935Z</time>
      </trkpt>
      <trkpt lat="40.49508833" lon="-3.50920167">
        <ele>661.011</ele>
        <time>2019-07-01T19:12:03.935Z</time>
      </trkpt>
      <trkpt lat="40.49510167" lon="-3.50935833">
        <ele>662.011</ele>
        <time>2019-07-01T19:12:04.935Z</time>
      </trkpt>
      <trkpt lat="40.49510167" lon="-3.50935833">
        <ele>662.011</ele>
        <time>2019-07-01T19:12:05.935Z</time>
      </trkpt>
      <trkpt lat="40.495115" lon="-3.50951333">
        <ele>662.011</ele>
        <time>2019-07-01T19:12:06.935Z</time>
      </trkpt>
      <trkpt lat="40.495115" lon="-3.50951333">
        <ele>662.011</ele>
        <time>2019-07-01T19:12:07.935Z</time>
      </trkpt>
      <trkpt lat="40.49513333" lon="-3.509665">
        <ele>662.011</ele>
        <time>2019-07-01T19:12:08.935Z</time>
      </trkpt>
      <trkpt lat="40.49513333" lon="-3.509665">
        <ele>662.011</ele>
        <time>2019-07-01T19:12:09.935Z</time>
      </trkpt>
      <trkpt lat="40.49515833" lon="-3.50981333">
        <ele>663.011</ele>
        <time>2019-07-01T19:12:10.935Z</time>
      </trkpt>
      <trkpt lat="40.49515833" lon="-3.50981333">
        <ele>663.011</ele>
        <time>2019-07-01T19:12:11.935Z</time>
      </trkpt>
      <trkpt lat="40.495185" lon="-3.509965">
        <ele>663.011</ele>
        <time>2019-07-01T19:12:12.935Z</time>
      </trkpt>
      <trkpt lat="40.495185" lon="-3.509965">
        <ele>663.011</ele>
        <time>2019-07-01T19:12:13.935Z</time>
      </trkpt>
      <trkpt lat="40.49522" lon="-3.51011167">
        <ele>663.011</ele>
        <time>2019-07-01T19:12:14.935Z</time>
      </trkpt>
      <trkpt lat="40.49522" lon="-3.51011167">
        <ele>663.011</ele>
        <time>2019-07-01T19:12:15.935Z</time>
      </trkpt>
      <trkpt lat="40.49525667" lon="-3.510255">
        <ele>663.011</ele>
        <time>2019-07-01T19:12:16.935Z</time>
      </trkpt>
      <trkpt lat="40.49525667" lon="-3.510255">
        <ele>663.011</ele>
        <time>2019-07-01T19:12:17.935Z</time>
      </trkpt>
      <trkpt lat="40.495295" lon="-3.51039">
        <ele>663.011</ele>
        <time>2019-07-01T19:12:18.935Z</time>
      </trkpt>
      <trkpt lat="40.495295" lon="-3.51039">
        <ele>663.011</ele>
        <time>2019-07-01T19:12:19.935Z</time>
      </trkpt>
      <trkpt lat="40.49533667" lon="-3.510525">
        <ele>663.011</ele>
        <time>2019-07-01T19:12:20.935Z</time>
      </trkpt>
      <trkpt lat="40.49533667" lon="-3.510525">
        <ele>663.011</ele>
        <time>2019-07-01T19:12:21.935Z</time>
      </trkpt>
      <trkpt lat="40.49537333" lon="-3.51065833">
        <ele>663.011</ele>
        <time>2019-07-01T19:12:22.935Z</time>
      </trkpt>
      <trkpt lat="40.49537333" lon="-3.51065833">
        <ele>663.011</ele>
        <time>2019-07-01T19:12:23.935Z</time>
      </trkpt>
      <trkpt lat="40.495415" lon="-3.51079333">
        <ele>663.011</ele>
        <time>2019-07-01T19:12:24.935Z</time>
      </trkpt>
      <trkpt lat="40.49543667" lon="-3.510865">
        <ele>663.011</ele>
        <time>2019-07-01T19:12:25.935Z</time>
      </trkpt>
      <trkpt lat="40.49543667" lon="-3.510865">
        <ele>663.011</ele>
        <time>2019-07-01T19:12:26.935Z</time>
      </trkpt>
      <trkpt lat="40.49548333" lon="-3.51101667">
        <ele>663.011</ele>
        <time>2019-07-01T19:12:27.935Z</time>
      </trkpt>
      <trkpt lat="40.49548333" lon="-3.51101667">
        <ele>663.011</ele>
        <time>2019-07-01T19:12:28.935Z</time>
      </trkpt>
      <trkpt lat="40.49553333" lon="-3.51118">
        <ele>662.011</ele>
        <time>2019-07-01T19:12:29.935Z</time>
      </trkpt>
      <trkpt lat="40.49556167" lon="-3.51126833">
        <ele>662.011</ele>
        <time>2019-07-01T19:12:30.935Z</time>
      </trkpt>
      <trkpt lat="40.49556167" lon="-3.51126833">
        <ele>662.011</ele>
        <time>2019-07-01T19:12:31.935Z</time>
      </trkpt>
      <trkpt lat="40.49562" lon="-3.511455">
        <ele>662.011</ele>
        <time>2019-07-01T19:12:32.935Z</time>
      </trkpt>
      <trkpt lat="40.49562" lon="-3.511455">
        <ele>661.011</ele>
        <time>2019-07-01T19:12:33.935Z</time>
      </trkpt>
      <trkpt lat="40.49567667" lon="-3.51164833">
        <ele>661.011</ele>
        <time>2019-07-01T19:12:34.935Z</time>
      </trkpt>
      <trkpt lat="40.49567667" lon="-3.51164833">
        <ele>660.011</ele>
        <time>2019-07-01T19:12:35.935Z</time>
      </trkpt>
      <trkpt lat="40.49573167" lon="-3.51185167">
        <ele>660.011</ele>
        <time>2019-07-01T19:12:36.935Z</time>
      </trkpt>
      <trkpt lat="40.49573167" lon="-3.51185167">
        <ele>660.011</ele>
        <time>2019-07-01T19:12:37.935Z</time>
      </trkpt>
      <trkpt lat="40.49578667" lon="-3.512065">
        <ele>660.011</ele>
        <time>2019-07-01T19:12:38.935Z</time>
      </trkpt>
      <trkpt lat="40.495815" lon="-3.51217167">
        <ele>659.011</ele>
        <time>2019-07-01T19:12:39.935Z</time>
      </trkpt>
      <trkpt lat="40.495815" lon="-3.51217167">
        <ele>659.011</ele>
        <time>2019-07-01T19:12:40.935Z</time>
      </trkpt>
      <trkpt lat="40.49587167" lon="-3.51239">
        <ele>659.011</ele>
        <time>2019-07-01T19:12:41.935Z</time>
      </trkpt>
      <trkpt lat="40.4959" lon="-3.5125">
        <ele>659.011</ele>
        <time>2019-07-01T19:12:42.935Z</time>
      </trkpt>
      <trkpt lat="40.4959" lon="-3.5125">
        <ele>657.011</ele>
        <time>2019-07-01T19:12:43.935Z</time>
      </trkpt>
      <trkpt lat="40.495955" lon="-3.51272833">
        <ele>657.011</ele>
        <time>2019-07-01T19:12:44.935Z</time>
      </trkpt>
      <trkpt lat="40.495955" lon="-3.51272833">
        <ele>656.011</ele>
        <time>2019-07-01T19:12:45.935Z</time>
      </trkpt>
      <trkpt lat="40.49600833" lon="-3.51296667">
        <ele>656.011</ele>
        <time>2019-07-01T19:12:46.935Z</time>
      </trkpt>
      <trkpt lat="40.49600833" lon="-3.51296667">
        <ele>655.011</ele>
        <time>2019-07-01T19:12:47.935Z</time>
      </trkpt>
      <trkpt lat="40.49607333" lon="-3.51320833">
        <ele>655.011</ele>
        <time>2019-07-01T19:12:48.935Z</time>
      </trkpt>
      <trkpt lat="40.49607333" lon="-3.51320833">
        <ele>654.011</ele>
        <time>2019-07-01T19:12:49.935Z</time>
      </trkpt>
      <trkpt lat="40.49618167" lon="-3.513415">
        <ele>654.011</ele>
        <time>2019-07-01T19:12:50.935Z</time>
      </trkpt>
      <trkpt lat="40.49618167" lon="-3.513415">
        <ele>653.011</ele>
        <time>2019-07-01T19:12:51.935Z</time>
      </trkpt>
      <trkpt lat="40.496235" lon="-3.51361">
        <ele>653.011</ele>
        <time>2019-07-01T19:12:52.935Z</time>
      </trkpt>
      <trkpt lat="40.496225" lon="-3.51370833">
        <ele>653.011</ele>
        <time>2019-07-01T19:12:53.935Z</time>
      </trkpt>
      <trkpt lat="40.49620833" lon="-3.513805">
        <ele>653.011</ele>
        <time>2019-07-01T19:12:54.935Z</time>
      </trkpt>
      <trkpt lat="40.49620833" lon="-3.513805">
        <ele>653.011</ele>
        <time>2019-07-01T19:12:55.935Z</time>
      </trkpt>
      <trkpt lat="40.49622833" lon="-3.51398833">
        <ele>653.011</ele>
        <time>2019-07-01T19:12:56.935Z</time>
      </trkpt>
      <trkpt lat="40.49622833" lon="-3.51398833">
        <ele>653.011</ele>
        <time>2019-07-01T19:12:57.935Z</time>
      </trkpt>
      <trkpt lat="40.49626" lon="-3.51415667">
        <ele>653.011</ele>
        <time>2019-07-01T19:12:58.935Z</time>
      </trkpt>
      <trkpt lat="40.49627333" lon="-3.51423167">
        <ele>653.011</ele>
        <time>2019-07-01T19:12:59.935Z</time>
      </trkpt>
      <trkpt lat="40.496285" lon="-3.51430167">
        <ele>653.011</ele>
        <time>2019-07-01T19:13:00.935Z</time>
      </trkpt>
      <trkpt lat="40.496285" lon="-3.51430167">
        <ele>654.011</ele>
        <time>2019-07-01T19:13:01.935Z</time>
      </trkpt>
      <trkpt lat="40.49630833" lon="-3.51442667">
        <ele>654.011</ele>
        <time>2019-07-01T19:13:02.935Z</time>
      </trkpt>
      <trkpt lat="40.49630833" lon="-3.51442667">
        <ele>655.011</ele>
        <time>2019-07-01T19:13:03.935Z</time>
      </trkpt>
      <trkpt lat="40.49633167" lon="-3.51455">
        <ele>655.011</ele>
        <time>2019-07-01T19:13:04.935Z</time>
      </trkpt>
      <trkpt lat="40.49633167" lon="-3.51455">
        <ele>655.011</ele>
        <time>2019-07-01T19:13:05.935Z</time>
      </trkpt>
      <trkpt lat="40.496345" lon="-3.51466667">
        <ele>655.011</ele>
        <time>2019-07-01T19:13:06.935Z</time>
      </trkpt>
      <trkpt lat="40.496345" lon="-3.51466667">
        <ele>655.011</ele>
        <time>2019-07-01T19:13:07.935Z</time>
      </trkpt>
      <trkpt lat="40.496365" lon="-3.51478167">
        <ele>655.011</ele>
        <time>2019-07-01T19:13:08.935Z</time>
      </trkpt>
      <trkpt lat="40.496365" lon="-3.51478167">
        <ele>655.011</ele>
        <time>2019-07-01T19:13:09.935Z</time>
      </trkpt>
      <trkpt lat="40.49638667" lon="-3.51488667">
        <ele>655.011</ele>
        <time>2019-07-01T19:13:10.935Z</time>
      </trkpt>
      <trkpt lat="40.49638667" lon="-3.51488667">
        <ele>655.011</ele>
        <time>2019-07-01T19:13:11.935Z</time>
      </trkpt>
      <trkpt lat="40.49639833" lon="-3.51498833">
        <ele>656.011</ele>
        <time>2019-07-01T19:13:12.935Z</time>
      </trkpt>
      <trkpt lat="40.49639833" lon="-3.51498833">
        <ele>656.011</ele>
        <time>2019-07-01T19:13:13.935Z</time>
      </trkpt>
      <trkpt lat="40.49641167" lon="-3.51508833">
        <ele>657.011</ele>
        <time>2019-07-01T19:13:14.935Z</time>
      </trkpt>
      <trkpt lat="40.49641167" lon="-3.51508833">
        <ele>657.011</ele>
        <time>2019-07-01T19:13:15.935Z</time>
      </trkpt>
      <trkpt lat="40.49642" lon="-3.51518833">
        <ele>658.011</ele>
        <time>2019-07-01T19:13:16.935Z</time>
      </trkpt>
      <trkpt lat="40.49642" lon="-3.51518833">
        <ele>658.011</ele>
        <time>2019-07-01T19:13:17.935Z</time>
      </trkpt>
      <trkpt lat="40.49642667" lon="-3.51528667">
        <ele>658.011</ele>
        <time>2019-07-01T19:13:18.935Z</time>
      </trkpt>
      <trkpt lat="40.49642667" lon="-3.51528667">
        <ele>658.011</ele>
        <time>2019-07-01T19:13:19.935Z</time>
      </trkpt>
      <trkpt lat="40.496445" lon="-3.51537833">
        <ele>658.011</ele>
        <time>2019-07-01T19:13:20.935Z</time>
      </trkpt>
      <trkpt lat="40.49645333" lon="-3.51542">
        <ele>658.011</ele>
        <time>2019-07-01T19:13:21.935Z</time>
      </trkpt>
      <trkpt lat="40.49645333" lon="-3.51542">
        <ele>658.011</ele>
        <time>2019-07-01T19:13:22.935Z</time>
      </trkpt>
      <trkpt lat="40.49647167" lon="-3.51551167">
        <ele>659.011</ele>
        <time>2019-07-01T19:13:23.935Z</time>
      </trkpt>
      <trkpt lat="40.49647833" lon="-3.51555667">
        <ele>659.011</ele>
        <time>2019-07-01T19:13:24.935Z</time>
      </trkpt>
      <trkpt lat="40.49648333" lon="-3.51560167">
        <ele>659.011</ele>
        <time>2019-07-01T19:13:25.935Z</time>
      </trkpt>
      <trkpt lat="40.49648333" lon="-3.51560167">
        <ele>659.011</ele>
        <time>2019-07-01T19:13:26.935Z</time>
      </trkpt>
      <trkpt lat="40.496495" lon="-3.51568667">
        <ele>659.011</ele>
        <time>2019-07-01T19:13:27.935Z</time>
      </trkpt>
      <trkpt lat="40.49650167" lon="-3.51572667">
        <ele>659.011</ele>
        <time>2019-07-01T19:13:28.935Z</time>
      </trkpt>
      <trkpt lat="40.49650167" lon="-3.51572667">
        <ele>660.011</ele>
        <time>2019-07-01T19:13:29.935Z</time>
      </trkpt>
      <trkpt lat="40.49651167" lon="-3.5158">
        <ele>660.011</ele>
        <time>2019-07-01T19:13:30.935Z</time>
      </trkpt>
      <trkpt lat="40.49651167" lon="-3.5158">
        <ele>660.011</ele>
        <time>2019-07-01T19:13:31.935Z</time>
      </trkpt>
      <trkpt lat="40.49651833" lon="-3.51587667">
        <ele>660.011</ele>
        <time>2019-07-01T19:13:32.935Z</time>
      </trkpt>
      <trkpt lat="40.49652333" lon="-3.51591333">
        <ele>660.011</ele>
        <time>2019-07-01T19:13:33.935Z</time>
      </trkpt>
      <trkpt lat="40.49653" lon="-3.51595333">
        <ele>660.011</ele>
        <time>2019-07-01T19:13:34.935Z</time>
      </trkpt>
      <trkpt lat="40.49653" lon="-3.51595333">
        <ele>661.011</ele>
        <time>2019-07-01T19:13:35.935Z</time>
      </trkpt>
      <trkpt lat="40.496535" lon="-3.51603167">
        <ele>661.011</ele>
        <time>2019-07-01T19:13:36.935Z</time>
      </trkpt>
      <trkpt lat="40.496535" lon="-3.51603167">
        <ele>661.011</ele>
        <time>2019-07-01T19:13:37.935Z</time>
      </trkpt>
      <trkpt lat="40.49654333" lon="-3.51610833">
        <ele>661.011</ele>
        <time>2019-07-01T19:13:38.935Z</time>
      </trkpt>
      <trkpt lat="40.49654667" lon="-3.51614667">
        <ele>661.011</ele>
        <time>2019-07-01T19:13:39.935Z</time>
      </trkpt>
      <trkpt lat="40.49654667" lon="-3.51614667">
        <ele>661.011</ele>
        <time>2019-07-01T19:13:40.935Z</time>
      </trkpt>
      <trkpt lat="40.496555" lon="-3.51622">
        <ele>661.011</ele>
        <time>2019-07-01T19:13:41.935Z</time>
      </trkpt>
      <trkpt lat="40.49656" lon="-3.51625833">
        <ele>661.011</ele>
        <time>2019-07-01T19:13:42.935Z</time>
      </trkpt>
      <trkpt lat="40.49656" lon="-3.51625833">
        <ele>662.011</ele>
        <time>2019-07-01T19:13:43.935Z</time>
      </trkpt>
      <trkpt lat="40.49657" lon="-3.51633667">
        <ele>662.011</ele>
        <time>2019-07-01T19:13:44.935Z</time>
      </trkpt>
      <trkpt lat="40.49657" lon="-3.51633667">
        <ele>662.011</ele>
        <time>2019-07-01T19:13:45.935Z</time>
      </trkpt>
      <trkpt lat="40.49657667" lon="-3.51642333">
        <ele>662.011</ele>
        <time>2019-07-01T19:13:46.935Z</time>
      </trkpt>
      <trkpt lat="40.49657667" lon="-3.51642333">
        <ele>662.011</ele>
        <time>2019-07-01T19:13:47.935Z</time>
      </trkpt>
      <trkpt lat="40.49658333" lon="-3.51651">
        <ele>662.011</ele>
        <time>2019-07-01T19:13:48.935Z</time>
      </trkpt>
      <trkpt lat="40.49658333" lon="-3.51651">
        <ele>663.011</ele>
        <time>2019-07-01T19:13:49.935Z</time>
      </trkpt>
      <trkpt lat="40.49659333" lon="-3.51659167">
        <ele>663.011</ele>
        <time>2019-07-01T19:13:50.935Z</time>
      </trkpt>
      <trkpt lat="40.49659333" lon="-3.51659167">
        <ele>663.011</ele>
        <time>2019-07-01T19:13:51.935Z</time>
      </trkpt>
      <trkpt lat="40.49659833" lon="-3.51667333">
        <ele>663.011</ele>
        <time>2019-07-01T19:13:52.935Z</time>
      </trkpt>
      <trkpt lat="40.49660333" lon="-3.51671667">
        <ele>663.011</ele>
        <time>2019-07-01T19:13:53.935Z</time>
      </trkpt>
      <trkpt lat="40.496605" lon="-3.51676">
        <ele>663.011</ele>
        <time>2019-07-01T19:13:54.935Z</time>
      </trkpt>
      <trkpt lat="40.496605" lon="-3.51676">
        <ele>664.011</ele>
        <time>2019-07-01T19:13:55.935Z</time>
      </trkpt>
      <trkpt lat="40.49661333" lon="-3.51684667">
        <ele>664.011</ele>
        <time>2019-07-01T19:13:56.935Z</time>
      </trkpt>
      <trkpt lat="40.49661833" lon="-3.51689">
        <ele>664.011</ele>
        <time>2019-07-01T19:13:57.935Z</time>
      </trkpt>
      <trkpt lat="40.49661833" lon="-3.51689">
        <ele>664.011</ele>
        <time>2019-07-01T19:13:58.935Z</time>
      </trkpt>
      <trkpt lat="40.49663" lon="-3.51697333">
        <ele>664.011</ele>
        <time>2019-07-01T19:13:59.935Z</time>
      </trkpt>
      <trkpt lat="40.49663667" lon="-3.51702">
        <ele>665.011</ele>
        <time>2019-07-01T19:14:00.935Z</time>
      </trkpt>
      <trkpt lat="40.49663667" lon="-3.51702">
        <ele>665.011</ele>
        <time>2019-07-01T19:14:01.935Z</time>
      </trkpt>
      <trkpt lat="40.49665" lon="-3.51712167">
        <ele>665.011</ele>
        <time>2019-07-01T19:14:02.935Z</time>
      </trkpt>
      <trkpt lat="40.49665" lon="-3.51712167">
        <ele>665.011</ele>
        <time>2019-07-01T19:14:03.935Z</time>
      </trkpt>
      <trkpt lat="40.49666" lon="-3.51720667">
        <ele>665.011</ele>
        <time>2019-07-01T19:14:04.935Z</time>
      </trkpt>
      <trkpt lat="40.49666" lon="-3.51720667">
        <ele>665.011</ele>
        <time>2019-07-01T19:14:05.935Z</time>
      </trkpt>
      <trkpt lat="40.49666833" lon="-3.51729167">
        <ele>666.011</ele>
        <time>2019-07-01T19:14:06.935Z</time>
      </trkpt>
      <trkpt lat="40.49667167" lon="-3.51733333">
        <ele>666.011</ele>
        <time>2019-07-01T19:14:07.935Z</time>
      </trkpt>
      <trkpt lat="40.49667167" lon="-3.51733333">
        <ele>666.011</ele>
        <time>2019-07-01T19:14:08.935Z</time>
      </trkpt>
      <trkpt lat="40.496675" lon="-3.51741833">
        <ele>666.011</ele>
        <time>2019-07-01T19:14:09.935Z</time>
      </trkpt>
      <trkpt lat="40.496675" lon="-3.51741833">
        <ele>667.011</ele>
        <time>2019-07-01T19:14:10.935Z</time>
      </trkpt>
      <trkpt lat="40.49668333" lon="-3.51750167">
        <ele>667.011</ele>
        <time>2019-07-01T19:14:11.935Z</time>
      </trkpt>
      <trkpt lat="40.496685" lon="-3.51754333">
        <ele>667.011</ele>
        <time>2019-07-01T19:14:12.935Z</time>
      </trkpt>
      <trkpt lat="40.496685" lon="-3.51754333">
        <ele>667.011</ele>
        <time>2019-07-01T19:14:13.935Z</time>
      </trkpt>
      <trkpt lat="40.49668667" lon="-3.51762833">
        <ele>668.011</ele>
        <time>2019-07-01T19:14:14.935Z</time>
      </trkpt>
      <trkpt lat="40.49668667" lon="-3.51762833">
        <ele>668.011</ele>
        <time>2019-07-01T19:14:15.935Z</time>
      </trkpt>
      <trkpt lat="40.49669333" lon="-3.51771">
        <ele>668.011</ele>
        <time>2019-07-01T19:14:16.935Z</time>
      </trkpt>
      <trkpt lat="40.49670167" lon="-3.51775">
        <ele>668.011</ele>
        <time>2019-07-01T19:14:17.935Z</time>
      </trkpt>
      <trkpt lat="40.49670833" lon="-3.51779">
        <ele>668.011</ele>
        <time>2019-07-01T19:14:18.935Z</time>
      </trkpt>
      <trkpt lat="40.49670833" lon="-3.51779">
        <ele>669.011</ele>
        <time>2019-07-01T19:14:19.935Z</time>
      </trkpt>
      <trkpt lat="40.49671833" lon="-3.51787167">
        <ele>669.011</ele>
        <time>2019-07-01T19:14:20.935Z</time>
      </trkpt>
      <trkpt lat="40.49672333" lon="-3.51791333">
        <ele>669.011</ele>
        <time>2019-07-01T19:14:21.935Z</time>
      </trkpt>
      <trkpt lat="40.49672333" lon="-3.51791333">
        <ele>669.011</ele>
        <time>2019-07-01T19:14:22.935Z</time>
      </trkpt>
      <trkpt lat="40.496735" lon="-3.51800167">
        <ele>669.011</ele>
        <time>2019-07-01T19:14:23.935Z</time>
      </trkpt>
      <trkpt lat="40.49674167" lon="-3.518045">
        <ele>669.011</ele>
        <time>2019-07-01T19:14:24.935Z</time>
      </trkpt>
      <trkpt lat="40.49674167" lon="-3.518045">
        <ele>670.011</ele>
        <time>2019-07-01T19:14:25.935Z</time>
      </trkpt>
      <trkpt lat="40.49675667" lon="-3.51813833">
        <ele>670.011</ele>
        <time>2019-07-01T19:14:26.935Z</time>
      </trkpt>
      <trkpt lat="40.49675667" lon="-3.51813833">
        <ele>670.011</ele>
        <time>2019-07-01T19:14:27.935Z</time>
      </trkpt>
      <trkpt lat="40.49676833" lon="-3.51823167">
        <ele>670.011</ele>
        <time>2019-07-01T19:14:28.935Z</time>
      </trkpt>
      <trkpt lat="40.49676833" lon="-3.51823167">
        <ele>670.011</ele>
        <time>2019-07-01T19:14:29.935Z</time>
      </trkpt>
      <trkpt lat="40.49678" lon="-3.51832667">
        <ele>670.011</ele>
        <time>2019-07-01T19:14:30.935Z</time>
      </trkpt>
      <trkpt lat="40.49678" lon="-3.51832667">
        <ele>671.011</ele>
        <time>2019-07-01T19:14:31.935Z</time>
      </trkpt>
      <trkpt lat="40.496795" lon="-3.51842">
        <ele>671.011</ele>
        <time>2019-07-01T19:14:32.935Z</time>
      </trkpt>
      <trkpt lat="40.496795" lon="-3.51842">
        <ele>671.011</ele>
        <time>2019-07-01T19:14:33.935Z</time>
      </trkpt>
      <trkpt lat="40.49681" lon="-3.51852">
        <ele>671.011</ele>
        <time>2019-07-01T19:14:34.935Z</time>
      </trkpt>
      <trkpt lat="40.49681667" lon="-3.51856667">
        <ele>671.011</ele>
        <time>2019-07-01T19:14:35.935Z</time>
      </trkpt>
      <trkpt lat="40.49682333" lon="-3.51861667">
        <ele>671.011</ele>
        <time>2019-07-01T19:14:36.935Z</time>
      </trkpt>
      <trkpt lat="40.49682333" lon="-3.51861667">
        <ele>671.011</ele>
        <time>2019-07-01T19:14:37.935Z</time>
      </trkpt>
      <trkpt lat="40.49684333" lon="-3.51871167">
        <ele>671.011</ele>
        <time>2019-07-01T19:14:38.935Z</time>
      </trkpt>
      <trkpt lat="40.49685167" lon="-3.51876167">
        <ele>672.011</ele>
        <time>2019-07-01T19:14:39.935Z</time>
      </trkpt>
      <trkpt lat="40.49685167" lon="-3.51876167">
        <ele>672.011</ele>
        <time>2019-07-01T19:14:40.935Z</time>
      </trkpt>
      <trkpt lat="40.49686667" lon="-3.51886333">
        <ele>672.011</ele>
        <time>2019-07-01T19:14:41.935Z</time>
      </trkpt>
      <trkpt lat="40.49687333" lon="-3.518915">
        <ele>672.011</ele>
        <time>2019-07-01T19:14:42.935Z</time>
      </trkpt>
      <trkpt lat="40.49687333" lon="-3.518915">
        <ele>673.011</ele>
        <time>2019-07-01T19:14:43.935Z</time>
      </trkpt>
      <trkpt lat="40.49689" lon="-3.51901667">
        <ele>673.011</ele>
        <time>2019-07-01T19:14:44.935Z</time>
      </trkpt>
      <trkpt lat="40.49689" lon="-3.51901667">
        <ele>674.011</ele>
        <time>2019-07-01T19:14:45.935Z</time>
      </trkpt>
      <trkpt lat="40.49690333" lon="-3.519115">
        <ele>674.011</ele>
        <time>2019-07-01T19:14:46.935Z</time>
      </trkpt>
      <trkpt lat="40.49691" lon="-3.51916167">
        <ele>674.011</ele>
        <time>2019-07-01T19:14:47.935Z</time>
      </trkpt>
      <trkpt lat="40.49691833" lon="-3.51921167">
        <ele>674.011</ele>
        <time>2019-07-01T19:14:48.935Z</time>
      </trkpt>
      <trkpt lat="40.49691833" lon="-3.51921167">
        <ele>675.011</ele>
        <time>2019-07-01T19:14:49.935Z</time>
      </trkpt>
      <trkpt lat="40.49693333" lon="-3.519305">
        <ele>675.011</ele>
        <time>2019-07-01T19:14:50.935Z</time>
      </trkpt>
      <trkpt lat="40.49694" lon="-3.51935167">
        <ele>677.011</ele>
        <time>2019-07-01T19:14:51.935Z</time>
      </trkpt>
      <trkpt lat="40.49694" lon="-3.51935167">
        <ele>677.011</ele>
        <time>2019-07-01T19:14:52.935Z</time>
      </trkpt>
      <trkpt lat="40.49695833" lon="-3.51944333">
        <ele>677.011</ele>
        <time>2019-07-01T19:14:53.935Z</time>
      </trkpt>
      <trkpt lat="40.49696667" lon="-3.51949333">
        <ele>677.011</ele>
        <time>2019-07-01T19:14:54.935Z</time>
      </trkpt>
      <trkpt lat="40.49696667" lon="-3.51949333">
        <ele>678.011</ele>
        <time>2019-07-01T19:14:55.935Z</time>
      </trkpt>
      <trkpt lat="40.49698667" lon="-3.51959">
        <ele>678.011</ele>
        <time>2019-07-01T19:14:56.935Z</time>
      </trkpt>
      <trkpt lat="40.49699667" lon="-3.51964">
        <ele>678.011</ele>
        <time>2019-07-01T19:14:57.935Z</time>
      </trkpt>
      <trkpt lat="40.49699667" lon="-3.51964">
        <ele>678.011</ele>
        <time>2019-07-01T19:14:58.935Z</time>
      </trkpt>
      <trkpt lat="40.497015" lon="-3.51973667">
        <ele>678.011</ele>
        <time>2019-07-01T19:14:59.935Z</time>
      </trkpt>
      <trkpt lat="40.497015" lon="-3.51973667">
        <ele>678.011</ele>
        <time>2019-07-01T19:15:00.935Z</time>
      </trkpt>
      <trkpt lat="40.497035" lon="-3.51983333">
        <ele>679.011</ele>
        <time>2019-07-01T19:15:01.935Z</time>
      </trkpt>
      <trkpt lat="40.497035" lon="-3.51983333">
        <ele>679.011</ele>
        <time>2019-07-01T19:15:02.935Z</time>
      </trkpt>
      <trkpt lat="40.49705833" lon="-3.51993">
        <ele>679.011</ele>
        <time>2019-07-01T19:15:03.935Z</time>
      </trkpt>
      <trkpt lat="40.49705833" lon="-3.51993">
        <ele>679.011</ele>
        <time>2019-07-01T19:15:04.935Z</time>
      </trkpt>
      <trkpt lat="40.49707833" lon="-3.52002667">
        <ele>679.011</ele>
        <time>2019-07-01T19:15:05.935Z</time>
      </trkpt>
      <trkpt lat="40.49708667" lon="-3.52007167">
        <ele>679.011</ele>
        <time>2019-07-01T19:15:06.935Z</time>
      </trkpt>
      <trkpt lat="40.49708667" lon="-3.52007167">
        <ele>680.011</ele>
        <time>2019-07-01T19:15:07.935Z</time>
      </trkpt>
      <trkpt lat="40.49710167" lon="-3.52017">
        <ele>680.011</ele>
        <time>2019-07-01T19:15:08.935Z</time>
      </trkpt>
      <trkpt lat="40.49710167" lon="-3.52017">
        <ele>681.011</ele>
        <time>2019-07-01T19:15:09.935Z</time>
      </trkpt>
      <trkpt lat="40.49712" lon="-3.52026667">
        <ele>681.011</ele>
        <time>2019-07-01T19:15:10.935Z</time>
      </trkpt>
      <trkpt lat="40.49712" lon="-3.52026667">
        <ele>681.011</ele>
        <time>2019-07-01T19:15:11.935Z</time>
      </trkpt>
      <trkpt lat="40.49714333" lon="-3.520365">
        <ele>681.011</ele>
        <time>2019-07-01T19:15:12.935Z</time>
      </trkpt>
      <trkpt lat="40.49714333" lon="-3.520365">
        <ele>681.011</ele>
        <time>2019-07-01T19:15:13.935Z</time>
      </trkpt>
      <trkpt lat="40.49716667" lon="-3.52046">
        <ele>681.011</ele>
        <time>2019-07-01T19:15:14.935Z</time>
      </trkpt>
      <trkpt lat="40.49716667" lon="-3.52046">
        <ele>681.011</ele>
        <time>2019-07-01T19:15:15.935Z</time>
      </trkpt>
      <trkpt lat="40.49719" lon="-3.52055333">
        <ele>681.011</ele>
        <time>2019-07-01T19:15:16.935Z</time>
      </trkpt>
      <trkpt lat="40.49720333" lon="-3.52061167">
        <ele>681.011</ele>
        <time>2019-07-01T19:15:17.935Z</time>
      </trkpt>
      <trkpt lat="40.497215" lon="-3.52065167">
        <ele>683.011</ele>
        <time>2019-07-01T19:15:18.935Z</time>
      </trkpt>
      <trkpt lat="40.49722833" lon="-3.52070167">
        <ele>683.011</ele>
        <time>2019-07-01T19:15:19.935Z</time>
      </trkpt>
      <trkpt lat="40.49722833" lon="-3.52070167">
        <ele>684.011</ele>
        <time>2019-07-01T19:15:20.935Z</time>
      </trkpt>
      <trkpt lat="40.49725167" lon="-3.52079167">
        <ele>684.011</ele>
        <time>2019-07-01T19:15:21.935Z</time>
      </trkpt>
      <trkpt lat="40.49725167" lon="-3.52079167">
        <ele>684.011</ele>
        <time>2019-07-01T19:15:22.935Z</time>
      </trkpt>
      <trkpt lat="40.49726833" lon="-3.52088167">
        <ele>684.011</ele>
        <time>2019-07-01T19:15:23.935Z</time>
      </trkpt>
      <trkpt lat="40.49727667" lon="-3.52092667">
        <ele>685.011</ele>
        <time>2019-07-01T19:15:24.935Z</time>
      </trkpt>
      <trkpt lat="40.49727667" lon="-3.52092667">
        <ele>685.011</ele>
        <time>2019-07-01T19:15:25.935Z</time>
      </trkpt>
      <trkpt lat="40.497295" lon="-3.52101667">
        <ele>685.011</ele>
        <time>2019-07-01T19:15:26.935Z</time>
      </trkpt>
      <trkpt lat="40.497295" lon="-3.52101667">
        <ele>685.011</ele>
        <time>2019-07-01T19:15:27.935Z</time>
      </trkpt>
      <trkpt lat="40.49731167" lon="-3.52110833">
        <ele>685.011</ele>
        <time>2019-07-01T19:15:28.935Z</time>
      </trkpt>
      <trkpt lat="40.49731167" lon="-3.52110833">
        <ele>685.011</ele>
        <time>2019-07-01T19:15:29.935Z</time>
      </trkpt>
      <trkpt lat="40.49733333" lon="-3.52119833">
        <ele>685.011</ele>
        <time>2019-07-01T19:15:30.935Z</time>
      </trkpt>
      <trkpt lat="40.49733333" lon="-3.52119833">
        <ele>685.011</ele>
        <time>2019-07-01T19:15:31.935Z</time>
      </trkpt>
      <trkpt lat="40.49735667" lon="-3.52128667">
        <ele>687.011</ele>
        <time>2019-07-01T19:15:32.935Z</time>
      </trkpt>
      <trkpt lat="40.49736833" lon="-3.52133">
        <ele>687.011</ele>
        <time>2019-07-01T19:15:33.935Z</time>
      </trkpt>
      <trkpt lat="40.49736833" lon="-3.52133">
        <ele>687.011</ele>
        <time>2019-07-01T19:15:34.935Z</time>
      </trkpt>
      <trkpt lat="40.49738333" lon="-3.521415">
        <ele>687.011</ele>
        <time>2019-07-01T19:15:35.935Z</time>
      </trkpt>
      <trkpt lat="40.497395" lon="-3.52145833">
        <ele>688.011</ele>
        <time>2019-07-01T19:15:36.935Z</time>
      </trkpt>
      <trkpt lat="40.497395" lon="-3.52145833">
        <ele>688.011</ele>
        <time>2019-07-01T19:15:37.935Z</time>
      </trkpt>
      <trkpt lat="40.49741667" lon="-3.52153667">
        <ele>688.011</ele>
        <time>2019-07-01T19:15:38.935Z</time>
      </trkpt>
      <trkpt lat="40.49742833" lon="-3.52157667">
        <ele>688.011</ele>
        <time>2019-07-01T19:15:39.935Z</time>
      </trkpt>
      <trkpt lat="40.49742833" lon="-3.52157667">
        <ele>689.011</ele>
        <time>2019-07-01T19:15:40.935Z</time>
      </trkpt>
      <trkpt lat="40.49745" lon="-3.52166">
        <ele>689.011</ele>
        <time>2019-07-01T19:15:41.935Z</time>
      </trkpt>
      <trkpt lat="40.49746" lon="-3.52169833">
        <ele>689.011</ele>
        <time>2019-07-01T19:15:42.935Z</time>
      </trkpt>
      <trkpt lat="40.49746" lon="-3.52169833">
        <ele>689.011</ele>
        <time>2019-07-01T19:15:43.935Z</time>
      </trkpt>
      <trkpt lat="40.49748167" lon="-3.52177833">
        <ele>689.011</ele>
        <time>2019-07-01T19:15:44.935Z</time>
      </trkpt>
      <trkpt lat="40.49748167" lon="-3.52177833">
        <ele>689.011</ele>
        <time>2019-07-01T19:15:45.935Z</time>
      </trkpt>
      <trkpt lat="40.49750333" lon="-3.521855">
        <ele>690.011</ele>
        <time>2019-07-01T19:15:46.935Z</time>
      </trkpt>
      <trkpt lat="40.49751667" lon="-3.521895">
        <ele>690.011</ele>
        <time>2019-07-01T19:15:47.935Z</time>
      </trkpt>
      <trkpt lat="40.49752833" lon="-3.521935">
        <ele>691.011</ele>
        <time>2019-07-01T19:15:48.935Z</time>
      </trkpt>
      <trkpt lat="40.49752833" lon="-3.521935">
        <ele>691.011</ele>
        <time>2019-07-01T19:15:49.935Z</time>
      </trkpt>
      <trkpt lat="40.49755167" lon="-3.52201833">
        <ele>691.011</ele>
        <time>2019-07-01T19:15:50.935Z</time>
      </trkpt>
      <trkpt lat="40.49755167" lon="-3.52201833">
        <ele>691.011</ele>
        <time>2019-07-01T19:15:51.935Z</time>
      </trkpt>
      <trkpt lat="40.49758" lon="-3.5221">
        <ele>692.011</ele>
        <time>2019-07-01T19:15:52.935Z</time>
      </trkpt>
      <trkpt lat="40.49758" lon="-3.5221">
        <ele>692.011</ele>
        <time>2019-07-01T19:15:53.935Z</time>
      </trkpt>
      <trkpt lat="40.49760833" lon="-3.52218667">
        <ele>693.011</ele>
        <time>2019-07-01T19:15:54.935Z</time>
      </trkpt>
      <trkpt lat="40.49760833" lon="-3.52218667">
        <ele>693.011</ele>
        <time>2019-07-01T19:15:55.935Z</time>
      </trkpt>
      <trkpt lat="40.49763667" lon="-3.52227667">
        <ele>693.011</ele>
        <time>2019-07-01T19:15:56.935Z</time>
      </trkpt>
      <trkpt lat="40.49765167" lon="-3.52232167">
        <ele>693.011</ele>
        <time>2019-07-01T19:15:57.935Z</time>
      </trkpt>
      <trkpt lat="40.49765167" lon="-3.52232167">
        <ele>693.011</ele>
        <time>2019-07-01T19:15:58.935Z</time>
      </trkpt>
      <trkpt lat="40.49768333" lon="-3.52242667">
        <ele>693.011</ele>
        <time>2019-07-01T19:15:59.935Z</time>
      </trkpt>
      <trkpt lat="40.49770167" lon="-3.52247167">
        <ele>694.011</ele>
        <time>2019-07-01T19:16:00.935Z</time>
      </trkpt>
      <trkpt lat="40.49770167" lon="-3.52247167">
        <ele>694.011</ele>
        <time>2019-07-01T19:16:01.935Z</time>
      </trkpt>
      <trkpt lat="40.497765" lon="-3.52254333">
        <ele>694.011</ele>
        <time>2019-07-01T19:16:02.935Z</time>
      </trkpt>
      <trkpt lat="40.49780833" lon="-3.52256833">
        <ele>694.011</ele>
        <time>2019-07-01T19:16:03.935Z</time>
      </trkpt>
      <trkpt lat="40.49780833" lon="-3.52256833">
        <ele>694.011</ele>
        <time>2019-07-01T19:16:04.935Z</time>
      </trkpt>
      <trkpt lat="40.49790167" lon="-3.52261667">
        <ele>694.011</ele>
        <time>2019-07-01T19:16:05.935Z</time>
      </trkpt>
      <trkpt lat="40.49794" lon="-3.52265167">
        <ele>694.011</ele>
        <time>2019-07-01T19:16:06.935Z</time>
      </trkpt>
      <trkpt lat="40.49794" lon="-3.52265167">
        <ele>694.011</ele>
        <time>2019-07-01T19:16:07.935Z</time>
      </trkpt>
      <trkpt lat="40.497995" lon="-3.52276333">
        <ele>694.011</ele>
        <time>2019-07-01T19:16:08.935Z</time>
      </trkpt>
      <trkpt lat="40.497995" lon="-3.52276333">
        <ele>694.011</ele>
        <time>2019-07-01T19:16:09.935Z</time>
      </trkpt>
      <trkpt lat="40.49801167" lon="-3.52290667">
        <ele>694.011</ele>
        <time>2019-07-01T19:16:10.935Z</time>
      </trkpt>
      <trkpt lat="40.49799833" lon="-3.52297">
        <ele>694.011</ele>
        <time>2019-07-01T19:16:11.935Z</time>
      </trkpt>
      <trkpt lat="40.49797" lon="-3.52302667">
        <ele>694.011</ele>
        <time>2019-07-01T19:16:12.935Z</time>
      </trkpt>
      <trkpt lat="40.49797" lon="-3.52302667">
        <ele>694.011</ele>
        <time>2019-07-01T19:16:13.935Z</time>
      </trkpt>
      <trkpt lat="40.49788667" lon="-3.523115">
        <ele>694.011</ele>
        <time>2019-07-01T19:16:14.935Z</time>
      </trkpt>
      <trkpt lat="40.49788667" lon="-3.523115">
        <ele>694.011</ele>
        <time>2019-07-01T19:16:15.935Z</time>
      </trkpt>
      <trkpt lat="40.497775" lon="-3.523115">
        <ele>694.011</ele>
        <time>2019-07-01T19:16:16.935Z</time>
      </trkpt>
      <trkpt lat="40.49772167" lon="-3.52308">
        <ele>694.011</ele>
        <time>2019-07-01T19:16:17.935Z</time>
      </trkpt>
      <trkpt lat="40.497675" lon="-3.52303333">
        <ele>694.011</ele>
        <time>2019-07-01T19:16:18.935Z</time>
      </trkpt>
      <trkpt lat="40.497675" lon="-3.52303333">
        <ele>694.011</ele>
        <time>2019-07-01T19:16:19.935Z</time>
      </trkpt>
      <trkpt lat="40.49759167" lon="-3.52292333">
        <ele>694.011</ele>
        <time>2019-07-01T19:16:20.935Z</time>
      </trkpt>
      <trkpt lat="40.49754833" lon="-3.522875">
        <ele>694.011</ele>
        <time>2019-07-01T19:16:21.935Z</time>
      </trkpt>
      <trkpt lat="40.49754833" lon="-3.522875">
        <ele>694.011</ele>
        <time>2019-07-01T19:16:22.935Z</time>
      </trkpt>
      <trkpt lat="40.49744833" lon="-3.52281">
        <ele>694.011</ele>
        <time>2019-07-01T19:16:23.935Z</time>
      </trkpt>
      <trkpt lat="40.49739667" lon="-3.52279333">
        <ele>694.011</ele>
        <time>2019-07-01T19:16:24.935Z</time>
      </trkpt>
      <trkpt lat="40.49739667" lon="-3.52279333">
        <ele>694.011</ele>
        <time>2019-07-01T19:16:25.935Z</time>
      </trkpt>
      <trkpt lat="40.49729167" lon="-3.52276">
        <ele>694.011</ele>
        <time>2019-07-01T19:16:26.935Z</time>
      </trkpt>
      <trkpt lat="40.49724167" lon="-3.52274">
        <ele>694.011</ele>
        <time>2019-07-01T19:16:27.935Z</time>
      </trkpt>
      <trkpt lat="40.49724167" lon="-3.52274">
        <ele>694.011</ele>
        <time>2019-07-01T19:16:28.935Z</time>
      </trkpt>
      <trkpt lat="40.49713667" lon="-3.522705">
        <ele>694.011</ele>
        <time>2019-07-01T19:16:29.935Z</time>
      </trkpt>
      <trkpt lat="40.49707833" lon="-3.52268333">
        <ele>694.011</ele>
        <time>2019-07-01T19:16:30.935Z</time>
      </trkpt>
      <trkpt lat="40.49707833" lon="-3.52268333">
        <ele>695.011</ele>
        <time>2019-07-01T19:16:31.935Z</time>
      </trkpt>
      <trkpt lat="40.49696833" lon="-3.52262833">
        <ele>695.011</ele>
        <time>2019-07-01T19:16:32.935Z</time>
      </trkpt>
      <trkpt lat="40.496915" lon="-3.522595">
        <ele>695.011</ele>
        <time>2019-07-01T19:16:33.935Z</time>
      </trkpt>
      <trkpt lat="40.496915" lon="-3.522595">
        <ele>695.011</ele>
        <time>2019-07-01T19:16:34.935Z</time>
      </trkpt>
      <trkpt lat="40.496805" lon="-3.52252333">
        <ele>695.011</ele>
        <time>2019-07-01T19:16:35.935Z</time>
      </trkpt>
      <trkpt lat="40.49675333" lon="-3.52248167">
        <ele>695.011</ele>
        <time>2019-07-01T19:16:36.935Z</time>
      </trkpt>
      <trkpt lat="40.49675333" lon="-3.52248167">
        <ele>695.011</ele>
        <time>2019-07-01T19:16:37.935Z</time>
      </trkpt>
      <trkpt lat="40.49665" lon="-3.52240333">
        <ele>695.011</ele>
        <time>2019-07-01T19:16:38.935Z</time>
      </trkpt>
      <trkpt lat="40.49659833" lon="-3.522365">
        <ele>694.011</ele>
        <time>2019-07-01T19:16:39.935Z</time>
      </trkpt>
      <trkpt lat="40.49659833" lon="-3.522365">
        <ele>694.011</ele>
        <time>2019-07-01T19:16:40.935Z</time>
      </trkpt>
      <trkpt lat="40.49650333" lon="-3.52228667">
        <ele>694.011</ele>
        <time>2019-07-01T19:16:41.935Z</time>
      </trkpt>
      <trkpt lat="40.49645667" lon="-3.522245">
        <ele>694.011</ele>
        <time>2019-07-01T19:16:42.935Z</time>
      </trkpt>
      <trkpt lat="40.49645667" lon="-3.522245">
        <ele>694.011</ele>
        <time>2019-07-01T19:16:43.935Z</time>
      </trkpt>
      <trkpt lat="40.49637" lon="-3.52216167">
        <ele>694.011</ele>
        <time>2019-07-01T19:16:44.935Z</time>
      </trkpt>
      <trkpt lat="40.49637" lon="-3.52216167">
        <ele>694.011</ele>
        <time>2019-07-01T19:16:45.935Z</time>
      </trkpt>
      <trkpt lat="40.49627667" lon="-3.52207667">
        <ele>694.011</ele>
        <time>2019-07-01T19:16:46.935Z</time>
      </trkpt>
      <trkpt lat="40.49627667" lon="-3.52207667">
        <ele>694.011</ele>
        <time>2019-07-01T19:16:47.935Z</time>
      </trkpt>
      <trkpt lat="40.49617" lon="-3.52199167">
        <ele>694.011</ele>
        <time>2019-07-01T19:16:48.935Z</time>
      </trkpt>
      <trkpt lat="40.49617" lon="-3.52199167">
        <ele>695.011</ele>
        <time>2019-07-01T19:16:49.935Z</time>
      </trkpt>
      <trkpt lat="40.49605833" lon="-3.521905">
        <ele>695.011</ele>
        <time>2019-07-01T19:16:50.935Z</time>
      </trkpt>
      <trkpt lat="40.49605833" lon="-3.521905">
        <ele>695.011</ele>
        <time>2019-07-01T19:16:51.935Z</time>
      </trkpt>
      <trkpt lat="40.49594167" lon="-3.521835">
        <ele>695.011</ele>
        <time>2019-07-01T19:16:52.935Z</time>
      </trkpt>
      <trkpt lat="40.49594167" lon="-3.521835">
        <ele>695.011</ele>
        <time>2019-07-01T19:16:53.935Z</time>
      </trkpt>
      <trkpt lat="40.49582167" lon="-3.52178">
        <ele>695.011</ele>
        <time>2019-07-01T19:16:54.935Z</time>
      </trkpt>
      <trkpt lat="40.49582167" lon="-3.52178">
        <ele>695.011</ele>
        <time>2019-07-01T19:16:55.935Z</time>
      </trkpt>
      <trkpt lat="40.49569667" lon="-3.52172833">
        <ele>695.011</ele>
        <time>2019-07-01T19:16:56.935Z</time>
      </trkpt>
      <trkpt lat="40.49563" lon="-3.521705">
        <ele>695.011</ele>
        <time>2019-07-01T19:16:57.935Z</time>
      </trkpt>
      <trkpt lat="40.49563" lon="-3.521705">
        <ele>695.011</ele>
        <time>2019-07-01T19:16:58.935Z</time>
      </trkpt>
      <trkpt lat="40.49549333" lon="-3.52165667">
        <ele>694.011</ele>
        <time>2019-07-01T19:16:59.935Z</time>
      </trkpt>
      <trkpt lat="40.49542333" lon="-3.52162833">
        <ele>694.011</ele>
        <time>2019-07-01T19:17:00.935Z</time>
      </trkpt>
      <trkpt lat="40.49542333" lon="-3.52162833">
        <ele>694.011</ele>
        <time>2019-07-01T19:17:01.935Z</time>
      </trkpt>
      <trkpt lat="40.49528167" lon="-3.52157167">
        <ele>694.011</ele>
        <time>2019-07-01T19:17:02.935Z</time>
      </trkpt>
      <trkpt lat="40.49521167" lon="-3.521545">
        <ele>693.011</ele>
        <time>2019-07-01T19:17:03.935Z</time>
      </trkpt>
      <trkpt lat="40.49521167" lon="-3.521545">
        <ele>693.011</ele>
        <time>2019-07-01T19:17:04.935Z</time>
      </trkpt>
      <trkpt lat="40.49508" lon="-3.52149167">
        <ele>693.011</ele>
        <time>2019-07-01T19:17:05.935Z</time>
      </trkpt>
      <trkpt lat="40.49501667" lon="-3.52146667">
        <ele>693.011</ele>
        <time>2019-07-01T19:17:06.935Z</time>
      </trkpt>
      <trkpt lat="40.49501667" lon="-3.52146667">
        <ele>693.011</ele>
        <time>2019-07-01T19:17:07.935Z</time>
      </trkpt>
      <trkpt lat="40.49489333" lon="-3.52141167">
        <ele>693.011</ele>
        <time>2019-07-01T19:17:08.935Z</time>
      </trkpt>
      <trkpt lat="40.49483167" lon="-3.52139">
        <ele>693.011</ele>
        <time>2019-07-01T19:17:09.935Z</time>
      </trkpt>
      <trkpt lat="40.49483167" lon="-3.52139">
        <ele>693.011</ele>
        <time>2019-07-01T19:17:10.935Z</time>
      </trkpt>
      <trkpt lat="40.49471" lon="-3.521355">
        <ele>693.011</ele>
        <time>2019-07-01T19:17:11.935Z</time>
      </trkpt>
      <trkpt lat="40.49465" lon="-3.52134167">
        <ele>693.011</ele>
        <time>2019-07-01T19:17:12.935Z</time>
      </trkpt>
      <trkpt lat="40.49465" lon="-3.52134167">
        <ele>693.011</ele>
        <time>2019-07-01T19:17:13.935Z</time>
      </trkpt>
      <trkpt lat="40.494525" lon="-3.52132">
        <ele>693.011</ele>
        <time>2019-07-01T19:17:14.935Z</time>
      </trkpt>
      <trkpt lat="40.494525" lon="-3.52132">
        <ele>693.011</ele>
        <time>2019-07-01T19:17:15.935Z</time>
      </trkpt>
      <trkpt lat="40.4944" lon="-3.52129333">
        <ele>693.011</ele>
        <time>2019-07-01T19:17:16.935Z</time>
      </trkpt>
      <trkpt lat="40.4944" lon="-3.52129333">
        <ele>693.011</ele>
        <time>2019-07-01T19:17:17.935Z</time>
      </trkpt>
      <trkpt lat="40.494275" lon="-3.52128333">
        <ele>693.011</ele>
        <time>2019-07-01T19:17:18.935Z</time>
      </trkpt>
      <trkpt lat="40.494275" lon="-3.52128333">
        <ele>693.011</ele>
        <time>2019-07-01T19:17:19.935Z</time>
      </trkpt>
      <trkpt lat="40.49415333" lon="-3.52127333">
        <ele>693.011</ele>
        <time>2019-07-01T19:17:20.935Z</time>
      </trkpt>
      <trkpt lat="40.49415333" lon="-3.52127333">
        <ele>693.011</ele>
        <time>2019-07-01T19:17:21.935Z</time>
      </trkpt>
      <trkpt lat="40.49402833" lon="-3.52126833">
        <ele>693.011</ele>
        <time>2019-07-01T19:17:22.935Z</time>
      </trkpt>
      <trkpt lat="40.49402833" lon="-3.52126833">
        <ele>693.011</ele>
        <time>2019-07-01T19:17:23.935Z</time>
      </trkpt>
      <trkpt lat="40.49390167" lon="-3.521255">
        <ele>693.011</ele>
        <time>2019-07-01T19:17:24.935Z</time>
      </trkpt>
      <trkpt lat="40.49390167" lon="-3.521255">
        <ele>693.011</ele>
        <time>2019-07-01T19:17:25.935Z</time>
      </trkpt>
      <trkpt lat="40.49377167" lon="-3.52123833">
        <ele>693.011</ele>
        <time>2019-07-01T19:17:26.935Z</time>
      </trkpt>
      <trkpt lat="40.49377167" lon="-3.52123833">
        <ele>694.011</ele>
        <time>2019-07-01T19:17:27.935Z</time>
      </trkpt>
      <trkpt lat="40.49364" lon="-3.52122667">
        <ele>694.011</ele>
        <time>2019-07-01T19:17:28.935Z</time>
      </trkpt>
      <trkpt lat="40.49357167" lon="-3.52122333">
        <ele>694.011</ele>
        <time>2019-07-01T19:17:29.935Z</time>
      </trkpt>
      <trkpt lat="40.49350333" lon="-3.52122167">
        <ele>694.011</ele>
        <time>2019-07-01T19:17:30.935Z</time>
      </trkpt>
      <trkpt lat="40.49350333" lon="-3.52122167">
        <ele>694.011</ele>
        <time>2019-07-01T19:17:31.935Z</time>
      </trkpt>
      <trkpt lat="40.493365" lon="-3.52122167">
        <ele>694.011</ele>
        <time>2019-07-01T19:17:32.935Z</time>
      </trkpt>
      <trkpt lat="40.493295" lon="-3.521225">
        <ele>694.011</ele>
        <time>2019-07-01T19:17:33.935Z</time>
      </trkpt>
      <trkpt lat="40.493295" lon="-3.521225">
        <ele>694.011</ele>
        <time>2019-07-01T19:17:34.935Z</time>
      </trkpt>
      <trkpt lat="40.49315167" lon="-3.52124">
        <ele>694.011</ele>
        <time>2019-07-01T19:17:35.935Z</time>
      </trkpt>
      <trkpt lat="40.49307833" lon="-3.52124667">
        <ele>694.011</ele>
        <time>2019-07-01T19:17:36.935Z</time>
      </trkpt>
      <trkpt lat="40.49307833" lon="-3.52124667">
        <ele>694.011</ele>
        <time>2019-07-01T19:17:37.935Z</time>
      </trkpt>
      <trkpt lat="40.49293" lon="-3.52125667">
        <ele>694.011</ele>
        <time>2019-07-01T19:17:38.935Z</time>
      </trkpt>
      <trkpt lat="40.49293" lon="-3.52125667">
        <ele>694.011</ele>
        <time>2019-07-01T19:17:39.935Z</time>
      </trkpt>
      <trkpt lat="40.49277833" lon="-3.521255">
        <ele>694.011</ele>
        <time>2019-07-01T19:17:40.935Z</time>
      </trkpt>
      <trkpt lat="40.49277833" lon="-3.521255">
        <ele>694.011</ele>
        <time>2019-07-01T19:17:41.935Z</time>
      </trkpt>
      <trkpt lat="40.49263" lon="-3.52124">
        <ele>694.011</ele>
        <time>2019-07-01T19:17:42.935Z</time>
      </trkpt>
      <trkpt lat="40.49263" lon="-3.52124">
        <ele>694.011</ele>
        <time>2019-07-01T19:17:43.935Z</time>
      </trkpt>
      <trkpt lat="40.49247667" lon="-3.52121833">
        <ele>694.011</ele>
        <time>2019-07-01T19:17:44.935Z</time>
      </trkpt>
      <trkpt lat="40.4924" lon="-3.52120167">
        <ele>694.011</ele>
        <time>2019-07-01T19:17:45.935Z</time>
      </trkpt>
      <trkpt lat="40.4924" lon="-3.52120167">
        <ele>694.011</ele>
        <time>2019-07-01T19:17:46.935Z</time>
      </trkpt>
      <trkpt lat="40.49224667" lon="-3.52115833">
        <ele>694.011</ele>
        <time>2019-07-01T19:17:47.935Z</time>
      </trkpt>
      <trkpt lat="40.49216833" lon="-3.52113167">
        <ele>694.011</ele>
        <time>2019-07-01T19:17:48.935Z</time>
      </trkpt>
      <trkpt lat="40.49216833" lon="-3.52113167">
        <ele>694.011</ele>
        <time>2019-07-01T19:17:49.935Z</time>
      </trkpt>
      <trkpt lat="40.49201333" lon="-3.52107833">
        <ele>694.011</ele>
        <time>2019-07-01T19:17:50.935Z</time>
      </trkpt>
      <trkpt lat="40.49201333" lon="-3.52107833">
        <ele>694.011</ele>
        <time>2019-07-01T19:17:51.935Z</time>
      </trkpt>
      <trkpt lat="40.49185833" lon="-3.52102">
        <ele>694.011</ele>
        <time>2019-07-01T19:17:52.935Z</time>
      </trkpt>
      <trkpt lat="40.49185833" lon="-3.52102">
        <ele>694.011</ele>
        <time>2019-07-01T19:17:53.935Z</time>
      </trkpt>
      <trkpt lat="40.49169833" lon="-3.52096333">
        <ele>694.011</ele>
        <time>2019-07-01T19:17:54.935Z</time>
      </trkpt>
      <trkpt lat="40.49169833" lon="-3.52096333">
        <ele>694.011</ele>
        <time>2019-07-01T19:17:55.935Z</time>
      </trkpt>
      <trkpt lat="40.49153167" lon="-3.52090667">
        <ele>694.011</ele>
        <time>2019-07-01T19:17:56.935Z</time>
      </trkpt>
      <trkpt lat="40.49153167" lon="-3.52090667">
        <ele>693.011</ele>
        <time>2019-07-01T19:17:57.935Z</time>
      </trkpt>
      <trkpt lat="40.49135833" lon="-3.520855">
        <ele>693.011</ele>
        <time>2019-07-01T19:17:58.935Z</time>
      </trkpt>
      <trkpt lat="40.49126667" lon="-3.520835">
        <ele>693.011</ele>
        <time>2019-07-01T19:17:59.935Z</time>
      </trkpt>
      <trkpt lat="40.49126667" lon="-3.520835">
        <ele>693.011</ele>
        <time>2019-07-01T19:18:00.935Z</time>
      </trkpt>
      <trkpt lat="40.49107667" lon="-3.52081333">
        <ele>692.011</ele>
        <time>2019-07-01T19:18:01.935Z</time>
      </trkpt>
      <trkpt lat="40.49097833" lon="-3.52081833">
        <ele>692.011</ele>
        <time>2019-07-01T19:18:02.935Z</time>
      </trkpt>
      <trkpt lat="40.490875" lon="-3.52083833">
        <ele>692.011</ele>
        <time>2019-07-01T19:18:03.935Z</time>
      </trkpt>
      <trkpt lat="40.490875" lon="-3.52083833">
        <ele>691.011</ele>
        <time>2019-07-01T19:18:04.935Z</time>
      </trkpt>
      <trkpt lat="40.49065" lon="-3.52091333">
        <ele>691.011</ele>
        <time>2019-07-01T19:18:05.935Z</time>
      </trkpt>
      <trkpt lat="40.49052333" lon="-3.52092833">
        <ele>689.011</ele>
        <time>2019-07-01T19:18:06.935Z</time>
      </trkpt>
      <trkpt lat="40.49052333" lon="-3.52092833">
        <ele>689.011</ele>
        <time>2019-07-01T19:18:07.935Z</time>
      </trkpt>
      <trkpt lat="40.49025833" lon="-3.52090833">
        <ele>687.011</ele>
        <time>2019-07-01T19:18:08.935Z</time>
      </trkpt>
      <trkpt lat="40.49025833" lon="-3.52090833">
        <ele>687.011</ele>
        <time>2019-07-01T19:18:09.935Z</time>
      </trkpt>
      <trkpt lat="40.48998667" lon="-3.520835">
        <ele>685.011</ele>
        <time>2019-07-01T19:18:10.935Z</time>
      </trkpt>
      <trkpt lat="40.48998667" lon="-3.520835">
        <ele>685.011</ele>
        <time>2019-07-01T19:18:11.935Z</time>
      </trkpt>
      <trkpt lat="40.489715" lon="-3.520675">
        <ele>683.011</ele>
        <time>2019-07-01T19:18:12.935Z</time>
      </trkpt>
      <trkpt lat="40.489715" lon="-3.520675">
        <ele>683.011</ele>
        <time>2019-07-01T19:18:13.935Z</time>
      </trkpt>
      <trkpt lat="40.489435" lon="-3.520505">
        <ele>681.011</ele>
        <time>2019-07-01T19:18:14.935Z</time>
      </trkpt>
      <trkpt lat="40.489435" lon="-3.520505">
        <ele>681.011</ele>
        <time>2019-07-01T19:18:15.935Z</time>
      </trkpt>
      <trkpt lat="40.489125" lon="-3.520365">
        <ele>678.011</ele>
        <time>2019-07-01T19:18:16.935Z</time>
      </trkpt>
      <trkpt lat="40.48895667" lon="-3.52032">
        <ele>678.011</ele>
        <time>2019-07-01T19:18:17.935Z</time>
      </trkpt>
      <trkpt lat="40.48878167" lon="-3.52029667">
        <ele>675.011</ele>
        <time>2019-07-01T19:18:18.935Z</time>
      </trkpt>
      <trkpt lat="40.48878167" lon="-3.52029667">
        <ele>675.011</ele>
        <time>2019-07-01T19:18:19.935Z</time>
      </trkpt>
      <trkpt lat="40.48842833" lon="-3.52029333">
        <ele>672.011</ele>
        <time>2019-07-01T19:18:20.935Z</time>
      </trkpt>
      <trkpt lat="40.488255" lon="-3.520285">
        <ele>672.011</ele>
        <time>2019-07-01T19:18:21.935Z</time>
      </trkpt>
      <trkpt lat="40.488255" lon="-3.520285">
        <ele>670.011</ele>
        <time>2019-07-01T19:18:22.935Z</time>
      </trkpt>
      <trkpt lat="40.48792833" lon="-3.52018667">
        <ele>670.011</ele>
        <time>2019-07-01T19:18:23.935Z</time>
      </trkpt>
      <trkpt lat="40.48778667" lon="-3.52008667">
        <ele>669.011</ele>
        <time>2019-07-01T19:18:24.935Z</time>
      </trkpt>
      <trkpt lat="40.48778667" lon="-3.52008667">
        <ele>669.011</ele>
        <time>2019-07-01T19:18:25.935Z</time>
      </trkpt>
      <trkpt lat="40.48755667" lon="-3.51983">
        <ele>669.011</ele>
        <time>2019-07-01T19:18:26.935Z</time>
      </trkpt>
      <trkpt lat="40.487455" lon="-3.51970667">
        <ele>669.011</ele>
        <time>2019-07-01T19:18:27.935Z</time>
      </trkpt>
      <trkpt lat="40.487455" lon="-3.51970667">
        <ele>669.011</ele>
        <time>2019-07-01T19:18:28.935Z</time>
      </trkpt>
      <trkpt lat="40.48725" lon="-3.51952">
        <ele>669.011</ele>
        <time>2019-07-01T19:18:29.935Z</time>
      </trkpt>
      <trkpt lat="40.48714167" lon="-3.51947">
        <ele>669.011</ele>
        <time>2019-07-01T19:18:30.935Z</time>
      </trkpt>
      <trkpt lat="40.48714167" lon="-3.51947">
        <ele>669.011</ele>
        <time>2019-07-01T19:18:31.935Z</time>
      </trkpt>
      <trkpt lat="40.48693167" lon="-3.51945167">
        <ele>670.011</ele>
        <time>2019-07-01T19:18:32.935Z</time>
      </trkpt>
      <trkpt lat="40.48693167" lon="-3.51945167">
        <ele>670.011</ele>
        <time>2019-07-01T19:18:33.935Z</time>
      </trkpt>
      <trkpt lat="40.48672333" lon="-3.51944667">
        <ele>671.011</ele>
        <time>2019-07-01T19:18:34.935Z</time>
      </trkpt>
      <trkpt lat="40.48672333" lon="-3.51944667">
        <ele>671.011</ele>
        <time>2019-07-01T19:18:35.935Z</time>
      </trkpt>
      <trkpt lat="40.486505" lon="-3.519375">
        <ele>671.011</ele>
        <time>2019-07-01T19:18:36.935Z</time>
      </trkpt>
      <trkpt lat="40.486505" lon="-3.519375">
        <ele>671.011</ele>
        <time>2019-07-01T19:18:37.935Z</time>
      </trkpt>
      <trkpt lat="40.48628167" lon="-3.51923833">
        <ele>668.011</ele>
        <time>2019-07-01T19:18:38.935Z</time>
      </trkpt>
      <trkpt lat="40.48628167" lon="-3.51923833">
        <ele>668.011</ele>
        <time>2019-07-01T19:18:39.935Z</time>
      </trkpt>
      <trkpt lat="40.48608333" lon="-3.51901167">
        <ele>666.011</ele>
        <time>2019-07-01T19:18:40.935Z</time>
      </trkpt>
      <trkpt lat="40.48608333" lon="-3.51901167">
        <ele>666.011</ele>
        <time>2019-07-01T19:18:41.935Z</time>
      </trkpt>
      <trkpt lat="40.48592" lon="-3.51873">
        <ele>664.011</ele>
        <time>2019-07-01T19:18:42.935Z</time>
      </trkpt>
      <trkpt lat="40.48592" lon="-3.51873">
        <ele>664.011</ele>
        <time>2019-07-01T19:18:43.935Z</time>
      </trkpt>
      <trkpt lat="40.48573667" lon="-3.51847">
        <ele>661.011</ele>
        <time>2019-07-01T19:18:44.935Z</time>
      </trkpt>
      <trkpt lat="40.48563333" lon="-3.51835333">
        <ele>661.011</ele>
        <time>2019-07-01T19:18:45.935Z</time>
      </trkpt>
      <trkpt lat="40.48563333" lon="-3.51835333">
        <ele>659.011</ele>
        <time>2019-07-01T19:18:46.935Z</time>
      </trkpt>
      <trkpt lat="40.48543167" lon="-3.518115">
        <ele>659.011</ele>
        <time>2019-07-01T19:18:47.935Z</time>
      </trkpt>
      <trkpt lat="40.48534" lon="-3.51798833">
        <ele>658.011</ele>
        <time>2019-07-01T19:18:48.935Z</time>
      </trkpt>
      <trkpt lat="40.48534" lon="-3.51798833">
        <ele>658.011</ele>
        <time>2019-07-01T19:18:49.935Z</time>
      </trkpt>
      <trkpt lat="40.48515833" lon="-3.517735">
        <ele>656.011</ele>
        <time>2019-07-01T19:18:50.935Z</time>
      </trkpt>
      <trkpt lat="40.48515833" lon="-3.517735">
        <ele>656.011</ele>
        <time>2019-07-01T19:18:51.935Z</time>
      </trkpt>
      <trkpt lat="40.48496333" lon="-3.51751333">
        <ele>655.011</ele>
        <time>2019-07-01T19:18:52.935Z</time>
      </trkpt>
      <trkpt lat="40.48485667" lon="-3.51742333">
        <ele>655.011</ele>
        <time>2019-07-01T19:18:53.935Z</time>
      </trkpt>
      <trkpt lat="40.48474333" lon="-3.51735">
        <ele>654.011</ele>
        <time>2019-07-01T19:18:54.935Z</time>
      </trkpt>
      <trkpt lat="40.48474333" lon="-3.51735">
        <ele>654.011</ele>
        <time>2019-07-01T19:18:55.935Z</time>
      </trkpt>
      <trkpt lat="40.48451" lon="-3.51724">
        <ele>653.011</ele>
        <time>2019-07-01T19:18:56.935Z</time>
      </trkpt>
      <trkpt lat="40.48439" lon="-3.51719833">
        <ele>653.011</ele>
        <time>2019-07-01T19:18:57.935Z</time>
      </trkpt>
      <trkpt lat="40.48439" lon="-3.51719833">
        <ele>653.011</ele>
        <time>2019-07-01T19:18:58.935Z</time>
      </trkpt>
      <trkpt lat="40.484155" lon="-3.517115">
        <ele>651.011</ele>
        <time>2019-07-01T19:18:59.935Z</time>
      </trkpt>
      <trkpt lat="40.484155" lon="-3.517115">
        <ele>651.011</ele>
        <time>2019-07-01T19:19:00.935Z</time>
      </trkpt>
      <trkpt lat="40.483915" lon="-3.51706167">
        <ele>650.011</ele>
        <time>2019-07-01T19:19:01.935Z</time>
      </trkpt>
      <trkpt lat="40.483915" lon="-3.51706167">
        <ele>650.011</ele>
        <time>2019-07-01T19:19:02.935Z</time>
      </trkpt>
      <trkpt lat="40.48367667" lon="-3.51700333">
        <ele>648.011</ele>
        <time>2019-07-01T19:19:03.935Z</time>
      </trkpt>
      <trkpt lat="40.48367667" lon="-3.51700333">
        <ele>648.011</ele>
        <time>2019-07-01T19:19:04.935Z</time>
      </trkpt>
      <trkpt lat="40.48345667" lon="-3.51688333">
        <ele>647.011</ele>
        <time>2019-07-01T19:19:05.935Z</time>
      </trkpt>
      <trkpt lat="40.48345667" lon="-3.51688333">
        <ele>647.011</ele>
        <time>2019-07-01T19:19:06.935Z</time>
      </trkpt>
      <trkpt lat="40.48325333" lon="-3.51672667">
        <ele>646.011</ele>
        <time>2019-07-01T19:19:07.935Z</time>
      </trkpt>
      <trkpt lat="40.48315333" lon="-3.51664667">
        <ele>646.011</ele>
        <time>2019-07-01T19:19:08.935Z</time>
      </trkpt>
      <trkpt lat="40.48315333" lon="-3.51664667">
        <ele>645.011</ele>
        <time>2019-07-01T19:19:09.935Z</time>
      </trkpt>
      <trkpt lat="40.48295333" lon="-3.51649833">
        <ele>645.011</ele>
        <time>2019-07-01T19:19:10.935Z</time>
      </trkpt>
      <trkpt lat="40.48285167" lon="-3.516435">
        <ele>644.011</ele>
        <time>2019-07-01T19:19:11.935Z</time>
      </trkpt>
      <trkpt lat="40.48274833" lon="-3.51638333">
        <ele>644.011</ele>
        <time>2019-07-01T19:19:12.935Z</time>
      </trkpt>
      <trkpt lat="40.48274833" lon="-3.51638333">
        <ele>644.011</ele>
        <time>2019-07-01T19:19:13.935Z</time>
      </trkpt>
      <trkpt lat="40.48254167" lon="-3.51629833">
        <ele>644.011</ele>
        <time>2019-07-01T19:19:14.935Z</time>
      </trkpt>
      <trkpt lat="40.48244" lon="-3.516255">
        <ele>642.011</ele>
        <time>2019-07-01T19:19:15.935Z</time>
      </trkpt>
      <trkpt lat="40.48244" lon="-3.516255">
        <ele>642.011</ele>
        <time>2019-07-01T19:19:16.935Z</time>
      </trkpt>
      <trkpt lat="40.48224167" lon="-3.51617333">
        <ele>642.011</ele>
        <time>2019-07-01T19:19:17.935Z</time>
      </trkpt>
      <trkpt lat="40.48214667" lon="-3.51613667">
        <ele>642.011</ele>
        <time>2019-07-01T19:19:18.935Z</time>
      </trkpt>
      <trkpt lat="40.48214667" lon="-3.51613667">
        <ele>642.011</ele>
        <time>2019-07-01T19:19:19.935Z</time>
      </trkpt>
      <trkpt lat="40.48196833" lon="-3.516055">
        <ele>642.011</ele>
        <time>2019-07-01T19:19:20.935Z</time>
      </trkpt>
      <trkpt lat="40.48196833" lon="-3.516055">
        <ele>642.011</ele>
        <time>2019-07-01T19:19:21.935Z</time>
      </trkpt>
      <trkpt lat="40.48179667" lon="-3.51597333">
        <ele>642.011</ele>
        <time>2019-07-01T19:19:22.935Z</time>
      </trkpt>
      <trkpt lat="40.48179667" lon="-3.51597333">
        <ele>642.011</ele>
        <time>2019-07-01T19:19:23.935Z</time>
      </trkpt>
      <trkpt lat="40.48163833" lon="-3.51587667">
        <ele>642.011</ele>
        <time>2019-07-01T19:19:24.935Z</time>
      </trkpt>
      <trkpt lat="40.48163833" lon="-3.51587667">
        <ele>642.011</ele>
        <time>2019-07-01T19:19:25.935Z</time>
      </trkpt>
      <trkpt lat="40.481485" lon="-3.51578333">
        <ele>642.011</ele>
        <time>2019-07-01T19:19:26.935Z</time>
      </trkpt>
      <trkpt lat="40.481485" lon="-3.51578333">
        <ele>642.011</ele>
        <time>2019-07-01T19:19:27.935Z</time>
      </trkpt>
      <trkpt lat="40.48133" lon="-3.51570833">
        <ele>642.011</ele>
        <time>2019-07-01T19:19:28.935Z</time>
      </trkpt>
      <trkpt lat="40.48133" lon="-3.51570833">
        <ele>643.011</ele>
        <time>2019-07-01T19:19:29.935Z</time>
      </trkpt>
      <trkpt lat="40.48118" lon="-3.51563333">
        <ele>643.011</ele>
        <time>2019-07-01T19:19:30.935Z</time>
      </trkpt>
      <trkpt lat="40.48118" lon="-3.51563333">
        <ele>643.011</ele>
        <time>2019-07-01T19:19:31.935Z</time>
      </trkpt>
      <trkpt lat="40.48103667" lon="-3.51555667">
        <ele>643.011</ele>
        <time>2019-07-01T19:19:32.935Z</time>
      </trkpt>
      <trkpt lat="40.48097" lon="-3.51552333">
        <ele>643.011</ele>
        <time>2019-07-01T19:19:33.935Z</time>
      </trkpt>
      <trkpt lat="40.48090167" lon="-3.51549833">
        <ele>643.011</ele>
        <time>2019-07-01T19:19:34.935Z</time>
      </trkpt>
      <trkpt lat="40.48090167" lon="-3.51549833">
        <ele>643.011</ele>
        <time>2019-07-01T19:19:35.935Z</time>
      </trkpt>
      <trkpt lat="40.48077333" lon="-3.51546333">
        <ele>643.011</ele>
        <time>2019-07-01T19:19:36.935Z</time>
      </trkpt>
      <trkpt lat="40.48077333" lon="-3.51546333">
        <ele>643.011</ele>
        <time>2019-07-01T19:19:37.935Z</time>
      </trkpt>
      <trkpt lat="40.48065167" lon="-3.515435">
        <ele>644.011</ele>
        <time>2019-07-01T19:19:38.935Z</time>
      </trkpt>
      <trkpt lat="40.48059333" lon="-3.515425">
        <ele>644.011</ele>
        <time>2019-07-01T19:19:39.935Z</time>
      </trkpt>
      <trkpt lat="40.48059333" lon="-3.515425">
        <ele>644.011</ele>
        <time>2019-07-01T19:19:40.935Z</time>
      </trkpt>
      <trkpt lat="40.480475" lon="-3.515405">
        <ele>644.011</ele>
        <time>2019-07-01T19:19:41.935Z</time>
      </trkpt>
      <trkpt lat="40.48041667" lon="-3.515395">
        <ele>645.011</ele>
        <time>2019-07-01T19:19:42.935Z</time>
      </trkpt>
      <trkpt lat="40.48041667" lon="-3.515395">
        <ele>645.011</ele>
        <time>2019-07-01T19:19:43.935Z</time>
      </trkpt>
      <trkpt lat="40.48030167" lon="-3.51537">
        <ele>645.011</ele>
        <time>2019-07-01T19:19:44.935Z</time>
      </trkpt>
      <trkpt lat="40.480245" lon="-3.515355">
        <ele>645.011</ele>
        <time>2019-07-01T19:19:45.935Z</time>
      </trkpt>
      <trkpt lat="40.480245" lon="-3.515355">
        <ele>646.011</ele>
        <time>2019-07-01T19:19:46.935Z</time>
      </trkpt>
      <trkpt lat="40.48013" lon="-3.51532167">
        <ele>646.011</ele>
        <time>2019-07-01T19:19:47.935Z</time>
      </trkpt>
      <trkpt lat="40.48013" lon="-3.51532167">
        <ele>647.011</ele>
        <time>2019-07-01T19:19:48.935Z</time>
      </trkpt>
      <trkpt lat="40.480015" lon="-3.5153">
        <ele>647.011</ele>
        <time>2019-07-01T19:19:49.935Z</time>
      </trkpt>
      <trkpt lat="40.47995667" lon="-3.51528833">
        <ele>647.011</ele>
        <time>2019-07-01T19:19:50.935Z</time>
      </trkpt>
      <trkpt lat="40.47995667" lon="-3.51528833">
        <ele>647.011</ele>
        <time>2019-07-01T19:19:51.935Z</time>
      </trkpt>
      <trkpt lat="40.479845" lon="-3.51527">
        <ele>647.011</ele>
        <time>2019-07-01T19:19:52.935Z</time>
      </trkpt>
      <trkpt lat="40.47979333" lon="-3.51527">
        <ele>648.011</ele>
        <time>2019-07-01T19:19:53.935Z</time>
      </trkpt>
      <trkpt lat="40.47974333" lon="-3.51526667">
        <ele>648.011</ele>
        <time>2019-07-01T19:19:54.935Z</time>
      </trkpt>
      <trkpt lat="40.47974333" lon="-3.51526667">
        <ele>648.011</ele>
        <time>2019-07-01T19:19:55.935Z</time>
      </trkpt>
      <trkpt lat="40.479655" lon="-3.51524333">
        <ele>648.011</ele>
        <time>2019-07-01T19:19:56.935Z</time>
      </trkpt>
      <trkpt lat="40.479655" lon="-3.51524333">
        <ele>648.011</ele>
        <time>2019-07-01T19:19:57.935Z</time>
      </trkpt>
      <trkpt lat="40.47957333" lon="-3.51521333">
        <ele>648.011</ele>
        <time>2019-07-01T19:19:58.935Z</time>
      </trkpt>
      <trkpt lat="40.47957333" lon="-3.51521333">
        <ele>648.011</ele>
        <time>2019-07-01T19:19:59.935Z</time>
      </trkpt>
      <trkpt lat="40.47949167" lon="-3.51517333">
        <ele>649.011</ele>
        <time>2019-07-01T19:20:00.935Z</time>
      </trkpt>
      <trkpt lat="40.47949167" lon="-3.51517333">
        <ele>649.011</ele>
        <time>2019-07-01T19:20:01.935Z</time>
      </trkpt>
      <trkpt lat="40.479415" lon="-3.51513667">
        <ele>649.011</ele>
        <time>2019-07-01T19:20:02.935Z</time>
      </trkpt>
      <trkpt lat="40.47937167" lon="-3.51511833">
        <ele>649.011</ele>
        <time>2019-07-01T19:20:03.935Z</time>
      </trkpt>
      <trkpt lat="40.47933167" lon="-3.51509667">
        <ele>649.011</ele>
        <time>2019-07-01T19:20:04.935Z</time>
      </trkpt>
      <trkpt lat="40.47933167" lon="-3.51509667">
        <ele>649.011</ele>
        <time>2019-07-01T19:20:05.935Z</time>
      </trkpt>
      <trkpt lat="40.47924667" lon="-3.51505833">
        <ele>649.011</ele>
        <time>2019-07-01T19:20:06.935Z</time>
      </trkpt>
      <trkpt lat="40.47924667" lon="-3.51505833">
        <ele>649.011</ele>
        <time>2019-07-01T19:20:07.935Z</time>
      </trkpt>
      <trkpt lat="40.47915667" lon="-3.51501333">
        <ele>649.011</ele>
        <time>2019-07-01T19:20:08.935Z</time>
      </trkpt>
      <trkpt lat="40.47910667" lon="-3.51499">
        <ele>649.011</ele>
        <time>2019-07-01T19:20:09.935Z</time>
      </trkpt>
      <trkpt lat="40.47910667" lon="-3.51499">
        <ele>649.011</ele>
        <time>2019-07-01T19:20:10.935Z</time>
      </trkpt>
      <trkpt lat="40.47899667" lon="-3.51493833">
        <ele>649.011</ele>
        <time>2019-07-01T19:20:11.935Z</time>
      </trkpt>
      <trkpt lat="40.47893833" lon="-3.51490667">
        <ele>648.011</ele>
        <time>2019-07-01T19:20:12.935Z</time>
      </trkpt>
      <trkpt lat="40.47893833" lon="-3.51490667">
        <ele>648.011</ele>
        <time>2019-07-01T19:20:13.935Z</time>
      </trkpt>
      <trkpt lat="40.47881167" lon="-3.51483667">
        <ele>648.011</ele>
        <time>2019-07-01T19:20:14.935Z</time>
      </trkpt>
      <trkpt lat="40.47881167" lon="-3.51483667">
        <ele>648.011</ele>
        <time>2019-07-01T19:20:15.935Z</time>
      </trkpt>
      <trkpt lat="40.47866667" lon="-3.51476333">
        <ele>646.011</ele>
        <time>2019-07-01T19:20:16.935Z</time>
      </trkpt>
      <trkpt lat="40.478585" lon="-3.51473167">
        <ele>646.011</ele>
        <time>2019-07-01T19:20:17.935Z</time>
      </trkpt>
      <trkpt lat="40.47849667" lon="-3.51471333">
        <ele>646.011</ele>
        <time>2019-07-01T19:20:18.935Z</time>
      </trkpt>
      <trkpt lat="40.47849667" lon="-3.51471333">
        <ele>646.011</ele>
        <time>2019-07-01T19:20:19.935Z</time>
      </trkpt>
      <trkpt lat="40.47832833" lon="-3.51475667">
        <ele>644.011</ele>
        <time>2019-07-01T19:20:20.935Z</time>
      </trkpt>
      <trkpt lat="40.47825" lon="-3.5148">
        <ele>644.011</ele>
        <time>2019-07-01T19:20:21.935Z</time>
      </trkpt>
      <trkpt lat="40.47825" lon="-3.5148">
        <ele>644.011</ele>
        <time>2019-07-01T19:20:22.935Z</time>
      </trkpt>
      <trkpt lat="40.47808167" lon="-3.51481667">
        <ele>644.011</ele>
        <time>2019-07-01T19:20:23.935Z</time>
      </trkpt>
      <trkpt lat="40.47808167" lon="-3.51481667">
        <ele>643.011</ele>
        <time>2019-07-01T19:20:24.935Z</time>
      </trkpt>
      <trkpt lat="40.47793333" lon="-3.51487667">
        <ele>643.011</ele>
        <time>2019-07-01T19:20:25.935Z</time>
      </trkpt>
      <trkpt lat="40.47787833" lon="-3.51494167">
        <ele>643.011</ele>
        <time>2019-07-01T19:20:26.935Z</time>
      </trkpt>
      <trkpt lat="40.47787833" lon="-3.51494167">
        <ele>643.011</ele>
        <time>2019-07-01T19:20:27.935Z</time>
      </trkpt>
      <trkpt lat="40.47780167" lon="-3.51507333">
        <ele>643.011</ele>
        <time>2019-07-01T19:20:28.935Z</time>
      </trkpt>
      <trkpt lat="40.47780167" lon="-3.51507333">
        <ele>643.011</ele>
        <time>2019-07-01T19:20:29.935Z</time>
      </trkpt>
      <trkpt lat="40.47774333" lon="-3.51516833">
        <ele>643.011</ele>
        <time>2019-07-01T19:20:30.935Z</time>
      </trkpt>
      <trkpt lat="40.47774333" lon="-3.51516833">
        <ele>643.011</ele>
        <time>2019-07-01T19:20:31.935Z</time>
      </trkpt>
      <trkpt lat="40.477685" lon="-3.51525167">
        <ele>644.011</ele>
        <time>2019-07-01T19:20:32.935Z</time>
      </trkpt>
      <trkpt lat="40.477685" lon="-3.51525167">
        <ele>644.011</ele>
        <time>2019-07-01T19:20:33.935Z</time>
      </trkpt>
      <trkpt lat="40.477625" lon="-3.51533833">
        <ele>645.011</ele>
        <time>2019-07-01T19:20:34.935Z</time>
      </trkpt>
      <trkpt lat="40.477625" lon="-3.51533833">
        <ele>645.011</ele>
        <time>2019-07-01T19:20:35.935Z</time>
      </trkpt>
      <trkpt lat="40.47756667" lon="-3.51543333">
        <ele>646.011</ele>
        <time>2019-07-01T19:20:36.935Z</time>
      </trkpt>
      <trkpt lat="40.47756667" lon="-3.51543333">
        <ele>646.011</ele>
        <time>2019-07-01T19:20:37.935Z</time>
      </trkpt>
      <trkpt lat="40.477505" lon="-3.51553667">
        <ele>647.011</ele>
        <time>2019-07-01T19:20:38.935Z</time>
      </trkpt>
      <trkpt lat="40.477505" lon="-3.51553667">
        <ele>647.011</ele>
        <time>2019-07-01T19:20:39.935Z</time>
      </trkpt>
      <trkpt lat="40.47744" lon="-3.51564">
        <ele>648.011</ele>
        <time>2019-07-01T19:20:40.935Z</time>
      </trkpt>
      <trkpt lat="40.47744" lon="-3.51564">
        <ele>648.011</ele>
        <time>2019-07-01T19:20:41.935Z</time>
      </trkpt>
      <trkpt lat="40.47738167" lon="-3.515745">
        <ele>648.011</ele>
        <time>2019-07-01T19:20:42.935Z</time>
      </trkpt>
      <trkpt lat="40.47738167" lon="-3.515745">
        <ele>648.011</ele>
        <time>2019-07-01T19:20:43.935Z</time>
      </trkpt>
      <trkpt lat="40.47732333" lon="-3.51584833">
        <ele>648.011</ele>
        <time>2019-07-01T19:20:44.935Z</time>
      </trkpt>
      <trkpt lat="40.47732333" lon="-3.51584833">
        <ele>648.011</ele>
        <time>2019-07-01T19:20:45.935Z</time>
      </trkpt>
      <trkpt lat="40.47725667" lon="-3.51595333">
        <ele>648.011</ele>
        <time>2019-07-01T19:20:46.935Z</time>
      </trkpt>
      <trkpt lat="40.47725667" lon="-3.51595333">
        <ele>648.011</ele>
        <time>2019-07-01T19:20:47.935Z</time>
      </trkpt>
      <trkpt lat="40.47718" lon="-3.51607">
        <ele>648.011</ele>
        <time>2019-07-01T19:20:48.935Z</time>
      </trkpt>
      <trkpt lat="40.47718" lon="-3.51607">
        <ele>648.011</ele>
        <time>2019-07-01T19:20:49.935Z</time>
      </trkpt>
      <trkpt lat="40.47709333" lon="-3.51621333">
        <ele>648.011</ele>
        <time>2019-07-01T19:20:50.935Z</time>
      </trkpt>
      <trkpt lat="40.47704667" lon="-3.51628833">
        <ele>648.011</ele>
        <time>2019-07-01T19:20:51.935Z</time>
      </trkpt>
      <trkpt lat="40.47704667" lon="-3.51628833">
        <ele>648.011</ele>
        <time>2019-07-01T19:20:52.935Z</time>
      </trkpt>
      <trkpt lat="40.47692333" lon="-3.51643833">
        <ele>647.011</ele>
        <time>2019-07-01T19:20:53.935Z</time>
      </trkpt>
      <trkpt lat="40.47685" lon="-3.51650667">
        <ele>647.011</ele>
        <time>2019-07-01T19:20:54.935Z</time>
      </trkpt>
      <trkpt lat="40.47685" lon="-3.51650667">
        <ele>646.011</ele>
        <time>2019-07-01T19:20:55.935Z</time>
      </trkpt>
      <trkpt lat="40.47669167" lon="-3.51663">
        <ele>646.011</ele>
        <time>2019-07-01T19:20:56.935Z</time>
      </trkpt>
      <trkpt lat="40.47669167" lon="-3.51663">
        <ele>645.011</ele>
        <time>2019-07-01T19:20:57.935Z</time>
      </trkpt>
      <trkpt lat="40.47652333" lon="-3.51672667">
        <ele>645.011</ele>
        <time>2019-07-01T19:20:58.935Z</time>
      </trkpt>
      <trkpt lat="40.47652333" lon="-3.51672667">
        <ele>645.011</ele>
        <time>2019-07-01T19:20:59.935Z</time>
      </trkpt>
      <trkpt lat="40.47635333" lon="-3.51678167">
        <ele>644.011</ele>
        <time>2019-07-01T19:21:00.935Z</time>
      </trkpt>
      <trkpt lat="40.47635333" lon="-3.51678167">
        <ele>644.011</ele>
        <time>2019-07-01T19:21:01.935Z</time>
      </trkpt>
      <trkpt lat="40.47619" lon="-3.5168">
        <ele>644.011</ele>
        <time>2019-07-01T19:21:02.935Z</time>
      </trkpt>
      <trkpt lat="40.47619" lon="-3.5168">
        <ele>644.011</ele>
        <time>2019-07-01T19:21:03.935Z</time>
      </trkpt>
      <trkpt lat="40.47604167" lon="-3.51680167">
        <ele>644.011</ele>
        <time>2019-07-01T19:21:04.935Z</time>
      </trkpt>
      <trkpt lat="40.47604167" lon="-3.51680167">
        <ele>644.011</ele>
        <time>2019-07-01T19:21:05.935Z</time>
      </trkpt>
      <trkpt lat="40.475905" lon="-3.51678667">
        <ele>644.011</ele>
        <time>2019-07-01T19:21:06.935Z</time>
      </trkpt>
      <trkpt lat="40.475905" lon="-3.51678667">
        <ele>644.011</ele>
        <time>2019-07-01T19:21:07.935Z</time>
      </trkpt>
      <trkpt lat="40.47577833" lon="-3.51675833">
        <ele>644.011</ele>
        <time>2019-07-01T19:21:08.935Z</time>
      </trkpt>
      <trkpt lat="40.47571667" lon="-3.516745">
        <ele>644.011</ele>
        <time>2019-07-01T19:21:09.935Z</time>
      </trkpt>
      <trkpt lat="40.47571667" lon="-3.516745">
        <ele>644.011</ele>
        <time>2019-07-01T19:21:10.935Z</time>
      </trkpt>
      <trkpt lat="40.475595" lon="-3.51671167">
        <ele>644.011</ele>
        <time>2019-07-01T19:21:11.935Z</time>
      </trkpt>
      <trkpt lat="40.47553" lon="-3.51669167">
        <ele>644.011</ele>
        <time>2019-07-01T19:21:12.935Z</time>
      </trkpt>
      <trkpt lat="40.47553" lon="-3.51669167">
        <ele>644.011</ele>
        <time>2019-07-01T19:21:13.935Z</time>
      </trkpt>
      <trkpt lat="40.475395" lon="-3.516645">
        <ele>644.011</ele>
        <time>2019-07-01T19:21:14.935Z</time>
      </trkpt>
      <trkpt lat="40.475325" lon="-3.51662167">
        <ele>644.011</ele>
        <time>2019-07-01T19:21:15.935Z</time>
      </trkpt>
      <trkpt lat="40.475325" lon="-3.51662167">
        <ele>643.011</ele>
        <time>2019-07-01T19:21:16.935Z</time>
      </trkpt>
      <trkpt lat="40.47517833" lon="-3.51656833">
        <ele>643.011</ele>
        <time>2019-07-01T19:21:17.935Z</time>
      </trkpt>
      <trkpt lat="40.475105" lon="-3.51654167">
        <ele>643.011</ele>
        <time>2019-07-01T19:21:18.935Z</time>
      </trkpt>
      <trkpt lat="40.475105" lon="-3.51654167">
        <ele>643.011</ele>
        <time>2019-07-01T19:21:19.935Z</time>
      </trkpt>
      <trkpt lat="40.47496" lon="-3.51648667">
        <ele>642.011</ele>
        <time>2019-07-01T19:21:20.935Z</time>
      </trkpt>
      <trkpt lat="40.47489167" lon="-3.51645167">
        <ele>642.011</ele>
        <time>2019-07-01T19:21:21.935Z</time>
      </trkpt>
      <trkpt lat="40.47489167" lon="-3.51645167">
        <ele>642.011</ele>
        <time>2019-07-01T19:21:22.935Z</time>
      </trkpt>
      <trkpt lat="40.474765" lon="-3.51638">
        <ele>642.011</ele>
        <time>2019-07-01T19:21:23.935Z</time>
      </trkpt>
      <trkpt lat="40.47471167" lon="-3.51634">
        <ele>642.011</ele>
        <time>2019-07-01T19:21:24.935Z</time>
      </trkpt>
      <trkpt lat="40.47471167" lon="-3.51634">
        <ele>642.011</ele>
        <time>2019-07-01T19:21:25.935Z</time>
      </trkpt>
      <trkpt lat="40.47462" lon="-3.51626167">
        <ele>643.011</ele>
        <time>2019-07-01T19:21:26.935Z</time>
      </trkpt>
      <trkpt lat="40.47462" lon="-3.51626167">
        <ele>643.011</ele>
        <time>2019-07-01T19:21:27.935Z</time>
      </trkpt>
      <trkpt lat="40.47454333" lon="-3.51616833">
        <ele>643.011</ele>
        <time>2019-07-01T19:21:28.935Z</time>
      </trkpt>
      <trkpt lat="40.47454333" lon="-3.51616833">
        <ele>643.011</ele>
        <time>2019-07-01T19:21:29.935Z</time>
      </trkpt>
      <trkpt lat="40.47447667" lon="-3.51605333">
        <ele>644.011</ele>
        <time>2019-07-01T19:21:30.935Z</time>
      </trkpt>
      <trkpt lat="40.47447667" lon="-3.51605333">
        <ele>644.011</ele>
        <time>2019-07-01T19:21:31.935Z</time>
      </trkpt>
      <trkpt lat="40.474415" lon="-3.51592167">
        <ele>644.011</ele>
        <time>2019-07-01T19:21:32.935Z</time>
      </trkpt>
      <trkpt lat="40.474415" lon="-3.51592167">
        <ele>644.011</ele>
        <time>2019-07-01T19:21:33.935Z</time>
      </trkpt>
      <trkpt lat="40.47437667" lon="-3.51578667">
        <ele>645.011</ele>
        <time>2019-07-01T19:21:34.935Z</time>
      </trkpt>
      <trkpt lat="40.47437667" lon="-3.51578667">
        <ele>645.011</ele>
        <time>2019-07-01T19:21:35.935Z</time>
      </trkpt>
      <trkpt lat="40.47435" lon="-3.51565167">
        <ele>646.011</ele>
        <time>2019-07-01T19:21:36.935Z</time>
      </trkpt>
      <trkpt lat="40.47435" lon="-3.51565167">
        <ele>646.011</ele>
        <time>2019-07-01T19:21:37.935Z</time>
      </trkpt>
      <trkpt lat="40.47433833" lon="-3.51551167">
        <ele>646.011</ele>
        <time>2019-07-01T19:21:38.935Z</time>
      </trkpt>
      <trkpt lat="40.47433667" lon="-3.51544333">
        <ele>646.011</ele>
        <time>2019-07-01T19:21:39.935Z</time>
      </trkpt>
      <trkpt lat="40.47433667" lon="-3.51544333">
        <ele>646.011</ele>
        <time>2019-07-01T19:21:40.935Z</time>
      </trkpt>
      <trkpt lat="40.47432833" lon="-3.5153">
        <ele>646.011</ele>
        <time>2019-07-01T19:21:41.935Z</time>
      </trkpt>
      <trkpt lat="40.47432" lon="-3.51522667">
        <ele>646.011</ele>
        <time>2019-07-01T19:21:42.935Z</time>
      </trkpt>
      <trkpt lat="40.47432" lon="-3.51522667">
        <ele>646.011</ele>
        <time>2019-07-01T19:21:43.935Z</time>
      </trkpt>
      <trkpt lat="40.474305" lon="-3.51508167">
        <ele>646.011</ele>
        <time>2019-07-01T19:21:44.935Z</time>
      </trkpt>
      <trkpt lat="40.47429333" lon="-3.51501167">
        <ele>646.011</ele>
        <time>2019-07-01T19:21:45.935Z</time>
      </trkpt>
      <trkpt lat="40.47429333" lon="-3.51501167">
        <ele>646.011</ele>
        <time>2019-07-01T19:21:46.935Z</time>
      </trkpt>
      <trkpt lat="40.474265" lon="-3.51488">
        <ele>646.011</ele>
        <time>2019-07-01T19:21:47.935Z</time>
      </trkpt>
      <trkpt lat="40.47425" lon="-3.51482">
        <ele>646.011</ele>
        <time>2019-07-01T19:21:48.935Z</time>
      </trkpt>
      <trkpt lat="40.47425" lon="-3.51482">
        <ele>646.011</ele>
        <time>2019-07-01T19:21:49.935Z</time>
      </trkpt>
      <trkpt lat="40.47421" lon="-3.51471">
        <ele>646.011</ele>
        <time>2019-07-01T19:21:50.935Z</time>
      </trkpt>
      <trkpt lat="40.47418833" lon="-3.51465667">
        <ele>646.011</ele>
        <time>2019-07-01T19:21:51.935Z</time>
      </trkpt>
      <trkpt lat="40.47418833" lon="-3.51465667">
        <ele>646.011</ele>
        <time>2019-07-01T19:21:52.935Z</time>
      </trkpt>
      <trkpt lat="40.47413167" lon="-3.514555">
        <ele>646.011</ele>
        <time>2019-07-01T19:21:53.935Z</time>
      </trkpt>
      <trkpt lat="40.47409833" lon="-3.51450833">
        <ele>646.011</ele>
        <time>2019-07-01T19:21:54.935Z</time>
      </trkpt>
      <trkpt lat="40.47409833" lon="-3.51450833">
        <ele>646.011</ele>
        <time>2019-07-01T19:21:55.935Z</time>
      </trkpt>
      <trkpt lat="40.474035" lon="-3.51441667">
        <ele>646.011</ele>
        <time>2019-07-01T19:21:56.935Z</time>
      </trkpt>
      <trkpt lat="40.47399667" lon="-3.51437">
        <ele>646.011</ele>
        <time>2019-07-01T19:21:57.935Z</time>
      </trkpt>
      <trkpt lat="40.47399667" lon="-3.51437">
        <ele>646.011</ele>
        <time>2019-07-01T19:21:58.935Z</time>
      </trkpt>
      <trkpt lat="40.47392167" lon="-3.51429167">
        <ele>646.011</ele>
        <time>2019-07-01T19:21:59.935Z</time>
      </trkpt>
      <trkpt lat="40.47387833" lon="-3.51425667">
        <ele>646.011</ele>
        <time>2019-07-01T19:22:00.935Z</time>
      </trkpt>
      <trkpt lat="40.47387833" lon="-3.51425667">
        <ele>646.011</ele>
        <time>2019-07-01T19:22:01.935Z</time>
      </trkpt>
      <trkpt lat="40.47378333" lon="-3.51419167">
        <ele>646.011</ele>
        <time>2019-07-01T19:22:02.935Z</time>
      </trkpt>
      <trkpt lat="40.47378333" lon="-3.51419167">
        <ele>646.011</ele>
        <time>2019-07-01T19:22:03.935Z</time>
      </trkpt>
      <trkpt lat="40.47368" lon="-3.51413167">
        <ele>646.011</ele>
        <time>2019-07-01T19:22:04.935Z</time>
      </trkpt>
      <trkpt lat="40.47362167" lon="-3.51411333">
        <ele>645.011</ele>
        <time>2019-07-01T19:22:05.935Z</time>
      </trkpt>
      <trkpt lat="40.47355667" lon="-3.5141">
        <ele>645.011</ele>
        <time>2019-07-01T19:22:06.935Z</time>
      </trkpt>
      <trkpt lat="40.47355667" lon="-3.5141">
        <ele>645.011</ele>
        <time>2019-07-01T19:22:07.935Z</time>
      </trkpt>
      <trkpt lat="40.47341" lon="-3.51407667">
        <ele>645.011</ele>
        <time>2019-07-01T19:22:08.935Z</time>
      </trkpt>
      <trkpt lat="40.47332667" lon="-3.51406667">
        <ele>644.011</ele>
        <time>2019-07-01T19:22:09.935Z</time>
      </trkpt>
      <trkpt lat="40.47332667" lon="-3.51406667">
        <ele>644.011</ele>
        <time>2019-07-01T19:22:10.935Z</time>
      </trkpt>
      <trkpt lat="40.47314333" lon="-3.514055">
        <ele>643.011</ele>
        <time>2019-07-01T19:22:11.935Z</time>
      </trkpt>
      <trkpt lat="40.473045" lon="-3.514055">
        <ele>643.011</ele>
        <time>2019-07-01T19:22:12.935Z</time>
      </trkpt>
      <trkpt lat="40.473045" lon="-3.514055">
        <ele>642.011</ele>
        <time>2019-07-01T19:22:13.935Z</time>
      </trkpt>
      <trkpt lat="40.47283667" lon="-3.51406">
        <ele>642.011</ele>
        <time>2019-07-01T19:22:14.935Z</time>
      </trkpt>
      <trkpt lat="40.47272667" lon="-3.514055">
        <ele>641.011</ele>
        <time>2019-07-01T19:22:15.935Z</time>
      </trkpt>
      <trkpt lat="40.47272667" lon="-3.514055">
        <ele>641.011</ele>
        <time>2019-07-01T19:22:16.935Z</time>
      </trkpt>
      <trkpt lat="40.47250167" lon="-3.51404333">
        <ele>640.011</ele>
        <time>2019-07-01T19:22:17.935Z</time>
      </trkpt>
      <trkpt lat="40.47239167" lon="-3.51404167">
        <ele>640.011</ele>
        <time>2019-07-01T19:22:18.935Z</time>
      </trkpt>
      <trkpt lat="40.47239167" lon="-3.51404167">
        <ele>638.011</ele>
        <time>2019-07-01T19:22:19.935Z</time>
      </trkpt>
      <trkpt lat="40.47217833" lon="-3.51404333">
        <ele>638.011</ele>
        <time>2019-07-01T19:22:20.935Z</time>
      </trkpt>
      <trkpt lat="40.47217833" lon="-3.51404333">
        <ele>637.011</ele>
        <time>2019-07-01T19:22:21.935Z</time>
      </trkpt>
      <trkpt lat="40.47197" lon="-3.51404167">
        <ele>637.011</ele>
        <time>2019-07-01T19:22:22.935Z</time>
      </trkpt>
      <trkpt lat="40.47197" lon="-3.51404167">
        <ele>637.011</ele>
        <time>2019-07-01T19:22:23.935Z</time>
      </trkpt>
      <trkpt lat="40.47177" lon="-3.51404">
        <ele>637.011</ele>
        <time>2019-07-01T19:22:24.935Z</time>
      </trkpt>
      <trkpt lat="40.47177" lon="-3.51404">
        <ele>637.011</ele>
        <time>2019-07-01T19:22:25.935Z</time>
      </trkpt>
      <trkpt lat="40.47157833" lon="-3.51403667">
        <ele>637.011</ele>
        <time>2019-07-01T19:22:26.935Z</time>
      </trkpt>
      <trkpt lat="40.471485" lon="-3.514035">
        <ele>637.011</ele>
        <time>2019-07-01T19:22:27.935Z</time>
      </trkpt>
      <trkpt lat="40.47139167" lon="-3.51403667">
        <ele>637.011</ele>
        <time>2019-07-01T19:22:28.935Z</time>
      </trkpt>
      <trkpt lat="40.47139167" lon="-3.51403667">
        <ele>637.011</ele>
        <time>2019-07-01T19:22:29.935Z</time>
      </trkpt>
      <trkpt lat="40.471205" lon="-3.51402667">
        <ele>637.011</ele>
        <time>2019-07-01T19:22:30.935Z</time>
      </trkpt>
      <trkpt lat="40.471205" lon="-3.51402667">
        <ele>636.011</ele>
        <time>2019-07-01T19:22:31.935Z</time>
      </trkpt>
      <trkpt lat="40.471015" lon="-3.51401667">
        <ele>636.011</ele>
        <time>2019-07-01T19:22:32.935Z</time>
      </trkpt>
      <trkpt lat="40.471015" lon="-3.51401667">
        <ele>634.011</ele>
        <time>2019-07-01T19:22:33.935Z</time>
      </trkpt>
      <trkpt lat="40.47081" lon="-3.51402333">
        <ele>634.011</ele>
        <time>2019-07-01T19:22:34.935Z</time>
      </trkpt>
      <trkpt lat="40.47081" lon="-3.51402333">
        <ele>633.011</ele>
        <time>2019-07-01T19:22:35.935Z</time>
      </trkpt>
      <trkpt lat="40.47059333" lon="-3.51402333">
        <ele>633.011</ele>
        <time>2019-07-01T19:22:36.935Z</time>
      </trkpt>
      <trkpt lat="40.47059333" lon="-3.51402333">
        <ele>632.011</ele>
        <time>2019-07-01T19:22:37.935Z</time>
      </trkpt>
      <trkpt lat="40.47037167" lon="-3.514005">
        <ele>632.011</ele>
        <time>2019-07-01T19:22:38.935Z</time>
      </trkpt>
      <trkpt lat="40.47037167" lon="-3.514005">
        <ele>630.011</ele>
        <time>2019-07-01T19:22:39.935Z</time>
      </trkpt>
      <trkpt lat="40.47014833" lon="-3.51395">
        <ele>630.011</ele>
        <time>2019-07-01T19:22:40.935Z</time>
      </trkpt>
      <trkpt lat="40.470035" lon="-3.51389167">
        <ele>629.011</ele>
        <time>2019-07-01T19:22:41.935Z</time>
      </trkpt>
      <trkpt lat="40.46992167" lon="-3.51381333">
        <ele>629.011</ele>
        <time>2019-07-01T19:22:42.935Z</time>
      </trkpt>
      <trkpt lat="40.46992167" lon="-3.51381333">
        <ele>629.011</ele>
        <time>2019-07-01T19:22:43.935Z</time>
      </trkpt>
      <trkpt lat="40.46972667" lon="-3.51358833">
        <ele>627.011</ele>
        <time>2019-07-01T19:22:44.935Z</time>
      </trkpt>
      <trkpt lat="40.46972667" lon="-3.51358833">
        <ele>627.011</ele>
        <time>2019-07-01T19:22:45.935Z</time>
      </trkpt>
      <trkpt lat="40.46957" lon="-3.51328833">
        <ele>624.011</ele>
        <time>2019-07-01T19:22:46.935Z</time>
      </trkpt>
      <trkpt lat="40.46957" lon="-3.51328833">
        <ele>624.011</ele>
        <time>2019-07-01T19:22:47.935Z</time>
      </trkpt>
      <trkpt lat="40.46944333" lon="-3.51295667">
        <ele>622.011</ele>
        <time>2019-07-01T19:22:48.935Z</time>
      </trkpt>
      <trkpt lat="40.46944333" lon="-3.51295667">
        <ele>622.011</ele>
        <time>2019-07-01T19:22:49.935Z</time>
      </trkpt>
      <trkpt lat="40.46936667" lon="-3.51259833">
        <ele>620.011</ele>
        <time>2019-07-01T19:22:50.935Z</time>
      </trkpt>
      <trkpt lat="40.469355" lon="-3.51241833">
        <ele>620.011</ele>
        <time>2019-07-01T19:22:51.935Z</time>
      </trkpt>
      <trkpt lat="40.469355" lon="-3.51241833">
        <ele>618.011</ele>
        <time>2019-07-01T19:22:52.935Z</time>
      </trkpt>
      <trkpt lat="40.46936667" lon="-3.51209">
        <ele>618.011</ele>
        <time>2019-07-01T19:22:53.935Z</time>
      </trkpt>
      <trkpt lat="40.46937333" lon="-3.51195833">
        <ele>616.011</ele>
        <time>2019-07-01T19:22:54.935Z</time>
      </trkpt>
      <trkpt lat="40.46937333" lon="-3.51195833">
        <ele>616.011</ele>
        <time>2019-07-01T19:22:55.935Z</time>
      </trkpt>
      <trkpt lat="40.46935667" lon="-3.51176">
        <ele>615.011</ele>
        <time>2019-07-01T19:22:56.935Z</time>
      </trkpt>
      <trkpt lat="40.46935667" lon="-3.51176">
        <ele>615.011</ele>
        <time>2019-07-01T19:22:57.935Z</time>
      </trkpt>
      <trkpt lat="40.46927333" lon="-3.51161333">
        <ele>614.011</ele>
        <time>2019-07-01T19:22:58.935Z</time>
      </trkpt>
      <trkpt lat="40.46927333" lon="-3.51161333">
        <ele>614.011</ele>
        <time>2019-07-01T19:22:59.935Z</time>
      </trkpt>
      <trkpt lat="40.46917333" lon="-3.51147">
        <ele>613.011</ele>
        <time>2019-07-01T19:23:00.935Z</time>
      </trkpt>
      <trkpt lat="40.46917333" lon="-3.51147">
        <ele>613.011</ele>
        <time>2019-07-01T19:23:01.935Z</time>
      </trkpt>
      <trkpt lat="40.46912167" lon="-3.51128667">
        <ele>612.011</ele>
        <time>2019-07-01T19:23:02.935Z</time>
      </trkpt>
      <trkpt lat="40.46912167" lon="-3.51128667">
        <ele>612.011</ele>
        <time>2019-07-01T19:23:03.935Z</time>
      </trkpt>
      <trkpt lat="40.46915" lon="-3.511095">
        <ele>612.011</ele>
        <time>2019-07-01T19:23:04.935Z</time>
      </trkpt>
      <trkpt lat="40.46915" lon="-3.511095">
        <ele>612.011</ele>
        <time>2019-07-01T19:23:05.935Z</time>
      </trkpt>
      <trkpt lat="40.46922667" lon="-3.51094333">
        <ele>612.011</ele>
        <time>2019-07-01T19:23:06.935Z</time>
      </trkpt>
      <trkpt lat="40.46922667" lon="-3.51094333">
        <ele>612.011</ele>
        <time>2019-07-01T19:23:07.935Z</time>
      </trkpt>
      <trkpt lat="40.46932833" lon="-3.51085">
        <ele>612.011</ele>
        <time>2019-07-01T19:23:08.935Z</time>
      </trkpt>
      <trkpt lat="40.46932833" lon="-3.51085">
        <ele>612.011</ele>
        <time>2019-07-01T19:23:09.935Z</time>
      </trkpt>
      <trkpt lat="40.46943333" lon="-3.510805">
        <ele>612.011</ele>
        <time>2019-07-01T19:23:10.935Z</time>
      </trkpt>
      <trkpt lat="40.46943333" lon="-3.510805">
        <ele>612.011</ele>
        <time>2019-07-01T19:23:11.935Z</time>
      </trkpt>
      <trkpt lat="40.46950667" lon="-3.51073">
        <ele>612.011</ele>
        <time>2019-07-01T19:23:12.935Z</time>
      </trkpt>
      <trkpt lat="40.46950667" lon="-3.51073">
        <ele>612.011</ele>
        <time>2019-07-01T19:23:13.935Z</time>
      </trkpt>
      <trkpt lat="40.46954667" lon="-3.51062">
        <ele>612.011</ele>
        <time>2019-07-01T19:23:14.935Z</time>
      </trkpt>
      <trkpt lat="40.46954667" lon="-3.51062">
        <ele>612.011</ele>
        <time>2019-07-01T19:23:15.935Z</time>
      </trkpt>
      <trkpt lat="40.46958" lon="-3.51050333">
        <ele>612.011</ele>
        <time>2019-07-01T19:23:16.935Z</time>
      </trkpt>
      <trkpt lat="40.46959333" lon="-3.51043833">
        <ele>612.011</ele>
        <time>2019-07-01T19:23:17.935Z</time>
      </trkpt>
      <trkpt lat="40.46960667" lon="-3.51037333">
        <ele>612.011</ele>
        <time>2019-07-01T19:23:18.935Z</time>
      </trkpt>
      <trkpt lat="40.46960667" lon="-3.51037333">
        <ele>612.011</ele>
        <time>2019-07-01T19:23:19.935Z</time>
      </trkpt>
      <trkpt lat="40.469635" lon="-3.51023333">
        <ele>613.011</ele>
        <time>2019-07-01T19:23:20.935Z</time>
      </trkpt>
      <trkpt lat="40.469635" lon="-3.51023333">
        <ele>613.011</ele>
        <time>2019-07-01T19:23:21.935Z</time>
      </trkpt>
      <trkpt lat="40.469665" lon="-3.51008833">
        <ele>613.011</ele>
        <time>2019-07-01T19:23:22.935Z</time>
      </trkpt>
      <trkpt lat="40.469665" lon="-3.51008833">
        <ele>613.011</ele>
        <time>2019-07-01T19:23:23.935Z</time>
      </trkpt>
      <trkpt lat="40.46969667" lon="-3.50994833">
        <ele>613.011</ele>
        <time>2019-07-01T19:23:24.935Z</time>
      </trkpt>
      <trkpt lat="40.46969667" lon="-3.50994833">
        <ele>613.011</ele>
        <time>2019-07-01T19:23:25.935Z</time>
      </trkpt>
      <trkpt lat="40.46972833" lon="-3.509815">
        <ele>613.011</ele>
        <time>2019-07-01T19:23:26.935Z</time>
      </trkpt>
      <trkpt lat="40.46972833" lon="-3.509815">
        <ele>613.011</ele>
        <time>2019-07-01T19:23:27.935Z</time>
      </trkpt>
      <trkpt lat="40.469755" lon="-3.509685">
        <ele>613.011</ele>
        <time>2019-07-01T19:23:28.935Z</time>
      </trkpt>
      <trkpt lat="40.469755" lon="-3.509685">
        <ele>613.011</ele>
        <time>2019-07-01T19:23:29.935Z</time>
      </trkpt>
      <trkpt lat="40.469785" lon="-3.509555">
        <ele>613.011</ele>
        <time>2019-07-01T19:23:30.935Z</time>
      </trkpt>
      <trkpt lat="40.469785" lon="-3.509555">
        <ele>613.011</ele>
        <time>2019-07-01T19:23:31.935Z</time>
      </trkpt>
      <trkpt lat="40.46981667" lon="-3.509425">
        <ele>613.011</ele>
        <time>2019-07-01T19:23:32.935Z</time>
      </trkpt>
      <trkpt lat="40.46981667" lon="-3.509425">
        <ele>613.011</ele>
        <time>2019-07-01T19:23:33.935Z</time>
      </trkpt>
      <trkpt lat="40.469845" lon="-3.50929167">
        <ele>613.011</ele>
        <time>2019-07-01T19:23:34.935Z</time>
      </trkpt>
      <trkpt lat="40.46986" lon="-3.50922333">
        <ele>613.011</ele>
        <time>2019-07-01T19:23:35.935Z</time>
      </trkpt>
      <trkpt lat="40.46987167" lon="-3.509155">
        <ele>613.011</ele>
        <time>2019-07-01T19:23:36.935Z</time>
      </trkpt>
      <trkpt lat="40.46987167" lon="-3.509155">
        <ele>613.011</ele>
        <time>2019-07-01T19:23:37.935Z</time>
      </trkpt>
      <trkpt lat="40.46989667" lon="-3.509025">
        <ele>613.011</ele>
        <time>2019-07-01T19:23:38.935Z</time>
      </trkpt>
      <trkpt lat="40.46989667" lon="-3.509025">
        <ele>613.011</ele>
        <time>2019-07-01T19:23:39.935Z</time>
      </trkpt>
      <trkpt lat="40.46992333" lon="-3.50889333">
        <ele>613.011</ele>
        <time>2019-07-01T19:23:40.935Z</time>
      </trkpt>
      <trkpt lat="40.46992333" lon="-3.50889333">
        <ele>613.011</ele>
        <time>2019-07-01T19:23:41.935Z</time>
      </trkpt>
      <trkpt lat="40.46994667" lon="-3.508755">
        <ele>613.011</ele>
        <time>2019-07-01T19:23:42.935Z</time>
      </trkpt>
      <trkpt lat="40.46994667" lon="-3.508755">
        <ele>613.011</ele>
        <time>2019-07-01T19:23:43.935Z</time>
      </trkpt>
      <trkpt lat="40.46997667" lon="-3.50862167">
        <ele>613.011</ele>
        <time>2019-07-01T19:23:44.935Z</time>
      </trkpt>
      <trkpt lat="40.46997667" lon="-3.50862167">
        <ele>613.011</ele>
        <time>2019-07-01T19:23:45.935Z</time>
      </trkpt>
      <trkpt lat="40.47001167" lon="-3.508495">
        <ele>613.011</ele>
        <time>2019-07-01T19:23:46.935Z</time>
      </trkpt>
      <trkpt lat="40.47002833" lon="-3.50843167">
        <ele>613.011</ele>
        <time>2019-07-01T19:23:47.935Z</time>
      </trkpt>
      <trkpt lat="40.470045" lon="-3.50836667">
        <ele>613.011</ele>
        <time>2019-07-01T19:23:48.935Z</time>
      </trkpt>
      <trkpt lat="40.47006333" lon="-3.50830167">
        <ele>613.011</ele>
        <time>2019-07-01T19:23:49.935Z</time>
      </trkpt>
      <trkpt lat="40.47006333" lon="-3.50830167">
        <ele>613.011</ele>
        <time>2019-07-01T19:23:50.935Z</time>
      </trkpt>
      <trkpt lat="40.470105" lon="-3.508175">
        <ele>613.011</ele>
        <time>2019-07-01T19:23:51.935Z</time>
      </trkpt>
      <trkpt lat="40.47012667" lon="-3.50811333">
        <ele>613.011</ele>
        <time>2019-07-01T19:23:52.935Z</time>
      </trkpt>
      <trkpt lat="40.47012667" lon="-3.50811333">
        <ele>613.011</ele>
        <time>2019-07-01T19:23:53.935Z</time>
      </trkpt>
      <trkpt lat="40.470165" lon="-3.50799167">
        <ele>613.011</ele>
        <time>2019-07-01T19:23:54.935Z</time>
      </trkpt>
      <trkpt lat="40.470185" lon="-3.507935">
        <ele>613.011</ele>
        <time>2019-07-01T19:23:55.935Z</time>
      </trkpt>
      <trkpt lat="40.470205" lon="-3.50788">
        <ele>613.011</ele>
        <time>2019-07-01T19:23:56.935Z</time>
      </trkpt>
      <trkpt lat="40.470205" lon="-3.50788">
        <ele>613.011</ele>
        <time>2019-07-01T19:23:57.935Z</time>
      </trkpt>
      <trkpt lat="40.470255" lon="-3.50776333">
        <ele>613.011</ele>
        <time>2019-07-01T19:23:58.935Z</time>
      </trkpt>
      <trkpt lat="40.470255" lon="-3.50776333">
        <ele>613.011</ele>
        <time>2019-07-01T19:23:59.935Z</time>
      </trkpt>
      <trkpt lat="40.47031333" lon="-3.507645">
        <ele>613.011</ele>
        <time>2019-07-01T19:24:00.935Z</time>
      </trkpt>
      <trkpt lat="40.47031333" lon="-3.507645">
        <ele>613.011</ele>
        <time>2019-07-01T19:24:01.935Z</time>
      </trkpt>
      <trkpt lat="40.470375" lon="-3.50752333">
        <ele>613.011</ele>
        <time>2019-07-01T19:24:02.935Z</time>
      </trkpt>
      <trkpt lat="40.470405" lon="-3.50746333">
        <ele>613.011</ele>
        <time>2019-07-01T19:24:03.935Z</time>
      </trkpt>
      <trkpt lat="40.470405" lon="-3.50746333">
        <ele>613.011</ele>
        <time>2019-07-01T19:24:04.935Z</time>
      </trkpt>
      <trkpt lat="40.47045833" lon="-3.50734667">
        <ele>613.011</ele>
        <time>2019-07-01T19:24:05.935Z</time>
      </trkpt>
      <trkpt lat="40.47048333" lon="-3.507285">
        <ele>613.011</ele>
        <time>2019-07-01T19:24:06.935Z</time>
      </trkpt>
      <trkpt lat="40.47048333" lon="-3.507285">
        <ele>613.011</ele>
        <time>2019-07-01T19:24:07.935Z</time>
      </trkpt>
      <trkpt lat="40.47054167" lon="-3.50716333">
        <ele>613.011</ele>
        <time>2019-07-01T19:24:08.935Z</time>
      </trkpt>
      <trkpt lat="40.47054167" lon="-3.50716333">
        <ele>613.011</ele>
        <time>2019-07-01T19:24:09.935Z</time>
      </trkpt>
      <trkpt lat="40.47059333" lon="-3.50704">
        <ele>613.011</ele>
        <time>2019-07-01T19:24:10.935Z</time>
      </trkpt>
      <trkpt lat="40.47059333" lon="-3.50704">
        <ele>613.011</ele>
        <time>2019-07-01T19:24:11.935Z</time>
      </trkpt>
      <trkpt lat="40.47064333" lon="-3.50691667">
        <ele>613.011</ele>
        <time>2019-07-01T19:24:12.935Z</time>
      </trkpt>
      <trkpt lat="40.47067" lon="-3.50685333">
        <ele>612.011</ele>
        <time>2019-07-01T19:24:13.935Z</time>
      </trkpt>
      <trkpt lat="40.47067" lon="-3.50685333">
        <ele>612.011</ele>
        <time>2019-07-01T19:24:14.935Z</time>
      </trkpt>
      <trkpt lat="40.470725" lon="-3.50672333">
        <ele>612.011</ele>
        <time>2019-07-01T19:24:15.935Z</time>
      </trkpt>
      <trkpt lat="40.47075333" lon="-3.50665167">
        <ele>612.011</ele>
        <time>2019-07-01T19:24:16.935Z</time>
      </trkpt>
      <trkpt lat="40.47078333" lon="-3.50657667">
        <ele>611.011</ele>
        <time>2019-07-01T19:24:17.935Z</time>
      </trkpt>
      <trkpt lat="40.47078333" lon="-3.50657667">
        <ele>611.011</ele>
        <time>2019-07-01T19:24:18.935Z</time>
      </trkpt>
      <trkpt lat="40.47085167" lon="-3.50642">
        <ele>611.011</ele>
        <time>2019-07-01T19:24:19.935Z</time>
      </trkpt>
      <trkpt lat="40.47085167" lon="-3.50642">
        <ele>611.011</ele>
        <time>2019-07-01T19:24:20.935Z</time>
      </trkpt>
      <trkpt lat="40.470925" lon="-3.50626">
        <ele>610.011</ele>
        <time>2019-07-01T19:24:21.935Z</time>
      </trkpt>
      <trkpt lat="40.47096333" lon="-3.50617667">
        <ele>610.011</ele>
        <time>2019-07-01T19:24:22.935Z</time>
      </trkpt>
      <trkpt lat="40.47096333" lon="-3.50617667">
        <ele>609.011</ele>
        <time>2019-07-01T19:24:23.935Z</time>
      </trkpt>
      <trkpt lat="40.471045" lon="-3.50601">
        <ele>609.011</ele>
        <time>2019-07-01T19:24:24.935Z</time>
      </trkpt>
      <trkpt lat="40.471045" lon="-3.50601">
        <ele>608.011</ele>
        <time>2019-07-01T19:24:25.935Z</time>
      </trkpt>
      <trkpt lat="40.47110833" lon="-3.50584667">
        <ele>608.011</ele>
        <time>2019-07-01T19:24:26.935Z</time>
      </trkpt>
      <trkpt lat="40.47110833" lon="-3.50584667">
        <ele>607.011</ele>
        <time>2019-07-01T19:24:27.935Z</time>
      </trkpt>
      <trkpt lat="40.47115333" lon="-3.505695">
        <ele>607.011</ele>
        <time>2019-07-01T19:24:28.935Z</time>
      </trkpt>
      <trkpt lat="40.47115333" lon="-3.505695">
        <ele>606.011</ele>
        <time>2019-07-01T19:24:29.935Z</time>
      </trkpt>
      <trkpt lat="40.47119167" lon="-3.50556">
        <ele>606.011</ele>
        <time>2019-07-01T19:24:30.935Z</time>
      </trkpt>
      <trkpt lat="40.47119167" lon="-3.50556">
        <ele>606.011</ele>
        <time>2019-07-01T19:24:31.935Z</time>
      </trkpt>
      <trkpt lat="40.47122833" lon="-3.50542">
        <ele>606.011</ele>
        <time>2019-07-01T19:24:32.935Z</time>
      </trkpt>
      <trkpt lat="40.47122833" lon="-3.50542">
        <ele>606.011</ele>
        <time>2019-07-01T19:24:33.935Z</time>
      </trkpt>
      <trkpt lat="40.471275" lon="-3.505285">
        <ele>606.011</ele>
        <time>2019-07-01T19:24:34.935Z</time>
      </trkpt>
      <trkpt lat="40.471275" lon="-3.505285">
        <ele>606.011</ele>
        <time>2019-07-01T19:24:35.935Z</time>
      </trkpt>
      <trkpt lat="40.47134833" lon="-3.50517667">
        <ele>606.011</ele>
        <time>2019-07-01T19:24:36.935Z</time>
      </trkpt>
      <trkpt lat="40.47134833" lon="-3.50517667">
        <ele>605.011</ele>
        <time>2019-07-01T19:24:37.935Z</time>
      </trkpt>
      <trkpt lat="40.47143" lon="-3.50510833">
        <ele>605.011</ele>
        <time>2019-07-01T19:24:38.935Z</time>
      </trkpt>
      <trkpt lat="40.47143" lon="-3.50510833">
        <ele>605.011</ele>
        <time>2019-07-01T19:24:39.935Z</time>
      </trkpt>
      <trkpt lat="40.47150667" lon="-3.505105">
        <ele>605.011</ele>
        <time>2019-07-01T19:24:40.935Z</time>
      </trkpt>
      <trkpt lat="40.47153833" lon="-3.505135">
        <ele>605.011</ele>
        <time>2019-07-01T19:24:41.935Z</time>
      </trkpt>
      <trkpt lat="40.47156333" lon="-3.50517333">
        <ele>605.011</ele>
        <time>2019-07-01T19:24:42.935Z</time>
      </trkpt>
      <trkpt lat="40.47156333" lon="-3.50517333">
        <ele>605.011</ele>
        <time>2019-07-01T19:24:43.935Z</time>
      </trkpt>
      <trkpt lat="40.47160833" lon="-3.50525833">
        <ele>605.011</ele>
        <time>2019-07-01T19:24:44.935Z</time>
      </trkpt>
      <trkpt lat="40.47160833" lon="-3.50525833">
        <ele>604.011</ele>
        <time>2019-07-01T19:24:45.935Z</time>
      </trkpt>
      <trkpt lat="40.47163833" lon="-3.505345">
        <ele>604.011</ele>
        <time>2019-07-01T19:24:46.935Z</time>
      </trkpt>
      <trkpt lat="40.47165167" lon="-3.50538167">
        <ele>604.011</ele>
        <time>2019-07-01T19:24:47.935Z</time>
      </trkpt>
      <trkpt lat="40.471665" lon="-3.50541333">
        <ele>604.011</ele>
        <time>2019-07-01T19:24:48.935Z</time>
      </trkpt>
      <trkpt lat="40.471665" lon="-3.50541333">
        <ele>604.011</ele>
        <time>2019-07-01T19:24:49.935Z</time>
      </trkpt>
      <trkpt lat="40.47169" lon="-3.505475">
        <ele>604.011</ele>
        <time>2019-07-01T19:24:50.935Z</time>
      </trkpt>
      <trkpt lat="40.47169" lon="-3.505475">
        <ele>604.011</ele>
        <time>2019-07-01T19:24:51.935Z</time>
      </trkpt>
      <trkpt lat="40.47172" lon="-3.50554">
        <ele>604.011</ele>
        <time>2019-07-01T19:24:52.935Z</time>
      </trkpt>
      <trkpt lat="40.47172" lon="-3.50554">
        <ele>604.011</ele>
        <time>2019-07-01T19:24:53.935Z</time>
      </trkpt>
      <trkpt lat="40.47175" lon="-3.50561833">
        <ele>604.011</ele>
        <time>2019-07-01T19:24:54.935Z</time>
      </trkpt>
      <trkpt lat="40.47175" lon="-3.50561833">
        <ele>604.011</ele>
        <time>2019-07-01T19:24:55.935Z</time>
      </trkpt>
      <trkpt lat="40.47178667" lon="-3.5057">
        <ele>604.011</ele>
        <time>2019-07-01T19:24:56.935Z</time>
      </trkpt>
      <trkpt lat="40.47178667" lon="-3.5057">
        <ele>605.011</ele>
        <time>2019-07-01T19:24:57.935Z</time>
      </trkpt>
      <trkpt lat="40.47182333" lon="-3.50579">
        <ele>605.011</ele>
        <time>2019-07-01T19:24:58.935Z</time>
      </trkpt>
      <trkpt lat="40.47182333" lon="-3.50579">
        <ele>605.011</ele>
        <time>2019-07-01T19:24:59.935Z</time>
      </trkpt>
      <trkpt lat="40.47186" lon="-3.50587833">
        <ele>605.011</ele>
        <time>2019-07-01T19:25:00.935Z</time>
      </trkpt>
      <trkpt lat="40.47186" lon="-3.50587833">
        <ele>605.011</ele>
        <time>2019-07-01T19:25:01.935Z</time>
      </trkpt>
      <trkpt lat="40.47189667" lon="-3.50596667">
        <ele>605.011</ele>
        <time>2019-07-01T19:25:02.935Z</time>
      </trkpt>
      <trkpt lat="40.47189667" lon="-3.50596667">
        <ele>606.011</ele>
        <time>2019-07-01T19:25:03.935Z</time>
      </trkpt>
      <trkpt lat="40.47193667" lon="-3.50605667">
        <ele>606.011</ele>
        <time>2019-07-01T19:25:04.935Z</time>
      </trkpt>
      <trkpt lat="40.47193667" lon="-3.50605667">
        <ele>606.011</ele>
        <time>2019-07-01T19:25:05.935Z</time>
      </trkpt>
      <trkpt lat="40.471975" lon="-3.50615333">
        <ele>606.011</ele>
        <time>2019-07-01T19:25:06.935Z</time>
      </trkpt>
      <trkpt lat="40.47199333" lon="-3.50620167">
        <ele>606.011</ele>
        <time>2019-07-01T19:25:07.935Z</time>
      </trkpt>
      <trkpt lat="40.47199333" lon="-3.50620167">
        <ele>606.011</ele>
        <time>2019-07-01T19:25:08.935Z</time>
      </trkpt>
      <trkpt lat="40.47203167" lon="-3.506295">
        <ele>606.011</ele>
        <time>2019-07-01T19:25:09.935Z</time>
      </trkpt>
      <trkpt lat="40.47203167" lon="-3.506295">
        <ele>606.011</ele>
        <time>2019-07-01T19:25:10.935Z</time>
      </trkpt>
      <trkpt lat="40.47207167" lon="-3.50639">
        <ele>606.011</ele>
        <time>2019-07-01T19:25:11.935Z</time>
      </trkpt>
      <trkpt lat="40.47209167" lon="-3.50643333">
        <ele>606.011</ele>
        <time>2019-07-01T19:25:12.935Z</time>
      </trkpt>
      <trkpt lat="40.47209167" lon="-3.50643333">
        <ele>606.011</ele>
        <time>2019-07-01T19:25:13.935Z</time>
      </trkpt>
      <trkpt lat="40.47213" lon="-3.50651667">
        <ele>606.011</ele>
        <time>2019-07-01T19:25:14.935Z</time>
      </trkpt>
      <trkpt lat="40.47213" lon="-3.50651667">
        <ele>607.011</ele>
        <time>2019-07-01T19:25:15.935Z</time>
      </trkpt>
      <trkpt lat="40.47217" lon="-3.50660167">
        <ele>607.011</ele>
        <time>2019-07-01T19:25:16.935Z</time>
      </trkpt>
      <trkpt lat="40.47219" lon="-3.50664833">
        <ele>607.011</ele>
        <time>2019-07-01T19:25:17.935Z</time>
      </trkpt>
      <trkpt lat="40.47219" lon="-3.50664833">
        <ele>607.011</ele>
        <time>2019-07-01T19:25:18.935Z</time>
      </trkpt>
      <trkpt lat="40.47222667" lon="-3.506745">
        <ele>607.011</ele>
        <time>2019-07-01T19:25:19.935Z</time>
      </trkpt>
      <trkpt lat="40.47222667" lon="-3.506745">
        <ele>607.011</ele>
        <time>2019-07-01T19:25:20.935Z</time>
      </trkpt>
      <trkpt lat="40.47225833" lon="-3.50683667">
        <ele>607.011</ele>
        <time>2019-07-01T19:25:21.935Z</time>
      </trkpt>
      <trkpt lat="40.47225833" lon="-3.50683667">
        <ele>607.011</ele>
        <time>2019-07-01T19:25:22.935Z</time>
      </trkpt>
      <trkpt lat="40.47229" lon="-3.50692667">
        <ele>607.011</ele>
        <time>2019-07-01T19:25:23.935Z</time>
      </trkpt>
      <trkpt lat="40.472305" lon="-3.50697">
        <ele>607.011</ele>
        <time>2019-07-01T19:25:24.935Z</time>
      </trkpt>
      <trkpt lat="40.472305" lon="-3.50697">
        <ele>608.011</ele>
        <time>2019-07-01T19:25:25.935Z</time>
      </trkpt>
      <trkpt lat="40.47234" lon="-3.50706">
        <ele>608.011</ele>
        <time>2019-07-01T19:25:26.935Z</time>
      </trkpt>
      <trkpt lat="40.47234" lon="-3.50706">
        <ele>608.011</ele>
        <time>2019-07-01T19:25:27.935Z</time>
      </trkpt>
      <trkpt lat="40.47237333" lon="-3.50714">
        <ele>608.011</ele>
        <time>2019-07-01T19:25:28.935Z</time>
      </trkpt>
      <trkpt lat="40.47237333" lon="-3.50714">
        <ele>608.011</ele>
        <time>2019-07-01T19:25:29.935Z</time>
      </trkpt>
      <trkpt lat="40.472405" lon="-3.50722">
        <ele>608.011</ele>
        <time>2019-07-01T19:25:30.935Z</time>
      </trkpt>
      <trkpt lat="40.472405" lon="-3.50722">
        <ele>608.011</ele>
        <time>2019-07-01T19:25:31.935Z</time>
      </trkpt>
      <trkpt lat="40.47243667" lon="-3.50730667">
        <ele>609.011</ele>
        <time>2019-07-01T19:25:32.935Z</time>
      </trkpt>
      <trkpt lat="40.47245167" lon="-3.50734667">
        <ele>609.011</ele>
        <time>2019-07-01T19:25:33.935Z</time>
      </trkpt>
      <trkpt lat="40.47245167" lon="-3.50734667">
        <ele>609.011</ele>
        <time>2019-07-01T19:25:34.935Z</time>
      </trkpt>
      <trkpt lat="40.47249" lon="-3.50743">
        <ele>609.011</ele>
        <time>2019-07-01T19:25:35.935Z</time>
      </trkpt>
      <trkpt lat="40.47251167" lon="-3.50747167">
        <ele>609.011</ele>
        <time>2019-07-01T19:25:36.935Z</time>
      </trkpt>
      <trkpt lat="40.47251167" lon="-3.50747167">
        <ele>609.011</ele>
        <time>2019-07-01T19:25:37.935Z</time>
      </trkpt>
      <trkpt lat="40.47255333" lon="-3.507555">
        <ele>609.011</ele>
        <time>2019-07-01T19:25:38.935Z</time>
      </trkpt>
      <trkpt lat="40.47255333" lon="-3.507555">
        <ele>609.011</ele>
        <time>2019-07-01T19:25:39.935Z</time>
      </trkpt>
      <trkpt lat="40.47259167" lon="-3.50764">
        <ele>609.011</ele>
        <time>2019-07-01T19:25:40.935Z</time>
      </trkpt>
      <trkpt lat="40.47259167" lon="-3.50764">
        <ele>609.011</ele>
        <time>2019-07-01T19:25:41.935Z</time>
      </trkpt>
      <trkpt lat="40.47263" lon="-3.50772333">
        <ele>609.011</ele>
        <time>2019-07-01T19:25:42.935Z</time>
      </trkpt>
      <trkpt lat="40.47263" lon="-3.50772333">
        <ele>609.011</ele>
        <time>2019-07-01T19:25:43.935Z</time>
      </trkpt>
      <trkpt lat="40.47267" lon="-3.50781">
        <ele>609.011</ele>
        <time>2019-07-01T19:25:44.935Z</time>
      </trkpt>
      <trkpt lat="40.47267" lon="-3.50781">
        <ele>609.011</ele>
        <time>2019-07-01T19:25:45.935Z</time>
      </trkpt>
      <trkpt lat="40.47270667" lon="-3.5079">
        <ele>609.011</ele>
        <time>2019-07-01T19:25:46.935Z</time>
      </trkpt>
      <trkpt lat="40.47272667" lon="-3.507945">
        <ele>609.011</ele>
        <time>2019-07-01T19:25:47.935Z</time>
      </trkpt>
      <trkpt lat="40.47272667" lon="-3.507945">
        <ele>609.011</ele>
        <time>2019-07-01T19:25:48.935Z</time>
      </trkpt>
      <trkpt lat="40.47276667" lon="-3.50803833">
        <ele>609.011</ele>
        <time>2019-07-01T19:25:49.935Z</time>
      </trkpt>
      <trkpt lat="40.47276667" lon="-3.50803833">
        <ele>609.011</ele>
        <time>2019-07-01T19:25:50.935Z</time>
      </trkpt>
      <trkpt lat="40.472805" lon="-3.50813167">
        <ele>609.011</ele>
        <time>2019-07-01T19:25:51.935Z</time>
      </trkpt>
      <trkpt lat="40.472805" lon="-3.50813167">
        <ele>609.011</ele>
        <time>2019-07-01T19:25:52.935Z</time>
      </trkpt>
      <trkpt lat="40.47284167" lon="-3.508225">
        <ele>609.011</ele>
        <time>2019-07-01T19:25:53.935Z</time>
      </trkpt>
      <trkpt lat="40.47286167" lon="-3.50827">
        <ele>609.011</ele>
        <time>2019-07-01T19:25:54.935Z</time>
      </trkpt>
      <trkpt lat="40.47286167" lon="-3.50827">
        <ele>609.011</ele>
        <time>2019-07-01T19:25:55.935Z</time>
      </trkpt>
      <trkpt lat="40.4729" lon="-3.50836167">
        <ele>610.011</ele>
        <time>2019-07-01T19:25:56.935Z</time>
      </trkpt>
      <trkpt lat="40.47291833" lon="-3.50840833">
        <ele>610.011</ele>
        <time>2019-07-01T19:25:57.935Z</time>
      </trkpt>
      <trkpt lat="40.47291833" lon="-3.50840833">
        <ele>610.011</ele>
        <time>2019-07-01T19:25:58.935Z</time>
      </trkpt>
      <trkpt lat="40.472955" lon="-3.50849833">
        <ele>610.011</ele>
        <time>2019-07-01T19:25:59.935Z</time>
      </trkpt>
      <trkpt lat="40.472955" lon="-3.50849833">
        <ele>610.011</ele>
        <time>2019-07-01T19:26:00.935Z</time>
      </trkpt>
      <trkpt lat="40.47299333" lon="-3.50859">
        <ele>610.011</ele>
        <time>2019-07-01T19:26:01.935Z</time>
      </trkpt>
      <trkpt lat="40.47299333" lon="-3.50859">
        <ele>610.011</ele>
        <time>2019-07-01T19:26:02.935Z</time>
      </trkpt>
      <trkpt lat="40.47303167" lon="-3.508685">
        <ele>610.011</ele>
        <time>2019-07-01T19:26:03.935Z</time>
      </trkpt>
      <trkpt lat="40.47305" lon="-3.50873">
        <ele>610.011</ele>
        <time>2019-07-01T19:26:04.935Z</time>
      </trkpt>
      <trkpt lat="40.47306833" lon="-3.50877667">
        <ele>610.011</ele>
        <time>2019-07-01T19:26:05.935Z</time>
      </trkpt>
      <trkpt lat="40.47306833" lon="-3.50877667">
        <ele>610.011</ele>
        <time>2019-07-01T19:26:06.935Z</time>
      </trkpt>
      <trkpt lat="40.473105" lon="-3.50887">
        <ele>611.011</ele>
        <time>2019-07-01T19:26:07.935Z</time>
      </trkpt>
      <trkpt lat="40.473105" lon="-3.50887">
        <ele>611.011</ele>
        <time>2019-07-01T19:26:08.935Z</time>
      </trkpt>
      <trkpt lat="40.47314167" lon="-3.50896167">
        <ele>611.011</ele>
        <time>2019-07-01T19:26:09.935Z</time>
      </trkpt>
      <trkpt lat="40.47314167" lon="-3.50896167">
        <ele>611.011</ele>
        <time>2019-07-01T19:26:10.935Z</time>
      </trkpt>
      <trkpt lat="40.47318167" lon="-3.50905167">
        <ele>611.011</ele>
        <time>2019-07-01T19:26:11.935Z</time>
      </trkpt>
      <trkpt lat="40.47318167" lon="-3.50905167">
        <ele>611.011</ele>
        <time>2019-07-01T19:26:12.935Z</time>
      </trkpt>
      <trkpt lat="40.47322" lon="-3.50913833">
        <ele>611.011</ele>
        <time>2019-07-01T19:26:13.935Z</time>
      </trkpt>
      <trkpt lat="40.47323833" lon="-3.509185">
        <ele>611.011</ele>
        <time>2019-07-01T19:26:14.935Z</time>
      </trkpt>
      <trkpt lat="40.47323833" lon="-3.509185">
        <ele>611.011</ele>
        <time>2019-07-01T19:26:15.935Z</time>
      </trkpt>
      <trkpt lat="40.47327667" lon="-3.50927333">
        <ele>611.011</ele>
        <time>2019-07-01T19:26:16.935Z</time>
      </trkpt>
      <trkpt lat="40.47329667" lon="-3.50931833">
        <ele>612.011</ele>
        <time>2019-07-01T19:26:17.935Z</time>
      </trkpt>
      <trkpt lat="40.47331667" lon="-3.509365">
        <ele>612.011</ele>
        <time>2019-07-01T19:26:18.935Z</time>
      </trkpt>
      <trkpt lat="40.47331667" lon="-3.509365">
        <ele>612.011</ele>
        <time>2019-07-01T19:26:19.935Z</time>
      </trkpt>
      <trkpt lat="40.473355" lon="-3.50945833">
        <ele>612.011</ele>
        <time>2019-07-01T19:26:20.935Z</time>
      </trkpt>
      <trkpt lat="40.473355" lon="-3.50945833">
        <ele>612.011</ele>
        <time>2019-07-01T19:26:21.935Z</time>
      </trkpt>
      <trkpt lat="40.47339167" lon="-3.50955333">
        <ele>612.011</ele>
        <time>2019-07-01T19:26:22.935Z</time>
      </trkpt>
      <trkpt lat="40.47339167" lon="-3.50955333">
        <ele>612.011</ele>
        <time>2019-07-01T19:26:23.935Z</time>
      </trkpt>
      <trkpt lat="40.47343167" lon="-3.509645">
        <ele>612.011</ele>
        <time>2019-07-01T19:26:24.935Z</time>
      </trkpt>
      <trkpt lat="40.47343167" lon="-3.509645">
        <ele>613.011</ele>
        <time>2019-07-01T19:26:25.935Z</time>
      </trkpt>
      <trkpt lat="40.47346833" lon="-3.50973833">
        <ele>613.011</ele>
        <time>2019-07-01T19:26:26.935Z</time>
      </trkpt>
      <trkpt lat="40.47346833" lon="-3.50973833">
        <ele>613.011</ele>
        <time>2019-07-01T19:26:27.935Z</time>
      </trkpt>
      <trkpt lat="40.47350667" lon="-3.50983167">
        <ele>613.011</ele>
        <time>2019-07-01T19:26:28.935Z</time>
      </trkpt>
      <trkpt lat="40.47350667" lon="-3.50983167">
        <ele>613.011</ele>
        <time>2019-07-01T19:26:29.935Z</time>
      </trkpt>
      <trkpt lat="40.473545" lon="-3.50992667">
        <ele>613.011</ele>
        <time>2019-07-01T19:26:30.935Z</time>
      </trkpt>
      <trkpt lat="40.473545" lon="-3.50992667">
        <ele>613.011</ele>
        <time>2019-07-01T19:26:31.935Z</time>
      </trkpt>
      <trkpt lat="40.47358167" lon="-3.51002167">
        <ele>613.011</ele>
        <time>2019-07-01T19:26:32.935Z</time>
      </trkpt>
      <trkpt lat="40.47360333" lon="-3.51006833">
        <ele>613.011</ele>
        <time>2019-07-01T19:26:33.935Z</time>
      </trkpt>
      <trkpt lat="40.47360333" lon="-3.51006833">
        <ele>613.011</ele>
        <time>2019-07-01T19:26:34.935Z</time>
      </trkpt>
      <trkpt lat="40.47364167" lon="-3.51016167">
        <ele>613.011</ele>
        <time>2019-07-01T19:26:35.935Z</time>
      </trkpt>
      <trkpt lat="40.47366167" lon="-3.51021167">
        <ele>613.011</ele>
        <time>2019-07-01T19:26:36.935Z</time>
      </trkpt>
      <trkpt lat="40.47366167" lon="-3.51021167">
        <ele>613.011</ele>
        <time>2019-07-01T19:26:37.935Z</time>
      </trkpt>
      <trkpt lat="40.4737" lon="-3.51030667">
        <ele>613.011</ele>
        <time>2019-07-01T19:26:38.935Z</time>
      </trkpt>
      <trkpt lat="40.47372" lon="-3.51035167">
        <ele>613.011</ele>
        <time>2019-07-01T19:26:39.935Z</time>
      </trkpt>
      <trkpt lat="40.47372" lon="-3.51035167">
        <ele>613.011</ele>
        <time>2019-07-01T19:26:40.935Z</time>
      </trkpt>
      <trkpt lat="40.47375667" lon="-3.51044667">
        <ele>614.011</ele>
        <time>2019-07-01T19:26:41.935Z</time>
      </trkpt>
      <trkpt lat="40.473775" lon="-3.51049333">
        <ele>614.011</ele>
        <time>2019-07-01T19:26:42.935Z</time>
      </trkpt>
      <trkpt lat="40.473775" lon="-3.51049333">
        <ele>614.011</ele>
        <time>2019-07-01T19:26:43.935Z</time>
      </trkpt>
      <trkpt lat="40.47381167" lon="-3.51058167">
        <ele>614.011</ele>
        <time>2019-07-01T19:26:44.935Z</time>
      </trkpt>
      <trkpt lat="40.47381167" lon="-3.51058167">
        <ele>614.011</ele>
        <time>2019-07-01T19:26:45.935Z</time>
      </trkpt>
      <trkpt lat="40.47385" lon="-3.51067333">
        <ele>614.011</ele>
        <time>2019-07-01T19:26:46.935Z</time>
      </trkpt>
      <trkpt lat="40.47385" lon="-3.51067333">
        <ele>614.011</ele>
        <time>2019-07-01T19:26:47.935Z</time>
      </trkpt>
      <trkpt lat="40.47389" lon="-3.51076667">
        <ele>614.011</ele>
        <time>2019-07-01T19:26:48.935Z</time>
      </trkpt>
      <trkpt lat="40.47389" lon="-3.51076667">
        <ele>615.011</ele>
        <time>2019-07-01T19:26:49.935Z</time>
      </trkpt>
      <trkpt lat="40.473925" lon="-3.51085667">
        <ele>615.011</ele>
        <time>2019-07-01T19:26:50.935Z</time>
      </trkpt>
      <trkpt lat="40.473925" lon="-3.51085667">
        <ele>615.011</ele>
        <time>2019-07-01T19:26:51.935Z</time>
      </trkpt>
      <trkpt lat="40.473975" lon="-3.51094">
        <ele>615.011</ele>
        <time>2019-07-01T19:26:52.935Z</time>
      </trkpt>
      <trkpt lat="40.473975" lon="-3.51094">
        <ele>615.011</ele>
        <time>2019-07-01T19:26:53.935Z</time>
      </trkpt>
      <trkpt lat="40.474045" lon="-3.51097833">
        <ele>615.011</ele>
        <time>2019-07-01T19:26:54.935Z</time>
      </trkpt>
      <trkpt lat="40.474045" lon="-3.51097833">
        <ele>615.011</ele>
        <time>2019-07-01T19:26:55.935Z</time>
      </trkpt>
      <trkpt lat="40.47411333" lon="-3.51096">
        <ele>615.011</ele>
        <time>2019-07-01T19:26:56.935Z</time>
      </trkpt>
      <trkpt lat="40.47414333" lon="-3.51094167">
        <ele>615.011</ele>
        <time>2019-07-01T19:26:57.935Z</time>
      </trkpt>
      <trkpt lat="40.47414333" lon="-3.51094167">
        <ele>615.011</ele>
        <time>2019-07-01T19:26:58.935Z</time>
      </trkpt>
      <trkpt lat="40.474195" lon="-3.510905">
        <ele>616.011</ele>
        <time>2019-07-01T19:26:59.935Z</time>
      </trkpt>
      <trkpt lat="40.47422167" lon="-3.510885">
        <ele>616.011</ele>
        <time>2019-07-01T19:27:00.935Z</time>
      </trkpt>
      <trkpt lat="40.47422167" lon="-3.510885">
        <ele>616.011</ele>
        <time>2019-07-01T19:27:01.935Z</time>
      </trkpt>
      <trkpt lat="40.47428333" lon="-3.510855">
        <ele>616.011</ele>
        <time>2019-07-01T19:27:02.935Z</time>
      </trkpt>
      <trkpt lat="40.47428333" lon="-3.510855">
        <ele>616.011</ele>
        <time>2019-07-01T19:27:03.935Z</time>
      </trkpt>
      <trkpt lat="40.474345" lon="-3.51083667">
        <ele>616.011</ele>
        <time>2019-07-01T19:27:04.935Z</time>
      </trkpt>
      <trkpt lat="40.474345" lon="-3.51083667">
        <ele>617.011</ele>
        <time>2019-07-01T19:27:05.935Z</time>
      </trkpt>
      <trkpt lat="40.47440167" lon="-3.51082167">
        <ele>617.011</ele>
        <time>2019-07-01T19:27:06.935Z</time>
      </trkpt>
      <trkpt lat="40.47442667" lon="-3.51081333">
        <ele>617.011</ele>
        <time>2019-07-01T19:27:07.935Z</time>
      </trkpt>
      <trkpt lat="40.47442667" lon="-3.51081333">
        <ele>617.011</ele>
        <time>2019-07-01T19:27:08.935Z</time>
      </trkpt>
      <trkpt lat="40.47448167" lon="-3.51079333">
        <ele>618.011</ele>
        <time>2019-07-01T19:27:09.935Z</time>
      </trkpt>
      <trkpt lat="40.47448167" lon="-3.51079333">
        <ele>618.011</ele>
        <time>2019-07-01T19:27:10.935Z</time>
      </trkpt>
      <trkpt lat="40.47454333" lon="-3.51077833">
        <ele>618.011</ele>
        <time>2019-07-01T19:27:11.935Z</time>
      </trkpt>
      <trkpt lat="40.47457667" lon="-3.51077667">
        <ele>618.011</ele>
        <time>2019-07-01T19:27:12.935Z</time>
      </trkpt>
      <trkpt lat="40.47457667" lon="-3.51077667">
        <ele>618.011</ele>
        <time>2019-07-01T19:27:13.935Z</time>
      </trkpt>
      <trkpt lat="40.47463333" lon="-3.51077833">
        <ele>618.011</ele>
        <time>2019-07-01T19:27:14.935Z</time>
      </trkpt>
      <trkpt lat="40.47466167" lon="-3.51077667">
        <ele>619.011</ele>
        <time>2019-07-01T19:27:15.935Z</time>
      </trkpt>
      <trkpt lat="40.47466167" lon="-3.51077667">
        <ele>619.011</ele>
        <time>2019-07-01T19:27:16.935Z</time>
      </trkpt>
      <trkpt lat="40.47472167" lon="-3.510775">
        <ele>619.011</ele>
        <time>2019-07-01T19:27:17.935Z</time>
      </trkpt>
      <trkpt lat="40.474755" lon="-3.51078">
        <ele>619.011</ele>
        <time>2019-07-01T19:27:18.935Z</time>
      </trkpt>
      <trkpt lat="40.474755" lon="-3.51078">
        <ele>619.011</ele>
        <time>2019-07-01T19:27:19.935Z</time>
      </trkpt>
      <trkpt lat="40.47481667" lon="-3.51079833">
        <ele>619.011</ele>
        <time>2019-07-01T19:27:20.935Z</time>
      </trkpt>
      <trkpt lat="40.474845" lon="-3.51081">
        <ele>620.011</ele>
        <time>2019-07-01T19:27:21.935Z</time>
      </trkpt>
      <trkpt lat="40.47487167" lon="-3.51082333">
        <ele>620.011</ele>
        <time>2019-07-01T19:27:22.935Z</time>
      </trkpt>
      <trkpt lat="40.47487167" lon="-3.51082333">
        <ele>620.011</ele>
        <time>2019-07-01T19:27:23.935Z</time>
      </trkpt>
      <trkpt lat="40.47493333" lon="-3.51084333">
        <ele>620.011</ele>
        <time>2019-07-01T19:27:24.935Z</time>
      </trkpt>
      <trkpt lat="40.47493333" lon="-3.51084333">
        <ele>620.011</ele>
        <time>2019-07-01T19:27:25.935Z</time>
      </trkpt>
      <trkpt lat="40.475" lon="-3.510865">
        <ele>620.011</ele>
        <time>2019-07-01T19:27:26.935Z</time>
      </trkpt>
      <trkpt lat="40.475" lon="-3.510865">
        <ele>620.011</ele>
        <time>2019-07-01T19:27:27.935Z</time>
      </trkpt>
      <trkpt lat="40.47506333" lon="-3.51088833">
        <ele>620.011</ele>
        <time>2019-07-01T19:27:28.935Z</time>
      </trkpt>
      <trkpt lat="40.47506333" lon="-3.51088833">
        <ele>620.011</ele>
        <time>2019-07-01T19:27:29.935Z</time>
      </trkpt>
      <trkpt lat="40.475115" lon="-3.51092333">
        <ele>620.011</ele>
        <time>2019-07-01T19:27:30.935Z</time>
      </trkpt>
      <trkpt lat="40.475115" lon="-3.51092333">
        <ele>620.011</ele>
        <time>2019-07-01T19:27:31.935Z</time>
      </trkpt>
      <trkpt lat="40.47517" lon="-3.51097167">
        <ele>620.011</ele>
        <time>2019-07-01T19:27:32.935Z</time>
      </trkpt>
      <trkpt lat="40.4752" lon="-3.51099333">
        <ele>620.011</ele>
        <time>2019-07-01T19:27:33.935Z</time>
      </trkpt>
      <trkpt lat="40.4752" lon="-3.51099333">
        <ele>621.011</ele>
        <time>2019-07-01T19:27:34.935Z</time>
      </trkpt>
      <trkpt lat="40.475255" lon="-3.51104167">
        <ele>621.011</ele>
        <time>2019-07-01T19:27:35.935Z</time>
      </trkpt>
      <trkpt lat="40.475285" lon="-3.51106667">
        <ele>621.011</ele>
        <time>2019-07-01T19:27:36.935Z</time>
      </trkpt>
      <trkpt lat="40.475285" lon="-3.51106667">
        <ele>621.011</ele>
        <time>2019-07-01T19:27:37.935Z</time>
      </trkpt>
      <trkpt lat="40.475345" lon="-3.51111667">
        <ele>621.011</ele>
        <time>2019-07-01T19:27:38.935Z</time>
      </trkpt>
      <trkpt lat="40.475345" lon="-3.51111667">
        <ele>621.011</ele>
        <time>2019-07-01T19:27:39.935Z</time>
      </trkpt>
      <trkpt lat="40.475405" lon="-3.51116667">
        <ele>621.011</ele>
        <time>2019-07-01T19:27:40.935Z</time>
      </trkpt>
      <trkpt lat="40.475405" lon="-3.51116667">
        <ele>621.011</ele>
        <time>2019-07-01T19:27:41.935Z</time>
      </trkpt>
      <trkpt lat="40.47546333" lon="-3.51121333">
        <ele>621.011</ele>
        <time>2019-07-01T19:27:42.935Z</time>
      </trkpt>
      <trkpt lat="40.47546333" lon="-3.51121333">
        <ele>621.011</ele>
        <time>2019-07-01T19:27:43.935Z</time>
      </trkpt>
      <trkpt lat="40.475525" lon="-3.51126333">
        <ele>621.011</ele>
        <time>2019-07-01T19:27:44.935Z</time>
      </trkpt>
      <trkpt lat="40.475525" lon="-3.51126333">
        <ele>621.011</ele>
        <time>2019-07-01T19:27:45.935Z</time>
      </trkpt>
      <trkpt lat="40.47558167" lon="-3.51131667">
        <ele>621.011</ele>
        <time>2019-07-01T19:27:46.935Z</time>
      </trkpt>
      <trkpt lat="40.47561" lon="-3.511345">
        <ele>621.011</ele>
        <time>2019-07-01T19:27:47.935Z</time>
      </trkpt>
      <trkpt lat="40.47564167" lon="-3.51137">
        <ele>621.011</ele>
        <time>2019-07-01T19:27:48.935Z</time>
      </trkpt>
      <trkpt lat="40.47564167" lon="-3.51137">
        <ele>621.011</ele>
        <time>2019-07-01T19:27:49.935Z</time>
      </trkpt>
      <trkpt lat="40.47570167" lon="-3.51141">
        <ele>621.011</ele>
        <time>2019-07-01T19:27:50.935Z</time>
      </trkpt>
      <trkpt lat="40.47573333" lon="-3.51142667">
        <ele>621.011</ele>
        <time>2019-07-01T19:27:51.935Z</time>
      </trkpt>
      <trkpt lat="40.47573333" lon="-3.51142667">
        <ele>621.011</ele>
        <time>2019-07-01T19:27:52.935Z</time>
      </trkpt>
      <trkpt lat="40.475795" lon="-3.51145167">
        <ele>621.011</ele>
        <time>2019-07-01T19:27:53.935Z</time>
      </trkpt>
      <trkpt lat="40.475825" lon="-3.51146333">
        <ele>622.011</ele>
        <time>2019-07-01T19:27:54.935Z</time>
      </trkpt>
      <trkpt lat="40.475825" lon="-3.51146333">
        <ele>622.011</ele>
        <time>2019-07-01T19:27:55.935Z</time>
      </trkpt>
      <trkpt lat="40.475885" lon="-3.51148667">
        <ele>622.011</ele>
        <time>2019-07-01T19:27:56.935Z</time>
      </trkpt>
      <trkpt lat="40.47591333" lon="-3.511495">
        <ele>622.011</ele>
        <time>2019-07-01T19:27:57.935Z</time>
      </trkpt>
      <trkpt lat="40.47591333" lon="-3.511495">
        <ele>622.011</ele>
        <time>2019-07-01T19:27:58.935Z</time>
      </trkpt>
      <trkpt lat="40.47597167" lon="-3.51150667">
        <ele>622.011</ele>
        <time>2019-07-01T19:27:59.935Z</time>
      </trkpt>
      <trkpt lat="40.47600167" lon="-3.51150833">
        <ele>623.011</ele>
        <time>2019-07-01T19:28:00.935Z</time>
      </trkpt>
      <trkpt lat="40.47600167" lon="-3.51150833">
        <ele>623.011</ele>
        <time>2019-07-01T19:28:01.935Z</time>
      </trkpt>
      <trkpt lat="40.476055" lon="-3.51151333">
        <ele>623.011</ele>
        <time>2019-07-01T19:28:02.935Z</time>
      </trkpt>
      <trkpt lat="40.476085" lon="-3.51151333">
        <ele>623.011</ele>
        <time>2019-07-01T19:28:03.935Z</time>
      </trkpt>
      <trkpt lat="40.476085" lon="-3.51151333">
        <ele>624.011</ele>
        <time>2019-07-01T19:28:04.935Z</time>
      </trkpt>
      <trkpt lat="40.476145" lon="-3.51150833">
        <ele>624.011</ele>
        <time>2019-07-01T19:28:05.935Z</time>
      </trkpt>
      <trkpt lat="40.476145" lon="-3.51150833">
        <ele>624.011</ele>
        <time>2019-07-01T19:28:06.935Z</time>
      </trkpt>
      <trkpt lat="40.4762" lon="-3.51149167">
        <ele>624.011</ele>
        <time>2019-07-01T19:28:07.935Z</time>
      </trkpt>
      <trkpt lat="40.4762" lon="-3.51149167">
        <ele>625.011</ele>
        <time>2019-07-01T19:28:08.935Z</time>
      </trkpt>
      <trkpt lat="40.47625333" lon="-3.511475">
        <ele>625.011</ele>
        <time>2019-07-01T19:28:09.935Z</time>
      </trkpt>
      <trkpt lat="40.47625333" lon="-3.511475">
        <ele>625.011</ele>
        <time>2019-07-01T19:28:10.935Z</time>
      </trkpt>
      <trkpt lat="40.47630667" lon="-3.51145667">
        <ele>625.011</ele>
        <time>2019-07-01T19:28:11.935Z</time>
      </trkpt>
      <trkpt lat="40.476335" lon="-3.511445">
        <ele>625.011</ele>
        <time>2019-07-01T19:28:12.935Z</time>
      </trkpt>
      <trkpt lat="40.476335" lon="-3.511445">
        <ele>625.011</ele>
        <time>2019-07-01T19:28:13.935Z</time>
      </trkpt>
      <trkpt lat="40.47638667" lon="-3.51141667">
        <ele>625.011</ele>
        <time>2019-07-01T19:28:14.935Z</time>
      </trkpt>
      <trkpt lat="40.47641167" lon="-3.5114">
        <ele>625.011</ele>
        <time>2019-07-01T19:28:15.935Z</time>
      </trkpt>
      <trkpt lat="40.47641167" lon="-3.5114">
        <ele>626.011</ele>
        <time>2019-07-01T19:28:16.935Z</time>
      </trkpt>
      <trkpt lat="40.476465" lon="-3.51136">
        <ele>626.011</ele>
        <time>2019-07-01T19:28:17.935Z</time>
      </trkpt>
      <trkpt lat="40.47648667" lon="-3.51133833">
        <ele>626.011</ele>
        <time>2019-07-01T19:28:18.935Z</time>
      </trkpt>
      <trkpt lat="40.47648667" lon="-3.51133833">
        <ele>626.011</ele>
        <time>2019-07-01T19:28:19.935Z</time>
      </trkpt>
      <trkpt lat="40.47653167" lon="-3.51128833">
        <ele>627.011</ele>
        <time>2019-07-01T19:28:20.935Z</time>
      </trkpt>
      <trkpt lat="40.47655833" lon="-3.51126667">
        <ele>627.011</ele>
        <time>2019-07-01T19:28:21.935Z</time>
      </trkpt>
      <trkpt lat="40.47655833" lon="-3.51126667">
        <ele>627.011</ele>
        <time>2019-07-01T19:28:22.935Z</time>
      </trkpt>
      <trkpt lat="40.47661" lon="-3.51122167">
        <ele>627.011</ele>
        <time>2019-07-01T19:28:23.935Z</time>
      </trkpt>
      <trkpt lat="40.47661" lon="-3.51122167">
        <ele>627.011</ele>
        <time>2019-07-01T19:28:24.935Z</time>
      </trkpt>
      <trkpt lat="40.47666" lon="-3.51117833">
        <ele>627.011</ele>
        <time>2019-07-01T19:28:25.935Z</time>
      </trkpt>
      <trkpt lat="40.47666" lon="-3.51117833">
        <ele>627.011</ele>
        <time>2019-07-01T19:28:26.935Z</time>
      </trkpt>
      <trkpt lat="40.47671" lon="-3.51113333">
        <ele>627.011</ele>
        <time>2019-07-01T19:28:27.935Z</time>
      </trkpt>
      <trkpt lat="40.47671" lon="-3.51113333">
        <ele>627.011</ele>
        <time>2019-07-01T19:28:28.935Z</time>
      </trkpt>
      <trkpt lat="40.476765" lon="-3.511095">
        <ele>627.011</ele>
        <time>2019-07-01T19:28:29.935Z</time>
      </trkpt>
      <trkpt lat="40.47679" lon="-3.51107667">
        <ele>627.011</ele>
        <time>2019-07-01T19:28:30.935Z</time>
      </trkpt>
      <trkpt lat="40.47679" lon="-3.51107667">
        <ele>628.011</ele>
        <time>2019-07-01T19:28:31.935Z</time>
      </trkpt>
      <trkpt lat="40.47685" lon="-3.51102833">
        <ele>628.011</ele>
        <time>2019-07-01T19:28:32.935Z</time>
      </trkpt>
      <trkpt lat="40.47685" lon="-3.51102833">
        <ele>628.011</ele>
        <time>2019-07-01T19:28:33.935Z</time>
      </trkpt>
      <trkpt lat="40.47690667" lon="-3.51098833">
        <ele>628.011</ele>
        <time>2019-07-01T19:28:34.935Z</time>
      </trkpt>
      <trkpt lat="40.47690667" lon="-3.51098833">
        <ele>629.011</ele>
        <time>2019-07-01T19:28:35.935Z</time>
      </trkpt>
      <trkpt lat="40.47696" lon="-3.51094667">
        <ele>629.011</ele>
        <time>2019-07-01T19:28:36.935Z</time>
      </trkpt>
      <trkpt lat="40.47698667" lon="-3.51092333">
        <ele>629.011</ele>
        <time>2019-07-01T19:28:37.935Z</time>
      </trkpt>
      <trkpt lat="40.47698667" lon="-3.51092333">
        <ele>629.011</ele>
        <time>2019-07-01T19:28:38.935Z</time>
      </trkpt>
      <trkpt lat="40.47703333" lon="-3.51088">
        <ele>629.011</ele>
        <time>2019-07-01T19:28:39.935Z</time>
      </trkpt>
      <trkpt lat="40.47703333" lon="-3.51088">
        <ele>629.011</ele>
        <time>2019-07-01T19:28:40.935Z</time>
      </trkpt>
      <trkpt lat="40.47708333" lon="-3.51083667">
        <ele>630.011</ele>
        <time>2019-07-01T19:28:41.935Z</time>
      </trkpt>
      <trkpt lat="40.47710833" lon="-3.51081333">
        <ele>630.011</ele>
        <time>2019-07-01T19:28:42.935Z</time>
      </trkpt>
      <trkpt lat="40.47710833" lon="-3.51081333">
        <ele>630.011</ele>
        <time>2019-07-01T19:28:43.935Z</time>
      </trkpt>
      <trkpt lat="40.47716" lon="-3.51076667">
        <ele>630.011</ele>
        <time>2019-07-01T19:28:44.935Z</time>
      </trkpt>
      <trkpt lat="40.47716" lon="-3.51076667">
        <ele>630.011</ele>
        <time>2019-07-01T19:28:45.935Z</time>
      </trkpt>
      <trkpt lat="40.477205" lon="-3.51072333">
        <ele>631.011</ele>
        <time>2019-07-01T19:28:46.935Z</time>
      </trkpt>
      <trkpt lat="40.47722833" lon="-3.5107">
        <ele>631.011</ele>
        <time>2019-07-01T19:28:47.935Z</time>
      </trkpt>
      <trkpt lat="40.47725333" lon="-3.51068167">
        <ele>631.011</ele>
        <time>2019-07-01T19:28:48.935Z</time>
      </trkpt>
      <trkpt lat="40.47725333" lon="-3.51068167">
        <ele>631.011</ele>
        <time>2019-07-01T19:28:49.935Z</time>
      </trkpt>
      <trkpt lat="40.47730167" lon="-3.51064667">
        <ele>632.011</ele>
        <time>2019-07-01T19:28:50.935Z</time>
      </trkpt>
      <trkpt lat="40.477325" lon="-3.51063">
        <ele>632.011</ele>
        <time>2019-07-01T19:28:51.935Z</time>
      </trkpt>
      <trkpt lat="40.477325" lon="-3.51063">
        <ele>632.011</ele>
        <time>2019-07-01T19:28:52.935Z</time>
      </trkpt>
      <trkpt lat="40.47737333" lon="-3.51059833">
        <ele>632.011</ele>
        <time>2019-07-01T19:28:53.935Z</time>
      </trkpt>
      <trkpt lat="40.4774" lon="-3.510585">
        <ele>633.011</ele>
        <time>2019-07-01T19:28:54.935Z</time>
      </trkpt>
      <trkpt lat="40.4774" lon="-3.510585">
        <ele>633.011</ele>
        <time>2019-07-01T19:28:55.935Z</time>
      </trkpt>
      <trkpt lat="40.47745" lon="-3.51056167">
        <ele>633.011</ele>
        <time>2019-07-01T19:28:56.935Z</time>
      </trkpt>
      <trkpt lat="40.47747667" lon="-3.51055167">
        <ele>633.011</ele>
        <time>2019-07-01T19:28:57.935Z</time>
      </trkpt>
      <trkpt lat="40.47747667" lon="-3.51055167">
        <ele>633.011</ele>
        <time>2019-07-01T19:28:58.935Z</time>
      </trkpt>
      <trkpt lat="40.47752833" lon="-3.51052167">
        <ele>633.011</ele>
        <time>2019-07-01T19:28:59.935Z</time>
      </trkpt>
      <trkpt lat="40.47755333" lon="-3.51051167">
        <ele>634.011</ele>
        <time>2019-07-01T19:29:00.935Z</time>
      </trkpt>
      <trkpt lat="40.47755333" lon="-3.51051167">
        <ele>634.011</ele>
        <time>2019-07-01T19:29:01.935Z</time>
      </trkpt>
      <trkpt lat="40.47760667" lon="-3.510505">
        <ele>634.011</ele>
        <time>2019-07-01T19:29:02.935Z</time>
      </trkpt>
      <trkpt lat="40.47760667" lon="-3.510505">
        <ele>634.011</ele>
        <time>2019-07-01T19:29:03.935Z</time>
      </trkpt>
      <trkpt lat="40.47765833" lon="-3.510495">
        <ele>634.011</ele>
        <time>2019-07-01T19:29:04.935Z</time>
      </trkpt>
      <trkpt lat="40.47765833" lon="-3.510495">
        <ele>634.011</ele>
        <time>2019-07-01T19:29:05.935Z</time>
      </trkpt>
      <trkpt lat="40.47770667" lon="-3.51049167">
        <ele>635.011</ele>
        <time>2019-07-01T19:29:06.935Z</time>
      </trkpt>
      <trkpt lat="40.47770667" lon="-3.51049167">
        <ele>635.011</ele>
        <time>2019-07-01T19:29:07.935Z</time>
      </trkpt>
      <trkpt lat="40.47775667" lon="-3.51049">
        <ele>635.011</ele>
        <time>2019-07-01T19:29:08.935Z</time>
      </trkpt>
      <trkpt lat="40.47775667" lon="-3.51049">
        <ele>635.011</ele>
        <time>2019-07-01T19:29:09.935Z</time>
      </trkpt>
      <trkpt lat="40.477805" lon="-3.51048">
        <ele>636.011</ele>
        <time>2019-07-01T19:29:10.935Z</time>
      </trkpt>
      <trkpt lat="40.477805" lon="-3.51048">
        <ele>636.011</ele>
        <time>2019-07-01T19:29:11.935Z</time>
      </trkpt>
      <trkpt lat="40.477855" lon="-3.51048167">
        <ele>636.011</ele>
        <time>2019-07-01T19:29:12.935Z</time>
      </trkpt>
      <trkpt lat="40.477855" lon="-3.51048167">
        <ele>636.011</ele>
        <time>2019-07-01T19:29:13.935Z</time>
      </trkpt>
      <trkpt lat="40.477905" lon="-3.51049333">
        <ele>637.011</ele>
        <time>2019-07-01T19:29:14.935Z</time>
      </trkpt>
      <trkpt lat="40.477905" lon="-3.51049333">
        <ele>637.011</ele>
        <time>2019-07-01T19:29:15.935Z</time>
      </trkpt>
      <trkpt lat="40.47795333" lon="-3.51051">
        <ele>637.011</ele>
        <time>2019-07-01T19:29:16.935Z</time>
      </trkpt>
      <trkpt lat="40.47795333" lon="-3.51051">
        <ele>637.011</ele>
        <time>2019-07-01T19:29:17.935Z</time>
      </trkpt>
      <trkpt lat="40.47800167" lon="-3.510525">
        <ele>637.011</ele>
        <time>2019-07-01T19:29:18.935Z</time>
      </trkpt>
      <trkpt lat="40.47800167" lon="-3.510525">
        <ele>637.011</ele>
        <time>2019-07-01T19:29:19.935Z</time>
      </trkpt>
      <trkpt lat="40.47805167" lon="-3.51054167">
        <ele>638.011</ele>
        <time>2019-07-01T19:29:20.935Z</time>
      </trkpt>
      <trkpt lat="40.47805167" lon="-3.51054167">
        <ele>638.011</ele>
        <time>2019-07-01T19:29:21.935Z</time>
      </trkpt>
      <trkpt lat="40.4781" lon="-3.51056167">
        <ele>638.011</ele>
        <time>2019-07-01T19:29:22.935Z</time>
      </trkpt>
      <trkpt lat="40.4781" lon="-3.51056167">
        <ele>638.011</ele>
        <time>2019-07-01T19:29:23.935Z</time>
      </trkpt>
      <trkpt lat="40.47814833" lon="-3.51058833">
        <ele>639.011</ele>
        <time>2019-07-01T19:29:24.935Z</time>
      </trkpt>
      <trkpt lat="40.47814833" lon="-3.51058833">
        <ele>639.011</ele>
        <time>2019-07-01T19:29:25.935Z</time>
      </trkpt>
      <trkpt lat="40.47819167" lon="-3.51062333">
        <ele>639.011</ele>
        <time>2019-07-01T19:29:26.935Z</time>
      </trkpt>
      <trkpt lat="40.47819167" lon="-3.51062333">
        <ele>639.011</ele>
        <time>2019-07-01T19:29:27.935Z</time>
      </trkpt>
      <trkpt lat="40.47823167" lon="-3.51066167">
        <ele>640.011</ele>
        <time>2019-07-01T19:29:28.935Z</time>
      </trkpt>
      <trkpt lat="40.47823167" lon="-3.51066167">
        <ele>640.011</ele>
        <time>2019-07-01T19:29:29.935Z</time>
      </trkpt>
      <trkpt lat="40.47827167" lon="-3.510695">
        <ele>640.011</ele>
        <time>2019-07-01T19:29:30.935Z</time>
      </trkpt>
      <trkpt lat="40.47827167" lon="-3.510695">
        <ele>640.011</ele>
        <time>2019-07-01T19:29:31.935Z</time>
      </trkpt>
      <trkpt lat="40.478315" lon="-3.51073833">
        <ele>640.011</ele>
        <time>2019-07-01T19:29:32.935Z</time>
      </trkpt>
      <trkpt lat="40.478315" lon="-3.51073833">
        <ele>640.011</ele>
        <time>2019-07-01T19:29:33.935Z</time>
      </trkpt>
      <trkpt lat="40.478355" lon="-3.51078">
        <ele>641.011</ele>
        <time>2019-07-01T19:29:34.935Z</time>
      </trkpt>
      <trkpt lat="40.478375" lon="-3.51080333">
        <ele>641.011</ele>
        <time>2019-07-01T19:29:35.935Z</time>
      </trkpt>
      <trkpt lat="40.478395" lon="-3.51082833">
        <ele>641.011</ele>
        <time>2019-07-01T19:29:36.935Z</time>
      </trkpt>
      <trkpt lat="40.478395" lon="-3.51082833">
        <ele>641.011</ele>
        <time>2019-07-01T19:29:37.935Z</time>
      </trkpt>
      <trkpt lat="40.47842667" lon="-3.51087667">
        <ele>641.011</ele>
        <time>2019-07-01T19:29:38.935Z</time>
      </trkpt>
      <trkpt lat="40.47842667" lon="-3.51087667">
        <ele>641.011</ele>
        <time>2019-07-01T19:29:39.935Z</time>
      </trkpt>
      <trkpt lat="40.47845833" lon="-3.510925">
        <ele>642.011</ele>
        <time>2019-07-01T19:29:40.935Z</time>
      </trkpt>
      <trkpt lat="40.47845833" lon="-3.510925">
        <ele>642.011</ele>
        <time>2019-07-01T19:29:41.935Z</time>
      </trkpt>
      <trkpt lat="40.47848667" lon="-3.51098">
        <ele>642.011</ele>
        <time>2019-07-01T19:29:42.935Z</time>
      </trkpt>
      <trkpt lat="40.47848667" lon="-3.51098">
        <ele>642.011</ele>
        <time>2019-07-01T19:29:43.935Z</time>
      </trkpt>
      <trkpt lat="40.47850667" lon="-3.511035">
        <ele>643.011</ele>
        <time>2019-07-01T19:29:44.935Z</time>
      </trkpt>
      <trkpt lat="40.47850667" lon="-3.511035">
        <ele>643.011</ele>
        <time>2019-07-01T19:29:45.935Z</time>
      </trkpt>
      <trkpt lat="40.47852667" lon="-3.51109333">
        <ele>643.011</ele>
        <time>2019-07-01T19:29:46.935Z</time>
      </trkpt>
      <trkpt lat="40.47852667" lon="-3.51109333">
        <ele>643.011</ele>
        <time>2019-07-01T19:29:47.935Z</time>
      </trkpt>
      <trkpt lat="40.47855" lon="-3.51115333">
        <ele>643.011</ele>
        <time>2019-07-01T19:29:48.935Z</time>
      </trkpt>
      <trkpt lat="40.47855" lon="-3.51115333">
        <ele>643.011</ele>
        <time>2019-07-01T19:29:49.935Z</time>
      </trkpt>
      <trkpt lat="40.478565" lon="-3.51121167">
        <ele>644.011</ele>
        <time>2019-07-01T19:29:50.935Z</time>
      </trkpt>
      <trkpt lat="40.478565" lon="-3.51121167">
        <ele>644.011</ele>
        <time>2019-07-01T19:29:51.935Z</time>
      </trkpt>
      <trkpt lat="40.47857833" lon="-3.51127167">
        <ele>644.011</ele>
        <time>2019-07-01T19:29:52.935Z</time>
      </trkpt>
      <trkpt lat="40.47857833" lon="-3.51127167">
        <ele>644.011</ele>
        <time>2019-07-01T19:29:53.935Z</time>
      </trkpt>
      <trkpt lat="40.47858667" lon="-3.51133333">
        <ele>645.011</ele>
        <time>2019-07-01T19:29:54.935Z</time>
      </trkpt>
      <trkpt lat="40.47858667" lon="-3.51133333">
        <ele>645.011</ele>
        <time>2019-07-01T19:29:55.935Z</time>
      </trkpt>
      <trkpt lat="40.47859667" lon="-3.51139167">
        <ele>645.011</ele>
        <time>2019-07-01T19:29:56.935Z</time>
      </trkpt>
      <trkpt lat="40.47860167" lon="-3.511425">
        <ele>645.011</ele>
        <time>2019-07-01T19:29:57.935Z</time>
      </trkpt>
      <trkpt lat="40.47860167" lon="-3.511425">
        <ele>646.011</ele>
        <time>2019-07-01T19:29:58.935Z</time>
      </trkpt>
      <trkpt lat="40.47861" lon="-3.51149">
        <ele>646.011</ele>
        <time>2019-07-01T19:29:59.935Z</time>
      </trkpt>
      <trkpt lat="40.47861167" lon="-3.51152333">
        <ele>646.011</ele>
        <time>2019-07-01T19:30:00.935Z</time>
      </trkpt>
      <trkpt lat="40.47861167" lon="-3.51152333">
        <ele>646.011</ele>
        <time>2019-07-01T19:30:01.935Z</time>
      </trkpt>
      <trkpt lat="40.478615" lon="-3.51159">
        <ele>646.011</ele>
        <time>2019-07-01T19:30:02.935Z</time>
      </trkpt>
      <trkpt lat="40.47861667" lon="-3.51162667">
        <ele>646.011</ele>
        <time>2019-07-01T19:30:03.935Z</time>
      </trkpt>
      <trkpt lat="40.47861667" lon="-3.51162667">
        <ele>646.011</ele>
        <time>2019-07-01T19:30:04.935Z</time>
      </trkpt>
      <trkpt lat="40.47861667" lon="-3.51169833">
        <ele>646.011</ele>
        <time>2019-07-01T19:30:05.935Z</time>
      </trkpt>
      <trkpt lat="40.47861667" lon="-3.51169833">
        <ele>647.011</ele>
        <time>2019-07-01T19:30:06.935Z</time>
      </trkpt>
      <trkpt lat="40.47861667" lon="-3.51177">
        <ele>647.011</ele>
        <time>2019-07-01T19:30:07.935Z</time>
      </trkpt>
      <trkpt lat="40.47861333" lon="-3.511805">
        <ele>647.011</ele>
        <time>2019-07-01T19:30:08.935Z</time>
      </trkpt>
      <trkpt lat="40.47861" lon="-3.51184167">
        <ele>647.011</ele>
        <time>2019-07-01T19:30:09.935Z</time>
      </trkpt>
      <trkpt lat="40.47861" lon="-3.51184167">
        <ele>647.011</ele>
        <time>2019-07-01T19:30:10.935Z</time>
      </trkpt>
      <trkpt lat="40.47861" lon="-3.51191333">
        <ele>647.011</ele>
        <time>2019-07-01T19:30:11.935Z</time>
      </trkpt>
      <trkpt lat="40.47860833" lon="-3.51195">
        <ele>648.011</ele>
        <time>2019-07-01T19:30:12.935Z</time>
      </trkpt>
      <trkpt lat="40.47860833" lon="-3.51195">
        <ele>648.011</ele>
        <time>2019-07-01T19:30:13.935Z</time>
      </trkpt>
      <trkpt lat="40.47860833" lon="-3.51202833">
        <ele>648.011</ele>
        <time>2019-07-01T19:30:14.935Z</time>
      </trkpt>
      <trkpt lat="40.47860833" lon="-3.51202833">
        <ele>648.011</ele>
        <time>2019-07-01T19:30:15.935Z</time>
      </trkpt>
      <trkpt lat="40.47860667" lon="-3.51210167">
        <ele>648.011</ele>
        <time>2019-07-01T19:30:16.935Z</time>
      </trkpt>
      <trkpt lat="40.47860833" lon="-3.51214">
        <ele>648.011</ele>
        <time>2019-07-01T19:30:17.935Z</time>
      </trkpt>
      <trkpt lat="40.47861333" lon="-3.51218">
        <ele>648.011</ele>
        <time>2019-07-01T19:30:18.935Z</time>
      </trkpt>
      <trkpt lat="40.47861333" lon="-3.51218">
        <ele>648.011</ele>
        <time>2019-07-01T19:30:19.935Z</time>
      </trkpt>
      <trkpt lat="40.47861667" lon="-3.51226167">
        <ele>648.011</ele>
        <time>2019-07-01T19:30:20.935Z</time>
      </trkpt>
      <trkpt lat="40.47861667" lon="-3.51229833">
        <ele>649.011</ele>
        <time>2019-07-01T19:30:21.935Z</time>
      </trkpt>
      <trkpt lat="40.47861667" lon="-3.51229833">
        <ele>649.011</ele>
        <time>2019-07-01T19:30:22.935Z</time>
      </trkpt>
      <trkpt lat="40.47861" lon="-3.51237333">
        <ele>649.011</ele>
        <time>2019-07-01T19:30:23.935Z</time>
      </trkpt>
      <trkpt lat="40.47860667" lon="-3.51241">
        <ele>649.011</ele>
        <time>2019-07-01T19:30:24.935Z</time>
      </trkpt>
      <trkpt lat="40.47860667" lon="-3.51241">
        <ele>649.011</ele>
        <time>2019-07-01T19:30:25.935Z</time>
      </trkpt>
      <trkpt lat="40.478595" lon="-3.51249333">
        <ele>649.011</ele>
        <time>2019-07-01T19:30:26.935Z</time>
      </trkpt>
      <trkpt lat="40.478595" lon="-3.51249333">
        <ele>649.011</ele>
        <time>2019-07-01T19:30:27.935Z</time>
      </trkpt>
      <trkpt lat="40.478585" lon="-3.512585">
        <ele>649.011</ele>
        <time>2019-07-01T19:30:28.935Z</time>
      </trkpt>
      <trkpt lat="40.478585" lon="-3.512585">
        <ele>649.011</ele>
        <time>2019-07-01T19:30:29.935Z</time>
      </trkpt>
      <trkpt lat="40.47857833" lon="-3.51269167">
        <ele>649.011</ele>
        <time>2019-07-01T19:30:30.935Z</time>
      </trkpt>
      <trkpt lat="40.47857833" lon="-3.51269167">
        <ele>649.011</ele>
        <time>2019-07-01T19:30:31.935Z</time>
      </trkpt>
      <trkpt lat="40.47856333" lon="-3.51280333">
        <ele>649.011</ele>
        <time>2019-07-01T19:30:32.935Z</time>
      </trkpt>
      <trkpt lat="40.47856333" lon="-3.51280333">
        <ele>649.011</ele>
        <time>2019-07-01T19:30:33.935Z</time>
      </trkpt>
      <trkpt lat="40.47854333" lon="-3.51292333">
        <ele>649.011</ele>
        <time>2019-07-01T19:30:34.935Z</time>
      </trkpt>
      <trkpt lat="40.47854333" lon="-3.51292333">
        <ele>649.011</ele>
        <time>2019-07-01T19:30:35.935Z</time>
      </trkpt>
      <trkpt lat="40.47852" lon="-3.51306">
        <ele>649.011</ele>
        <time>2019-07-01T19:30:36.935Z</time>
      </trkpt>
      <trkpt lat="40.47852" lon="-3.51306">
        <ele>649.011</ele>
        <time>2019-07-01T19:30:37.935Z</time>
      </trkpt>
      <trkpt lat="40.47849333" lon="-3.51321333">
        <ele>648.011</ele>
        <time>2019-07-01T19:30:38.935Z</time>
      </trkpt>
      <trkpt lat="40.478475" lon="-3.51329333">
        <ele>648.011</ele>
        <time>2019-07-01T19:30:39.935Z</time>
      </trkpt>
      <trkpt lat="40.478475" lon="-3.51329333">
        <ele>648.011</ele>
        <time>2019-07-01T19:30:40.935Z</time>
      </trkpt>
      <trkpt lat="40.478435" lon="-3.513485">
        <ele>648.011</ele>
        <time>2019-07-01T19:30:41.935Z</time>
      </trkpt>
      <trkpt lat="40.478415" lon="-3.51358167">
        <ele>646.011</ele>
        <time>2019-07-01T19:30:42.935Z</time>
      </trkpt>
      <trkpt lat="40.478415" lon="-3.51358167">
        <ele>646.011</ele>
        <time>2019-07-01T19:30:43.935Z</time>
      </trkpt>
      <trkpt lat="40.47837333" lon="-3.51377167">
        <ele>645.011</ele>
        <time>2019-07-01T19:30:44.935Z</time>
      </trkpt>
      <trkpt lat="40.47837333" lon="-3.51377167">
        <ele>645.011</ele>
        <time>2019-07-01T19:30:45.935Z</time>
      </trkpt>
      <trkpt lat="40.47834833" lon="-3.51396">
        <ele>644.011</ele>
        <time>2019-07-01T19:30:46.935Z</time>
      </trkpt>
      <trkpt lat="40.47834833" lon="-3.51396">
        <ele>644.011</ele>
        <time>2019-07-01T19:30:47.935Z</time>
      </trkpt>
      <trkpt lat="40.47839667" lon="-3.51413">
        <ele>643.011</ele>
        <time>2019-07-01T19:30:48.935Z</time>
      </trkpt>
      <trkpt lat="40.47839667" lon="-3.51413">
        <ele>643.011</ele>
        <time>2019-07-01T19:30:49.935Z</time>
      </trkpt>
      <trkpt lat="40.47846333" lon="-3.51425667">
        <ele>643.011</ele>
        <time>2019-07-01T19:30:50.935Z</time>
      </trkpt>
      <trkpt lat="40.47846333" lon="-3.51425667">
        <ele>643.011</ele>
        <time>2019-07-01T19:30:51.935Z</time>
      </trkpt>
      <trkpt lat="40.47852167" lon="-3.51439167">
        <ele>643.011</ele>
        <time>2019-07-01T19:30:52.935Z</time>
      </trkpt>
      <trkpt lat="40.47852167" lon="-3.51439167">
        <ele>643.011</ele>
        <time>2019-07-01T19:30:53.935Z</time>
      </trkpt>
      <trkpt lat="40.47860167" lon="-3.51450333">
        <ele>643.011</ele>
        <time>2019-07-01T19:30:54.935Z</time>
      </trkpt>
      <trkpt lat="40.47860167" lon="-3.51450333">
        <ele>643.011</ele>
        <time>2019-07-01T19:30:55.935Z</time>
      </trkpt>
      <trkpt lat="40.47869667" lon="-3.51456">
        <ele>643.011</ele>
        <time>2019-07-01T19:30:56.935Z</time>
      </trkpt>
      <trkpt lat="40.47869667" lon="-3.51456">
        <ele>643.011</ele>
        <time>2019-07-01T19:30:57.935Z</time>
      </trkpt>
      <trkpt lat="40.47877667" lon="-3.51459833">
        <ele>643.011</ele>
        <time>2019-07-01T19:30:58.935Z</time>
      </trkpt>
      <trkpt lat="40.47881167" lon="-3.51461667">
        <ele>643.011</ele>
        <time>2019-07-01T19:30:59.935Z</time>
      </trkpt>
      <trkpt lat="40.47884833" lon="-3.51463833">
        <ele>643.011</ele>
        <time>2019-07-01T19:31:00.935Z</time>
      </trkpt>
      <trkpt lat="40.47884833" lon="-3.51463833">
        <ele>643.011</ele>
        <time>2019-07-01T19:31:01.935Z</time>
      </trkpt>
      <trkpt lat="40.47892167" lon="-3.51467333">
        <ele>643.011</ele>
        <time>2019-07-01T19:31:02.935Z</time>
      </trkpt>
      <trkpt lat="40.47892167" lon="-3.51467333">
        <ele>643.011</ele>
        <time>2019-07-01T19:31:03.935Z</time>
      </trkpt>
      <trkpt lat="40.47899333" lon="-3.51470667">
        <ele>644.011</ele>
        <time>2019-07-01T19:31:04.935Z</time>
      </trkpt>
      <trkpt lat="40.47902833" lon="-3.514725">
        <ele>645.011</ele>
        <time>2019-07-01T19:31:05.935Z</time>
      </trkpt>
      <trkpt lat="40.479065" lon="-3.514745">
        <ele>645.011</ele>
        <time>2019-07-01T19:31:06.935Z</time>
      </trkpt>
      <trkpt lat="40.479065" lon="-3.514745">
        <ele>645.011</ele>
        <time>2019-07-01T19:31:07.935Z</time>
      </trkpt>
      <trkpt lat="40.47914167" lon="-3.514785">
        <ele>645.011</ele>
        <time>2019-07-01T19:31:08.935Z</time>
      </trkpt>
      <trkpt lat="40.47914167" lon="-3.514785">
        <ele>645.011</ele>
        <time>2019-07-01T19:31:09.935Z</time>
      </trkpt>
      <trkpt lat="40.47921667" lon="-3.51482">
        <ele>645.011</ele>
        <time>2019-07-01T19:31:10.935Z</time>
      </trkpt>
      <trkpt lat="40.47921667" lon="-3.51482">
        <ele>646.011</ele>
        <time>2019-07-01T19:31:11.935Z</time>
      </trkpt>
      <trkpt lat="40.47928333" lon="-3.51485333">
        <ele>646.011</ele>
        <time>2019-07-01T19:31:12.935Z</time>
      </trkpt>
      <trkpt lat="40.47928333" lon="-3.51485333">
        <ele>646.011</ele>
        <time>2019-07-01T19:31:13.935Z</time>
      </trkpt>
      <trkpt lat="40.47934667" lon="-3.51488833">
        <ele>646.011</ele>
        <time>2019-07-01T19:31:14.935Z</time>
      </trkpt>
      <trkpt lat="40.47938" lon="-3.51490667">
        <ele>647.011</ele>
        <time>2019-07-01T19:31:15.935Z</time>
      </trkpt>
      <trkpt lat="40.47941333" lon="-3.51492333">
        <ele>647.011</ele>
        <time>2019-07-01T19:31:16.935Z</time>
      </trkpt>
      <trkpt lat="40.47941333" lon="-3.51492333">
        <ele>647.011</ele>
        <time>2019-07-01T19:31:17.935Z</time>
      </trkpt>
      <trkpt lat="40.47948" lon="-3.51495667">
        <ele>647.011</ele>
        <time>2019-07-01T19:31:18.935Z</time>
      </trkpt>
      <trkpt lat="40.47948" lon="-3.51495667">
        <ele>648.011</ele>
        <time>2019-07-01T19:31:19.935Z</time>
      </trkpt>
      <trkpt lat="40.479555" lon="-3.51499333">
        <ele>648.011</ele>
        <time>2019-07-01T19:31:20.935Z</time>
      </trkpt>
      <trkpt lat="40.479555" lon="-3.51499333">
        <ele>648.011</ele>
        <time>2019-07-01T19:31:21.935Z</time>
      </trkpt>
      <trkpt lat="40.47962167" lon="-3.51503">
        <ele>648.011</ele>
        <time>2019-07-01T19:31:22.935Z</time>
      </trkpt>
      <trkpt lat="40.47962167" lon="-3.51503">
        <ele>648.011</ele>
        <time>2019-07-01T19:31:23.935Z</time>
      </trkpt>
      <trkpt lat="40.47968833" lon="-3.515065">
        <ele>648.011</ele>
        <time>2019-07-01T19:31:24.935Z</time>
      </trkpt>
      <trkpt lat="40.47968833" lon="-3.515065">
        <ele>648.011</ele>
        <time>2019-07-01T19:31:25.935Z</time>
      </trkpt>
      <trkpt lat="40.47975333" lon="-3.51509667">
        <ele>648.011</ele>
        <time>2019-07-01T19:31:26.935Z</time>
      </trkpt>
      <trkpt lat="40.47975333" lon="-3.51509667">
        <ele>648.011</ele>
        <time>2019-07-01T19:31:27.935Z</time>
      </trkpt>
      <trkpt lat="40.479825" lon="-3.51513">
        <ele>648.011</ele>
        <time>2019-07-01T19:31:28.935Z</time>
      </trkpt>
      <trkpt lat="40.479825" lon="-3.51513">
        <ele>648.011</ele>
        <time>2019-07-01T19:31:29.935Z</time>
      </trkpt>
      <trkpt lat="40.47990167" lon="-3.51517">
        <ele>648.011</ele>
        <time>2019-07-01T19:31:30.935Z</time>
      </trkpt>
      <trkpt lat="40.47990167" lon="-3.51517">
        <ele>648.011</ele>
        <time>2019-07-01T19:31:31.935Z</time>
      </trkpt>
      <trkpt lat="40.479985" lon="-3.51521333">
        <ele>648.011</ele>
        <time>2019-07-01T19:31:32.935Z</time>
      </trkpt>
      <trkpt lat="40.479985" lon="-3.51521333">
        <ele>648.011</ele>
        <time>2019-07-01T19:31:33.935Z</time>
      </trkpt>
      <trkpt lat="40.48007667" lon="-3.51525833">
        <ele>648.011</ele>
        <time>2019-07-01T19:31:34.935Z</time>
      </trkpt>
      <trkpt lat="40.48007667" lon="-3.51525833">
        <ele>648.011</ele>
        <time>2019-07-01T19:31:35.935Z</time>
      </trkpt>
      <trkpt lat="40.48018333" lon="-3.51530333">
        <ele>648.011</ele>
        <time>2019-07-01T19:31:36.935Z</time>
      </trkpt>
      <trkpt lat="40.48024333" lon="-3.51532333">
        <ele>648.011</ele>
        <time>2019-07-01T19:31:37.935Z</time>
      </trkpt>
      <trkpt lat="40.48024333" lon="-3.51532333">
        <ele>647.011</ele>
        <time>2019-07-01T19:31:38.935Z</time>
      </trkpt>
      <trkpt lat="40.48038167" lon="-3.51535833">
        <ele>647.011</ele>
        <time>2019-07-01T19:31:39.935Z</time>
      </trkpt>
      <trkpt lat="40.48038167" lon="-3.51535833">
        <ele>647.011</ele>
        <time>2019-07-01T19:31:40.935Z</time>
      </trkpt>
      <trkpt lat="40.48053833" lon="-3.51538">
        <ele>647.011</ele>
        <time>2019-07-01T19:31:41.935Z</time>
      </trkpt>
      <trkpt lat="40.48053833" lon="-3.51538">
        <ele>645.011</ele>
        <time>2019-07-01T19:31:42.935Z</time>
      </trkpt>
      <trkpt lat="40.48070667" lon="-3.51541333">
        <ele>645.011</ele>
        <time>2019-07-01T19:31:43.935Z</time>
      </trkpt>
      <trkpt lat="40.48070667" lon="-3.51541333">
        <ele>645.011</ele>
        <time>2019-07-01T19:31:44.935Z</time>
      </trkpt>
      <trkpt lat="40.48087833" lon="-3.51546333">
        <ele>645.011</ele>
        <time>2019-07-01T19:31:45.935Z</time>
      </trkpt>
      <trkpt lat="40.48096" lon="-3.51549333">
        <ele>644.011</ele>
        <time>2019-07-01T19:31:46.935Z</time>
      </trkpt>
      <trkpt lat="40.48096" lon="-3.51549333">
        <ele>644.011</ele>
        <time>2019-07-01T19:31:47.935Z</time>
      </trkpt>
      <trkpt lat="40.48111333" lon="-3.51557">
        <ele>643.011</ele>
        <time>2019-07-01T19:31:48.935Z</time>
      </trkpt>
      <trkpt lat="40.48118667" lon="-3.51561">
        <ele>643.011</ele>
        <time>2019-07-01T19:31:49.935Z</time>
      </trkpt>
      <trkpt lat="40.48118667" lon="-3.51561">
        <ele>642.011</ele>
        <time>2019-07-01T19:31:50.935Z</time>
      </trkpt>
      <trkpt lat="40.481325" lon="-3.51568333">
        <ele>642.011</ele>
        <time>2019-07-01T19:31:51.935Z</time>
      </trkpt>
      <trkpt lat="40.481325" lon="-3.51568333">
        <ele>642.011</ele>
        <time>2019-07-01T19:31:52.935Z</time>
      </trkpt>
      <trkpt lat="40.48145667" lon="-3.51574833">
        <ele>642.011</ele>
        <time>2019-07-01T19:31:53.935Z</time>
      </trkpt>
      <trkpt lat="40.48151667" lon="-3.51577667">
        <ele>642.011</ele>
        <time>2019-07-01T19:31:54.935Z</time>
      </trkpt>
      <trkpt lat="40.48151667" lon="-3.51577667">
        <ele>642.011</ele>
        <time>2019-07-01T19:31:55.935Z</time>
      </trkpt>
      <trkpt lat="40.481625" lon="-3.51584">
        <ele>641.011</ele>
        <time>2019-07-01T19:31:56.935Z</time>
      </trkpt>
      <trkpt lat="40.48167667" lon="-3.515875">
        <ele>641.011</ele>
        <time>2019-07-01T19:31:57.935Z</time>
      </trkpt>
      <trkpt lat="40.48167667" lon="-3.515875">
        <ele>641.011</ele>
        <time>2019-07-01T19:31:58.935Z</time>
      </trkpt>
      <trkpt lat="40.48178" lon="-3.51594">
        <ele>641.011</ele>
        <time>2019-07-01T19:31:59.935Z</time>
      </trkpt>
      <trkpt lat="40.48183333" lon="-3.51597">
        <ele>641.011</ele>
        <time>2019-07-01T19:32:00.935Z</time>
      </trkpt>
      <trkpt lat="40.48183333" lon="-3.51597">
        <ele>641.011</ele>
        <time>2019-07-01T19:32:01.935Z</time>
      </trkpt>
      <trkpt lat="40.48193833" lon="-3.51602833">
        <ele>641.011</ele>
        <time>2019-07-01T19:32:02.935Z</time>
      </trkpt>
      <trkpt lat="40.48199333" lon="-3.516055">
        <ele>641.011</ele>
        <time>2019-07-01T19:32:03.935Z</time>
      </trkpt>
      <trkpt lat="40.48199333" lon="-3.516055">
        <ele>641.011</ele>
        <time>2019-07-01T19:32:04.935Z</time>
      </trkpt>
      <trkpt lat="40.48210333" lon="-3.51610667">
        <ele>641.011</ele>
        <time>2019-07-01T19:32:05.935Z</time>
      </trkpt>
      <trkpt lat="40.48216" lon="-3.51613">
        <ele>641.011</ele>
        <time>2019-07-01T19:32:06.935Z</time>
      </trkpt>
      <trkpt lat="40.48216" lon="-3.51613">
        <ele>641.011</ele>
        <time>2019-07-01T19:32:07.935Z</time>
      </trkpt>
      <trkpt lat="40.48227833" lon="-3.51617833">
        <ele>641.011</ele>
        <time>2019-07-01T19:32:08.935Z</time>
      </trkpt>
      <trkpt lat="40.48233667" lon="-3.51620167">
        <ele>641.011</ele>
        <time>2019-07-01T19:32:09.935Z</time>
      </trkpt>
      <trkpt lat="40.482395" lon="-3.516225">
        <ele>641.011</ele>
        <time>2019-07-01T19:32:10.935Z</time>
      </trkpt>
      <trkpt lat="40.482395" lon="-3.516225">
        <ele>640.011</ele>
        <time>2019-07-01T19:32:11.935Z</time>
      </trkpt>
      <trkpt lat="40.482505" lon="-3.51627">
        <ele>640.011</ele>
        <time>2019-07-01T19:32:12.935Z</time>
      </trkpt>
      <trkpt lat="40.482505" lon="-3.51627">
        <ele>640.011</ele>
        <time>2019-07-01T19:32:13.935Z</time>
      </trkpt>
      <trkpt lat="40.4826" lon="-3.51630833">
        <ele>640.011</ele>
        <time>2019-07-01T19:32:14.935Z</time>
      </trkpt>
      <trkpt lat="40.4826" lon="-3.51630833">
        <ele>640.011</ele>
        <time>2019-07-01T19:32:15.935Z</time>
      </trkpt>
      <trkpt lat="40.48268667" lon="-3.51634167">
        <ele>640.011</ele>
        <time>2019-07-01T19:32:16.935Z</time>
      </trkpt>
      <trkpt lat="40.48273167" lon="-3.51635833">
        <ele>640.011</ele>
        <time>2019-07-01T19:32:17.935Z</time>
      </trkpt>
      <trkpt lat="40.48273167" lon="-3.51635833">
        <ele>640.011</ele>
        <time>2019-07-01T19:32:18.935Z</time>
      </trkpt>
      <trkpt lat="40.48282167" lon="-3.51639333">
        <ele>640.011</ele>
        <time>2019-07-01T19:32:19.935Z</time>
      </trkpt>
      <trkpt lat="40.48282167" lon="-3.51639333">
        <ele>640.011</ele>
        <time>2019-07-01T19:32:20.935Z</time>
      </trkpt>
      <trkpt lat="40.48291" lon="-3.516435">
        <ele>640.011</ele>
        <time>2019-07-01T19:32:21.935Z</time>
      </trkpt>
      <trkpt lat="40.48295167" lon="-3.51645833">
        <ele>640.011</ele>
        <time>2019-07-01T19:32:22.935Z</time>
      </trkpt>
      <trkpt lat="40.48295167" lon="-3.51645833">
        <ele>640.011</ele>
        <time>2019-07-01T19:32:23.935Z</time>
      </trkpt>
      <trkpt lat="40.48303333" lon="-3.51650667">
        <ele>640.011</ele>
        <time>2019-07-01T19:32:24.935Z</time>
      </trkpt>
      <trkpt lat="40.48303333" lon="-3.51650667">
        <ele>641.011</ele>
        <time>2019-07-01T19:32:25.935Z</time>
      </trkpt>
      <trkpt lat="40.48311333" lon="-3.51656167">
        <ele>641.011</ele>
        <time>2019-07-01T19:32:26.935Z</time>
      </trkpt>
      <trkpt lat="40.48315167" lon="-3.51659333">
        <ele>641.011</ele>
        <time>2019-07-01T19:32:27.935Z</time>
      </trkpt>
      <trkpt lat="40.48315167" lon="-3.51659333">
        <ele>641.011</ele>
        <time>2019-07-01T19:32:28.935Z</time>
      </trkpt>
      <trkpt lat="40.48322833" lon="-3.516655">
        <ele>641.011</ele>
        <time>2019-07-01T19:32:29.935Z</time>
      </trkpt>
      <trkpt lat="40.48326667" lon="-3.516685">
        <ele>641.011</ele>
        <time>2019-07-01T19:32:30.935Z</time>
      </trkpt>
      <trkpt lat="40.48326667" lon="-3.516685">
        <ele>641.011</ele>
        <time>2019-07-01T19:32:31.935Z</time>
      </trkpt>
      <trkpt lat="40.48334333" lon="-3.51674667">
        <ele>641.011</ele>
        <time>2019-07-01T19:32:32.935Z</time>
      </trkpt>
      <trkpt lat="40.48334333" lon="-3.51674667">
        <ele>641.011</ele>
        <time>2019-07-01T19:32:33.935Z</time>
      </trkpt>
      <trkpt lat="40.48342" lon="-3.51680833">
        <ele>641.011</ele>
        <time>2019-07-01T19:32:34.935Z</time>
      </trkpt>
      <trkpt lat="40.48345833" lon="-3.51684">
        <ele>641.011</ele>
        <time>2019-07-01T19:32:35.935Z</time>
      </trkpt>
      <trkpt lat="40.483495" lon="-3.51687167">
        <ele>642.011</ele>
        <time>2019-07-01T19:32:36.935Z</time>
      </trkpt>
      <trkpt lat="40.483495" lon="-3.51687167">
        <ele>642.011</ele>
        <time>2019-07-01T19:32:37.935Z</time>
      </trkpt>
      <trkpt lat="40.48357" lon="-3.51692833">
        <ele>642.011</ele>
        <time>2019-07-01T19:32:38.935Z</time>
      </trkpt>
      <trkpt lat="40.48360833" lon="-3.51695667">
        <ele>642.011</ele>
        <time>2019-07-01T19:32:39.935Z</time>
      </trkpt>
      <trkpt lat="40.48360833" lon="-3.51695667">
        <ele>643.011</ele>
        <time>2019-07-01T19:32:40.935Z</time>
      </trkpt>
      <trkpt lat="40.48368833" lon="-3.51700167">
        <ele>643.011</ele>
        <time>2019-07-01T19:32:41.935Z</time>
      </trkpt>
      <trkpt lat="40.48372667" lon="-3.51702333">
        <ele>643.011</ele>
        <time>2019-07-01T19:32:42.935Z</time>
      </trkpt>
      <trkpt lat="40.48372667" lon="-3.51702333">
        <ele>643.011</ele>
        <time>2019-07-01T19:32:43.935Z</time>
      </trkpt>
      <trkpt lat="40.48380833" lon="-3.517055">
        <ele>644.011</ele>
        <time>2019-07-01T19:32:44.935Z</time>
      </trkpt>
      <trkpt lat="40.48380833" lon="-3.517055">
        <ele>644.011</ele>
        <time>2019-07-01T19:32:45.935Z</time>
      </trkpt>
      <trkpt lat="40.48388833" lon="-3.51707167">
        <ele>644.011</ele>
        <time>2019-07-01T19:32:46.935Z</time>
      </trkpt>
      <trkpt lat="40.48392833" lon="-3.517075">
        <ele>644.011</ele>
        <time>2019-07-01T19:32:47.935Z</time>
      </trkpt>
      <trkpt lat="40.48396667" lon="-3.51707833">
        <ele>644.011</ele>
        <time>2019-07-01T19:32:48.935Z</time>
      </trkpt>
      <trkpt lat="40.48396667" lon="-3.51707833">
        <ele>644.011</ele>
        <time>2019-07-01T19:32:49.935Z</time>
      </trkpt>
      <trkpt lat="40.48404" lon="-3.51708333">
        <ele>644.011</ele>
        <time>2019-07-01T19:32:50.935Z</time>
      </trkpt>
      <trkpt lat="40.48404" lon="-3.51708333">
        <ele>645.011</ele>
        <time>2019-07-01T19:32:51.935Z</time>
      </trkpt>
      <trkpt lat="40.48411333" lon="-3.51709667">
        <ele>645.011</ele>
        <time>2019-07-01T19:32:52.935Z</time>
      </trkpt>
      <trkpt lat="40.48411333" lon="-3.51709667">
        <ele>645.011</ele>
        <time>2019-07-01T19:32:53.935Z</time>
      </trkpt>
      <trkpt lat="40.48418667" lon="-3.517115">
        <ele>645.011</ele>
        <time>2019-07-01T19:32:54.935Z</time>
      </trkpt>
      <trkpt lat="40.48418667" lon="-3.517115">
        <ele>645.011</ele>
        <time>2019-07-01T19:32:55.935Z</time>
      </trkpt>
      <trkpt lat="40.48425667" lon="-3.51713667">
        <ele>646.011</ele>
        <time>2019-07-01T19:32:56.935Z</time>
      </trkpt>
      <trkpt lat="40.48425667" lon="-3.51713667">
        <ele>646.011</ele>
        <time>2019-07-01T19:32:57.935Z</time>
      </trkpt>
      <trkpt lat="40.484325" lon="-3.51716">
        <ele>646.011</ele>
        <time>2019-07-01T19:32:58.935Z</time>
      </trkpt>
      <trkpt lat="40.484325" lon="-3.51716">
        <ele>646.011</ele>
        <time>2019-07-01T19:32:59.935Z</time>
      </trkpt>
      <trkpt lat="40.48439333" lon="-3.51718833">
        <ele>646.011</ele>
        <time>2019-07-01T19:33:00.935Z</time>
      </trkpt>
      <trkpt lat="40.48439333" lon="-3.51718833">
        <ele>646.011</ele>
        <time>2019-07-01T19:33:01.935Z</time>
      </trkpt>
      <trkpt lat="40.48446" lon="-3.51721833">
        <ele>646.011</ele>
        <time>2019-07-01T19:33:02.935Z</time>
      </trkpt>
      <trkpt lat="40.48446" lon="-3.51721833">
        <ele>646.011</ele>
        <time>2019-07-01T19:33:03.935Z</time>
      </trkpt>
      <trkpt lat="40.48452667" lon="-3.51724333">
        <ele>646.011</ele>
        <time>2019-07-01T19:33:04.935Z</time>
      </trkpt>
      <trkpt lat="40.48452667" lon="-3.51724333">
        <ele>647.011</ele>
        <time>2019-07-01T19:33:05.935Z</time>
      </trkpt>
      <trkpt lat="40.484595" lon="-3.51727167">
        <ele>647.011</ele>
        <time>2019-07-01T19:33:06.935Z</time>
      </trkpt>
      <trkpt lat="40.484595" lon="-3.51727167">
        <ele>647.011</ele>
        <time>2019-07-01T19:33:07.935Z</time>
      </trkpt>
      <trkpt lat="40.484665" lon="-3.51730167">
        <ele>647.011</ele>
        <time>2019-07-01T19:33:08.935Z</time>
      </trkpt>
      <trkpt lat="40.484665" lon="-3.51730167">
        <ele>648.011</ele>
        <time>2019-07-01T19:33:09.935Z</time>
      </trkpt>
      <trkpt lat="40.48473833" lon="-3.51732833">
        <ele>648.011</ele>
        <time>2019-07-01T19:33:10.935Z</time>
      </trkpt>
      <trkpt lat="40.48473833" lon="-3.51732833">
        <ele>648.011</ele>
        <time>2019-07-01T19:33:11.935Z</time>
      </trkpt>
      <trkpt lat="40.48480667" lon="-3.517365">
        <ele>648.011</ele>
        <time>2019-07-01T19:33:12.935Z</time>
      </trkpt>
      <trkpt lat="40.48480667" lon="-3.517365">
        <ele>649.011</ele>
        <time>2019-07-01T19:33:13.935Z</time>
      </trkpt>
      <trkpt lat="40.484875" lon="-3.51740667">
        <ele>649.011</ele>
        <time>2019-07-01T19:33:14.935Z</time>
      </trkpt>
      <trkpt lat="40.48491" lon="-3.51742667">
        <ele>649.011</ele>
        <time>2019-07-01T19:33:15.935Z</time>
      </trkpt>
      <trkpt lat="40.48491" lon="-3.51742667">
        <ele>649.011</ele>
        <time>2019-07-01T19:33:16.935Z</time>
      </trkpt>
      <trkpt lat="40.48497667" lon="-3.51747">
        <ele>650.011</ele>
        <time>2019-07-01T19:33:17.935Z</time>
      </trkpt>
      <trkpt lat="40.48497667" lon="-3.51747">
        <ele>650.011</ele>
        <time>2019-07-01T19:33:18.935Z</time>
      </trkpt>
      <trkpt lat="40.48504" lon="-3.51752167">
        <ele>650.011</ele>
        <time>2019-07-01T19:33:19.935Z</time>
      </trkpt>
      <trkpt lat="40.48504" lon="-3.51752167">
        <ele>650.011</ele>
        <time>2019-07-01T19:33:20.935Z</time>
      </trkpt>
      <trkpt lat="40.4851" lon="-3.51758">
        <ele>650.011</ele>
        <time>2019-07-01T19:33:21.935Z</time>
      </trkpt>
      <trkpt lat="40.48512833" lon="-3.51761167">
        <ele>650.011</ele>
        <time>2019-07-01T19:33:22.935Z</time>
      </trkpt>
      <trkpt lat="40.48512833" lon="-3.51761167">
        <ele>650.011</ele>
        <time>2019-07-01T19:33:23.935Z</time>
      </trkpt>
      <trkpt lat="40.48518333" lon="-3.51767333">
        <ele>650.011</ele>
        <time>2019-07-01T19:33:24.935Z</time>
      </trkpt>
      <trkpt lat="40.48518333" lon="-3.51767333">
        <ele>650.011</ele>
        <time>2019-07-01T19:33:25.935Z</time>
      </trkpt>
      <trkpt lat="40.48523167" lon="-3.51774167">
        <ele>650.011</ele>
        <time>2019-07-01T19:33:26.935Z</time>
      </trkpt>
      <trkpt lat="40.48523167" lon="-3.51774167">
        <ele>651.011</ele>
        <time>2019-07-01T19:33:27.935Z</time>
      </trkpt>
      <trkpt lat="40.48527833" lon="-3.51781">
        <ele>651.011</ele>
        <time>2019-07-01T19:33:28.935Z</time>
      </trkpt>
      <trkpt lat="40.48530333" lon="-3.51784667">
        <ele>651.011</ele>
        <time>2019-07-01T19:33:29.935Z</time>
      </trkpt>
      <trkpt lat="40.48530333" lon="-3.51784667">
        <ele>651.011</ele>
        <time>2019-07-01T19:33:30.935Z</time>
      </trkpt>
      <trkpt lat="40.48535167" lon="-3.517915">
        <ele>651.011</ele>
        <time>2019-07-01T19:33:31.935Z</time>
      </trkpt>
      <trkpt lat="40.48535167" lon="-3.517915">
        <ele>651.011</ele>
        <time>2019-07-01T19:33:32.935Z</time>
      </trkpt>
      <trkpt lat="40.48539833" lon="-3.517985">
        <ele>652.011</ele>
        <time>2019-07-01T19:33:33.935Z</time>
      </trkpt>
      <trkpt lat="40.48539833" lon="-3.517985">
        <ele>652.011</ele>
        <time>2019-07-01T19:33:34.935Z</time>
      </trkpt>
      <trkpt lat="40.485445" lon="-3.51805333">
        <ele>652.011</ele>
        <time>2019-07-01T19:33:35.935Z</time>
      </trkpt>
      <trkpt lat="40.48547" lon="-3.51808667">
        <ele>652.011</ele>
        <time>2019-07-01T19:33:36.935Z</time>
      </trkpt>
      <trkpt lat="40.48547" lon="-3.51808667">
        <ele>653.011</ele>
        <time>2019-07-01T19:33:37.935Z</time>
      </trkpt>
      <trkpt lat="40.48551667" lon="-3.51815167">
        <ele>653.011</ele>
        <time>2019-07-01T19:33:38.935Z</time>
      </trkpt>
      <trkpt lat="40.48554167" lon="-3.51818333">
        <ele>653.011</ele>
        <time>2019-07-01T19:33:39.935Z</time>
      </trkpt>
      <trkpt lat="40.48554167" lon="-3.51818333">
        <ele>653.011</ele>
        <time>2019-07-01T19:33:40.935Z</time>
      </trkpt>
      <trkpt lat="40.48559333" lon="-3.51824167">
        <ele>654.011</ele>
        <time>2019-07-01T19:33:41.935Z</time>
      </trkpt>
      <trkpt lat="40.48561833" lon="-3.51826833">
        <ele>654.011</ele>
        <time>2019-07-01T19:33:42.935Z</time>
      </trkpt>
      <trkpt lat="40.48561833" lon="-3.51826833">
        <ele>654.011</ele>
        <time>2019-07-01T19:33:43.935Z</time>
      </trkpt>
      <trkpt lat="40.48567" lon="-3.51832333">
        <ele>654.011</ele>
        <time>2019-07-01T19:33:44.935Z</time>
      </trkpt>
      <trkpt lat="40.48569667" lon="-3.51835">
        <ele>654.011</ele>
        <time>2019-07-01T19:33:45.935Z</time>
      </trkpt>
      <trkpt lat="40.48569667" lon="-3.51835">
        <ele>654.011</ele>
        <time>2019-07-01T19:33:46.935Z</time>
      </trkpt>
      <trkpt lat="40.48575333" lon="-3.518395">
        <ele>654.011</ele>
        <time>2019-07-01T19:33:47.935Z</time>
      </trkpt>
      <trkpt lat="40.48575333" lon="-3.518395">
        <ele>655.011</ele>
        <time>2019-07-01T19:33:48.935Z</time>
      </trkpt>
      <trkpt lat="40.48580667" lon="-3.51843833">
        <ele>655.011</ele>
        <time>2019-07-01T19:33:49.935Z</time>
      </trkpt>
      <trkpt lat="40.48580667" lon="-3.51843833">
        <ele>655.011</ele>
        <time>2019-07-01T19:33:50.935Z</time>
      </trkpt>
      <trkpt lat="40.48586333" lon="-3.51848167">
        <ele>655.011</ele>
        <time>2019-07-01T19:33:51.935Z</time>
      </trkpt>
      <trkpt lat="40.48586333" lon="-3.51848167">
        <ele>655.011</ele>
        <time>2019-07-01T19:33:52.935Z</time>
      </trkpt>
      <trkpt lat="40.48591667" lon="-3.51853333">
        <ele>655.011</ele>
        <time>2019-07-01T19:33:53.935Z</time>
      </trkpt>
      <trkpt lat="40.48594" lon="-3.51856333">
        <ele>656.011</ele>
        <time>2019-07-01T19:33:54.935Z</time>
      </trkpt>
      <trkpt lat="40.48594" lon="-3.51856333">
        <ele>656.011</ele>
        <time>2019-07-01T19:33:55.935Z</time>
      </trkpt>
      <trkpt lat="40.48598" lon="-3.51863">
        <ele>656.011</ele>
        <time>2019-07-01T19:33:56.935Z</time>
      </trkpt>
      <trkpt lat="40.48598" lon="-3.51863">
        <ele>656.011</ele>
        <time>2019-07-01T19:33:57.935Z</time>
      </trkpt>
      <trkpt lat="40.48601333" lon="-3.51870333">
        <ele>656.011</ele>
        <time>2019-07-01T19:33:58.935Z</time>
      </trkpt>
      <trkpt lat="40.48601333" lon="-3.51870333">
        <ele>656.011</ele>
        <time>2019-07-01T19:33:59.935Z</time>
      </trkpt>
      <trkpt lat="40.48604333" lon="-3.51878">
        <ele>656.011</ele>
        <time>2019-07-01T19:34:00.935Z</time>
      </trkpt>
      <trkpt lat="40.48604333" lon="-3.51878">
        <ele>657.011</ele>
        <time>2019-07-01T19:34:01.935Z</time>
      </trkpt>
      <trkpt lat="40.48607167" lon="-3.518855">
        <ele>657.011</ele>
        <time>2019-07-01T19:34:02.935Z</time>
      </trkpt>
      <trkpt lat="40.48607167" lon="-3.518855">
        <ele>657.011</ele>
        <time>2019-07-01T19:34:03.935Z</time>
      </trkpt>
      <trkpt lat="40.48610167" lon="-3.51892667">
        <ele>657.011</ele>
        <time>2019-07-01T19:34:04.935Z</time>
      </trkpt>
      <trkpt lat="40.48610167" lon="-3.51892667">
        <ele>657.011</ele>
        <time>2019-07-01T19:34:05.935Z</time>
      </trkpt>
      <trkpt lat="40.48613333" lon="-3.518995">
        <ele>657.011</ele>
        <time>2019-07-01T19:34:06.935Z</time>
      </trkpt>
      <trkpt lat="40.48614833" lon="-3.51902333">
        <ele>657.011</ele>
        <time>2019-07-01T19:34:07.935Z</time>
      </trkpt>
      <trkpt lat="40.48614833" lon="-3.51902333">
        <ele>657.011</ele>
        <time>2019-07-01T19:34:08.935Z</time>
      </trkpt>
      <trkpt lat="40.48619" lon="-3.51907667">
        <ele>658.011</ele>
        <time>2019-07-01T19:34:09.935Z</time>
      </trkpt>
      <trkpt lat="40.48620667" lon="-3.51910167">
        <ele>658.011</ele>
        <time>2019-07-01T19:34:10.935Z</time>
      </trkpt>
      <trkpt lat="40.48622833" lon="-3.519125">
        <ele>658.011</ele>
        <time>2019-07-01T19:34:11.935Z</time>
      </trkpt>
      <trkpt lat="40.48622833" lon="-3.519125">
        <ele>658.011</ele>
        <time>2019-07-01T19:34:12.935Z</time>
      </trkpt>
      <trkpt lat="40.48627333" lon="-3.51917333">
        <ele>659.011</ele>
        <time>2019-07-01T19:34:13.935Z</time>
      </trkpt>
      <trkpt lat="40.48627333" lon="-3.51917333">
        <ele>659.011</ele>
        <time>2019-07-01T19:34:14.935Z</time>
      </trkpt>
      <trkpt lat="40.48632" lon="-3.51921833">
        <ele>660.011</ele>
        <time>2019-07-01T19:34:15.935Z</time>
      </trkpt>
      <trkpt lat="40.48632" lon="-3.51921833">
        <ele>660.011</ele>
        <time>2019-07-01T19:34:16.935Z</time>
      </trkpt>
      <trkpt lat="40.48636667" lon="-3.51926667">
        <ele>660.011</ele>
        <time>2019-07-01T19:34:17.935Z</time>
      </trkpt>
      <trkpt lat="40.48639167" lon="-3.51928833">
        <ele>660.011</ele>
        <time>2019-07-01T19:34:18.935Z</time>
      </trkpt>
      <trkpt lat="40.48639167" lon="-3.51928833">
        <ele>661.011</ele>
        <time>2019-07-01T19:34:19.935Z</time>
      </trkpt>
      <trkpt lat="40.48644333" lon="-3.51932667">
        <ele>661.011</ele>
        <time>2019-07-01T19:34:20.935Z</time>
      </trkpt>
      <trkpt lat="40.48644333" lon="-3.51932667">
        <ele>661.011</ele>
        <time>2019-07-01T19:34:21.935Z</time>
      </trkpt>
      <trkpt lat="40.4865" lon="-3.51935833">
        <ele>661.011</ele>
        <time>2019-07-01T19:34:22.935Z</time>
      </trkpt>
      <trkpt lat="40.4865" lon="-3.51935833">
        <ele>662.011</ele>
        <time>2019-07-01T19:34:23.935Z</time>
      </trkpt>
      <trkpt lat="40.48655167" lon="-3.51938167">
        <ele>662.011</ele>
        <time>2019-07-01T19:34:24.935Z</time>
      </trkpt>
      <trkpt lat="40.48655167" lon="-3.51938167">
        <ele>662.011</ele>
        <time>2019-07-01T19:34:25.935Z</time>
      </trkpt>
      <trkpt lat="40.48659833" lon="-3.51940333">
        <ele>662.011</ele>
        <time>2019-07-01T19:34:26.935Z</time>
      </trkpt>
      <trkpt lat="40.48659833" lon="-3.51940333">
        <ele>663.011</ele>
        <time>2019-07-01T19:34:27.935Z</time>
      </trkpt>
      <trkpt lat="40.48664833" lon="-3.51942167">
        <ele>663.011</ele>
        <time>2019-07-01T19:34:28.935Z</time>
      </trkpt>
      <trkpt lat="40.48667667" lon="-3.51942833">
        <ele>664.011</ele>
        <time>2019-07-01T19:34:29.935Z</time>
      </trkpt>
      <trkpt lat="40.48671" lon="-3.51943833">
        <ele>664.011</ele>
        <time>2019-07-01T19:34:30.935Z</time>
      </trkpt>
      <trkpt lat="40.48671" lon="-3.51943833">
        <ele>665.011</ele>
        <time>2019-07-01T19:34:31.935Z</time>
      </trkpt>
      <trkpt lat="40.48677167" lon="-3.51945">
        <ele>665.011</ele>
        <time>2019-07-01T19:34:32.935Z</time>
      </trkpt>
      <trkpt lat="40.48677167" lon="-3.51945">
        <ele>666.011</ele>
        <time>2019-07-01T19:34:33.935Z</time>
      </trkpt>
      <trkpt lat="40.486835" lon="-3.51946">
        <ele>666.011</ele>
        <time>2019-07-01T19:34:34.935Z</time>
      </trkpt>
      <trkpt lat="40.486835" lon="-3.51946">
        <ele>667.011</ele>
        <time>2019-07-01T19:34:35.935Z</time>
      </trkpt>
      <trkpt lat="40.48689167" lon="-3.51946667">
        <ele>667.011</ele>
        <time>2019-07-01T19:34:36.935Z</time>
      </trkpt>
      <trkpt lat="40.48689167" lon="-3.51946667">
        <ele>668.011</ele>
        <time>2019-07-01T19:34:37.935Z</time>
      </trkpt>
      <trkpt lat="40.48694833" lon="-3.51946833">
        <ele>668.011</ele>
        <time>2019-07-01T19:34:38.935Z</time>
      </trkpt>
      <trkpt lat="40.48694833" lon="-3.51946833">
        <ele>669.011</ele>
        <time>2019-07-01T19:34:39.935Z</time>
      </trkpt>
      <trkpt lat="40.48701167" lon="-3.51946667">
        <ele>669.011</ele>
        <time>2019-07-01T19:34:40.935Z</time>
      </trkpt>
      <trkpt lat="40.48701167" lon="-3.51946667">
        <ele>669.011</ele>
        <time>2019-07-01T19:34:41.935Z</time>
      </trkpt>
      <trkpt lat="40.48707333" lon="-3.51945667">
        <ele>669.011</ele>
        <time>2019-07-01T19:34:42.935Z</time>
      </trkpt>
      <trkpt lat="40.48707333" lon="-3.51945667">
        <ele>669.011</ele>
        <time>2019-07-01T19:34:43.935Z</time>
      </trkpt>
      <trkpt lat="40.48715167" lon="-3.51945167">
        <ele>669.011</ele>
        <time>2019-07-01T19:34:44.935Z</time>
      </trkpt>
      <trkpt lat="40.48715167" lon="-3.51945167">
        <ele>669.011</ele>
        <time>2019-07-01T19:34:45.935Z</time>
      </trkpt>
      <trkpt lat="40.48724167" lon="-3.51946333">
        <ele>669.011</ele>
        <time>2019-07-01T19:34:46.935Z</time>
      </trkpt>
      <trkpt lat="40.48729" lon="-3.51948">
        <ele>669.011</ele>
        <time>2019-07-01T19:34:47.935Z</time>
      </trkpt>
      <trkpt lat="40.48733833" lon="-3.519505">
        <ele>669.011</ele>
        <time>2019-07-01T19:34:48.935Z</time>
      </trkpt>
      <trkpt lat="40.48733833" lon="-3.519505">
        <ele>669.011</ele>
        <time>2019-07-01T19:34:49.935Z</time>
      </trkpt>
      <trkpt lat="40.48743333" lon="-3.51957833">
        <ele>669.011</ele>
        <time>2019-07-01T19:34:50.935Z</time>
      </trkpt>
      <trkpt lat="40.48747833" lon="-3.51962667">
        <ele>669.011</ele>
        <time>2019-07-01T19:34:51.935Z</time>
      </trkpt>
      <trkpt lat="40.48747833" lon="-3.51962667">
        <ele>669.011</ele>
        <time>2019-07-01T19:34:52.935Z</time>
      </trkpt>
      <trkpt lat="40.487565" lon="-3.51973667">
        <ele>669.011</ele>
        <time>2019-07-01T19:34:53.935Z</time>
      </trkpt>
      <trkpt lat="40.48761167" lon="-3.519795">
        <ele>668.011</ele>
        <time>2019-07-01T19:34:54.935Z</time>
      </trkpt>
      <trkpt lat="40.48761167" lon="-3.519795">
        <ele>668.011</ele>
        <time>2019-07-01T19:34:55.935Z</time>
      </trkpt>
      <trkpt lat="40.48770167" lon="-3.51991167">
        <ele>668.011</ele>
        <time>2019-07-01T19:34:56.935Z</time>
      </trkpt>
      <trkpt lat="40.48770167" lon="-3.51991167">
        <ele>668.011</ele>
        <time>2019-07-01T19:34:57.935Z</time>
      </trkpt>
      <trkpt lat="40.48779167" lon="-3.52002333">
        <ele>667.011</ele>
        <time>2019-07-01T19:34:58.935Z</time>
      </trkpt>
      <trkpt lat="40.48779167" lon="-3.52002333">
        <ele>667.011</ele>
        <time>2019-07-01T19:34:59.935Z</time>
      </trkpt>
      <trkpt lat="40.48788833" lon="-3.52011333">
        <ele>667.011</ele>
        <time>2019-07-01T19:35:00.935Z</time>
      </trkpt>
      <trkpt lat="40.48788833" lon="-3.52011333">
        <ele>667.011</ele>
        <time>2019-07-01T19:35:01.935Z</time>
      </trkpt>
      <trkpt lat="40.48799" lon="-3.520185">
        <ele>666.011</ele>
        <time>2019-07-01T19:35:02.935Z</time>
      </trkpt>
      <trkpt lat="40.48804333" lon="-3.520215">
        <ele>666.011</ele>
        <time>2019-07-01T19:35:03.935Z</time>
      </trkpt>
      <trkpt lat="40.48804333" lon="-3.520215">
        <ele>665.011</ele>
        <time>2019-07-01T19:35:04.935Z</time>
      </trkpt>
      <trkpt lat="40.48815333" lon="-3.52026333">
        <ele>665.011</ele>
        <time>2019-07-01T19:35:05.935Z</time>
      </trkpt>
      <trkpt lat="40.48821" lon="-3.52027833">
        <ele>665.011</ele>
        <time>2019-07-01T19:35:06.935Z</time>
      </trkpt>
      <trkpt lat="40.48821" lon="-3.52027833">
        <ele>665.011</ele>
        <time>2019-07-01T19:35:07.935Z</time>
      </trkpt>
      <trkpt lat="40.48832167" lon="-3.52029667">
        <ele>665.011</ele>
        <time>2019-07-01T19:35:08.935Z</time>
      </trkpt>
      <trkpt lat="40.48832167" lon="-3.52029667">
        <ele>665.011</ele>
        <time>2019-07-01T19:35:09.935Z</time>
      </trkpt>
      <trkpt lat="40.48842833" lon="-3.520305">
        <ele>664.011</ele>
        <time>2019-07-01T19:35:10.935Z</time>
      </trkpt>
      <trkpt lat="40.48842833" lon="-3.520305">
        <ele>664.011</ele>
        <time>2019-07-01T19:35:11.935Z</time>
      </trkpt>
      <trkpt lat="40.48852333" lon="-3.52029667">
        <ele>664.011</ele>
        <time>2019-07-01T19:35:12.935Z</time>
      </trkpt>
      <trkpt lat="40.48852333" lon="-3.52029667">
        <ele>664.011</ele>
        <time>2019-07-01T19:35:13.935Z</time>
      </trkpt>
      <trkpt lat="40.48861167" lon="-3.52029167">
        <ele>664.011</ele>
        <time>2019-07-01T19:35:14.935Z</time>
      </trkpt>
      <trkpt lat="40.48861167" lon="-3.52029167">
        <ele>664.011</ele>
        <time>2019-07-01T19:35:15.935Z</time>
      </trkpt>
      <trkpt lat="40.48869167" lon="-3.52028333">
        <ele>664.011</ele>
        <time>2019-07-01T19:35:16.935Z</time>
      </trkpt>
      <trkpt lat="40.48869167" lon="-3.52028333">
        <ele>665.011</ele>
        <time>2019-07-01T19:35:17.935Z</time>
      </trkpt>
      <trkpt lat="40.48877" lon="-3.52028333">
        <ele>665.011</ele>
        <time>2019-07-01T19:35:18.935Z</time>
      </trkpt>
      <trkpt lat="40.48877" lon="-3.52028333">
        <ele>665.011</ele>
        <time>2019-07-01T19:35:19.935Z</time>
      </trkpt>
      <trkpt lat="40.488845" lon="-3.520285">
        <ele>665.011</ele>
        <time>2019-07-01T19:35:20.935Z</time>
      </trkpt>
      <trkpt lat="40.48888167" lon="-3.52028667">
        <ele>666.011</ele>
        <time>2019-07-01T19:35:21.935Z</time>
      </trkpt>
      <trkpt lat="40.48888167" lon="-3.52028667">
        <ele>666.011</ele>
        <time>2019-07-01T19:35:22.935Z</time>
      </trkpt>
      <trkpt lat="40.48895333" lon="-3.520295">
        <ele>666.011</ele>
        <time>2019-07-01T19:35:23.935Z</time>
      </trkpt>
      <trkpt lat="40.48899167" lon="-3.52029667">
        <ele>666.011</ele>
        <time>2019-07-01T19:35:24.935Z</time>
      </trkpt>
      <trkpt lat="40.48899167" lon="-3.52029667">
        <ele>667.011</ele>
        <time>2019-07-01T19:35:25.935Z</time>
      </trkpt>
      <trkpt lat="40.48907" lon="-3.52031">
        <ele>667.011</ele>
        <time>2019-07-01T19:35:26.935Z</time>
      </trkpt>
      <trkpt lat="40.48907" lon="-3.52031">
        <ele>668.011</ele>
        <time>2019-07-01T19:35:27.935Z</time>
      </trkpt>
      <trkpt lat="40.489145" lon="-3.52033167">
        <ele>668.011</ele>
        <time>2019-07-01T19:35:28.935Z</time>
      </trkpt>
      <trkpt lat="40.48917833" lon="-3.52034167">
        <ele>668.011</ele>
        <time>2019-07-01T19:35:29.935Z</time>
      </trkpt>
      <trkpt lat="40.48917833" lon="-3.52034167">
        <ele>668.011</ele>
        <time>2019-07-01T19:35:30.935Z</time>
      </trkpt>
      <trkpt lat="40.48925" lon="-3.52037167">
        <ele>670.011</ele>
        <time>2019-07-01T19:35:31.935Z</time>
      </trkpt>
      <trkpt lat="40.48925" lon="-3.52037167">
        <ele>670.011</ele>
        <time>2019-07-01T19:35:32.935Z</time>
      </trkpt>
      <trkpt lat="40.48931833" lon="-3.52041167">
        <ele>671.011</ele>
        <time>2019-07-01T19:35:33.935Z</time>
      </trkpt>
      <trkpt lat="40.48931833" lon="-3.52041167">
        <ele>671.011</ele>
        <time>2019-07-01T19:35:34.935Z</time>
      </trkpt>
      <trkpt lat="40.489385" lon="-3.52044833">
        <ele>672.011</ele>
        <time>2019-07-01T19:35:35.935Z</time>
      </trkpt>
      <trkpt lat="40.48942" lon="-3.52046167">
        <ele>672.011</ele>
        <time>2019-07-01T19:35:36.935Z</time>
      </trkpt>
      <trkpt lat="40.48942" lon="-3.52046167">
        <ele>673.011</ele>
        <time>2019-07-01T19:35:37.935Z</time>
      </trkpt>
      <trkpt lat="40.48948333" lon="-3.52049167">
        <ele>673.011</ele>
        <time>2019-07-01T19:35:38.935Z</time>
      </trkpt>
      <trkpt lat="40.48948333" lon="-3.52049167">
        <ele>674.011</ele>
        <time>2019-07-01T19:35:39.935Z</time>
      </trkpt>
      <trkpt lat="40.48954667" lon="-3.52052833">
        <ele>674.011</ele>
        <time>2019-07-01T19:35:40.935Z</time>
      </trkpt>
      <trkpt lat="40.48954667" lon="-3.52052833">
        <ele>675.011</ele>
        <time>2019-07-01T19:35:41.935Z</time>
      </trkpt>
      <trkpt lat="40.48960667" lon="-3.52056333">
        <ele>675.011</ele>
        <time>2019-07-01T19:35:42.935Z</time>
      </trkpt>
      <trkpt lat="40.48960667" lon="-3.52056333">
        <ele>676.011</ele>
        <time>2019-07-01T19:35:43.935Z</time>
      </trkpt>
      <trkpt lat="40.489655" lon="-3.52059">
        <ele>676.011</ele>
        <time>2019-07-01T19:35:44.935Z</time>
      </trkpt>
      <trkpt lat="40.489655" lon="-3.52059">
        <ele>676.011</ele>
        <time>2019-07-01T19:35:45.935Z</time>
      </trkpt>
      <trkpt lat="40.489705" lon="-3.52062">
        <ele>676.011</ele>
        <time>2019-07-01T19:35:46.935Z</time>
      </trkpt>
      <trkpt lat="40.48973167" lon="-3.52063833">
        <ele>676.011</ele>
        <time>2019-07-01T19:35:47.935Z</time>
      </trkpt>
      <trkpt lat="40.48975833" lon="-3.520655">
        <ele>676.011</ele>
        <time>2019-07-01T19:35:48.935Z</time>
      </trkpt>
      <trkpt lat="40.48975833" lon="-3.520655">
        <ele>676.011</ele>
        <time>2019-07-01T19:35:49.935Z</time>
      </trkpt>
      <trkpt lat="40.48981167" lon="-3.52068667">
        <ele>676.011</ele>
        <time>2019-07-01T19:35:50.935Z</time>
      </trkpt>
      <trkpt lat="40.48981167" lon="-3.52068667">
        <ele>676.011</ele>
        <time>2019-07-01T19:35:51.935Z</time>
      </trkpt>
      <trkpt lat="40.489865" lon="-3.52072333">
        <ele>676.011</ele>
        <time>2019-07-01T19:35:52.935Z</time>
      </trkpt>
      <trkpt lat="40.48989167" lon="-3.52074167">
        <ele>676.011</ele>
        <time>2019-07-01T19:35:53.935Z</time>
      </trkpt>
      <trkpt lat="40.489915" lon="-3.52075833">
        <ele>676.011</ele>
        <time>2019-07-01T19:35:54.935Z</time>
      </trkpt>
      <trkpt lat="40.489915" lon="-3.52075833">
        <ele>676.011</ele>
        <time>2019-07-01T19:35:55.935Z</time>
      </trkpt>
      <trkpt lat="40.48995833" lon="-3.52079167">
        <ele>676.011</ele>
        <time>2019-07-01T19:35:56.935Z</time>
      </trkpt>
      <trkpt lat="40.48998167" lon="-3.520805">
        <ele>676.011</ele>
        <time>2019-07-01T19:35:57.935Z</time>
      </trkpt>
      <trkpt lat="40.48998167" lon="-3.520805">
        <ele>676.011</ele>
        <time>2019-07-01T19:35:58.935Z</time>
      </trkpt>
      <trkpt lat="40.490035" lon="-3.52082833">
        <ele>677.011</ele>
        <time>2019-07-01T19:35:59.935Z</time>
      </trkpt>
      <trkpt lat="40.490035" lon="-3.52082833">
        <ele>677.011</ele>
        <time>2019-07-01T19:36:00.935Z</time>
      </trkpt>
      <trkpt lat="40.49009" lon="-3.52085167">
        <ele>677.011</ele>
        <time>2019-07-01T19:36:01.935Z</time>
      </trkpt>
      <trkpt lat="40.49009" lon="-3.52085167">
        <ele>677.011</ele>
        <time>2019-07-01T19:36:02.935Z</time>
      </trkpt>
      <trkpt lat="40.49014167" lon="-3.52086833">
        <ele>678.011</ele>
        <time>2019-07-01T19:36:03.935Z</time>
      </trkpt>
      <trkpt lat="40.49014167" lon="-3.52086833">
        <ele>678.011</ele>
        <time>2019-07-01T19:36:04.935Z</time>
      </trkpt>
      <trkpt lat="40.49019833" lon="-3.52087667">
        <ele>678.011</ele>
        <time>2019-07-01T19:36:05.935Z</time>
      </trkpt>
      <trkpt lat="40.49019833" lon="-3.52087667">
        <ele>678.011</ele>
        <time>2019-07-01T19:36:06.935Z</time>
      </trkpt>
      <trkpt lat="40.49025" lon="-3.520885">
        <ele>679.011</ele>
        <time>2019-07-01T19:36:07.935Z</time>
      </trkpt>
      <trkpt lat="40.49025" lon="-3.520885">
        <ele>679.011</ele>
        <time>2019-07-01T19:36:08.935Z</time>
      </trkpt>
      <trkpt lat="40.49030333" lon="-3.52089333">
        <ele>679.011</ele>
        <time>2019-07-01T19:36:09.935Z</time>
      </trkpt>
      <trkpt lat="40.49030333" lon="-3.52089333">
        <ele>679.011</ele>
        <time>2019-07-01T19:36:10.935Z</time>
      </trkpt>
      <trkpt lat="40.49035833" lon="-3.52090167">
        <ele>680.011</ele>
        <time>2019-07-01T19:36:11.935Z</time>
      </trkpt>
      <trkpt lat="40.49038667" lon="-3.52090167">
        <ele>680.011</ele>
        <time>2019-07-01T19:36:12.935Z</time>
      </trkpt>
      <trkpt lat="40.49038667" lon="-3.52090167">
        <ele>680.011</ele>
        <time>2019-07-01T19:36:13.935Z</time>
      </trkpt>
      <trkpt lat="40.49044" lon="-3.52090167">
        <ele>680.011</ele>
        <time>2019-07-01T19:36:14.935Z</time>
      </trkpt>
      <trkpt lat="40.49046667" lon="-3.520905">
        <ele>682.011</ele>
        <time>2019-07-01T19:36:15.935Z</time>
      </trkpt>
      <trkpt lat="40.49046667" lon="-3.520905">
        <ele>682.011</ele>
        <time>2019-07-01T19:36:16.935Z</time>
      </trkpt>
      <trkpt lat="40.49052" lon="-3.52091167">
        <ele>682.011</ele>
        <time>2019-07-01T19:36:17.935Z</time>
      </trkpt>
      <trkpt lat="40.490545" lon="-3.520915">
        <ele>682.011</ele>
        <time>2019-07-01T19:36:18.935Z</time>
      </trkpt>
      <trkpt lat="40.490545" lon="-3.520915">
        <ele>683.011</ele>
        <time>2019-07-01T19:36:19.935Z</time>
      </trkpt>
      <trkpt lat="40.49059833" lon="-3.52091833">
        <ele>683.011</ele>
        <time>2019-07-01T19:36:20.935Z</time>
      </trkpt>
      <trkpt lat="40.490625" lon="-3.520915">
        <ele>683.011</ele>
        <time>2019-07-01T19:36:21.935Z</time>
      </trkpt>
      <trkpt lat="40.49065" lon="-3.52091">
        <ele>683.011</ele>
        <time>2019-07-01T19:36:22.935Z</time>
      </trkpt>
      <trkpt lat="40.49067667" lon="-3.52090333">
        <ele>684.011</ele>
        <time>2019-07-01T19:36:23.935Z</time>
      </trkpt>
      <trkpt lat="40.49067667" lon="-3.52090333">
        <ele>684.011</ele>
        <time>2019-07-01T19:36:24.935Z</time>
      </trkpt>
      <trkpt lat="40.490725" lon="-3.52088833">
        <ele>685.011</ele>
        <time>2019-07-01T19:36:25.935Z</time>
      </trkpt>
      <trkpt lat="40.490725" lon="-3.52088833">
        <ele>685.011</ele>
        <time>2019-07-01T19:36:26.935Z</time>
      </trkpt>
      <trkpt lat="40.49078" lon="-3.520875">
        <ele>685.011</ele>
        <time>2019-07-01T19:36:27.935Z</time>
      </trkpt>
      <trkpt lat="40.49078" lon="-3.520875">
        <ele>685.011</ele>
        <time>2019-07-01T19:36:28.935Z</time>
      </trkpt>
      <trkpt lat="40.49084333" lon="-3.52085667">
        <ele>686.011</ele>
        <time>2019-07-01T19:36:29.935Z</time>
      </trkpt>
      <trkpt lat="40.49087833" lon="-3.52084167">
        <ele>686.011</ele>
        <time>2019-07-01T19:36:30.935Z</time>
      </trkpt>
      <trkpt lat="40.49087833" lon="-3.52084167">
        <ele>687.011</ele>
        <time>2019-07-01T19:36:31.935Z</time>
      </trkpt>
      <trkpt lat="40.490945" lon="-3.52081833">
        <ele>687.011</ele>
        <time>2019-07-01T19:36:32.935Z</time>
      </trkpt>
      <trkpt lat="40.490945" lon="-3.52081833">
        <ele>687.011</ele>
        <time>2019-07-01T19:36:33.935Z</time>
      </trkpt>
      <trkpt lat="40.49101" lon="-3.52080167">
        <ele>687.011</ele>
        <time>2019-07-01T19:36:34.935Z</time>
      </trkpt>
      <trkpt lat="40.49101" lon="-3.52080167">
        <ele>689.011</ele>
        <time>2019-07-01T19:36:35.935Z</time>
      </trkpt>
      <trkpt lat="40.491065" lon="-3.520795">
        <ele>689.011</ele>
        <time>2019-07-01T19:36:36.935Z</time>
      </trkpt>
      <trkpt lat="40.491065" lon="-3.520795">
        <ele>689.011</ele>
        <time>2019-07-01T19:36:37.935Z</time>
      </trkpt>
      <trkpt lat="40.49111333" lon="-3.520795">
        <ele>689.011</ele>
        <time>2019-07-01T19:36:38.935Z</time>
      </trkpt>
      <trkpt lat="40.49111333" lon="-3.520795">
        <ele>690.011</ele>
        <time>2019-07-01T19:36:39.935Z</time>
      </trkpt>
      <trkpt lat="40.49117" lon="-3.520795">
        <ele>690.011</ele>
        <time>2019-07-01T19:36:40.935Z</time>
      </trkpt>
      <trkpt lat="40.49117" lon="-3.520795">
        <ele>690.011</ele>
        <time>2019-07-01T19:36:41.935Z</time>
      </trkpt>
      <trkpt lat="40.49122667" lon="-3.5208">
        <ele>690.011</ele>
        <time>2019-07-01T19:36:42.935Z</time>
      </trkpt>
      <trkpt lat="40.49122667" lon="-3.5208">
        <ele>690.011</ele>
        <time>2019-07-01T19:36:43.935Z</time>
      </trkpt>
      <trkpt lat="40.491285" lon="-3.520805">
        <ele>690.011</ele>
        <time>2019-07-01T19:36:44.935Z</time>
      </trkpt>
      <trkpt lat="40.491285" lon="-3.520805">
        <ele>690.011</ele>
        <time>2019-07-01T19:36:45.935Z</time>
      </trkpt>
      <trkpt lat="40.49134667" lon="-3.52081333">
        <ele>691.011</ele>
        <time>2019-07-01T19:36:46.935Z</time>
      </trkpt>
      <trkpt lat="40.49134667" lon="-3.52081333">
        <ele>691.011</ele>
        <time>2019-07-01T19:36:47.935Z</time>
      </trkpt>
      <trkpt lat="40.49140833" lon="-3.52083">
        <ele>691.011</ele>
        <time>2019-07-01T19:36:48.935Z</time>
      </trkpt>
      <trkpt lat="40.49140833" lon="-3.52083">
        <ele>691.011</ele>
        <time>2019-07-01T19:36:49.935Z</time>
      </trkpt>
      <trkpt lat="40.49147" lon="-3.52084833">
        <ele>691.011</ele>
        <time>2019-07-01T19:36:50.935Z</time>
      </trkpt>
      <trkpt lat="40.49147" lon="-3.52084833">
        <ele>691.011</ele>
        <time>2019-07-01T19:36:51.935Z</time>
      </trkpt>
      <trkpt lat="40.49153167" lon="-3.52086667">
        <ele>691.011</ele>
        <time>2019-07-01T19:36:52.935Z</time>
      </trkpt>
      <trkpt lat="40.49153167" lon="-3.52086667">
        <ele>691.011</ele>
        <time>2019-07-01T19:36:53.935Z</time>
      </trkpt>
      <trkpt lat="40.491595" lon="-3.520885">
        <ele>691.011</ele>
        <time>2019-07-01T19:36:54.935Z</time>
      </trkpt>
      <trkpt lat="40.491595" lon="-3.520885">
        <ele>691.011</ele>
        <time>2019-07-01T19:36:55.935Z</time>
      </trkpt>
      <trkpt lat="40.49165833" lon="-3.52090833">
        <ele>691.011</ele>
        <time>2019-07-01T19:36:56.935Z</time>
      </trkpt>
      <trkpt lat="40.49165833" lon="-3.52090833">
        <ele>691.011</ele>
        <time>2019-07-01T19:36:57.935Z</time>
      </trkpt>
      <trkpt lat="40.49172333" lon="-3.520935">
        <ele>691.011</ele>
        <time>2019-07-01T19:36:58.935Z</time>
      </trkpt>
      <trkpt lat="40.49172333" lon="-3.520935">
        <ele>691.011</ele>
        <time>2019-07-01T19:36:59.935Z</time>
      </trkpt>
      <trkpt lat="40.49179" lon="-3.52095833">
        <ele>692.011</ele>
        <time>2019-07-01T19:37:00.935Z</time>
      </trkpt>
      <trkpt lat="40.49179" lon="-3.52095833">
        <ele>692.011</ele>
        <time>2019-07-01T19:37:01.935Z</time>
      </trkpt>
      <trkpt lat="40.49186" lon="-3.520985">
        <ele>692.011</ele>
        <time>2019-07-01T19:37:02.935Z</time>
      </trkpt>
      <trkpt lat="40.49186" lon="-3.520985">
        <ele>692.011</ele>
        <time>2019-07-01T19:37:03.935Z</time>
      </trkpt>
      <trkpt lat="40.49193167" lon="-3.52101167">
        <ele>692.011</ele>
        <time>2019-07-01T19:37:04.935Z</time>
      </trkpt>
      <trkpt lat="40.49196833" lon="-3.521025">
        <ele>692.011</ele>
        <time>2019-07-01T19:37:05.935Z</time>
      </trkpt>
      <trkpt lat="40.49200667" lon="-3.52104">
        <ele>693.011</ele>
        <time>2019-07-01T19:37:06.935Z</time>
      </trkpt>
      <trkpt lat="40.49200667" lon="-3.52104">
        <ele>693.011</ele>
        <time>2019-07-01T19:37:07.935Z</time>
      </trkpt>
      <trkpt lat="40.49208167" lon="-3.52107167">
        <ele>693.011</ele>
        <time>2019-07-01T19:37:08.935Z</time>
      </trkpt>
      <trkpt lat="40.49212333" lon="-3.52108833">
        <ele>693.011</ele>
        <time>2019-07-01T19:37:09.935Z</time>
      </trkpt>
      <trkpt lat="40.49212333" lon="-3.52108833">
        <ele>693.011</ele>
        <time>2019-07-01T19:37:10.935Z</time>
      </trkpt>
      <trkpt lat="40.49220833" lon="-3.52111833">
        <ele>693.011</ele>
        <time>2019-07-01T19:37:11.935Z</time>
      </trkpt>
      <trkpt lat="40.49225" lon="-3.52113167">
        <ele>693.011</ele>
        <time>2019-07-01T19:37:12.935Z</time>
      </trkpt>
      <trkpt lat="40.49225" lon="-3.52113167">
        <ele>693.011</ele>
        <time>2019-07-01T19:37:13.935Z</time>
      </trkpt>
      <trkpt lat="40.49233667" lon="-3.52115333">
        <ele>693.011</ele>
        <time>2019-07-01T19:37:14.935Z</time>
      </trkpt>
      <trkpt lat="40.49238333" lon="-3.52116167">
        <ele>693.011</ele>
        <time>2019-07-01T19:37:15.935Z</time>
      </trkpt>
      <trkpt lat="40.49238333" lon="-3.52116167">
        <ele>694.011</ele>
        <time>2019-07-01T19:37:16.935Z</time>
      </trkpt>
      <trkpt lat="40.49247333" lon="-3.52118">
        <ele>694.011</ele>
        <time>2019-07-01T19:37:17.935Z</time>
      </trkpt>
      <trkpt lat="40.49251833" lon="-3.52119">
        <ele>694.011</ele>
        <time>2019-07-01T19:37:18.935Z</time>
      </trkpt>
      <trkpt lat="40.49251833" lon="-3.52119">
        <ele>694.011</ele>
        <time>2019-07-01T19:37:19.935Z</time>
      </trkpt>
      <trkpt lat="40.49260833" lon="-3.521205">
        <ele>694.011</ele>
        <time>2019-07-01T19:37:20.935Z</time>
      </trkpt>
      <trkpt lat="40.49260833" lon="-3.521205">
        <ele>694.011</ele>
        <time>2019-07-01T19:37:21.935Z</time>
      </trkpt>
      <trkpt lat="40.49270167" lon="-3.52121667">
        <ele>694.011</ele>
        <time>2019-07-01T19:37:22.935Z</time>
      </trkpt>
      <trkpt lat="40.49270167" lon="-3.52121667">
        <ele>694.011</ele>
        <time>2019-07-01T19:37:23.935Z</time>
      </trkpt>
      <trkpt lat="40.49279167" lon="-3.52122333">
        <ele>694.011</ele>
        <time>2019-07-01T19:37:24.935Z</time>
      </trkpt>
      <trkpt lat="40.49279167" lon="-3.52122333">
        <ele>694.011</ele>
        <time>2019-07-01T19:37:25.935Z</time>
      </trkpt>
      <trkpt lat="40.49288333" lon="-3.52122667">
        <ele>695.011</ele>
        <time>2019-07-01T19:37:26.935Z</time>
      </trkpt>
      <trkpt lat="40.49288333" lon="-3.52122667">
        <ele>695.011</ele>
        <time>2019-07-01T19:37:27.935Z</time>
      </trkpt>
      <trkpt lat="40.49297833" lon="-3.52122833">
        <ele>695.011</ele>
        <time>2019-07-01T19:37:28.935Z</time>
      </trkpt>
      <trkpt lat="40.49302167" lon="-3.52122667">
        <ele>695.011</ele>
        <time>2019-07-01T19:37:29.935Z</time>
      </trkpt>
      <trkpt lat="40.49306667" lon="-3.52122667">
        <ele>695.011</ele>
        <time>2019-07-01T19:37:30.935Z</time>
      </trkpt>
      <trkpt lat="40.49306667" lon="-3.52122667">
        <ele>695.011</ele>
        <time>2019-07-01T19:37:31.935Z</time>
      </trkpt>
      <trkpt lat="40.49316" lon="-3.52122167">
        <ele>695.011</ele>
        <time>2019-07-01T19:37:32.935Z</time>
      </trkpt>
      <trkpt lat="40.493205" lon="-3.52121667">
        <ele>695.011</ele>
        <time>2019-07-01T19:37:33.935Z</time>
      </trkpt>
      <trkpt lat="40.493205" lon="-3.52121667">
        <ele>695.011</ele>
        <time>2019-07-01T19:37:34.935Z</time>
      </trkpt>
      <trkpt lat="40.49329667" lon="-3.52120833">
        <ele>695.011</ele>
        <time>2019-07-01T19:37:35.935Z</time>
      </trkpt>
      <trkpt lat="40.49334167" lon="-3.521205">
        <ele>695.011</ele>
        <time>2019-07-01T19:37:36.935Z</time>
      </trkpt>
      <trkpt lat="40.49334167" lon="-3.521205">
        <ele>695.011</ele>
        <time>2019-07-01T19:37:37.935Z</time>
      </trkpt>
      <trkpt lat="40.493435" lon="-3.5212">
        <ele>695.011</ele>
        <time>2019-07-01T19:37:38.935Z</time>
      </trkpt>
      <trkpt lat="40.49348" lon="-3.52119833">
        <ele>695.011</ele>
        <time>2019-07-01T19:37:39.935Z</time>
      </trkpt>
      <trkpt lat="40.49348" lon="-3.52119833">
        <ele>695.011</ele>
        <time>2019-07-01T19:37:40.935Z</time>
      </trkpt>
      <trkpt lat="40.49357333" lon="-3.5212">
        <ele>695.011</ele>
        <time>2019-07-01T19:37:41.935Z</time>
      </trkpt>
      <trkpt lat="40.49362" lon="-3.52120167">
        <ele>695.011</ele>
        <time>2019-07-01T19:37:42.935Z</time>
      </trkpt>
      <trkpt lat="40.49362" lon="-3.52120167">
        <ele>695.011</ele>
        <time>2019-07-01T19:37:43.935Z</time>
      </trkpt>
      <trkpt lat="40.49371333" lon="-3.52120833">
        <ele>695.011</ele>
        <time>2019-07-01T19:37:44.935Z</time>
      </trkpt>
      <trkpt lat="40.49371333" lon="-3.52120833">
        <ele>695.011</ele>
        <time>2019-07-01T19:37:45.935Z</time>
      </trkpt>
      <trkpt lat="40.49380833" lon="-3.52121667">
        <ele>695.011</ele>
        <time>2019-07-01T19:37:46.935Z</time>
      </trkpt>
      <trkpt lat="40.493855" lon="-3.52122167">
        <ele>695.011</ele>
        <time>2019-07-01T19:37:47.935Z</time>
      </trkpt>
      <trkpt lat="40.49390167" lon="-3.52123">
        <ele>695.011</ele>
        <time>2019-07-01T19:37:48.935Z</time>
      </trkpt>
      <trkpt lat="40.49390167" lon="-3.52123">
        <ele>695.011</ele>
        <time>2019-07-01T19:37:49.935Z</time>
      </trkpt>
      <trkpt lat="40.49399833" lon="-3.52124167">
        <ele>695.011</ele>
        <time>2019-07-01T19:37:50.935Z</time>
      </trkpt>
      <trkpt lat="40.49399833" lon="-3.52124167">
        <ele>694.011</ele>
        <time>2019-07-01T19:37:51.935Z</time>
      </trkpt>
      <trkpt lat="40.494095" lon="-3.52125">
        <ele>694.011</ele>
        <time>2019-07-01T19:37:52.935Z</time>
      </trkpt>
      <trkpt lat="40.494095" lon="-3.52125">
        <ele>694.011</ele>
        <time>2019-07-01T19:37:53.935Z</time>
      </trkpt>
      <trkpt lat="40.49419333" lon="-3.52125833">
        <ele>694.011</ele>
        <time>2019-07-01T19:37:54.935Z</time>
      </trkpt>
      <trkpt lat="40.49419333" lon="-3.52125833">
        <ele>694.011</ele>
        <time>2019-07-01T19:37:55.935Z</time>
      </trkpt>
      <trkpt lat="40.494295" lon="-3.521265">
        <ele>694.011</ele>
        <time>2019-07-01T19:37:56.935Z</time>
      </trkpt>
      <trkpt lat="40.49434833" lon="-3.52127167">
        <ele>694.011</ele>
        <time>2019-07-01T19:37:57.935Z</time>
      </trkpt>
      <trkpt lat="40.49434833" lon="-3.52127167">
        <ele>694.011</ele>
        <time>2019-07-01T19:37:58.935Z</time>
      </trkpt>
      <trkpt lat="40.49445333" lon="-3.52128167">
        <ele>694.011</ele>
        <time>2019-07-01T19:37:59.935Z</time>
      </trkpt>
      <trkpt lat="40.49450833" lon="-3.52128667">
        <ele>694.011</ele>
        <time>2019-07-01T19:38:00.935Z</time>
      </trkpt>
      <trkpt lat="40.49450833" lon="-3.52128667">
        <ele>694.011</ele>
        <time>2019-07-01T19:38:01.935Z</time>
      </trkpt>
      <trkpt lat="40.49462" lon="-3.521305">
        <ele>694.011</ele>
        <time>2019-07-01T19:38:02.935Z</time>
      </trkpt>
      <trkpt lat="40.49462" lon="-3.521305">
        <ele>694.011</ele>
        <time>2019-07-01T19:38:03.935Z</time>
      </trkpt>
      <trkpt lat="40.49472833" lon="-3.521325">
        <ele>694.011</ele>
        <time>2019-07-01T19:38:04.935Z</time>
      </trkpt>
      <trkpt lat="40.49472833" lon="-3.521325">
        <ele>694.011</ele>
        <time>2019-07-01T19:38:05.935Z</time>
      </trkpt>
      <trkpt lat="40.49483333" lon="-3.521355">
        <ele>694.011</ele>
        <time>2019-07-01T19:38:06.935Z</time>
      </trkpt>
      <trkpt lat="40.49483333" lon="-3.521355">
        <ele>694.011</ele>
        <time>2019-07-01T19:38:07.935Z</time>
      </trkpt>
      <trkpt lat="40.494945" lon="-3.52139">
        <ele>694.011</ele>
        <time>2019-07-01T19:38:08.935Z</time>
      </trkpt>
      <trkpt lat="40.49500167" lon="-3.52141167">
        <ele>693.011</ele>
        <time>2019-07-01T19:38:09.935Z</time>
      </trkpt>
      <trkpt lat="40.49500167" lon="-3.52141167">
        <ele>693.011</ele>
        <time>2019-07-01T19:38:10.935Z</time>
      </trkpt>
      <trkpt lat="40.495115" lon="-3.52146">
        <ele>693.011</ele>
        <time>2019-07-01T19:38:11.935Z</time>
      </trkpt>
      <trkpt lat="40.49517167" lon="-3.52148333">
        <ele>693.011</ele>
        <time>2019-07-01T19:38:12.935Z</time>
      </trkpt>
      <trkpt lat="40.49517167" lon="-3.52148333">
        <ele>693.011</ele>
        <time>2019-07-01T19:38:13.935Z</time>
      </trkpt>
      <trkpt lat="40.49528167" lon="-3.52153833">
        <ele>693.011</ele>
        <time>2019-07-01T19:38:14.935Z</time>
      </trkpt>
      <trkpt lat="40.49533667" lon="-3.52155667">
        <ele>693.011</ele>
        <time>2019-07-01T19:38:15.935Z</time>
      </trkpt>
      <trkpt lat="40.49533667" lon="-3.52155667">
        <ele>693.011</ele>
        <time>2019-07-01T19:38:16.935Z</time>
      </trkpt>
      <trkpt lat="40.49544833" lon="-3.52158667">
        <ele>693.011</ele>
        <time>2019-07-01T19:38:17.935Z</time>
      </trkpt>
      <trkpt lat="40.49550167" lon="-3.52160833">
        <ele>693.011</ele>
        <time>2019-07-01T19:38:18.935Z</time>
      </trkpt>
      <trkpt lat="40.49550167" lon="-3.52160833">
        <ele>692.011</ele>
        <time>2019-07-01T19:38:19.935Z</time>
      </trkpt>
      <trkpt lat="40.49560667" lon="-3.521655">
        <ele>692.011</ele>
        <time>2019-07-01T19:38:20.935Z</time>
      </trkpt>
      <trkpt lat="40.495655" lon="-3.52168167">
        <ele>692.011</ele>
        <time>2019-07-01T19:38:21.935Z</time>
      </trkpt>
      <trkpt lat="40.495655" lon="-3.52168167">
        <ele>692.011</ele>
        <time>2019-07-01T19:38:22.935Z</time>
      </trkpt>
      <trkpt lat="40.495755" lon="-3.52173167">
        <ele>692.011</ele>
        <time>2019-07-01T19:38:23.935Z</time>
      </trkpt>
      <trkpt lat="40.495805" lon="-3.52175667">
        <ele>692.011</ele>
        <time>2019-07-01T19:38:24.935Z</time>
      </trkpt>
      <trkpt lat="40.495805" lon="-3.52175667">
        <ele>692.011</ele>
        <time>2019-07-01T19:38:25.935Z</time>
      </trkpt>
      <trkpt lat="40.49590333" lon="-3.521805">
        <ele>692.011</ele>
        <time>2019-07-01T19:38:26.935Z</time>
      </trkpt>
      <trkpt lat="40.49590333" lon="-3.521805">
        <ele>693.011</ele>
        <time>2019-07-01T19:38:27.935Z</time>
      </trkpt>
      <trkpt lat="40.49599" lon="-3.521875">
        <ele>693.011</ele>
        <time>2019-07-01T19:38:28.935Z</time>
      </trkpt>
      <trkpt lat="40.49599" lon="-3.521875">
        <ele>693.011</ele>
        <time>2019-07-01T19:38:29.935Z</time>
      </trkpt>
      <trkpt lat="40.49600167" lon="-3.52199667">
        <ele>693.011</ele>
        <time>2019-07-01T19:38:30.935Z</time>
      </trkpt>
      <trkpt lat="40.49600167" lon="-3.52199667">
        <ele>693.011</ele>
        <time>2019-07-01T19:38:31.935Z</time>
      </trkpt>
      <trkpt lat="40.49593333" lon="-3.52210833">
        <ele>693.011</ele>
        <time>2019-07-01T19:38:32.935Z</time>
      </trkpt>
      <trkpt lat="40.495885" lon="-3.52215833">
        <ele>693.011</ele>
        <time>2019-07-01T19:38:33.935Z</time>
      </trkpt>
      <trkpt lat="40.495885" lon="-3.52215833">
        <ele>693.011</ele>
        <time>2019-07-01T19:38:34.935Z</time>
      </trkpt>
      <trkpt lat="40.49579333" lon="-3.52228167">
        <ele>693.011</ele>
        <time>2019-07-01T19:38:35.935Z</time>
      </trkpt>
      <trkpt lat="40.49579333" lon="-3.52228167">
        <ele>693.011</ele>
        <time>2019-07-01T19:38:36.935Z</time>
      </trkpt>
      <trkpt lat="40.49570833" lon="-3.52243">
        <ele>693.011</ele>
        <time>2019-07-01T19:38:37.935Z</time>
      </trkpt>
      <trkpt lat="40.49566667" lon="-3.52250833">
        <ele>693.011</ele>
        <time>2019-07-01T19:38:38.935Z</time>
      </trkpt>
      <trkpt lat="40.49566667" lon="-3.52250833">
        <ele>693.011</ele>
        <time>2019-07-01T19:38:39.935Z</time>
      </trkpt>
      <trkpt lat="40.495585" lon="-3.52266">
        <ele>693.011</ele>
        <time>2019-07-01T19:38:40.935Z</time>
      </trkpt>
      <trkpt lat="40.495585" lon="-3.52266">
        <ele>693.011</ele>
        <time>2019-07-01T19:38:41.935Z</time>
      </trkpt>
      <trkpt lat="40.495505" lon="-3.52280167">
        <ele>692.011</ele>
        <time>2019-07-01T19:38:42.935Z</time>
      </trkpt>
      <trkpt lat="40.495505" lon="-3.52280167">
        <ele>692.011</ele>
        <time>2019-07-01T19:38:43.935Z</time>
      </trkpt>
      <trkpt lat="40.49542833" lon="-3.52293667">
        <ele>692.011</ele>
        <time>2019-07-01T19:38:44.935Z</time>
      </trkpt>
      <trkpt lat="40.49539167" lon="-3.52300167">
        <ele>692.011</ele>
        <time>2019-07-01T19:38:45.935Z</time>
      </trkpt>
      <trkpt lat="40.49539167" lon="-3.52300167">
        <ele>692.011</ele>
        <time>2019-07-01T19:38:46.935Z</time>
      </trkpt>
      <trkpt lat="40.49532" lon="-3.52312333">
        <ele>692.011</ele>
        <time>2019-07-01T19:38:47.935Z</time>
      </trkpt>
      <trkpt lat="40.49529" lon="-3.52318667">
        <ele>692.011</ele>
        <time>2019-07-01T19:38:48.935Z</time>
      </trkpt>
      <trkpt lat="40.49529" lon="-3.52318667">
        <ele>692.011</ele>
        <time>2019-07-01T19:38:49.935Z</time>
      </trkpt>
      <trkpt lat="40.49523833" lon="-3.523325">
        <ele>692.011</ele>
        <time>2019-07-01T19:38:50.935Z</time>
      </trkpt>
      <trkpt lat="40.49521667" lon="-3.523395">
        <ele>692.011</ele>
        <time>2019-07-01T19:38:51.935Z</time>
      </trkpt>
      <trkpt lat="40.49521667" lon="-3.523395">
        <ele>693.011</ele>
        <time>2019-07-01T19:38:52.935Z</time>
      </trkpt>
      <trkpt lat="40.49517833" lon="-3.52353833">
        <ele>693.011</ele>
        <time>2019-07-01T19:38:53.935Z</time>
      </trkpt>
      <trkpt lat="40.495165" lon="-3.52361167">
        <ele>693.011</ele>
        <time>2019-07-01T19:38:54.935Z</time>
      </trkpt>
      <trkpt lat="40.495165" lon="-3.52361167">
        <ele>693.011</ele>
        <time>2019-07-01T19:38:55.935Z</time>
      </trkpt>
      <trkpt lat="40.49514167" lon="-3.52375833">
        <ele>693.011</ele>
        <time>2019-07-01T19:38:56.935Z</time>
      </trkpt>
      <trkpt lat="40.49513333" lon="-3.52383167">
        <ele>693.011</ele>
        <time>2019-07-01T19:38:57.935Z</time>
      </trkpt>
      <trkpt lat="40.49513333" lon="-3.52383167">
        <ele>694.011</ele>
        <time>2019-07-01T19:38:58.935Z</time>
      </trkpt>
      <trkpt lat="40.49511833" lon="-3.523965">
        <ele>694.011</ele>
        <time>2019-07-01T19:38:59.935Z</time>
      </trkpt>
      <trkpt lat="40.49511833" lon="-3.52403">
        <ele>694.011</ele>
        <time>2019-07-01T19:39:00.935Z</time>
      </trkpt>
      <trkpt lat="40.49511833" lon="-3.52403">
        <ele>694.011</ele>
        <time>2019-07-01T19:39:01.935Z</time>
      </trkpt>
      <trkpt lat="40.49512833" lon="-3.52417167">
        <ele>694.011</ele>
        <time>2019-07-01T19:39:02.935Z</time>
      </trkpt>
      <trkpt lat="40.49512833" lon="-3.52417167">
        <ele>694.011</ele>
        <time>2019-07-01T19:39:03.935Z</time>
      </trkpt>
      <trkpt lat="40.49515167" lon="-3.52431667">
        <ele>694.011</ele>
        <time>2019-07-01T19:39:04.935Z</time>
      </trkpt>
      <trkpt lat="40.49516833" lon="-3.52439167">
        <ele>694.011</ele>
        <time>2019-07-01T19:39:05.935Z</time>
      </trkpt>
      <trkpt lat="40.495185" lon="-3.52446667">
        <ele>694.011</ele>
        <time>2019-07-01T19:39:06.935Z</time>
      </trkpt>
      <trkpt lat="40.495185" lon="-3.52446667">
        <ele>694.011</ele>
        <time>2019-07-01T19:39:07.935Z</time>
      </trkpt>
      <trkpt lat="40.49523167" lon="-3.52462">
        <ele>694.011</ele>
        <time>2019-07-01T19:39:08.935Z</time>
      </trkpt>
      <trkpt lat="40.49525833" lon="-3.524695">
        <ele>694.011</ele>
        <time>2019-07-01T19:39:09.935Z</time>
      </trkpt>
      <trkpt lat="40.49525833" lon="-3.524695">
        <ele>694.011</ele>
        <time>2019-07-01T19:39:10.935Z</time>
      </trkpt>
      <trkpt lat="40.49531333" lon="-3.52484333">
        <ele>694.011</ele>
        <time>2019-07-01T19:39:11.935Z</time>
      </trkpt>
      <trkpt lat="40.495345" lon="-3.52491333">
        <ele>694.011</ele>
        <time>2019-07-01T19:39:12.935Z</time>
      </trkpt>
      <trkpt lat="40.495345" lon="-3.52491333">
        <ele>694.011</ele>
        <time>2019-07-01T19:39:13.935Z</time>
      </trkpt>
      <trkpt lat="40.49541833" lon="-3.52505333">
        <ele>694.011</ele>
        <time>2019-07-01T19:39:14.935Z</time>
      </trkpt>
      <trkpt lat="40.49541833" lon="-3.52505333">
        <ele>694.011</ele>
        <time>2019-07-01T19:39:15.935Z</time>
      </trkpt>
      <trkpt lat="40.49548833" lon="-3.52518833">
        <ele>694.011</ele>
        <time>2019-07-01T19:39:16.935Z</time>
      </trkpt>
      <trkpt lat="40.49548833" lon="-3.52518833">
        <ele>694.011</ele>
        <time>2019-07-01T19:39:17.935Z</time>
      </trkpt>
      <trkpt lat="40.49556667" lon="-3.52532167">
        <ele>693.011</ele>
        <time>2019-07-01T19:39:18.935Z</time>
      </trkpt>
      <trkpt lat="40.49556667" lon="-3.52532167">
        <ele>693.011</ele>
        <time>2019-07-01T19:39:19.935Z</time>
      </trkpt>
      <trkpt lat="40.495645" lon="-3.52545">
        <ele>693.011</ele>
        <time>2019-07-01T19:39:20.935Z</time>
      </trkpt>
      <trkpt lat="40.495645" lon="-3.52545">
        <ele>693.011</ele>
        <time>2019-07-01T19:39:21.935Z</time>
      </trkpt>
      <trkpt lat="40.49573" lon="-3.525575">
        <ele>693.011</ele>
        <time>2019-07-01T19:39:22.935Z</time>
      </trkpt>
      <trkpt lat="40.49573" lon="-3.525575">
        <ele>693.011</ele>
        <time>2019-07-01T19:39:23.935Z</time>
      </trkpt>
      <trkpt lat="40.495815" lon="-3.52569833">
        <ele>693.011</ele>
        <time>2019-07-01T19:39:24.935Z</time>
      </trkpt>
      <trkpt lat="40.495815" lon="-3.52569833">
        <ele>693.011</ele>
        <time>2019-07-01T19:39:25.935Z</time>
      </trkpt>
      <trkpt lat="40.49591" lon="-3.52580667">
        <ele>693.011</ele>
        <time>2019-07-01T19:39:26.935Z</time>
      </trkpt>
      <trkpt lat="40.49591" lon="-3.52580667">
        <ele>693.011</ele>
        <time>2019-07-01T19:39:27.935Z</time>
      </trkpt>
      <trkpt lat="40.49601333" lon="-3.525905">
        <ele>692.011</ele>
        <time>2019-07-01T19:39:28.935Z</time>
      </trkpt>
      <trkpt lat="40.49606333" lon="-3.52595333">
        <ele>692.011</ele>
        <time>2019-07-01T19:39:29.935Z</time>
      </trkpt>
      <trkpt lat="40.49611333" lon="-3.52600167">
        <ele>692.011</ele>
        <time>2019-07-01T19:39:30.935Z</time>
      </trkpt>
      <trkpt lat="40.49611333" lon="-3.52600167">
        <ele>692.011</ele>
        <time>2019-07-01T19:39:31.935Z</time>
      </trkpt>
      <trkpt lat="40.49622" lon="-3.52609833">
        <ele>692.011</ele>
        <time>2019-07-01T19:39:32.935Z</time>
      </trkpt>
      <trkpt lat="40.49622" lon="-3.52609833">
        <ele>692.011</ele>
        <time>2019-07-01T19:39:33.935Z</time>
      </trkpt>
      <trkpt lat="40.49632833" lon="-3.52618167">
        <ele>692.011</ele>
        <time>2019-07-01T19:39:34.935Z</time>
      </trkpt>
      <trkpt lat="40.49632833" lon="-3.52618167">
        <ele>692.011</ele>
        <time>2019-07-01T19:39:35.935Z</time>
      </trkpt>
      <trkpt lat="40.49644333" lon="-3.52625">
        <ele>692.011</ele>
        <time>2019-07-01T19:39:36.935Z</time>
      </trkpt>
      <trkpt lat="40.49644333" lon="-3.52625">
        <ele>691.011</ele>
        <time>2019-07-01T19:39:37.935Z</time>
      </trkpt>
      <trkpt lat="40.49655333" lon="-3.52631167">
        <ele>691.011</ele>
        <time>2019-07-01T19:39:38.935Z</time>
      </trkpt>
      <trkpt lat="40.49655333" lon="-3.52631167">
        <ele>691.011</ele>
        <time>2019-07-01T19:39:39.935Z</time>
      </trkpt>
      <trkpt lat="40.496675" lon="-3.52637167">
        <ele>691.011</ele>
        <time>2019-07-01T19:39:40.935Z</time>
      </trkpt>
      <trkpt lat="40.496675" lon="-3.52637167">
        <ele>691.011</ele>
        <time>2019-07-01T19:39:41.935Z</time>
      </trkpt>
      <trkpt lat="40.49678833" lon="-3.52642667">
        <ele>691.011</ele>
        <time>2019-07-01T19:39:42.935Z</time>
      </trkpt>
      <trkpt lat="40.49684667" lon="-3.52644667">
        <ele>691.011</ele>
        <time>2019-07-01T19:39:43.935Z</time>
      </trkpt>
      <trkpt lat="40.49684667" lon="-3.52644667">
        <ele>691.011</ele>
        <time>2019-07-01T19:39:44.935Z</time>
      </trkpt>
      <trkpt lat="40.496965" lon="-3.526485">
        <ele>691.011</ele>
        <time>2019-07-01T19:39:45.935Z</time>
      </trkpt>
      <trkpt lat="40.49702167" lon="-3.52650333">
        <ele>691.011</ele>
        <time>2019-07-01T19:39:46.935Z</time>
      </trkpt>
      <trkpt lat="40.49702167" lon="-3.52650333">
        <ele>690.011</ele>
        <time>2019-07-01T19:39:47.935Z</time>
      </trkpt>
      <trkpt lat="40.49713333" lon="-3.52654">
        <ele>690.011</ele>
        <time>2019-07-01T19:39:48.935Z</time>
      </trkpt>
      <trkpt lat="40.49713333" lon="-3.52654">
        <ele>690.011</ele>
        <time>2019-07-01T19:39:49.935Z</time>
      </trkpt>
      <trkpt lat="40.497245" lon="-3.52657">
        <ele>690.011</ele>
        <time>2019-07-01T19:39:50.935Z</time>
      </trkpt>
      <trkpt lat="40.497245" lon="-3.52657">
        <ele>689.011</ele>
        <time>2019-07-01T19:39:51.935Z</time>
      </trkpt>
      <trkpt lat="40.49735667" lon="-3.52659833">
        <ele>689.011</ele>
        <time>2019-07-01T19:39:52.935Z</time>
      </trkpt>
      <trkpt lat="40.49741167" lon="-3.52660667">
        <ele>689.011</ele>
        <time>2019-07-01T19:39:53.935Z</time>
      </trkpt>
      <trkpt lat="40.49746833" lon="-3.52660833">
        <ele>689.011</ele>
        <time>2019-07-01T19:39:54.935Z</time>
      </trkpt>
      <trkpt lat="40.49746833" lon="-3.52660833">
        <ele>689.011</ele>
        <time>2019-07-01T19:39:55.935Z</time>
      </trkpt>
      <trkpt lat="40.49758667" lon="-3.52661667">
        <ele>689.011</ele>
        <time>2019-07-01T19:39:56.935Z</time>
      </trkpt>
      <trkpt lat="40.497645" lon="-3.526615">
        <ele>688.011</ele>
        <time>2019-07-01T19:39:57.935Z</time>
      </trkpt>
      <trkpt lat="40.497645" lon="-3.526615">
        <ele>688.011</ele>
        <time>2019-07-01T19:39:58.935Z</time>
      </trkpt>
      <trkpt lat="40.49776333" lon="-3.52660667">
        <ele>688.011</ele>
        <time>2019-07-01T19:39:59.935Z</time>
      </trkpt>
      <trkpt lat="40.497815" lon="-3.5266">
        <ele>688.011</ele>
        <time>2019-07-01T19:40:00.935Z</time>
      </trkpt>
      <trkpt lat="40.497815" lon="-3.5266">
        <ele>688.011</ele>
        <time>2019-07-01T19:40:01.935Z</time>
      </trkpt>
      <trkpt lat="40.49792667" lon="-3.52657667">
        <ele>688.011</ele>
        <time>2019-07-01T19:40:02.935Z</time>
      </trkpt>
      <trkpt lat="40.49798167" lon="-3.52655833">
        <ele>687.011</ele>
        <time>2019-07-01T19:40:03.935Z</time>
      </trkpt>
      <trkpt lat="40.49798167" lon="-3.52655833">
        <ele>687.011</ele>
        <time>2019-07-01T19:40:04.935Z</time>
      </trkpt>
      <trkpt lat="40.49809667" lon="-3.52652667">
        <ele>687.011</ele>
        <time>2019-07-01T19:40:05.935Z</time>
      </trkpt>
      <trkpt lat="40.498155" lon="-3.526515">
        <ele>687.011</ele>
        <time>2019-07-01T19:40:06.935Z</time>
      </trkpt>
      <trkpt lat="40.498155" lon="-3.526515">
        <ele>687.011</ele>
        <time>2019-07-01T19:40:07.935Z</time>
      </trkpt>
      <trkpt lat="40.49826333" lon="-3.52648167">
        <ele>687.011</ele>
        <time>2019-07-01T19:40:08.935Z</time>
      </trkpt>
      <trkpt lat="40.49831667" lon="-3.52646167">
        <ele>687.011</ele>
        <time>2019-07-01T19:40:09.935Z</time>
      </trkpt>
      <trkpt lat="40.49831667" lon="-3.52646167">
        <ele>687.011</ele>
        <time>2019-07-01T19:40:10.935Z</time>
      </trkpt>
      <trkpt lat="40.49841833" lon="-3.526415">
        <ele>687.011</ele>
        <time>2019-07-01T19:40:11.935Z</time>
      </trkpt>
      <trkpt lat="40.49845333" lon="-3.526405">
        <ele>687.011</ele>
        <time>2019-07-01T19:40:12.935Z</time>
      </trkpt>
      <trkpt lat="40.49845333" lon="-3.526405">
        <ele>687.011</ele>
        <time>2019-07-01T19:40:13.935Z</time>
      </trkpt>
      <trkpt lat="40.498545" lon="-3.52643833">
        <ele>687.011</ele>
        <time>2019-07-01T19:40:14.935Z</time>
      </trkpt>
      <trkpt lat="40.498575" lon="-3.52648667">
        <ele>687.011</ele>
        <time>2019-07-01T19:40:15.935Z</time>
      </trkpt>
      <trkpt lat="40.498575" lon="-3.52648667">
        <ele>687.011</ele>
        <time>2019-07-01T19:40:16.935Z</time>
      </trkpt>
      <trkpt lat="40.498615" lon="-3.52661833">
        <ele>687.011</ele>
        <time>2019-07-01T19:40:17.935Z</time>
      </trkpt>
      <trkpt lat="40.49861833" lon="-3.526695">
        <ele>687.011</ele>
        <time>2019-07-01T19:40:18.935Z</time>
      </trkpt>
      <trkpt lat="40.49861833" lon="-3.526695">
        <ele>685.011</ele>
        <time>2019-07-01T19:40:19.935Z</time>
      </trkpt>
      <trkpt lat="40.49864333" lon="-3.52687167">
        <ele>685.011</ele>
        <time>2019-07-01T19:40:20.935Z</time>
      </trkpt>
      <trkpt lat="40.49865" lon="-3.52697167">
        <ele>685.011</ele>
        <time>2019-07-01T19:40:21.935Z</time>
      </trkpt>
      <trkpt lat="40.49865" lon="-3.52697167">
        <ele>685.011</ele>
        <time>2019-07-01T19:40:22.935Z</time>
      </trkpt>
      <trkpt lat="40.49866167" lon="-3.52718667">
        <ele>685.011</ele>
        <time>2019-07-01T19:40:23.935Z</time>
      </trkpt>
      <trkpt lat="40.49866667" lon="-3.5273">
        <ele>684.011</ele>
        <time>2019-07-01T19:40:24.935Z</time>
      </trkpt>
      <trkpt lat="40.49866667" lon="-3.5273">
        <ele>684.011</ele>
        <time>2019-07-01T19:40:25.935Z</time>
      </trkpt>
      <trkpt lat="40.49867333" lon="-3.52754">
        <ele>684.011</ele>
        <time>2019-07-01T19:40:26.935Z</time>
      </trkpt>
      <trkpt lat="40.49867" lon="-3.52766833">
        <ele>684.011</ele>
        <time>2019-07-01T19:40:27.935Z</time>
      </trkpt>
      <trkpt lat="40.49867" lon="-3.52766833">
        <ele>682.011</ele>
        <time>2019-07-01T19:40:28.935Z</time>
      </trkpt>
      <trkpt lat="40.49866833" lon="-3.52793833">
        <ele>682.011</ele>
        <time>2019-07-01T19:40:29.935Z</time>
      </trkpt>
      <trkpt lat="40.498665" lon="-3.52808167">
        <ele>680.011</ele>
        <time>2019-07-01T19:40:30.935Z</time>
      </trkpt>
      <trkpt lat="40.498665" lon="-3.52808167">
        <ele>680.011</ele>
        <time>2019-07-01T19:40:31.935Z</time>
      </trkpt>
      <trkpt lat="40.49865667" lon="-3.52836833">
        <ele>679.011</ele>
        <time>2019-07-01T19:40:32.935Z</time>
      </trkpt>
      <trkpt lat="40.49865667" lon="-3.52836833">
        <ele>679.011</ele>
        <time>2019-07-01T19:40:33.935Z</time>
      </trkpt>
      <trkpt lat="40.49864333" lon="-3.52864833">
        <ele>678.011</ele>
        <time>2019-07-01T19:40:34.935Z</time>
      </trkpt>
      <trkpt lat="40.49863667" lon="-3.52878333">
        <ele>678.011</ele>
        <time>2019-07-01T19:40:35.935Z</time>
      </trkpt>
      <trkpt lat="40.49863667" lon="-3.52878333">
        <ele>678.011</ele>
        <time>2019-07-01T19:40:36.935Z</time>
      </trkpt>
      <trkpt lat="40.49861333" lon="-3.52905167">
        <ele>678.011</ele>
        <time>2019-07-01T19:40:37.935Z</time>
      </trkpt>
      <trkpt lat="40.49861333" lon="-3.52905167">
        <ele>677.011</ele>
        <time>2019-07-01T19:40:38.935Z</time>
      </trkpt>
      <trkpt lat="40.49858167" lon="-3.52931833">
        <ele>677.011</ele>
        <time>2019-07-01T19:40:39.935Z</time>
      </trkpt>
      <trkpt lat="40.49858167" lon="-3.52931833">
        <ele>677.011</ele>
        <time>2019-07-01T19:40:40.935Z</time>
      </trkpt>
      <trkpt lat="40.49854167" lon="-3.52958">
        <ele>677.011</ele>
        <time>2019-07-01T19:40:41.935Z</time>
      </trkpt>
      <trkpt lat="40.49852167" lon="-3.52971">
        <ele>677.011</ele>
        <time>2019-07-01T19:40:42.935Z</time>
      </trkpt>
      <trkpt lat="40.49852167" lon="-3.52971">
        <ele>677.011</ele>
        <time>2019-07-01T19:40:43.935Z</time>
      </trkpt>
      <trkpt lat="40.49848167" lon="-3.52996667">
        <ele>677.011</ele>
        <time>2019-07-01T19:40:44.935Z</time>
      </trkpt>
      <trkpt lat="40.49845667" lon="-3.53009">
        <ele>677.011</ele>
        <time>2019-07-01T19:40:45.935Z</time>
      </trkpt>
      <trkpt lat="40.49845667" lon="-3.53009">
        <ele>677.011</ele>
        <time>2019-07-01T19:40:46.935Z</time>
      </trkpt>
      <trkpt lat="40.49840833" lon="-3.530335">
        <ele>677.011</ele>
        <time>2019-07-01T19:40:47.935Z</time>
      </trkpt>
      <trkpt lat="40.49840833" lon="-3.530335">
        <ele>677.011</ele>
        <time>2019-07-01T19:40:48.935Z</time>
      </trkpt>
      <trkpt lat="40.49835333" lon="-3.53057667">
        <ele>677.011</ele>
        <time>2019-07-01T19:40:49.935Z</time>
      </trkpt>
      <trkpt lat="40.49835333" lon="-3.53057667">
        <ele>677.011</ele>
        <time>2019-07-01T19:40:50.935Z</time>
      </trkpt>
      <trkpt lat="40.498295" lon="-3.53081667">
        <ele>677.011</ele>
        <time>2019-07-01T19:40:51.935Z</time>
      </trkpt>
      <trkpt lat="40.49826167" lon="-3.53093333">
        <ele>677.011</ele>
        <time>2019-07-01T19:40:52.935Z</time>
      </trkpt>
      <trkpt lat="40.49826167" lon="-3.53093333">
        <ele>676.011</ele>
        <time>2019-07-01T19:40:53.935Z</time>
      </trkpt>
      <trkpt lat="40.49818667" lon="-3.53116333">
        <ele>676.011</ele>
        <time>2019-07-01T19:40:54.935Z</time>
      </trkpt>
      <trkpt lat="40.49818667" lon="-3.53116333">
        <ele>676.011</ele>
        <time>2019-07-01T19:40:55.935Z</time>
      </trkpt>
      <trkpt lat="40.49807833" lon="-3.53137">
        <ele>676.011</ele>
        <time>2019-07-01T19:40:56.935Z</time>
      </trkpt>
      <trkpt lat="40.49807833" lon="-3.53137">
        <ele>676.011</ele>
        <time>2019-07-01T19:40:57.935Z</time>
      </trkpt>
      <trkpt lat="40.49793833" lon="-3.53154167">
        <ele>676.011</ele>
        <time>2019-07-01T19:40:58.935Z</time>
      </trkpt>
      <trkpt lat="40.49793833" lon="-3.53154167">
        <ele>676.011</ele>
        <time>2019-07-01T19:40:59.935Z</time>
      </trkpt>
      <trkpt lat="40.497775" lon="-3.531665">
        <ele>676.011</ele>
        <time>2019-07-01T19:41:00.935Z</time>
      </trkpt>
      <trkpt lat="40.497775" lon="-3.531665">
        <ele>676.011</ele>
        <time>2019-07-01T19:41:01.935Z</time>
      </trkpt>
      <trkpt lat="40.497585" lon="-3.531745">
        <ele>676.011</ele>
        <time>2019-07-01T19:41:02.935Z</time>
      </trkpt>
      <trkpt lat="40.497585" lon="-3.531745">
        <ele>675.011</ele>
        <time>2019-07-01T19:41:03.935Z</time>
      </trkpt>
      <trkpt lat="40.49737833" lon="-3.53177833">
        <ele>675.011</ele>
        <time>2019-07-01T19:41:04.935Z</time>
      </trkpt>
      <trkpt lat="40.49737833" lon="-3.53177833">
        <ele>675.011</ele>
        <time>2019-07-01T19:41:05.935Z</time>
      </trkpt>
      <trkpt lat="40.49716833" lon="-3.53175167">
        <ele>675.011</ele>
        <time>2019-07-01T19:41:06.935Z</time>
      </trkpt>
      <trkpt lat="40.49716833" lon="-3.53175167">
        <ele>676.011</ele>
        <time>2019-07-01T19:41:07.935Z</time>
      </trkpt>
      <trkpt lat="40.49696667" lon="-3.53166667">
        <ele>676.011</ele>
        <time>2019-07-01T19:41:08.935Z</time>
      </trkpt>
      <trkpt lat="40.49696667" lon="-3.53166667">
        <ele>676.011</ele>
        <time>2019-07-01T19:41:09.935Z</time>
      </trkpt>
      <trkpt lat="40.49678333" lon="-3.53153167">
        <ele>676.011</ele>
        <time>2019-07-01T19:41:10.935Z</time>
      </trkpt>
      <trkpt lat="40.49678333" lon="-3.53153167">
        <ele>676.011</ele>
        <time>2019-07-01T19:41:11.935Z</time>
      </trkpt>
      <trkpt lat="40.496635" lon="-3.531345">
        <ele>676.011</ele>
        <time>2019-07-01T19:41:12.935Z</time>
      </trkpt>
      <trkpt lat="40.496635" lon="-3.531345">
        <ele>676.011</ele>
        <time>2019-07-01T19:41:13.935Z</time>
      </trkpt>
      <trkpt lat="40.49653" lon="-3.53114833">
        <ele>676.011</ele>
        <time>2019-07-01T19:41:14.935Z</time>
      </trkpt>
      <trkpt lat="40.49653" lon="-3.53114833">
        <ele>676.011</ele>
        <time>2019-07-01T19:41:15.935Z</time>
      </trkpt>
      <trkpt lat="40.49646" lon="-3.53095">
        <ele>676.011</ele>
        <time>2019-07-01T19:41:16.935Z</time>
      </trkpt>
      <trkpt lat="40.49646" lon="-3.53095">
        <ele>676.011</ele>
        <time>2019-07-01T19:41:17.935Z</time>
      </trkpt>
      <trkpt lat="40.496425" lon="-3.53075833">
        <ele>676.011</ele>
        <time>2019-07-01T19:41:18.935Z</time>
      </trkpt>
      <trkpt lat="40.496425" lon="-3.53075833">
        <ele>676.011</ele>
        <time>2019-07-01T19:41:19.935Z</time>
      </trkpt>
      <trkpt lat="40.49640667" lon="-3.53058333">
        <ele>676.011</ele>
        <time>2019-07-01T19:41:20.935Z</time>
      </trkpt>
      <trkpt lat="40.49640667" lon="-3.53058333">
        <ele>676.011</ele>
        <time>2019-07-01T19:41:21.935Z</time>
      </trkpt>
      <trkpt lat="40.49641167" lon="-3.530425">
        <ele>676.011</ele>
        <time>2019-07-01T19:41:22.935Z</time>
      </trkpt>
      <trkpt lat="40.49641167" lon="-3.530425">
        <ele>676.011</ele>
        <time>2019-07-01T19:41:23.935Z</time>
      </trkpt>
      <trkpt lat="40.49643333" lon="-3.53028">
        <ele>676.011</ele>
        <time>2019-07-01T19:41:24.935Z</time>
      </trkpt>
      <trkpt lat="40.49643333" lon="-3.53028">
        <ele>676.011</ele>
        <time>2019-07-01T19:41:25.935Z</time>
      </trkpt>
      <trkpt lat="40.496465" lon="-3.53014667">
        <ele>676.011</ele>
        <time>2019-07-01T19:41:26.935Z</time>
      </trkpt>
      <trkpt lat="40.49648667" lon="-3.53008333">
        <ele>676.011</ele>
        <time>2019-07-01T19:41:27.935Z</time>
      </trkpt>
      <trkpt lat="40.49648667" lon="-3.53008333">
        <ele>676.011</ele>
        <time>2019-07-01T19:41:28.935Z</time>
      </trkpt>
      <trkpt lat="40.49653167" lon="-3.52997">
        <ele>676.011</ele>
        <time>2019-07-01T19:41:29.935Z</time>
      </trkpt>
      <trkpt lat="40.49655333" lon="-3.52991833">
        <ele>676.011</ele>
        <time>2019-07-01T19:41:30.935Z</time>
      </trkpt>
      <trkpt lat="40.49655333" lon="-3.52991833">
        <ele>676.011</ele>
        <time>2019-07-01T19:41:31.935Z</time>
      </trkpt>
      <trkpt lat="40.49659167" lon="-3.529825">
        <ele>677.011</ele>
        <time>2019-07-01T19:41:32.935Z</time>
      </trkpt>
      <trkpt lat="40.49659167" lon="-3.529825">
        <ele>677.011</ele>
        <time>2019-07-01T19:41:33.935Z</time>
      </trkpt>
      <trkpt lat="40.49663" lon="-3.52973">
        <ele>677.011</ele>
        <time>2019-07-01T19:41:34.935Z</time>
      </trkpt>
      <trkpt lat="40.49663" lon="-3.52973">
        <ele>677.011</ele>
        <time>2019-07-01T19:41:35.935Z</time>
      </trkpt>
      <trkpt lat="40.49667167" lon="-3.52963167">
        <ele>677.011</ele>
        <time>2019-07-01T19:41:36.935Z</time>
      </trkpt>
      <trkpt lat="40.49667167" lon="-3.52963167">
        <ele>677.011</ele>
        <time>2019-07-01T19:41:37.935Z</time>
      </trkpt>
      <trkpt lat="40.496715" lon="-3.529535">
        <ele>677.011</ele>
        <time>2019-07-01T19:41:38.935Z</time>
      </trkpt>
      <trkpt lat="40.496715" lon="-3.529535">
        <ele>677.011</ele>
        <time>2019-07-01T19:41:39.935Z</time>
      </trkpt>
      <trkpt lat="40.49676167" lon="-3.529435">
        <ele>677.011</ele>
        <time>2019-07-01T19:41:40.935Z</time>
      </trkpt>
      <trkpt lat="40.49676167" lon="-3.529435">
        <ele>677.011</ele>
        <time>2019-07-01T19:41:41.935Z</time>
      </trkpt>
      <trkpt lat="40.49681333" lon="-3.52934">
        <ele>677.011</ele>
        <time>2019-07-01T19:41:42.935Z</time>
      </trkpt>
      <trkpt lat="40.49681333" lon="-3.52934">
        <ele>677.011</ele>
        <time>2019-07-01T19:41:43.935Z</time>
      </trkpt>
      <trkpt lat="40.49685833" lon="-3.52924833">
        <ele>677.011</ele>
        <time>2019-07-01T19:41:44.935Z</time>
      </trkpt>
      <trkpt lat="40.49688167" lon="-3.52920167">
        <ele>677.011</ele>
        <time>2019-07-01T19:41:45.935Z</time>
      </trkpt>
      <trkpt lat="40.49688167" lon="-3.52920167">
        <ele>677.011</ele>
        <time>2019-07-01T19:41:46.935Z</time>
      </trkpt>
      <trkpt lat="40.49693" lon="-3.52911333">
        <ele>677.011</ele>
        <time>2019-07-01T19:41:47.935Z</time>
      </trkpt>
      <trkpt lat="40.496955" lon="-3.52907167">
        <ele>678.011</ele>
        <time>2019-07-01T19:41:48.935Z</time>
      </trkpt>
      <trkpt lat="40.496955" lon="-3.52907167">
        <ele>678.011</ele>
        <time>2019-07-01T19:41:49.935Z</time>
      </trkpt>
      <trkpt lat="40.49700833" lon="-3.528985">
        <ele>678.011</ele>
        <time>2019-07-01T19:41:50.935Z</time>
      </trkpt>
      <trkpt lat="40.49703333" lon="-3.52894167">
        <ele>678.011</ele>
        <time>2019-07-01T19:41:51.935Z</time>
      </trkpt>
      <trkpt lat="40.49703333" lon="-3.52894167">
        <ele>678.011</ele>
        <time>2019-07-01T19:41:52.935Z</time>
      </trkpt>
      <trkpt lat="40.49708667" lon="-3.52885833">
        <ele>678.011</ele>
        <time>2019-07-01T19:41:53.935Z</time>
      </trkpt>
      <trkpt lat="40.49711167" lon="-3.528815">
        <ele>678.011</ele>
        <time>2019-07-01T19:41:54.935Z</time>
      </trkpt>
      <trkpt lat="40.49711167" lon="-3.528815">
        <ele>678.011</ele>
        <time>2019-07-01T19:41:55.935Z</time>
      </trkpt>
      <trkpt lat="40.49716667" lon="-3.528725">
        <ele>678.011</ele>
        <time>2019-07-01T19:41:56.935Z</time>
      </trkpt>
      <trkpt lat="40.49719833" lon="-3.52868167">
        <ele>678.011</ele>
        <time>2019-07-01T19:41:57.935Z</time>
      </trkpt>
      <trkpt lat="40.49722833" lon="-3.52864">
        <ele>678.011</ele>
        <time>2019-07-01T19:41:58.935Z</time>
      </trkpt>
      <trkpt lat="40.49722833" lon="-3.52864">
        <ele>678.011</ele>
        <time>2019-07-01T19:41:59.935Z</time>
      </trkpt>
      <trkpt lat="40.49728667" lon="-3.52855833">
        <ele>678.011</ele>
        <time>2019-07-01T19:42:00.935Z</time>
      </trkpt>
      <trkpt lat="40.49728667" lon="-3.52855833">
        <ele>678.011</ele>
        <time>2019-07-01T19:42:01.935Z</time>
      </trkpt>
      <trkpt lat="40.49735167" lon="-3.52846833">
        <ele>678.011</ele>
        <time>2019-07-01T19:42:02.935Z</time>
      </trkpt>
      <trkpt lat="40.497385" lon="-3.52842333">
        <ele>678.011</ele>
        <time>2019-07-01T19:42:03.935Z</time>
      </trkpt>
      <trkpt lat="40.497385" lon="-3.52842333">
        <ele>678.011</ele>
        <time>2019-07-01T19:42:04.935Z</time>
      </trkpt>
      <trkpt lat="40.49744833" lon="-3.52834">
        <ele>678.011</ele>
        <time>2019-07-01T19:42:05.935Z</time>
      </trkpt>
      <trkpt lat="40.49748167" lon="-3.5283">
        <ele>678.011</ele>
        <time>2019-07-01T19:42:06.935Z</time>
      </trkpt>
      <trkpt lat="40.49748167" lon="-3.5283">
        <ele>678.011</ele>
        <time>2019-07-01T19:42:07.935Z</time>
      </trkpt>
      <trkpt lat="40.49754667" lon="-3.52822">
        <ele>678.011</ele>
        <time>2019-07-01T19:42:08.935Z</time>
      </trkpt>
      <trkpt lat="40.49757667" lon="-3.52818167">
        <ele>678.011</ele>
        <time>2019-07-01T19:42:09.935Z</time>
      </trkpt>
      <trkpt lat="40.49757667" lon="-3.52818167">
        <ele>678.011</ele>
        <time>2019-07-01T19:42:10.935Z</time>
      </trkpt>
      <trkpt lat="40.49764333" lon="-3.52810833">
        <ele>678.011</ele>
        <time>2019-07-01T19:42:11.935Z</time>
      </trkpt>
      <trkpt lat="40.49768" lon="-3.52807833">
        <ele>678.011</ele>
        <time>2019-07-01T19:42:12.935Z</time>
      </trkpt>
      <trkpt lat="40.49771667" lon="-3.52805333">
        <ele>679.011</ele>
        <time>2019-07-01T19:42:13.935Z</time>
      </trkpt>
      <trkpt lat="40.49771667" lon="-3.52805333">
        <ele>679.011</ele>
        <time>2019-07-01T19:42:14.935Z</time>
      </trkpt>
      <trkpt lat="40.49779167" lon="-3.52801">
        <ele>679.011</ele>
        <time>2019-07-01T19:42:15.935Z</time>
      </trkpt>
      <trkpt lat="40.49779167" lon="-3.52801">
        <ele>679.011</ele>
        <time>2019-07-01T19:42:16.935Z</time>
      </trkpt>
      <trkpt lat="40.49786833" lon="-3.52797833">
        <ele>679.011</ele>
        <time>2019-07-01T19:42:17.935Z</time>
      </trkpt>
      <trkpt lat="40.49791" lon="-3.527965">
        <ele>679.011</ele>
        <time>2019-07-01T19:42:18.935Z</time>
      </trkpt>
      <trkpt lat="40.49791" lon="-3.527965">
        <ele>679.011</ele>
        <time>2019-07-01T19:42:19.935Z</time>
      </trkpt>
      <trkpt lat="40.497995" lon="-3.52794667">
        <ele>679.011</ele>
        <time>2019-07-01T19:42:20.935Z</time>
      </trkpt>
      <trkpt lat="40.497995" lon="-3.52794667">
        <ele>679.011</ele>
        <time>2019-07-01T19:42:21.935Z</time>
      </trkpt>
      <trkpt lat="40.49808833" lon="-3.527955">
        <ele>679.011</ele>
        <time>2019-07-01T19:42:22.935Z</time>
      </trkpt>
      <trkpt lat="40.49808833" lon="-3.527955">
        <ele>679.011</ele>
        <time>2019-07-01T19:42:23.935Z</time>
      </trkpt>
      <trkpt lat="40.49818167" lon="-3.52797333">
        <ele>679.011</ele>
        <time>2019-07-01T19:42:24.935Z</time>
      </trkpt>
      <trkpt lat="40.49818167" lon="-3.52797333">
        <ele>679.011</ele>
        <time>2019-07-01T19:42:25.935Z</time>
      </trkpt>
      <trkpt lat="40.49827333" lon="-3.52799167">
        <ele>679.011</ele>
        <time>2019-07-01T19:42:26.935Z</time>
      </trkpt>
      <trkpt lat="40.49831667" lon="-3.52799833">
        <ele>679.011</ele>
        <time>2019-07-01T19:42:27.935Z</time>
      </trkpt>
      <trkpt lat="40.49831667" lon="-3.52799833">
        <ele>679.011</ele>
        <time>2019-07-01T19:42:28.935Z</time>
      </trkpt>
      <trkpt lat="40.4984" lon="-3.52801833">
        <ele>679.011</ele>
        <time>2019-07-01T19:42:29.935Z</time>
      </trkpt>
      <trkpt lat="40.49844167" lon="-3.52802667">
        <ele>679.011</ele>
        <time>2019-07-01T19:42:30.935Z</time>
      </trkpt>
      <trkpt lat="40.49844167" lon="-3.52802667">
        <ele>679.011</ele>
        <time>2019-07-01T19:42:31.935Z</time>
      </trkpt>
      <trkpt lat="40.49852333" lon="-3.52804167">
        <ele>678.011</ele>
        <time>2019-07-01T19:42:32.935Z</time>
      </trkpt>
      <trkpt lat="40.49852333" lon="-3.52804167">
        <ele>678.011</ele>
        <time>2019-07-01T19:42:33.935Z</time>
      </trkpt>
      <trkpt lat="40.49859" lon="-3.52803167">
        <ele>678.011</ele>
        <time>2019-07-01T19:42:34.935Z</time>
      </trkpt>
      <trkpt lat="40.49859" lon="-3.52803167">
        <ele>678.011</ele>
        <time>2019-07-01T19:42:35.935Z</time>
      </trkpt>
      <trkpt lat="40.49862" lon="-3.52794667">
        <ele>678.011</ele>
        <time>2019-07-01T19:42:36.935Z</time>
      </trkpt>
      <trkpt lat="40.49862" lon="-3.52794667">
        <ele>678.011</ele>
        <time>2019-07-01T19:42:37.935Z</time>
      </trkpt>
      <trkpt lat="40.49863333" lon="-3.52783667">
        <ele>678.011</ele>
        <time>2019-07-01T19:42:38.935Z</time>
      </trkpt>
      <trkpt lat="40.49863333" lon="-3.52783667">
        <ele>678.011</ele>
        <time>2019-07-01T19:42:39.935Z</time>
      </trkpt>
      <trkpt lat="40.49863333" lon="-3.52771833">
        <ele>678.011</ele>
        <time>2019-07-01T19:42:40.935Z</time>
      </trkpt>
      <trkpt lat="40.49863333" lon="-3.52771833">
        <ele>678.011</ele>
        <time>2019-07-01T19:42:41.935Z</time>
      </trkpt>
      <trkpt lat="40.49863333" lon="-3.527595">
        <ele>679.011</ele>
        <time>2019-07-01T19:42:42.935Z</time>
      </trkpt>
      <trkpt lat="40.49863333" lon="-3.527595">
        <ele>679.011</ele>
        <time>2019-07-01T19:42:43.935Z</time>
      </trkpt>
      <trkpt lat="40.49863167" lon="-3.52748">
        <ele>679.011</ele>
        <time>2019-07-01T19:42:44.935Z</time>
      </trkpt>
      <trkpt lat="40.49862833" lon="-3.52742833">
        <ele>679.011</ele>
        <time>2019-07-01T19:42:45.935Z</time>
      </trkpt>
      <trkpt lat="40.49862833" lon="-3.52742833">
        <ele>681.011</ele>
        <time>2019-07-01T19:42:46.935Z</time>
      </trkpt>
      <trkpt lat="40.49862667" lon="-3.52733333">
        <ele>681.011</ele>
        <time>2019-07-01T19:42:47.935Z</time>
      </trkpt>
      <trkpt lat="40.49862667" lon="-3.52728667">
        <ele>681.011</ele>
        <time>2019-07-01T19:42:48.935Z</time>
      </trkpt>
      <trkpt lat="40.49862667" lon="-3.52728667">
        <ele>681.011</ele>
        <time>2019-07-01T19:42:49.935Z</time>
      </trkpt>
      <trkpt lat="40.49862167" lon="-3.52719">
        <ele>682.011</ele>
        <time>2019-07-01T19:42:50.935Z</time>
      </trkpt>
      <trkpt lat="40.49862167" lon="-3.52719">
        <ele>682.011</ele>
        <time>2019-07-01T19:42:51.935Z</time>
      </trkpt>
      <trkpt lat="40.49862" lon="-3.52708333">
        <ele>683.011</ele>
        <time>2019-07-01T19:42:52.935Z</time>
      </trkpt>
      <trkpt lat="40.49862" lon="-3.52708333">
        <ele>683.011</ele>
        <time>2019-07-01T19:42:53.935Z</time>
      </trkpt>
      <trkpt lat="40.49861333" lon="-3.52698333">
        <ele>683.011</ele>
        <time>2019-07-01T19:42:54.935Z</time>
      </trkpt>
      <trkpt lat="40.49861333" lon="-3.52698333">
        <ele>683.011</ele>
        <time>2019-07-01T19:42:55.935Z</time>
      </trkpt>
      <trkpt lat="40.49860333" lon="-3.52688667">
        <ele>683.011</ele>
        <time>2019-07-01T19:42:56.935Z</time>
      </trkpt>
      <trkpt lat="40.49860167" lon="-3.52684">
        <ele>683.011</ele>
        <time>2019-07-01T19:42:57.935Z</time>
      </trkpt>
      <trkpt lat="40.49860167" lon="-3.52684">
        <ele>684.011</ele>
        <time>2019-07-01T19:42:58.935Z</time>
      </trkpt>
      <trkpt lat="40.498595" lon="-3.52674833">
        <ele>684.011</ele>
        <time>2019-07-01T19:42:59.935Z</time>
      </trkpt>
      <trkpt lat="40.49859" lon="-3.52670667">
        <ele>684.011</ele>
        <time>2019-07-01T19:43:00.935Z</time>
      </trkpt>
      <trkpt lat="40.49859" lon="-3.52670667">
        <ele>684.011</ele>
        <time>2019-07-01T19:43:01.935Z</time>
      </trkpt>
      <trkpt lat="40.498585" lon="-3.52662167">
        <ele>685.011</ele>
        <time>2019-07-01T19:43:02.935Z</time>
      </trkpt>
      <trkpt lat="40.49858" lon="-3.52658">
        <ele>685.011</ele>
        <time>2019-07-01T19:43:03.935Z</time>
      </trkpt>
      <trkpt lat="40.49858" lon="-3.52658">
        <ele>687.011</ele>
        <time>2019-07-01T19:43:04.935Z</time>
      </trkpt>
      <trkpt lat="40.49857333" lon="-3.526495">
        <ele>687.011</ele>
        <time>2019-07-01T19:43:05.935Z</time>
      </trkpt>
      <trkpt lat="40.49857333" lon="-3.526495">
        <ele>687.011</ele>
        <time>2019-07-01T19:43:06.935Z</time>
      </trkpt>
      <trkpt lat="40.49856833" lon="-3.526415">
        <ele>687.011</ele>
        <time>2019-07-01T19:43:07.935Z</time>
      </trkpt>
      <trkpt lat="40.49856833" lon="-3.526415">
        <ele>687.011</ele>
        <time>2019-07-01T19:43:08.935Z</time>
      </trkpt>
      <trkpt lat="40.49859167" lon="-3.526335">
        <ele>687.011</ele>
        <time>2019-07-01T19:43:09.935Z</time>
      </trkpt>
      <trkpt lat="40.49859167" lon="-3.526335">
        <ele>687.011</ele>
        <time>2019-07-01T19:43:10.935Z</time>
      </trkpt>
      <trkpt lat="40.498645" lon="-3.526275">
        <ele>687.011</ele>
        <time>2019-07-01T19:43:11.935Z</time>
      </trkpt>
      <trkpt lat="40.49867833" lon="-3.52625333">
        <ele>687.011</ele>
        <time>2019-07-01T19:43:12.935Z</time>
      </trkpt>
      <trkpt lat="40.49867833" lon="-3.52625333">
        <ele>687.011</ele>
        <time>2019-07-01T19:43:13.935Z</time>
      </trkpt>
      <trkpt lat="40.49874167" lon="-3.52621">
        <ele>687.011</ele>
        <time>2019-07-01T19:43:14.935Z</time>
      </trkpt>
      <trkpt lat="40.49877833" lon="-3.526195">
        <ele>687.011</ele>
        <time>2019-07-01T19:43:15.935Z</time>
      </trkpt>
      <trkpt lat="40.49877833" lon="-3.526195">
        <ele>687.011</ele>
        <time>2019-07-01T19:43:16.935Z</time>
      </trkpt>
      <trkpt lat="40.49885667" lon="-3.52616333">
        <ele>687.011</ele>
        <time>2019-07-01T19:43:17.935Z</time>
      </trkpt>
      <trkpt lat="40.49889833" lon="-3.52614833">
        <ele>687.011</ele>
        <time>2019-07-01T19:43:18.935Z</time>
      </trkpt>
      <trkpt lat="40.49889833" lon="-3.52614833">
        <ele>687.011</ele>
        <time>2019-07-01T19:43:19.935Z</time>
      </trkpt>
      <trkpt lat="40.49898667" lon="-3.526125">
        <ele>687.011</ele>
        <time>2019-07-01T19:43:20.935Z</time>
      </trkpt>
      <trkpt lat="40.49903333" lon="-3.526115">
        <ele>687.011</ele>
        <time>2019-07-01T19:43:21.935Z</time>
      </trkpt>
      <trkpt lat="40.49903333" lon="-3.526115">
        <ele>687.011</ele>
        <time>2019-07-01T19:43:22.935Z</time>
      </trkpt>
      <trkpt lat="40.49913167" lon="-3.526105">
        <ele>687.011</ele>
        <time>2019-07-01T19:43:23.935Z</time>
      </trkpt>
      <trkpt lat="40.49913167" lon="-3.526105">
        <ele>687.011</ele>
        <time>2019-07-01T19:43:24.935Z</time>
      </trkpt>
      <trkpt lat="40.49923333" lon="-3.526105">
        <ele>687.011</ele>
        <time>2019-07-01T19:43:25.935Z</time>
      </trkpt>
      <trkpt lat="40.49923333" lon="-3.526105">
        <ele>687.011</ele>
        <time>2019-07-01T19:43:26.935Z</time>
      </trkpt>
      <trkpt lat="40.49933333" lon="-3.52611333">
        <ele>687.011</ele>
        <time>2019-07-01T19:43:27.935Z</time>
      </trkpt>
      <trkpt lat="40.49933333" lon="-3.52611333">
        <ele>687.011</ele>
        <time>2019-07-01T19:43:28.935Z</time>
      </trkpt>
      <trkpt lat="40.49942667" lon="-3.526135">
        <ele>687.011</ele>
        <time>2019-07-01T19:43:29.935Z</time>
      </trkpt>
      <trkpt lat="40.49942667" lon="-3.526135">
        <ele>687.011</ele>
        <time>2019-07-01T19:43:30.935Z</time>
      </trkpt>
      <trkpt lat="40.49951833" lon="-3.52616">
        <ele>687.011</ele>
        <time>2019-07-01T19:43:31.935Z</time>
      </trkpt>
      <trkpt lat="40.49951833" lon="-3.52616">
        <ele>687.011</ele>
        <time>2019-07-01T19:43:32.935Z</time>
      </trkpt>
      <trkpt lat="40.49961167" lon="-3.52618">
        <ele>687.011</ele>
        <time>2019-07-01T19:43:33.935Z</time>
      </trkpt>
      <trkpt lat="40.49961167" lon="-3.52618">
        <ele>687.011</ele>
        <time>2019-07-01T19:43:34.935Z</time>
      </trkpt>
      <trkpt lat="40.499705" lon="-3.52621667">
        <ele>687.011</ele>
        <time>2019-07-01T19:43:35.935Z</time>
      </trkpt>
      <trkpt lat="40.49975167" lon="-3.52624333">
        <ele>687.011</ele>
        <time>2019-07-01T19:43:36.935Z</time>
      </trkpt>
      <trkpt lat="40.49975167" lon="-3.52624333">
        <ele>687.011</ele>
        <time>2019-07-01T19:43:37.935Z</time>
      </trkpt>
      <trkpt lat="40.49985667" lon="-3.526295">
        <ele>687.011</ele>
        <time>2019-07-01T19:43:38.935Z</time>
      </trkpt>
      <trkpt lat="40.49985667" lon="-3.526295">
        <ele>687.011</ele>
        <time>2019-07-01T19:43:39.935Z</time>
      </trkpt>
      <trkpt lat="40.49997667" lon="-3.52634">
        <ele>687.011</ele>
        <time>2019-07-01T19:43:40.935Z</time>
      </trkpt>
      <trkpt lat="40.49997667" lon="-3.52634">
        <ele>687.011</ele>
        <time>2019-07-01T19:43:41.935Z</time>
      </trkpt>
      <trkpt lat="40.50009" lon="-3.52638667">
        <ele>687.011</ele>
        <time>2019-07-01T19:43:42.935Z</time>
      </trkpt>
      <trkpt lat="40.50009" lon="-3.52638667">
        <ele>687.011</ele>
        <time>2019-07-01T19:43:43.935Z</time>
      </trkpt>
      <trkpt lat="40.50021333" lon="-3.52643167">
        <ele>687.011</ele>
        <time>2019-07-01T19:43:44.935Z</time>
      </trkpt>
      <trkpt lat="40.50021333" lon="-3.52643167">
        <ele>687.011</ele>
        <time>2019-07-01T19:43:45.935Z</time>
      </trkpt>
      <trkpt lat="40.50033333" lon="-3.52646833">
        <ele>687.011</ele>
        <time>2019-07-01T19:43:46.935Z</time>
      </trkpt>
      <trkpt lat="40.50033333" lon="-3.52646833">
        <ele>687.011</ele>
        <time>2019-07-01T19:43:47.935Z</time>
      </trkpt>
      <trkpt lat="40.50045833" lon="-3.526495">
        <ele>687.011</ele>
        <time>2019-07-01T19:43:48.935Z</time>
      </trkpt>
      <trkpt lat="40.50052333" lon="-3.52650833">
        <ele>687.011</ele>
        <time>2019-07-01T19:43:49.935Z</time>
      </trkpt>
      <trkpt lat="40.50052333" lon="-3.52650833">
        <ele>687.011</ele>
        <time>2019-07-01T19:43:50.935Z</time>
      </trkpt>
      <trkpt lat="40.50064667" lon="-3.52653333">
        <ele>687.011</ele>
        <time>2019-07-01T19:43:51.935Z</time>
      </trkpt>
      <trkpt lat="40.50064667" lon="-3.52653333">
        <ele>687.011</ele>
        <time>2019-07-01T19:43:52.935Z</time>
      </trkpt>
      <trkpt lat="40.50075833" lon="-3.52654667">
        <ele>687.011</ele>
        <time>2019-07-01T19:43:53.935Z</time>
      </trkpt>
      <trkpt lat="40.50075833" lon="-3.52654667">
        <ele>687.011</ele>
        <time>2019-07-01T19:43:54.935Z</time>
      </trkpt>
      <trkpt lat="40.50086333" lon="-3.52655333">
        <ele>687.011</ele>
        <time>2019-07-01T19:43:55.935Z</time>
      </trkpt>
      <trkpt lat="40.50086333" lon="-3.52655333">
        <ele>687.011</ele>
        <time>2019-07-01T19:43:56.935Z</time>
      </trkpt>
      <trkpt lat="40.50096667" lon="-3.52656">
        <ele>687.011</ele>
        <time>2019-07-01T19:43:57.935Z</time>
      </trkpt>
      <trkpt lat="40.50096667" lon="-3.52656">
        <ele>687.011</ele>
        <time>2019-07-01T19:43:58.935Z</time>
      </trkpt>
      <trkpt lat="40.50107" lon="-3.526565">
        <ele>687.011</ele>
        <time>2019-07-01T19:43:59.935Z</time>
      </trkpt>
      <trkpt lat="40.501125" lon="-3.526565">
        <ele>687.011</ele>
        <time>2019-07-01T19:44:00.935Z</time>
      </trkpt>
      <trkpt lat="40.501125" lon="-3.526565">
        <ele>687.011</ele>
        <time>2019-07-01T19:44:01.935Z</time>
      </trkpt>
      <trkpt lat="40.50123333" lon="-3.52656333">
        <ele>687.011</ele>
        <time>2019-07-01T19:44:02.935Z</time>
      </trkpt>
      <trkpt lat="40.50128667" lon="-3.52655833">
        <ele>687.011</ele>
        <time>2019-07-01T19:44:03.935Z</time>
      </trkpt>
      <trkpt lat="40.50128667" lon="-3.52655833">
        <ele>687.011</ele>
        <time>2019-07-01T19:44:04.935Z</time>
      </trkpt>
      <trkpt lat="40.501395" lon="-3.52653833">
        <ele>687.011</ele>
        <time>2019-07-01T19:44:05.935Z</time>
      </trkpt>
      <trkpt lat="40.50144667" lon="-3.52651833">
        <ele>687.011</ele>
        <time>2019-07-01T19:44:06.935Z</time>
      </trkpt>
      <trkpt lat="40.50144667" lon="-3.52651833">
        <ele>687.011</ele>
        <time>2019-07-01T19:44:07.935Z</time>
      </trkpt>
      <trkpt lat="40.50153667" lon="-3.52647">
        <ele>687.011</ele>
        <time>2019-07-01T19:44:08.935Z</time>
      </trkpt>
      <trkpt lat="40.501585" lon="-3.526435">
        <ele>687.011</ele>
        <time>2019-07-01T19:44:09.935Z</time>
      </trkpt>
      <trkpt lat="40.501585" lon="-3.526435">
        <ele>687.011</ele>
        <time>2019-07-01T19:44:10.935Z</time>
      </trkpt>
      <trkpt lat="40.50166167" lon="-3.52636">
        <ele>687.011</ele>
        <time>2019-07-01T19:44:11.935Z</time>
      </trkpt>
      <trkpt lat="40.50166167" lon="-3.52636">
        <ele>687.011</ele>
        <time>2019-07-01T19:44:12.935Z</time>
      </trkpt>
      <trkpt lat="40.501735" lon="-3.52628333">
        <ele>687.011</ele>
        <time>2019-07-01T19:44:13.935Z</time>
      </trkpt>
      <trkpt lat="40.501735" lon="-3.52628333">
        <ele>687.011</ele>
        <time>2019-07-01T19:44:14.935Z</time>
      </trkpt>
      <trkpt lat="40.50179167" lon="-3.52619">
        <ele>687.011</ele>
        <time>2019-07-01T19:44:15.935Z</time>
      </trkpt>
      <trkpt lat="40.50179167" lon="-3.52619">
        <ele>687.011</ele>
        <time>2019-07-01T19:44:16.935Z</time>
      </trkpt>
      <trkpt lat="40.50183333" lon="-3.52608333">
        <ele>687.011</ele>
        <time>2019-07-01T19:44:17.935Z</time>
      </trkpt>
      <trkpt lat="40.50185" lon="-3.52602833">
        <ele>687.011</ele>
        <time>2019-07-01T19:44:18.935Z</time>
      </trkpt>
      <trkpt lat="40.50185" lon="-3.52602833">
        <ele>687.011</ele>
        <time>2019-07-01T19:44:19.935Z</time>
      </trkpt>
      <trkpt lat="40.50187667" lon="-3.52591333">
        <ele>687.011</ele>
        <time>2019-07-01T19:44:20.935Z</time>
      </trkpt>
      <trkpt lat="40.50187667" lon="-3.52591333">
        <ele>687.011</ele>
        <time>2019-07-01T19:44:21.935Z</time>
      </trkpt>
      <trkpt lat="40.50190167" lon="-3.52579833">
        <ele>687.011</ele>
        <time>2019-07-01T19:44:22.935Z</time>
      </trkpt>
      <trkpt lat="40.50190167" lon="-3.52579833">
        <ele>687.011</ele>
        <time>2019-07-01T19:44:23.935Z</time>
      </trkpt>
      <trkpt lat="40.50192833" lon="-3.52568667">
        <ele>688.011</ele>
        <time>2019-07-01T19:44:24.935Z</time>
      </trkpt>
      <trkpt lat="40.50192833" lon="-3.52568667">
        <ele>688.011</ele>
        <time>2019-07-01T19:44:25.935Z</time>
      </trkpt>
      <trkpt lat="40.501955" lon="-3.52557667">
        <ele>688.011</ele>
        <time>2019-07-01T19:44:26.935Z</time>
      </trkpt>
      <trkpt lat="40.501965" lon="-3.52552167">
        <ele>688.011</ele>
        <time>2019-07-01T19:44:27.935Z</time>
      </trkpt>
      <trkpt lat="40.501965" lon="-3.52552167">
        <ele>688.011</ele>
        <time>2019-07-01T19:44:28.935Z</time>
      </trkpt>
      <trkpt lat="40.50198833" lon="-3.525415">
        <ele>688.011</ele>
        <time>2019-07-01T19:44:29.935Z</time>
      </trkpt>
      <trkpt lat="40.502" lon="-3.52536333">
        <ele>688.011</ele>
        <time>2019-07-01T19:44:30.935Z</time>
      </trkpt>
      <trkpt lat="40.502" lon="-3.52536333">
        <ele>688.011</ele>
        <time>2019-07-01T19:44:31.935Z</time>
      </trkpt>
      <trkpt lat="40.50202" lon="-3.52525667">
        <ele>688.011</ele>
        <time>2019-07-01T19:44:32.935Z</time>
      </trkpt>
      <trkpt lat="40.50203167" lon="-3.525205">
        <ele>688.011</ele>
        <time>2019-07-01T19:44:33.935Z</time>
      </trkpt>
      <trkpt lat="40.50203167" lon="-3.525205">
        <ele>688.011</ele>
        <time>2019-07-01T19:44:34.935Z</time>
      </trkpt>
      <trkpt lat="40.50204833" lon="-3.5251">
        <ele>688.011</ele>
        <time>2019-07-01T19:44:35.935Z</time>
      </trkpt>
      <trkpt lat="40.50205667" lon="-3.525045">
        <ele>688.011</ele>
        <time>2019-07-01T19:44:36.935Z</time>
      </trkpt>
      <trkpt lat="40.50205667" lon="-3.525045">
        <ele>688.011</ele>
        <time>2019-07-01T19:44:37.935Z</time>
      </trkpt>
      <trkpt lat="40.50208" lon="-3.524945">
        <ele>689.011</ele>
        <time>2019-07-01T19:44:38.935Z</time>
      </trkpt>
      <trkpt lat="40.50209167" lon="-3.52489833">
        <ele>689.011</ele>
        <time>2019-07-01T19:44:39.935Z</time>
      </trkpt>
      <trkpt lat="40.50209167" lon="-3.52489833">
        <ele>689.011</ele>
        <time>2019-07-01T19:44:40.935Z</time>
      </trkpt>
      <trkpt lat="40.50211333" lon="-3.52480333">
        <ele>689.011</ele>
        <time>2019-07-01T19:44:41.935Z</time>
      </trkpt>
      <trkpt lat="40.50212667" lon="-3.524755">
        <ele>689.011</ele>
        <time>2019-07-01T19:44:42.935Z</time>
      </trkpt>
      <trkpt lat="40.50212667" lon="-3.524755">
        <ele>689.011</ele>
        <time>2019-07-01T19:44:43.935Z</time>
      </trkpt>
      <trkpt lat="40.50215" lon="-3.52464667">
        <ele>689.011</ele>
        <time>2019-07-01T19:44:44.935Z</time>
      </trkpt>
      <trkpt lat="40.50215667" lon="-3.52458833">
        <ele>689.011</ele>
        <time>2019-07-01T19:44:45.935Z</time>
      </trkpt>
      <trkpt lat="40.50215667" lon="-3.52458833">
        <ele>689.011</ele>
        <time>2019-07-01T19:44:46.935Z</time>
      </trkpt>
      <trkpt lat="40.50213667" lon="-3.52447833">
        <ele>689.011</ele>
        <time>2019-07-01T19:44:47.935Z</time>
      </trkpt>
      <trkpt lat="40.50210667" lon="-3.52443833">
        <ele>689.011</ele>
        <time>2019-07-01T19:44:48.935Z</time>
      </trkpt>
      <trkpt lat="40.50210667" lon="-3.52443833">
        <ele>689.011</ele>
        <time>2019-07-01T19:44:49.935Z</time>
      </trkpt>
      <trkpt lat="40.50203167" lon="-3.52438333">
        <ele>689.011</ele>
        <time>2019-07-01T19:44:50.935Z</time>
      </trkpt>
      <trkpt lat="40.50199333" lon="-3.524355">
        <ele>689.011</ele>
        <time>2019-07-01T19:44:51.935Z</time>
      </trkpt>
      <trkpt lat="40.50199333" lon="-3.524355">
        <ele>689.011</ele>
        <time>2019-07-01T19:44:52.935Z</time>
      </trkpt>
      <trkpt lat="40.50191167" lon="-3.5243">
        <ele>689.011</ele>
        <time>2019-07-01T19:44:53.935Z</time>
      </trkpt>
      <trkpt lat="40.50187167" lon="-3.52427333">
        <ele>690.011</ele>
        <time>2019-07-01T19:44:54.935Z</time>
      </trkpt>
      <trkpt lat="40.50187167" lon="-3.52427333">
        <ele>690.011</ele>
        <time>2019-07-01T19:44:55.935Z</time>
      </trkpt>
      <trkpt lat="40.50179167" lon="-3.52422167">
        <ele>690.011</ele>
        <time>2019-07-01T19:44:56.935Z</time>
      </trkpt>
      <trkpt lat="40.50179167" lon="-3.52422167">
        <ele>690.011</ele>
        <time>2019-07-01T19:44:57.935Z</time>
      </trkpt>
      <trkpt lat="40.50171167" lon="-3.52417833">
        <ele>691.011</ele>
        <time>2019-07-01T19:44:58.935Z</time>
      </trkpt>
      <trkpt lat="40.50171167" lon="-3.52417833">
        <ele>691.011</ele>
        <time>2019-07-01T19:44:59.935Z</time>
      </trkpt>
      <trkpt lat="40.50162667" lon="-3.524135">
        <ele>693.011</ele>
        <time>2019-07-01T19:45:00.935Z</time>
      </trkpt>
      <trkpt lat="40.50162667" lon="-3.524135">
        <ele>693.011</ele>
        <time>2019-07-01T19:45:01.935Z</time>
      </trkpt>
      <trkpt lat="40.50154167" lon="-3.524085">
        <ele>693.011</ele>
        <time>2019-07-01T19:45:02.935Z</time>
      </trkpt>
      <trkpt lat="40.50149833" lon="-3.524065">
        <ele>693.011</ele>
        <time>2019-07-01T19:45:03.935Z</time>
      </trkpt>
      <trkpt lat="40.50146" lon="-3.524045">
        <ele>693.011</ele>
        <time>2019-07-01T19:45:04.935Z</time>
      </trkpt>
      <trkpt lat="40.50146" lon="-3.524045">
        <ele>694.011</ele>
        <time>2019-07-01T19:45:05.935Z</time>
      </trkpt>
      <trkpt lat="40.50139" lon="-3.52401333">
        <ele>694.011</ele>
        <time>2019-07-01T19:45:06.935Z</time>
      </trkpt>
      <trkpt lat="40.501355" lon="-3.523995">
        <ele>695.011</ele>
        <time>2019-07-01T19:45:07.935Z</time>
      </trkpt>
      <trkpt lat="40.501355" lon="-3.523995">
        <ele>695.011</ele>
        <time>2019-07-01T19:45:08.935Z</time>
      </trkpt>
      <trkpt lat="40.50128167" lon="-3.52396333">
        <ele>696.011</ele>
        <time>2019-07-01T19:45:09.935Z</time>
      </trkpt>
      <trkpt lat="40.50128167" lon="-3.52396333">
        <ele>696.011</ele>
        <time>2019-07-01T19:45:10.935Z</time>
      </trkpt>
      <trkpt lat="40.50121" lon="-3.52393">
        <ele>696.011</ele>
        <time>2019-07-01T19:45:11.935Z</time>
      </trkpt>
      <trkpt lat="40.50117333" lon="-3.52391333">
        <ele>696.011</ele>
        <time>2019-07-01T19:45:12.935Z</time>
      </trkpt>
      <trkpt lat="40.50117333" lon="-3.52391333">
        <ele>697.011</ele>
        <time>2019-07-01T19:45:13.935Z</time>
      </trkpt>
      <trkpt lat="40.501095" lon="-3.52388167">
        <ele>697.011</ele>
        <time>2019-07-01T19:45:14.935Z</time>
      </trkpt>
      <trkpt lat="40.501095" lon="-3.52388167">
        <ele>697.011</ele>
        <time>2019-07-01T19:45:15.935Z</time>
      </trkpt>
      <trkpt lat="40.50102" lon="-3.52385">
        <ele>697.011</ele>
        <time>2019-07-01T19:45:16.935Z</time>
      </trkpt>
      <trkpt lat="40.50102" lon="-3.52385">
        <ele>697.011</ele>
        <time>2019-07-01T19:45:17.935Z</time>
      </trkpt>
      <trkpt lat="40.500935" lon="-3.52381333">
        <ele>697.011</ele>
        <time>2019-07-01T19:45:18.935Z</time>
      </trkpt>
      <trkpt lat="40.500935" lon="-3.52381333">
        <ele>697.011</ele>
        <time>2019-07-01T19:45:19.935Z</time>
      </trkpt>
      <trkpt lat="40.50085" lon="-3.52378333">
        <ele>697.011</ele>
        <time>2019-07-01T19:45:20.935Z</time>
      </trkpt>
      <trkpt lat="40.50080833" lon="-3.52377167">
        <ele>697.011</ele>
        <time>2019-07-01T19:45:21.935Z</time>
      </trkpt>
      <trkpt lat="40.50080833" lon="-3.52377167">
        <ele>697.011</ele>
        <time>2019-07-01T19:45:22.935Z</time>
      </trkpt>
      <trkpt lat="40.50071667" lon="-3.52374333">
        <ele>697.011</ele>
        <time>2019-07-01T19:45:23.935Z</time>
      </trkpt>
      <trkpt lat="40.50071667" lon="-3.52374333">
        <ele>697.011</ele>
        <time>2019-07-01T19:45:24.935Z</time>
      </trkpt>
      <trkpt lat="40.50062333" lon="-3.52371">
        <ele>698.011</ele>
        <time>2019-07-01T19:45:25.935Z</time>
      </trkpt>
      <trkpt lat="40.500575" lon="-3.52369667">
        <ele>698.011</ele>
        <time>2019-07-01T19:45:26.935Z</time>
      </trkpt>
      <trkpt lat="40.500525" lon="-3.52368167">
        <ele>699.011</ele>
        <time>2019-07-01T19:45:27.935Z</time>
      </trkpt>
      <trkpt lat="40.500525" lon="-3.52368167">
        <ele>699.011</ele>
        <time>2019-07-01T19:45:28.935Z</time>
      </trkpt>
      <trkpt lat="40.50042167" lon="-3.523655">
        <ele>699.011</ele>
        <time>2019-07-01T19:45:29.935Z</time>
      </trkpt>
      <trkpt lat="40.50036833" lon="-3.523635">
        <ele>699.011</ele>
        <time>2019-07-01T19:45:30.935Z</time>
      </trkpt>
      <trkpt lat="40.50036833" lon="-3.523635">
        <ele>699.011</ele>
        <time>2019-07-01T19:45:31.935Z</time>
      </trkpt>
      <trkpt lat="40.50026" lon="-3.52358667">
        <ele>699.011</ele>
        <time>2019-07-01T19:45:32.935Z</time>
      </trkpt>
      <trkpt lat="40.50026" lon="-3.52358667">
        <ele>699.011</ele>
        <time>2019-07-01T19:45:33.935Z</time>
      </trkpt>
      <trkpt lat="40.50015" lon="-3.523545">
        <ele>699.011</ele>
        <time>2019-07-01T19:45:34.935Z</time>
      </trkpt>
      <trkpt lat="40.50015" lon="-3.523545">
        <ele>699.011</ele>
        <time>2019-07-01T19:45:35.935Z</time>
      </trkpt>
      <trkpt lat="40.50003167" lon="-3.52350333">
        <ele>699.011</ele>
        <time>2019-07-01T19:45:36.935Z</time>
      </trkpt>
      <trkpt lat="40.50003167" lon="-3.52350333">
        <ele>699.011</ele>
        <time>2019-07-01T19:45:37.935Z</time>
      </trkpt>
      <trkpt lat="40.49991333" lon="-3.52346">
        <ele>699.011</ele>
        <time>2019-07-01T19:45:38.935Z</time>
      </trkpt>
      <trkpt lat="40.49991333" lon="-3.52346">
        <ele>699.011</ele>
        <time>2019-07-01T19:45:39.935Z</time>
      </trkpt>
      <trkpt lat="40.49979667" lon="-3.52342">
        <ele>699.011</ele>
        <time>2019-07-01T19:45:40.935Z</time>
      </trkpt>
      <trkpt lat="40.49974" lon="-3.52340667">
        <ele>699.011</ele>
        <time>2019-07-01T19:45:41.935Z</time>
      </trkpt>
      <trkpt lat="40.49968167" lon="-3.52339333">
        <ele>699.011</ele>
        <time>2019-07-01T19:45:42.935Z</time>
      </trkpt>
      <trkpt lat="40.49968167" lon="-3.52339333">
        <ele>699.011</ele>
        <time>2019-07-01T19:45:43.935Z</time>
      </trkpt>
      <trkpt lat="40.499565" lon="-3.52336">
        <ele>699.011</ele>
        <time>2019-07-01T19:45:44.935Z</time>
      </trkpt>
      <trkpt lat="40.499565" lon="-3.52336">
        <ele>699.011</ele>
        <time>2019-07-01T19:45:45.935Z</time>
      </trkpt>
      <trkpt lat="40.49944667" lon="-3.52333667">
        <ele>699.011</ele>
        <time>2019-07-01T19:45:46.935Z</time>
      </trkpt>
      <trkpt lat="40.49944667" lon="-3.52333667">
        <ele>699.011</ele>
        <time>2019-07-01T19:45:47.935Z</time>
      </trkpt>
      <trkpt lat="40.49931" lon="-3.52330667">
        <ele>699.011</ele>
        <time>2019-07-01T19:45:48.935Z</time>
      </trkpt>
      <trkpt lat="40.49931" lon="-3.52330667">
        <ele>698.011</ele>
        <time>2019-07-01T19:45:49.935Z</time>
      </trkpt>
      <trkpt lat="40.49917" lon="-3.52328333">
        <ele>698.011</ele>
        <time>2019-07-01T19:45:50.935Z</time>
      </trkpt>
      <trkpt lat="40.499095" lon="-3.523275">
        <ele>698.011</ele>
        <time>2019-07-01T19:45:51.935Z</time>
      </trkpt>
      <trkpt lat="40.49901833" lon="-3.52326">
        <ele>698.011</ele>
        <time>2019-07-01T19:45:52.935Z</time>
      </trkpt>
      <trkpt lat="40.49901833" lon="-3.52326">
        <ele>698.011</ele>
        <time>2019-07-01T19:45:53.935Z</time>
      </trkpt>
      <trkpt lat="40.49885667" lon="-3.523225">
        <ele>698.011</ele>
        <time>2019-07-01T19:45:54.935Z</time>
      </trkpt>
      <trkpt lat="40.49885667" lon="-3.523225">
        <ele>698.011</ele>
        <time>2019-07-01T19:45:55.935Z</time>
      </trkpt>
      <trkpt lat="40.49868667" lon="-3.52319833">
        <ele>698.011</ele>
        <time>2019-07-01T19:45:56.935Z</time>
      </trkpt>
      <trkpt lat="40.49860667" lon="-3.52318333">
        <ele>698.011</ele>
        <time>2019-07-01T19:45:57.935Z</time>
      </trkpt>
      <trkpt lat="40.49860667" lon="-3.52318333">
        <ele>697.011</ele>
        <time>2019-07-01T19:45:58.935Z</time>
      </trkpt>
      <trkpt lat="40.49844333" lon="-3.52314333">
        <ele>697.011</ele>
        <time>2019-07-01T19:45:59.935Z</time>
      </trkpt>
      <trkpt lat="40.49836167" lon="-3.523125">
        <ele>697.011</ele>
        <time>2019-07-01T19:46:00.935Z</time>
      </trkpt>
      <trkpt lat="40.49836167" lon="-3.523125">
        <ele>697.011</ele>
        <time>2019-07-01T19:46:01.935Z</time>
      </trkpt>
      <trkpt lat="40.4982" lon="-3.52308667">
        <ele>696.011</ele>
        <time>2019-07-01T19:46:02.935Z</time>
      </trkpt>
      <trkpt lat="40.4982" lon="-3.52308667">
        <ele>696.011</ele>
        <time>2019-07-01T19:46:03.935Z</time>
      </trkpt>
      <trkpt lat="40.49804" lon="-3.523065">
        <ele>695.011</ele>
        <time>2019-07-01T19:46:04.935Z</time>
      </trkpt>
      <trkpt lat="40.49796" lon="-3.52307833">
        <ele>695.011</ele>
        <time>2019-07-01T19:46:05.935Z</time>
      </trkpt>
      <trkpt lat="40.49796" lon="-3.52307833">
        <ele>695.011</ele>
        <time>2019-07-01T19:46:06.935Z</time>
      </trkpt>
      <trkpt lat="40.497795" lon="-3.52308167">
        <ele>694.011</ele>
        <time>2019-07-01T19:46:07.935Z</time>
      </trkpt>
      <trkpt lat="40.497795" lon="-3.52308167">
        <ele>694.011</ele>
        <time>2019-07-01T19:46:08.935Z</time>
      </trkpt>
      <trkpt lat="40.49766667" lon="-3.52296667">
        <ele>694.011</ele>
        <time>2019-07-01T19:46:09.935Z</time>
      </trkpt>
      <trkpt lat="40.49766667" lon="-3.52296667">
        <ele>694.011</ele>
        <time>2019-07-01T19:46:10.935Z</time>
      </trkpt>
      <trkpt lat="40.49762333" lon="-3.52278333">
        <ele>694.011</ele>
        <time>2019-07-01T19:46:11.935Z</time>
      </trkpt>
      <trkpt lat="40.49762333" lon="-3.52278333">
        <ele>694.011</ele>
        <time>2019-07-01T19:46:12.935Z</time>
      </trkpt>
      <trkpt lat="40.497635" lon="-3.522585">
        <ele>694.011</ele>
        <time>2019-07-01T19:46:13.935Z</time>
      </trkpt>
      <trkpt lat="40.497635" lon="-3.522585">
        <ele>694.011</ele>
        <time>2019-07-01T19:46:14.935Z</time>
      </trkpt>
      <trkpt lat="40.49761" lon="-3.52238667">
        <ele>694.011</ele>
        <time>2019-07-01T19:46:15.935Z</time>
      </trkpt>
      <trkpt lat="40.49758167" lon="-3.52229333">
        <ele>694.011</ele>
        <time>2019-07-01T19:46:16.935Z</time>
      </trkpt>
      <trkpt lat="40.497555" lon="-3.52220333">
        <ele>694.011</ele>
        <time>2019-07-01T19:46:17.935Z</time>
      </trkpt>
      <trkpt lat="40.497525" lon="-3.52210833">
        <ele>694.011</ele>
        <time>2019-07-01T19:46:18.935Z</time>
      </trkpt>
      <trkpt lat="40.497525" lon="-3.52210833">
        <ele>694.011</ele>
        <time>2019-07-01T19:46:19.935Z</time>
      </trkpt>
      <trkpt lat="40.49746833" lon="-3.52191667">
        <ele>694.011</ele>
        <time>2019-07-01T19:46:20.935Z</time>
      </trkpt>
      <trkpt lat="40.49746833" lon="-3.52191667">
        <ele>693.011</ele>
        <time>2019-07-01T19:46:21.935Z</time>
      </trkpt>
      <trkpt lat="40.49740667" lon="-3.52171">
        <ele>693.011</ele>
        <time>2019-07-01T19:46:22.935Z</time>
      </trkpt>
      <trkpt lat="40.49740667" lon="-3.52171">
        <ele>692.011</ele>
        <time>2019-07-01T19:46:23.935Z</time>
      </trkpt>
      <trkpt lat="40.49733833" lon="-3.52149167">
        <ele>692.011</ele>
        <time>2019-07-01T19:46:24.935Z</time>
      </trkpt>
      <trkpt lat="40.49733833" lon="-3.52149167">
        <ele>691.011</ele>
        <time>2019-07-01T19:46:25.935Z</time>
      </trkpt>
      <trkpt lat="40.49727833" lon="-3.52125667">
        <ele>691.011</ele>
        <time>2019-07-01T19:46:26.935Z</time>
      </trkpt>
      <trkpt lat="40.49725" lon="-3.521135">
        <ele>689.011</ele>
        <time>2019-07-01T19:46:27.935Z</time>
      </trkpt>
      <trkpt lat="40.49725" lon="-3.521135">
        <ele>689.011</ele>
        <time>2019-07-01T19:46:28.935Z</time>
      </trkpt>
      <trkpt lat="40.497195" lon="-3.52087667">
        <ele>688.011</ele>
        <time>2019-07-01T19:46:29.935Z</time>
      </trkpt>
      <trkpt lat="40.497165" lon="-3.520745">
        <ele>688.011</ele>
        <time>2019-07-01T19:46:30.935Z</time>
      </trkpt>
      <trkpt lat="40.497165" lon="-3.520745">
        <ele>687.011</ele>
        <time>2019-07-01T19:46:31.935Z</time>
      </trkpt>
      <trkpt lat="40.49709833" lon="-3.52048">
        <ele>687.011</ele>
        <time>2019-07-01T19:46:32.935Z</time>
      </trkpt>
      <trkpt lat="40.49706833" lon="-3.520345">
        <ele>685.011</ele>
        <time>2019-07-01T19:46:33.935Z</time>
      </trkpt>
      <trkpt lat="40.49703833" lon="-3.52020667">
        <ele>685.011</ele>
        <time>2019-07-01T19:46:34.935Z</time>
      </trkpt>
      <trkpt lat="40.49703833" lon="-3.52020667">
        <ele>684.011</ele>
        <time>2019-07-01T19:46:35.935Z</time>
      </trkpt>
      <trkpt lat="40.49697833" lon="-3.519925">
        <ele>684.011</ele>
        <time>2019-07-01T19:46:36.935Z</time>
      </trkpt>
      <trkpt lat="40.49697833" lon="-3.519925">
        <ele>682.011</ele>
        <time>2019-07-01T19:46:37.935Z</time>
      </trkpt>
      <trkpt lat="40.49691833" lon="-3.519635">
        <ele>682.011</ele>
        <time>2019-07-01T19:46:38.935Z</time>
      </trkpt>
      <trkpt lat="40.49689167" lon="-3.51948833">
        <ele>680.011</ele>
        <time>2019-07-01T19:46:39.935Z</time>
      </trkpt>
      <trkpt lat="40.49689167" lon="-3.51948833">
        <ele>680.011</ele>
        <time>2019-07-01T19:46:40.935Z</time>
      </trkpt>
      <trkpt lat="40.49683833" lon="-3.51919">
        <ele>680.011</ele>
        <time>2019-07-01T19:46:41.935Z</time>
      </trkpt>
      <trkpt lat="40.49681167" lon="-3.51904167">
        <ele>679.011</ele>
        <time>2019-07-01T19:46:42.935Z</time>
      </trkpt>
      <trkpt lat="40.49681167" lon="-3.51904167">
        <ele>678.011</ele>
        <time>2019-07-01T19:46:43.935Z</time>
      </trkpt>
      <trkpt lat="40.49676" lon="-3.51874167">
        <ele>678.011</ele>
        <time>2019-07-01T19:46:44.935Z</time>
      </trkpt>
      <trkpt lat="40.49673667" lon="-3.51859333">
        <ele>676.011</ele>
        <time>2019-07-01T19:46:45.935Z</time>
      </trkpt>
      <trkpt lat="40.49673667" lon="-3.51859333">
        <ele>676.011</ele>
        <time>2019-07-01T19:46:46.935Z</time>
      </trkpt>
      <trkpt lat="40.49669333" lon="-3.51829333">
        <ele>675.011</ele>
        <time>2019-07-01T19:46:47.935Z</time>
      </trkpt>
      <trkpt lat="40.49669333" lon="-3.51829333">
        <ele>675.011</ele>
        <time>2019-07-01T19:46:48.935Z</time>
      </trkpt>
      <trkpt lat="40.49665167" lon="-3.51799167">
        <ele>673.011</ele>
        <time>2019-07-01T19:46:49.935Z</time>
      </trkpt>
      <trkpt lat="40.49665167" lon="-3.51799167">
        <ele>673.011</ele>
        <time>2019-07-01T19:46:50.935Z</time>
      </trkpt>
      <trkpt lat="40.496615" lon="-3.51768667">
        <ele>673.011</ele>
        <time>2019-07-01T19:46:51.935Z</time>
      </trkpt>
      <trkpt lat="40.496615" lon="-3.51768667">
        <ele>671.011</ele>
        <time>2019-07-01T19:46:52.935Z</time>
      </trkpt>
      <trkpt lat="40.49658167" lon="-3.51737333">
        <ele>671.011</ele>
        <time>2019-07-01T19:46:53.935Z</time>
      </trkpt>
      <trkpt lat="40.49658167" lon="-3.51737333">
        <ele>669.011</ele>
        <time>2019-07-01T19:46:54.935Z</time>
      </trkpt>
      <trkpt lat="40.49655167" lon="-3.51705167">
        <ele>669.011</ele>
        <time>2019-07-01T19:46:55.935Z</time>
      </trkpt>
      <trkpt lat="40.49655167" lon="-3.51705167">
        <ele>667.011</ele>
        <time>2019-07-01T19:46:56.935Z</time>
      </trkpt>
      <trkpt lat="40.49651833" lon="-3.51672667">
        <ele>667.011</ele>
        <time>2019-07-01T19:46:57.935Z</time>
      </trkpt>
      <trkpt lat="40.49651833" lon="-3.51672667">
        <ele>665.011</ele>
        <time>2019-07-01T19:46:58.935Z</time>
      </trkpt>
      <trkpt lat="40.49648833" lon="-3.51639833">
        <ele>665.011</ele>
        <time>2019-07-01T19:46:59.935Z</time>
      </trkpt>
      <trkpt lat="40.49647167" lon="-3.51623333">
        <ele>664.011</ele>
        <time>2019-07-01T19:47:00.935Z</time>
      </trkpt>
      <trkpt lat="40.49647167" lon="-3.51623333">
        <ele>664.011</ele>
        <time>2019-07-01T19:47:01.935Z</time>
      </trkpt>
      <trkpt lat="40.496435" lon="-3.51590833">
        <ele>662.011</ele>
        <time>2019-07-01T19:47:02.935Z</time>
      </trkpt>
      <trkpt lat="40.49641667" lon="-3.515745">
        <ele>662.011</ele>
        <time>2019-07-01T19:47:03.935Z</time>
      </trkpt>
      <trkpt lat="40.49641667" lon="-3.515745">
        <ele>661.011</ele>
        <time>2019-07-01T19:47:04.935Z</time>
      </trkpt>
      <trkpt lat="40.49637833" lon="-3.51542">
        <ele>661.011</ele>
        <time>2019-07-01T19:47:05.935Z</time>
      </trkpt>
      <trkpt lat="40.49635667" lon="-3.51525667">
        <ele>659.011</ele>
        <time>2019-07-01T19:47:06.935Z</time>
      </trkpt>
      <trkpt lat="40.49635667" lon="-3.51525667">
        <ele>659.011</ele>
        <time>2019-07-01T19:47:07.935Z</time>
      </trkpt>
      <trkpt lat="40.49631" lon="-3.51493667">
        <ele>658.011</ele>
        <time>2019-07-01T19:47:08.935Z</time>
      </trkpt>
      <trkpt lat="40.49631" lon="-3.51493667">
        <ele>658.011</ele>
        <time>2019-07-01T19:47:09.935Z</time>
      </trkpt>
      <trkpt lat="40.49626167" lon="-3.51462333">
        <ele>657.011</ele>
        <time>2019-07-01T19:47:10.935Z</time>
      </trkpt>
      <trkpt lat="40.49623833" lon="-3.51447">
        <ele>657.011</ele>
        <time>2019-07-01T19:47:11.935Z</time>
      </trkpt>
      <trkpt lat="40.49623833" lon="-3.51447">
        <ele>655.011</ele>
        <time>2019-07-01T19:47:12.935Z</time>
      </trkpt>
      <trkpt lat="40.49618667" lon="-3.51417">
        <ele>655.011</ele>
        <time>2019-07-01T19:47:13.935Z</time>
      </trkpt>
      <trkpt lat="40.49616" lon="-3.51402333">
        <ele>654.011</ele>
        <time>2019-07-01T19:47:14.935Z</time>
      </trkpt>
      <trkpt lat="40.49613" lon="-3.51388333">
        <ele>654.011</ele>
        <time>2019-07-01T19:47:15.935Z</time>
      </trkpt>
      <trkpt lat="40.49613" lon="-3.51388333">
        <ele>652.011</ele>
        <time>2019-07-01T19:47:16.935Z</time>
      </trkpt>
      <trkpt lat="40.49604833" lon="-3.51363167">
        <ele>652.011</ele>
        <time>2019-07-01T19:47:17.935Z</time>
      </trkpt>
      <trkpt lat="40.49601667" lon="-3.513515">
        <ele>651.011</ele>
        <time>2019-07-01T19:47:18.935Z</time>
      </trkpt>
      <trkpt lat="40.49601667" lon="-3.513515">
        <ele>651.011</ele>
        <time>2019-07-01T19:47:19.935Z</time>
      </trkpt>
      <trkpt lat="40.49599833" lon="-3.51328667">
        <ele>650.011</ele>
        <time>2019-07-01T19:47:20.935Z</time>
      </trkpt>
      <trkpt lat="40.49599833" lon="-3.51328667">
        <ele>650.011</ele>
        <time>2019-07-01T19:47:21.935Z</time>
      </trkpt>
      <trkpt lat="40.49596833" lon="-3.51307667">
        <ele>650.011</ele>
        <time>2019-07-01T19:47:22.935Z</time>
      </trkpt>
      <trkpt lat="40.49596833" lon="-3.51307667">
        <ele>650.011</ele>
        <time>2019-07-01T19:47:23.935Z</time>
      </trkpt>
      <trkpt lat="40.49593167" lon="-3.51288333">
        <ele>650.011</ele>
        <time>2019-07-01T19:47:24.935Z</time>
      </trkpt>
      <trkpt lat="40.49593167" lon="-3.51288333">
        <ele>650.011</ele>
        <time>2019-07-01T19:47:25.935Z</time>
      </trkpt>
      <trkpt lat="40.49588833" lon="-3.51271167">
        <ele>650.011</ele>
        <time>2019-07-01T19:47:26.935Z</time>
      </trkpt>
      <trkpt lat="40.49588833" lon="-3.51271167">
        <ele>650.011</ele>
        <time>2019-07-01T19:47:27.935Z</time>
      </trkpt>
      <trkpt lat="40.49583833" lon="-3.51253667">
        <ele>651.011</ele>
        <time>2019-07-01T19:47:28.935Z</time>
      </trkpt>
      <trkpt lat="40.49583833" lon="-3.51253667">
        <ele>651.011</ele>
        <time>2019-07-01T19:47:29.935Z</time>
      </trkpt>
      <trkpt lat="40.49579167" lon="-3.512355">
        <ele>651.011</ele>
        <time>2019-07-01T19:47:30.935Z</time>
      </trkpt>
      <trkpt lat="40.495765" lon="-3.51226333">
        <ele>651.011</ele>
        <time>2019-07-01T19:47:31.935Z</time>
      </trkpt>
      <trkpt lat="40.495765" lon="-3.51226333">
        <ele>652.011</ele>
        <time>2019-07-01T19:47:32.935Z</time>
      </trkpt>
      <trkpt lat="40.49571667" lon="-3.51208667">
        <ele>652.011</ele>
        <time>2019-07-01T19:47:33.935Z</time>
      </trkpt>
      <trkpt lat="40.495695" lon="-3.51199833">
        <ele>653.011</ele>
        <time>2019-07-01T19:47:34.935Z</time>
      </trkpt>
      <trkpt lat="40.495695" lon="-3.51199833">
        <ele>653.011</ele>
        <time>2019-07-01T19:47:35.935Z</time>
      </trkpt>
      <trkpt lat="40.49564833" lon="-3.51182">
        <ele>654.011</ele>
        <time>2019-07-01T19:47:36.935Z</time>
      </trkpt>
      <trkpt lat="40.49562167" lon="-3.51173">
        <ele>654.011</ele>
        <time>2019-07-01T19:47:37.935Z</time>
      </trkpt>
      <trkpt lat="40.49562167" lon="-3.51173">
        <ele>655.011</ele>
        <time>2019-07-01T19:47:38.935Z</time>
      </trkpt>
      <trkpt lat="40.49557333" lon="-3.511555">
        <ele>655.011</ele>
        <time>2019-07-01T19:47:39.935Z</time>
      </trkpt>
      <trkpt lat="40.49557333" lon="-3.511555">
        <ele>655.011</ele>
        <time>2019-07-01T19:47:40.935Z</time>
      </trkpt>
      <trkpt lat="40.49552167" lon="-3.51137333">
        <ele>655.011</ele>
        <time>2019-07-01T19:47:41.935Z</time>
      </trkpt>
      <trkpt lat="40.49549833" lon="-3.51128333">
        <ele>656.011</ele>
        <time>2019-07-01T19:47:42.935Z</time>
      </trkpt>
      <trkpt lat="40.49549833" lon="-3.51128333">
        <ele>656.011</ele>
        <time>2019-07-01T19:47:43.935Z</time>
      </trkpt>
      <trkpt lat="40.49545" lon="-3.5111">
        <ele>657.011</ele>
        <time>2019-07-01T19:47:44.935Z</time>
      </trkpt>
      <trkpt lat="40.49541833" lon="-3.51101333">
        <ele>657.011</ele>
        <time>2019-07-01T19:47:45.935Z</time>
      </trkpt>
      <trkpt lat="40.49541833" lon="-3.51101333">
        <ele>657.011</ele>
        <time>2019-07-01T19:47:46.935Z</time>
      </trkpt>
      <trkpt lat="40.49535167" lon="-3.51084167">
        <ele>658.011</ele>
        <time>2019-07-01T19:47:47.935Z</time>
      </trkpt>
      <trkpt lat="40.49532167" lon="-3.510755">
        <ele>658.011</ele>
        <time>2019-07-01T19:47:48.935Z</time>
      </trkpt>
      <trkpt lat="40.49532167" lon="-3.510755">
        <ele>658.011</ele>
        <time>2019-07-01T19:47:49.935Z</time>
      </trkpt>
      <trkpt lat="40.49527167" lon="-3.510585">
        <ele>658.011</ele>
        <time>2019-07-01T19:47:50.935Z</time>
      </trkpt>
      <trkpt lat="40.49527167" lon="-3.510585">
        <ele>658.011</ele>
        <time>2019-07-01T19:47:51.935Z</time>
      </trkpt>
      <trkpt lat="40.49522333" lon="-3.51041167">
        <ele>658.011</ele>
        <time>2019-07-01T19:47:52.935Z</time>
      </trkpt>
      <trkpt lat="40.49520167" lon="-3.51032667">
        <ele>659.011</ele>
        <time>2019-07-01T19:47:53.935Z</time>
      </trkpt>
      <trkpt lat="40.49518167" lon="-3.51024167">
        <ele>659.011</ele>
        <time>2019-07-01T19:47:54.935Z</time>
      </trkpt>
      <trkpt lat="40.49518167" lon="-3.51024167">
        <ele>660.011</ele>
        <time>2019-07-01T19:47:55.935Z</time>
      </trkpt>
      <trkpt lat="40.49513833" lon="-3.51007167">
        <ele>660.011</ele>
        <time>2019-07-01T19:47:56.935Z</time>
      </trkpt>
      <trkpt lat="40.49511833" lon="-3.50998833">
        <ele>660.011</ele>
        <time>2019-07-01T19:47:57.935Z</time>
      </trkpt>
      <trkpt lat="40.49511833" lon="-3.50998833">
        <ele>660.011</ele>
        <time>2019-07-01T19:47:58.935Z</time>
      </trkpt>
      <trkpt lat="40.49508167" lon="-3.50983">
        <ele>660.011</ele>
        <time>2019-07-01T19:47:59.935Z</time>
      </trkpt>
      <trkpt lat="40.49506833" lon="-3.50975167">
        <ele>660.011</ele>
        <time>2019-07-01T19:48:00.935Z</time>
      </trkpt>
      <trkpt lat="40.49506833" lon="-3.50975167">
        <ele>660.011</ele>
        <time>2019-07-01T19:48:01.935Z</time>
      </trkpt>
      <trkpt lat="40.49505167" lon="-3.50959833">
        <ele>660.011</ele>
        <time>2019-07-01T19:48:02.935Z</time>
      </trkpt>
      <trkpt lat="40.49504167" lon="-3.50952667">
        <ele>660.011</ele>
        <time>2019-07-01T19:48:03.935Z</time>
      </trkpt>
      <trkpt lat="40.49504167" lon="-3.50952667">
        <ele>660.011</ele>
        <time>2019-07-01T19:48:04.935Z</time>
      </trkpt>
      <trkpt lat="40.49502333" lon="-3.50937667">
        <ele>660.011</ele>
        <time>2019-07-01T19:48:05.935Z</time>
      </trkpt>
      <trkpt lat="40.49501833" lon="-3.50929667">
        <ele>660.011</ele>
        <time>2019-07-01T19:48:06.935Z</time>
      </trkpt>
      <trkpt lat="40.495015" lon="-3.50921333">
        <ele>660.011</ele>
        <time>2019-07-01T19:48:07.935Z</time>
      </trkpt>
      <trkpt lat="40.495015" lon="-3.50921333">
        <ele>660.011</ele>
        <time>2019-07-01T19:48:08.935Z</time>
      </trkpt>
      <trkpt lat="40.49500833" lon="-3.50904333">
        <ele>660.011</ele>
        <time>2019-07-01T19:48:09.935Z</time>
      </trkpt>
      <trkpt lat="40.49500833" lon="-3.50895833">
        <ele>660.011</ele>
        <time>2019-07-01T19:48:10.935Z</time>
      </trkpt>
      <trkpt lat="40.49500833" lon="-3.50895833">
        <ele>660.011</ele>
        <time>2019-07-01T19:48:11.935Z</time>
      </trkpt>
      <trkpt lat="40.49500667" lon="-3.50878833">
        <ele>660.011</ele>
        <time>2019-07-01T19:48:12.935Z</time>
      </trkpt>
      <trkpt lat="40.49501" lon="-3.50870167">
        <ele>660.011</ele>
        <time>2019-07-01T19:48:13.935Z</time>
      </trkpt>
      <trkpt lat="40.49501" lon="-3.50870167">
        <ele>660.011</ele>
        <time>2019-07-01T19:48:14.935Z</time>
      </trkpt>
      <trkpt lat="40.49502667" lon="-3.50852667">
        <ele>660.011</ele>
        <time>2019-07-01T19:48:15.935Z</time>
      </trkpt>
      <trkpt lat="40.49502667" lon="-3.50852667">
        <ele>660.011</ele>
        <time>2019-07-01T19:48:16.935Z</time>
      </trkpt>
      <trkpt lat="40.49504667" lon="-3.50835167">
        <ele>660.011</ele>
        <time>2019-07-01T19:48:17.935Z</time>
      </trkpt>
      <trkpt lat="40.49504667" lon="-3.50835167">
        <ele>660.011</ele>
        <time>2019-07-01T19:48:18.935Z</time>
      </trkpt>
      <trkpt lat="40.49507333" lon="-3.50817667">
        <ele>660.011</ele>
        <time>2019-07-01T19:48:19.935Z</time>
      </trkpt>
      <trkpt lat="40.49507333" lon="-3.50817667">
        <ele>660.011</ele>
        <time>2019-07-01T19:48:20.935Z</time>
      </trkpt>
      <trkpt lat="40.4951" lon="-3.50802">
        <ele>660.011</ele>
        <time>2019-07-01T19:48:21.935Z</time>
      </trkpt>
      <trkpt lat="40.495115" lon="-3.50794833">
        <ele>660.011</ele>
        <time>2019-07-01T19:48:22.935Z</time>
      </trkpt>
      <trkpt lat="40.495115" lon="-3.50794833">
        <ele>659.011</ele>
        <time>2019-07-01T19:48:23.935Z</time>
      </trkpt>
      <trkpt lat="40.49514833" lon="-3.5078">
        <ele>659.011</ele>
        <time>2019-07-01T19:48:24.935Z</time>
      </trkpt>
      <trkpt lat="40.49514833" lon="-3.5078">
        <ele>659.011</ele>
        <time>2019-07-01T19:48:25.935Z</time>
      </trkpt>
      <trkpt lat="40.49519" lon="-3.50764667">
        <ele>659.011</ele>
        <time>2019-07-01T19:48:26.935Z</time>
      </trkpt>
      <trkpt lat="40.495215" lon="-3.50757167">
        <ele>659.011</ele>
        <time>2019-07-01T19:48:27.935Z</time>
      </trkpt>
      <trkpt lat="40.49524" lon="-3.50749667">
        <ele>659.011</ele>
        <time>2019-07-01T19:48:28.935Z</time>
      </trkpt>
      <trkpt lat="40.49524" lon="-3.50749667">
        <ele>659.011</ele>
        <time>2019-07-01T19:48:29.935Z</time>
      </trkpt>
      <trkpt lat="40.495295" lon="-3.507345">
        <ele>659.011</ele>
        <time>2019-07-01T19:48:30.935Z</time>
      </trkpt>
      <trkpt lat="40.495295" lon="-3.507345">
        <ele>659.011</ele>
        <time>2019-07-01T19:48:31.935Z</time>
      </trkpt>
      <trkpt lat="40.49534833" lon="-3.50720333">
        <ele>659.011</ele>
        <time>2019-07-01T19:48:32.935Z</time>
      </trkpt>
      <trkpt lat="40.49534833" lon="-3.50720333">
        <ele>659.011</ele>
        <time>2019-07-01T19:48:33.935Z</time>
      </trkpt>
      <trkpt lat="40.49540833" lon="-3.50706833">
        <ele>659.011</ele>
        <time>2019-07-01T19:48:34.935Z</time>
      </trkpt>
      <trkpt lat="40.49543833" lon="-3.50699833">
        <ele>659.011</ele>
        <time>2019-07-01T19:48:35.935Z</time>
      </trkpt>
      <trkpt lat="40.49543833" lon="-3.50699833">
        <ele>659.011</ele>
        <time>2019-07-01T19:48:36.935Z</time>
      </trkpt>
      <trkpt lat="40.49550167" lon="-3.50686">
        <ele>659.011</ele>
        <time>2019-07-01T19:48:37.935Z</time>
      </trkpt>
      <trkpt lat="40.49550167" lon="-3.50686">
        <ele>659.011</ele>
        <time>2019-07-01T19:48:38.935Z</time>
      </trkpt>
      <trkpt lat="40.49556833" lon="-3.50673333">
        <ele>659.011</ele>
        <time>2019-07-01T19:48:39.935Z</time>
      </trkpt>
      <trkpt lat="40.49556833" lon="-3.50673333">
        <ele>659.011</ele>
        <time>2019-07-01T19:48:40.935Z</time>
      </trkpt>
      <trkpt lat="40.49563667" lon="-3.50660667">
        <ele>659.011</ele>
        <time>2019-07-01T19:48:41.935Z</time>
      </trkpt>
      <trkpt lat="40.49567333" lon="-3.506545">
        <ele>659.011</ele>
        <time>2019-07-01T19:48:42.935Z</time>
      </trkpt>
      <trkpt lat="40.49567333" lon="-3.506545">
        <ele>659.011</ele>
        <time>2019-07-01T19:48:43.935Z</time>
      </trkpt>
      <trkpt lat="40.49575833" lon="-3.50642667">
        <ele>658.011</ele>
        <time>2019-07-01T19:48:44.935Z</time>
      </trkpt>
      <trkpt lat="40.4958" lon="-3.50637167">
        <ele>658.011</ele>
        <time>2019-07-01T19:48:45.935Z</time>
      </trkpt>
      <trkpt lat="40.4958" lon="-3.50637167">
        <ele>658.011</ele>
        <time>2019-07-01T19:48:46.935Z</time>
      </trkpt>
      <trkpt lat="40.49588167" lon="-3.506275">
        <ele>658.011</ele>
        <time>2019-07-01T19:48:47.935Z</time>
      </trkpt>
      <trkpt lat="40.495925" lon="-3.50622833">
        <ele>658.011</ele>
        <time>2019-07-01T19:48:48.935Z</time>
      </trkpt>
      <trkpt lat="40.495925" lon="-3.50622833">
        <ele>658.011</ele>
        <time>2019-07-01T19:48:49.935Z</time>
      </trkpt>
      <trkpt lat="40.49600333" lon="-3.50614">
        <ele>658.011</ele>
        <time>2019-07-01T19:48:50.935Z</time>
      </trkpt>
      <trkpt lat="40.49604" lon="-3.506095">
        <ele>658.011</ele>
        <time>2019-07-01T19:48:51.935Z</time>
      </trkpt>
      <trkpt lat="40.49604" lon="-3.506095">
        <ele>658.011</ele>
        <time>2019-07-01T19:48:52.935Z</time>
      </trkpt>
      <trkpt lat="40.49612" lon="-3.50601833">
        <ele>658.011</ele>
        <time>2019-07-01T19:48:53.935Z</time>
      </trkpt>
      <trkpt lat="40.49616167" lon="-3.505985">
        <ele>658.011</ele>
        <time>2019-07-01T19:48:54.935Z</time>
      </trkpt>
      <trkpt lat="40.49616167" lon="-3.505985">
        <ele>658.011</ele>
        <time>2019-07-01T19:48:55.935Z</time>
      </trkpt>
      <trkpt lat="40.49623833" lon="-3.50591">
        <ele>658.011</ele>
        <time>2019-07-01T19:48:56.935Z</time>
      </trkpt>
      <trkpt lat="40.49623833" lon="-3.50591">
        <ele>658.011</ele>
        <time>2019-07-01T19:48:57.935Z</time>
      </trkpt>
      <trkpt lat="40.49631167" lon="-3.505835">
        <ele>658.011</ele>
        <time>2019-07-01T19:48:58.935Z</time>
      </trkpt>
      <trkpt lat="40.49631167" lon="-3.505835">
        <ele>658.011</ele>
        <time>2019-07-01T19:48:59.935Z</time>
      </trkpt>
      <trkpt lat="40.49638833" lon="-3.50576667">
        <ele>658.011</ele>
        <time>2019-07-01T19:49:00.935Z</time>
      </trkpt>
      <trkpt lat="40.49638833" lon="-3.50576667">
        <ele>658.011</ele>
        <time>2019-07-01T19:49:01.935Z</time>
      </trkpt>
      <trkpt lat="40.49647167" lon="-3.50570167">
        <ele>658.011</ele>
        <time>2019-07-01T19:49:02.935Z</time>
      </trkpt>
      <trkpt lat="40.49647167" lon="-3.50570167">
        <ele>658.011</ele>
        <time>2019-07-01T19:49:03.935Z</time>
      </trkpt>
      <trkpt lat="40.49655333" lon="-3.50564167">
        <ele>658.011</ele>
        <time>2019-07-01T19:49:04.935Z</time>
      </trkpt>
      <trkpt lat="40.49655333" lon="-3.50564167">
        <ele>658.011</ele>
        <time>2019-07-01T19:49:05.935Z</time>
      </trkpt>
      <trkpt lat="40.496635" lon="-3.50558667">
        <ele>658.011</ele>
        <time>2019-07-01T19:49:06.935Z</time>
      </trkpt>
      <trkpt lat="40.49667667" lon="-3.50556">
        <ele>658.011</ele>
        <time>2019-07-01T19:49:07.935Z</time>
      </trkpt>
      <trkpt lat="40.49667667" lon="-3.50556">
        <ele>658.011</ele>
        <time>2019-07-01T19:49:08.935Z</time>
      </trkpt>
      <trkpt lat="40.49676167" lon="-3.50550833">
        <ele>658.011</ele>
        <time>2019-07-01T19:49:09.935Z</time>
      </trkpt>
      <trkpt lat="40.49676167" lon="-3.50550833">
        <ele>658.011</ele>
        <time>2019-07-01T19:49:10.935Z</time>
      </trkpt>
      <trkpt lat="40.496845" lon="-3.50546167">
        <ele>658.011</ele>
        <time>2019-07-01T19:49:11.935Z</time>
      </trkpt>
      <trkpt lat="40.49688667" lon="-3.50544167">
        <ele>658.011</ele>
        <time>2019-07-01T19:49:12.935Z</time>
      </trkpt>
      <trkpt lat="40.49688667" lon="-3.50544167">
        <ele>658.011</ele>
        <time>2019-07-01T19:49:13.935Z</time>
      </trkpt>
      <trkpt lat="40.49696667" lon="-3.50540333">
        <ele>658.011</ele>
        <time>2019-07-01T19:49:14.935Z</time>
      </trkpt>
      <trkpt lat="40.497005" lon="-3.505385">
        <ele>658.011</ele>
        <time>2019-07-01T19:49:15.935Z</time>
      </trkpt>
      <trkpt lat="40.497005" lon="-3.505385">
        <ele>658.011</ele>
        <time>2019-07-01T19:49:16.935Z</time>
      </trkpt>
      <trkpt lat="40.49708" lon="-3.50534167">
        <ele>658.011</ele>
        <time>2019-07-01T19:49:17.935Z</time>
      </trkpt>
      <trkpt lat="40.497115" lon="-3.50532167">
        <ele>658.011</ele>
        <time>2019-07-01T19:49:18.935Z</time>
      </trkpt>
      <trkpt lat="40.497115" lon="-3.50532167">
        <ele>659.011</ele>
        <time>2019-07-01T19:49:19.935Z</time>
      </trkpt>
      <trkpt lat="40.49718833" lon="-3.50528833">
        <ele>659.011</ele>
        <time>2019-07-01T19:49:20.935Z</time>
      </trkpt>
      <trkpt lat="40.49718833" lon="-3.50528833">
        <ele>659.011</ele>
        <time>2019-07-01T19:49:21.935Z</time>
      </trkpt>
      <trkpt lat="40.497265" lon="-3.505245">
        <ele>659.011</ele>
        <time>2019-07-01T19:49:22.935Z</time>
      </trkpt>
      <trkpt lat="40.497265" lon="-3.505245">
        <ele>659.011</ele>
        <time>2019-07-01T19:49:23.935Z</time>
      </trkpt>
      <trkpt lat="40.49733167" lon="-3.50517833">
        <ele>659.011</ele>
        <time>2019-07-01T19:49:24.935Z</time>
      </trkpt>
      <trkpt lat="40.49733167" lon="-3.50517833">
        <ele>659.011</ele>
        <time>2019-07-01T19:49:25.935Z</time>
      </trkpt>
      <trkpt lat="40.4974" lon="-3.50512833">
        <ele>659.011</ele>
        <time>2019-07-01T19:49:26.935Z</time>
      </trkpt>
      <trkpt lat="40.4974" lon="-3.50512833">
        <ele>659.011</ele>
        <time>2019-07-01T19:49:27.935Z</time>
      </trkpt>
      <trkpt lat="40.49748167" lon="-3.50510833">
        <ele>659.011</ele>
        <time>2019-07-01T19:49:28.935Z</time>
      </trkpt>
      <trkpt lat="40.49752333" lon="-3.505115">
        <ele>659.011</ele>
        <time>2019-07-01T19:49:29.935Z</time>
      </trkpt>
      <trkpt lat="40.497565" lon="-3.505125">
        <ele>659.011</ele>
        <time>2019-07-01T19:49:30.935Z</time>
      </trkpt>
      <trkpt lat="40.497565" lon="-3.505125">
        <ele>659.011</ele>
        <time>2019-07-01T19:49:31.935Z</time>
      </trkpt>
      <trkpt lat="40.49766" lon="-3.505125">
        <ele>659.011</ele>
        <time>2019-07-01T19:49:32.935Z</time>
      </trkpt>
      <trkpt lat="40.49766" lon="-3.505125">
        <ele>659.011</ele>
        <time>2019-07-01T19:49:33.935Z</time>
      </trkpt>
      <trkpt lat="40.49774667" lon="-3.50509333">
        <ele>659.011</ele>
        <time>2019-07-01T19:49:34.935Z</time>
      </trkpt>
      <trkpt lat="40.49774667" lon="-3.50509333">
        <ele>659.011</ele>
        <time>2019-07-01T19:49:35.935Z</time>
      </trkpt>
      <trkpt lat="40.49783" lon="-3.50506">
        <ele>659.011</ele>
        <time>2019-07-01T19:49:36.935Z</time>
      </trkpt>
      <trkpt lat="40.49783" lon="-3.50506">
        <ele>659.011</ele>
        <time>2019-07-01T19:49:37.935Z</time>
      </trkpt>
      <trkpt lat="40.49791" lon="-3.50501667">
        <ele>659.011</ele>
        <time>2019-07-01T19:49:38.935Z</time>
      </trkpt>
      <trkpt lat="40.49791" lon="-3.50501667">
        <ele>659.011</ele>
        <time>2019-07-01T19:49:39.935Z</time>
      </trkpt>
      <trkpt lat="40.49799" lon="-3.50498833">
        <ele>659.011</ele>
        <time>2019-07-01T19:49:40.935Z</time>
      </trkpt>
      <trkpt lat="40.49799" lon="-3.50498833">
        <ele>659.011</ele>
        <time>2019-07-01T19:49:41.935Z</time>
      </trkpt>
      <trkpt lat="40.49806833" lon="-3.50495833">
        <ele>659.011</ele>
        <time>2019-07-01T19:49:42.935Z</time>
      </trkpt>
      <trkpt lat="40.49806833" lon="-3.50495833">
        <ele>660.011</ele>
        <time>2019-07-01T19:49:43.935Z</time>
      </trkpt>
      <trkpt lat="40.49814333" lon="-3.50492667">
        <ele>660.011</ele>
        <time>2019-07-01T19:49:44.935Z</time>
      </trkpt>
      <trkpt lat="40.49814333" lon="-3.50492667">
        <ele>660.011</ele>
        <time>2019-07-01T19:49:45.935Z</time>
      </trkpt>
      <trkpt lat="40.49821667" lon="-3.50488667">
        <ele>660.011</ele>
        <time>2019-07-01T19:49:46.935Z</time>
      </trkpt>
      <trkpt lat="40.49821667" lon="-3.50488667">
        <ele>661.011</ele>
        <time>2019-07-01T19:49:47.935Z</time>
      </trkpt>
      <trkpt lat="40.49828833" lon="-3.50484667">
        <ele>661.011</ele>
        <time>2019-07-01T19:49:48.935Z</time>
      </trkpt>
      <trkpt lat="40.498325" lon="-3.50483">
        <ele>661.011</ele>
        <time>2019-07-01T19:49:49.935Z</time>
      </trkpt>
      <trkpt lat="40.498325" lon="-3.50483">
        <ele>661.011</ele>
        <time>2019-07-01T19:49:50.935Z</time>
      </trkpt>
      <trkpt lat="40.4984" lon="-3.50479333">
        <ele>661.011</ele>
        <time>2019-07-01T19:49:51.935Z</time>
      </trkpt>
      <trkpt lat="40.49843833" lon="-3.50477667">
        <ele>661.011</ele>
        <time>2019-07-01T19:49:52.935Z</time>
      </trkpt>
      <trkpt lat="40.49843833" lon="-3.50477667">
        <ele>662.011</ele>
        <time>2019-07-01T19:49:53.935Z</time>
      </trkpt>
      <trkpt lat="40.49851667" lon="-3.50474">
        <ele>662.011</ele>
        <time>2019-07-01T19:49:54.935Z</time>
      </trkpt>
      <trkpt lat="40.49851667" lon="-3.50474">
        <ele>662.011</ele>
        <time>2019-07-01T19:49:55.935Z</time>
      </trkpt>
      <trkpt lat="40.4986" lon="-3.50469667">
        <ele>662.011</ele>
        <time>2019-07-01T19:49:56.935Z</time>
      </trkpt>
      <trkpt lat="40.4986" lon="-3.50469667">
        <ele>663.011</ele>
        <time>2019-07-01T19:49:57.935Z</time>
      </trkpt>
      <trkpt lat="40.49868" lon="-3.50466">
        <ele>663.011</ele>
        <time>2019-07-01T19:49:58.935Z</time>
      </trkpt>
      <trkpt lat="40.498715" lon="-3.50464333">
        <ele>663.011</ele>
        <time>2019-07-01T19:49:59.935Z</time>
      </trkpt>
      <trkpt lat="40.49875167" lon="-3.50462667">
        <ele>663.011</ele>
        <time>2019-07-01T19:50:00.935Z</time>
      </trkpt>
      <trkpt lat="40.49875167" lon="-3.50462667">
        <ele>664.011</ele>
        <time>2019-07-01T19:50:01.935Z</time>
      </trkpt>
      <trkpt lat="40.498825" lon="-3.504595">
        <ele>664.011</ele>
        <time>2019-07-01T19:50:02.935Z</time>
      </trkpt>
      <trkpt lat="40.49886167" lon="-3.50458">
        <ele>664.011</ele>
        <time>2019-07-01T19:50:03.935Z</time>
      </trkpt>
      <trkpt lat="40.49886167" lon="-3.50458">
        <ele>664.011</ele>
        <time>2019-07-01T19:50:04.935Z</time>
      </trkpt>
      <trkpt lat="40.49893167" lon="-3.50454667">
        <ele>665.011</ele>
        <time>2019-07-01T19:50:05.935Z</time>
      </trkpt>
      <trkpt lat="40.49896667" lon="-3.50453">
        <ele>665.011</ele>
        <time>2019-07-01T19:50:06.935Z</time>
      </trkpt>
      <trkpt lat="40.49896667" lon="-3.50453">
        <ele>665.011</ele>
        <time>2019-07-01T19:50:07.935Z</time>
      </trkpt>
      <trkpt lat="40.49903833" lon="-3.50450167">
        <ele>665.011</ele>
        <time>2019-07-01T19:50:08.935Z</time>
      </trkpt>
      <trkpt lat="40.49907167" lon="-3.50448333">
        <ele>665.011</ele>
        <time>2019-07-01T19:50:09.935Z</time>
      </trkpt>
      <trkpt lat="40.499105" lon="-3.504465">
        <ele>665.011</ele>
        <time>2019-07-01T19:50:10.935Z</time>
      </trkpt>
      <trkpt lat="40.499105" lon="-3.504465">
        <ele>665.011</ele>
        <time>2019-07-01T19:50:11.935Z</time>
      </trkpt>
      <trkpt lat="40.499175" lon="-3.50442833">
        <ele>665.011</ele>
        <time>2019-07-01T19:50:12.935Z</time>
      </trkpt>
      <trkpt lat="40.49921" lon="-3.50441167">
        <ele>665.011</ele>
        <time>2019-07-01T19:50:13.935Z</time>
      </trkpt>
      <trkpt lat="40.49921" lon="-3.50441167">
        <ele>665.011</ele>
        <time>2019-07-01T19:50:14.935Z</time>
      </trkpt>
      <trkpt lat="40.49928" lon="-3.50438">
        <ele>666.011</ele>
        <time>2019-07-01T19:50:15.935Z</time>
      </trkpt>
      <trkpt lat="40.49928" lon="-3.50438">
        <ele>666.011</ele>
        <time>2019-07-01T19:50:16.935Z</time>
      </trkpt>
      <trkpt lat="40.49935" lon="-3.50434">
        <ele>666.011</ele>
        <time>2019-07-01T19:50:17.935Z</time>
      </trkpt>
      <trkpt lat="40.49938667" lon="-3.50432667">
        <ele>666.011</ele>
        <time>2019-07-01T19:50:18.935Z</time>
      </trkpt>
      <trkpt lat="40.49938667" lon="-3.50432667">
        <ele>666.011</ele>
        <time>2019-07-01T19:50:19.935Z</time>
      </trkpt>
      <trkpt lat="40.49946167" lon="-3.50429833">
        <ele>666.011</ele>
        <time>2019-07-01T19:50:20.935Z</time>
      </trkpt>
      <trkpt lat="40.49949833" lon="-3.504285">
        <ele>666.011</ele>
        <time>2019-07-01T19:50:21.935Z</time>
      </trkpt>
      <trkpt lat="40.49949833" lon="-3.504285">
        <ele>666.011</ele>
        <time>2019-07-01T19:50:22.935Z</time>
      </trkpt>
      <trkpt lat="40.49957333" lon="-3.50425167">
        <ele>666.011</ele>
        <time>2019-07-01T19:50:23.935Z</time>
      </trkpt>
      <trkpt lat="40.49961333" lon="-3.504235">
        <ele>666.011</ele>
        <time>2019-07-01T19:50:24.935Z</time>
      </trkpt>
      <trkpt lat="40.49961333" lon="-3.504235">
        <ele>666.011</ele>
        <time>2019-07-01T19:50:25.935Z</time>
      </trkpt>
      <trkpt lat="40.49969" lon="-3.50420833">
        <ele>666.011</ele>
        <time>2019-07-01T19:50:26.935Z</time>
      </trkpt>
      <trkpt lat="40.49973" lon="-3.50419167">
        <ele>666.011</ele>
        <time>2019-07-01T19:50:27.935Z</time>
      </trkpt>
      <trkpt lat="40.49976833" lon="-3.50417333">
        <ele>666.011</ele>
        <time>2019-07-01T19:50:28.935Z</time>
      </trkpt>
      <trkpt lat="40.49976833" lon="-3.50417333">
        <ele>666.011</ele>
        <time>2019-07-01T19:50:29.935Z</time>
      </trkpt>
      <trkpt lat="40.49985" lon="-3.50413667">
        <ele>666.011</ele>
        <time>2019-07-01T19:50:30.935Z</time>
      </trkpt>
      <trkpt lat="40.49985" lon="-3.50413667">
        <ele>666.011</ele>
        <time>2019-07-01T19:50:31.935Z</time>
      </trkpt>
      <trkpt lat="40.49993167" lon="-3.50410167">
        <ele>666.011</ele>
        <time>2019-07-01T19:50:32.935Z</time>
      </trkpt>
      <trkpt lat="40.49993167" lon="-3.50410167">
        <ele>666.011</ele>
        <time>2019-07-01T19:50:33.935Z</time>
      </trkpt>
      <trkpt lat="40.50001833" lon="-3.50406167">
        <ele>666.011</ele>
        <time>2019-07-01T19:50:34.935Z</time>
      </trkpt>
      <trkpt lat="40.50006333" lon="-3.504045">
        <ele>666.011</ele>
        <time>2019-07-01T19:50:35.935Z</time>
      </trkpt>
      <trkpt lat="40.50011" lon="-3.50402667">
        <ele>666.011</ele>
        <time>2019-07-01T19:50:36.935Z</time>
      </trkpt>
      <trkpt lat="40.50011" lon="-3.50402667">
        <ele>666.011</ele>
        <time>2019-07-01T19:50:37.935Z</time>
      </trkpt>
      <trkpt lat="40.500205" lon="-3.503985">
        <ele>666.011</ele>
        <time>2019-07-01T19:50:38.935Z</time>
      </trkpt>
      <trkpt lat="40.50025333" lon="-3.50396667">
        <ele>666.011</ele>
        <time>2019-07-01T19:50:39.935Z</time>
      </trkpt>
      <trkpt lat="40.50025333" lon="-3.50396667">
        <ele>665.011</ele>
        <time>2019-07-01T19:50:40.935Z</time>
      </trkpt>
      <trkpt lat="40.500345" lon="-3.50392667">
        <ele>665.011</ele>
        <time>2019-07-01T19:50:41.935Z</time>
      </trkpt>
      <trkpt lat="40.50039" lon="-3.50390833">
        <ele>665.011</ele>
        <time>2019-07-01T19:50:42.935Z</time>
      </trkpt>
      <trkpt lat="40.50039" lon="-3.50390833">
        <ele>665.011</ele>
        <time>2019-07-01T19:50:43.935Z</time>
      </trkpt>
      <trkpt lat="40.500475" lon="-3.50387">
        <ele>665.011</ele>
        <time>2019-07-01T19:50:44.935Z</time>
      </trkpt>
      <trkpt lat="40.500475" lon="-3.50387">
        <ele>665.011</ele>
        <time>2019-07-01T19:50:45.935Z</time>
      </trkpt>
      <trkpt lat="40.50055833" lon="-3.50381833">
        <ele>664.011</ele>
        <time>2019-07-01T19:50:46.935Z</time>
      </trkpt>
      <trkpt lat="40.50055833" lon="-3.50381833">
        <ele>664.011</ele>
        <time>2019-07-01T19:50:47.935Z</time>
      </trkpt>
      <trkpt lat="40.500615" lon="-3.50372167">
        <ele>664.011</ele>
        <time>2019-07-01T19:50:48.935Z</time>
      </trkpt>
      <trkpt lat="40.500615" lon="-3.50372167">
        <ele>664.011</ele>
        <time>2019-07-01T19:50:49.935Z</time>
      </trkpt>
      <trkpt lat="40.50066833" lon="-3.50361">
        <ele>664.011</ele>
        <time>2019-07-01T19:50:50.935Z</time>
      </trkpt>
      <trkpt lat="40.50066833" lon="-3.50361">
        <ele>664.011</ele>
        <time>2019-07-01T19:50:51.935Z</time>
      </trkpt>
      <trkpt lat="40.50074667" lon="-3.50351833">
        <ele>664.011</ele>
        <time>2019-07-01T19:50:52.935Z</time>
      </trkpt>
      <trkpt lat="40.50079333" lon="-3.50349167">
        <ele>664.011</ele>
        <time>2019-07-01T19:50:53.935Z</time>
      </trkpt>
      <trkpt lat="40.50079333" lon="-3.50349167">
        <ele>664.011</ele>
        <time>2019-07-01T19:50:54.935Z</time>
      </trkpt>
      <trkpt lat="40.50089833" lon="-3.50349333">
        <ele>664.011</ele>
        <time>2019-07-01T19:50:55.935Z</time>
      </trkpt>
      <trkpt lat="40.50089833" lon="-3.50349333">
        <ele>664.011</ele>
        <time>2019-07-01T19:50:56.935Z</time>
      </trkpt>
      <trkpt lat="40.50098833" lon="-3.50355">
        <ele>664.011</ele>
        <time>2019-07-01T19:50:57.935Z</time>
      </trkpt>
      <trkpt lat="40.50098833" lon="-3.50355">
        <ele>664.011</ele>
        <time>2019-07-01T19:50:58.935Z</time>
      </trkpt>
      <trkpt lat="40.501075" lon="-3.50362167">
        <ele>664.011</ele>
        <time>2019-07-01T19:50:59.935Z</time>
      </trkpt>
      <trkpt lat="40.501125" lon="-3.50364333">
        <ele>664.011</ele>
        <time>2019-07-01T19:51:00.935Z</time>
      </trkpt>
      <trkpt lat="40.50117167" lon="-3.50364667">
        <ele>664.011</ele>
        <time>2019-07-01T19:51:01.935Z</time>
      </trkpt>
      <trkpt lat="40.50117167" lon="-3.50364667">
        <ele>664.011</ele>
        <time>2019-07-01T19:51:02.935Z</time>
      </trkpt>
      <trkpt lat="40.50126667" lon="-3.50363167">
        <ele>664.011</ele>
        <time>2019-07-01T19:51:03.935Z</time>
      </trkpt>
      <trkpt lat="40.50126667" lon="-3.50363167">
        <ele>664.011</ele>
        <time>2019-07-01T19:51:04.935Z</time>
      </trkpt>
      <trkpt lat="40.50135667" lon="-3.50361667">
        <ele>664.011</ele>
        <time>2019-07-01T19:51:05.935Z</time>
      </trkpt>
      <trkpt lat="40.5014" lon="-3.50361167">
        <ele>664.011</ele>
        <time>2019-07-01T19:51:06.935Z</time>
      </trkpt>
      <trkpt lat="40.5014" lon="-3.50361167">
        <ele>664.011</ele>
        <time>2019-07-01T19:51:07.935Z</time>
      </trkpt>
      <trkpt lat="40.50148167" lon="-3.50359833">
        <ele>664.011</ele>
        <time>2019-07-01T19:51:08.935Z</time>
      </trkpt>
      <trkpt lat="40.501525" lon="-3.50359">
        <ele>664.011</ele>
        <time>2019-07-01T19:51:09.935Z</time>
      </trkpt>
      <trkpt lat="40.50156833" lon="-3.50358333">
        <ele>664.011</ele>
        <time>2019-07-01T19:51:10.935Z</time>
      </trkpt>
      <trkpt lat="40.50156833" lon="-3.50358333">
        <ele>664.011</ele>
        <time>2019-07-01T19:51:11.935Z</time>
      </trkpt>
      <trkpt lat="40.50165167" lon="-3.50357">
        <ele>664.011</ele>
        <time>2019-07-01T19:51:12.935Z</time>
      </trkpt>
      <trkpt lat="40.50165167" lon="-3.50357">
        <ele>664.011</ele>
        <time>2019-07-01T19:51:13.935Z</time>
      </trkpt>
      <trkpt lat="40.501735" lon="-3.50355">
        <ele>664.011</ele>
        <time>2019-07-01T19:51:14.935Z</time>
      </trkpt>
      <trkpt lat="40.501735" lon="-3.50355">
        <ele>664.011</ele>
        <time>2019-07-01T19:51:15.935Z</time>
      </trkpt>
      <trkpt lat="40.50181833" lon="-3.503535">
        <ele>664.011</ele>
        <time>2019-07-01T19:51:16.935Z</time>
      </trkpt>
      <trkpt lat="40.50181833" lon="-3.503535">
        <ele>664.011</ele>
        <time>2019-07-01T19:51:17.935Z</time>
      </trkpt>
      <trkpt lat="40.5019" lon="-3.50351667">
        <ele>664.011</ele>
        <time>2019-07-01T19:51:18.935Z</time>
      </trkpt>
      <trkpt lat="40.50194" lon="-3.50350833">
        <ele>664.011</ele>
        <time>2019-07-01T19:51:19.935Z</time>
      </trkpt>
      <trkpt lat="40.50194" lon="-3.50350833">
        <ele>664.011</ele>
        <time>2019-07-01T19:51:20.935Z</time>
      </trkpt>
      <trkpt lat="40.50202167" lon="-3.50349667">
        <ele>664.011</ele>
        <time>2019-07-01T19:51:21.935Z</time>
      </trkpt>
      <trkpt lat="40.50206167" lon="-3.50349">
        <ele>664.011</ele>
        <time>2019-07-01T19:51:22.935Z</time>
      </trkpt>
      <trkpt lat="40.50206167" lon="-3.50349">
        <ele>664.011</ele>
        <time>2019-07-01T19:51:23.935Z</time>
      </trkpt>
      <trkpt lat="40.50214167" lon="-3.503475">
        <ele>664.011</ele>
        <time>2019-07-01T19:51:24.935Z</time>
      </trkpt>
      <trkpt lat="40.50214167" lon="-3.503475">
        <ele>664.011</ele>
        <time>2019-07-01T19:51:25.935Z</time>
      </trkpt>
      <trkpt lat="40.502225" lon="-3.50346333">
        <ele>664.011</ele>
        <time>2019-07-01T19:51:26.935Z</time>
      </trkpt>
      <trkpt lat="40.502225" lon="-3.50346333">
        <ele>664.011</ele>
        <time>2019-07-01T19:51:27.935Z</time>
      </trkpt>
      <trkpt lat="40.502305" lon="-3.50345">
        <ele>664.011</ele>
        <time>2019-07-01T19:51:28.935Z</time>
      </trkpt>
      <trkpt lat="40.50234667" lon="-3.50344167">
        <ele>664.011</ele>
        <time>2019-07-01T19:51:29.935Z</time>
      </trkpt>
      <trkpt lat="40.50234667" lon="-3.50344167">
        <ele>664.011</ele>
        <time>2019-07-01T19:51:30.935Z</time>
      </trkpt>
      <trkpt lat="40.50243" lon="-3.503425">
        <ele>665.011</ele>
        <time>2019-07-01T19:51:31.935Z</time>
      </trkpt>
      <trkpt lat="40.50243" lon="-3.503425">
        <ele>665.011</ele>
        <time>2019-07-01T19:51:32.935Z</time>
      </trkpt>
      <trkpt lat="40.50250833" lon="-3.50341167">
        <ele>665.011</ele>
        <time>2019-07-01T19:51:33.935Z</time>
      </trkpt>
      <trkpt lat="40.50254667" lon="-3.50340667">
        <ele>665.011</ele>
        <time>2019-07-01T19:51:34.935Z</time>
      </trkpt>
      <trkpt lat="40.50254667" lon="-3.50340667">
        <ele>665.011</ele>
        <time>2019-07-01T19:51:35.935Z</time>
      </trkpt>
      <trkpt lat="40.50263" lon="-3.50339333">
        <ele>665.011</ele>
        <time>2019-07-01T19:51:36.935Z</time>
      </trkpt>
      <trkpt lat="40.50263" lon="-3.50339333">
        <ele>665.011</ele>
        <time>2019-07-01T19:51:37.935Z</time>
      </trkpt>
      <trkpt lat="40.50271" lon="-3.50338">
        <ele>665.011</ele>
        <time>2019-07-01T19:51:38.935Z</time>
      </trkpt>
      <trkpt lat="40.50275" lon="-3.50337">
        <ele>665.011</ele>
        <time>2019-07-01T19:51:39.935Z</time>
      </trkpt>
      <trkpt lat="40.50275" lon="-3.50337">
        <ele>666.011</ele>
        <time>2019-07-01T19:51:40.935Z</time>
      </trkpt>
      <trkpt lat="40.502825" lon="-3.50335833">
        <ele>666.011</ele>
        <time>2019-07-01T19:51:41.935Z</time>
      </trkpt>
      <trkpt lat="40.502825" lon="-3.50335833">
        <ele>666.011</ele>
        <time>2019-07-01T19:51:42.935Z</time>
      </trkpt>
      <trkpt lat="40.5029" lon="-3.50335">
        <ele>666.011</ele>
        <time>2019-07-01T19:51:43.935Z</time>
      </trkpt>
      <trkpt lat="40.5029" lon="-3.50335">
        <ele>667.011</ele>
        <time>2019-07-01T19:51:44.935Z</time>
      </trkpt>
      <trkpt lat="40.50297167" lon="-3.50333833">
        <ele>667.011</ele>
        <time>2019-07-01T19:51:45.935Z</time>
      </trkpt>
      <trkpt lat="40.50297167" lon="-3.50333833">
        <ele>667.011</ele>
        <time>2019-07-01T19:51:46.935Z</time>
      </trkpt>
      <trkpt lat="40.503045" lon="-3.50332833">
        <ele>667.011</ele>
        <time>2019-07-01T19:51:47.935Z</time>
      </trkpt>
      <trkpt lat="40.503045" lon="-3.50332833">
        <ele>668.011</ele>
        <time>2019-07-01T19:51:48.935Z</time>
      </trkpt>
      <trkpt lat="40.50311833" lon="-3.503315">
        <ele>668.011</ele>
        <time>2019-07-01T19:51:49.935Z</time>
      </trkpt>
      <trkpt lat="40.50311833" lon="-3.503315">
        <ele>668.011</ele>
        <time>2019-07-01T19:51:50.935Z</time>
      </trkpt>
      <trkpt lat="40.50319333" lon="-3.50330333">
        <ele>668.011</ele>
        <time>2019-07-01T19:51:51.935Z</time>
      </trkpt>
      <trkpt lat="40.50319333" lon="-3.50330333">
        <ele>668.011</ele>
        <time>2019-07-01T19:51:52.935Z</time>
      </trkpt>
      <trkpt lat="40.503265" lon="-3.50329167">
        <ele>668.011</ele>
        <time>2019-07-01T19:51:53.935Z</time>
      </trkpt>
      <trkpt lat="40.5033" lon="-3.503285">
        <ele>668.011</ele>
        <time>2019-07-01T19:51:54.935Z</time>
      </trkpt>
      <trkpt lat="40.5033" lon="-3.503285">
        <ele>668.011</ele>
        <time>2019-07-01T19:51:55.935Z</time>
      </trkpt>
      <trkpt lat="40.503375" lon="-3.50327333">
        <ele>668.011</ele>
        <time>2019-07-01T19:51:56.935Z</time>
      </trkpt>
      <trkpt lat="40.50341167" lon="-3.50327">
        <ele>669.011</ele>
        <time>2019-07-01T19:51:57.935Z</time>
      </trkpt>
      <trkpt lat="40.50341167" lon="-3.50327">
        <ele>669.011</ele>
        <time>2019-07-01T19:51:58.935Z</time>
      </trkpt>
      <trkpt lat="40.50348" lon="-3.503265">
        <ele>669.011</ele>
        <time>2019-07-01T19:51:59.935Z</time>
      </trkpt>
      <trkpt lat="40.50351167" lon="-3.50326">
        <ele>669.011</ele>
        <time>2019-07-01T19:52:00.935Z</time>
      </trkpt>
      <trkpt lat="40.50351167" lon="-3.50326">
        <ele>669.011</ele>
        <time>2019-07-01T19:52:01.935Z</time>
      </trkpt>
      <trkpt lat="40.50358" lon="-3.503255">
        <ele>669.011</ele>
        <time>2019-07-01T19:52:02.935Z</time>
      </trkpt>
      <trkpt lat="40.50361667" lon="-3.503255">
        <ele>669.011</ele>
        <time>2019-07-01T19:52:03.935Z</time>
      </trkpt>
      <trkpt lat="40.50361667" lon="-3.503255">
        <ele>669.011</ele>
        <time>2019-07-01T19:52:04.935Z</time>
      </trkpt>
      <trkpt lat="40.50369167" lon="-3.50325333">
        <ele>670.011</ele>
        <time>2019-07-01T19:52:05.935Z</time>
      </trkpt>
      <trkpt lat="40.50373167" lon="-3.50325333">
        <ele>670.011</ele>
        <time>2019-07-01T19:52:06.935Z</time>
      </trkpt>
      <trkpt lat="40.50373167" lon="-3.50325333">
        <ele>670.011</ele>
        <time>2019-07-01T19:52:07.935Z</time>
      </trkpt>
      <trkpt lat="40.503805" lon="-3.50324833">
        <ele>670.011</ele>
        <time>2019-07-01T19:52:08.935Z</time>
      </trkpt>
      <trkpt lat="40.50384" lon="-3.50324">
        <ele>670.011</ele>
        <time>2019-07-01T19:52:09.935Z</time>
      </trkpt>
      <trkpt lat="40.50384" lon="-3.50324">
        <ele>670.011</ele>
        <time>2019-07-01T19:52:10.935Z</time>
      </trkpt>
      <trkpt lat="40.50390667" lon="-3.50320333">
        <ele>670.011</ele>
        <time>2019-07-01T19:52:11.935Z</time>
      </trkpt>
      <trkpt lat="40.50390667" lon="-3.50320333">
        <ele>670.011</ele>
        <time>2019-07-01T19:52:12.935Z</time>
      </trkpt>
      <trkpt lat="40.503975" lon="-3.50318167">
        <ele>670.011</ele>
        <time>2019-07-01T19:52:13.935Z</time>
      </trkpt>
      <trkpt lat="40.503975" lon="-3.50318167">
        <ele>670.011</ele>
        <time>2019-07-01T19:52:14.935Z</time>
      </trkpt>
      <trkpt lat="40.50403667" lon="-3.50322833">
        <ele>670.011</ele>
        <time>2019-07-01T19:52:15.935Z</time>
      </trkpt>
      <trkpt lat="40.50403667" lon="-3.50322833">
        <ele>670.011</ele>
        <time>2019-07-01T19:52:16.935Z</time>
      </trkpt>
      <trkpt lat="40.50404333" lon="-3.50332167">
        <ele>670.011</ele>
        <time>2019-07-01T19:52:17.935Z</time>
      </trkpt>
      <trkpt lat="40.50403667" lon="-3.50337667">
        <ele>670.011</ele>
        <time>2019-07-01T19:52:18.935Z</time>
      </trkpt>
      <trkpt lat="40.50403667" lon="-3.50337667">
        <ele>670.011</ele>
        <time>2019-07-01T19:52:19.935Z</time>
      </trkpt>
      <trkpt lat="40.504045" lon="-3.503485">
        <ele>670.011</ele>
        <time>2019-07-01T19:52:20.935Z</time>
      </trkpt>
      <trkpt lat="40.504055" lon="-3.50353333">
        <ele>670.011</ele>
        <time>2019-07-01T19:52:21.935Z</time>
      </trkpt>
      <trkpt lat="40.504055" lon="-3.50353333">
        <ele>670.011</ele>
        <time>2019-07-01T19:52:22.935Z</time>
      </trkpt>
      <trkpt lat="40.50408333" lon="-3.50362167">
        <ele>670.011</ele>
        <time>2019-07-01T19:52:23.935Z</time>
      </trkpt>
      <trkpt lat="40.504095" lon="-3.503665">
        <ele>670.011</ele>
        <time>2019-07-01T19:52:24.935Z</time>
      </trkpt>
      <trkpt lat="40.504095" lon="-3.503665">
        <ele>670.011</ele>
        <time>2019-07-01T19:52:25.935Z</time>
      </trkpt>
      <trkpt lat="40.50412" lon="-3.50374667">
        <ele>670.011</ele>
        <time>2019-07-01T19:52:26.935Z</time>
      </trkpt>
      <trkpt lat="40.50413" lon="-3.50378333">
        <ele>670.011</ele>
        <time>2019-07-01T19:52:27.935Z</time>
      </trkpt>
      <trkpt lat="40.50413" lon="-3.50378333">
        <ele>670.011</ele>
        <time>2019-07-01T19:52:28.935Z</time>
      </trkpt>
      <trkpt lat="40.50415167" lon="-3.50385333">
        <ele>670.011</ele>
        <time>2019-07-01T19:52:29.935Z</time>
      </trkpt>
      <trkpt lat="40.504165" lon="-3.50389167">
        <ele>670.011</ele>
        <time>2019-07-01T19:52:30.935Z</time>
      </trkpt>
      <trkpt lat="40.504165" lon="-3.50389167">
        <ele>671.011</ele>
        <time>2019-07-01T19:52:31.935Z</time>
      </trkpt>
      <trkpt lat="40.504185" lon="-3.50396833">
        <ele>671.011</ele>
        <time>2019-07-01T19:52:32.935Z</time>
      </trkpt>
      <trkpt lat="40.504185" lon="-3.50396833">
        <ele>671.011</ele>
        <time>2019-07-01T19:52:33.935Z</time>
      </trkpt>
      <trkpt lat="40.504205" lon="-3.50404333">
        <ele>671.011</ele>
        <time>2019-07-01T19:52:34.935Z</time>
      </trkpt>
      <trkpt lat="40.50421167" lon="-3.50408167">
        <ele>672.011</ele>
        <time>2019-07-01T19:52:35.935Z</time>
      </trkpt>
      <trkpt lat="40.50422167" lon="-3.50412">
        <ele>672.011</ele>
        <time>2019-07-01T19:52:36.935Z</time>
      </trkpt>
      <trkpt lat="40.50422167" lon="-3.50412">
        <ele>672.011</ele>
        <time>2019-07-01T19:52:37.935Z</time>
      </trkpt>
      <trkpt lat="40.50424" lon="-3.50419167">
        <ele>672.011</ele>
        <time>2019-07-01T19:52:38.935Z</time>
      </trkpt>
      <trkpt lat="40.50424" lon="-3.50419167">
        <ele>672.011</ele>
        <time>2019-07-01T19:52:39.935Z</time>
      </trkpt>
      <trkpt lat="40.50426" lon="-3.50426667">
        <ele>673.011</ele>
        <time>2019-07-01T19:52:40.935Z</time>
      </trkpt>
      <trkpt lat="40.50426" lon="-3.50426667">
        <ele>673.011</ele>
        <time>2019-07-01T19:52:41.935Z</time>
      </trkpt>
      <trkpt lat="40.50427667" lon="-3.50434167">
        <ele>673.011</ele>
        <time>2019-07-01T19:52:42.935Z</time>
      </trkpt>
      <trkpt lat="40.50427667" lon="-3.50434167">
        <ele>673.011</ele>
        <time>2019-07-01T19:52:43.935Z</time>
      </trkpt>
      <trkpt lat="40.50429" lon="-3.50441667">
        <ele>673.011</ele>
        <time>2019-07-01T19:52:44.935Z</time>
      </trkpt>
      <trkpt lat="40.50429667" lon="-3.504455">
        <ele>673.011</ele>
        <time>2019-07-01T19:52:45.935Z</time>
      </trkpt>
      <trkpt lat="40.50429667" lon="-3.504455">
        <ele>674.011</ele>
        <time>2019-07-01T19:52:46.935Z</time>
      </trkpt>
      <trkpt lat="40.504315" lon="-3.50453">
        <ele>674.011</ele>
        <time>2019-07-01T19:52:47.935Z</time>
      </trkpt>
      <trkpt lat="40.50432667" lon="-3.50456667">
        <ele>674.011</ele>
        <time>2019-07-01T19:52:48.935Z</time>
      </trkpt>
      <trkpt lat="40.50432667" lon="-3.50456667">
        <ele>674.011</ele>
        <time>2019-07-01T19:52:49.935Z</time>
      </trkpt>
      <trkpt lat="40.504345" lon="-3.50464">
        <ele>674.011</ele>
        <time>2019-07-01T19:52:50.935Z</time>
      </trkpt>
      <trkpt lat="40.50435" lon="-3.50467667">
        <ele>674.011</ele>
        <time>2019-07-01T19:52:51.935Z</time>
      </trkpt>
      <trkpt lat="40.50435" lon="-3.50467667">
        <ele>675.011</ele>
        <time>2019-07-01T19:52:52.935Z</time>
      </trkpt>
      <trkpt lat="40.50437" lon="-3.50475333">
        <ele>675.011</ele>
        <time>2019-07-01T19:52:53.935Z</time>
      </trkpt>
      <trkpt lat="40.50438" lon="-3.50479167">
        <ele>675.011</ele>
        <time>2019-07-01T19:52:54.935Z</time>
      </trkpt>
      <trkpt lat="40.50438" lon="-3.50479167">
        <ele>675.011</ele>
        <time>2019-07-01T19:52:55.935Z</time>
      </trkpt>
      <trkpt lat="40.504395" lon="-3.50486333">
        <ele>675.011</ele>
        <time>2019-07-01T19:52:56.935Z</time>
      </trkpt>
      <trkpt lat="40.50440333" lon="-3.50489667">
        <ele>675.011</ele>
        <time>2019-07-01T19:52:57.935Z</time>
      </trkpt>
      <trkpt lat="40.50440333" lon="-3.50489667">
        <ele>676.011</ele>
        <time>2019-07-01T19:52:58.935Z</time>
      </trkpt>
      <trkpt lat="40.50442167" lon="-3.50496667">
        <ele>676.011</ele>
        <time>2019-07-01T19:52:59.935Z</time>
      </trkpt>
      <trkpt lat="40.50443167" lon="-3.50500333">
        <ele>677.011</ele>
        <time>2019-07-01T19:53:00.935Z</time>
      </trkpt>
      <trkpt lat="40.50443167" lon="-3.50500333">
        <ele>677.011</ele>
        <time>2019-07-01T19:53:01.935Z</time>
      </trkpt>
      <trkpt lat="40.50445" lon="-3.50508">
        <ele>677.011</ele>
        <time>2019-07-01T19:53:02.935Z</time>
      </trkpt>
      <trkpt lat="40.50446167" lon="-3.50511833">
        <ele>677.011</ele>
        <time>2019-07-01T19:53:03.935Z</time>
      </trkpt>
      <trkpt lat="40.50446167" lon="-3.50511833">
        <ele>678.011</ele>
        <time>2019-07-01T19:53:04.935Z</time>
      </trkpt>
      <trkpt lat="40.50447833" lon="-3.50518833">
        <ele>678.011</ele>
        <time>2019-07-01T19:53:05.935Z</time>
      </trkpt>
      <trkpt lat="40.50448833" lon="-3.505225">
        <ele>678.011</ele>
        <time>2019-07-01T19:53:06.935Z</time>
      </trkpt>
      <trkpt lat="40.50448833" lon="-3.505225">
        <ele>678.011</ele>
        <time>2019-07-01T19:53:07.935Z</time>
      </trkpt>
      <trkpt lat="40.50450833" lon="-3.50529833">
        <ele>678.011</ele>
        <time>2019-07-01T19:53:08.935Z</time>
      </trkpt>
      <trkpt lat="40.50450833" lon="-3.50529833">
        <ele>679.011</ele>
        <time>2019-07-01T19:53:09.935Z</time>
      </trkpt>
      <trkpt lat="40.504525" lon="-3.50537">
        <ele>679.011</ele>
        <time>2019-07-01T19:53:10.935Z</time>
      </trkpt>
      <trkpt lat="40.504525" lon="-3.50537">
        <ele>679.011</ele>
        <time>2019-07-01T19:53:11.935Z</time>
      </trkpt>
      <trkpt lat="40.50454167" lon="-3.50544333">
        <ele>679.011</ele>
        <time>2019-07-01T19:53:12.935Z</time>
      </trkpt>
      <trkpt lat="40.50454167" lon="-3.50544333">
        <ele>680.011</ele>
        <time>2019-07-01T19:53:13.935Z</time>
      </trkpt>
      <trkpt lat="40.50456" lon="-3.50551333">
        <ele>680.011</ele>
        <time>2019-07-01T19:53:14.935Z</time>
      </trkpt>
      <trkpt lat="40.50456" lon="-3.50551333">
        <ele>680.011</ele>
        <time>2019-07-01T19:53:15.935Z</time>
      </trkpt>
      <trkpt lat="40.50458" lon="-3.50558833">
        <ele>680.011</ele>
        <time>2019-07-01T19:53:16.935Z</time>
      </trkpt>
      <trkpt lat="40.50458" lon="-3.50558833">
        <ele>681.011</ele>
        <time>2019-07-01T19:53:17.935Z</time>
      </trkpt>
      <trkpt lat="40.50460333" lon="-3.50565833">
        <ele>681.011</ele>
        <time>2019-07-01T19:53:18.935Z</time>
      </trkpt>
      <trkpt lat="40.50460333" lon="-3.50565833">
        <ele>681.011</ele>
        <time>2019-07-01T19:53:19.935Z</time>
      </trkpt>
      <trkpt lat="40.504625" lon="-3.505725">
        <ele>681.011</ele>
        <time>2019-07-01T19:53:20.935Z</time>
      </trkpt>
      <trkpt lat="40.504625" lon="-3.505725">
        <ele>682.011</ele>
        <time>2019-07-01T19:53:21.935Z</time>
      </trkpt>
      <trkpt lat="40.50465" lon="-3.50580333">
        <ele>682.011</ele>
        <time>2019-07-01T19:53:22.935Z</time>
      </trkpt>
      <trkpt lat="40.50465" lon="-3.50580333">
        <ele>682.011</ele>
        <time>2019-07-01T19:53:23.935Z</time>
      </trkpt>
      <trkpt lat="40.50467167" lon="-3.50588">
        <ele>682.011</ele>
        <time>2019-07-01T19:53:24.935Z</time>
      </trkpt>
      <trkpt lat="40.50467167" lon="-3.50588">
        <ele>682.011</ele>
        <time>2019-07-01T19:53:25.935Z</time>
      </trkpt>
      <trkpt lat="40.50469167" lon="-3.50595833">
        <ele>682.011</ele>
        <time>2019-07-01T19:53:26.935Z</time>
      </trkpt>
      <trkpt lat="40.50469167" lon="-3.50595833">
        <ele>682.011</ele>
        <time>2019-07-01T19:53:27.935Z</time>
      </trkpt>
      <trkpt lat="40.50471667" lon="-3.50603833">
        <ele>682.011</ele>
        <time>2019-07-01T19:53:28.935Z</time>
      </trkpt>
      <trkpt lat="40.50471667" lon="-3.50603833">
        <ele>682.011</ele>
        <time>2019-07-01T19:53:29.935Z</time>
      </trkpt>
      <trkpt lat="40.50474" lon="-3.50611167">
        <ele>682.011</ele>
        <time>2019-07-01T19:53:30.935Z</time>
      </trkpt>
      <trkpt lat="40.50474" lon="-3.50611167">
        <ele>683.011</ele>
        <time>2019-07-01T19:53:31.935Z</time>
      </trkpt>
      <trkpt lat="40.50476333" lon="-3.50618167">
        <ele>683.011</ele>
        <time>2019-07-01T19:53:32.935Z</time>
      </trkpt>
      <trkpt lat="40.50476333" lon="-3.50618167">
        <ele>683.011</ele>
        <time>2019-07-01T19:53:33.935Z</time>
      </trkpt>
      <trkpt lat="40.50478833" lon="-3.50625667">
        <ele>683.011</ele>
        <time>2019-07-01T19:53:34.935Z</time>
      </trkpt>
      <trkpt lat="40.50478833" lon="-3.50625667">
        <ele>684.011</ele>
        <time>2019-07-01T19:53:35.935Z</time>
      </trkpt>
      <trkpt lat="40.50481" lon="-3.50632833">
        <ele>684.011</ele>
        <time>2019-07-01T19:53:36.935Z</time>
      </trkpt>
      <trkpt lat="40.50481" lon="-3.50632833">
        <ele>684.011</ele>
        <time>2019-07-01T19:53:37.935Z</time>
      </trkpt>
      <trkpt lat="40.50482833" lon="-3.50639667">
        <ele>684.011</ele>
        <time>2019-07-01T19:53:38.935Z</time>
      </trkpt>
      <trkpt lat="40.50482833" lon="-3.50639667">
        <ele>684.011</ele>
        <time>2019-07-01T19:53:39.935Z</time>
      </trkpt>
      <trkpt lat="40.50485167" lon="-3.50646333">
        <ele>684.011</ele>
        <time>2019-07-01T19:53:40.935Z</time>
      </trkpt>
      <trkpt lat="40.50486167" lon="-3.50649667">
        <ele>684.011</ele>
        <time>2019-07-01T19:53:41.935Z</time>
      </trkpt>
      <trkpt lat="40.50487333" lon="-3.50653">
        <ele>684.011</ele>
        <time>2019-07-01T19:53:42.935Z</time>
      </trkpt>
      <trkpt lat="40.50487333" lon="-3.50653">
        <ele>685.011</ele>
        <time>2019-07-01T19:53:43.935Z</time>
      </trkpt>
      <trkpt lat="40.50489333" lon="-3.50659333">
        <ele>685.011</ele>
        <time>2019-07-01T19:53:44.935Z</time>
      </trkpt>
      <trkpt lat="40.50490333" lon="-3.50662667">
        <ele>685.011</ele>
        <time>2019-07-01T19:53:45.935Z</time>
      </trkpt>
      <trkpt lat="40.50490333" lon="-3.50662667">
        <ele>685.011</ele>
        <time>2019-07-01T19:53:46.935Z</time>
      </trkpt>
      <trkpt lat="40.50492" lon="-3.506695">
        <ele>685.011</ele>
        <time>2019-07-01T19:53:47.935Z</time>
      </trkpt>
      <trkpt lat="40.50493333" lon="-3.50673">
        <ele>685.011</ele>
        <time>2019-07-01T19:53:48.935Z</time>
      </trkpt>
      <trkpt lat="40.50493333" lon="-3.50673">
        <ele>685.011</ele>
        <time>2019-07-01T19:53:49.935Z</time>
      </trkpt>
      <trkpt lat="40.504955" lon="-3.506795">
        <ele>685.011</ele>
        <time>2019-07-01T19:53:50.935Z</time>
      </trkpt>
      <trkpt lat="40.504965" lon="-3.50682667">
        <ele>686.011</ele>
        <time>2019-07-01T19:53:51.935Z</time>
      </trkpt>
      <trkpt lat="40.504965" lon="-3.50682667">
        <ele>686.011</ele>
        <time>2019-07-01T19:53:52.935Z</time>
      </trkpt>
      <trkpt lat="40.50499333" lon="-3.50689167">
        <ele>686.011</ele>
        <time>2019-07-01T19:53:53.935Z</time>
      </trkpt>
      <trkpt lat="40.50500333" lon="-3.506925">
        <ele>686.011</ele>
        <time>2019-07-01T19:53:54.935Z</time>
      </trkpt>
      <trkpt lat="40.50500333" lon="-3.506925">
        <ele>686.011</ele>
        <time>2019-07-01T19:53:55.935Z</time>
      </trkpt>
      <trkpt lat="40.50502833" lon="-3.50699333">
        <ele>686.011</ele>
        <time>2019-07-01T19:53:56.935Z</time>
      </trkpt>
      <trkpt lat="40.50502833" lon="-3.50699333">
        <ele>686.011</ele>
        <time>2019-07-01T19:53:57.935Z</time>
      </trkpt>
      <trkpt lat="40.505055" lon="-3.507055">
        <ele>686.011</ele>
        <time>2019-07-01T19:53:58.935Z</time>
      </trkpt>
      <trkpt lat="40.505055" lon="-3.507055">
        <ele>687.011</ele>
        <time>2019-07-01T19:53:59.935Z</time>
      </trkpt>
      <trkpt lat="40.50508" lon="-3.50711667">
        <ele>687.011</ele>
        <time>2019-07-01T19:54:00.935Z</time>
      </trkpt>
      <trkpt lat="40.50508" lon="-3.50711667">
        <ele>687.011</ele>
        <time>2019-07-01T19:54:01.935Z</time>
      </trkpt>
      <trkpt lat="40.50510667" lon="-3.50717167">
        <ele>687.011</ele>
        <time>2019-07-01T19:54:02.935Z</time>
      </trkpt>
      <trkpt lat="40.50510667" lon="-3.50717167">
        <ele>687.011</ele>
        <time>2019-07-01T19:54:03.935Z</time>
      </trkpt>
      <trkpt lat="40.50513833" lon="-3.50723167">
        <ele>687.011</ele>
        <time>2019-07-01T19:54:04.935Z</time>
      </trkpt>
      <trkpt lat="40.50513833" lon="-3.50723167">
        <ele>687.011</ele>
        <time>2019-07-01T19:54:05.935Z</time>
      </trkpt>
      <trkpt lat="40.50516667" lon="-3.507305">
        <ele>688.011</ele>
        <time>2019-07-01T19:54:06.935Z</time>
      </trkpt>
      <trkpt lat="40.50516667" lon="-3.507305">
        <ele>688.011</ele>
        <time>2019-07-01T19:54:07.935Z</time>
      </trkpt>
      <trkpt lat="40.50517" lon="-3.50735333">
        <ele>688.011</ele>
        <time>2019-07-01T19:54:08.935Z</time>
      </trkpt>
      <trkpt lat="40.50517" lon="-3.50735333">
        <ele>688.011</ele>
        <time>2019-07-01T19:54:09.935Z</time>
      </trkpt>
      <trkpt lat="40.50513833" lon="-3.50733333">
        <ele>690.011</ele>
        <time>2019-07-01T19:54:10.935Z</time>
      </trkpt>
      <trkpt lat="40.50513833" lon="-3.50733333">
        <ele>690.011</ele>
        <time>2019-07-01T19:54:11.935Z</time>
      </trkpt>
      <trkpt lat="40.50511667" lon="-3.50727167">
        <ele>691.011</ele>
        <time>2019-07-01T19:54:12.935Z</time>
      </trkpt>
      <trkpt lat="40.505105" lon="-3.50723833">
        <ele>691.011</ele>
        <time>2019-07-01T19:54:13.935Z</time>
      </trkpt>
      <trkpt lat="40.50509167" lon="-3.50720333">
        <ele>691.011</ele>
        <time>2019-07-01T19:54:14.935Z</time>
      </trkpt>
      <trkpt lat="40.50509167" lon="-3.50720333">
        <ele>691.011</ele>
        <time>2019-07-01T19:54:15.935Z</time>
      </trkpt>
      <trkpt lat="40.50505667" lon="-3.50711333">
        <ele>690.011</ele>
        <time>2019-07-01T19:54:16.935Z</time>
      </trkpt>
      <trkpt lat="40.50503667" lon="-3.50705833">
        <ele>690.011</ele>
        <time>2019-07-01T19:54:17.935Z</time>
      </trkpt>
      <trkpt lat="40.50503667" lon="-3.50705833">
        <ele>690.011</ele>
        <time>2019-07-01T19:54:18.935Z</time>
      </trkpt>
      <trkpt lat="40.50499833" lon="-3.50694167">
        <ele>690.011</ele>
        <time>2019-07-01T19:54:19.935Z</time>
      </trkpt>
      <trkpt lat="40.50499833" lon="-3.50694167">
        <ele>689.011</ele>
        <time>2019-07-01T19:54:20.935Z</time>
      </trkpt>
      <trkpt lat="40.50494667" lon="-3.50680333">
        <ele>689.011</ele>
        <time>2019-07-01T19:54:21.935Z</time>
      </trkpt>
      <trkpt lat="40.50494667" lon="-3.50680333">
        <ele>688.011</ele>
        <time>2019-07-01T19:54:22.935Z</time>
      </trkpt>
      <trkpt lat="40.50489" lon="-3.506645">
        <ele>688.011</ele>
        <time>2019-07-01T19:54:23.935Z</time>
      </trkpt>
      <trkpt lat="40.50486167" lon="-3.50656167">
        <ele>687.011</ele>
        <time>2019-07-01T19:54:24.935Z</time>
      </trkpt>
      <trkpt lat="40.50486167" lon="-3.50656167">
        <ele>687.011</ele>
        <time>2019-07-01T19:54:25.935Z</time>
      </trkpt>
      <trkpt lat="40.504815" lon="-3.5064">
        <ele>686.011</ele>
        <time>2019-07-01T19:54:26.935Z</time>
      </trkpt>
      <trkpt lat="40.50479667" lon="-3.506335">
        <ele>686.011</ele>
        <time>2019-07-01T19:54:27.935Z</time>
      </trkpt>
      <trkpt lat="40.50479667" lon="-3.506335">
        <ele>686.011</ele>
        <time>2019-07-01T19:54:28.935Z</time>
      </trkpt>
      <trkpt lat="40.50472833" lon="-3.50624833">
        <ele>686.011</ele>
        <time>2019-07-01T19:54:29.935Z</time>
      </trkpt>
      <trkpt lat="40.50468167" lon="-3.50625333">
        <ele>685.011</ele>
        <time>2019-07-01T19:54:30.935Z</time>
      </trkpt>
      <trkpt lat="40.50468167" lon="-3.50625333">
        <ele>685.011</ele>
        <time>2019-07-01T19:54:31.935Z</time>
      </trkpt>
      <trkpt lat="40.50458667" lon="-3.50632">
        <ele>685.011</ele>
        <time>2019-07-01T19:54:32.935Z</time>
      </trkpt>
      <trkpt lat="40.50458667" lon="-3.50632">
        <ele>685.011</ele>
        <time>2019-07-01T19:54:33.935Z</time>
      </trkpt>
      <trkpt lat="40.504485" lon="-3.50639333">
        <ele>685.011</ele>
        <time>2019-07-01T19:54:34.935Z</time>
      </trkpt>
      <trkpt lat="40.504485" lon="-3.50639333">
        <ele>685.011</ele>
        <time>2019-07-01T19:54:35.935Z</time>
      </trkpt>
      <trkpt lat="40.50437333" lon="-3.50645833">
        <ele>685.011</ele>
        <time>2019-07-01T19:54:36.935Z</time>
      </trkpt>
      <trkpt lat="40.50437333" lon="-3.50645833">
        <ele>685.011</ele>
        <time>2019-07-01T19:54:37.935Z</time>
      </trkpt>
      <trkpt lat="40.50425833" lon="-3.50653667">
        <ele>685.011</ele>
        <time>2019-07-01T19:54:38.935Z</time>
      </trkpt>
      <trkpt lat="40.50425833" lon="-3.50653667">
        <ele>685.011</ele>
        <time>2019-07-01T19:54:39.935Z</time>
      </trkpt>
      <trkpt lat="40.50414" lon="-3.50661333">
        <ele>685.011</ele>
        <time>2019-07-01T19:54:40.935Z</time>
      </trkpt>
      <trkpt lat="40.50414" lon="-3.50661333">
        <ele>685.011</ele>
        <time>2019-07-01T19:54:41.935Z</time>
      </trkpt>
      <trkpt lat="40.50401667" lon="-3.50668333">
        <ele>685.011</ele>
        <time>2019-07-01T19:54:42.935Z</time>
      </trkpt>
      <trkpt lat="40.50401667" lon="-3.50668333">
        <ele>685.011</ele>
        <time>2019-07-01T19:54:43.935Z</time>
      </trkpt>
      <trkpt lat="40.50395667" lon="-3.50673667">
        <ele>684.011</ele>
        <time>2019-07-01T19:54:44.935Z</time>
      </trkpt>
      <trkpt lat="40.50395667" lon="-3.50673667">
        <ele>684.011</ele>
        <time>2019-07-01T19:54:45.935Z</time>
      </trkpt>
      <trkpt lat="40.50395" lon="-3.50678">
        <ele>684.011</ele>
        <time>2019-07-01T19:54:46.935Z</time>
      </trkpt>
      <trkpt lat="40.50394833" lon="-3.50679">
        <ele>684.011</ele>
        <time>2019-07-01T19:54:47.935Z</time>
      </trkpt>
      <trkpt lat="40.50394667" lon="-3.50679">
        <ele>684.011</ele>
        <time>2019-07-01T19:54:48.935Z</time>
      </trkpt>
    </trkseg>
  </trk>
</gpx>
